<?xml version='1.0' encoding='UTF-8'?><gpx version="1.1" creator="JPX - https://github.com/jenetics/jpx" xmlns="http://www.topografix.com/GPX/1/1"><trk><trkseg><trkpt lat="44.72786619521042" lon="7.822079996002756"><ele>330.00000000000006</ele><time>2026-04-10T06:15:49.001Z</time></trkpt><trkpt lat="44.72782049225609" lon="7.822007528553016"><ele>330.0</ele><time>2026-04-10T06:16:27Z</time></trkpt><trkpt lat="44.727758510337345" lon="7.821968837072948"><ele>330.0</ele><time>2026-04-10T06:16:47Z</time></trkpt><trkpt lat="44.72774084137993" lon="7.821883446581013"><ele>330.0</ele><time>2026-04-10T06:17:39Z</time></trkpt><trkpt lat="44.727761086572634" lon="7.821788653266676"><ele>330.0</ele><time>2026-04-10T06:18:12Z</time></trkpt><trkpt lat="44.72776320231752" lon="7.821683204404686"><ele>330.00000000000006</ele><time>2026-04-10T06:18:59.001Z</time></trkpt><trkpt lat="44.72781704532202" lon="7.8217392784825766"><ele>330.0</ele><time>2026-04-10T06:19:14.001Z</time></trkpt><trkpt lat="44.72780261635586" lon="7.821828416658629"><ele>330.0</ele><time>2026-04-10T06:19:30.001Z</time></trkpt><trkpt lat="44.72784882928967" lon="7.821895339713045"><ele>330.0</ele><time>2026-04-10T06:19:43.001Z</time></trkpt><trkpt lat="44.7277878236387" lon="7.822023934206355"><ele>330.0</ele><time>2026-04-10T06:20:21.001Z</time></trkpt><trkpt lat="44.72780571846025" lon="7.822110245951388"><ele>330.0</ele><time>2026-04-10T06:20:48.001Z</time></trkpt><trkpt lat="44.72779770917932" lon="7.821939964872239"><ele>330.0</ele><time>2026-04-10T06:25:33.001Z</time></trkpt><trkpt lat="44.72781905875814" lon="7.822069350291439"><ele>327.2</ele><time>2026-04-10T06:26:40Z</time></trkpt><trkpt lat="44.72791287470662" lon="7.821812842912191"><ele>324.4</ele><time>2026-04-10T06:35:18Z</time></trkpt><trkpt lat="44.72791893743836" lon="7.821717904921332"><ele>321.6</ele><time>2026-04-10T06:40:28Z</time></trkpt><trkpt lat="44.72785067474451" lon="7.821723994682335"><ele>318.8</ele><time>2026-04-10T06:40:30Z</time></trkpt><trkpt lat="44.72785707219254" lon="7.82163441600334"><ele>316.0</ele><time>2026-04-10T06:40:34Z</time></trkpt><trkpt lat="44.727917923973415" lon="7.821539982027507"><ele>316.0</ele><time>2026-04-10T06:40:39Z</time></trkpt><trkpt lat="44.72800840704066" lon="7.821495831355331"><ele>316.0</ele><time>2026-04-10T06:40:42Z</time></trkpt><trkpt lat="44.72808452692556" lon="7.821469205445822"><ele>316.0</ele><time>2026-04-10T06:40:45Z</time></trkpt><trkpt lat="44.728168963353006" lon="7.821470346367622"><ele>316.0</ele><time>2026-04-10T06:40:47Z</time></trkpt><trkpt lat="44.728260844938006" lon="7.821435017888762"><ele>316.0</ele><time>2026-04-10T06:40:49Z</time></trkpt><trkpt lat="44.72834952285216" lon="7.821395232012932"><ele>316.0</ele><time>2026-04-10T06:40:51Z</time></trkpt><trkpt lat="44.72844831075524" lon="7.821333049485127"><ele>316.0</ele><time>2026-04-10T06:40:53Z</time></trkpt><trkpt lat="44.72851253847902" lon="7.8212928276113844"><ele>316.0</ele><time>2026-04-10T06:40:54Z</time></trkpt><trkpt lat="44.728571432019216" lon="7.821239327049272"><ele>316.0</ele><time>2026-04-10T06:40:55Z</time></trkpt><trkpt lat="44.728626649846824" lon="7.821179681974839"><ele>316.0</ele><time>2026-04-10T06:40:56Z</time></trkpt><trkpt lat="44.72872464162909" lon="7.821085470990388"><ele>316.0</ele><time>2026-04-10T06:40:58Z</time></trkpt><trkpt lat="44.72878695329322" lon="7.820997297326456"><ele>316.0</ele><time>2026-04-10T06:41:00Z</time></trkpt><trkpt lat="44.728831074091445" lon="7.820906227012159"><ele>316.40000000000003</ele><time>2026-04-10T06:41:02Z</time></trkpt><trkpt lat="44.728836224924414" lon="7.820785573392135"><ele>316.8</ele><time>2026-04-10T06:41:04Z</time></trkpt><trkpt lat="44.72888048926572" lon="7.82067231715697"><ele>317.20000000000005</ele><time>2026-04-10T06:41:06Z</time></trkpt><trkpt lat="44.72892821094097" lon="7.820540312099113"><ele>317.6</ele><time>2026-04-10T06:41:08Z</time></trkpt><trkpt lat="44.72897872415921" lon="7.820402679651666"><ele>318.0</ele><time>2026-04-10T06:41:10Z</time></trkpt><trkpt lat="44.728946281576675" lon="7.820255904016816"><ele>318.0</ele><time>2026-04-10T06:41:12Z</time></trkpt><trkpt lat="44.72884140818342" lon="7.820165339188431"><ele>318.0</ele><time>2026-04-10T06:41:14Z</time></trkpt><trkpt lat="44.72878020413778" lon="7.820125245084423"><ele>318.0</ele><time>2026-04-10T06:41:15Z</time></trkpt><trkpt lat="44.72871622510123" lon="7.820100891435423"><ele>318.0</ele><time>2026-04-10T06:41:16Z</time></trkpt><trkpt lat="44.72859762242158" lon="7.8200650225535755"><ele>318.0</ele><time>2026-04-10T06:41:18Z</time></trkpt><trkpt lat="44.72848198103977" lon="7.82001550367102"><ele>313.8333333333333</ele><time>2026-04-10T06:41:20Z</time></trkpt><trkpt lat="44.72841738786595" lon="7.819999767075415"><ele>309.6666666666667</ele><time>2026-04-10T06:41:21Z</time></trkpt><trkpt lat="44.728347719714776" lon="7.819984258822118"><ele>305.5</ele><time>2026-04-10T06:41:22Z</time></trkpt><trkpt lat="44.72823739961662" lon="7.81995011203345"><ele>301.33333333333337</ele><time>2026-04-10T06:41:24Z</time></trkpt><trkpt lat="44.728126194586395" lon="7.819916202923879"><ele>297.1666666666667</ele><time>2026-04-10T06:41:26Z</time></trkpt><trkpt lat="44.72804429105309" lon="7.819886283753913"><ele>293.0</ele><time>2026-04-10T06:41:28Z</time></trkpt><trkpt lat="44.72795758850407" lon="7.819900135869941"><ele>293.0</ele><time>2026-04-10T06:41:30Z</time></trkpt><trkpt lat="44.727850869651505" lon="7.819875773355973"><ele>293.0</ele><time>2026-04-10T06:41:32Z</time></trkpt><trkpt lat="44.72776210269044" lon="7.819906737454824"><ele>293.0</ele><time>2026-04-10T06:41:34Z</time></trkpt><trkpt lat="44.7276724009116" lon="7.819970008050812"><ele>293.0</ele><time>2026-04-10T06:41:36Z</time></trkpt><trkpt lat="44.727580103822035" lon="7.820049429714949"><ele>293.0</ele><time>2026-04-10T06:41:38Z</time></trkpt><trkpt lat="44.727477560544166" lon="7.820113483935501"><ele>293.2</ele><time>2026-04-10T06:41:40Z</time></trkpt><trkpt lat="44.72738900493469" lon="7.820181362876865"><ele>293.4</ele><time>2026-04-10T06:41:42Z</time></trkpt><trkpt lat="44.72731263039468" lon="7.820253914097356"><ele>293.59999999999997</ele><time>2026-04-10T06:41:44Z</time></trkpt><trkpt lat="44.7272457432339" lon="7.820233543454102"><ele>293.8</ele><time>2026-04-10T06:41:46Z</time></trkpt><trkpt lat="44.72717193344497" lon="7.8200978038954965"><ele>294.0</ele><time>2026-04-10T06:41:48Z</time></trkpt><trkpt lat="44.72713542982849" lon="7.820007143706098"><ele>291.59999999999997</ele><time>2026-04-10T06:41:49Z</time></trkpt><trkpt lat="44.72706861522445" lon="7.81986443679383"><ele>289.2</ele><time>2026-04-10T06:41:51Z</time></trkpt><trkpt lat="44.72702835358583" lon="7.819785588542871"><ele>286.79999999999995</ele><time>2026-04-10T06:41:52Z</time></trkpt><trkpt lat="44.726955923522354" lon="7.81965887638836"><ele>284.4</ele><time>2026-04-10T06:41:54Z</time></trkpt><trkpt lat="44.726878217195065" lon="7.819536536339632"><ele>282.0</ele><time>2026-04-10T06:41:56Z</time></trkpt><trkpt lat="44.72682788537336" lon="7.8194405635091435"><ele>281.4</ele><time>2026-04-10T06:41:58Z</time></trkpt><trkpt lat="44.72678471433077" lon="7.81935418057413"><ele>280.79999999999995</ele><time>2026-04-10T06:42:00Z</time></trkpt><trkpt lat="44.72673456991513" lon="7.819247827951885"><ele>280.2</ele><time>2026-04-10T06:42:03Z</time></trkpt><trkpt lat="44.726658929865316" lon="7.819140511641288"><ele>279.59999999999997</ele><time>2026-04-10T06:42:06Z</time></trkpt><trkpt lat="44.72660513845679" lon="7.819029332950235"><ele>279.0</ele><time>2026-04-10T06:42:08Z</time></trkpt><trkpt lat="44.726540567925476" lon="7.818911110792634"><ele>278.71428571428567</ele><time>2026-04-10T06:42:10Z</time></trkpt><trkpt lat="44.72650823695258" lon="7.818834632020927"><ele>278.42857142857144</ele><time>2026-04-10T06:42:11Z</time></trkpt><trkpt lat="44.726468927301234" lon="7.818760476676323"><ele>278.1428571428571</ele><time>2026-04-10T06:42:12Z</time></trkpt><trkpt lat="44.72642577671715" lon="7.81868751684995"><ele>277.85714285714283</ele><time>2026-04-10T06:42:13Z</time></trkpt><trkpt lat="44.726374358276296" lon="7.818617209715393"><ele>277.57142857142856</ele><time>2026-04-10T06:42:14Z</time></trkpt><trkpt lat="44.72632661752359" lon="7.81854327069091"><ele>277.2857142857143</ele><time>2026-04-10T06:42:15Z</time></trkpt><trkpt lat="44.72626282097601" lon="7.818473610719832"><ele>277.0</ele><time>2026-04-10T06:42:16Z</time></trkpt><trkpt lat="44.72620084683263" lon="7.818380111555833"><ele>276.66666666666663</ele><time>2026-04-10T06:42:17Z</time></trkpt><trkpt lat="44.72612301974871" lon="7.818232273118139"><ele>276.3333333333333</ele><time>2026-04-10T06:42:19Z</time></trkpt><trkpt lat="44.7260740713691" lon="7.818148380204524"><ele>276.0</ele><time>2026-04-10T06:42:20Z</time></trkpt><trkpt lat="44.726030625609155" lon="7.81807411374089"><ele>275.6666666666667</ele><time>2026-04-10T06:42:21Z</time></trkpt><trkpt lat="44.725990949551544" lon="7.818002728239233"><ele>275.33333333333337</ele><time>2026-04-10T06:42:22Z</time></trkpt><trkpt lat="44.72595131952525" lon="7.817922551144476"><ele>275.0</ele><time>2026-04-10T06:42:23Z</time></trkpt><trkpt lat="44.725909459159524" lon="7.8178329073361"><ele>275.0</ele><time>2026-04-10T06:42:24Z</time></trkpt><trkpt lat="44.72586143062804" lon="7.817746010545319"><ele>275.0</ele><time>2026-04-10T06:42:25Z</time></trkpt><trkpt lat="44.72581372261308" lon="7.817674664947125"><ele>275.0</ele><time>2026-04-10T06:42:26Z</time></trkpt><trkpt lat="44.72571474504155" lon="7.817589271830355"><ele>275.0</ele><time>2026-04-10T06:42:28Z</time></trkpt><trkpt lat="44.725649070979685" lon="7.817613917321251"><ele>275.0</ele><time>2026-04-10T06:42:29Z</time></trkpt><trkpt lat="44.72559049003934" lon="7.817650615515529"><ele>275.0</ele><time>2026-04-10T06:42:30Z</time></trkpt><trkpt lat="44.72550915226065" lon="7.817746678741574"><ele>275.0</ele><time>2026-04-10T06:42:32Z</time></trkpt><trkpt lat="44.72541821411773" lon="7.817851303820252"><ele>275.0</ele><time>2026-04-10T06:42:34Z</time></trkpt><trkpt lat="44.725323270185115" lon="7.817960501746506"><ele>275.0</ele><time>2026-04-10T06:42:36Z</time></trkpt><trkpt lat="44.72527001681138" lon="7.818020367278608"><ele>275.0</ele><time>2026-04-10T06:42:37Z</time></trkpt><trkpt lat="44.725225284335956" lon="7.818088474694256"><ele>275.0</ele><time>2026-04-10T06:42:38Z</time></trkpt><trkpt lat="44.72515088292467" lon="7.818195910019482"><ele>274.6666666666667</ele><time>2026-04-10T06:42:40Z</time></trkpt><trkpt lat="44.72508814730558" lon="7.8182363159371135"><ele>274.33333333333337</ele><time>2026-04-10T06:42:41Z</time></trkpt><trkpt lat="44.72497401455929" lon="7.818319070123431"><ele>274.0</ele><time>2026-04-10T06:42:43Z</time></trkpt><trkpt lat="44.7249151811368" lon="7.818367623066733"><ele>273.6666666666667</ele><time>2026-04-10T06:42:44Z</time></trkpt><trkpt lat="44.7248545430291" lon="7.818427764033198"><ele>273.3333333333333</ele><time>2026-04-10T06:42:45Z</time></trkpt><trkpt lat="44.7248012861938" lon="7.818477537906282"><ele>273.0</ele><time>2026-04-10T06:42:46Z</time></trkpt><trkpt lat="44.724741888719755" lon="7.81852275875288"><ele>273.0</ele><time>2026-04-10T06:42:47Z</time></trkpt><trkpt lat="44.72467983182237" lon="7.818576581669896"><ele>273.0</ele><time>2026-04-10T06:42:48Z</time></trkpt><trkpt lat="44.7246179656101" lon="7.818640474452703"><ele>273.0</ele><time>2026-04-10T06:42:49Z</time></trkpt><trkpt lat="44.724553870069556" lon="7.818714404092313"><ele>273.0</ele><time>2026-04-10T06:42:50Z</time></trkpt><trkpt lat="44.7245101793268" lon="7.81879174232975"><ele>273.0</ele><time>2026-04-10T06:42:51Z</time></trkpt><trkpt lat="44.72445381664549" lon="7.818849322509558"><ele>273.0</ele><time>2026-04-10T06:42:52Z</time></trkpt><trkpt lat="44.72439023933575" lon="7.818899017968884"><ele>273.0</ele><time>2026-04-10T06:42:53Z</time></trkpt><trkpt lat="44.72433674562442" lon="7.8189487125579085"><ele>273.0</ele><time>2026-04-10T06:42:54Z</time></trkpt><trkpt lat="44.724274922849226" lon="7.819004903178253"><ele>273.0</ele><time>2026-04-10T06:42:55Z</time></trkpt><trkpt lat="44.724225345552725" lon="7.81906588230067"><ele>273.0</ele><time>2026-04-10T06:42:56Z</time></trkpt><trkpt lat="44.724170301536695" lon="7.819128874497155"><ele>273.0</ele><time>2026-04-10T06:42:57Z</time></trkpt><trkpt lat="44.724116516950204" lon="7.819187342849547"><ele>273.0</ele><time>2026-04-10T06:42:58Z</time></trkpt><trkpt lat="44.72400025470467" lon="7.819283333045155"><ele>273.0</ele><time>2026-04-10T06:43:00Z</time></trkpt><trkpt lat="44.72394492013503" lon="7.819336869674791"><ele>273.0</ele><time>2026-04-10T06:43:01Z</time></trkpt><trkpt lat="44.72384286592922" lon="7.819429489584879"><ele>273.0</ele><time>2026-04-10T06:43:03Z</time></trkpt><trkpt lat="44.72378459760931" lon="7.819478931486111"><ele>273.0</ele><time>2026-04-10T06:43:04Z</time></trkpt><trkpt lat="44.72373079113051" lon="7.819527679273659"><ele>273.0</ele><time>2026-04-10T06:43:05Z</time></trkpt><trkpt lat="44.72363716133155" lon="7.819639307565481"><ele>273.0</ele><time>2026-04-10T06:43:07Z</time></trkpt><trkpt lat="44.72358318414856" lon="7.819687515769533"><ele>273.0</ele><time>2026-04-10T06:43:08Z</time></trkpt><trkpt lat="44.723478594608785" lon="7.819784670958317"><ele>273.0</ele><time>2026-04-10T06:43:10Z</time></trkpt><trkpt lat="44.72338300086905" lon="7.819886521401959"><ele>273.0</ele><time>2026-04-10T06:43:12Z</time></trkpt><trkpt lat="44.72329153165429" lon="7.819985904444401"><ele>273.0</ele><time>2026-04-10T06:43:14Z</time></trkpt><trkpt lat="44.72319247784279" lon="7.820079262446898"><ele>273.0</ele><time>2026-04-10T06:43:16Z</time></trkpt><trkpt lat="44.72308684683561" lon="7.82018694989194"><ele>273.2</ele><time>2026-04-10T06:43:18Z</time></trkpt><trkpt lat="44.72299563312015" lon="7.820301425240431"><ele>273.4</ele><time>2026-04-10T06:43:20Z</time></trkpt><trkpt lat="44.722918233976785" lon="7.820382604277458"><ele>273.59999999999997</ele><time>2026-04-10T06:43:22Z</time></trkpt><trkpt lat="44.722844259159366" lon="7.820468152705536"><ele>273.8</ele><time>2026-04-10T06:43:24Z</time></trkpt><trkpt lat="44.72276105464912" lon="7.820596341607441"><ele>274.0</ele><time>2026-04-10T06:43:26Z</time></trkpt><trkpt lat="44.722709489975" lon="7.820652077037922"><ele>274.4</ele><time>2026-04-10T06:43:27Z</time></trkpt><trkpt lat="44.72262217776699" lon="7.8207483444143895"><ele>274.79999999999995</ele><time>2026-04-10T06:43:29Z</time></trkpt><trkpt lat="44.7225516851214" lon="7.820819709799859"><ele>275.20000000000005</ele><time>2026-04-10T06:43:31Z</time></trkpt><trkpt lat="44.72247519951484" lon="7.8207383301688855"><ele>275.6</ele><time>2026-04-10T06:43:34Z</time></trkpt><trkpt lat="44.72245844044012" lon="7.820645943009564"><ele>276.0</ele><time>2026-04-10T06:43:35Z</time></trkpt><trkpt lat="44.722435595692545" lon="7.82048926147506"><ele>276.0</ele><time>2026-04-10T06:43:37Z</time></trkpt><trkpt lat="44.72241744379287" lon="7.8204041520157555"><ele>276.0</ele><time>2026-04-10T06:43:38Z</time></trkpt><trkpt lat="44.7223942293577" lon="7.820313017721912"><ele>276.0</ele><time>2026-04-10T06:43:39Z</time></trkpt><trkpt lat="44.722371699758135" lon="7.8202232437251675"><ele>276.0</ele><time>2026-04-10T06:43:40Z</time></trkpt><trkpt lat="44.72232236623383" lon="7.820069150820674"><ele>276.0</ele><time>2026-04-10T06:43:42Z</time></trkpt><trkpt lat="44.72229092963046" lon="7.819921555687743"><ele>276.0</ele><time>2026-04-10T06:43:44Z</time></trkpt><trkpt lat="44.7222520020253" lon="7.819771626195517"><ele>275.5</ele><time>2026-04-10T06:43:46Z</time></trkpt><trkpt lat="44.7222164377272" lon="7.819677031996068"><ele>275.0</ele><time>2026-04-10T06:43:47Z</time></trkpt><trkpt lat="44.72218470210029" lon="7.8195900583425075"><ele>274.5</ele><time>2026-04-10T06:43:48Z</time></trkpt><trkpt lat="44.722147640292384" lon="7.819510682064953"><ele>274.0</ele><time>2026-04-10T06:43:49Z</time></trkpt><trkpt lat="44.722110405977546" lon="7.819436696528115"><ele>273.5</ele><time>2026-04-10T06:43:50Z</time></trkpt><trkpt lat="44.72203301829064" lon="7.81930972579886"><ele>273.0</ele><time>2026-04-10T06:43:52Z</time></trkpt><trkpt lat="44.72199345517267" lon="7.819239639680525"><ele>272.6666666666667</ele><time>2026-04-10T06:43:53Z</time></trkpt><trkpt lat="44.721923550881804" lon="7.819080554619976"><ele>272.3333333333333</ele><time>2026-04-10T06:43:55Z</time></trkpt><trkpt lat="44.72189410830781" lon="7.818988233584954"><ele>272.0</ele><time>2026-04-10T06:43:56Z</time></trkpt><trkpt lat="44.721859816983105" lon="7.81888677484608"><ele>271.66666666666663</ele><time>2026-04-10T06:43:57Z</time></trkpt><trkpt lat="44.7218297963102" lon="7.818794563982288"><ele>271.3333333333333</ele><time>2026-04-10T06:43:58Z</time></trkpt><trkpt lat="44.721804384996936" lon="7.8187047379962795"><ele>271.0</ele><time>2026-04-10T06:43:59Z</time></trkpt><trkpt lat="44.72177717531364" lon="7.818597091289408"><ele>271.0</ele><time>2026-04-10T06:44:00Z</time></trkpt><trkpt lat="44.721750468570555" lon="7.818490027015925"><ele>271.0</ele><time>2026-04-10T06:44:01Z</time></trkpt><trkpt lat="44.72172320529816" lon="7.818384430756458"><ele>271.0</ele><time>2026-04-10T06:44:02Z</time></trkpt><trkpt lat="44.721692117237936" lon="7.818275164585051"><ele>271.0</ele><time>2026-04-10T06:44:03Z</time></trkpt><trkpt lat="44.72166349716469" lon="7.8181775095545385"><ele>271.0</ele><time>2026-04-10T06:44:04Z</time></trkpt><trkpt lat="44.721637566406095" lon="7.818081873596812"><ele>271.0</ele><time>2026-04-10T06:44:05Z</time></trkpt><trkpt lat="44.72161898426775" lon="7.817991062709444"><ele>271.0</ele><time>2026-04-10T06:44:06Z</time></trkpt><trkpt lat="44.721597805811136" lon="7.817898010580679"><ele>271.0</ele><time>2026-04-10T06:44:07Z</time></trkpt><trkpt lat="44.72157223668728" lon="7.817796462358127"><ele>271.0</ele><time>2026-04-10T06:44:08Z</time></trkpt><trkpt lat="44.721549144843806" lon="7.8176954506664"><ele>271.0</ele><time>2026-04-10T06:44:09Z</time></trkpt><trkpt lat="44.72152280918902" lon="7.8175878668266625"><ele>271.0</ele><time>2026-04-10T06:44:10Z</time></trkpt><trkpt lat="44.72149242671961" lon="7.817482499745463"><ele>271.0</ele><time>2026-04-10T06:44:11Z</time></trkpt><trkpt lat="44.72146326337476" lon="7.817386196155258"><ele>270.57142857142856</ele><time>2026-04-10T06:44:12Z</time></trkpt><trkpt lat="44.72143776704224" lon="7.81729740326012"><ele>270.14285714285717</ele><time>2026-04-10T06:44:13Z</time></trkpt><trkpt lat="44.72141053311311" lon="7.817212871705269"><ele>269.7142857142857</ele><time>2026-04-10T06:44:14Z</time></trkpt><trkpt lat="44.721382441496104" lon="7.817132704684609"><ele>269.2857142857143</ele><time>2026-04-10T06:44:15Z</time></trkpt><trkpt lat="44.72135127913712" lon="7.8170504995599375"><ele>268.85714285714283</ele><time>2026-04-10T06:44:16Z</time></trkpt><trkpt lat="44.72131899668703" lon="7.816965060695849"><ele>268.42857142857144</ele><time>2026-04-10T06:44:17Z</time></trkpt><trkpt lat="44.72128127189214" lon="7.816875602246801"><ele>268.0</ele><time>2026-04-10T06:44:18Z</time></trkpt><trkpt lat="44.721248673202965" lon="7.816798138630644"><ele>268.0</ele><time>2026-04-10T06:44:19Z</time></trkpt><trkpt lat="44.72121623022828" lon="7.816716984017134"><ele>268.0</ele><time>2026-04-10T06:44:20Z</time></trkpt><trkpt lat="44.721182070501506" lon="7.816633270793815"><ele>268.0</ele><time>2026-04-10T06:44:21Z</time></trkpt><trkpt lat="44.721145957863875" lon="7.816549909748864"><ele>268.0</ele><time>2026-04-10T06:44:22Z</time></trkpt><trkpt lat="44.72111145901917" lon="7.8164661460269595"><ele>268.0</ele><time>2026-04-10T06:44:23Z</time></trkpt><trkpt lat="44.72107239049714" lon="7.816384078155431"><ele>268.0</ele><time>2026-04-10T06:44:24Z</time></trkpt><trkpt lat="44.72103394350851" lon="7.816299685264361"><ele>268.0</ele><time>2026-04-10T06:44:25Z</time></trkpt><trkpt lat="44.72099784913606" lon="7.81621430669366"><ele>268.0</ele><time>2026-04-10T06:44:26Z</time></trkpt><trkpt lat="44.72096222660468" lon="7.816129081164829"><ele>268.0</ele><time>2026-04-10T06:44:27Z</time></trkpt><trkpt lat="44.72092527974683" lon="7.816039502071926"><ele>268.0</ele><time>2026-04-10T06:44:28Z</time></trkpt><trkpt lat="44.72089535048987" lon="7.815953666173162"><ele>268.0</ele><time>2026-04-10T06:44:29Z</time></trkpt><trkpt lat="44.72086961174779" lon="7.815865232543102"><ele>268.0</ele><time>2026-04-10T06:44:30Z</time></trkpt><trkpt lat="44.720848907039695" lon="7.815765791969957"><ele>268.0</ele><time>2026-04-10T06:44:31Z</time></trkpt><trkpt lat="44.72083018310349" lon="7.815657529707866"><ele>268.0</ele><time>2026-04-10T06:44:32Z</time></trkpt><trkpt lat="44.7208143380431" lon="7.815554997684888"><ele>267.8333333333333</ele><time>2026-04-10T06:44:33Z</time></trkpt><trkpt lat="44.720798124652525" lon="7.815449738517038"><ele>267.66666666666663</ele><time>2026-04-10T06:44:34Z</time></trkpt><trkpt lat="44.72078251013468" lon="7.815346169875446"><ele>267.5</ele><time>2026-04-10T06:44:35Z</time></trkpt><trkpt lat="44.720770452320814" lon="7.81524377338257"><ele>267.3333333333333</ele><time>2026-04-10T06:44:36Z</time></trkpt><trkpt lat="44.72075828428455" lon="7.815137226356604"><ele>267.1666666666667</ele><time>2026-04-10T06:44:37Z</time></trkpt><trkpt lat="44.7207459781408" lon="7.8150311565344035"><ele>267.0</ele><time>2026-04-10T06:44:38Z</time></trkpt><trkpt lat="44.720736330309855" lon="7.814919008073788"><ele>267.28571428571433</ele><time>2026-04-10T06:44:39Z</time></trkpt><trkpt lat="44.7207268239234" lon="7.814814620702549"><ele>267.57142857142856</ele><time>2026-04-10T06:44:40Z</time></trkpt><trkpt lat="44.720719094350535" lon="7.8147244264948545"><ele>267.8571428571429</ele><time>2026-04-10T06:44:41Z</time></trkpt><trkpt lat="44.72071068421331" lon="7.814631784400786"><ele>268.14285714285717</ele><time>2026-04-10T06:44:42Z</time></trkpt><trkpt lat="44.720702157400595" lon="7.814535280816276"><ele>268.42857142857144</ele><time>2026-04-10T06:44:43Z</time></trkpt><trkpt lat="44.720691478432144" lon="7.814444128999661"><ele>268.7142857142857</ele><time>2026-04-10T06:44:44Z</time></trkpt><trkpt lat="44.72067618809183" lon="7.814344194703422"><ele>269.0</ele><time>2026-04-10T06:44:45Z</time></trkpt><trkpt lat="44.720660447391744" lon="7.814249414995192"><ele>269.0</ele><time>2026-04-10T06:44:46Z</time></trkpt><trkpt lat="44.72063898335758" lon="7.81415966253602"><ele>269.0</ele><time>2026-04-10T06:44:47Z</time></trkpt><trkpt lat="44.72060965392834" lon="7.814066439927327"><ele>269.0</ele><time>2026-04-10T06:44:48Z</time></trkpt><trkpt lat="44.72057708137584" lon="7.813977591869107"><ele>269.0</ele><time>2026-04-10T06:44:49Z</time></trkpt><trkpt lat="44.72053573999559" lon="7.813887581002729"><ele>269.0</ele><time>2026-04-10T06:44:50Z</time></trkpt><trkpt lat="44.720501568834365" lon="7.813805846617169"><ele>269.0</ele><time>2026-04-10T06:44:51Z</time></trkpt><trkpt lat="44.720466506885124" lon="7.813728337509229"><ele>269.0</ele><time>2026-04-10T06:44:52Z</time></trkpt><trkpt lat="44.72043062576008" lon="7.813649291448328"><ele>269.0</ele><time>2026-04-10T06:44:53Z</time></trkpt><trkpt lat="44.720387973842506" lon="7.813566482622638"><ele>269.0</ele><time>2026-04-10T06:44:54Z</time></trkpt><trkpt lat="44.720347021048006" lon="7.813489073420823"><ele>269.0</ele><time>2026-04-10T06:44:55Z</time></trkpt><trkpt lat="44.72030013687516" lon="7.813418457840648"><ele>269.0</ele><time>2026-04-10T06:44:56Z</time></trkpt><trkpt lat="44.72025158791683" lon="7.813345822337275"><ele>269.0</ele><time>2026-04-10T06:44:57Z</time></trkpt><trkpt lat="44.720199329152486" lon="7.8132722737327125"><ele>269.0</ele><time>2026-04-10T06:44:58Z</time></trkpt><trkpt lat="44.72014898516004" lon="7.813194338031684"><ele>269.0</ele><time>2026-04-10T06:44:59Z</time></trkpt><trkpt lat="44.720095898658336" lon="7.81312286672414"><ele>268.7142857142857</ele><time>2026-04-10T06:45:00Z</time></trkpt><trkpt lat="44.7200417677445" lon="7.813064324052719"><ele>268.42857142857144</ele><time>2026-04-10T06:45:01Z</time></trkpt><trkpt lat="44.71999191783716" lon="7.813006711598263"><ele>268.14285714285717</ele><time>2026-04-10T06:45:02Z</time></trkpt><trkpt lat="44.719933521589276" lon="7.8129581401146835"><ele>267.8571428571429</ele><time>2026-04-10T06:45:03Z</time></trkpt><trkpt lat="44.71987438012609" lon="7.812904441765492"><ele>267.57142857142856</ele><time>2026-04-10T06:45:04Z</time></trkpt><trkpt lat="44.71981677917662" lon="7.812853104037254"><ele>267.28571428571433</ele><time>2026-04-10T06:45:05Z</time></trkpt><trkpt lat="44.719760759020026" lon="7.812804349819874"><ele>267.0</ele><time>2026-04-10T06:45:06Z</time></trkpt><trkpt lat="44.71970768844967" lon="7.812753097824472"><ele>267.0</ele><time>2026-04-10T06:45:07Z</time></trkpt><trkpt lat="44.71965348240649" lon="7.812694557480221"><ele>267.0</ele><time>2026-04-10T06:45:08Z</time></trkpt><trkpt lat="44.719599852883576" lon="7.81263537916805"><ele>267.0</ele><time>2026-04-10T06:45:09Z</time></trkpt><trkpt lat="44.71954811838988" lon="7.812579840749896"><ele>267.0</ele><time>2026-04-10T06:45:10Z</time></trkpt><trkpt lat="44.71944837437725" lon="7.812477816248955"><ele>267.0</ele><time>2026-04-10T06:45:12Z</time></trkpt><trkpt lat="44.719393232714175" lon="7.812419838034159"><ele>267.0</ele><time>2026-04-10T06:45:13Z</time></trkpt><trkpt lat="44.719336455751645" lon="7.812360146709469"><ele>267.28571428571433</ele><time>2026-04-10T06:45:14Z</time></trkpt><trkpt lat="44.71928077389242" lon="7.81229733813174"><ele>267.57142857142856</ele><time>2026-04-10T06:45:15Z</time></trkpt><trkpt lat="44.71922135831919" lon="7.812230544234521"><ele>267.8571428571429</ele><time>2026-04-10T06:45:16Z</time></trkpt><trkpt lat="44.71916455575268" lon="7.812165851182018"><ele>268.14285714285717</ele><time>2026-04-10T06:45:17Z</time></trkpt><trkpt lat="44.71910854440971" lon="7.81210091594095"><ele>268.42857142857144</ele><time>2026-04-10T06:45:18Z</time></trkpt><trkpt lat="44.71905060422625" lon="7.812034668614915"><ele>268.7142857142857</ele><time>2026-04-10T06:45:19Z</time></trkpt><trkpt lat="44.71899629795128" lon="7.811970950494438"><ele>269.0</ele><time>2026-04-10T06:45:20Z</time></trkpt><trkpt lat="44.71893930788792" lon="7.811904325163447"><ele>269.0</ele><time>2026-04-10T06:45:21Z</time></trkpt><trkpt lat="44.718890304377375" lon="7.811836893825972"><ele>269.0</ele><time>2026-04-10T06:45:22Z</time></trkpt><trkpt lat="44.718848804055035" lon="7.8117616385074715"><ele>269.0</ele><time>2026-04-10T06:45:23Z</time></trkpt><trkpt lat="44.71881308914027" lon="7.811685163050159"><ele>269.0</ele><time>2026-04-10T06:45:24Z</time></trkpt><trkpt lat="44.718778381071765" lon="7.811602507444431"><ele>269.0</ele><time>2026-04-10T06:45:25Z</time></trkpt><trkpt lat="44.71874691001145" lon="7.811518534748431"><ele>269.0</ele><time>2026-04-10T06:45:26Z</time></trkpt><trkpt lat="44.71871672024624" lon="7.811433181358634"><ele>269.0</ele><time>2026-04-10T06:45:27Z</time></trkpt><trkpt lat="44.718680344805904" lon="7.811338021947594"><ele>268.8571428571429</ele><time>2026-04-10T06:45:28Z</time></trkpt><trkpt lat="44.718650087807355" lon="7.811252527098195"><ele>268.7142857142857</ele><time>2026-04-10T06:45:29Z</time></trkpt><trkpt lat="44.71861838941826" lon="7.8111666992957565"><ele>268.57142857142856</ele><time>2026-04-10T06:45:30Z</time></trkpt><trkpt lat="44.71858551903782" lon="7.811079552782405"><ele>268.42857142857144</ele><time>2026-04-10T06:45:31Z</time></trkpt><trkpt lat="44.71855121567801" lon="7.81098567759556"><ele>268.2857142857143</ele><time>2026-04-10T06:45:32Z</time></trkpt><trkpt lat="44.71851812061552" lon="7.810895371610351"><ele>268.14285714285717</ele><time>2026-04-10T06:45:33Z</time></trkpt><trkpt lat="44.71848655280209" lon="7.810807014137041"><ele>268.0</ele><time>2026-04-10T06:45:34Z</time></trkpt><trkpt lat="44.71845740306031" lon="7.81071951991742"><ele>267.57142857142856</ele><time>2026-04-10T06:45:35Z</time></trkpt><trkpt lat="44.718428023619495" lon="7.810634445675885"><ele>267.1428571428571</ele><time>2026-04-10T06:45:36Z</time></trkpt><trkpt lat="44.718397995707086" lon="7.810542633489922"><ele>266.71428571428567</ele><time>2026-04-10T06:45:37Z</time></trkpt><trkpt lat="44.71836596169701" lon="7.810457370401066"><ele>266.2857142857143</ele><time>2026-04-10T06:45:38Z</time></trkpt><trkpt lat="44.718334198717564" lon="7.810377119593461"><ele>265.85714285714283</ele><time>2026-04-10T06:45:39Z</time></trkpt><trkpt lat="44.71829993144917" lon="7.810298828314664"><ele>265.4285714285714</ele><time>2026-04-10T06:45:40Z</time></trkpt><trkpt lat="44.71825987317074" lon="7.810220186283034"><ele>265.0</ele><time>2026-04-10T06:45:41Z</time></trkpt><trkpt lat="44.71821860127166" lon="7.81013587407551"><ele>264.99999999999994</ele><time>2026-04-10T06:45:42Z</time></trkpt><trkpt lat="44.718174977567756" lon="7.81005258026268"><ele>265.0</ele><time>2026-04-10T06:45:43Z</time></trkpt><trkpt lat="44.71813110853661" lon="7.809971065120937"><ele>265.0</ele><time>2026-04-10T06:45:44Z</time></trkpt><trkpt lat="44.71808242104129" lon="7.80989063040434"><ele>265.0</ele><time>2026-04-10T06:45:45Z</time></trkpt><trkpt lat="44.718037223302815" lon="7.809816196449158"><ele>265.0</ele><time>2026-04-10T06:45:46Z</time></trkpt><trkpt lat="44.71798589234849" lon="7.809740289039541"><ele>264.99999999999994</ele><time>2026-04-10T06:45:47Z</time></trkpt><trkpt lat="44.717940013444625" lon="7.8096697927192436"><ele>265.0</ele><time>2026-04-10T06:45:48Z</time></trkpt><trkpt lat="44.71788664376268" lon="7.809592596033138"><ele>264.99999999999994</ele><time>2026-04-10T06:45:49Z</time></trkpt><trkpt lat="44.71783895656267" lon="7.809518216516877"><ele>265.0</ele><time>2026-04-10T06:45:50Z</time></trkpt><trkpt lat="44.71778720523382" lon="7.809443091144612"><ele>265.0</ele><time>2026-04-10T06:45:51Z</time></trkpt><trkpt lat="44.7177373975641" lon="7.809365574104354"><ele>265.0</ele><time>2026-04-10T06:45:52Z</time></trkpt><trkpt lat="44.717690899355055" lon="7.809294943281777"><ele>265.0</ele><time>2026-04-10T06:45:53Z</time></trkpt><trkpt lat="44.71763977316462" lon="7.809218991009901"><ele>264.99999999999994</ele><time>2026-04-10T06:45:54Z</time></trkpt><trkpt lat="44.717596300351246" lon="7.809151501628658"><ele>265.0</ele><time>2026-04-10T06:45:55Z</time></trkpt><trkpt lat="44.71755012616999" lon="7.8090819839280785"><ele>265.66666666666663</ele><time>2026-04-10T06:45:56Z</time></trkpt><trkpt lat="44.717503644428085" lon="7.809012287554484"><ele>266.3333333333333</ele><time>2026-04-10T06:45:57Z</time></trkpt><trkpt lat="44.717457414021375" lon="7.808947204777275"><ele>267.0</ele><time>2026-04-10T06:45:58Z</time></trkpt><trkpt lat="44.71740987603065" lon="7.8088845378135225"><ele>267.6666666666667</ele><time>2026-04-10T06:45:59Z</time></trkpt><trkpt lat="44.717362718091564" lon="7.808819228099196"><ele>268.33333333333337</ele><time>2026-04-10T06:46:00Z</time></trkpt><trkpt lat="44.7172753463583" lon="7.8086928057633385"><ele>269.0</ele><time>2026-04-10T06:46:02Z</time></trkpt><trkpt lat="44.71723129822954" lon="7.808622681133159"><ele>269.0</ele><time>2026-04-10T06:46:03Z</time></trkpt><trkpt lat="44.71718841451479" lon="7.8085575592687135"><ele>269.0</ele><time>2026-04-10T06:46:04Z</time></trkpt><trkpt lat="44.717144296559574" lon="7.80848957810489"><ele>269.0</ele><time>2026-04-10T06:46:05Z</time></trkpt><trkpt lat="44.717101179557794" lon="7.808422605478751"><ele>269.0</ele><time>2026-04-10T06:46:06Z</time></trkpt><trkpt lat="44.71706081143424" lon="7.808354554888838"><ele>269.0</ele><time>2026-04-10T06:46:07Z</time></trkpt><trkpt lat="44.71701221360989" lon="7.808219275259156"><ele>269.0</ele><time>2026-04-10T06:46:09Z</time></trkpt><trkpt lat="44.71704352182103" lon="7.808093985555707"><ele>269.0</ele><time>2026-04-10T06:46:11Z</time></trkpt><trkpt lat="44.71714964420748" lon="7.808008692638568"><ele>269.0</ele><time>2026-04-10T06:46:13Z</time></trkpt><trkpt lat="44.717209818601475" lon="7.80796078341836"><ele>269.0</ele><time>2026-04-10T06:46:14Z</time></trkpt><trkpt lat="44.71728956020627" lon="7.807918565225305"><ele>269.0</ele><time>2026-04-10T06:46:15Z</time></trkpt><trkpt lat="44.71735832941406" lon="7.807866741584742"><ele>269.0</ele><time>2026-04-10T06:46:16Z</time></trkpt><trkpt lat="44.71741514046887" lon="7.807810868264446"><ele>269.0</ele><time>2026-04-10T06:46:17Z</time></trkpt><trkpt lat="44.717467804762805" lon="7.807755517265472"><ele>269.0</ele><time>2026-04-10T06:46:18Z</time></trkpt><trkpt lat="44.71757711596499" lon="7.807661140010884"><ele>269.0</ele><time>2026-04-10T06:46:19.999Z</time></trkpt><trkpt lat="44.71764747298832" lon="7.807614700132865"><ele>269.0</ele><time>2026-04-10T06:46:20.999Z</time></trkpt><trkpt lat="44.71770674929368" lon="7.8075734209972785"><ele>269.0</ele><time>2026-04-10T06:46:21.999Z</time></trkpt><trkpt lat="44.71776390234105" lon="7.807522485124689"><ele>269.0</ele><time>2026-04-10T06:46:22.999Z</time></trkpt><trkpt lat="44.71781788734427" lon="7.807468326392208"><ele>269.0</ele><time>2026-04-10T06:46:23.999Z</time></trkpt><trkpt lat="44.71787432026165" lon="7.807412136823092"><ele>268.7142857142857</ele><time>2026-04-10T06:46:24.999Z</time></trkpt><trkpt lat="44.717931964973474" lon="7.807356562788892"><ele>268.42857142857144</ele><time>2026-04-10T06:46:25.999Z</time></trkpt><trkpt lat="44.717987164862436" lon="7.8073041552441005"><ele>268.14285714285717</ele><time>2026-04-10T06:46:26.999Z</time></trkpt><trkpt lat="44.71804542843595" lon="7.807248729431876"><ele>267.8571428571429</ele><time>2026-04-10T06:46:27.999Z</time></trkpt><trkpt lat="44.71810205564824" lon="7.807189788220026"><ele>267.57142857142856</ele><time>2026-04-10T06:46:28.999Z</time></trkpt><trkpt lat="44.71815686984991" lon="7.807122851842856"><ele>267.28571428571433</ele><time>2026-04-10T06:46:29.999Z</time></trkpt><trkpt lat="44.71821725713529" lon="7.807048434293729"><ele>267.0</ele><time>2026-04-10T06:46:30.999Z</time></trkpt><trkpt lat="44.7182749843477" lon="7.806982137145465"><ele>267.0</ele><time>2026-04-10T06:46:31.999Z</time></trkpt><trkpt lat="44.7183364905907" lon="7.8069180513665835"><ele>267.0</ele><time>2026-04-10T06:46:32.999Z</time></trkpt><trkpt lat="44.718394754820395" lon="7.806851753208365"><ele>267.0</ele><time>2026-04-10T06:46:33.999Z</time></trkpt><trkpt lat="44.71846160972565" lon="7.806787899787739"><ele>267.0</ele><time>2026-04-10T06:46:34.999Z</time></trkpt><trkpt lat="44.718525337034244" lon="7.806720829469388"><ele>267.0</ele><time>2026-04-10T06:46:35.999Z</time></trkpt><trkpt lat="44.718589344289555" lon="7.806655475591536"><ele>267.0</ele><time>2026-04-10T06:46:36.999Z</time></trkpt><trkpt lat="44.71865384372105" lon="7.806590354430866"><ele>267.28571428571433</ele><time>2026-04-10T06:46:37.999Z</time></trkpt><trkpt lat="44.718716406193394" lon="7.806527216334919"><ele>267.57142857142856</ele><time>2026-04-10T06:46:38.999Z</time></trkpt><trkpt lat="44.718774211396635" lon="7.8064682562425665"><ele>267.8571428571429</ele><time>2026-04-10T06:46:39.999Z</time></trkpt><trkpt lat="44.71883461032728" lon="7.806409017069453"><ele>268.14285714285717</ele><time>2026-04-10T06:46:40.999Z</time></trkpt><trkpt lat="44.718896964429156" lon="7.8063517524746295"><ele>268.42857142857144</ele><time>2026-04-10T06:46:41.999Z</time></trkpt><trkpt lat="44.718959539297074" lon="7.806291626699725"><ele>268.7142857142857</ele><time>2026-04-10T06:46:42.999Z</time></trkpt><trkpt lat="44.71902059349039" lon="7.806228409602544"><ele>269.0</ele><time>2026-04-10T06:46:43.999Z</time></trkpt><trkpt lat="44.71908078297497" lon="7.806170850029316"><ele>269.0</ele><time>2026-04-10T06:46:44.999Z</time></trkpt><trkpt lat="44.71914719231588" lon="7.806105994897799"><ele>269.0</ele><time>2026-04-10T06:46:45.999Z</time></trkpt><trkpt lat="44.719209613423146" lon="7.8060357847563955"><ele>269.0</ele><time>2026-04-10T06:46:46.999Z</time></trkpt><trkpt lat="44.719265687541274" lon="7.805968185330527"><ele>269.0</ele><time>2026-04-10T06:46:47.999Z</time></trkpt><trkpt lat="44.71932124055508" lon="7.80591030702106"><ele>269.0</ele><time>2026-04-10T06:46:48.999Z</time></trkpt><trkpt lat="44.7193818489768" lon="7.805850988164274"><ele>269.0</ele><time>2026-04-10T06:46:49.999Z</time></trkpt><trkpt lat="44.71944113127871" lon="7.805789782050772"><ele>268.8571428571429</ele><time>2026-04-10T06:46:50.999Z</time></trkpt><trkpt lat="44.71950002993697" lon="7.805724951594931"><ele>268.7142857142857</ele><time>2026-04-10T06:46:51.999Z</time></trkpt><trkpt lat="44.71956441317363" lon="7.805657295093665"><ele>268.57142857142856</ele><time>2026-04-10T06:46:52.999Z</time></trkpt><trkpt lat="44.71962113444189" lon="7.805591259960205"><ele>268.42857142857144</ele><time>2026-04-10T06:46:53.999Z</time></trkpt><trkpt lat="44.719673086246004" lon="7.8055256220798315"><ele>268.2857142857143</ele><time>2026-04-10T06:46:54.999Z</time></trkpt><trkpt lat="44.719728625533044" lon="7.805463380234479"><ele>268.14285714285717</ele><time>2026-04-10T06:46:55.999Z</time></trkpt><trkpt lat="44.71978267854192" lon="7.805396814840222"><ele>268.0</ele><time>2026-04-10T06:46:56.999Z</time></trkpt><trkpt lat="44.71984067062779" lon="7.805328721002751"><ele>268.0</ele><time>2026-04-10T06:46:57.999Z</time></trkpt><trkpt lat="44.7198990289388" lon="7.8052674359764005"><ele>268.0</ele><time>2026-04-10T06:46:58.999Z</time></trkpt><trkpt lat="44.71995880750023" lon="7.805206578789495"><ele>268.0</ele><time>2026-04-10T06:46:59.999Z</time></trkpt><trkpt lat="44.72001656423881" lon="7.805147582545059"><ele>268.0</ele><time>2026-04-10T06:47:00.999Z</time></trkpt><trkpt lat="44.7200684688752" lon="7.8050888867276225"><ele>268.0</ele><time>2026-04-10T06:47:01.999Z</time></trkpt><trkpt lat="44.72012770857419" lon="7.805022382945448"><ele>268.0</ele><time>2026-04-10T06:47:02.999Z</time></trkpt><trkpt lat="44.720181153970806" lon="7.804954319944457"><ele>268.0</ele><time>2026-04-10T06:47:03.999Z</time></trkpt><trkpt lat="44.72023390273646" lon="7.804889221806399"><ele>267.6</ele><time>2026-04-10T06:47:04.999Z</time></trkpt><trkpt lat="44.720289137253324" lon="7.804824137860209"><ele>267.20000000000005</ele><time>2026-04-10T06:47:05.999Z</time></trkpt><trkpt lat="44.720340369874044" lon="7.804761855235663"><ele>266.8</ele><time>2026-04-10T06:47:06.999Z</time></trkpt><trkpt lat="44.72039463885685" lon="7.804695936320001"><ele>266.40000000000003</ele><time>2026-04-10T06:47:07.999Z</time></trkpt><trkpt lat="44.72048494463993" lon="7.804579469360937"><ele>266.0</ele><time>2026-04-10T06:47:09.999Z</time></trkpt><trkpt lat="44.72058777316731" lon="7.804468726403815"><ele>266.0</ele><time>2026-04-10T06:47:11.999Z</time></trkpt><trkpt lat="44.7206417237227" lon="7.804406911601735"><ele>266.0</ele><time>2026-04-10T06:47:12.999Z</time></trkpt><trkpt lat="44.72069309917255" lon="7.804348224363768"><ele>266.0</ele><time>2026-04-10T06:47:13.999Z</time></trkpt><trkpt lat="44.720744381492125" lon="7.804284984068817"><ele>266.0</ele><time>2026-04-10T06:47:14.999Z</time></trkpt><trkpt lat="44.72079617504556" lon="7.804227554876446"><ele>266.0</ele><time>2026-04-10T06:47:15.999Z</time></trkpt><trkpt lat="44.72085296261205" lon="7.804157822839863"><ele>266.0</ele><time>2026-04-10T06:47:16.999Z</time></trkpt><trkpt lat="44.7209075352344" lon="7.804094487107636"><ele>266.0</ele><time>2026-04-10T06:47:17.999Z</time></trkpt><trkpt lat="44.720969009676246" lon="7.804030600439331"><ele>266.14285714285717</ele><time>2026-04-10T06:47:18.999Z</time></trkpt><trkpt lat="44.721024092243084" lon="7.803964983270948"><ele>266.2857142857143</ele><time>2026-04-10T06:47:19.999Z</time></trkpt><trkpt lat="44.72107914718117" lon="7.803897360134158"><ele>266.42857142857144</ele><time>2026-04-10T06:47:20.999Z</time></trkpt><trkpt lat="44.72112803794927" lon="7.803836508025915"><ele>266.57142857142856</ele><time>2026-04-10T06:47:21.999Z</time></trkpt><trkpt lat="44.721178926517716" lon="7.803779746302385"><ele>266.7142857142857</ele><time>2026-04-10T06:47:22.999Z</time></trkpt><trkpt lat="44.721236721799414" lon="7.803724200887272"><ele>266.8571428571429</ele><time>2026-04-10T06:47:23.999Z</time></trkpt><trkpt lat="44.72128632023117" lon="7.803669032578191"><ele>267.0</ele><time>2026-04-10T06:47:24.999Z</time></trkpt><trkpt lat="44.72134626796417" lon="7.803612969965092"><ele>267.0</ele><time>2026-04-10T06:47:25.999Z</time></trkpt><trkpt lat="44.7214023493782" lon="7.803560328064295"><ele>267.0</ele><time>2026-04-10T06:47:26.999Z</time></trkpt><trkpt lat="44.72146340625583" lon="7.803501838445857"><ele>267.0</ele><time>2026-04-10T06:47:27.999Z</time></trkpt><trkpt lat="44.7215183675855" lon="7.803450553624978"><ele>267.0</ele><time>2026-04-10T06:47:28.999Z</time></trkpt><trkpt lat="44.721614810474826" lon="7.803348039016179"><ele>267.0</ele><time>2026-04-10T06:47:30.999Z</time></trkpt><trkpt lat="44.72166820934468" lon="7.803290939511436"><ele>267.0</ele><time>2026-04-10T06:47:31.999Z</time></trkpt><trkpt lat="44.72176965674995" lon="7.803187384597931"><ele>267.00000000000006</ele><time>2026-04-10T06:47:33.999Z</time></trkpt><trkpt lat="44.72183230670106" lon="7.803128165547683"><ele>267.0</ele><time>2026-04-10T06:47:34.999Z</time></trkpt><trkpt lat="44.721891731022566" lon="7.803071240154563"><ele>267.0</ele><time>2026-04-10T06:47:35.999Z</time></trkpt><trkpt lat="44.721946821365755" lon="7.803017637885511"><ele>267.0</ele><time>2026-04-10T06:47:36.999Z</time></trkpt><trkpt lat="44.72200250761072" lon="7.802959712113729"><ele>267.0</ele><time>2026-04-10T06:47:37.999Z</time></trkpt><trkpt lat="44.72205556770278" lon="7.802905431840545"><ele>267.00000000000006</ele><time>2026-04-10T06:47:38.999Z</time></trkpt><trkpt lat="44.72211511422752" lon="7.802847860755955"><ele>267.0</ele><time>2026-04-10T06:47:39.999Z</time></trkpt><trkpt lat="44.722171002534395" lon="7.802793620156898"><ele>267.0</ele><time>2026-04-10T06:47:40.999Z</time></trkpt><trkpt lat="44.72222765840112" lon="7.802737105648295"><ele>267.0</ele><time>2026-04-10T06:47:41.999Z</time></trkpt><trkpt lat="44.72227852279008" lon="7.802683437457885"><ele>267.0</ele><time>2026-04-10T06:47:42.999Z</time></trkpt><trkpt lat="44.72233091875776" lon="7.802621187825395"><ele>267.0</ele><time>2026-04-10T06:47:43.999Z</time></trkpt><trkpt lat="44.72238265490601" lon="7.802569043568399"><ele>267.0</ele><time>2026-04-10T06:47:44.999Z</time></trkpt><trkpt lat="44.722478095230876" lon="7.80246010501454"><ele>267.0</ele><time>2026-04-10T06:47:46.999Z</time></trkpt><trkpt lat="44.722534054285866" lon="7.8024029236124095"><ele>266.8333333333333</ele><time>2026-04-10T06:47:47.999Z</time></trkpt><trkpt lat="44.72263171509432" lon="7.802307482664137"><ele>266.6666666666667</ele><time>2026-04-10T06:47:49.999Z</time></trkpt><trkpt lat="44.722686355068014" lon="7.802252178537329"><ele>266.5</ele><time>2026-04-10T06:47:50.999Z</time></trkpt><trkpt lat="44.72273902801539" lon="7.802185355624171"><ele>266.33333333333337</ele><time>2026-04-10T06:47:51.999Z</time></trkpt><trkpt lat="44.722792859889076" lon="7.802122659068792"><ele>266.1666666666667</ele><time>2026-04-10T06:47:52.999Z</time></trkpt><trkpt lat="44.72284352026478" lon="7.802052969674455"><ele>266.0</ele><time>2026-04-10T06:47:53.999Z</time></trkpt><trkpt lat="44.72289347069664" lon="7.801979739052763"><ele>266.0</ele><time>2026-04-10T06:47:54.999Z</time></trkpt><trkpt lat="44.72294161381081" lon="7.801913843271007"><ele>266.0</ele><time>2026-04-10T06:47:55.999Z</time></trkpt><trkpt lat="44.72299393240106" lon="7.801843727255844"><ele>266.0</ele><time>2026-04-10T06:47:56.999Z</time></trkpt><trkpt lat="44.723043985858595" lon="7.801777984956508"><ele>266.0</ele><time>2026-04-10T06:47:57.999Z</time></trkpt><trkpt lat="44.7230944508037" lon="7.801706774494506"><ele>266.0</ele><time>2026-04-10T06:47:58.999Z</time></trkpt><trkpt lat="44.72314333324066" lon="7.801641970782208"><ele>266.0</ele><time>2026-04-10T06:47:59.999Z</time></trkpt><trkpt lat="44.72319159656927" lon="7.801578087929773"><ele>266.0</ele><time>2026-04-10T06:48:00.999Z</time></trkpt><trkpt lat="44.72324328092075" lon="7.801512269746859"><ele>266.0</ele><time>2026-04-10T06:48:01.999Z</time></trkpt><trkpt lat="44.72329546698404" lon="7.8014483368534195"><ele>266.0</ele><time>2026-04-10T06:48:02.999Z</time></trkpt><trkpt lat="44.72334896162459" lon="7.801399361377795"><ele>266.0</ele><time>2026-04-10T06:48:03.999Z</time></trkpt><trkpt lat="44.723461902220734" lon="7.801311349681668"><ele>266.0</ele><time>2026-04-10T06:48:05.999Z</time></trkpt><trkpt lat="44.723522773365424" lon="7.801261791873494"><ele>266.0</ele><time>2026-04-10T06:48:06.999Z</time></trkpt><trkpt lat="44.72358862575092" lon="7.801206435079626"><ele>266.0</ele><time>2026-04-10T06:48:07.999Z</time></trkpt><trkpt lat="44.72364650129626" lon="7.801157947411709"><ele>266.0</ele><time>2026-04-10T06:48:08.999Z</time></trkpt><trkpt lat="44.72371174553999" lon="7.801107304008694"><ele>266.0</ele><time>2026-04-10T06:48:09.999Z</time></trkpt><trkpt lat="44.72377197842791" lon="7.801059251367057"><ele>266.0</ele><time>2026-04-10T06:48:10.999Z</time></trkpt><trkpt lat="44.723834866189534" lon="7.8010108888510885"><ele>266.0</ele><time>2026-04-10T06:48:11.999Z</time></trkpt><trkpt lat="44.723893154012856" lon="7.800967358789048"><ele>266.0</ele><time>2026-04-10T06:48:12.999Z</time></trkpt><trkpt lat="44.723953588284154" lon="7.800922675950548"><ele>266.0</ele><time>2026-04-10T06:48:13.999Z</time></trkpt><trkpt lat="44.72401907856866" lon="7.800877623560451"><ele>266.0</ele><time>2026-04-10T06:48:14.999Z</time></trkpt><trkpt lat="44.72407627218427" lon="7.80083101674464"><ele>265.83333333333337</ele><time>2026-04-10T06:48:15.999Z</time></trkpt><trkpt lat="44.7241371548769" lon="7.800784222386484"><ele>265.6666666666667</ele><time>2026-04-10T06:48:16.999Z</time></trkpt><trkpt lat="44.724199191998494" lon="7.8007353469051814"><ele>265.5</ele><time>2026-04-10T06:48:17.999Z</time></trkpt><trkpt lat="44.72425791006716" lon="7.800685357206061"><ele>265.3333333333333</ele><time>2026-04-10T06:48:18.999Z</time></trkpt><trkpt lat="44.72431140734987" lon="7.800637268297714"><ele>265.16666666666663</ele><time>2026-04-10T06:48:19.999Z</time></trkpt><trkpt lat="44.724368325327305" lon="7.800584170542618"><ele>265.0</ele><time>2026-04-10T06:48:20.999Z</time></trkpt><trkpt lat="44.72447546306052" lon="7.800484569811358"><ele>264.8333333333333</ele><time>2026-04-10T06:48:22.999Z</time></trkpt><trkpt lat="44.724534654215795" lon="7.800428765248656"><ele>264.66666666666663</ele><time>2026-04-10T06:48:23.999Z</time></trkpt><trkpt lat="44.72458987008511" lon="7.8003804773113306"><ele>264.5</ele><time>2026-04-10T06:48:24.999Z</time></trkpt><trkpt lat="44.72469553937349" lon="7.800287087486026"><ele>264.3333333333333</ele><time>2026-04-10T06:48:26.999Z</time></trkpt><trkpt lat="44.72475186690149" lon="7.800240760320988"><ele>264.1666666666667</ele><time>2026-04-10T06:48:27.999Z</time></trkpt><trkpt lat="44.724816010437436" lon="7.800184631022564"><ele>264.0</ele><time>2026-04-10T06:48:28.999Z</time></trkpt><trkpt lat="44.72487496683099" lon="7.800139190855811"><ele>264.2857142857143</ele><time>2026-04-10T06:48:29.999Z</time></trkpt><trkpt lat="44.724934087678655" lon="7.800090575872479"><ele>264.57142857142856</ele><time>2026-04-10T06:48:30.999Z</time></trkpt><trkpt lat="44.724992728836156" lon="7.800043932133189"><ele>264.8571428571429</ele><time>2026-04-10T06:48:31.999Z</time></trkpt><trkpt lat="44.725049200158715" lon="7.80000145775037"><ele>265.1428571428571</ele><time>2026-04-10T06:48:32.999Z</time></trkpt><trkpt lat="44.725110615697545" lon="7.799954651297815"><ele>265.42857142857144</ele><time>2026-04-10T06:48:33.999Z</time></trkpt><trkpt lat="44.7251665670067" lon="7.7999121324702765"><ele>265.7142857142857</ele><time>2026-04-10T06:48:34.999Z</time></trkpt><trkpt lat="44.725225787934775" lon="7.799868468492561"><ele>266.0</ele><time>2026-04-10T06:48:35.999Z</time></trkpt><trkpt lat="44.7252835523645" lon="7.799827289724165"><ele>266.14285714285717</ele><time>2026-04-10T06:48:36.999Z</time></trkpt><trkpt lat="44.72534418196299" lon="7.799788596222498"><ele>266.2857142857143</ele><time>2026-04-10T06:48:37.999Z</time></trkpt><trkpt lat="44.72541231016484" lon="7.799742396143503"><ele>266.42857142857144</ele><time>2026-04-10T06:48:38.999Z</time></trkpt><trkpt lat="44.725474582630035" lon="7.799702802208398"><ele>266.57142857142856</ele><time>2026-04-10T06:48:39.999Z</time></trkpt><trkpt lat="44.725539120176315" lon="7.799667004886821"><ele>266.7142857142857</ele><time>2026-04-10T06:48:40.999Z</time></trkpt><trkpt lat="44.725597617091424" lon="7.7996310925899115"><ele>266.8571428571429</ele><time>2026-04-10T06:48:41.999Z</time></trkpt><trkpt lat="44.725658167793725" lon="7.799591049647876"><ele>267.0</ele><time>2026-04-10T06:48:42.999Z</time></trkpt><trkpt lat="44.725715771593414" lon="7.799554366881045"><ele>267.0</ele><time>2026-04-10T06:48:43.999Z</time></trkpt><trkpt lat="44.72577669326317" lon="7.799513016495686"><ele>267.0</ele><time>2026-04-10T06:48:44.999Z</time></trkpt><trkpt lat="44.72589218699208" lon="7.799444370134912"><ele>267.0</ele><time>2026-04-10T06:48:46.999Z</time></trkpt><trkpt lat="44.72600584737505" lon="7.799392818336262"><ele>267.0</ele><time>2026-04-10T06:48:48.999Z</time></trkpt><trkpt lat="44.72612456145081" lon="7.799406233372179"><ele>267.0</ele><time>2026-04-10T06:48:50.999Z</time></trkpt><trkpt lat="44.72619674124142" lon="7.799504165180886"><ele>266.6</ele><time>2026-04-10T06:48:52.999Z</time></trkpt><trkpt lat="44.72627296692986" lon="7.799592795741172"><ele>266.2</ele><time>2026-04-10T06:48:54.999Z</time></trkpt><trkpt lat="44.726352078741854" lon="7.799633819676702"><ele>265.8</ele><time>2026-04-10T06:48:56.999Z</time></trkpt><trkpt lat="44.72644931113526" lon="7.79958012007448"><ele>265.4</ele><time>2026-04-10T06:48:58.999Z</time></trkpt><trkpt lat="44.726538747252675" lon="7.7995048360862365"><ele>265.0</ele><time>2026-04-10T06:49:00.999Z</time></trkpt><trkpt lat="44.7266174975001" lon="7.799427810828763"><ele>265.0</ele><time>2026-04-10T06:49:02.999Z</time></trkpt><trkpt lat="44.726670013869445" lon="7.799378236957758"><ele>265.0</ele><time>2026-04-10T06:49:03.999Z</time></trkpt><trkpt lat="44.72675701896464" lon="7.799296109597304"><ele>265.0</ele><time>2026-04-10T06:49:05.999Z</time></trkpt><trkpt lat="44.72680729152557" lon="7.799242108132152"><ele>265.0</ele><time>2026-04-10T06:49:06.999Z</time></trkpt><trkpt lat="44.72691290724577" lon="7.799147575062871"><ele>265.0</ele><time>2026-04-10T06:49:08.999Z</time></trkpt><trkpt lat="44.72702191887634" lon="7.799096989608901"><ele>264.8333333333333</ele><time>2026-04-10T06:49:10.999Z</time></trkpt><trkpt lat="44.72709041273625" lon="7.799116217400838"><ele>264.66666666666663</ele><time>2026-04-10T06:49:11.999Z</time></trkpt><trkpt lat="44.72715127062147" lon="7.799174124892469"><ele>264.5</ele><time>2026-04-10T06:49:12.999Z</time></trkpt><trkpt lat="44.72725719179749" lon="7.79926566526328"><ele>264.3333333333333</ele><time>2026-04-10T06:49:14.999Z</time></trkpt><trkpt lat="44.72731674595336" lon="7.79931063941191"><ele>264.1666666666667</ele><time>2026-04-10T06:49:15.999Z</time></trkpt><trkpt lat="44.727417883498205" lon="7.799348478903066"><ele>264.0</ele><time>2026-04-10T06:49:17.999Z</time></trkpt><trkpt lat="44.72752853219532" lon="7.799347313598184"><ele>263.59999999999997</ele><time>2026-04-10T06:49:19.999Z</time></trkpt><trkpt lat="44.72763647444343" lon="7.7993223565230005"><ele>263.2</ele><time>2026-04-10T06:49:21.999Z</time></trkpt><trkpt lat="44.7277326693657" lon="7.799311436134779"><ele>262.79999999999995</ele><time>2026-04-10T06:49:23.999Z</time></trkpt><trkpt lat="44.72784388240617" lon="7.79927774066758"><ele>262.4</ele><time>2026-04-10T06:49:25.999Z</time></trkpt><trkpt lat="44.727950956272856" lon="7.799255061521066"><ele>262.0</ele><time>2026-04-10T06:49:27.999Z</time></trkpt><trkpt lat="44.72801509770441" lon="7.799225861713314"><ele>262.8</ele><time>2026-04-10T06:49:28.999Z</time></trkpt><trkpt lat="44.72812782094724" lon="7.79920540535458"><ele>263.6</ele><time>2026-04-10T06:49:30.999Z</time></trkpt><trkpt lat="44.728243390479506" lon="7.799187236753375"><ele>264.40000000000003</ele><time>2026-04-10T06:49:32.999Z</time></trkpt><trkpt lat="44.72835128631553" lon="7.799183280586367"><ele>265.2</ele><time>2026-04-10T06:49:34.999Z</time></trkpt><trkpt lat="44.72841429751476" lon="7.799174358611391"><ele>266.0</ele><time>2026-04-10T06:49:35.999Z</time></trkpt><trkpt lat="44.72852450152428" lon="7.7991503148244075"><ele>265.25</ele><time>2026-04-10T06:49:37.999Z</time></trkpt><trkpt lat="44.72863369000648" lon="7.799129831642247"><ele>264.5</ele><time>2026-04-10T06:49:39.999Z</time></trkpt><trkpt lat="44.728738982008785" lon="7.799101814359872"><ele>263.75</ele><time>2026-04-10T06:49:41.999Z</time></trkpt><trkpt lat="44.728851520312155" lon="7.799062470299967"><ele>263.0</ele><time>2026-04-10T06:49:43.999Z</time></trkpt><trkpt lat="44.7289457471267" lon="7.798957939926281"><ele>263.0</ele><time>2026-04-10T06:49:45.999Z</time></trkpt><trkpt lat="44.72899249338739" lon="7.798897290702478"><ele>263.0</ele><time>2026-04-10T06:49:46.999Z</time></trkpt><trkpt lat="44.72908579495874" lon="7.798766892407585"><ele>263.0</ele><time>2026-04-10T06:49:48.999Z</time></trkpt><trkpt lat="44.72913501214432" lon="7.79870409013868"><ele>263.0</ele><time>2026-04-10T06:49:49.999Z</time></trkpt><trkpt lat="44.72922465204846" lon="7.7986234089894"><ele>263.0</ele><time>2026-04-10T06:49:51.999Z</time></trkpt><trkpt lat="44.72934845798374" lon="7.798590675833436"><ele>263.4</ele><time>2026-04-10T06:49:53.999Z</time></trkpt><trkpt lat="44.729417663221106" lon="7.7986033642723145"><ele>263.8</ele><time>2026-04-10T06:49:54.999Z</time></trkpt><trkpt lat="44.72948688759881" lon="7.798606979054501"><ele>264.2</ele><time>2026-04-10T06:49:55.999Z</time></trkpt><trkpt lat="44.729619068488795" lon="7.798587973121575"><ele>264.6</ele><time>2026-04-10T06:49:57.999Z</time></trkpt><trkpt lat="44.72974762690658" lon="7.798574714181713"><ele>265.0</ele><time>2026-04-10T06:49:59.999Z</time></trkpt><trkpt lat="44.729860911923325" lon="7.798551496378217"><ele>265.0</ele><time>2026-04-10T06:50:01.999Z</time></trkpt><trkpt lat="44.72997325636096" lon="7.798511136149184"><ele>265.0</ele><time>2026-04-10T06:50:04Z</time></trkpt><trkpt lat="44.73009534928576" lon="7.798471807374307"><ele>265.0</ele><time>2026-04-10T06:50:06Z</time></trkpt><trkpt lat="44.730220060042896" lon="7.798477398357332"><ele>265.0</ele><time>2026-04-10T06:50:08Z</time></trkpt><trkpt lat="44.73029995153561" lon="7.798508037674894"><ele>265.0</ele><time>2026-04-10T06:50:10Z</time></trkpt><trkpt lat="44.73038529849317" lon="7.798496470242482"><ele>264.8</ele><time>2026-04-10T06:50:12Z</time></trkpt><trkpt lat="44.730492708138584" lon="7.79848630366475"><ele>264.6</ele><time>2026-04-10T06:50:14Z</time></trkpt><trkpt lat="44.730606172145535" lon="7.7984750669875185"><ele>264.4</ele><time>2026-04-10T06:50:16Z</time></trkpt><trkpt lat="44.73071971763702" lon="7.798462794180631"><ele>264.2</ele><time>2026-04-10T06:50:18Z</time></trkpt><trkpt lat="44.73081793307811" lon="7.7984490184389985"><ele>264.0</ele><time>2026-04-10T06:50:20Z</time></trkpt><trkpt lat="44.73092506071931" lon="7.798438728547736"><ele>264.0</ele><time>2026-04-10T06:50:22Z</time></trkpt><trkpt lat="44.73099654255966" lon="7.798443950961181"><ele>264.0</ele><time>2026-04-10T06:50:23Z</time></trkpt><trkpt lat="44.731109341965286" lon="7.798429187012892"><ele>264.0</ele><time>2026-04-10T06:50:25Z</time></trkpt><trkpt lat="44.731173920958824" lon="7.798426903831779"><ele>264.0</ele><time>2026-04-10T06:50:26Z</time></trkpt><trkpt lat="44.7312394135283" lon="7.798421356128027"><ele>264.0</ele><time>2026-04-10T06:50:27Z</time></trkpt><trkpt lat="44.73136411987003" lon="7.798421957105242"><ele>264.0</ele><time>2026-04-10T06:50:29Z</time></trkpt><trkpt lat="44.73149097341362" lon="7.798394330309842"><ele>264.6666666666667</ele><time>2026-04-10T06:50:31Z</time></trkpt><trkpt lat="44.731556616272094" lon="7.798382658886456"><ele>265.3333333333333</ele><time>2026-04-10T06:50:32Z</time></trkpt><trkpt lat="44.73163207478964" lon="7.798360878679959"><ele>266.0</ele><time>2026-04-10T06:50:33Z</time></trkpt><trkpt lat="44.731700410942814" lon="7.798347010702021"><ele>266.66666666666663</ele><time>2026-04-10T06:50:34Z</time></trkpt><trkpt lat="44.731811736337015" lon="7.798329577886067"><ele>267.3333333333333</ele><time>2026-04-10T06:50:36Z</time></trkpt><trkpt lat="44.7319169993465" lon="7.798304212856668"><ele>268.0</ele><time>2026-04-10T06:50:38Z</time></trkpt><trkpt lat="44.73204725531077" lon="7.798256135351434"><ele>268.0</ele><time>2026-04-10T06:50:40Z</time></trkpt><trkpt lat="44.73211107769622" lon="7.798232607206851"><ele>268.0</ele><time>2026-04-10T06:50:41Z</time></trkpt><trkpt lat="44.73218272888984" lon="7.798211415545874"><ele>268.0</ele><time>2026-04-10T06:50:42Z</time></trkpt><trkpt lat="44.73229171782211" lon="7.798175626219428"><ele>268.0</ele><time>2026-04-10T06:50:44Z</time></trkpt><trkpt lat="44.732405010365305" lon="7.798144111114132"><ele>268.0</ele><time>2026-04-10T06:50:46Z</time></trkpt><trkpt lat="44.73250540285337" lon="7.798116446209824"><ele>268.0</ele><time>2026-04-10T06:50:48Z</time></trkpt><trkpt lat="44.73261174806484" lon="7.798111232486507"><ele>268.0</ele><time>2026-04-10T06:50:50Z</time></trkpt><trkpt lat="44.73268423115434" lon="7.798110125714001"><ele>268.0</ele><time>2026-04-10T06:50:51Z</time></trkpt><trkpt lat="44.73274986097241" lon="7.798106551366531"><ele>268.0</ele><time>2026-04-10T06:50:52Z</time></trkpt><trkpt lat="44.73281621342461" lon="7.798096738637396"><ele>268.0</ele><time>2026-04-10T06:50:53Z</time></trkpt><trkpt lat="44.73292676204462" lon="7.798068729376191"><ele>268.0</ele><time>2026-04-10T06:50:55Z</time></trkpt><trkpt lat="44.733032224654764" lon="7.798057432226779"><ele>267.5</ele><time>2026-04-10T06:50:57Z</time></trkpt><trkpt lat="44.73315092564494" lon="7.798055796184977"><ele>267.0</ele><time>2026-04-10T06:50:59Z</time></trkpt><trkpt lat="44.73322123836643" lon="7.798055090260566"><ele>266.5</ele><time>2026-04-10T06:51:00Z</time></trkpt><trkpt lat="44.733286913742425" lon="7.798047133249887"><ele>266.0</ele><time>2026-04-10T06:51:01Z</time></trkpt><trkpt lat="44.73335553545667" lon="7.798053973035551"><ele>265.5</ele><time>2026-04-10T06:51:02Z</time></trkpt><trkpt lat="44.733422896320256" lon="7.798043920532279"><ele>265.0</ele><time>2026-04-10T06:51:03Z</time></trkpt><trkpt lat="44.73348972941903" lon="7.798036773326431"><ele>264.8333333333333</ele><time>2026-04-10T06:51:04Z</time></trkpt><trkpt lat="44.73356109323382" lon="7.798032987024442"><ele>264.66666666666663</ele><time>2026-04-10T06:51:05Z</time></trkpt><trkpt lat="44.73362954154831" lon="7.798030787570841"><ele>264.5</ele><time>2026-04-10T06:51:06Z</time></trkpt><trkpt lat="44.73375668610194" lon="7.7980101330364535"><ele>264.3333333333333</ele><time>2026-04-10T06:51:08Z</time></trkpt><trkpt lat="44.73381911583112" lon="7.797989299083121"><ele>264.1666666666667</ele><time>2026-04-10T06:51:09Z</time></trkpt><trkpt lat="44.73388882175306" lon="7.797963308120681"><ele>264.0</ele><time>2026-04-10T06:51:10Z</time></trkpt><trkpt lat="44.73395833679618" lon="7.797933522710985"><ele>264.0</ele><time>2026-04-10T06:51:11Z</time></trkpt><trkpt lat="44.73402173444698" lon="7.7979058950982605"><ele>264.0</ele><time>2026-04-10T06:51:12Z</time></trkpt><trkpt lat="44.73413399313393" lon="7.797855230994059"><ele>264.0</ele><time>2026-04-10T06:51:14Z</time></trkpt><trkpt lat="44.73419497807476" lon="7.797829045551669"><ele>264.0</ele><time>2026-04-10T06:51:15Z</time></trkpt><trkpt lat="44.73431744270954" lon="7.797799671639138"><ele>264.0</ele><time>2026-04-10T06:51:17Z</time></trkpt><trkpt lat="44.73438545137549" lon="7.7978129122194355"><ele>264.0</ele><time>2026-04-10T06:51:18Z</time></trkpt><trkpt lat="44.73450275816686" lon="7.797844592571584"><ele>264.25</ele><time>2026-04-10T06:51:20Z</time></trkpt><trkpt lat="44.7346236720575" lon="7.797845937232236"><ele>264.5</ele><time>2026-04-10T06:51:22Z</time></trkpt><trkpt lat="44.73473929258556" lon="7.797834504030481"><ele>264.75</ele><time>2026-04-10T06:51:24Z</time></trkpt><trkpt lat="44.73485360496452" lon="7.797824160894672"><ele>265.0</ele><time>2026-04-10T06:51:26Z</time></trkpt><trkpt lat="44.73497614340579" lon="7.797805166144642"><ele>265.0</ele><time>2026-04-10T06:51:28Z</time></trkpt><trkpt lat="44.73503898689934" lon="7.797777000303768"><ele>265.0</ele><time>2026-04-10T06:51:29Z</time></trkpt><trkpt lat="44.73510171166635" lon="7.797757326690941"><ele>265.0</ele><time>2026-04-10T06:51:30Z</time></trkpt><trkpt lat="44.73522210329603" lon="7.797728194094893"><ele>265.0</ele><time>2026-04-10T06:51:32Z</time></trkpt><trkpt lat="44.73528559758458" lon="7.797712661423421"><ele>265.0</ele><time>2026-04-10T06:51:33Z</time></trkpt><trkpt lat="44.73540919931938" lon="7.797703919245231"><ele>265.0</ele><time>2026-04-10T06:51:35Z</time></trkpt><trkpt lat="44.735542629294606" lon="7.797695960478548"><ele>264.8333333333333</ele><time>2026-04-10T06:51:37Z</time></trkpt><trkpt lat="44.73565686850338" lon="7.797680282978492"><ele>264.66666666666663</ele><time>2026-04-10T06:51:39Z</time></trkpt><trkpt lat="44.73571986977441" lon="7.7976768318005"><ele>264.5</ele><time>2026-04-10T06:51:40Z</time></trkpt><trkpt lat="44.73583768170326" lon="7.797648398205274"><ele>264.3333333333333</ele><time>2026-04-10T06:51:42Z</time></trkpt><trkpt lat="44.73590112021529" lon="7.797639883664537"><ele>264.1666666666667</ele><time>2026-04-10T06:51:43Z</time></trkpt><trkpt lat="44.735975631468534" lon="7.797615253092369"><ele>264.0</ele><time>2026-04-10T06:51:44Z</time></trkpt><trkpt lat="44.73604865041305" lon="7.797611070676648"><ele>264.0</ele><time>2026-04-10T06:51:45Z</time></trkpt><trkpt lat="44.73612411828659" lon="7.797594436818385"><ele>264.0</ele><time>2026-04-10T06:51:46Z</time></trkpt><trkpt lat="44.73620494926828" lon="7.797579790042626"><ele>264.0</ele><time>2026-04-10T06:51:47Z</time></trkpt><trkpt lat="44.73628339540482" lon="7.797571373956921"><ele>264.0</ele><time>2026-04-10T06:51:48Z</time></trkpt><trkpt lat="44.73636180918037" lon="7.797567259426411"><ele>264.0</ele><time>2026-04-10T06:51:49Z</time></trkpt><trkpt lat="44.73644326711019" lon="7.797570489318466"><ele>264.0</ele><time>2026-04-10T06:51:50Z</time></trkpt><trkpt lat="44.73652169794283" lon="7.7975906498998695"><ele>264.0</ele><time>2026-04-10T06:51:51Z</time></trkpt><trkpt lat="44.7365993318001" lon="7.797610506528462"><ele>264.0</ele><time>2026-04-10T06:51:52Z</time></trkpt><trkpt lat="44.73667049399645" lon="7.797626370450071"><ele>264.0</ele><time>2026-04-10T06:51:53Z</time></trkpt><trkpt lat="44.73674567272872" lon="7.797621986071705"><ele>264.0</ele><time>2026-04-10T06:51:54Z</time></trkpt><trkpt lat="44.73682335496155" lon="7.79761077537821"><ele>264.0</ele><time>2026-04-10T06:51:55Z</time></trkpt><trkpt lat="44.73689688052277" lon="7.7975929455948485"><ele>264.0</ele><time>2026-04-10T06:51:56Z</time></trkpt><trkpt lat="44.73696562771943" lon="7.797572741934445"><ele>264.0</ele><time>2026-04-10T06:51:57Z</time></trkpt><trkpt lat="44.73703792374015" lon="7.797554064472232"><ele>264.57142857142856</ele><time>2026-04-10T06:51:58Z</time></trkpt><trkpt lat="44.73710571775975" lon="7.797534179392416"><ele>265.14285714285717</ele><time>2026-04-10T06:51:59Z</time></trkpt><trkpt lat="44.737178017800176" lon="7.797513748631338"><ele>265.7142857142857</ele><time>2026-04-10T06:52:00Z</time></trkpt><trkpt lat="44.737241708625056" lon="7.797497227895297"><ele>266.2857142857143</ele><time>2026-04-10T06:52:01Z</time></trkpt><trkpt lat="44.73730610044127" lon="7.797477941334629"><ele>266.85714285714283</ele><time>2026-04-10T06:52:02Z</time></trkpt><trkpt lat="44.73737632321105" lon="7.797458347816538"><ele>267.42857142857144</ele><time>2026-04-10T06:52:03Z</time></trkpt><trkpt lat="44.737447558449155" lon="7.79743668578162"><ele>268.0</ele><time>2026-04-10T06:52:04Z</time></trkpt><trkpt lat="44.73751668200756" lon="7.79741710484815"><ele>268.0</ele><time>2026-04-10T06:52:05Z</time></trkpt><trkpt lat="44.73758574036258" lon="7.797401253475924"><ele>268.0</ele><time>2026-04-10T06:52:06Z</time></trkpt><trkpt lat="44.737652151698285" lon="7.797387324850527"><ele>268.0</ele><time>2026-04-10T06:52:07Z</time></trkpt><trkpt lat="44.73771948458045" lon="7.797373976524679"><ele>268.0</ele><time>2026-04-10T06:52:08Z</time></trkpt><trkpt lat="44.737783753071064" lon="7.797356753708809"><ele>268.0</ele><time>2026-04-10T06:52:09Z</time></trkpt><trkpt lat="44.73784798675028" lon="7.797334964895231"><ele>268.0</ele><time>2026-04-10T06:52:10Z</time></trkpt><trkpt lat="44.73791657535748" lon="7.79731213213668"><ele>268.0</ele><time>2026-04-10T06:52:11Z</time></trkpt><trkpt lat="44.73803548653315" lon="7.797290312983701"><ele>267.7142857142857</ele><time>2026-04-10T06:52:13Z</time></trkpt><trkpt lat="44.73810490158762" lon="7.797300001717353"><ele>267.42857142857144</ele><time>2026-04-10T06:52:14Z</time></trkpt><trkpt lat="44.73817171890411" lon="7.797331821956823"><ele>267.1428571428571</ele><time>2026-04-10T06:52:15Z</time></trkpt><trkpt lat="44.73822989024381" lon="7.797382594050042"><ele>266.8571428571429</ele><time>2026-04-10T06:52:16Z</time></trkpt><trkpt lat="44.73828645289261" lon="7.797431569935387"><ele>266.57142857142856</ele><time>2026-04-10T06:52:17Z</time></trkpt><trkpt lat="44.738346207583625" lon="7.797468710828691"><ele>266.2857142857143</ele><time>2026-04-10T06:52:18Z</time></trkpt><trkpt lat="44.738413057371844" lon="7.797477812225894"><ele>266.0</ele><time>2026-04-10T06:52:19Z</time></trkpt><trkpt lat="44.73848113851775" lon="7.797473485255807"><ele>266.0</ele><time>2026-04-10T06:52:20Z</time></trkpt><trkpt lat="44.73854634566614" lon="7.797461341357892"><ele>266.0</ele><time>2026-04-10T06:52:21Z</time></trkpt><trkpt lat="44.73860854838689" lon="7.797444952830982"><ele>266.0</ele><time>2026-04-10T06:52:22Z</time></trkpt><trkpt lat="44.73867566134752" lon="7.797425508355196"><ele>266.0</ele><time>2026-04-10T06:52:23Z</time></trkpt><trkpt lat="44.73873818520794" lon="7.797404287867032"><ele>266.0</ele><time>2026-04-10T06:52:24Z</time></trkpt><trkpt lat="44.73880268874624" lon="7.797377525554265"><ele>266.0</ele><time>2026-04-10T06:52:25Z</time></trkpt><trkpt lat="44.7389155066592" lon="7.797325571197875"><ele>266.0</ele><time>2026-04-10T06:52:27Z</time></trkpt><trkpt lat="44.738978258901724" lon="7.797301069175458"><ele>265.85714285714283</ele><time>2026-04-10T06:52:28Z</time></trkpt><trkpt lat="44.7390428652362" lon="7.797286632327402"><ele>265.7142857142857</ele><time>2026-04-10T06:52:29Z</time></trkpt><trkpt lat="44.73910556442199" lon="7.797276146475943"><ele>265.57142857142856</ele><time>2026-04-10T06:52:30Z</time></trkpt><trkpt lat="44.73916986304349" lon="7.797268544602929"><ele>265.42857142857144</ele><time>2026-04-10T06:52:31Z</time></trkpt><trkpt lat="44.739237570991875" lon="7.797256283036888"><ele>265.2857142857143</ele><time>2026-04-10T06:52:32Z</time></trkpt><trkpt lat="44.73930962850504" lon="7.797245538882273"><ele>265.1428571428571</ele><time>2026-04-10T06:52:33Z</time></trkpt><trkpt lat="44.73937334701895" lon="7.797233664327649"><ele>265.0</ele><time>2026-04-10T06:52:34Z</time></trkpt><trkpt lat="44.739440343508505" lon="7.79723046343961"><ele>265.0</ele><time>2026-04-10T06:52:35Z</time></trkpt><trkpt lat="44.739504771771095" lon="7.797248406466709"><ele>265.0</ele><time>2026-04-10T06:52:36Z</time></trkpt><trkpt lat="44.73956299457014" lon="7.797290383420885"><ele>265.0</ele><time>2026-04-10T06:52:37Z</time></trkpt><trkpt lat="44.7396083340762" lon="7.797359677962385"><ele>265.0</ele><time>2026-04-10T06:52:38Z</time></trkpt><trkpt lat="44.73964165526917" lon="7.797526155379187"><ele>265.0</ele><time>2026-04-10T06:52:40Z</time></trkpt><trkpt lat="44.73964844199361" lon="7.797692955270174"><ele>265.0</ele><time>2026-04-10T06:52:42Z</time></trkpt><trkpt lat="44.73965188291019" lon="7.797784845984098"><ele>264.75</ele><time>2026-04-10T06:52:43Z</time></trkpt><trkpt lat="44.73966638049653" lon="7.797958409550769"><ele>264.5</ele><time>2026-04-10T06:52:45Z</time></trkpt><trkpt lat="44.73967762942773" lon="7.798129038810335"><ele>264.25</ele><time>2026-04-10T06:52:47Z</time></trkpt><trkpt lat="44.73968560120349" lon="7.798302202231814"><ele>264.0</ele><time>2026-04-10T06:52:49Z</time></trkpt><trkpt lat="44.73969521784702" lon="7.798472790881598"><ele>264.3333333333333</ele><time>2026-04-10T06:52:51Z</time></trkpt><trkpt lat="44.73969993449434" lon="7.79856258200626"><ele>264.6666666666667</ele><time>2026-04-10T06:52:52Z</time></trkpt><trkpt lat="44.739704798345336" lon="7.798654874869488"><ele>265.0</ele><time>2026-04-10T06:52:53Z</time></trkpt><trkpt lat="44.7397140412934" lon="7.798746707388594"><ele>265.33333333333337</ele><time>2026-04-10T06:52:54Z</time></trkpt><trkpt lat="44.73972391018691" lon="7.798841589347016"><ele>265.6666666666667</ele><time>2026-04-10T06:52:55Z</time></trkpt><trkpt lat="44.73973504510164" lon="7.798935597240378"><ele>266.0</ele><time>2026-04-10T06:52:56Z</time></trkpt><trkpt lat="44.73976988000005" lon="7.799109032336484"><ele>266.0</ele><time>2026-04-10T06:52:58Z</time></trkpt><trkpt lat="44.73980534218249" lon="7.799192962766819"><ele>266.0</ele><time>2026-04-10T06:52:59Z</time></trkpt><trkpt lat="44.73985220343606" lon="7.799258320518216"><ele>266.0</ele><time>2026-04-10T06:53:00Z</time></trkpt><trkpt lat="44.739914754268874" lon="7.799305156174868"><ele>266.0</ele><time>2026-04-10T06:53:01Z</time></trkpt><trkpt lat="44.73998213647653" lon="7.799336552460221"><ele>266.0</ele><time>2026-04-10T06:53:02Z</time></trkpt><trkpt lat="44.74004800749495" lon="7.799360664829469"><ele>266.0</ele><time>2026-04-10T06:53:03Z</time></trkpt><trkpt lat="44.740174800136195" lon="7.799419711977693"><ele>266.0</ele><time>2026-04-10T06:53:05Z</time></trkpt><trkpt lat="44.74023380360954" lon="7.799453927559315"><ele>266.0</ele><time>2026-04-10T06:53:06Z</time></trkpt><trkpt lat="44.74029838256227" lon="7.79950013757851"><ele>266.0</ele><time>2026-04-10T06:53:07Z</time></trkpt><trkpt lat="44.74036153815206" lon="7.799548113640677"><ele>266.0</ele><time>2026-04-10T06:53:08Z</time></trkpt><trkpt lat="44.740418213446155" lon="7.799590385411792"><ele>266.0</ele><time>2026-04-10T06:53:09Z</time></trkpt><trkpt lat="44.74047619649122" lon="7.799638427379021"><ele>266.0</ele><time>2026-04-10T06:53:10Z</time></trkpt><trkpt lat="44.74053709476908" lon="7.799685440305177"><ele>266.0</ele><time>2026-04-10T06:53:11Z</time></trkpt><trkpt lat="44.740594439439676" lon="7.799737063370555"><ele>266.0</ele><time>2026-04-10T06:53:12Z</time></trkpt><trkpt lat="44.74065179634387" lon="7.799787652844305"><ele>266.0</ele><time>2026-04-10T06:53:13Z</time></trkpt><trkpt lat="44.74070841643478" lon="7.799833447666617"><ele>266.0</ele><time>2026-04-10T06:53:14Z</time></trkpt><trkpt lat="44.74076823194927" lon="7.79988365235439"><ele>266.0</ele><time>2026-04-10T06:53:15Z</time></trkpt><trkpt lat="44.74082424382593" lon="7.7999309078353996"><ele>266.0</ele><time>2026-04-10T06:53:16Z</time></trkpt><trkpt lat="44.74092971995106" lon="7.800036999449458"><ele>266.0</ele><time>2026-04-10T06:53:18Z</time></trkpt><trkpt lat="44.740985394100875" lon="7.800096495731393"><ele>266.0</ele><time>2026-04-10T06:53:19Z</time></trkpt><trkpt lat="44.74103679272654" lon="7.800157701063069"><ele>266.0</ele><time>2026-04-10T06:53:20Z</time></trkpt><trkpt lat="44.741085486598" lon="7.800229268693635"><ele>266.0</ele><time>2026-04-10T06:53:21Z</time></trkpt><trkpt lat="44.74112373105714" lon="7.800304600448591"><ele>266.0</ele><time>2026-04-10T06:53:22Z</time></trkpt><trkpt lat="44.741159934391824" lon="7.800385827192414"><ele>266.0</ele><time>2026-04-10T06:53:23Z</time></trkpt><trkpt lat="44.74119186911803" lon="7.80046724810699"><ele>266.0</ele><time>2026-04-10T06:53:24Z</time></trkpt><trkpt lat="44.741218682114585" lon="7.800550295673452"><ele>266.0</ele><time>2026-04-10T06:53:25Z</time></trkpt><trkpt lat="44.74124286348936" lon="7.800637104099005"><ele>266.1666666666667</ele><time>2026-04-10T06:53:26Z</time></trkpt><trkpt lat="44.74126478838195" lon="7.8007247684043985"><ele>266.33333333333337</ele><time>2026-04-10T06:53:27Z</time></trkpt><trkpt lat="44.74128727250715" lon="7.800810635668135"><ele>266.5</ele><time>2026-04-10T06:53:28Z</time></trkpt><trkpt lat="44.74130786758995" lon="7.800894608852727"><ele>266.6666666666667</ele><time>2026-04-10T06:53:29Z</time></trkpt><trkpt lat="44.74134163353093" lon="7.801064046349875"><ele>266.8333333333333</ele><time>2026-04-10T06:53:31Z</time></trkpt><trkpt lat="44.741357954790686" lon="7.801153542205902"><ele>267.0</ele><time>2026-04-10T06:53:32Z</time></trkpt><trkpt lat="44.74137419850419" lon="7.8012421682517665"><ele>267.0</ele><time>2026-04-10T06:53:33Z</time></trkpt><trkpt lat="44.74139402010515" lon="7.801327503776351"><ele>267.0</ele><time>2026-04-10T06:53:34Z</time></trkpt><trkpt lat="44.74141344078692" lon="7.8014141881829495"><ele>267.0</ele><time>2026-04-10T06:53:35Z</time></trkpt><trkpt lat="44.7414590942682" lon="7.8015774095868515"><ele>267.0</ele><time>2026-04-10T06:53:37Z</time></trkpt><trkpt lat="44.74151070525589" lon="7.801735468971219"><ele>267.0</ele><time>2026-04-10T06:53:39Z</time></trkpt><trkpt lat="44.7415429043871" lon="7.801812580374227"><ele>267.0</ele><time>2026-04-10T06:53:40Z</time></trkpt><trkpt lat="44.74160822260414" lon="7.80195725738136"><ele>267.0</ele><time>2026-04-10T06:53:42Z</time></trkpt><trkpt lat="44.741685649433585" lon="7.802098940032073"><ele>267.0</ele><time>2026-04-10T06:53:44Z</time></trkpt><trkpt lat="44.74172666235618" lon="7.802169881240058"><ele>267.0</ele><time>2026-04-10T06:53:45Z</time></trkpt><trkpt lat="44.741798317247174" lon="7.8022958021968485"><ele>267.0</ele><time>2026-04-10T06:53:47Z</time></trkpt><trkpt lat="44.741876479143905" lon="7.8024191336735615"><ele>267.0</ele><time>2026-04-10T06:53:49Z</time></trkpt><trkpt lat="44.74195185166794" lon="7.802527758755179"><ele>267.3333333333333</ele><time>2026-04-10T06:53:51Z</time></trkpt><trkpt lat="44.74199559140459" lon="7.802592026978442"><ele>267.6666666666667</ele><time>2026-04-10T06:53:52Z</time></trkpt><trkpt lat="44.7421006791836" lon="7.802706779921885"><ele>268.0</ele><time>2026-04-10T06:53:54Z</time></trkpt><trkpt lat="44.742161390016044" lon="7.802757869255815"><ele>268.33333333333337</ele><time>2026-04-10T06:53:55Z</time></trkpt><trkpt lat="44.742218470056656" lon="7.802817040634196"><ele>268.6666666666667</ele><time>2026-04-10T06:53:56Z</time></trkpt><trkpt lat="44.742272108575484" lon="7.8028647471638255"><ele>269.0</ele><time>2026-04-10T06:53:57Z</time></trkpt><trkpt lat="44.742328348288204" lon="7.802914181291431"><ele>269.0</ele><time>2026-04-10T06:53:58Z</time></trkpt><trkpt lat="44.742384728409974" lon="7.802965740483512"><ele>269.0</ele><time>2026-04-10T06:53:59Z</time></trkpt><trkpt lat="44.74244691809847" lon="7.8030130306335295"><ele>269.0</ele><time>2026-04-10T06:54:00Z</time></trkpt><trkpt lat="44.74250346326799" lon="7.8030607169980035"><ele>269.0</ele><time>2026-04-10T06:54:01Z</time></trkpt><trkpt lat="44.74256548874029" lon="7.803111073173102"><ele>269.0</ele><time>2026-04-10T06:54:02Z</time></trkpt><trkpt lat="44.74262335433815" lon="7.80316232706645"><ele>269.0</ele><time>2026-04-10T06:54:03Z</time></trkpt><trkpt lat="44.74268703438039" lon="7.803214496505061"><ele>269.0</ele><time>2026-04-10T06:54:04Z</time></trkpt><trkpt lat="44.74274752587109" lon="7.8032583980990395"><ele>269.57142857142856</ele><time>2026-04-10T06:54:05Z</time></trkpt><trkpt lat="44.74280944361419" lon="7.803309564952811"><ele>270.14285714285717</ele><time>2026-04-10T06:54:06Z</time></trkpt><trkpt lat="44.74286607421776" lon="7.803356739607056"><ele>270.7142857142857</ele><time>2026-04-10T06:54:07Z</time></trkpt><trkpt lat="44.74292112922285" lon="7.803405922195061"><ele>271.2857142857143</ele><time>2026-04-10T06:54:08Z</time></trkpt><trkpt lat="44.74297747501384" lon="7.803460529599998"><ele>271.8571428571429</ele><time>2026-04-10T06:54:09Z</time></trkpt><trkpt lat="44.743029005605365" lon="7.803512823808451"><ele>272.42857142857144</ele><time>2026-04-10T06:54:10Z</time></trkpt><trkpt lat="44.74308055853331" lon="7.803569946986432"><ele>273.0</ele><time>2026-04-10T06:54:11Z</time></trkpt><trkpt lat="44.74317830588303" lon="7.803675968650642"><ele>273.0</ele><time>2026-04-10T06:54:13Z</time></trkpt><trkpt lat="44.743275164963876" lon="7.803783703819489"><ele>273.0</ele><time>2026-04-10T06:54:15Z</time></trkpt><trkpt lat="44.74332384532455" lon="7.803840471289396"><ele>273.0</ele><time>2026-04-10T06:54:16Z</time></trkpt><trkpt lat="44.74337327749584" lon="7.8038974572854904"><ele>273.0</ele><time>2026-04-10T06:54:17Z</time></trkpt><trkpt lat="44.74342766141244" lon="7.803958834079674"><ele>273.0</ele><time>2026-04-10T06:54:18Z</time></trkpt><trkpt lat="44.74348379817742" lon="7.804017102654651"><ele>273.0</ele><time>2026-04-10T06:54:19Z</time></trkpt><trkpt lat="44.74359125449261" lon="7.8041115071826965"><ele>273.2</ele><time>2026-04-10T06:54:21Z</time></trkpt><trkpt lat="44.743698629966595" lon="7.804189907165706"><ele>273.4</ele><time>2026-04-10T06:54:23Z</time></trkpt><trkpt lat="44.743807556605674" lon="7.804258860618429"><ele>273.59999999999997</ele><time>2026-04-10T06:54:25Z</time></trkpt><trkpt lat="44.74386732933744" lon="7.8042937325274435"><ele>273.8</ele><time>2026-04-10T06:54:26Z</time></trkpt><trkpt lat="44.7439816446021" lon="7.804354254470054"><ele>274.0</ele><time>2026-04-10T06:54:28Z</time></trkpt><trkpt lat="44.74404316241839" lon="7.80438661027889"><ele>274.0</ele><time>2026-04-10T06:54:29Z</time></trkpt><trkpt lat="44.74410829020724" lon="7.804418981928398"><ele>274.0</ele><time>2026-04-10T06:54:30Z</time></trkpt><trkpt lat="44.744171345429194" lon="7.804448500580867"><ele>274.0</ele><time>2026-04-10T06:54:31Z</time></trkpt><trkpt lat="44.74423292643792" lon="7.804487716634773"><ele>274.0</ele><time>2026-04-10T06:54:32Z</time></trkpt><trkpt lat="44.7443361572195" lon="7.804561956551527"><ele>274.0</ele><time>2026-04-10T06:54:34Z</time></trkpt><trkpt lat="44.7443950081992" lon="7.804611437151131"><ele>274.0</ele><time>2026-04-10T06:54:35Z</time></trkpt><trkpt lat="44.74444880068523" lon="7.804663171993187"><ele>274.2</ele><time>2026-04-10T06:54:36Z</time></trkpt><trkpt lat="44.744498917027386" lon="7.804719656608648"><ele>274.4</ele><time>2026-04-10T06:54:37Z</time></trkpt><trkpt lat="44.744595122312276" lon="7.804815837667058"><ele>274.6</ele><time>2026-04-10T06:54:39Z</time></trkpt><trkpt lat="44.744645541352234" lon="7.804876882288232"><ele>274.8</ele><time>2026-04-10T06:54:40Z</time></trkpt><trkpt lat="44.74473210768847" lon="7.8049917591637845"><ele>275.0</ele><time>2026-04-10T06:54:42Z</time></trkpt><trkpt lat="44.74481024723744" lon="7.805113469308199"><ele>274.83333333333337</ele><time>2026-04-10T06:54:44Z</time></trkpt><trkpt lat="44.744890808834114" lon="7.805240276290596"><ele>274.6666666666667</ele><time>2026-04-10T06:54:46Z</time></trkpt><trkpt lat="44.74493643536894" lon="7.8053058306813154"><ele>274.5</ele><time>2026-04-10T06:54:47Z</time></trkpt><trkpt lat="44.74498198713796" lon="7.805368162565495"><ele>274.3333333333333</ele><time>2026-04-10T06:54:48Z</time></trkpt><trkpt lat="44.74502705291279" lon="7.805435083102607"><ele>274.16666666666663</ele><time>2026-04-10T06:54:49Z</time></trkpt><trkpt lat="44.745072326403786" lon="7.805509048110941"><ele>274.0</ele><time>2026-04-10T06:54:50Z</time></trkpt><trkpt lat="44.74511982220108" lon="7.805583923540511"><ele>274.00000000000006</ele><time>2026-04-10T06:54:51Z</time></trkpt><trkpt lat="44.74516775140536" lon="7.805659183607472"><ele>274.0</ele><time>2026-04-10T06:54:52Z</time></trkpt><trkpt lat="44.74521972672814" lon="7.80573382400952"><ele>274.0</ele><time>2026-04-10T06:54:53Z</time></trkpt><trkpt lat="44.74527544159081" lon="7.805810429199843"><ele>274.0</ele><time>2026-04-10T06:54:54Z</time></trkpt><trkpt lat="44.74532767872927" lon="7.805877862149989"><ele>274.0</ele><time>2026-04-10T06:54:55Z</time></trkpt><trkpt lat="44.745379424777774" lon="7.805940926338114"><ele>274.00000000000006</ele><time>2026-04-10T06:54:56Z</time></trkpt><trkpt lat="44.745425190747525" lon="7.8060034112672385"><ele>274.0</ele><time>2026-04-10T06:54:57Z</time></trkpt><trkpt lat="44.74547687557118" lon="7.806067800541624"><ele>274.0</ele><time>2026-04-10T06:54:58Z</time></trkpt><trkpt lat="44.745529770690354" lon="7.806133648425077"><ele>274.0</ele><time>2026-04-10T06:54:59Z</time></trkpt><trkpt lat="44.74557892434725" lon="7.806197117699327"><ele>274.0</ele><time>2026-04-10T06:55:00Z</time></trkpt><trkpt lat="44.745679882640516" lon="7.8062985963913105"><ele>274.0</ele><time>2026-04-10T06:55:02Z</time></trkpt><trkpt lat="44.74577892521834" lon="7.806405417950949"><ele>274.0</ele><time>2026-04-10T06:55:04Z</time></trkpt><trkpt lat="44.745829951775654" lon="7.8064652151248595"><ele>274.0</ele><time>2026-04-10T06:55:05Z</time></trkpt><trkpt lat="44.745883269302354" lon="7.806524974239444"><ele>274.0</ele><time>2026-04-10T06:55:06Z</time></trkpt><trkpt lat="44.74597749691333" lon="7.806642953314512"><ele>274.0</ele><time>2026-04-10T06:55:08Z</time></trkpt><trkpt lat="44.746072664216534" lon="7.806757410157425"><ele>274.0</ele><time>2026-04-10T06:55:10Z</time></trkpt><trkpt lat="44.746169540447944" lon="7.806869344278118"><ele>274.0</ele><time>2026-04-10T06:55:12Z</time></trkpt><trkpt lat="44.746235566429384" lon="7.806944382555507"><ele>274.2</ele><time>2026-04-10T06:55:14Z</time></trkpt><trkpt lat="44.74630563632376" lon="7.807028220635304"><ele>274.4</ele><time>2026-04-10T06:55:22Z</time></trkpt><trkpt lat="44.74638430483552" lon="7.80705941780563"><ele>274.6</ele><time>2026-04-10T06:55:25Z</time></trkpt><trkpt lat="44.74645983554128" lon="7.807155659886737"><ele>274.8</ele><time>2026-04-10T06:55:27Z</time></trkpt><trkpt lat="44.746530689174115" lon="7.807248735872374"><ele>275.0</ele><time>2026-04-10T06:55:29Z</time></trkpt><trkpt lat="44.746597615957945" lon="7.8073160273573174"><ele>275.0</ele><time>2026-04-10T06:55:31Z</time></trkpt><trkpt lat="44.74666788558952" lon="7.807354862720912"><ele>275.0</ele><time>2026-04-10T06:55:33Z</time></trkpt><trkpt lat="44.74675233770254" lon="7.807382753031594"><ele>275.0</ele><time>2026-04-10T06:55:35Z</time></trkpt><trkpt lat="44.74686294452171" lon="7.807368868921111"><ele>275.0</ele><time>2026-04-10T06:55:37Z</time></trkpt><trkpt lat="44.74692540718195" lon="7.807348133330738"><ele>275.0</ele><time>2026-04-10T06:55:38Z</time></trkpt><trkpt lat="44.747027265933134" lon="7.8072922664716184"><ele>275.0</ele><time>2026-04-10T06:55:40Z</time></trkpt><trkpt lat="44.747127091954646" lon="7.807241996920587"><ele>275.2</ele><time>2026-04-10T06:55:42Z</time></trkpt><trkpt lat="44.747234462492855" lon="7.807221906786876"><ele>275.4</ele><time>2026-04-10T06:55:44Z</time></trkpt><trkpt lat="44.747343082349026" lon="7.807194261333096"><ele>275.6</ele><time>2026-04-10T06:55:46Z</time></trkpt><trkpt lat="44.747459753524176" lon="7.807158330232887"><ele>275.8</ele><time>2026-04-10T06:55:48Z</time></trkpt><trkpt lat="44.74752144715378" lon="7.807135762600408"><ele>276.0</ele><time>2026-04-10T06:55:49Z</time></trkpt><trkpt lat="44.74759364315784" lon="7.807114636416809"><ele>276.0</ele><time>2026-04-10T06:55:50Z</time></trkpt><trkpt lat="44.747664308607845" lon="7.807088250498449"><ele>276.0</ele><time>2026-04-10T06:55:51Z</time></trkpt><trkpt lat="44.747733351089614" lon="7.80706354875844"><ele>276.0</ele><time>2026-04-10T06:55:52Z</time></trkpt><trkpt lat="44.74780401786941" lon="7.807038879227881"><ele>276.0</ele><time>2026-04-10T06:55:53Z</time></trkpt><trkpt lat="44.74794049459521" lon="7.807003862893949"><ele>276.0</ele><time>2026-04-10T06:55:55Z</time></trkpt><trkpt lat="44.748020348936976" lon="7.806978152317634"><ele>276.0</ele><time>2026-04-10T06:55:56Z</time></trkpt><trkpt lat="44.74809000281887" lon="7.806950908036292"><ele>276.0</ele><time>2026-04-10T06:55:57Z</time></trkpt><trkpt lat="44.74816634746692" lon="7.806934689038215"><ele>276.0</ele><time>2026-04-10T06:55:58Z</time></trkpt><trkpt lat="44.74823692399245" lon="7.806882688122817"><ele>276.0</ele><time>2026-04-10T06:55:59Z</time></trkpt><trkpt lat="44.74831073714432" lon="7.806833815485505"><ele>276.0</ele><time>2026-04-10T06:56:00Z</time></trkpt><trkpt lat="44.74838523462097" lon="7.806811629984791"><ele>276.0</ele><time>2026-04-10T06:56:01Z</time></trkpt><trkpt lat="44.748470393352804" lon="7.806773720899994"><ele>276.0</ele><time>2026-04-10T06:56:02Z</time></trkpt><trkpt lat="44.7485370363257" lon="7.806750250352626"><ele>276.0</ele><time>2026-04-10T06:56:03Z</time></trkpt><trkpt lat="44.74860143782674" lon="7.806727925716272"><ele>276.0</ele><time>2026-04-10T06:56:04Z</time></trkpt><trkpt lat="44.748706140700705" lon="7.806745022188445"><ele>276.0</ele><time>2026-04-10T06:56:06Z</time></trkpt><trkpt lat="44.748760391629325" lon="7.806805389177484"><ele>276.0</ele><time>2026-04-10T06:56:07Z</time></trkpt><trkpt lat="44.74881980974776" lon="7.806871987458456"><ele>276.0</ele><time>2026-04-10T06:56:08Z</time></trkpt><trkpt lat="44.748878618802834" lon="7.806932404577974"><ele>276.0</ele><time>2026-04-10T06:56:09Z</time></trkpt><trkpt lat="44.748937060918045" lon="7.807003106462621"><ele>276.3333333333333</ele><time>2026-04-10T06:56:10Z</time></trkpt><trkpt lat="44.748991746020046" lon="7.807069647471942"><ele>276.6666666666667</ele><time>2026-04-10T06:56:11Z</time></trkpt><trkpt lat="44.749042028221425" lon="7.807125791769339"><ele>277.0</ele><time>2026-04-10T06:56:12Z</time></trkpt><trkpt lat="44.74913667576178" lon="7.807218523520883"><ele>277.33333333333337</ele><time>2026-04-10T06:56:14Z</time></trkpt><trkpt lat="44.74919078906033" lon="7.807264536265195"><ele>277.6666666666667</ele><time>2026-04-10T06:56:15Z</time></trkpt><trkpt lat="44.74924580506682" lon="7.807317600117695"><ele>278.0</ele><time>2026-04-10T06:56:16Z</time></trkpt><trkpt lat="44.74935893374463" lon="7.807426352930574"><ele>278.6</ele><time>2026-04-10T06:56:18Z</time></trkpt><trkpt lat="44.74943901929393" lon="7.807497208832517"><ele>279.20000000000005</ele><time>2026-04-10T06:56:19.999Z</time></trkpt><trkpt lat="44.74952985618741" lon="7.807568360921826"><ele>279.8</ele><time>2026-04-10T06:56:21.999Z</time></trkpt><trkpt lat="44.74959049903743" lon="7.807655708679346"><ele>280.40000000000003</ele><time>2026-04-10T06:56:23.999Z</time></trkpt><trkpt lat="44.74956156085891" lon="7.807774309393063"><ele>281.0</ele><time>2026-04-10T06:56:25.999Z</time></trkpt><trkpt lat="44.749503326652665" lon="7.8078888535248785"><ele>281.0</ele><time>2026-04-10T06:56:27.999Z</time></trkpt><trkpt lat="44.74946074823151" lon="7.807998024670109"><ele>281.0</ele><time>2026-04-10T06:56:29.999Z</time></trkpt><trkpt lat="44.74940526025658" lon="7.808109588303587"><ele>281.0</ele><time>2026-04-10T06:56:31.999Z</time></trkpt><trkpt lat="44.74936266325609" lon="7.808235229772733"><ele>281.0</ele><time>2026-04-10T06:56:33.999Z</time></trkpt><trkpt lat="44.74933792313005" lon="7.808350749902305"><ele>281.0</ele><time>2026-04-10T06:56:35.999Z</time></trkpt><trkpt lat="44.74931466691721" lon="7.808474416207909"><ele>281.0</ele><time>2026-04-10T06:56:37.999Z</time></trkpt><trkpt lat="44.74928158051113" lon="7.808583910236999"><ele>281.0</ele><time>2026-04-10T06:56:39.999Z</time></trkpt><trkpt lat="44.749248464835624" lon="7.808705391703309"><ele>281.0</ele><time>2026-04-10T06:56:41.999Z</time></trkpt><trkpt lat="44.74920949318392" lon="7.808821683940812"><ele>281.0</ele><time>2026-04-10T06:56:43.999Z</time></trkpt><trkpt lat="44.749157814087845" lon="7.808963697837933"><ele>281.0</ele><time>2026-04-10T06:56:45.999Z</time></trkpt><trkpt lat="44.749102209435286" lon="7.809116559686615"><ele>281.0</ele><time>2026-04-10T06:56:47.999Z</time></trkpt><trkpt lat="44.74905174812525" lon="7.8092684556066345"><ele>281.0</ele><time>2026-04-10T06:56:49.999Z</time></trkpt><trkpt lat="44.749017097366306" lon="7.80941700999371"><ele>281.0</ele><time>2026-04-10T06:56:51.999Z</time></trkpt><trkpt lat="44.74900876002758" lon="7.809507772687892"><ele>281.0</ele><time>2026-04-10T06:56:52.999Z</time></trkpt><trkpt lat="44.74898862352494" lon="7.809669328012167"><ele>281.0</ele><time>2026-04-10T06:56:54.999Z</time></trkpt><trkpt lat="44.74896755974489" lon="7.809845656540269"><ele>281.0</ele><time>2026-04-10T06:56:56.999Z</time></trkpt><trkpt lat="44.748955199622785" lon="7.81001300119641"><ele>281.0</ele><time>2026-04-10T06:56:58.999Z</time></trkpt><trkpt lat="44.74894436841105" lon="7.810157526928179"><ele>281.0</ele><time>2026-04-10T06:57:00.999Z</time></trkpt><trkpt lat="44.74893275205004" lon="7.810305166371625"><ele>281.0</ele><time>2026-04-10T06:57:02.999Z</time></trkpt><trkpt lat="44.74890576989878" lon="7.810471553514794"><ele>281.0</ele><time>2026-04-10T06:57:04.999Z</time></trkpt><trkpt lat="44.74888431250308" lon="7.8105612760931695"><ele>281.6</ele><time>2026-04-10T06:57:05.999Z</time></trkpt><trkpt lat="44.74886581226737" lon="7.810653177439573"><ele>282.20000000000005</ele><time>2026-04-10T06:57:06.999Z</time></trkpt><trkpt lat="44.74883035625363" lon="7.810760037918553"><ele>282.79999999999995</ele><time>2026-04-10T06:57:07.999Z</time></trkpt><trkpt lat="44.748791913372386" lon="7.810921212901207"><ele>283.4</ele><time>2026-04-10T06:57:10Z</time></trkpt><trkpt lat="44.74876821484974" lon="7.8110125103294115"><ele>284.0</ele><time>2026-04-10T06:57:11Z</time></trkpt><trkpt lat="44.748701519291814" lon="7.811181050471786"><ele>284.59999999999997</ele><time>2026-04-10T06:57:13Z</time></trkpt><trkpt lat="44.748667783494504" lon="7.811268523386536"><ele>285.2</ele><time>2026-04-10T06:57:14Z</time></trkpt><trkpt lat="44.748627996676504" lon="7.811411983734552"><ele>285.79999999999995</ele><time>2026-04-10T06:57:16Z</time></trkpt><trkpt lat="44.74858878139965" lon="7.81157070085349"><ele>286.4</ele><time>2026-04-10T06:57:18Z</time></trkpt><trkpt lat="44.748545456659855" lon="7.811704797204281"><ele>287.0</ele><time>2026-04-10T06:57:20Z</time></trkpt><trkpt lat="44.74851402048832" lon="7.811855610068742"><ele>287.0</ele><time>2026-04-10T06:57:22Z</time></trkpt><trkpt lat="44.748488408034746" lon="7.812021160366479"><ele>287.0</ele><time>2026-04-10T06:57:24Z</time></trkpt><trkpt lat="44.748460511577015" lon="7.812142419301279"><ele>287.0</ele><time>2026-04-10T06:57:26Z</time></trkpt><trkpt lat="44.74844439651246" lon="7.812234330861843"><ele>287.0</ele><time>2026-04-10T06:57:27Z</time></trkpt><trkpt lat="44.74842066197823" lon="7.8123881418519865"><ele>287.0</ele><time>2026-04-10T06:57:29Z</time></trkpt><trkpt lat="44.74839434359029" lon="7.8125004043835675"><ele>287.0</ele><time>2026-04-10T06:57:31Z</time></trkpt><trkpt lat="44.74833241158961" lon="7.812645481756253"><ele>287.0</ele><time>2026-04-10T06:57:33Z</time></trkpt><trkpt lat="44.74828192130291" lon="7.8127738165425304"><ele>287.0</ele><time>2026-04-10T06:57:35Z</time></trkpt><trkpt lat="44.748232347758474" lon="7.812897669277964"><ele>287.0</ele><time>2026-04-10T06:57:37Z</time></trkpt><trkpt lat="44.74819055848467" lon="7.81299961492006"><ele>287.0</ele><time>2026-04-10T06:57:39Z</time></trkpt><trkpt lat="44.748156381764396" lon="7.813133643669649"><ele>287.2</ele><time>2026-04-10T06:57:41Z</time></trkpt><trkpt lat="44.74813240141046" lon="7.81325561740319"><ele>287.4</ele><time>2026-04-10T06:57:43Z</time></trkpt><trkpt lat="44.748107873780285" lon="7.813362760341215"><ele>287.6</ele><time>2026-04-10T06:57:45Z</time></trkpt><trkpt lat="44.74808175788461" lon="7.813474847265069"><ele>287.8</ele><time>2026-04-10T06:57:47Z</time></trkpt><trkpt lat="44.748049228336086" lon="7.813653224030267"><ele>288.0</ele><time>2026-04-10T06:57:49Z</time></trkpt><trkpt lat="44.74803390717808" lon="7.813776685751483"><ele>288.0</ele><time>2026-04-10T06:57:51Z</time></trkpt><trkpt lat="44.74802306022795" lon="7.8139147009460705"><ele>288.0</ele><time>2026-04-10T06:57:53Z</time></trkpt><trkpt lat="44.748002320270636" lon="7.814070060813286"><ele>288.0</ele><time>2026-04-10T06:57:55Z</time></trkpt><trkpt lat="44.74798832156733" lon="7.814159945725864"><ele>288.0</ele><time>2026-04-10T06:57:56Z</time></trkpt><trkpt lat="44.74797091112658" lon="7.814248109795849"><ele>288.0</ele><time>2026-04-10T06:57:57Z</time></trkpt><trkpt lat="44.74793438989855" lon="7.814431697850137"><ele>288.5</ele><time>2026-04-10T06:57:59Z</time></trkpt><trkpt lat="44.74791823328711" lon="7.814526310832086"><ele>289.0</ele><time>2026-04-10T06:58:00Z</time></trkpt><trkpt lat="44.747904378214514" lon="7.81463134413039"><ele>289.5</ele><time>2026-04-10T06:58:01Z</time></trkpt><trkpt lat="44.74790345198689" lon="7.814725054703282"><ele>290.0</ele><time>2026-04-10T06:58:02Z</time></trkpt><trkpt lat="44.7479061681762" lon="7.814827042325211"><ele>290.5</ele><time>2026-04-10T06:58:03Z</time></trkpt><trkpt lat="44.74791310044141" lon="7.814924806460176"><ele>291.0</ele><time>2026-04-10T06:58:04Z</time></trkpt><trkpt lat="44.74793400461979" lon="7.815056625114391"><ele>291.5</ele><time>2026-04-10T06:58:05Z</time></trkpt><trkpt lat="44.747953121498604" lon="7.81517828932994"><ele>292.0</ele><time>2026-04-10T06:58:06Z</time></trkpt><trkpt lat="44.747964862618694" lon="7.815282418240469"><ele>292.5</ele><time>2026-04-10T06:58:07Z</time></trkpt><trkpt lat="44.74797405993284" lon="7.815388446129363"><ele>293.0</ele><time>2026-04-10T06:58:08Z</time></trkpt><trkpt lat="44.747982006839926" lon="7.815495971726855"><ele>293.5</ele><time>2026-04-10T06:58:09Z</time></trkpt><trkpt lat="44.747986838181056" lon="7.815598757262061"><ele>294.0</ele><time>2026-04-10T06:58:10Z</time></trkpt><trkpt lat="44.7479795928542" lon="7.81571719194129"><ele>294.0</ele><time>2026-04-10T06:58:11Z</time></trkpt><trkpt lat="44.74796978060664" lon="7.81584018591515"><ele>294.0</ele><time>2026-04-10T06:58:12Z</time></trkpt><trkpt lat="44.74795633362239" lon="7.815956339192636"><ele>294.0</ele><time>2026-04-10T06:58:13Z</time></trkpt><trkpt lat="44.74794035496592" lon="7.816072237650143"><ele>294.0</ele><time>2026-04-10T06:58:14Z</time></trkpt><trkpt lat="44.74792303897483" lon="7.81617513164979"><ele>294.0</ele><time>2026-04-10T06:58:15Z</time></trkpt><trkpt lat="44.747909895686966" lon="7.816263958411073"><ele>294.0</ele><time>2026-04-10T06:58:16Z</time></trkpt><trkpt lat="44.74789158445525" lon="7.8163646150502775"><ele>294.0</ele><time>2026-04-10T06:58:17Z</time></trkpt><trkpt lat="44.74787203469127" lon="7.8164644975141"><ele>294.0</ele><time>2026-04-10T06:58:18Z</time></trkpt><trkpt lat="44.74785245836903" lon="7.816563115883781"><ele>294.0</ele><time>2026-04-10T06:58:19Z</time></trkpt><trkpt lat="44.74783356524306" lon="7.816654142335638"><ele>294.0</ele><time>2026-04-10T06:58:20Z</time></trkpt><trkpt lat="44.74781420453126" lon="7.816746799228257"><ele>294.0</ele><time>2026-04-10T06:58:21Z</time></trkpt><trkpt lat="44.74779556508068" lon="7.816836499184451"><ele>294.0</ele><time>2026-04-10T06:58:22Z</time></trkpt><trkpt lat="44.74777500166354" lon="7.816923843844209"><ele>294.0</ele><time>2026-04-10T06:58:23Z</time></trkpt><trkpt lat="44.74774288890042" lon="7.81709703595774"><ele>294.0</ele><time>2026-04-10T06:58:25Z</time></trkpt><trkpt lat="44.74772779488887" lon="7.81718366565375"><ele>294.0</ele><time>2026-04-10T06:58:26Z</time></trkpt><trkpt lat="44.747691560341615" lon="7.8173085134996905"><ele>294.0</ele><time>2026-04-10T06:58:28Z</time></trkpt><trkpt lat="44.7476621686521" lon="7.817445591180539"><ele>294.0</ele><time>2026-04-10T06:58:30Z</time></trkpt><trkpt lat="44.74762146752211" lon="7.817566570578605"><ele>294.0</ele><time>2026-04-10T06:58:32Z</time></trkpt><trkpt lat="44.747565505158725" lon="7.81768664779455"><ele>292.4</ele><time>2026-04-10T06:58:34Z</time></trkpt><trkpt lat="44.74751128254724" lon="7.817791487171309"><ele>290.79999999999995</ele><time>2026-04-10T06:58:36Z</time></trkpt><trkpt lat="44.747460077716994" lon="7.817895472829932"><ele>289.20000000000005</ele><time>2026-04-10T06:58:38Z</time></trkpt><trkpt lat="44.747396870622545" lon="7.818018621987843"><ele>287.6</ele><time>2026-04-10T06:58:40Z</time></trkpt><trkpt lat="44.74730879014932" lon="7.818140083948233"><ele>286.0</ele><time>2026-04-10T06:58:42Z</time></trkpt><trkpt lat="44.747241410270036" lon="7.818274966441826"><ele>286.0</ele><time>2026-04-10T06:58:44Z</time></trkpt><trkpt lat="44.74720680524817" lon="7.81839389136071"><ele>286.0</ele><time>2026-04-10T06:58:46Z</time></trkpt><trkpt lat="44.747158482921144" lon="7.818496066632804"><ele>286.0</ele><time>2026-04-10T06:58:48Z</time></trkpt><trkpt lat="44.747097314047096" lon="7.818646531372643"><ele>286.0</ele><time>2026-04-10T06:58:50Z</time></trkpt><trkpt lat="44.7470426410732" lon="7.818797814130059"><ele>286.0</ele><time>2026-04-10T06:58:52Z</time></trkpt><trkpt lat="44.747010632739645" lon="7.818936344056515"><ele>286.66666666666663</ele><time>2026-04-10T06:58:54Z</time></trkpt><trkpt lat="44.74696862421065" lon="7.819015274144802"><ele>287.3333333333333</ele><time>2026-04-10T06:58:56Z</time></trkpt><trkpt lat="44.74692759072549" lon="7.819156891952338"><ele>288.0</ele><time>2026-04-10T06:58:58Z</time></trkpt><trkpt lat="44.74692028110144" lon="7.819265057683949"><ele>288.6666666666667</ele><time>2026-04-10T06:59:00Z</time></trkpt><trkpt lat="44.74694083898628" lon="7.819385356641215"><ele>289.33333333333337</ele><time>2026-04-10T06:59:02Z</time></trkpt><trkpt lat="44.746971827445165" lon="7.819495750516697"><ele>290.0</ele><time>2026-04-10T06:59:04Z</time></trkpt><trkpt lat="44.74703546891051" lon="7.819589141713917"><ele>290.6666666666667</ele><time>2026-04-10T06:59:07Z</time></trkpt><trkpt lat="44.74710951922439" lon="7.819643368911874"><ele>291.33333333333337</ele><time>2026-04-10T06:59:10Z</time></trkpt><trkpt lat="44.747192457331444" lon="7.819663842669532"><ele>292.0</ele><time>2026-04-10T06:59:13Z</time></trkpt><trkpt lat="44.74725968502905" lon="7.8197005225256895"><ele>292.6666666666667</ele><time>2026-04-10T06:59:16Z</time></trkpt><trkpt lat="44.74732527044583" lon="7.819732680453758"><ele>293.3333333333333</ele><time>2026-04-10T06:59:19Z</time></trkpt><trkpt lat="44.7473777834615" lon="7.8198017454175375"><ele>294.0</ele><time>2026-04-10T06:59:24Z</time></trkpt><trkpt lat="44.74740667583633" lon="7.81989649698825"><ele>294.0</ele><time>2026-04-10T06:59:28Z</time></trkpt><trkpt lat="44.74744485919772" lon="7.819973973454183"><ele>294.0</ele><time>2026-04-10T06:59:31Z</time></trkpt><trkpt lat="44.747482940004176" lon="7.820059361145705"><ele>294.0</ele><time>2026-04-10T06:59:35Z</time></trkpt><trkpt lat="44.7475165027485" lon="7.820142583203958"><ele>294.0</ele><time>2026-04-10T06:59:38Z</time></trkpt><trkpt lat="44.7475635295848" lon="7.820231788549973"><ele>294.0</ele><time>2026-04-10T06:59:41Z</time></trkpt><trkpt lat="44.74762711616532" lon="7.820331926573609"><ele>294.0</ele><time>2026-04-10T06:59:44Z</time></trkpt><trkpt lat="44.74769213154733" lon="7.8204171826756514"><ele>295.3333333333333</ele><time>2026-04-10T06:59:47Z</time></trkpt><trkpt lat="44.747761940406335" lon="7.820492538844684"><ele>296.6666666666667</ele><time>2026-04-10T06:59:50Z</time></trkpt><trkpt lat="44.747830918021855" lon="7.820550609346873"><ele>298.0</ele><time>2026-04-10T06:59:53Z</time></trkpt><trkpt lat="44.74789607713388" lon="7.820569095849734"><ele>299.33333333333337</ele><time>2026-04-10T06:59:57Z</time></trkpt><trkpt lat="44.74797403805593" lon="7.820576875541105"><ele>300.6666666666667</ele><time>2026-04-10T07:00:01Z</time></trkpt><trkpt lat="44.74803975874963" lon="7.8205796584353875"><ele>302.0</ele><time>2026-04-10T07:00:03Z</time></trkpt><trkpt lat="44.748128646210795" lon="7.8205810441328865"><ele>302.0</ele><time>2026-04-10T07:00:06Z</time></trkpt><trkpt lat="44.74819659196382" lon="7.820590397481612"><ele>302.0</ele><time>2026-04-10T07:00:08Z</time></trkpt><trkpt lat="44.7482830783366" lon="7.820602256748963"><ele>302.0</ele><time>2026-04-10T07:00:11Z</time></trkpt><trkpt lat="44.74836122367274" lon="7.820630198188909"><ele>302.0</ele><time>2026-04-10T07:00:14Z</time></trkpt><trkpt lat="44.748430149919805" lon="7.8206737640710715"><ele>302.0</ele><time>2026-04-10T07:00:17Z</time></trkpt><trkpt lat="44.74850693372116" lon="7.820690301308589"><ele>302.0</ele><time>2026-04-10T07:00:20Z</time></trkpt><trkpt lat="44.748572526527205" lon="7.820732713594734"><ele>303.83333333333337</ele><time>2026-04-10T07:00:23Z</time></trkpt><trkpt lat="44.7486523318807" lon="7.820761822760034"><ele>305.6666666666667</ele><time>2026-04-10T07:00:27Z</time></trkpt><trkpt lat="44.74872606849926" lon="7.820810039784514"><ele>307.5</ele><time>2026-04-10T07:00:31Z</time></trkpt><trkpt lat="44.748783798187944" lon="7.82087457149555"><ele>309.3333333333333</ele><time>2026-04-10T07:00:34Z</time></trkpt><trkpt lat="44.74884324399877" lon="7.820932727598425"><ele>311.16666666666663</ele><time>2026-04-10T07:00:37Z</time></trkpt><trkpt lat="44.74891789211223" lon="7.820916792212818"><ele>313.0</ele><time>2026-04-10T07:00:42Z</time></trkpt><trkpt lat="44.748969792472494" lon="7.820983576072401"><ele>314.5</ele><time>2026-04-10T07:00:47Z</time></trkpt><trkpt lat="44.74903729618683" lon="7.821042586877257"><ele>316.0</ele><time>2026-04-10T07:00:50Z</time></trkpt><trkpt lat="44.74910601806286" lon="7.821101795492089"><ele>317.5</ele><time>2026-04-10T07:00:53Z</time></trkpt><trkpt lat="44.74918174770156" lon="7.821126799079713"><ele>319.0</ele><time>2026-04-10T07:00:57Z</time></trkpt><trkpt lat="44.74925130701042" lon="7.821158993783113"><ele>320.5</ele><time>2026-04-10T07:01:01Z</time></trkpt><trkpt lat="44.74931679739803" lon="7.821207944440691"><ele>322.0</ele><time>2026-04-10T07:01:05Z</time></trkpt><trkpt lat="44.74938310772249" lon="7.821244803518628"><ele>322.57142857142856</ele><time>2026-04-10T07:01:10Z</time></trkpt><trkpt lat="44.74945780204012" lon="7.821283874366875"><ele>323.1428571428571</ele><time>2026-04-10T07:01:15Z</time></trkpt><trkpt lat="44.74952326417012" lon="7.821323951906997"><ele>323.7142857142857</ele><time>2026-04-10T07:01:19Z</time></trkpt><trkpt lat="44.749590867322354" lon="7.8213591881254665"><ele>324.2857142857143</ele><time>2026-04-10T07:01:23Z</time></trkpt><trkpt lat="44.749658089492904" lon="7.821387149134061"><ele>324.85714285714283</ele><time>2026-04-10T07:01:27Z</time></trkpt><trkpt lat="44.74971670233523" lon="7.821419628579092"><ele>325.42857142857144</ele><time>2026-04-10T07:01:30Z</time></trkpt><trkpt lat="44.74979312267984" lon="7.8214511145113095"><ele>326.0</ele><time>2026-04-10T07:01:34Z</time></trkpt><trkpt lat="44.74986285184945" lon="7.821519050975537"><ele>326.0</ele><time>2026-04-10T07:01:38Z</time></trkpt><trkpt lat="44.74991990816029" lon="7.8215579278122584"><ele>326.0</ele><time>2026-04-10T07:01:41Z</time></trkpt><trkpt lat="44.7499908740863" lon="7.821589924533486"><ele>326.0</ele><time>2026-04-10T07:01:46Z</time></trkpt><trkpt lat="44.75004930794603" lon="7.821635577125774"><ele>326.0</ele><time>2026-04-10T07:01:50Z</time></trkpt><trkpt lat="44.7501027856656" lon="7.8216950840667465"><ele>326.0</ele><time>2026-04-10T07:01:54Z</time></trkpt><trkpt lat="44.750161621559535" lon="7.821739728866993"><ele>326.0</ele><time>2026-04-10T07:01:58Z</time></trkpt><trkpt lat="44.75023351829338" lon="7.821785872543791"><ele>326.0</ele><time>2026-04-10T07:02:04Z</time></trkpt><trkpt lat="44.7502737863046" lon="7.82185652922754"><ele>326.8571428571429</ele><time>2026-04-10T07:02:07Z</time></trkpt><trkpt lat="44.7503164545489" lon="7.821929666161407"><ele>327.71428571428567</ele><time>2026-04-10T07:02:10Z</time></trkpt><trkpt lat="44.750365481163435" lon="7.8220054217259"><ele>328.57142857142856</ele><time>2026-04-10T07:02:14Z</time></trkpt><trkpt lat="44.75041111480068" lon="7.822089704458602"><ele>329.42857142857144</ele><time>2026-04-10T07:02:19Z</time></trkpt><trkpt lat="44.75044836134426" lon="7.822166952527104"><ele>330.28571428571433</ele><time>2026-04-10T07:02:23Z</time></trkpt><trkpt lat="44.75048552096691" lon="7.822247121848454"><ele>331.1428571428571</ele><time>2026-04-10T07:02:26Z</time></trkpt><trkpt lat="44.75052497079616" lon="7.822331566861015"><ele>332.0</ele><time>2026-04-10T07:02:30Z</time></trkpt><trkpt lat="44.75055312308598" lon="7.822426080348227"><ele>332.0</ele><time>2026-04-10T07:02:35Z</time></trkpt><trkpt lat="44.75057535933691" lon="7.822515811103915"><ele>332.0</ele><time>2026-04-10T07:02:39Z</time></trkpt><trkpt lat="44.75060153204138" lon="7.822597696021691"><ele>332.0</ele><time>2026-04-10T07:02:43Z</time></trkpt><trkpt lat="44.750621237582486" lon="7.822682196741988"><ele>332.0</ele><time>2026-04-10T07:02:48Z</time></trkpt><trkpt lat="44.75064603178479" lon="7.822786198827588"><ele>332.0</ele><time>2026-04-10T07:02:52Z</time></trkpt><trkpt lat="44.75064589840322" lon="7.822888934812335"><ele>332.0</ele><time>2026-04-10T07:02:56Z</time></trkpt><trkpt lat="44.7505686002214" lon="7.822927706127575"><ele>332.0</ele><time>2026-04-10T07:03:00Z</time></trkpt><trkpt lat="44.75050895815415" lon="7.8229664024392065"><ele>332.1428571428571</ele><time>2026-04-10T07:03:02Z</time></trkpt><trkpt lat="44.750449332423" lon="7.823020157170345"><ele>332.28571428571433</ele><time>2026-04-10T07:03:05Z</time></trkpt><trkpt lat="44.750395950912875" lon="7.823088639108021"><ele>332.42857142857144</ele><time>2026-04-10T07:03:07Z</time></trkpt><trkpt lat="44.75034858400314" lon="7.823149988097029"><ele>332.57142857142856</ele><time>2026-04-10T07:03:09Z</time></trkpt><trkpt lat="44.75028854675605" lon="7.823230718221972"><ele>332.71428571428567</ele><time>2026-04-10T07:03:12Z</time></trkpt><trkpt lat="44.750223757950536" lon="7.823276807718448"><ele>332.8571428571429</ele><time>2026-04-10T07:03:15Z</time></trkpt><trkpt lat="44.75017258224223" lon="7.8233326487375585"><ele>333.0</ele><time>2026-04-10T07:03:19Z</time></trkpt><trkpt lat="44.75015137813616" lon="7.823438607584506"><ele>333.7142857142857</ele><time>2026-04-10T07:03:22Z</time></trkpt><trkpt lat="44.750174334617405" lon="7.823537551166056"><ele>334.4285714285714</ele><time>2026-04-10T07:03:28Z</time></trkpt><trkpt lat="44.75024875419866" lon="7.8235696190032815"><ele>335.1428571428571</ele><time>2026-04-10T07:03:33Z</time></trkpt><trkpt lat="44.750313989047925" lon="7.823582537130584"><ele>335.8571428571429</ele><time>2026-04-10T07:03:38Z</time></trkpt><trkpt lat="44.75038326285116" lon="7.823582232375819"><ele>336.57142857142856</ele><time>2026-04-10T07:03:43Z</time></trkpt><trkpt lat="44.75045569589354" lon="7.823570769338204"><ele>337.2857142857143</ele><time>2026-04-10T07:03:47Z</time></trkpt><trkpt lat="44.7505215315307" lon="7.823542374217293"><ele>338.0</ele><time>2026-04-10T07:03:51Z</time></trkpt><trkpt lat="44.75059326242054" lon="7.823543249086146"><ele>338.0</ele><time>2026-04-10T07:03:56Z</time></trkpt><trkpt lat="44.75065856466589" lon="7.823544525260338"><ele>338.0</ele><time>2026-04-10T07:04:02Z</time></trkpt><trkpt lat="44.75073597811079" lon="7.823551015450632"><ele>338.0</ele><time>2026-04-10T07:04:07Z</time></trkpt><trkpt lat="44.75081628627375" lon="7.82351268858922"><ele>338.0</ele><time>2026-04-10T07:04:13Z</time></trkpt><trkpt lat="44.75089095225091" lon="7.823461833502396"><ele>338.0</ele><time>2026-04-10T07:04:17.001Z</time></trkpt><trkpt lat="44.75095972337714" lon="7.823410680277442"><ele>338.0</ele><time>2026-04-10T07:04:20.001Z</time></trkpt><trkpt lat="44.75103689504328" lon="7.823349310608263"><ele>338.5</ele><time>2026-04-10T07:04:23.001Z</time></trkpt><trkpt lat="44.75110118683695" lon="7.823313967068742"><ele>339.0</ele><time>2026-04-10T07:04:25.001Z</time></trkpt><trkpt lat="44.75117787055513" lon="7.823301454719837"><ele>339.5</ele><time>2026-04-10T07:04:28Z</time></trkpt><trkpt lat="44.75117454581941" lon="7.823419883799022"><ele>340.0</ele><time>2026-04-10T07:04:32Z</time></trkpt><trkpt lat="44.751137671712875" lon="7.823501310288203"><ele>340.5</ele><time>2026-04-10T07:04:34Z</time></trkpt><trkpt lat="44.751095952916" lon="7.8235959509266815"><ele>341.0</ele><time>2026-04-10T07:04:36Z</time></trkpt><trkpt lat="44.75105237689343" lon="7.823694326496351"><ele>341.0</ele><time>2026-04-10T07:04:38Z</time></trkpt><trkpt lat="44.75100207194582" lon="7.823798664366644"><ele>341.0</ele><time>2026-04-10T07:04:40Z</time></trkpt><trkpt lat="44.7509476618883" lon="7.82391016337521"><ele>341.0</ele><time>2026-04-10T07:04:42Z</time></trkpt><trkpt lat="44.75088474132203" lon="7.824019034390085"><ele>341.0</ele><time>2026-04-10T07:04:44Z</time></trkpt><trkpt lat="44.75082166653757" lon="7.824163735086735"><ele>341.0</ele><time>2026-04-10T07:04:46Z</time></trkpt><trkpt lat="44.750745111900336" lon="7.824305885954383"><ele>340.8</ele><time>2026-04-10T07:04:48Z</time></trkpt><trkpt lat="44.750673470576075" lon="7.824442949841584"><ele>340.6</ele><time>2026-04-10T07:04:50Z</time></trkpt><trkpt lat="44.750608936845296" lon="7.824599717379272"><ele>340.4</ele><time>2026-04-10T07:04:52Z</time></trkpt><trkpt lat="44.75057173796143" lon="7.824682359979801"><ele>340.2</ele><time>2026-04-10T07:04:53Z</time></trkpt><trkpt lat="44.75050365210823" lon="7.824838887548839"><ele>340.0</ele><time>2026-04-10T07:04:55Z</time></trkpt><trkpt lat="44.750464132598104" lon="7.824922548789897"><ele>340.0</ele><time>2026-04-10T07:04:56Z</time></trkpt><trkpt lat="44.75041830808561" lon="7.824991921327065"><ele>340.0</ele><time>2026-04-10T07:04:57Z</time></trkpt><trkpt lat="44.750376798205025" lon="7.825065735299942"><ele>340.0</ele><time>2026-04-10T07:04:58Z</time></trkpt><trkpt lat="44.7503338706515" lon="7.8251440988431"><ele>340.0</ele><time>2026-04-10T07:04:59Z</time></trkpt><trkpt lat="44.750291683240725" lon="7.825224029760103"><ele>340.0</ele><time>2026-04-10T07:05:00Z</time></trkpt><trkpt lat="44.750245322539406" lon="7.825304010504854"><ele>340.0</ele><time>2026-04-10T07:05:01Z</time></trkpt><trkpt lat="44.750202069405304" lon="7.82537546444185"><ele>340.0</ele><time>2026-04-10T07:05:02Z</time></trkpt><trkpt lat="44.7501625225019" lon="7.825450027916155"><ele>340.0</ele><time>2026-04-10T07:05:03Z</time></trkpt><trkpt lat="44.75012110864357" lon="7.825525532154627"><ele>340.0</ele><time>2026-04-10T07:05:04Z</time></trkpt><trkpt lat="44.75008017964506" lon="7.8256009476244"><ele>340.0</ele><time>2026-04-10T07:05:05Z</time></trkpt><trkpt lat="44.750039076303494" lon="7.825677735832931"><ele>340.0</ele><time>2026-04-10T07:05:06Z</time></trkpt><trkpt lat="44.749999862264964" lon="7.825756260795493"><ele>340.0</ele><time>2026-04-10T07:05:07Z</time></trkpt><trkpt lat="44.749960146582495" lon="7.82583733408242"><ele>340.0</ele><time>2026-04-10T07:05:08Z</time></trkpt><trkpt lat="44.7499197573225" lon="7.825918082600196"><ele>340.0</ele><time>2026-04-10T07:05:09Z</time></trkpt><trkpt lat="44.749878289096365" lon="7.8259985548996776"><ele>340.0</ele><time>2026-04-10T07:05:10Z</time></trkpt><trkpt lat="44.74983580024863" lon="7.82607809786113"><ele>340.0</ele><time>2026-04-10T07:05:11Z</time></trkpt><trkpt lat="44.74979242768082" lon="7.826162923192057"><ele>340.0</ele><time>2026-04-10T07:05:12Z</time></trkpt><trkpt lat="44.74975068763789" lon="7.826238848947992"><ele>340.0</ele><time>2026-04-10T07:05:13Z</time></trkpt><trkpt lat="44.74970870504304" lon="7.826310549483238"><ele>340.0</ele><time>2026-04-10T07:05:14Z</time></trkpt><trkpt lat="44.74966469300649" lon="7.8263943108925345"><ele>340.0</ele><time>2026-04-10T07:05:15Z</time></trkpt><trkpt lat="44.74962297401552" lon="7.826467480468645"><ele>340.0</ele><time>2026-04-10T07:05:16Z</time></trkpt><trkpt lat="44.749549728274026" lon="7.826610914317263"><ele>340.0</ele><time>2026-04-10T07:05:18Z</time></trkpt><trkpt lat="44.74951411398926" lon="7.826684757300847"><ele>340.0</ele><time>2026-04-10T07:05:19Z</time></trkpt><trkpt lat="44.749442095680315" lon="7.8268263971769825"><ele>340.0</ele><time>2026-04-10T07:05:21Z</time></trkpt><trkpt lat="44.74936172892314" lon="7.826948467049429"><ele>340.0</ele><time>2026-04-10T07:05:23Z</time></trkpt><trkpt lat="44.74931779349921" lon="7.827012577170923"><ele>340.0</ele><time>2026-04-10T07:05:24Z</time></trkpt><trkpt lat="44.749243030939425" lon="7.827115719161015"><ele>341.2</ele><time>2026-04-10T07:05:26Z</time></trkpt><trkpt lat="44.749173198177374" lon="7.827212946776924"><ele>342.4</ele><time>2026-04-10T07:05:28Z</time></trkpt><trkpt lat="44.749101688387945" lon="7.827328009708351"><ele>343.6</ele><time>2026-04-10T07:05:30Z</time></trkpt><trkpt lat="44.74903858977082" lon="7.827445997706748"><ele>344.8</ele><time>2026-04-10T07:05:32Z</time></trkpt><trkpt lat="44.74896967642686" lon="7.827544141457982"><ele>346.0</ele><time>2026-04-10T07:05:34Z</time></trkpt><trkpt lat="44.748901529597475" lon="7.827679218546807"><ele>346.0</ele><time>2026-04-10T07:05:36Z</time></trkpt><trkpt lat="44.7488324663173" lon="7.827782139802187"><ele>346.0</ele><time>2026-04-10T07:05:38Z</time></trkpt><trkpt lat="44.74874692009251" lon="7.8278878097703535"><ele>346.0</ele><time>2026-04-10T07:05:40Z</time></trkpt><trkpt lat="44.74869343971599" lon="7.8279534866641916"><ele>346.0</ele><time>2026-04-10T07:05:41Z</time></trkpt><trkpt lat="44.748598018774416" lon="7.828056193775131"><ele>346.0</ele><time>2026-04-10T07:05:43Z</time></trkpt><trkpt lat="44.748497721617206" lon="7.828161493889918"><ele>345.8</ele><time>2026-04-10T07:05:45Z</time></trkpt><trkpt lat="44.74845213987779" lon="7.828224092969512"><ele>345.6</ele><time>2026-04-10T07:05:46Z</time></trkpt><trkpt lat="44.74837595126333" lon="7.828340868173498"><ele>345.4</ele><time>2026-04-10T07:05:48Z</time></trkpt><trkpt lat="44.74830641180597" lon="7.828467974777012"><ele>345.2</ele><time>2026-04-10T07:05:50Z</time></trkpt><trkpt lat="44.748236682513465" lon="7.82862491396255"><ele>345.0</ele><time>2026-04-10T07:05:52Z</time></trkpt><trkpt lat="44.74819986076901" lon="7.828710830811495"><ele>345.3333333333333</ele><time>2026-04-10T07:05:53Z</time></trkpt><trkpt lat="44.74813368539043" lon="7.828852232348564"><ele>345.6666666666667</ele><time>2026-04-10T07:05:55Z</time></trkpt><trkpt lat="44.74810257905996" lon="7.828930342484237"><ele>346.0</ele><time>2026-04-10T07:05:56Z</time></trkpt><trkpt lat="44.748064668872495" lon="7.829015440683317"><ele>346.33333333333337</ele><time>2026-04-10T07:05:57Z</time></trkpt><trkpt lat="44.748027027320234" lon="7.829104923594965"><ele>346.6666666666667</ele><time>2026-04-10T07:05:58Z</time></trkpt><trkpt lat="44.747972346735544" lon="7.8292349300476705"><ele>347.0</ele><time>2026-04-10T07:06:00Z</time></trkpt><trkpt lat="44.74793357909824" lon="7.829408015422271"><ele>347.6</ele><time>2026-04-10T07:06:02Z</time></trkpt><trkpt lat="44.747916340593555" lon="7.829498271739198"><ele>348.20000000000005</ele><time>2026-04-10T07:06:03Z</time></trkpt><trkpt lat="44.74788512954616" lon="7.829669205832998"><ele>348.8</ele><time>2026-04-10T07:06:05Z</time></trkpt><trkpt lat="44.74787146055174" lon="7.829840368980529"><ele>349.4</ele><time>2026-04-10T07:06:07Z</time></trkpt><trkpt lat="44.747868534951884" lon="7.8299376123937785"><ele>350.0</ele><time>2026-04-10T07:06:08Z</time></trkpt><trkpt lat="44.74791340700286" lon="7.830077501561826"><ele>350.0</ele><time>2026-04-10T07:06:10Z</time></trkpt><trkpt lat="44.74797144689959" lon="7.830179937544397"><ele>350.0</ele><time>2026-04-10T07:06:12Z</time></trkpt><trkpt lat="44.74803784218196" lon="7.830297051271859"><ele>350.0</ele><time>2026-04-10T07:06:14Z</time></trkpt><trkpt lat="44.748080118176155" lon="7.83043444275811"><ele>350.0</ele><time>2026-04-10T07:06:16Z</time></trkpt><trkpt lat="44.74806789980806" lon="7.830540198329397"><ele>350.0</ele><time>2026-04-10T07:06:17Z</time></trkpt><trkpt lat="44.7480752543141" lon="7.830675544680294"><ele>350.0</ele><time>2026-04-10T07:06:18.999Z</time></trkpt><trkpt lat="44.748090416838664" lon="7.830811674747431"><ele>350.0</ele><time>2026-04-10T07:06:20.999Z</time></trkpt><trkpt lat="44.74810016479833" lon="7.8309745922051075"><ele>350.0</ele><time>2026-04-10T07:06:22.999Z</time></trkpt><trkpt lat="44.74810954454284" lon="7.831069363603196"><ele>350.0</ele><time>2026-04-10T07:06:23.999Z</time></trkpt><trkpt lat="44.74813902941423" lon="7.831202313827206"><ele>350.0</ele><time>2026-04-10T07:06:25.999Z</time></trkpt><trkpt lat="44.74816902530638" lon="7.831296694416659"><ele>350.1666666666667</ele><time>2026-04-10T07:06:27.999Z</time></trkpt><trkpt lat="44.74818954155806" lon="7.831420645984157"><ele>350.33333333333337</ele><time>2026-04-10T07:06:29.999Z</time></trkpt><trkpt lat="44.748190652136984" lon="7.831544196258596"><ele>350.5</ele><time>2026-04-10T07:06:32.999Z</time></trkpt><trkpt lat="44.748188985913885" lon="7.831668684436909"><ele>350.6666666666667</ele><time>2026-04-10T07:06:34.999Z</time></trkpt><trkpt lat="44.74818087274133" lon="7.831806408814462"><ele>350.8333333333333</ele><time>2026-04-10T07:06:36.999Z</time></trkpt><trkpt lat="44.74815475885687" lon="7.831889099939965"><ele>351.0</ele><time>2026-04-10T07:06:38.999Z</time></trkpt><trkpt lat="44.748129626609085" lon="7.831992320508908"><ele>351.5</ele><time>2026-04-10T07:06:40.999Z</time></trkpt><trkpt lat="44.74810903755661" lon="7.832080645684552"><ele>352.0</ele><time>2026-04-10T07:06:42.999Z</time></trkpt><trkpt lat="44.7480866866619" lon="7.832184819080565"><ele>352.5</ele><time>2026-04-10T07:06:44.999Z</time></trkpt><trkpt lat="44.748090440549824" lon="7.832292414624541"><ele>353.0</ele><time>2026-04-10T07:06:46.999Z</time></trkpt><trkpt lat="44.748088962670145" lon="7.83238991523798"><ele>353.5</ele><time>2026-04-10T07:06:48.999Z</time></trkpt><trkpt lat="44.74809058464976" lon="7.832519725472681"><ele>354.0</ele><time>2026-04-10T07:06:51.999Z</time></trkpt><trkpt lat="44.748096510733625" lon="7.832640383801198"><ele>354.0</ele><time>2026-04-10T07:06:53.999Z</time></trkpt><trkpt lat="44.74809765799289" lon="7.8327853204356375"><ele>354.0</ele><time>2026-04-10T07:06:55.999Z</time></trkpt><trkpt lat="44.74810328711255" lon="7.832950318739832"><ele>354.0</ele><time>2026-04-10T07:06:57.999Z</time></trkpt><trkpt lat="44.748086812821995" lon="7.833122471244863"><ele>354.0</ele><time>2026-04-10T07:06:59.999Z</time></trkpt><trkpt lat="44.748055428522306" lon="7.83329046802851"><ele>354.0</ele><time>2026-04-10T07:07:01.999Z</time></trkpt><trkpt lat="44.748041602829275" lon="7.833384703325828"><ele>354.0</ele><time>2026-04-10T07:07:02.999Z</time></trkpt><trkpt lat="44.748033805359015" lon="7.833480217039144"><ele>354.0</ele><time>2026-04-10T07:07:03.999Z</time></trkpt><trkpt lat="44.748021350975776" lon="7.833573745746751"><ele>354.0</ele><time>2026-04-10T07:07:04.999Z</time></trkpt><trkpt lat="44.74800648009051" lon="7.833661368126462"><ele>354.0</ele><time>2026-04-10T07:07:05.999Z</time></trkpt><trkpt lat="44.74799130707223" lon="7.833751365461413"><ele>354.0</ele><time>2026-04-10T07:07:06.999Z</time></trkpt><trkpt lat="44.747957629527576" lon="7.833930053425129"><ele>353.8333333333333</ele><time>2026-04-10T07:07:08.999Z</time></trkpt><trkpt lat="44.747942108023786" lon="7.834029966319137"><ele>353.6666666666667</ele><time>2026-04-10T07:07:09.999Z</time></trkpt><trkpt lat="44.747927649778326" lon="7.834121214925593"><ele>353.5</ele><time>2026-04-10T07:07:10.999Z</time></trkpt><trkpt lat="44.74791244547284" lon="7.834225413350554"><ele>353.33333333333337</ele><time>2026-04-10T07:07:11.999Z</time></trkpt><trkpt lat="44.74788484672189" lon="7.834376270314718"><ele>353.1666666666667</ele><time>2026-04-10T07:07:13.999Z</time></trkpt><trkpt lat="44.74782784546186" lon="7.834527987864539"><ele>353.0</ele><time>2026-04-10T07:07:15.999Z</time></trkpt><trkpt lat="44.747769336365344" lon="7.834578703616012"><ele>354.2</ele><time>2026-04-10T07:07:16.999Z</time></trkpt><trkpt lat="44.74768947421152" lon="7.834705189002349"><ele>355.4</ele><time>2026-04-10T07:07:18.999Z</time></trkpt><trkpt lat="44.74764784846677" lon="7.834836846075569"><ele>356.59999999999997</ele><time>2026-04-10T07:07:20.999Z</time></trkpt><trkpt lat="44.747617943877394" lon="7.834955012949091"><ele>357.79999999999995</ele><time>2026-04-10T07:07:22.999Z</time></trkpt><trkpt lat="44.74759826654085" lon="7.835060488650159"><ele>359.0</ele><time>2026-04-10T07:07:24.999Z</time></trkpt><trkpt lat="44.747576787115236" lon="7.835156103200937"><ele>359.33333333333337</ele><time>2026-04-10T07:07:26.999Z</time></trkpt><trkpt lat="44.74754232605888" lon="7.835302494368018"><ele>359.6666666666667</ele><time>2026-04-10T07:07:28.999Z</time></trkpt><trkpt lat="44.747504241339826" lon="7.835406385542893"><ele>360.0</ele><time>2026-04-10T07:07:30.999Z</time></trkpt><trkpt lat="44.74746235351168" lon="7.83549247304876"><ele>360.3333333333333</ele><time>2026-04-10T07:07:33.999Z</time></trkpt><trkpt lat="44.7473748862719" lon="7.835529595887009"><ele>360.66666666666663</ele><time>2026-04-10T07:07:35.999Z</time></trkpt><trkpt lat="44.74729902451536" lon="7.8355808334829575"><ele>361.0</ele><time>2026-04-10T07:07:37.999Z</time></trkpt><trkpt lat="44.74722573270585" lon="7.835629635298298"><ele>361.0</ele><time>2026-04-10T07:07:39.999Z</time></trkpt><trkpt lat="44.74713840784385" lon="7.835644427388837"><ele>361.0</ele><time>2026-04-10T07:07:41.999Z</time></trkpt><trkpt lat="44.74704607677019" lon="7.835686414155707"><ele>361.0</ele><time>2026-04-10T07:07:43.999Z</time></trkpt><trkpt lat="44.7469800375397" lon="7.8357352724822515"><ele>361.0</ele><time>2026-04-10T07:07:45.999Z</time></trkpt><trkpt lat="44.74689915969368" lon="7.835770953296102"><ele>361.0</ele><time>2026-04-10T07:07:47.999Z</time></trkpt><trkpt lat="44.746830782211774" lon="7.835823560341828"><ele>361.0</ele><time>2026-04-10T07:07:49.999Z</time></trkpt><trkpt lat="44.746754117999366" lon="7.835854424806451"><ele>361.20000000000005</ele><time>2026-04-10T07:07:51.999Z</time></trkpt><trkpt lat="44.746664834309186" lon="7.835915116486634"><ele>361.40000000000003</ele><time>2026-04-10T07:07:54.999Z</time></trkpt><trkpt lat="44.746586797834254" lon="7.83596679486785"><ele>361.6</ele><time>2026-04-10T07:07:56.999Z</time></trkpt><trkpt lat="44.74650234948994" lon="7.836037658818293"><ele>361.8</ele><time>2026-04-10T07:07:58.999Z</time></trkpt><trkpt lat="44.746428464054944" lon="7.836091770416121"><ele>362.0</ele><time>2026-04-10T07:08:00.999Z</time></trkpt><trkpt lat="44.74635839113274" lon="7.836160859949707"><ele>362.1666666666667</ele><time>2026-04-10T07:08:02.999Z</time></trkpt><trkpt lat="44.74628198633377" lon="7.836226474598138"><ele>362.33333333333337</ele><time>2026-04-10T07:08:04.999Z</time></trkpt><trkpt lat="44.74621291951807" lon="7.83627917750141"><ele>362.5</ele><time>2026-04-10T07:08:06.999Z</time></trkpt><trkpt lat="44.74615475238213" lon="7.836343730411642"><ele>362.6666666666667</ele><time>2026-04-10T07:08:08.999Z</time></trkpt><trkpt lat="44.74610859280709" lon="7.836435038942457"><ele>362.8333333333333</ele><time>2026-04-10T07:08:10.999Z</time></trkpt><trkpt lat="44.746056200898614" lon="7.836551300101913"><ele>363.0</ele><time>2026-04-10T07:08:12.999Z</time></trkpt><trkpt lat="44.74603862228836" lon="7.836668277520757"><ele>362.99999999999994</ele><time>2026-04-10T07:08:14.999Z</time></trkpt><trkpt lat="44.746012873470285" lon="7.836776409315417"><ele>363.0</ele><time>2026-04-10T07:08:16.999Z</time></trkpt><trkpt lat="44.745977388380034" lon="7.8368806198163155"><ele>363.0</ele><time>2026-04-10T07:08:18.999Z</time></trkpt><trkpt lat="44.74594084016653" lon="7.836964501494133"><ele>363.0</ele><time>2026-04-10T07:08:20.999Z</time></trkpt><trkpt lat="44.745908333269576" lon="7.83704325779551"><ele>363.0</ele><time>2026-04-10T07:08:22.999Z</time></trkpt><trkpt lat="44.74588230125024" lon="7.837132053662104"><ele>362.99999999999994</ele><time>2026-04-10T07:08:24.999Z</time></trkpt><trkpt lat="44.74586158243898" lon="7.83723631379583"><ele>363.0</ele><time>2026-04-10T07:08:26.999Z</time></trkpt><trkpt lat="44.74585070438513" lon="7.837328646833552"><ele>362.8333333333333</ele><time>2026-04-10T07:08:28.999Z</time></trkpt><trkpt lat="44.74584466761394" lon="7.837425766265087"><ele>362.6666666666667</ele><time>2026-04-10T07:08:30.999Z</time></trkpt><trkpt lat="44.745814732802856" lon="7.8375580062755015"><ele>362.5</ele><time>2026-04-10T07:08:33.999Z</time></trkpt><trkpt lat="44.74579658149747" lon="7.837657294243063"><ele>362.33333333333337</ele><time>2026-04-10T07:08:35.999Z</time></trkpt><trkpt lat="44.7457253272011" lon="7.837715990430038"><ele>362.1666666666667</ele><time>2026-04-10T07:08:38.999Z</time></trkpt><trkpt lat="44.745657263528" lon="7.8377493103042655"><ele>362.0</ele><time>2026-04-10T07:08:40.999Z</time></trkpt><trkpt lat="44.74559120590296" lon="7.837779036956448"><ele>362.0</ele><time>2026-04-10T07:08:42.999Z</time></trkpt><trkpt lat="44.745520366391055" lon="7.837797381740774"><ele>362.0</ele><time>2026-04-10T07:08:44.999Z</time></trkpt><trkpt lat="44.74545211495891" lon="7.837852825664264"><ele>362.0</ele><time>2026-04-10T07:08:46.999Z</time></trkpt><trkpt lat="44.74536867783662" lon="7.837905950691668"><ele>362.0</ele><time>2026-04-10T07:08:48.999Z</time></trkpt><trkpt lat="44.745286717857994" lon="7.837954773408498"><ele>362.0</ele><time>2026-04-10T07:08:50.999Z</time></trkpt><trkpt lat="44.74521350657166" lon="7.838011420943565"><ele>362.0</ele><time>2026-04-10T07:08:52.999Z</time></trkpt><trkpt lat="44.745123487959496" lon="7.838058134685351"><ele>363.0</ele><time>2026-04-10T07:08:54.999Z</time></trkpt><trkpt lat="44.745051907507985" lon="7.838092113683361"><ele>364.0</ele><time>2026-04-10T07:08:56.999Z</time></trkpt><trkpt lat="44.74498500256" lon="7.838140743921454"><ele>365.0</ele><time>2026-04-10T07:08:58.999Z</time></trkpt><trkpt lat="44.74491089601513" lon="7.83819666033063"><ele>366.0</ele><time>2026-04-10T07:09:00.999Z</time></trkpt><trkpt lat="44.74482754940612" lon="7.838245179759658"><ele>367.0</ele><time>2026-04-10T07:09:02.999Z</time></trkpt><trkpt lat="44.74474165226779" lon="7.838304361521563"><ele>368.0</ele><time>2026-04-10T07:09:04.999Z</time></trkpt><trkpt lat="44.74466721272636" lon="7.838370334595372"><ele>368.0</ele><time>2026-04-10T07:09:06.999Z</time></trkpt><trkpt lat="44.74457912987668" lon="7.838422972635288"><ele>368.0</ele><time>2026-04-10T07:09:08.999Z</time></trkpt><trkpt lat="44.744494046182815" lon="7.838468295190671"><ele>368.0</ele><time>2026-04-10T07:09:10.999Z</time></trkpt><trkpt lat="44.744405881794094" lon="7.838524326600008"><ele>368.0</ele><time>2026-04-10T07:09:12.999Z</time></trkpt><trkpt lat="44.744320783039086" lon="7.83858500293788"><ele>368.0</ele><time>2026-04-10T07:09:14.999Z</time></trkpt><trkpt lat="44.74423488147699" lon="7.838635526603795"><ele>367.83333333333337</ele><time>2026-04-10T07:09:16.999Z</time></trkpt><trkpt lat="44.744146882637885" lon="7.8386777326412265"><ele>367.6666666666667</ele><time>2026-04-10T07:09:18.999Z</time></trkpt><trkpt lat="44.744058804324524" lon="7.838696798514101"><ele>367.5</ele><time>2026-04-10T07:09:20.999Z</time></trkpt><trkpt lat="44.74396413996742" lon="7.838713169281034"><ele>367.3333333333333</ele><time>2026-04-10T07:09:23.999Z</time></trkpt><trkpt lat="44.74388859160596" lon="7.838765021573266"><ele>367.16666666666663</ele><time>2026-04-10T07:09:25.999Z</time></trkpt><trkpt lat="44.74382401648743" lon="7.8388087507373365"><ele>367.0</ele><time>2026-04-10T07:09:27.999Z</time></trkpt><trkpt lat="44.74376259555931" lon="7.8388632780603125"><ele>367.0</ele><time>2026-04-10T07:09:29.999Z</time></trkpt><trkpt lat="44.74367828046785" lon="7.838915210411046"><ele>367.0</ele><time>2026-04-10T07:09:31.999Z</time></trkpt><trkpt lat="44.7435891069616" lon="7.83896533027996"><ele>367.0</ele><time>2026-04-10T07:09:33.999Z</time></trkpt><trkpt lat="44.743514194240326" lon="7.838984469375272"><ele>367.0</ele><time>2026-04-10T07:09:35.999Z</time></trkpt><trkpt lat="44.74344324256256" lon="7.838981482260175"><ele>367.0</ele><time>2026-04-10T07:09:37.999Z</time></trkpt><trkpt lat="44.74336259170518" lon="7.838992316865105"><ele>367.0</ele><time>2026-04-10T07:09:39.999Z</time></trkpt><trkpt lat="44.743272416584844" lon="7.839018071751212"><ele>367.66666666666663</ele><time>2026-04-10T07:09:41.999Z</time></trkpt><trkpt lat="44.743190919889365" lon="7.839044604138435"><ele>368.3333333333333</ele><time>2026-04-10T07:09:43.999Z</time></trkpt><trkpt lat="44.74310976736983" lon="7.839062144143283"><ele>369.0</ele><time>2026-04-10T07:09:45.999Z</time></trkpt><trkpt lat="44.74303792818688" lon="7.83906757977818"><ele>369.6666666666667</ele><time>2026-04-10T07:09:47.999Z</time></trkpt><trkpt lat="44.74296821335975" lon="7.8391060968166855"><ele>370.33333333333337</ele><time>2026-04-10T07:09:49.999Z</time></trkpt><trkpt lat="44.742905430839635" lon="7.839159512023838"><ele>371.0</ele><time>2026-04-10T07:09:51.999Z</time></trkpt><trkpt lat="44.742841723515845" lon="7.83923833401847"><ele>370.83333333333337</ele><time>2026-04-10T07:09:53.999Z</time></trkpt><trkpt lat="44.742774772209536" lon="7.839330685093473"><ele>370.6666666666667</ele><time>2026-04-10T07:09:55.999Z</time></trkpt><trkpt lat="44.742705260670036" lon="7.839412955929994"><ele>370.5</ele><time>2026-04-10T07:09:57.999Z</time></trkpt><trkpt lat="44.74264030784513" lon="7.839496045804181"><ele>370.3333333333333</ele><time>2026-04-10T07:09:59.999Z</time></trkpt><trkpt lat="44.742577144357455" lon="7.83957240792794"><ele>370.16666666666663</ele><time>2026-04-10T07:10:01.999Z</time></trkpt><trkpt lat="44.74251778729617" lon="7.839636003725481"><ele>370.0</ele><time>2026-04-10T07:10:03.999Z</time></trkpt><trkpt lat="44.742464312230325" lon="7.83969708039077"><ele>370.3333333333333</ele><time>2026-04-10T07:10:05.999Z</time></trkpt><trkpt lat="44.74240371808875" lon="7.839747431601066"><ele>370.66666666666663</ele><time>2026-04-10T07:10:07.999Z</time></trkpt><trkpt lat="44.74230993586328" lon="7.839791861380348"><ele>371.0</ele><time>2026-04-10T07:10:10.999Z</time></trkpt><trkpt lat="44.74221741041598" lon="7.839779678339706"><ele>371.3333333333333</ele><time>2026-04-10T07:10:13.999Z</time></trkpt><trkpt lat="44.74213146180707" lon="7.8397743443858525"><ele>371.6666666666667</ele><time>2026-04-10T07:10:16.999Z</time></trkpt><trkpt lat="44.74204317625745" lon="7.8398159932724845"><ele>372.0</ele><time>2026-04-10T07:10:19.999Z</time></trkpt><trkpt lat="44.74198773746284" lon="7.839859557821495"><ele>372.0</ele><time>2026-04-10T07:10:21.999Z</time></trkpt><trkpt lat="44.741927609126165" lon="7.8399282058769835"><ele>372.0</ele><time>2026-04-10T07:10:23.999Z</time></trkpt><trkpt lat="44.74186706260213" lon="7.840025318261469"><ele>372.0</ele><time>2026-04-10T07:10:25.999Z</time></trkpt><trkpt lat="44.74182512305825" lon="7.840105909902429"><ele>372.0</ele><time>2026-04-10T07:10:27.999Z</time></trkpt><trkpt lat="44.74176926557897" lon="7.840173961597647"><ele>372.0</ele><time>2026-04-10T07:10:29.999Z</time></trkpt><trkpt lat="44.74169442715853" lon="7.840254235477417"><ele>372.0</ele><time>2026-04-10T07:10:31.999Z</time></trkpt><trkpt lat="44.74163085644881" lon="7.840334517287554"><ele>372.42857142857144</ele><time>2026-04-10T07:10:33.999Z</time></trkpt><trkpt lat="44.74158042671962" lon="7.84039911004619"><ele>372.8571428571429</ele><time>2026-04-10T07:10:35.999Z</time></trkpt><trkpt lat="44.7415441720935" lon="7.840479692570329"><ele>373.28571428571433</ele><time>2026-04-10T07:10:37.999Z</time></trkpt><trkpt lat="44.741520426101395" lon="7.840564399202391"><ele>373.7142857142857</ele><time>2026-04-10T07:10:39.999Z</time></trkpt><trkpt lat="44.7415103872164" lon="7.840670122444881"><ele>374.1428571428571</ele><time>2026-04-10T07:10:41.999Z</time></trkpt><trkpt lat="44.74151365875015" lon="7.840764321320279"><ele>374.5714285714286</ele><time>2026-04-10T07:10:43.999Z</time></trkpt><trkpt lat="44.741512751109674" lon="7.840897124526896"><ele>375.0</ele><time>2026-04-10T07:10:45.999Z</time></trkpt><trkpt lat="44.74152447187111" lon="7.841003916440763"><ele>375.0</ele><time>2026-04-10T07:10:47.999Z</time></trkpt><trkpt lat="44.74155674402894" lon="7.84113633457541"><ele>375.0</ele><time>2026-04-10T07:10:49.999Z</time></trkpt><trkpt lat="44.74158024330954" lon="7.841253478896039"><ele>375.0</ele><time>2026-04-10T07:10:51.999Z</time></trkpt><trkpt lat="44.74157240582471" lon="7.841377503958179"><ele>375.0</ele><time>2026-04-10T07:10:53.999Z</time></trkpt><trkpt lat="44.74153820863872" lon="7.841496329255281"><ele>375.0</ele><time>2026-04-10T07:10:55.999Z</time></trkpt><trkpt lat="44.74149558612967" lon="7.841600595132088"><ele>375.0</ele><time>2026-04-10T07:10:57.999Z</time></trkpt><trkpt lat="44.741446326368454" lon="7.841688603307226"><ele>375.0</ele><time>2026-04-10T07:10:59.999Z</time></trkpt><trkpt lat="44.7413919383688" lon="7.841788521385196"><ele>375.0</ele><time>2026-04-10T07:11:01.999Z</time></trkpt><trkpt lat="44.74130349764557" lon="7.84184453912863"><ele>375.0</ele><time>2026-04-10T07:11:03.999Z</time></trkpt><trkpt lat="44.74121582145001" lon="7.841898807892924"><ele>375.0</ele><time>2026-04-10T07:11:05.999Z</time></trkpt><trkpt lat="44.74113638466347" lon="7.841956832679762"><ele>375.0</ele><time>2026-04-10T07:11:07.999Z</time></trkpt><trkpt lat="44.74106983607636" lon="7.8420305980239435"><ele>375.0</ele><time>2026-04-10T07:11:09.999Z</time></trkpt><trkpt lat="44.741042846166685" lon="7.842127111125505"><ele>375.0</ele><time>2026-04-10T07:11:11.999Z</time></trkpt><trkpt lat="44.74108102033001" lon="7.842233800342224"><ele>375.0</ele><time>2026-04-10T07:11:13.999Z</time></trkpt><trkpt lat="44.74111668131028" lon="7.842338384427717"><ele>375.0</ele><time>2026-04-10T07:11:15.999Z</time></trkpt><trkpt lat="44.7411499408286" lon="7.842444672158942"><ele>375.0</ele><time>2026-04-10T07:11:17.999Z</time></trkpt><trkpt lat="44.74119698609933" lon="7.842542487082408"><ele>375.3333333333333</ele><time>2026-04-10T07:11:20Z</time></trkpt><trkpt lat="44.741234720825716" lon="7.842650914461087"><ele>375.6666666666667</ele><time>2026-04-10T07:11:22Z</time></trkpt><trkpt lat="44.7412656129442" lon="7.842762230810247"><ele>376.0</ele><time>2026-04-10T07:11:24Z</time></trkpt><trkpt lat="44.74130537221455" lon="7.842883889540284"><ele>376.33333333333337</ele><time>2026-04-10T07:11:26Z</time></trkpt><trkpt lat="44.74132111029889" lon="7.842991383560671"><ele>376.6666666666667</ele><time>2026-04-10T07:11:28Z</time></trkpt><trkpt lat="44.741290453081035" lon="7.843081648958122"><ele>377.0</ele><time>2026-04-10T07:11:30Z</time></trkpt><trkpt lat="44.741204573946725" lon="7.843131999293652"><ele>377.0</ele><time>2026-04-10T07:11:33Z</time></trkpt><trkpt lat="44.74113437032333" lon="7.843161925186636"><ele>377.0</ele><time>2026-04-10T07:11:35Z</time></trkpt><trkpt lat="44.74105617206314" lon="7.843212779893751"><ele>377.0</ele><time>2026-04-10T07:11:37Z</time></trkpt><trkpt lat="44.74098901696373" lon="7.84326370119689"><ele>377.0</ele><time>2026-04-10T07:11:39Z</time></trkpt><trkpt lat="44.74093060307267" lon="7.843328111153193"><ele>377.0</ele><time>2026-04-10T07:11:41Z</time></trkpt><trkpt lat="44.74088021969282" lon="7.84339707315782"><ele>377.0</ele><time>2026-04-10T07:11:43Z</time></trkpt><trkpt lat="44.74082982241966" lon="7.843475988435451"><ele>377.83333333333337</ele><time>2026-04-10T07:11:46Z</time></trkpt><trkpt lat="44.74074789744141" lon="7.843545669778734"><ele>378.6666666666667</ele><time>2026-04-10T07:11:49Z</time></trkpt><trkpt lat="44.74066470929306" lon="7.843594822632782"><ele>379.5</ele><time>2026-04-10T07:11:51Z</time></trkpt><trkpt lat="44.740609938786285" lon="7.843638641994506"><ele>380.3333333333333</ele><time>2026-04-10T07:11:53Z</time></trkpt><trkpt lat="44.74054205869045" lon="7.843664350818887"><ele>381.16666666666663</ele><time>2026-04-10T07:11:55Z</time></trkpt><trkpt lat="44.7404766420206" lon="7.8437125234222895"><ele>382.0</ele><time>2026-04-10T07:11:57Z</time></trkpt><trkpt lat="44.74041901145865" lon="7.843764192816839"><ele>382.0</ele><time>2026-04-10T07:11:59Z</time></trkpt><trkpt lat="44.74036232147032" lon="7.843828948118997"><ele>382.0</ele><time>2026-04-10T07:12:01Z</time></trkpt><trkpt lat="44.740311172581656" lon="7.843893127099128"><ele>382.0</ele><time>2026-04-10T07:12:03Z</time></trkpt><trkpt lat="44.740260224470816" lon="7.843979196813314"><ele>382.0</ele><time>2026-04-10T07:12:05Z</time></trkpt><trkpt lat="44.740216801776484" lon="7.844053372020988"><ele>382.0</ele><time>2026-04-10T07:12:07Z</time></trkpt><trkpt lat="44.74016918950277" lon="7.844135496323464"><ele>382.0</ele><time>2026-04-10T07:12:09Z</time></trkpt><trkpt lat="44.74012333315478" lon="7.844238938160296"><ele>382.66666666666663</ele><time>2026-04-10T07:12:12Z</time></trkpt><trkpt lat="44.7400804233105" lon="7.844323376791724"><ele>383.3333333333333</ele><time>2026-04-10T07:12:14Z</time></trkpt><trkpt lat="44.74003791733669" lon="7.844405646927265"><ele>384.0</ele><time>2026-04-10T07:12:16Z</time></trkpt><trkpt lat="44.74000867361943" lon="7.844516735551155"><ele>384.66666666666663</ele><time>2026-04-10T07:12:19Z</time></trkpt><trkpt lat="44.74000111679904" lon="7.8446424714353915"><ele>385.3333333333333</ele><time>2026-04-10T07:12:22Z</time></trkpt><trkpt lat="44.73999864585937" lon="7.844760585531481"><ele>386.0</ele><time>2026-04-10T07:12:25Z</time></trkpt><trkpt lat="44.74000490038904" lon="7.844851792539887"><ele>385.99999999999994</ele><time>2026-04-10T07:12:27Z</time></trkpt><trkpt lat="44.739979714090644" lon="7.844942462111813"><ele>386.0</ele><time>2026-04-10T07:12:29Z</time></trkpt><trkpt lat="44.73993787949386" lon="7.845014855773482"><ele>386.0</ele><time>2026-04-10T07:12:31Z</time></trkpt><trkpt lat="44.7398889475694" lon="7.845090642275274"><ele>386.0</ele><time>2026-04-10T07:12:33Z</time></trkpt><trkpt lat="44.73982466248827" lon="7.845196325797182"><ele>385.99999999999994</ele><time>2026-04-10T07:12:35Z</time></trkpt><trkpt lat="44.73976544583827" lon="7.845289610137414"><ele>386.0</ele><time>2026-04-10T07:12:37Z</time></trkpt><trkpt lat="44.73973722479313" lon="7.8454133471840946"><ele>385.16666666666663</ele><time>2026-04-10T07:12:39Z</time></trkpt><trkpt lat="44.73974040859294" lon="7.845517230714522"><ele>384.3333333333333</ele><time>2026-04-10T07:12:41Z</time></trkpt><trkpt lat="44.73974602934849" lon="7.84560899271218"><ele>383.5</ele><time>2026-04-10T07:12:43Z</time></trkpt><trkpt lat="44.739755788007876" lon="7.845707395356388"><ele>382.66666666666663</ele><time>2026-04-10T07:12:45Z</time></trkpt><trkpt lat="44.73976263960591" lon="7.845811886079241"><ele>381.8333333333333</ele><time>2026-04-10T07:12:47Z</time></trkpt><trkpt lat="44.73976821035741" lon="7.845953093867633"><ele>381.0</ele><time>2026-04-10T07:12:49Z</time></trkpt><trkpt lat="44.73978400305557" lon="7.8460818996279"><ele>379.4</ele><time>2026-04-10T07:12:51Z</time></trkpt><trkpt lat="44.739810072197606" lon="7.846194598860389"><ele>377.8</ele><time>2026-04-10T07:12:53Z</time></trkpt><trkpt lat="44.739857652221545" lon="7.846346540166682"><ele>376.2</ele><time>2026-04-10T07:12:55Z</time></trkpt><trkpt lat="44.739919690264905" lon="7.846509596009394"><ele>374.59999999999997</ele><time>2026-04-10T07:12:57Z</time></trkpt><trkpt lat="44.73997991707534" lon="7.846633265188464"><ele>373.0</ele><time>2026-04-10T07:12:59Z</time></trkpt><trkpt lat="44.740060150283774" lon="7.846752417674576"><ele>372.16666666666663</ele><time>2026-04-10T07:13:01Z</time></trkpt><trkpt lat="44.7401232238333" lon="7.846874120258326"><ele>371.3333333333333</ele><time>2026-04-10T07:13:03Z</time></trkpt><trkpt lat="44.74015745387605" lon="7.846964357198624"><ele>370.5</ele><time>2026-04-10T07:13:04Z</time></trkpt><trkpt lat="44.74016678962531" lon="7.847059849918483"><ele>369.6666666666667</ele><time>2026-04-10T07:13:05Z</time></trkpt><trkpt lat="44.740169227716954" lon="7.8471579847078665"><ele>368.83333333333337</ele><time>2026-04-10T07:13:06Z</time></trkpt><trkpt lat="44.74016186550671" lon="7.847260375988877"><ele>368.0</ele><time>2026-04-10T07:13:07Z</time></trkpt><trkpt lat="44.740153956724775" lon="7.847348593678908"><ele>368.0</ele><time>2026-04-10T07:13:08Z</time></trkpt><trkpt lat="44.74013213266723" lon="7.847432933052721"><ele>368.0</ele><time>2026-04-10T07:13:09Z</time></trkpt><trkpt lat="44.74010242246527" lon="7.84752049787984"><ele>368.0</ele><time>2026-04-10T07:13:10Z</time></trkpt><trkpt lat="44.74007090225157" lon="7.847605665040304"><ele>368.0</ele><time>2026-04-10T07:13:11Z</time></trkpt><trkpt lat="44.74003411606125" lon="7.847693431953218"><ele>368.0</ele><time>2026-04-10T07:13:12Z</time></trkpt><trkpt lat="44.73999325552469" lon="7.847774424948638"><ele>368.0</ele><time>2026-04-10T07:13:13Z</time></trkpt><trkpt lat="44.739953654044534" lon="7.847872159900471"><ele>368.0</ele><time>2026-04-10T07:13:14Z</time></trkpt><trkpt lat="44.739915971768426" lon="7.847962675670053"><ele>368.2</ele><time>2026-04-10T07:13:15Z</time></trkpt><trkpt lat="44.73987485863909" lon="7.848047760827405"><ele>368.4</ele><time>2026-04-10T07:13:16Z</time></trkpt><trkpt lat="44.739808285559334" lon="7.848170806932603"><ele>368.59999999999997</ele><time>2026-04-10T07:13:18Z</time></trkpt><trkpt lat="44.7397678851551" lon="7.848321828696001"><ele>368.79999999999995</ele><time>2026-04-10T07:13:20Z</time></trkpt><trkpt lat="44.73981506867727" lon="7.848475917674639"><ele>369.0</ele><time>2026-04-10T07:13:22Z</time></trkpt><trkpt lat="44.7398771167555" lon="7.848575414048048"><ele>369.0</ele><time>2026-04-10T07:13:23Z</time></trkpt><trkpt lat="44.73992251973027" lon="7.848638526019659"><ele>369.0</ele><time>2026-04-10T07:13:24Z</time></trkpt><trkpt lat="44.7399646103608" lon="7.848705414000373"><ele>369.0</ele><time>2026-04-10T07:13:25Z</time></trkpt><trkpt lat="44.74000688477883" lon="7.848789240618212"><ele>369.0</ele><time>2026-04-10T07:13:26Z</time></trkpt><trkpt lat="44.7400482123811" lon="7.848896888399887"><ele>369.0</ele><time>2026-04-10T07:13:27Z</time></trkpt><trkpt lat="44.74007132319477" lon="7.8489927609876515"><ele>369.0</ele><time>2026-04-10T07:13:28Z</time></trkpt><trkpt lat="44.740103376614755" lon="7.849087544138038"><ele>369.0</ele><time>2026-04-10T07:13:29Z</time></trkpt><trkpt lat="44.740140474675925" lon="7.849218525238735"><ele>369.6666666666667</ele><time>2026-04-10T07:13:30Z</time></trkpt><trkpt lat="44.74017117412321" lon="7.8493383558000165"><ele>370.3333333333333</ele><time>2026-04-10T07:13:31Z</time></trkpt><trkpt lat="44.74019484975973" lon="7.849440599759734"><ele>371.0</ele><time>2026-04-10T07:13:32Z</time></trkpt><trkpt lat="44.740225758133626" lon="7.849537906610739"><ele>371.66666666666663</ele><time>2026-04-10T07:13:34Z</time></trkpt><trkpt lat="44.74027732817522" lon="7.849604742870581"><ele>372.3333333333333</ele><time>2026-04-10T07:13:37Z</time></trkpt><trkpt lat="44.740335958931226" lon="7.849684007336338"><ele>373.0</ele><time>2026-04-10T07:13:40Z</time></trkpt><trkpt lat="44.74038538572" lon="7.849761856141184"><ele>373.7142857142857</ele><time>2026-04-10T07:13:42Z</time></trkpt><trkpt lat="44.74043337588777" lon="7.849830982104419"><ele>374.42857142857144</ele><time>2026-04-10T07:13:46Z</time></trkpt><trkpt lat="44.740498317856854" lon="7.8498255435419475"><ele>375.1428571428571</ele><time>2026-04-10T07:13:50Z</time></trkpt><trkpt lat="44.74055887830638" lon="7.84985803635385"><ele>375.8571428571429</ele><time>2026-04-10T07:13:56Z</time></trkpt><trkpt lat="44.7405835166227" lon="7.849944166665653"><ele>376.57142857142856</ele><time>2026-04-10T07:14:02Z</time></trkpt><trkpt lat="44.740571225266706" lon="7.850043996218614"><ele>377.2857142857143</ele><time>2026-04-10T07:14:07Z</time></trkpt><trkpt lat="44.74055221887487" lon="7.850129288311323"><ele>378.0</ele><time>2026-04-10T07:14:11Z</time></trkpt><trkpt lat="44.74054614907723" lon="7.8502411089026385"><ele>378.42857142857144</ele><time>2026-04-10T07:14:15Z</time></trkpt><trkpt lat="44.740548089809735" lon="7.850332893766263"><ele>378.8571428571429</ele><time>2026-04-10T07:14:18Z</time></trkpt><trkpt lat="44.740538961299954" lon="7.850425215571213"><ele>379.2857142857143</ele><time>2026-04-10T07:14:20Z</time></trkpt><trkpt lat="44.740583461869015" lon="7.850491739380792"><ele>379.7142857142857</ele><time>2026-04-10T07:14:25Z</time></trkpt><trkpt lat="44.74065884927663" lon="7.850446623677467"><ele>380.14285714285717</ele><time>2026-04-10T07:14:28Z</time></trkpt><trkpt lat="44.74070502740496" lon="7.850383729294171"><ele>380.57142857142856</ele><time>2026-04-10T07:14:30Z</time></trkpt><trkpt lat="44.74076212660776" lon="7.850304900309961"><ele>381.0</ele><time>2026-04-10T07:14:33Z</time></trkpt><trkpt lat="44.740848820672426" lon="7.850285587065189"><ele>381.0</ele><time>2026-04-10T07:14:37Z</time></trkpt><trkpt lat="44.74092335384045" lon="7.850282613406548"><ele>381.0</ele><time>2026-04-10T07:14:41Z</time></trkpt><trkpt lat="44.74099819925736" lon="7.850215956450787"><ele>381.0</ele><time>2026-04-10T07:14:45Z</time></trkpt><trkpt lat="44.741090006522356" lon="7.850169069160817"><ele>381.0</ele><time>2026-04-10T07:14:49Z</time></trkpt><trkpt lat="44.74114807689739" lon="7.850107766416006"><ele>381.0</ele><time>2026-04-10T07:14:51Z</time></trkpt><trkpt lat="44.74121305537378" lon="7.850032674714593"><ele>381.0</ele><time>2026-04-10T07:14:53Z</time></trkpt><trkpt lat="44.741279590214475" lon="7.8500288140630285"><ele>380.5</ele><time>2026-04-10T07:14:55Z</time></trkpt><trkpt lat="44.74132987797243" lon="7.849932886598601"><ele>380.0</ele><time>2026-04-10T07:14:57Z</time></trkpt><trkpt lat="44.74138799853771" lon="7.84982945508918"><ele>379.5</ele><time>2026-04-10T07:14:59Z</time></trkpt><trkpt lat="44.741449008498016" lon="7.849744398549359"><ele>379.0</ele><time>2026-04-10T07:15:02Z</time></trkpt><trkpt lat="44.741510277315555" lon="7.849707082620279"><ele>378.5</ele><time>2026-04-10T07:15:04Z</time></trkpt><trkpt lat="44.74159489498644" lon="7.849701198257341"><ele>378.0</ele><time>2026-04-10T07:15:06Z</time></trkpt><trkpt lat="44.74165697671029" lon="7.84964071921215"><ele>378.0</ele><time>2026-04-10T07:15:08Z</time></trkpt><trkpt lat="44.74170481505491" lon="7.849484706899419"><ele>378.0</ele><time>2026-04-10T07:15:11Z</time></trkpt><trkpt lat="44.74173681697757" lon="7.849387146219556"><ele>378.0</ele><time>2026-04-10T07:15:13Z</time></trkpt><trkpt lat="44.74180565973271" lon="7.849331552718586"><ele>378.0</ele><time>2026-04-10T07:15:18Z</time></trkpt><trkpt lat="44.7418558984783" lon="7.849264539279347"><ele>378.0</ele><time>2026-04-10T07:15:22Z</time></trkpt><trkpt lat="44.74192270979831" lon="7.8492408727997605"><ele>378.0</ele><time>2026-04-10T07:15:25Z</time></trkpt><trkpt lat="44.74201541949023" lon="7.849223582184126"><ele>377.0</ele><time>2026-04-10T07:15:28Z</time></trkpt><trkpt lat="44.74209711415442" lon="7.849169471508488"><ele>376.0</ele><time>2026-04-10T07:15:30Z</time></trkpt><trkpt lat="44.74217070488129" lon="7.8491274306635725"><ele>375.0</ele><time>2026-04-10T07:15:32Z</time></trkpt><trkpt lat="44.742255999243525" lon="7.849098403086885"><ele>374.0</ele><time>2026-04-10T07:15:35Z</time></trkpt><trkpt lat="44.74233950536106" lon="7.849033016161761"><ele>373.0</ele><time>2026-04-10T07:15:38Z</time></trkpt><trkpt lat="44.742407805034475" lon="7.849003195023435"><ele>372.0</ele><time>2026-04-10T07:15:40Z</time></trkpt><trkpt lat="44.74248711835453" lon="7.848915898457574"><ele>372.0</ele><time>2026-04-10T07:15:42Z</time></trkpt><trkpt lat="44.74253582822413" lon="7.84885095587301"><ele>372.0</ele><time>2026-04-10T07:15:43Z</time></trkpt><trkpt lat="44.74263825558177" lon="7.848742071264459"><ele>372.0</ele><time>2026-04-10T07:15:45Z</time></trkpt><trkpt lat="44.742740665444124" lon="7.848667230646249"><ele>372.0</ele><time>2026-04-10T07:15:47Z</time></trkpt><trkpt lat="44.74283379930945" lon="7.848650205171052"><ele>372.0</ele><time>2026-04-10T07:15:49Z</time></trkpt><trkpt lat="44.74289806109347" lon="7.848642734073023"><ele>372.0</ele><time>2026-04-10T07:15:51Z</time></trkpt><trkpt lat="44.74296296642811" lon="7.848608555606407"><ele>372.0</ele><time>2026-04-10T07:15:58Z</time></trkpt><trkpt lat="44.74305171329604" lon="7.848566105566752"><ele>372.0</ele><time>2026-04-10T07:16:13Z</time></trkpt><trkpt lat="44.74310424242196" lon="7.848507321279634"><ele>372.0</ele><time>2026-04-10T07:16:16Z</time></trkpt><trkpt lat="44.74315721852646" lon="7.848449496072827"><ele>372.0</ele><time>2026-04-10T07:16:20.999Z</time></trkpt><trkpt lat="44.74320757229284" lon="7.84839580081322"><ele>372.0</ele><time>2026-04-10T07:16:31.999Z</time></trkpt><trkpt lat="44.743317595555254" lon="7.8482595771133505"><ele>371.7142857142857</ele><time>2026-04-10T07:17:17.999Z</time></trkpt><trkpt lat="44.7433814872462" lon="7.848240821568454"><ele>371.42857142857144</ele><time>2026-04-10T07:17:24.999Z</time></trkpt><trkpt lat="44.74344649578788" lon="7.848223235554041"><ele>371.1428571428571</ele><time>2026-04-10T07:17:37.999Z</time></trkpt><trkpt lat="44.743509385535226" lon="7.848267521383068"><ele>370.8571428571429</ele><time>2026-04-10T07:17:41.999Z</time></trkpt><trkpt lat="44.74356140413202" lon="7.848351139352204"><ele>370.57142857142856</ele><time>2026-04-10T07:17:49.999Z</time></trkpt><trkpt lat="44.74361945554134" lon="7.8482517285897035"><ele>370.2857142857143</ele><time>2026-04-10T07:17:54.999Z</time></trkpt><trkpt lat="44.74367632935559" lon="7.84819193704414"><ele>370.0</ele><time>2026-04-10T07:17:58.999Z</time></trkpt><trkpt lat="44.74373983780544" lon="7.848205003691094"><ele>369.4285714285714</ele><time>2026-04-10T07:18:01.999Z</time></trkpt><trkpt lat="44.74380602905529" lon="7.848207057099711"><ele>368.85714285714283</ele><time>2026-04-10T07:18:06.999Z</time></trkpt><trkpt lat="44.743872552844635" lon="7.8482097113506315"><ele>368.2857142857143</ele><time>2026-04-10T07:18:12.999Z</time></trkpt><trkpt lat="44.74394819217715" lon="7.848187532105947"><ele>367.71428571428567</ele><time>2026-04-10T07:18:17.999Z</time></trkpt><trkpt lat="44.74403012792222" lon="7.848194671429524"><ele>367.14285714285717</ele><time>2026-04-10T07:18:21.999Z</time></trkpt><trkpt lat="44.74409207556947" lon="7.84817497880612"><ele>366.57142857142856</ele><time>2026-04-10T07:18:24.999Z</time></trkpt><trkpt lat="44.74415715579943" lon="7.848137398961761"><ele>366.0</ele><time>2026-04-10T07:18:28Z</time></trkpt><trkpt lat="44.74418988794492" lon="7.8480577450050175"><ele>366.0</ele><time>2026-04-10T07:18:33Z</time></trkpt><trkpt lat="44.74413056815545" lon="7.848103584666169"><ele>366.0</ele><time>2026-04-10T07:18:48Z</time></trkpt><trkpt lat="44.74408477832842" lon="7.8481718604173265"><ele>366.0</ele><time>2026-04-10T07:18:52Z</time></trkpt><trkpt lat="44.74405168559917" lon="7.848249187201275"><ele>366.0</ele><time>2026-04-10T07:18:57Z</time></trkpt><trkpt lat="44.74400581401685" lon="7.848329300956297"><ele>366.0</ele><time>2026-04-10T07:19:01Z</time></trkpt><trkpt lat="44.743938452117234" lon="7.848385800210927"><ele>366.0</ele><time>2026-04-10T07:19:05Z</time></trkpt><trkpt lat="44.743887311134934" lon="7.848469646101227"><ele>366.0</ele><time>2026-04-10T07:19:08Z</time></trkpt><trkpt lat="44.743850536158824" lon="7.848572580754111"><ele>366.7142857142857</ele><time>2026-04-10T07:19:12Z</time></trkpt><trkpt lat="44.743788904040876" lon="7.848653174968715"><ele>367.42857142857144</ele><time>2026-04-10T07:19:16Z</time></trkpt><trkpt lat="44.7437252876639" lon="7.848729147758657"><ele>368.1428571428571</ele><time>2026-04-10T07:19:20Z</time></trkpt><trkpt lat="44.74366672844573" lon="7.848775559270621"><ele>368.8571428571429</ele><time>2026-04-10T07:19:23Z</time></trkpt><trkpt lat="44.74360352710661" lon="7.848789968334416"><ele>369.57142857142856</ele><time>2026-04-10T07:19:25Z</time></trkpt><trkpt lat="44.74353240685855" lon="7.84882168830943"><ele>370.2857142857143</ele><time>2026-04-10T07:19:27Z</time></trkpt><trkpt lat="44.74348079963929" lon="7.848878579956128"><ele>371.0</ele><time>2026-04-10T07:19:30Z</time></trkpt><trkpt lat="44.74340920642232" lon="7.84895249860673"><ele>371.1666666666667</ele><time>2026-04-10T07:19:34Z</time></trkpt><trkpt lat="44.74334470302485" lon="7.849017506151328"><ele>371.33333333333337</ele><time>2026-04-10T07:19:37Z</time></trkpt><trkpt lat="44.74327102047666" lon="7.849038387812647"><ele>371.5</ele><time>2026-04-10T07:19:40Z</time></trkpt><trkpt lat="44.74320828360598" lon="7.849096080878048"><ele>371.6666666666667</ele><time>2026-04-10T07:19:43Z</time></trkpt><trkpt lat="44.74314121998264" lon="7.849133515502107"><ele>371.8333333333333</ele><time>2026-04-10T07:19:46Z</time></trkpt><trkpt lat="44.7430767015421" lon="7.8491942733320155"><ele>372.0</ele><time>2026-04-10T07:19:50Z</time></trkpt><trkpt lat="44.74301676777918" lon="7.84925712245084"><ele>372.42857142857144</ele><time>2026-04-10T07:19:54Z</time></trkpt><trkpt lat="44.742960225593436" lon="7.8493375709627164"><ele>372.8571428571429</ele><time>2026-04-10T07:19:58Z</time></trkpt><trkpt lat="44.742964247110606" lon="7.849431898706625"><ele>373.28571428571433</ele><time>2026-04-10T07:20:00Z</time></trkpt><trkpt lat="44.742992601317" lon="7.84953709075021"><ele>373.7142857142857</ele><time>2026-04-10T07:20:03Z</time></trkpt><trkpt lat="44.74302761896237" lon="7.84962084202402"><ele>374.1428571428571</ele><time>2026-04-10T07:20:07Z</time></trkpt><trkpt lat="44.74305167664888" lon="7.8497122706594755"><ele>374.5714285714286</ele><time>2026-04-10T07:20:11Z</time></trkpt><trkpt lat="44.74310511124335" lon="7.849760406982302"><ele>375.0</ele><time>2026-04-10T07:20:23Z</time></trkpt><trkpt lat="44.7431227318477" lon="7.8498600600142145"><ele>375.0</ele><time>2026-04-10T07:20:32Z</time></trkpt><trkpt lat="44.743144763778865" lon="7.8499479928266185"><ele>375.0</ele><time>2026-04-10T07:20:38Z</time></trkpt><trkpt lat="44.7431651499199" lon="7.850039911113315"><ele>375.0</ele><time>2026-04-10T07:20:45Z</time></trkpt><trkpt lat="44.74314090972567" lon="7.850124498848774"><ele>375.0</ele><time>2026-04-10T07:20:50Z</time></trkpt><trkpt lat="44.74311881669327" lon="7.850236806354909"><ele>375.0</ele><time>2026-04-10T07:20:55Z</time></trkpt><trkpt lat="44.743117610221105" lon="7.850343202220513"><ele>375.0</ele><time>2026-04-10T07:20:58Z</time></trkpt><trkpt lat="44.74311433919773" lon="7.850474182223205"><ele>375.2857142857143</ele><time>2026-04-10T07:21:01Z</time></trkpt><trkpt lat="44.74312262898751" lon="7.850569801051332"><ele>375.57142857142856</ele><time>2026-04-10T07:21:03Z</time></trkpt><trkpt lat="44.74315807009772" lon="7.850674331380313"><ele>375.85714285714283</ele><time>2026-04-10T07:21:05Z</time></trkpt><trkpt lat="44.743167707176845" lon="7.850763972604266"><ele>376.1428571428571</ele><time>2026-04-10T07:21:08Z</time></trkpt><trkpt lat="44.74318092088333" lon="7.850860088588703"><ele>376.42857142857144</ele><time>2026-04-10T07:21:11Z</time></trkpt><trkpt lat="44.74322586651328" lon="7.850929480720152"><ele>376.71428571428567</ele><time>2026-04-10T07:21:15Z</time></trkpt><trkpt lat="44.743224978397464" lon="7.850826387619585"><ele>377.0</ele><time>2026-04-10T07:21:30Z</time></trkpt><trkpt lat="44.74319522169008" lon="7.8507297839569885"><ele>377.0</ele><time>2026-04-10T07:21:34Z</time></trkpt><trkpt lat="44.74318163680615" lon="7.850636771786298"><ele>377.0</ele><time>2026-04-10T07:21:37Z</time></trkpt><trkpt lat="44.74316864674291" lon="7.850543161377726"><ele>377.0</ele><time>2026-04-10T07:21:44Z</time></trkpt><trkpt lat="44.74318591771859" lon="7.850451493067585"><ele>377.0</ele><time>2026-04-10T07:21:48Z</time></trkpt><trkpt lat="44.74323742302606" lon="7.850392039948946"><ele>377.0</ele><time>2026-04-10T07:21:50Z</time></trkpt><trkpt lat="44.74328993460222" lon="7.850322119852756"><ele>377.0</ele><time>2026-04-10T07:21:52Z</time></trkpt><trkpt lat="44.743331127306256" lon="7.85016809830607"><ele>376.6</ele><time>2026-04-10T07:21:54Z</time></trkpt><trkpt lat="44.74339815388799" lon="7.8500732268495135"><ele>376.20000000000005</ele><time>2026-04-10T07:21:56Z</time></trkpt><trkpt lat="44.74346510000796" lon="7.849999064654657"><ele>375.8</ele><time>2026-04-10T07:21:58Z</time></trkpt><trkpt lat="44.74354503935413" lon="7.849941853034641"><ele>375.4</ele><time>2026-04-10T07:22:00Z</time></trkpt><trkpt lat="44.743645396631344" lon="7.849875205177219"><ele>375.0</ele><time>2026-04-10T07:22:02Z</time></trkpt><trkpt lat="44.743733321196856" lon="7.84979307271366"><ele>374.3333333333333</ele><time>2026-04-10T07:22:04Z</time></trkpt><trkpt lat="44.74380320924499" lon="7.849724071115164"><ele>373.6666666666667</ele><time>2026-04-10T07:22:06Z</time></trkpt><trkpt lat="44.74385665679139" lon="7.849635298849156"><ele>373.0</ele><time>2026-04-10T07:22:08Z</time></trkpt><trkpt lat="44.74390872188255" lon="7.849515017771608"><ele>372.33333333333337</ele><time>2026-04-10T07:22:10Z</time></trkpt><trkpt lat="44.743971633815896" lon="7.84942670931554"><ele>371.6666666666667</ele><time>2026-04-10T07:22:13Z</time></trkpt><trkpt lat="44.7440238749343" lon="7.849368490916424"><ele>371.0</ele><time>2026-04-10T07:22:16Z</time></trkpt><trkpt lat="44.744093999450705" lon="7.84931114420991"><ele>371.0</ele><time>2026-04-10T07:22:19Z</time></trkpt><trkpt lat="44.74416915811061" lon="7.849301579914301"><ele>371.0</ele><time>2026-04-10T07:22:22Z</time></trkpt><trkpt lat="44.7442623570231" lon="7.849288274340911"><ele>371.0</ele><time>2026-04-10T07:22:25Z</time></trkpt><trkpt lat="44.74432049769107" lon="7.849251035236078"><ele>371.0</ele><time>2026-04-10T07:22:26Z</time></trkpt><trkpt lat="44.744406975073524" lon="7.849143337163899"><ele>371.0</ele><time>2026-04-10T07:22:28Z</time></trkpt><trkpt lat="44.74446403946208" lon="7.849092397923388"><ele>371.0</ele><time>2026-04-10T07:22:30Z</time></trkpt><trkpt lat="44.74454403549752" lon="7.849064525733304"><ele>370.33333333333337</ele><time>2026-04-10T07:22:33Z</time></trkpt><trkpt lat="44.74463354855537" lon="7.849108286376599"><ele>369.6666666666667</ele><time>2026-04-10T07:22:36Z</time></trkpt><trkpt lat="44.744697810005185" lon="7.849135033704497"><ele>369.0</ele><time>2026-04-10T07:22:38Z</time></trkpt><trkpt lat="44.74479156083181" lon="7.849149536988882"><ele>368.3333333333333</ele><time>2026-04-10T07:22:41Z</time></trkpt><trkpt lat="44.744857473604405" lon="7.849129900896566"><ele>367.66666666666663</ele><time>2026-04-10T07:22:43Z</time></trkpt><trkpt lat="44.74493304264309" lon="7.849100235102094"><ele>367.0</ele><time>2026-04-10T07:22:46Z</time></trkpt><trkpt lat="44.74498417051341" lon="7.849041454557768"><ele>367.0</ele><time>2026-04-10T07:22:49Z</time></trkpt><trkpt lat="44.745032965146294" lon="7.848954957052451"><ele>367.0</ele><time>2026-04-10T07:22:52Z</time></trkpt><trkpt lat="44.7450843534253" lon="7.848888202852128"><ele>367.0</ele><time>2026-04-10T07:22:54Z</time></trkpt><trkpt lat="44.74514332478038" lon="7.848834223231865"><ele>367.0</ele><time>2026-04-10T07:22:57Z</time></trkpt><trkpt lat="44.745196332220246" lon="7.848776860933837"><ele>367.0</ele><time>2026-04-10T07:23:00Z</time></trkpt><trkpt lat="44.74527450958679" lon="7.8487132409002465"><ele>367.0</ele><time>2026-04-10T07:23:03Z</time></trkpt><trkpt lat="44.7453771012068" lon="7.848632571165149"><ele>366.5</ele><time>2026-04-10T07:23:05Z</time></trkpt><trkpt lat="44.745458364672274" lon="7.84854827351877"><ele>366.0</ele><time>2026-04-10T07:23:07Z</time></trkpt><trkpt lat="44.74556014671435" lon="7.848444507266977"><ele>365.5</ele><time>2026-04-10T07:23:09Z</time></trkpt><trkpt lat="44.7456169281828" lon="7.848399170550119"><ele>365.0</ele><time>2026-04-10T07:23:10Z</time></trkpt><trkpt lat="44.74568390071399" lon="7.848351853215725"><ele>364.5</ele><time>2026-04-10T07:23:11Z</time></trkpt><trkpt lat="44.745743929089976" lon="7.848305562047217"><ele>364.0</ele><time>2026-04-10T07:23:12Z</time></trkpt><trkpt lat="44.74580680575373" lon="7.848279587995944"><ele>364.0</ele><time>2026-04-10T07:23:13Z</time></trkpt><trkpt lat="44.7459040623983" lon="7.8482145620904635"><ele>364.0</ele><time>2026-04-10T07:23:15Z</time></trkpt><trkpt lat="44.7459978656627" lon="7.848127132470986"><ele>364.0</ele><time>2026-04-10T07:23:17Z</time></trkpt><trkpt lat="44.74607313567051" lon="7.848045597180164"><ele>364.0</ele><time>2026-04-10T07:23:19Z</time></trkpt><trkpt lat="44.746148415964306" lon="7.847996705975163"><ele>364.0</ele><time>2026-04-10T07:23:22Z</time></trkpt><trkpt lat="44.746222298768416" lon="7.847973257760538"><ele>363.4</ele><time>2026-04-10T07:23:24Z</time></trkpt><trkpt lat="44.746291357359794" lon="7.847951847692484"><ele>362.79999999999995</ele><time>2026-04-10T07:23:26Z</time></trkpt><trkpt lat="44.74637877157389" lon="7.847895358943251"><ele>362.20000000000005</ele><time>2026-04-10T07:23:28Z</time></trkpt><trkpt lat="44.74647484175366" lon="7.847823573893238"><ele>361.6</ele><time>2026-04-10T07:23:30Z</time></trkpt><trkpt lat="44.7465781301627" lon="7.847768250188474"><ele>361.0</ele><time>2026-04-10T07:23:32Z</time></trkpt><trkpt lat="44.746650301061" lon="7.847745331570506"><ele>361.0</ele><time>2026-04-10T07:23:33Z</time></trkpt><trkpt lat="44.746759909642655" lon="7.847723314809007"><ele>361.0</ele><time>2026-04-10T07:23:35Z</time></trkpt><trkpt lat="44.74682092049867" lon="7.847691199150746"><ele>361.0</ele><time>2026-04-10T07:23:38Z</time></trkpt><trkpt lat="44.74689599043858" lon="7.847654831303391"><ele>361.0</ele><time>2026-04-10T07:23:41Z</time></trkpt><trkpt lat="44.746854722389465" lon="7.847739134322183"><ele>361.0</ele><time>2026-04-10T07:23:48Z</time></trkpt><trkpt lat="44.74682476899833" lon="7.847825981483732"><ele>361.0</ele><time>2026-04-10T07:23:52Z</time></trkpt><trkpt lat="44.74677994758981" lon="7.847917485978428"><ele>361.0</ele><time>2026-04-10T07:23:56Z</time></trkpt><trkpt lat="44.7467165086798" lon="7.847988075205906"><ele>361.0</ele><time>2026-04-10T07:24:00Z</time></trkpt><trkpt lat="44.74666466622884" lon="7.848063694305071"><ele>361.0</ele><time>2026-04-10T07:24:04Z</time></trkpt><trkpt lat="44.74660104173949" lon="7.848131189781944"><ele>361.0</ele><time>2026-04-10T07:24:07Z</time></trkpt><trkpt lat="44.74654113586652" lon="7.848187970804076"><ele>361.0</ele><time>2026-04-10T07:24:10Z</time></trkpt><trkpt lat="44.746479917322844" lon="7.848271298399636"><ele>361.0</ele><time>2026-04-10T07:24:13Z</time></trkpt><trkpt lat="44.74642333386316" lon="7.8483453199123545"><ele>361.0</ele><time>2026-04-10T07:24:16Z</time></trkpt><trkpt lat="44.746362295061" lon="7.848385106963005"><ele>361.0</ele><time>2026-04-10T07:24:19Z</time></trkpt><trkpt lat="44.74631775976433" lon="7.848449686075429"><ele>361.0</ele><time>2026-04-10T07:24:22Z</time></trkpt><trkpt lat="44.746260129167744" lon="7.848518716722259"><ele>361.0</ele><time>2026-04-10T07:24:25Z</time></trkpt><trkpt lat="44.746195409178796" lon="7.848602437344527"><ele>361.0</ele><time>2026-04-10T07:24:28Z</time></trkpt><trkpt lat="44.74612391775102" lon="7.848654590085667"><ele>361.0</ele><time>2026-04-10T07:24:31Z</time></trkpt><trkpt lat="44.746062317930104" lon="7.8486820389666025"><ele>361.0</ele><time>2026-04-10T07:24:33Z</time></trkpt><trkpt lat="44.74598324337099" lon="7.848699398555791"><ele>361.3333333333333</ele><time>2026-04-10T07:24:36Z</time></trkpt><trkpt lat="44.74591693942476" lon="7.8487568856783625"><ele>361.66666666666663</ele><time>2026-04-10T07:24:41Z</time></trkpt><trkpt lat="44.745843099508825" lon="7.848840400537372"><ele>362.0</ele><time>2026-04-10T07:24:45Z</time></trkpt><trkpt lat="44.74580007597741" lon="7.848905353869829"><ele>362.3333333333333</ele><time>2026-04-10T07:24:47Z</time></trkpt><trkpt lat="44.74574428165457" lon="7.848975796879432"><ele>362.6666666666667</ele><time>2026-04-10T07:24:50Z</time></trkpt><trkpt lat="44.74568532974322" lon="7.849062674405788"><ele>363.0</ele><time>2026-04-10T07:24:53Z</time></trkpt><trkpt lat="44.74563535358059" lon="7.8491462081799765"><ele>362.99999999999994</ele><time>2026-04-10T07:24:57Z</time></trkpt><trkpt lat="44.74556464678238" lon="7.849215965906136"><ele>363.0</ele><time>2026-04-10T07:25:00Z</time></trkpt><trkpt lat="44.74550191368158" lon="7.849257315510512"><ele>363.0</ele><time>2026-04-10T07:25:02Z</time></trkpt><trkpt lat="44.74544443616344" lon="7.84930137007992"><ele>363.0</ele><time>2026-04-10T07:25:04Z</time></trkpt><trkpt lat="44.74538137844286" lon="7.849370872148392"><ele>363.0</ele><time>2026-04-10T07:25:07Z</time></trkpt><trkpt lat="44.745339902210404" lon="7.849437940100573"><ele>362.99999999999994</ele><time>2026-04-10T07:25:10Z</time></trkpt><trkpt lat="44.74527701199878" lon="7.849496894381653"><ele>363.0</ele><time>2026-04-10T07:25:14Z</time></trkpt><trkpt lat="44.74520890418388" lon="7.84956418697268"><ele>363.6666666666667</ele><time>2026-04-10T07:25:19Z</time></trkpt><trkpt lat="44.74514730037293" lon="7.849605955610197"><ele>364.3333333333333</ele><time>2026-04-10T07:25:22Z</time></trkpt><trkpt lat="44.745074317319286" lon="7.849668763874316"><ele>365.0</ele><time>2026-04-10T07:25:26Z</time></trkpt><trkpt lat="44.744997053551735" lon="7.849697749633595"><ele>365.66666666666663</ele><time>2026-04-10T07:25:29Z</time></trkpt><trkpt lat="44.74494948730723" lon="7.849786054268425"><ele>366.3333333333333</ele><time>2026-04-10T07:25:32Z</time></trkpt><trkpt lat="44.744916636530085" lon="7.849866067978304"><ele>367.0</ele><time>2026-04-10T07:25:35Z</time></trkpt><trkpt lat="44.744862481158606" lon="7.849950480389274"><ele>367.0</ele><time>2026-04-10T07:25:39Z</time></trkpt><trkpt lat="44.7448039870681" lon="7.850015213919288"><ele>367.0</ele><time>2026-04-10T07:25:42Z</time></trkpt><trkpt lat="44.74473916444095" lon="7.850111026826743"><ele>367.0</ele><time>2026-04-10T07:25:45Z</time></trkpt><trkpt lat="44.74467922208042" lon="7.850198197025051"><ele>367.0</ele><time>2026-04-10T07:25:48Z</time></trkpt><trkpt lat="44.74462261666881" lon="7.850279143269312"><ele>367.0</ele><time>2026-04-10T07:25:51Z</time></trkpt><trkpt lat="44.74457487493748" lon="7.850336940142176"><ele>367.0</ele><time>2026-04-10T07:25:53Z</time></trkpt><trkpt lat="44.744511758259435" lon="7.850403934746916"><ele>367.3333333333333</ele><time>2026-04-10T07:25:56Z</time></trkpt><trkpt lat="44.74446478448975" lon="7.850487821472203"><ele>367.66666666666663</ele><time>2026-04-10T07:25:59.001Z</time></trkpt><trkpt lat="44.744416483570376" lon="7.8506033693860315"><ele>368.0</ele><time>2026-04-10T07:26:02.001Z</time></trkpt><trkpt lat="44.74436735883208" lon="7.850700915565765"><ele>368.3333333333333</ele><time>2026-04-10T07:26:05.001Z</time></trkpt><trkpt lat="44.74433695264558" lon="7.8508082318067585"><ele>368.6666666666667</ele><time>2026-04-10T07:26:08.001Z</time></trkpt><trkpt lat="44.74429199496532" lon="7.850870308975737"><ele>369.0</ele><time>2026-04-10T07:26:11.001Z</time></trkpt><trkpt lat="44.744263235385354" lon="7.850982149830748"><ele>369.8333333333333</ele><time>2026-04-10T07:26:15.001Z</time></trkpt><trkpt lat="44.74421896857434" lon="7.8510543599861204"><ele>370.6666666666667</ele><time>2026-04-10T07:26:18.001Z</time></trkpt><trkpt lat="44.74416859699718" lon="7.851152939039416"><ele>371.5</ele><time>2026-04-10T07:26:21Z</time></trkpt><trkpt lat="44.744140393091946" lon="7.851262046667349"><ele>372.33333333333337</ele><time>2026-04-10T07:26:24Z</time></trkpt><trkpt lat="44.744106403032895" lon="7.8513659967264084"><ele>373.1666666666667</ele><time>2026-04-10T07:26:27Z</time></trkpt><trkpt lat="44.74406280986284" lon="7.851465426916532"><ele>374.0</ele><time>2026-04-10T07:26:30Z</time></trkpt><trkpt lat="44.744024944766274" lon="7.851569081806251"><ele>374.0</ele><time>2026-04-10T07:26:33Z</time></trkpt><trkpt lat="44.743993752891974" lon="7.851666417455453"><ele>374.0</ele><time>2026-04-10T07:26:35Z</time></trkpt><trkpt lat="44.74397183899257" lon="7.851770749462664"><ele>374.0</ele><time>2026-04-10T07:26:37Z</time></trkpt><trkpt lat="44.743932912026324" lon="7.851890390523653"><ele>374.0</ele><time>2026-04-10T07:26:40Z</time></trkpt><trkpt lat="44.74389694551448" lon="7.851975375930006"><ele>374.0</ele><time>2026-04-10T07:26:43Z</time></trkpt><trkpt lat="44.74386274786333" lon="7.852077253659757"><ele>374.0</ele><time>2026-04-10T07:26:46Z</time></trkpt><trkpt lat="44.743810538668576" lon="7.852137927687053"><ele>374.1428571428571</ele><time>2026-04-10T07:26:49Z</time></trkpt><trkpt lat="44.743750089870595" lon="7.852180294107744"><ele>374.28571428571433</ele><time>2026-04-10T07:26:52Z</time></trkpt><trkpt lat="44.74369810061191" lon="7.852232023962916"><ele>374.42857142857144</ele><time>2026-04-10T07:26:54Z</time></trkpt><trkpt lat="44.74364576149204" lon="7.8523125069402475"><ele>374.57142857142856</ele><time>2026-04-10T07:26:57Z</time></trkpt><trkpt lat="44.74361115280164" lon="7.852396544931163"><ele>374.71428571428567</ele><time>2026-04-10T07:26:59Z</time></trkpt><trkpt lat="44.74357975002614" lon="7.852488539667166"><ele>374.8571428571429</ele><time>2026-04-10T07:27:02Z</time></trkpt><trkpt lat="44.743550657238096" lon="7.852568200870225"><ele>375.0</ele><time>2026-04-10T07:27:05Z</time></trkpt><trkpt lat="44.743500974489116" lon="7.852648689875744"><ele>375.2857142857143</ele><time>2026-04-10T07:27:09Z</time></trkpt><trkpt lat="44.743462669132676" lon="7.8527197771802735"><ele>375.57142857142856</ele><time>2026-04-10T07:27:13Z</time></trkpt><trkpt lat="44.74342445877698" lon="7.852806526593459"><ele>375.85714285714283</ele><time>2026-04-10T07:27:17Z</time></trkpt><trkpt lat="44.743398681654" lon="7.852888719765132"><ele>376.1428571428571</ele><time>2026-04-10T07:27:20Z</time></trkpt><trkpt lat="44.7433468555955" lon="7.852965601872372"><ele>376.42857142857144</ele><time>2026-04-10T07:27:24Z</time></trkpt><trkpt lat="44.74329090210547" lon="7.853013755428941"><ele>376.71428571428567</ele><time>2026-04-10T07:27:28Z</time></trkpt><trkpt lat="44.74322739790741" lon="7.853048628682024"><ele>377.0</ele><time>2026-04-10T07:27:33Z</time></trkpt><trkpt lat="44.74315982422523" lon="7.853055484552087"><ele>376.99999999999994</ele><time>2026-04-10T07:27:36Z</time></trkpt><trkpt lat="44.743080663678136" lon="7.853051835560939"><ele>377.0</ele><time>2026-04-10T07:27:39Z</time></trkpt><trkpt lat="44.743047045669854" lon="7.853132971181134"><ele>377.0</ele><time>2026-04-10T07:27:45Z</time></trkpt><trkpt lat="44.74298084836904" lon="7.853096292005104"><ele>377.0</ele><time>2026-04-10T07:27:52Z</time></trkpt><trkpt lat="44.74290471650353" lon="7.853083123455799"><ele>377.0</ele><time>2026-04-10T07:27:59Z</time></trkpt><trkpt lat="44.74286060150431" lon="7.853149769171895"><ele>376.99999999999994</ele><time>2026-04-10T07:28:06Z</time></trkpt><trkpt lat="44.74279195789699" lon="7.853160403559421"><ele>377.0</ele><time>2026-04-10T07:28:12Z</time></trkpt><trkpt lat="44.74272662307101" lon="7.853122662104349"><ele>377.1428571428571</ele><time>2026-04-10T07:28:21Z</time></trkpt><trkpt lat="44.74267981536636" lon="7.853057623268973"><ele>377.2857142857143</ele><time>2026-04-10T07:28:26Z</time></trkpt><trkpt lat="44.74263125154909" lon="7.852998942216924"><ele>377.42857142857144</ele><time>2026-04-10T07:28:31Z</time></trkpt><trkpt lat="44.742540472912594" lon="7.852995290004672"><ele>377.57142857142856</ele><time>2026-04-10T07:28:35Z</time></trkpt><trkpt lat="44.742474858092955" lon="7.853002373473937"><ele>377.7142857142857</ele><time>2026-04-10T07:28:37Z</time></trkpt><trkpt lat="44.7424027964078" lon="7.853000065107119"><ele>377.85714285714283</ele><time>2026-04-10T07:28:39Z</time></trkpt><trkpt lat="44.742329664318135" lon="7.853003512741151"><ele>378.0</ele><time>2026-04-10T07:28:42Z</time></trkpt><trkpt lat="44.7422505431831" lon="7.852974416344228"><ele>378.0</ele><time>2026-04-10T07:28:45Z</time></trkpt><trkpt lat="44.74217344793345" lon="7.852976038675688"><ele>378.0</ele><time>2026-04-10T07:28:48Z</time></trkpt><trkpt lat="44.742097848632895" lon="7.852942764623303"><ele>378.0</ele><time>2026-04-10T07:28:51Z</time></trkpt><trkpt lat="44.74202393337459" lon="7.852922661443284"><ele>378.0</ele><time>2026-04-10T07:28:54Z</time></trkpt><trkpt lat="44.741943037859684" lon="7.852931354816964"><ele>378.0</ele><time>2026-04-10T07:28:57Z</time></trkpt><trkpt lat="44.7418684522335" lon="7.8529130572071155"><ele>378.0</ele><time>2026-04-10T07:29:00Z</time></trkpt><trkpt lat="44.74181809052528" lon="7.852976283306797"><ele>378.57142857142856</ele><time>2026-04-10T07:29:04Z</time></trkpt><trkpt lat="44.741765089602886" lon="7.85303492342299"><ele>379.1428571428571</ele><time>2026-04-10T07:29:07Z</time></trkpt><trkpt lat="44.741703350770706" lon="7.85309900693196"><ele>379.7142857142857</ele><time>2026-04-10T07:29:13Z</time></trkpt><trkpt lat="44.74165998340563" lon="7.853198962371639"><ele>380.2857142857143</ele><time>2026-04-10T07:29:17Z</time></trkpt><trkpt lat="44.741608231572755" lon="7.853253334811075"><ele>380.85714285714283</ele><time>2026-04-10T07:29:22Z</time></trkpt><trkpt lat="44.741545352393324" lon="7.853292617731869"><ele>381.42857142857144</ele><time>2026-04-10T07:29:26Z</time></trkpt><trkpt lat="44.74149882819378" lon="7.853379957481604"><ele>382.0</ele><time>2026-04-10T07:29:30Z</time></trkpt><trkpt lat="44.74147317189659" lon="7.853469960080632"><ele>382.0</ele><time>2026-04-10T07:29:33Z</time></trkpt><trkpt lat="44.74143923298807" lon="7.853550541294045"><ele>382.0</ele><time>2026-04-10T07:29:38Z</time></trkpt><trkpt lat="44.74141966288062" lon="7.853645563511002"><ele>382.0</ele><time>2026-04-10T07:29:44Z</time></trkpt><trkpt lat="44.741419762263305" lon="7.8537481886796146"><ele>382.0</ele><time>2026-04-10T07:29:50Z</time></trkpt><trkpt lat="44.74142237819848" lon="7.853849815357106"><ele>382.0</ele><time>2026-04-10T07:29:57Z</time></trkpt><trkpt lat="44.74138260909311" lon="7.853930015949046"><ele>382.0</ele><time>2026-04-10T07:30:04Z</time></trkpt><trkpt lat="44.74131337313804" lon="7.853951257655713"><ele>382.0</ele><time>2026-04-10T07:30:08Z</time></trkpt><trkpt lat="44.74124717783305" lon="7.853996372151566"><ele>382.0</ele><time>2026-04-10T07:30:12Z</time></trkpt><trkpt lat="44.74117246682657" lon="7.854032056135094"><ele>382.0</ele><time>2026-04-10T07:30:17Z</time></trkpt><trkpt lat="44.741101904862795" lon="7.85406398460059"><ele>382.0</ele><time>2026-04-10T07:30:22Z</time></trkpt><trkpt lat="44.741034270871474" lon="7.854055777766265"><ele>382.0</ele><time>2026-04-10T07:30:29Z</time></trkpt><trkpt lat="44.74097122261223" lon="7.854060580687324"><ele>382.0</ele><time>2026-04-10T07:30:35Z</time></trkpt><trkpt lat="44.740908247350156" lon="7.854107191524432"><ele>382.0</ele><time>2026-04-10T07:30:42Z</time></trkpt><trkpt lat="44.74084566544563" lon="7.854155787234364"><ele>382.0</ele><time>2026-04-10T07:30:46Z</time></trkpt><trkpt lat="44.74076715934985" lon="7.8541824467910075"><ele>382.66666666666663</ele><time>2026-04-10T07:30:52Z</time></trkpt><trkpt lat="44.74070616582645" lon="7.854205220873322"><ele>383.3333333333333</ele><time>2026-04-10T07:30:56Z</time></trkpt><trkpt lat="44.740630273183044" lon="7.854281407285752"><ele>384.0</ele><time>2026-04-10T07:31:00Z</time></trkpt><trkpt lat="44.74056763615141" lon="7.854312172902597"><ele>384.66666666666663</ele><time>2026-04-10T07:31:03Z</time></trkpt><trkpt lat="44.740491606713306" lon="7.854330928295721"><ele>385.3333333333333</ele><time>2026-04-10T07:31:06Z</time></trkpt><trkpt lat="44.74040436053527" lon="7.854349092945126"><ele>386.0</ele><time>2026-04-10T07:31:09Z</time></trkpt><trkpt lat="44.740325035574685" lon="7.854366652356166"><ele>386.42857142857144</ele><time>2026-04-10T07:31:12Z</time></trkpt><trkpt lat="44.74025248230036" lon="7.854363906158977"><ele>386.8571428571429</ele><time>2026-04-10T07:31:16Z</time></trkpt><trkpt lat="44.74018651541128" lon="7.854361022027566"><ele>387.28571428571433</ele><time>2026-04-10T07:31:19Z</time></trkpt><trkpt lat="44.74011806289805" lon="7.854348922959685"><ele>387.7142857142857</ele><time>2026-04-10T07:31:23Z</time></trkpt><trkpt lat="44.74003503058293" lon="7.854377376769864"><ele>388.1428571428571</ele><time>2026-04-10T07:31:27Z</time></trkpt><trkpt lat="44.739984360525305" lon="7.85443577302107"><ele>388.5714285714286</ele><time>2026-04-10T07:31:29Z</time></trkpt><trkpt lat="44.73993808094846" lon="7.854518164570234"><ele>389.0</ele><time>2026-04-10T07:31:31Z</time></trkpt><trkpt lat="44.73989342059856" lon="7.854593650360215"><ele>388.99999999999994</ele><time>2026-04-10T07:31:33Z</time></trkpt><trkpt lat="44.739836444322904" lon="7.8546729035458345"><ele>389.0</ele><time>2026-04-10T07:31:36Z</time></trkpt><trkpt lat="44.73977546714569" lon="7.854753429224321"><ele>389.0</ele><time>2026-04-10T07:31:39Z</time></trkpt><trkpt lat="44.73972115054253" lon="7.854812244981539"><ele>389.0</ele><time>2026-04-10T07:31:41Z</time></trkpt><trkpt lat="44.73964806734964" lon="7.854866398490356"><ele>388.99999999999994</ele><time>2026-04-10T07:31:44Z</time></trkpt><trkpt lat="44.73958136195629" lon="7.854927590128647"><ele>389.0</ele><time>2026-04-10T07:31:46Z</time></trkpt><trkpt lat="44.73952862787138" lon="7.855006741232293"><ele>389.0</ele><time>2026-04-10T07:31:47Z</time></trkpt><trkpt lat="44.73949257606713" lon="7.855095502278482"><ele>389.0</ele><time>2026-04-10T07:31:48Z</time></trkpt><trkpt lat="44.73947132468133" lon="7.85519101406219"><ele>389.0</ele><time>2026-04-10T07:31:50Z</time></trkpt><trkpt lat="44.739426465134336" lon="7.855255139874253"><ele>389.0</ele><time>2026-04-10T07:31:54Z</time></trkpt><trkpt lat="44.73936066669404" lon="7.855275618773375"><ele>389.0</ele><time>2026-04-10T07:31:56Z</time></trkpt><trkpt lat="44.7393245045192" lon="7.855355016427772"><ele>389.0</ele><time>2026-04-10T07:31:58Z</time></trkpt><trkpt lat="44.73930321076423" lon="7.855456163766257"><ele>389.0</ele><time>2026-04-10T07:32:00Z</time></trkpt><trkpt lat="44.73932659284263" lon="7.855576564729847"><ele>388.66666666666663</ele><time>2026-04-10T07:32:04Z</time></trkpt><trkpt lat="44.73936377223918" lon="7.855648982685244"><ele>388.3333333333333</ele><time>2026-04-10T07:32:06Z</time></trkpt><trkpt lat="44.7394373839241" lon="7.855728717644092"><ele>388.0</ele><time>2026-04-10T07:32:09Z</time></trkpt><trkpt lat="44.7394965144354" lon="7.855845206921971"><ele>387.66666666666663</ele><time>2026-04-10T07:32:12Z</time></trkpt><trkpt lat="44.73955864452633" lon="7.8558980650567065"><ele>387.3333333333333</ele><time>2026-04-10T07:32:15Z</time></trkpt><trkpt lat="44.73961814840544" lon="7.855993793447524"><ele>387.0</ele><time>2026-04-10T07:32:19Z</time></trkpt><trkpt lat="44.73967629408704" lon="7.856079814583762"><ele>385.1666666666667</ele><time>2026-04-10T07:32:21Z</time></trkpt><trkpt lat="44.73973183105904" lon="7.856161998833133"><ele>383.3333333333333</ele><time>2026-04-10T07:32:23Z</time></trkpt><trkpt lat="44.73977232653885" lon="7.856246709285345"><ele>381.5</ele><time>2026-04-10T07:32:25Z</time></trkpt><trkpt lat="44.73976813039643" lon="7.856354627429801"><ele>379.66666666666663</ele><time>2026-04-10T07:32:27Z</time></trkpt><trkpt lat="44.7397805307167" lon="7.85647960454424"><ele>377.8333333333333</ele><time>2026-04-10T07:32:29Z</time></trkpt><trkpt lat="44.739804798264" lon="7.856606278509627"><ele>376.0</ele><time>2026-04-10T07:32:31Z</time></trkpt><trkpt lat="44.739825939281474" lon="7.856694040256762"><ele>376.0</ele><time>2026-04-10T07:32:33Z</time></trkpt><trkpt lat="44.74001512604992" lon="7.856742823097906"><ele>376.0</ele><time>2026-04-10T07:32:43Z</time></trkpt><trkpt lat="44.74019693263708" lon="7.856756508132945"><ele>376.0</ele><time>2026-04-10T07:32:51Z</time></trkpt><trkpt lat="44.74026253885455" lon="7.856754761911114"><ele>376.0</ele><time>2026-04-10T07:32:53Z</time></trkpt><trkpt lat="44.74035563146684" lon="7.856712467126532"><ele>375.57142857142856</ele><time>2026-04-10T07:32:56Z</time></trkpt><trkpt lat="44.74042673864544" lon="7.856699751891139"><ele>375.1428571428571</ele><time>2026-04-10T07:32:58Z</time></trkpt><trkpt lat="44.740495746892975" lon="7.856700196824439"><ele>374.7142857142857</ele><time>2026-04-10T07:33:01Z</time></trkpt><trkpt lat="44.740571902137354" lon="7.856706975767738"><ele>374.2857142857143</ele><time>2026-04-10T07:33:05Z</time></trkpt><trkpt lat="44.740639959835775" lon="7.856711010065364"><ele>373.8571428571429</ele><time>2026-04-10T07:33:08Z</time></trkpt><trkpt lat="44.74071692779375" lon="7.8566837279592"><ele>373.42857142857144</ele><time>2026-04-10T07:33:10Z</time></trkpt><trkpt lat="44.74079585749433" lon="7.856666447526903"><ele>373.0</ele><time>2026-04-10T07:33:13Z</time></trkpt><trkpt lat="44.74087114675464" lon="7.8566784824218505"><ele>373.0</ele><time>2026-04-10T07:33:17Z</time></trkpt><trkpt lat="44.74093460076531" lon="7.856683827465048"><ele>373.0</ele><time>2026-04-10T07:33:20Z</time></trkpt><trkpt lat="44.74099973060591" lon="7.85673788829019"><ele>373.0</ele><time>2026-04-10T07:33:23Z</time></trkpt><trkpt lat="44.74104158423983" lon="7.85681640334359"><ele>373.0</ele><time>2026-04-10T07:33:25Z</time></trkpt><trkpt lat="44.74111325842043" lon="7.856932720999672"><ele>373.0</ele><time>2026-04-10T07:33:27Z</time></trkpt><trkpt lat="44.74117519030437" lon="7.856991496974695"><ele>373.0</ele><time>2026-04-10T07:33:28Z</time></trkpt><trkpt lat="44.74123735302677" lon="7.857028915038286"><ele>373.59999999999997</ele><time>2026-04-10T07:33:29Z</time></trkpt><trkpt lat="44.74133160503862" lon="7.857125813092607"><ele>374.2</ele><time>2026-04-10T07:33:31Z</time></trkpt><trkpt lat="44.74137548157491" lon="7.857189956167034"><ele>374.8</ele><time>2026-04-10T07:33:32Z</time></trkpt><trkpt lat="44.741471813044285" lon="7.857315648069874"><ele>375.4</ele><time>2026-04-10T07:33:34Z</time></trkpt><trkpt lat="44.741543526469044" lon="7.857418381093771"><ele>376.0</ele><time>2026-04-10T07:33:35Z</time></trkpt><trkpt lat="44.74162200398316" lon="7.85751936295769"><ele>376.0</ele><time>2026-04-10T07:33:36Z</time></trkpt><trkpt lat="44.74167598227752" lon="7.857603599871259"><ele>376.0</ele><time>2026-04-10T07:33:37Z</time></trkpt><trkpt lat="44.741739028662174" lon="7.857671412457333"><ele>376.0</ele><time>2026-04-10T07:33:38Z</time></trkpt><trkpt lat="44.74180016333906" lon="7.857721281025481"><ele>376.0</ele><time>2026-04-10T07:33:39Z</time></trkpt><trkpt lat="44.7418989695469" lon="7.857842238733829"><ele>376.0</ele><time>2026-04-10T07:33:41Z</time></trkpt><trkpt lat="44.741947106933445" lon="7.857918141544974"><ele>376.0</ele><time>2026-04-10T07:33:42Z</time></trkpt><trkpt lat="44.742010422314834" lon="7.858003682101824"><ele>374.16666666666663</ele><time>2026-04-10T07:33:43Z</time></trkpt><trkpt lat="44.74210452243496" lon="7.858117098654218"><ele>372.3333333333333</ele><time>2026-04-10T07:33:44Z</time></trkpt><trkpt lat="44.74216838339926" lon="7.858186771068989"><ele>370.5</ele><time>2026-04-10T07:33:45Z</time></trkpt><trkpt lat="44.742242668077814" lon="7.85824693099894"><ele>368.6666666666667</ele><time>2026-04-10T07:33:46Z</time></trkpt><trkpt lat="44.74230152835521" lon="7.858287325699396"><ele>366.83333333333337</ele><time>2026-04-10T07:33:47Z</time></trkpt><trkpt lat="44.742374608129126" lon="7.858344486021562"><ele>365.0</ele><time>2026-04-10T07:33:49Z</time></trkpt><trkpt lat="44.742455636424175" lon="7.858382884537166"><ele>364.8</ele><time>2026-04-10T07:33:51Z</time></trkpt><trkpt lat="44.74252952194284" lon="7.858473835617818"><ele>364.6</ele><time>2026-04-10T07:33:53Z</time></trkpt><trkpt lat="44.742588363562255" lon="7.8585806370448115"><ele>364.4</ele><time>2026-04-10T07:33:55Z</time></trkpt><trkpt lat="44.74264851546476" lon="7.858693354345848"><ele>364.2</ele><time>2026-04-10T07:33:57Z</time></trkpt><trkpt lat="44.7427368481688" lon="7.85873009752407"><ele>364.0</ele><time>2026-04-10T07:33:59Z</time></trkpt><trkpt lat="44.74285085112529" lon="7.8587463222658895"><ele>363.2</ele><time>2026-04-10T07:34:01Z</time></trkpt><trkpt lat="44.7429570087114" lon="7.858761753761964"><ele>362.4</ele><time>2026-04-10T07:34:03Z</time></trkpt><trkpt lat="44.743096866547724" lon="7.858800296927451"><ele>361.6</ele><time>2026-04-10T07:34:05Z</time></trkpt><trkpt lat="44.74319660550698" lon="7.85885461393965"><ele>360.8</ele><time>2026-04-10T07:34:07Z</time></trkpt><trkpt lat="44.74328544606472" lon="7.858891131820407"><ele>360.0</ele><time>2026-04-10T07:34:09Z</time></trkpt><trkpt lat="44.7433866317858" lon="7.858933094154804"><ele>360.0</ele><time>2026-04-10T07:34:11Z</time></trkpt><trkpt lat="44.743491932135754" lon="7.859010699900728"><ele>360.0</ele><time>2026-04-10T07:34:13Z</time></trkpt><trkpt lat="44.743587728439365" lon="7.859088971788755"><ele>360.0</ele><time>2026-04-10T07:34:15Z</time></trkpt><trkpt lat="44.743700921094614" lon="7.8591772150876125"><ele>360.0</ele><time>2026-04-10T07:34:17Z</time></trkpt><trkpt lat="44.74380252274123" lon="7.8592627678189375"><ele>359.25</ele><time>2026-04-10T07:34:19Z</time></trkpt><trkpt lat="44.743893763469714" lon="7.859337819053451"><ele>358.5</ele><time>2026-04-10T07:34:21Z</time></trkpt><trkpt lat="44.744033143122756" lon="7.859426008423025"><ele>357.75</ele><time>2026-04-10T07:34:23Z</time></trkpt><trkpt lat="44.74409958518034" lon="7.859464548103495"><ele>357.0</ele><time>2026-04-10T07:34:24Z</time></trkpt><trkpt lat="44.74420280706044" lon="7.859556386130615"><ele>357.0</ele><time>2026-04-10T07:34:26Z</time></trkpt><trkpt lat="44.744262656352014" lon="7.859633624806713"><ele>357.0</ele><time>2026-04-10T07:34:29Z</time></trkpt><trkpt lat="44.74432972306178" lon="7.859694020214433"><ele>357.0</ele><time>2026-04-10T07:34:33Z</time></trkpt><trkpt lat="44.744389973073844" lon="7.85977391293449"><ele>357.0</ele><time>2026-04-10T07:34:36Z</time></trkpt><trkpt lat="44.744440601783054" lon="7.85985025801237"><ele>357.0</ele><time>2026-04-10T07:34:38Z</time></trkpt><trkpt lat="44.74448641528169" lon="7.859940104493383"><ele>357.0</ele><time>2026-04-10T07:34:40Z</time></trkpt><trkpt lat="44.7445355340557" lon="7.860055503156929"><ele>356.3333333333333</ele><time>2026-04-10T07:34:42Z</time></trkpt><trkpt lat="44.744581343152646" lon="7.860148476116015"><ele>355.6666666666667</ele><time>2026-04-10T07:34:44Z</time></trkpt><trkpt lat="44.74463256100137" lon="7.86022420517727"><ele>355.0</ele><time>2026-04-10T07:34:46Z</time></trkpt><trkpt lat="44.744683780831416" lon="7.860317775077456"><ele>354.33333333333337</ele><time>2026-04-10T07:34:48Z</time></trkpt><trkpt lat="44.74473101703587" lon="7.860394828643885"><ele>353.6666666666667</ele><time>2026-04-10T07:34:50Z</time></trkpt><trkpt lat="44.74479711010287" lon="7.860312650930687"><ele>353.0</ele><time>2026-04-10T07:34:57Z</time></trkpt><trkpt lat="44.74484497512458" lon="7.860227813720645"><ele>353.0</ele><time>2026-04-10T07:34:59Z</time></trkpt><trkpt lat="44.744898534273105" lon="7.860130532181681"><ele>353.0</ele><time>2026-04-10T07:35:01Z</time></trkpt><trkpt lat="44.74494528028497" lon="7.860066508095878"><ele>353.0</ele><time>2026-04-10T07:35:03Z</time></trkpt><trkpt lat="44.74500735092212" lon="7.8599761076177135"><ele>353.0</ele><time>2026-04-10T07:35:05Z</time></trkpt><trkpt lat="44.74506682133062" lon="7.859882051236121"><ele>353.0</ele><time>2026-04-10T07:35:07Z</time></trkpt><trkpt lat="44.74513847537842" lon="7.859788268201746"><ele>353.0</ele><time>2026-04-10T07:35:09Z</time></trkpt><trkpt lat="44.74520469943804" lon="7.859704484654072"><ele>353.2</ele><time>2026-04-10T07:35:11Z</time></trkpt><trkpt lat="44.745276037967656" lon="7.85959642440262"><ele>353.4</ele><time>2026-04-10T07:35:13Z</time></trkpt><trkpt lat="44.745350039806155" lon="7.859521877669453"><ele>353.59999999999997</ele><time>2026-04-10T07:35:15Z</time></trkpt><trkpt lat="44.74541351984991" lon="7.859446209632173"><ele>353.79999999999995</ele><time>2026-04-10T07:35:17Z</time></trkpt><trkpt lat="44.74547947863308" lon="7.85935364817887"><ele>354.0</ele><time>2026-04-10T07:35:19Z</time></trkpt><trkpt lat="44.7455686434295" lon="7.859229438092448"><ele>354.2</ele><time>2026-04-10T07:35:21Z</time></trkpt><trkpt lat="44.745645899897255" lon="7.859178100231485"><ele>354.4</ele><time>2026-04-10T07:35:22Z</time></trkpt><trkpt lat="44.7457359438443" lon="7.859068999440497"><ele>354.6</ele><time>2026-04-10T07:35:24Z</time></trkpt><trkpt lat="44.74578847738686" lon="7.859013455800184"><ele>354.8</ele><time>2026-04-10T07:35:25Z</time></trkpt><trkpt lat="44.745869494656006" lon="7.858912834083335"><ele>355.0</ele><time>2026-04-10T07:35:27Z</time></trkpt><trkpt lat="44.745913787363776" lon="7.858822923532188"><ele>355.0</ele><time>2026-04-10T07:35:29Z</time></trkpt><trkpt lat="44.7459646067051" lon="7.858717008785903"><ele>355.0</ele><time>2026-04-10T07:35:31Z</time></trkpt><trkpt lat="44.74600994106991" lon="7.858642515309967"><ele>355.0</ele><time>2026-04-10T07:35:33Z</time></trkpt><trkpt lat="44.74606957599367" lon="7.858575138323522"><ele>355.0</ele><time>2026-04-10T07:35:35Z</time></trkpt><trkpt lat="44.746125301887304" lon="7.858486058700823"><ele>355.0</ele><time>2026-04-10T07:35:37Z</time></trkpt><trkpt lat="44.746172046339915" lon="7.858391985365621"><ele>355.0</ele><time>2026-04-10T07:35:39Z</time></trkpt><trkpt lat="44.746245505004836" lon="7.858276712944394"><ele>354.2</ele><time>2026-04-10T07:35:41Z</time></trkpt><trkpt lat="44.7462949553509" lon="7.858138549707939"><ele>353.4</ele><time>2026-04-10T07:35:43Z</time></trkpt><trkpt lat="44.74634653556297" lon="7.858009002398793"><ele>352.6</ele><time>2026-04-10T07:35:45Z</time></trkpt><trkpt lat="44.746401015141615" lon="7.85790246478277"><ele>351.8</ele><time>2026-04-10T07:35:47Z</time></trkpt><trkpt lat="44.74643185740418" lon="7.857801011680665"><ele>351.0</ele><time>2026-04-10T07:35:49Z</time></trkpt><trkpt lat="44.74645971539119" lon="7.85770003397519"><ele>351.0</ele><time>2026-04-10T07:35:51Z</time></trkpt><trkpt lat="44.746502554113384" lon="7.857573087569506"><ele>351.0</ele><time>2026-04-10T07:35:53Z</time></trkpt><trkpt lat="44.74653947791886" lon="7.857475600789214"><ele>351.0</ele><time>2026-04-10T07:35:55Z</time></trkpt><trkpt lat="44.746579973827906" lon="7.857389389471724"><ele>351.0</ele><time>2026-04-10T07:35:57Z</time></trkpt><trkpt lat="44.74663336004331" lon="7.857287586662326"><ele>351.0</ele><time>2026-04-10T07:35:59Z</time></trkpt><trkpt lat="44.74670375768238" lon="7.857195265817956"><ele>351.0</ele><time>2026-04-10T07:36:01Z</time></trkpt><trkpt lat="44.74679360839677" lon="7.8570887631926265"><ele>351.0</ele><time>2026-04-10T07:36:03Z</time></trkpt><trkpt lat="44.74685883760843" lon="7.8569941584452465"><ele>351.0</ele><time>2026-04-10T07:36:05Z</time></trkpt><trkpt lat="44.74693411761564" lon="7.856895175400808"><ele>351.0</ele><time>2026-04-10T07:36:07Z</time></trkpt><trkpt lat="44.747018425421665" lon="7.8567920759428445"><ele>351.0</ele><time>2026-04-10T07:36:09Z</time></trkpt><trkpt lat="44.74710428036943" lon="7.8566815044603935"><ele>351.0</ele><time>2026-04-10T07:36:11Z</time></trkpt><trkpt lat="44.74720299567534" lon="7.85659856488974"><ele>350.6</ele><time>2026-04-10T07:36:13Z</time></trkpt><trkpt lat="44.7473019524268" lon="7.856504003791953"><ele>350.20000000000005</ele><time>2026-04-10T07:36:15Z</time></trkpt><trkpt lat="44.747357161925535" lon="7.8564572210325485"><ele>349.79999999999995</ele><time>2026-04-10T07:36:16Z</time></trkpt><trkpt lat="44.74743750425879" lon="7.85633208113802"><ele>349.4</ele><time>2026-04-10T07:36:18Z</time></trkpt><trkpt lat="44.74751110823348" lon="7.856181990432375"><ele>349.0</ele><time>2026-04-10T07:36:20Z</time></trkpt><trkpt lat="44.74755826916857" lon="7.856100002592995"><ele>349.0</ele><time>2026-04-10T07:36:20.999Z</time></trkpt><trkpt lat="44.74760805084599" lon="7.856024044738462"><ele>349.0</ele><time>2026-04-10T07:36:21.999Z</time></trkpt><trkpt lat="44.74765330606978" lon="7.855950990714753"><ele>349.0</ele><time>2026-04-10T07:36:22.999Z</time></trkpt><trkpt lat="44.74773840472743" lon="7.855852311730531"><ele>349.0</ele><time>2026-04-10T07:36:24.999Z</time></trkpt><trkpt lat="44.74780037076329" lon="7.855828753734997"><ele>349.0</ele><time>2026-04-10T07:36:25.999Z</time></trkpt><trkpt lat="44.747880133761" lon="7.855786260183998"><ele>349.0</ele><time>2026-04-10T07:36:26.999Z</time></trkpt><trkpt lat="44.74795789324687" lon="7.855734742922389"><ele>348.5</ele><time>2026-04-10T07:36:27.999Z</time></trkpt><trkpt lat="44.74803358573238" lon="7.855681808630171"><ele>348.0</ele><time>2026-04-10T07:36:28.999Z</time></trkpt><trkpt lat="44.74810915107982" lon="7.8556253902774245"><ele>347.5</ele><time>2026-04-10T07:36:29.999Z</time></trkpt><trkpt lat="44.7481723922252" lon="7.855574829716935"><ele>347.0</ele><time>2026-04-10T07:36:30.999Z</time></trkpt><trkpt lat="44.74823898180196" lon="7.855519767168669"><ele>346.5</ele><time>2026-04-10T07:36:31.999Z</time></trkpt><trkpt lat="44.74829961795015" lon="7.855462917262656"><ele>346.0</ele><time>2026-04-10T07:36:32.999Z</time></trkpt><trkpt lat="44.74835692064181" lon="7.855405580547071"><ele>346.0</ele><time>2026-04-10T07:36:33.999Z</time></trkpt><trkpt lat="44.74841199107405" lon="7.855343294999782"><ele>346.0</ele><time>2026-04-10T07:36:34.999Z</time></trkpt><trkpt lat="44.74846539030082" lon="7.855277077037559"><ele>346.0</ele><time>2026-04-10T07:36:35.999Z</time></trkpt><trkpt lat="44.748515346519405" lon="7.855204265602229"><ele>346.0</ele><time>2026-04-10T07:36:36.999Z</time></trkpt><trkpt lat="44.748557044410994" lon="7.855131249253618"><ele>346.0</ele><time>2026-04-10T07:36:37.999Z</time></trkpt><trkpt lat="44.74859638407092" lon="7.855054323463263"><ele>346.0</ele><time>2026-04-10T07:36:38.999Z</time></trkpt><trkpt lat="44.748666175087855" lon="7.854910282888727"><ele>345.66666666666663</ele><time>2026-04-10T07:36:40.999Z</time></trkpt><trkpt lat="44.748706745281204" lon="7.854825895477594"><ele>345.3333333333333</ele><time>2026-04-10T07:36:41.999Z</time></trkpt><trkpt lat="44.748744942796066" lon="7.854742931600547"><ele>345.0</ele><time>2026-04-10T07:36:42.999Z</time></trkpt><trkpt lat="44.74881845242328" lon="7.8546053707295425"><ele>344.6666666666667</ele><time>2026-04-10T07:36:44.999Z</time></trkpt><trkpt lat="44.74890242609347" lon="7.854491780240039"><ele>344.33333333333337</ele><time>2026-04-10T07:36:46.999Z</time></trkpt><trkpt lat="44.74895086864656" lon="7.854432564701599"><ele>344.0</ele><time>2026-04-10T07:36:47.999Z</time></trkpt><trkpt lat="44.74905534461025" lon="7.854360750334993"><ele>344.0</ele><time>2026-04-10T07:36:49.999Z</time></trkpt><trkpt lat="44.74916602187215" lon="7.854305057399045"><ele>344.0</ele><time>2026-04-10T07:36:51.999Z</time></trkpt><trkpt lat="44.74922644376319" lon="7.854279030218448"><ele>344.0</ele><time>2026-04-10T07:36:52.999Z</time></trkpt><trkpt lat="44.74928678832142" lon="7.854253466091608"><ele>344.0</ele><time>2026-04-10T07:36:53.999Z</time></trkpt><trkpt lat="44.749390093280084" lon="7.8541879070641505"><ele>344.0</ele><time>2026-04-10T07:36:55.999Z</time></trkpt><trkpt lat="44.74949948863806" lon="7.854113036329535"><ele>343.6666666666667</ele><time>2026-04-10T07:36:57.999Z</time></trkpt><trkpt lat="44.74958361409679" lon="7.8540337606386075"><ele>343.33333333333337</ele><time>2026-04-10T07:36:59.999Z</time></trkpt><trkpt lat="44.74964022296342" lon="7.853976035383665"><ele>343.0</ele><time>2026-04-10T07:37:01.999Z</time></trkpt><trkpt lat="44.74971083665987" lon="7.853887553191578"><ele>342.6666666666667</ele><time>2026-04-10T07:37:03.999Z</time></trkpt><trkpt lat="44.74977263850569" lon="7.853808164553805"><ele>342.3333333333333</ele><time>2026-04-10T07:37:05.999Z</time></trkpt><trkpt lat="44.74982478525574" lon="7.853735272079069"><ele>342.0</ele><time>2026-04-10T07:37:07.999Z</time></trkpt><trkpt lat="44.749903187653615" lon="7.853657996469058"><ele>342.0</ele><time>2026-04-10T07:37:09.999Z</time></trkpt><trkpt lat="44.74997296605621" lon="7.85356803934334"><ele>342.0</ele><time>2026-04-10T07:37:11.999Z</time></trkpt><trkpt lat="44.750045052360555" lon="7.853462281461617"><ele>342.0</ele><time>2026-04-10T07:37:13.999Z</time></trkpt><trkpt lat="44.75009489305207" lon="7.853385708125811"><ele>342.0</ele><time>2026-04-10T07:37:14.999Z</time></trkpt><trkpt lat="44.75018225725557" lon="7.853278623407923"><ele>342.0</ele><time>2026-04-10T07:37:16.999Z</time></trkpt><trkpt lat="44.7502317603965" lon="7.85322292613811"><ele>342.40000000000003</ele><time>2026-04-10T07:37:17.999Z</time></trkpt><trkpt lat="44.75031270784676" lon="7.853117679244533"><ele>342.8</ele><time>2026-04-10T07:37:19.999Z</time></trkpt><trkpt lat="44.750369187790014" lon="7.853020002083546"><ele>343.2</ele><time>2026-04-10T07:37:21.999Z</time></trkpt><trkpt lat="44.750446812267505" lon="7.852910364060002"><ele>343.6</ele><time>2026-04-10T07:37:23.999Z</time></trkpt><trkpt lat="44.75051016787645" lon="7.852796807206375"><ele>344.0</ele><time>2026-04-10T07:37:25.999Z</time></trkpt><trkpt lat="44.75056967509511" lon="7.852683631604499"><ele>343.25</ele><time>2026-04-10T07:37:27.999Z</time></trkpt><trkpt lat="44.750631366097096" lon="7.852568283689072"><ele>342.5</ele><time>2026-04-10T07:37:29.999Z</time></trkpt><trkpt lat="44.750692973696204" lon="7.852445671807028"><ele>341.75</ele><time>2026-04-10T07:37:31.999Z</time></trkpt><trkpt lat="44.750761166717744" lon="7.852318538483952"><ele>341.0</ele><time>2026-04-10T07:37:33.999Z</time></trkpt><trkpt lat="44.750820954452614" lon="7.852159968383854"><ele>341.0</ele><time>2026-04-10T07:37:35.999Z</time></trkpt><trkpt lat="44.75085439385843" lon="7.852050221876307"><ele>341.0</ele><time>2026-04-10T07:37:36.999Z</time></trkpt><trkpt lat="44.75086700044691" lon="7.851935572724558"><ele>341.0</ele><time>2026-04-10T07:37:37.999Z</time></trkpt><trkpt lat="44.750889968508844" lon="7.851837513912693"><ele>341.0</ele><time>2026-04-10T07:37:38.999Z</time></trkpt><trkpt lat="44.75093553509154" lon="7.8517491030326445"><ele>341.0</ele><time>2026-04-10T07:37:39.999Z</time></trkpt><trkpt lat="44.750974177401915" lon="7.851642748423624"><ele>341.0</ele><time>2026-04-10T07:37:40.999Z</time></trkpt><trkpt lat="44.75101681962437" lon="7.851527829148505"><ele>340.7142857142857</ele><time>2026-04-10T07:37:41.999Z</time></trkpt><trkpt lat="44.75104859687206" lon="7.851437853645097"><ele>340.42857142857144</ele><time>2026-04-10T07:37:42.999Z</time></trkpt><trkpt lat="44.751084655842526" lon="7.851351177057152"><ele>340.1428571428571</ele><time>2026-04-10T07:37:43.999Z</time></trkpt><trkpt lat="44.751120594445695" lon="7.851266800595594"><ele>339.8571428571429</ele><time>2026-04-10T07:37:44.999Z</time></trkpt><trkpt lat="44.75115872824876" lon="7.851180946275626"><ele>339.5714285714286</ele><time>2026-04-10T07:37:45.999Z</time></trkpt><trkpt lat="44.75119704462262" lon="7.851096506304837"><ele>339.2857142857143</ele><time>2026-04-10T07:37:46.999Z</time></trkpt><trkpt lat="44.7512399473358" lon="7.85100377067366"><ele>339.0</ele><time>2026-04-10T07:37:47.999Z</time></trkpt><trkpt lat="44.75129210045284" lon="7.850913768319465"><ele>338.6</ele><time>2026-04-10T07:37:48.999Z</time></trkpt><trkpt lat="44.751365091396224" lon="7.850773760360956"><ele>338.2</ele><time>2026-04-10T07:37:50.999Z</time></trkpt><trkpt lat="44.75141265990785" lon="7.850697549767558"><ele>337.8</ele><time>2026-04-10T07:37:51.999Z</time></trkpt><trkpt lat="44.751477635529646" lon="7.850556884945488"><ele>337.40000000000003</ele><time>2026-04-10T07:37:53.999Z</time></trkpt><trkpt lat="44.75155101387549" lon="7.850452244963789"><ele>337.0</ele><time>2026-04-10T07:37:55.999Z</time></trkpt><trkpt lat="44.75159595214666" lon="7.850385901774794"><ele>337.0</ele><time>2026-04-10T07:37:56.999Z</time></trkpt><trkpt lat="44.75167489765279" lon="7.850255702185906"><ele>337.0</ele><time>2026-04-10T07:37:58.999Z</time></trkpt><trkpt lat="44.751715116879716" lon="7.850180104944867"><ele>337.0</ele><time>2026-04-10T07:37:59.999Z</time></trkpt><trkpt lat="44.751757753548134" lon="7.8501073584757854"><ele>337.0</ele><time>2026-04-10T07:38:00.999Z</time></trkpt><trkpt lat="44.75181991919056" lon="7.849977882255711"><ele>337.0</ele><time>2026-04-10T07:38:02.999Z</time></trkpt><trkpt lat="44.75188369148746" lon="7.849838889937258"><ele>337.0</ele><time>2026-04-10T07:38:04.999Z</time></trkpt><trkpt lat="44.75194849710615" lon="7.849710166677585"><ele>337.0</ele><time>2026-04-10T07:38:06.999Z</time></trkpt><trkpt lat="44.75200477804308" lon="7.849615461018504"><ele>337.0</ele><time>2026-04-10T07:38:08.999Z</time></trkpt><trkpt lat="44.75206625579415" lon="7.849492804707911"><ele>337.0</ele><time>2026-04-10T07:38:10.999Z</time></trkpt><trkpt lat="44.75211848457542" lon="7.849354300110649"><ele>337.0</ele><time>2026-04-10T07:38:12.999Z</time></trkpt><trkpt lat="44.75215809600994" lon="7.849221798103662"><ele>336.6</ele><time>2026-04-10T07:38:14.999Z</time></trkpt><trkpt lat="44.75219572379963" lon="7.8490863867797"><ele>336.20000000000005</ele><time>2026-04-10T07:38:16.999Z</time></trkpt><trkpt lat="44.752251095040315" lon="7.848946782949727"><ele>335.8</ele><time>2026-04-10T07:38:18.999Z</time></trkpt><trkpt lat="44.75228948690575" lon="7.848837285783057"><ele>335.4</ele><time>2026-04-10T07:38:20.999Z</time></trkpt><trkpt lat="44.75235047585119" lon="7.848684019768747"><ele>335.0</ele><time>2026-04-10T07:38:22.999Z</time></trkpt><trkpt lat="44.75242293231502" lon="7.84853906980738"><ele>334.85714285714283</ele><time>2026-04-10T07:38:24.999Z</time></trkpt><trkpt lat="44.75245907296117" lon="7.848449566583829"><ele>334.7142857142857</ele><time>2026-04-10T07:38:25.999Z</time></trkpt><trkpt lat="44.75248520919705" lon="7.848365836377445"><ele>334.57142857142856</ele><time>2026-04-10T07:38:26.999Z</time></trkpt><trkpt lat="44.75251551569065" lon="7.848277549834406"><ele>334.42857142857144</ele><time>2026-04-10T07:38:27.999Z</time></trkpt><trkpt lat="44.75254556062952" lon="7.84819238478638"><ele>334.2857142857143</ele><time>2026-04-10T07:38:28.999Z</time></trkpt><trkpt lat="44.75257812199042" lon="7.848097476272705"><ele>334.1428571428571</ele><time>2026-04-10T07:38:29.999Z</time></trkpt><trkpt lat="44.75261428774023" lon="7.847992989855081"><ele>334.0</ele><time>2026-04-10T07:38:30.999Z</time></trkpt><trkpt lat="44.75264255669278" lon="7.847910321714065"><ele>334.0</ele><time>2026-04-10T07:38:31.999Z</time></trkpt><trkpt lat="44.7526746025696" lon="7.847812877884082"><ele>334.0</ele><time>2026-04-10T07:38:32.999Z</time></trkpt><trkpt lat="44.75270338567516" lon="7.847722775317805"><ele>334.0</ele><time>2026-04-10T07:38:33.999Z</time></trkpt><trkpt lat="44.7527343758392" lon="7.84764066548549"><ele>334.0</ele><time>2026-04-10T07:38:34.999Z</time></trkpt><trkpt lat="44.75279852977033" lon="7.847490198506626"><ele>334.0</ele><time>2026-04-10T07:38:36.999Z</time></trkpt><trkpt lat="44.752842012236435" lon="7.847413057430264"><ele>334.0</ele><time>2026-04-10T07:38:37.999Z</time></trkpt><trkpt lat="44.75288654319111" lon="7.847345033360874"><ele>334.0</ele><time>2026-04-10T07:38:38.999Z</time></trkpt><trkpt lat="44.75296306144925" lon="7.847214509996165"><ele>334.0</ele><time>2026-04-10T07:38:40.999Z</time></trkpt><trkpt lat="44.75300560660095" lon="7.847145202608717"><ele>334.0</ele><time>2026-04-10T07:38:41.999Z</time></trkpt><trkpt lat="44.753048217986894" lon="7.847071266808535"><ele>334.0</ele><time>2026-04-10T07:38:42.999Z</time></trkpt><trkpt lat="44.753090334750716" lon="7.8470036968730135"><ele>334.0</ele><time>2026-04-10T07:38:43.999Z</time></trkpt><trkpt lat="44.75316583218402" lon="7.846877270052139"><ele>334.0</ele><time>2026-04-10T07:38:45.999Z</time></trkpt><trkpt lat="44.75322563704549" lon="7.84674654313396"><ele>334.0</ele><time>2026-04-10T07:38:47.999Z</time></trkpt><trkpt lat="44.7532730018572" lon="7.846615915736665"><ele>334.0</ele><time>2026-04-10T07:38:49.999Z</time></trkpt><trkpt lat="44.753307889838595" lon="7.846427937183621"><ele>334.0</ele><time>2026-04-10T07:38:51.999Z</time></trkpt><trkpt lat="44.7532988565991" lon="7.846334269122474"><ele>334.0</ele><time>2026-04-10T07:38:52.999Z</time></trkpt><trkpt lat="44.753282027668284" lon="7.84616847360689"><ele>334.0</ele><time>2026-04-10T07:38:54.999Z</time></trkpt><trkpt lat="44.753273649542145" lon="7.846003247575218"><ele>334.0</ele><time>2026-04-10T07:38:56.999Z</time></trkpt><trkpt lat="44.75326405250462" lon="7.845843942835596"><ele>334.0</ele><time>2026-04-10T07:38:58.999Z</time></trkpt><trkpt lat="44.753260572010035" lon="7.845685207192182"><ele>334.0</ele><time>2026-04-10T07:39:00.999Z</time></trkpt><trkpt lat="44.753260177237976" lon="7.845544607686859"><ele>334.0</ele><time>2026-04-10T07:39:02.999Z</time></trkpt><trkpt lat="44.753250157261114" lon="7.845399182703112"><ele>334.0</ele><time>2026-04-10T07:39:04.999Z</time></trkpt><trkpt lat="44.753256783812894" lon="7.845236112658689"><ele>333.79999999999995</ele><time>2026-04-10T07:39:06.999Z</time></trkpt><trkpt lat="44.75326684134564" lon="7.845064195116309"><ele>333.59999999999997</ele><time>2026-04-10T07:39:08.999Z</time></trkpt><trkpt lat="44.753278353389845" lon="7.84491563491045"><ele>333.4</ele><time>2026-04-10T07:39:10.999Z</time></trkpt><trkpt lat="44.753284471297995" lon="7.844825393557467"><ele>333.2</ele><time>2026-04-10T07:39:11.999Z</time></trkpt><trkpt lat="44.75329297878445" lon="7.844736257396046"><ele>333.0</ele><time>2026-04-10T07:39:12.999Z</time></trkpt><trkpt lat="44.75331440888694" lon="7.844603754396347"><ele>333.0</ele><time>2026-04-10T07:39:14.999Z</time></trkpt><trkpt lat="44.753338965856656" lon="7.844478790698293"><ele>333.0</ele><time>2026-04-10T07:39:16.999Z</time></trkpt><trkpt lat="44.753358808368006" lon="7.844342362218911"><ele>333.0</ele><time>2026-04-10T07:39:18.999Z</time></trkpt><trkpt lat="44.753393195735676" lon="7.844194945920795"><ele>333.0</ele><time>2026-04-10T07:39:20.999Z</time></trkpt><trkpt lat="44.75343760036065" lon="7.844049734726166"><ele>333.0</ele><time>2026-04-10T07:39:22.999Z</time></trkpt><trkpt lat="44.75347857906342" lon="7.843907357900852"><ele>333.0</ele><time>2026-04-10T07:39:24.999Z</time></trkpt><trkpt lat="44.753516183130856" lon="7.843736614372775"><ele>333.0</ele><time>2026-04-10T07:39:26.999Z</time></trkpt><trkpt lat="44.75353501215851" lon="7.843641543971173"><ele>333.0</ele><time>2026-04-10T07:39:27.999Z</time></trkpt><trkpt lat="44.75354987378845" lon="7.843544055743467"><ele>333.0</ele><time>2026-04-10T07:39:28.999Z</time></trkpt><trkpt lat="44.75355808522492" lon="7.8434351779055795"><ele>333.0</ele><time>2026-04-10T07:39:29.999Z</time></trkpt><trkpt lat="44.75357208601051" lon="7.843346896255174"><ele>333.0</ele><time>2026-04-10T07:39:30.999Z</time></trkpt><trkpt lat="44.75358373399007" lon="7.84325789049556"><ele>333.0</ele><time>2026-04-10T07:39:31.999Z</time></trkpt><trkpt lat="44.75360113777784" lon="7.8431699579914556"><ele>333.0</ele><time>2026-04-10T07:39:32.999Z</time></trkpt><trkpt lat="44.75361186847934" lon="7.843077380828226"><ele>333.0</ele><time>2026-04-10T07:39:33.999Z</time></trkpt><trkpt lat="44.75362290920822" lon="7.842933984552182"><ele>333.0</ele><time>2026-04-10T07:39:35.999Z</time></trkpt><trkpt lat="44.75362506887443" lon="7.842815579148904"><ele>333.0</ele><time>2026-04-10T07:39:37.999Z</time></trkpt><trkpt lat="44.75365218910883" lon="7.842701686528413"><ele>333.0</ele><time>2026-04-10T07:39:39.999Z</time></trkpt><trkpt lat="44.75367665387541" lon="7.8425707844301575"><ele>332.59999999999997</ele><time>2026-04-10T07:39:41.999Z</time></trkpt><trkpt lat="44.75370213043597" lon="7.842443839919457"><ele>332.2</ele><time>2026-04-10T07:39:44Z</time></trkpt><trkpt lat="44.75372561659978" lon="7.842325229837912"><ele>331.8</ele><time>2026-04-10T07:39:46Z</time></trkpt><trkpt lat="44.75377284106782" lon="7.842225462247269"><ele>331.4</ele><time>2026-04-10T07:39:48Z</time></trkpt><trkpt lat="44.75384709742871" lon="7.842113381375995"><ele>331.0</ele><time>2026-04-10T07:39:50Z</time></trkpt><trkpt lat="44.75392395994175" lon="7.841996606098934"><ele>331.0</ele><time>2026-04-10T07:39:52Z</time></trkpt><trkpt lat="44.75398526804366" lon="7.841864831478235"><ele>331.0</ele><time>2026-04-10T07:39:54Z</time></trkpt><trkpt lat="44.754060896295236" lon="7.841767725911039"><ele>331.0</ele><time>2026-04-10T07:39:56Z</time></trkpt><trkpt lat="44.754105875812435" lon="7.841705131674833"><ele>331.0</ele><time>2026-04-10T07:39:57Z</time></trkpt><trkpt lat="44.75417270888241" lon="7.841565049174189"><ele>331.0</ele><time>2026-04-10T07:39:59Z</time></trkpt><trkpt lat="44.75423349598947" lon="7.841426720009416"><ele>330.8</ele><time>2026-04-10T07:40:01Z</time></trkpt><trkpt lat="44.75428893696236" lon="7.841281943037382"><ele>330.6</ele><time>2026-04-10T07:40:03Z</time></trkpt><trkpt lat="44.75433839391464" lon="7.841166720061756"><ele>330.4</ele><time>2026-04-10T07:40:05Z</time></trkpt><trkpt lat="44.75438404028181" lon="7.841075634214476"><ele>330.2</ele><time>2026-04-10T07:40:07Z</time></trkpt><trkpt lat="44.75443156989751" lon="7.840994231704706"><ele>330.0</ele><time>2026-04-10T07:40:09Z</time></trkpt><trkpt lat="44.75450214137919" lon="7.840910416591432"><ele>329.4</ele><time>2026-04-10T07:40:11Z</time></trkpt><trkpt lat="44.75458453879379" lon="7.8408329992947925"><ele>328.8</ele><time>2026-04-10T07:40:13Z</time></trkpt><trkpt lat="44.75464412656476" lon="7.84075554394775"><ele>328.20000000000005</ele><time>2026-04-10T07:40:15Z</time></trkpt><trkpt lat="44.75470462424181" lon="7.84068078149874"><ele>327.6</ele><time>2026-04-10T07:40:17Z</time></trkpt><trkpt lat="44.754756170820244" lon="7.8405829241802065"><ele>327.0</ele><time>2026-04-10T07:40:19Z</time></trkpt><trkpt lat="44.75483496484767" lon="7.840473355440393"><ele>327.0</ele><time>2026-04-10T07:40:21Z</time></trkpt><trkpt lat="44.75489701882346" lon="7.8403480007736"><ele>327.0</ele><time>2026-04-10T07:40:23Z</time></trkpt><trkpt lat="44.754941694650476" lon="7.8402229908025465"><ele>327.0</ele><time>2026-04-10T07:40:25Z</time></trkpt><trkpt lat="44.75497566269389" lon="7.840116025254142"><ele>327.0</ele><time>2026-04-10T07:40:27Z</time></trkpt><trkpt lat="44.755038018971376" lon="7.839984764709029"><ele>327.0</ele><time>2026-04-10T07:40:29Z</time></trkpt><trkpt lat="44.755062290905876" lon="7.839895984664475"><ele>327.0</ele><time>2026-04-10T07:40:30Z</time></trkpt><trkpt lat="44.755086741936296" lon="7.8398108039563255"><ele>327.0</ele><time>2026-04-10T07:40:31Z</time></trkpt><trkpt lat="44.75512433503021" lon="7.839649891201346"><ele>327.0</ele><time>2026-04-10T07:40:33Z</time></trkpt><trkpt lat="44.7551554137393" lon="7.839496294085835"><ele>327.0</ele><time>2026-04-10T07:40:35Z</time></trkpt><trkpt lat="44.75519203182759" lon="7.8393392781932025"><ele>327.0</ele><time>2026-04-10T07:40:37Z</time></trkpt><trkpt lat="44.755219249139365" lon="7.83919406193283"><ele>326.8333333333333</ele><time>2026-04-10T07:40:39Z</time></trkpt><trkpt lat="44.75521918866252" lon="7.839059087713958"><ele>326.6666666666667</ele><time>2026-04-10T07:40:41Z</time></trkpt><trkpt lat="44.75523580986011" lon="7.8389450423251725"><ele>326.5</ele><time>2026-04-10T07:40:43Z</time></trkpt><trkpt lat="44.755267713182626" lon="7.83883168675116"><ele>326.33333333333337</ele><time>2026-04-10T07:40:45Z</time></trkpt><trkpt lat="44.75529288565893" lon="7.838739053709904"><ele>326.1666666666667</ele><time>2026-04-10T07:40:47Z</time></trkpt><trkpt lat="44.755337402636926" lon="7.838665533286876"><ele>326.0</ele><time>2026-04-10T07:40:49Z</time></trkpt><trkpt lat="44.75540133480218" lon="7.838581154707468"><ele>326.0</ele><time>2026-04-10T07:40:51Z</time></trkpt><trkpt lat="44.75544321708905" lon="7.83848102551143"><ele>326.0</ele><time>2026-04-10T07:40:53Z</time></trkpt><trkpt lat="44.75551436300212" lon="7.838389550709335"><ele>326.0</ele><time>2026-04-10T07:40:55Z</time></trkpt><trkpt lat="44.75558140867929" lon="7.838327988295015"><ele>326.0</ele><time>2026-04-10T07:40:57Z</time></trkpt><trkpt lat="44.7556483790831" lon="7.838273763159813"><ele>326.0</ele><time>2026-04-10T07:40:59Z</time></trkpt><trkpt lat="44.755708430705795" lon="7.838226342027137"><ele>326.0</ele><time>2026-04-10T07:41:01Z</time></trkpt><trkpt lat="44.755786735017864" lon="7.838176808489379"><ele>326.0</ele><time>2026-04-10T07:41:03Z</time></trkpt><trkpt lat="44.755880241203535" lon="7.838137340318437"><ele>326.0</ele><time>2026-04-10T07:41:05Z</time></trkpt><trkpt lat="44.755976595605134" lon="7.83809648595678"><ele>326.0</ele><time>2026-04-10T07:41:07Z</time></trkpt><trkpt lat="44.75607085199948" lon="7.8380531473688215"><ele>326.0</ele><time>2026-04-10T07:41:09Z</time></trkpt><trkpt lat="44.756158452933285" lon="7.8379985164563095"><ele>326.0</ele><time>2026-04-10T07:41:11Z</time></trkpt><trkpt lat="44.756242803646586" lon="7.837895955209734"><ele>326.33333333333337</ele><time>2026-04-10T07:41:13Z</time></trkpt><trkpt lat="44.75634069633613" lon="7.8378096738837435"><ele>326.6666666666667</ele><time>2026-04-10T07:41:15Z</time></trkpt><trkpt lat="44.75639551829044" lon="7.837755617976252"><ele>327.0</ele><time>2026-04-10T07:41:16Z</time></trkpt><trkpt lat="44.75645225038444" lon="7.83771126154388"><ele>327.3333333333333</ele><time>2026-04-10T07:41:17Z</time></trkpt><trkpt lat="44.75650407126758" lon="7.837660386039964"><ele>327.66666666666663</ele><time>2026-04-10T07:41:18Z</time></trkpt><trkpt lat="44.756598289138886" lon="7.837571140819025"><ele>328.0</ele><time>2026-04-10T07:41:20Z</time></trkpt><trkpt lat="44.75668251822293" lon="7.837459648856325"><ele>327.16666666666663</ele><time>2026-04-10T07:41:22Z</time></trkpt><trkpt lat="44.756775134291836" lon="7.837355418361664"><ele>326.3333333333333</ele><time>2026-04-10T07:41:24Z</time></trkpt><trkpt lat="44.75685181531479" lon="7.837265418850492"><ele>325.5</ele><time>2026-04-10T07:41:26Z</time></trkpt><trkpt lat="44.75691846036022" lon="7.837192973621402"><ele>324.6666666666667</ele><time>2026-04-10T07:41:28Z</time></trkpt><trkpt lat="44.756968545285126" lon="7.83711553222567"><ele>323.83333333333337</ele><time>2026-04-10T07:41:30Z</time></trkpt><trkpt lat="44.75702516931852" lon="7.837052201220035"><ele>323.0</ele><time>2026-04-10T07:41:32Z</time></trkpt><trkpt lat="44.75709135740978" lon="7.837006331041377"><ele>322.6666666666667</ele><time>2026-04-10T07:41:34Z</time></trkpt><trkpt lat="44.75717707993027" lon="7.836929496438617"><ele>322.33333333333337</ele><time>2026-04-10T07:41:36Z</time></trkpt><trkpt lat="44.757246337656596" lon="7.8368617539516485"><ele>322.0</ele><time>2026-04-10T07:41:38Z</time></trkpt><trkpt lat="44.75729727430752" lon="7.836806808383289"><ele>321.6666666666667</ele><time>2026-04-10T07:41:40Z</time></trkpt><trkpt lat="44.75734869273802" lon="7.836725109966874"><ele>321.3333333333333</ele><time>2026-04-10T07:41:42Z</time></trkpt><trkpt lat="44.75740578164893" lon="7.836662020734484"><ele>321.0</ele><time>2026-04-10T07:41:44Z</time></trkpt><trkpt lat="44.75746567545376" lon="7.836586859716392"><ele>321.0</ele><time>2026-04-10T07:41:46Z</time></trkpt><trkpt lat="44.75754700267447" lon="7.836552824563546"><ele>321.0</ele><time>2026-04-10T07:41:48Z</time></trkpt><trkpt lat="44.75760957610879" lon="7.836522808805478"><ele>321.0</ele><time>2026-04-10T07:41:50Z</time></trkpt><trkpt lat="44.75768009322684" lon="7.836506176858592"><ele>321.0</ele><time>2026-04-10T07:41:52Z</time></trkpt><trkpt lat="44.757744870591175" lon="7.8364818611522535"><ele>321.0</ele><time>2026-04-10T07:41:54Z</time></trkpt><trkpt lat="44.757819689436296" lon="7.836453320488155"><ele>321.0</ele><time>2026-04-10T07:41:56Z</time></trkpt><trkpt lat="44.757902196599865" lon="7.836420348285314"><ele>321.0</ele><time>2026-04-10T07:41:58Z</time></trkpt><trkpt lat="44.75799174891448" lon="7.836395940659768"><ele>321.0</ele><time>2026-04-10T07:42:00Z</time></trkpt><trkpt lat="44.758069215711174" lon="7.836378330342465"><ele>321.0</ele><time>2026-04-10T07:42:02Z</time></trkpt><trkpt lat="44.75814785868139" lon="7.836355347220044"><ele>321.0</ele><time>2026-04-10T07:42:04Z</time></trkpt><trkpt lat="44.75825985488408" lon="7.836327525476522"><ele>321.0</ele><time>2026-04-10T07:42:06Z</time></trkpt><trkpt lat="44.75835739886285" lon="7.836301787526468"><ele>321.0</ele><time>2026-04-10T07:42:08Z</time></trkpt><trkpt lat="44.75844662390799" lon="7.836273782445404"><ele>321.0</ele><time>2026-04-10T07:42:10Z</time></trkpt><trkpt lat="44.75854544153483" lon="7.836244705003226"><ele>321.0</ele><time>2026-04-10T07:42:12Z</time></trkpt><trkpt lat="44.75863820286442" lon="7.8362191017091485"><ele>321.0</ele><time>2026-04-10T07:42:14Z</time></trkpt><trkpt lat="44.75872802981934" lon="7.836189282598893"><ele>321.0</ele><time>2026-04-10T07:42:16Z</time></trkpt><trkpt lat="44.758812877907324" lon="7.836151576478637"><ele>321.3333333333333</ele><time>2026-04-10T07:42:18Z</time></trkpt><trkpt lat="44.758878975154865" lon="7.836119673155958"><ele>321.6666666666667</ele><time>2026-04-10T07:42:20Z</time></trkpt><trkpt lat="44.7589582559237" lon="7.836089375515506"><ele>322.0</ele><time>2026-04-10T07:42:22Z</time></trkpt><trkpt lat="44.75904373573955" lon="7.836051054101775"><ele>322.33333333333337</ele><time>2026-04-10T07:42:24Z</time></trkpt><trkpt lat="44.75911727952245" lon="7.83598307918926"><ele>322.6666666666667</ele><time>2026-04-10T07:42:26Z</time></trkpt><trkpt lat="44.75919266961136" lon="7.835868580127031"><ele>323.0</ele><time>2026-04-10T07:42:28Z</time></trkpt><trkpt lat="44.75926607966918" lon="7.835766914017357"><ele>323.0</ele><time>2026-04-10T07:42:30Z</time></trkpt><trkpt lat="44.75931311021252" lon="7.835635023938813"><ele>323.0</ele><time>2026-04-10T07:42:32Z</time></trkpt><trkpt lat="44.75936259237972" lon="7.83550883139079"><ele>323.0</ele><time>2026-04-10T07:42:34Z</time></trkpt><trkpt lat="44.75941438684397" lon="7.835372984024454"><ele>323.0</ele><time>2026-04-10T07:42:36Z</time></trkpt><trkpt lat="44.759484721071786" lon="7.835257826127334"><ele>323.0</ele><time>2026-04-10T07:42:38Z</time></trkpt><trkpt lat="44.7595520709837" lon="7.835159014428671"><ele>322.6666666666667</ele><time>2026-04-10T07:42:40Z</time></trkpt><trkpt lat="44.75961287222227" lon="7.835073259884351"><ele>322.33333333333337</ele><time>2026-04-10T07:42:42Z</time></trkpt><trkpt lat="44.7596934116724" lon="7.834970607255134"><ele>322.0</ele><time>2026-04-10T07:42:44Z</time></trkpt><trkpt lat="44.75976057347253" lon="7.834894383875502"><ele>321.6666666666667</ele><time>2026-04-10T07:42:46Z</time></trkpt><trkpt lat="44.759817991698206" lon="7.834830730510483"><ele>321.3333333333333</ele><time>2026-04-10T07:42:48Z</time></trkpt><trkpt lat="44.75987956356481" lon="7.834743937695654"><ele>321.0</ele><time>2026-04-10T07:42:50Z</time></trkpt><trkpt lat="44.759939477398355" lon="7.834644064491017"><ele>321.0</ele><time>2026-04-10T07:42:52Z</time></trkpt><trkpt lat="44.76000812762962" lon="7.834530817240237"><ele>321.0</ele><time>2026-04-10T07:42:54Z</time></trkpt><trkpt lat="44.7601013767119" lon="7.834417774419699"><ele>321.0</ele><time>2026-04-10T07:42:56Z</time></trkpt><trkpt lat="44.760188619915624" lon="7.834312080838887"><ele>321.0</ele><time>2026-04-10T07:42:58Z</time></trkpt><trkpt lat="44.760283418792504" lon="7.834230087171439"><ele>320.6</ele><time>2026-04-10T07:43:00Z</time></trkpt><trkpt lat="44.76036051050157" lon="7.834130618744255"><ele>320.20000000000005</ele><time>2026-04-10T07:43:02Z</time></trkpt><trkpt lat="44.7604188121549" lon="7.834004673275797"><ele>319.79999999999995</ele><time>2026-04-10T07:43:04Z</time></trkpt><trkpt lat="44.760487012342224" lon="7.833900455702649"><ele>319.4</ele><time>2026-04-10T07:43:06Z</time></trkpt><trkpt lat="44.760550787966515" lon="7.833812949950364"><ele>319.0</ele><time>2026-04-10T07:43:08Z</time></trkpt><trkpt lat="44.760593233738334" lon="7.833709124853418"><ele>319.0</ele><time>2026-04-10T07:43:10Z</time></trkpt><trkpt lat="44.76064038446802" lon="7.833603303502797"><ele>319.0</ele><time>2026-04-10T07:43:12Z</time></trkpt><trkpt lat="44.76068530924747" lon="7.833515727209903"><ele>319.0</ele><time>2026-04-10T07:43:14Z</time></trkpt><trkpt lat="44.76072810644921" lon="7.833424698024753"><ele>319.0</ele><time>2026-04-10T07:43:16Z</time></trkpt><trkpt lat="44.76075738477534" lon="7.83331244909108"><ele>319.0</ele><time>2026-04-10T07:43:18Z</time></trkpt><trkpt lat="44.760823514371666" lon="7.833213832711653"><ele>319.0</ele><time>2026-04-10T07:43:20Z</time></trkpt><trkpt lat="44.760887585493755" lon="7.833142683027821"><ele>319.0</ele><time>2026-04-10T07:43:22Z</time></trkpt><trkpt lat="44.760970257830465" lon="7.833063355117236"><ele>319.0</ele><time>2026-04-10T07:43:24Z</time></trkpt><trkpt lat="44.76104400411919" lon="7.832954407527806"><ele>319.0</ele><time>2026-04-10T07:43:26Z</time></trkpt><trkpt lat="44.76111051998621" lon="7.8328482750402735"><ele>319.0</ele><time>2026-04-10T07:43:28Z</time></trkpt><trkpt lat="44.76117379829159" lon="7.832735279277292"><ele>319.0</ele><time>2026-04-10T07:43:30Z</time></trkpt><trkpt lat="44.761266784284224" lon="7.832626203987016"><ele>319.0</ele><time>2026-04-10T07:43:32Z</time></trkpt><trkpt lat="44.761340931686405" lon="7.832510346269362"><ele>319.0</ele><time>2026-04-10T07:43:34Z</time></trkpt><trkpt lat="44.76141753223931" lon="7.8324130505131135"><ele>319.0</ele><time>2026-04-10T07:43:36Z</time></trkpt><trkpt lat="44.7614783120489" lon="7.832298200767032"><ele>319.0</ele><time>2026-04-10T07:43:38Z</time></trkpt><trkpt lat="44.76153893669155" lon="7.832175521468468"><ele>319.0</ele><time>2026-04-10T07:43:40Z</time></trkpt><trkpt lat="44.7615955365228" lon="7.832024250786163"><ele>319.0</ele><time>2026-04-10T07:43:42Z</time></trkpt><trkpt lat="44.76165190615639" lon="7.831887151993072"><ele>319.0</ele><time>2026-04-10T07:43:44Z</time></trkpt><trkpt lat="44.76169983469725" lon="7.8317544286467236"><ele>319.0</ele><time>2026-04-10T07:43:46Z</time></trkpt><trkpt lat="44.761747878414354" lon="7.831603819249179"><ele>319.0</ele><time>2026-04-10T07:43:48Z</time></trkpt><trkpt lat="44.76180091006076" lon="7.831453568138936"><ele>319.2</ele><time>2026-04-10T07:43:50Z</time></trkpt><trkpt lat="44.7618282240372" lon="7.831372518955362"><ele>319.4</ele><time>2026-04-10T07:43:51Z</time></trkpt><trkpt lat="44.76187123301945" lon="7.831230956286479"><ele>319.6</ele><time>2026-04-10T07:43:53Z</time></trkpt><trkpt lat="44.761942598674615" lon="7.831084066175219"><ele>319.8</ele><time>2026-04-10T07:43:55Z</time></trkpt><trkpt lat="44.76197026902073" lon="7.83098948788044"><ele>320.0</ele><time>2026-04-10T07:43:56Z</time></trkpt><trkpt lat="44.76201194790178" lon="7.830820750879604"><ele>319.57142857142856</ele><time>2026-04-10T07:43:58Z</time></trkpt><trkpt lat="44.762035085805216" lon="7.830731962630142"><ele>319.14285714285717</ele><time>2026-04-10T07:43:59Z</time></trkpt><trkpt lat="44.7620561129075" lon="7.830638784360247"><ele>318.7142857142857</ele><time>2026-04-10T07:44:00Z</time></trkpt><trkpt lat="44.76208007218919" lon="7.830542754442642"><ele>318.2857142857143</ele><time>2026-04-10T07:44:01Z</time></trkpt><trkpt lat="44.762104939032696" lon="7.8304538506430745"><ele>317.85714285714283</ele><time>2026-04-10T07:44:02Z</time></trkpt><trkpt lat="44.76213460500967" lon="7.83035539146691"><ele>317.42857142857144</ele><time>2026-04-10T07:44:03Z</time></trkpt><trkpt lat="44.76217455723273" lon="7.8302549554324266"><ele>317.0</ele><time>2026-04-10T07:44:04Z</time></trkpt><trkpt lat="44.76220958536299" lon="7.830155460983098"><ele>316.83333333333337</ele><time>2026-04-10T07:44:05Z</time></trkpt><trkpt lat="44.76224193391529" lon="7.830054335195367"><ele>316.6666666666667</ele><time>2026-04-10T07:44:06Z</time></trkpt><trkpt lat="44.76225762435786" lon="7.829948178798327"><ele>316.5</ele><time>2026-04-10T07:44:07Z</time></trkpt><trkpt lat="44.762269636743355" lon="7.829853330352692"><ele>316.3333333333333</ele><time>2026-04-10T07:44:08Z</time></trkpt><trkpt lat="44.762276561180826" lon="7.829763353275535"><ele>316.16666666666663</ele><time>2026-04-10T07:44:09Z</time></trkpt><trkpt lat="44.76227892427941" lon="7.829593677037809"><ele>316.0</ele><time>2026-04-10T07:44:11Z</time></trkpt><trkpt lat="44.76227734699928" lon="7.829495263136464"><ele>316.0</ele><time>2026-04-10T07:44:12Z</time></trkpt><trkpt lat="44.76227509621226" lon="7.829403215164133"><ele>316.0</ele><time>2026-04-10T07:44:13Z</time></trkpt><trkpt lat="44.76226618439737" lon="7.829251355687761"><ele>316.0</ele><time>2026-04-10T07:44:15Z</time></trkpt><trkpt lat="44.76227237968048" lon="7.829092029450015"><ele>316.0</ele><time>2026-04-10T07:44:17Z</time></trkpt><trkpt lat="44.76226477132549" lon="7.828928015241425"><ele>316.0</ele><time>2026-04-10T07:44:19Z</time></trkpt><trkpt lat="44.76227248145046" lon="7.82882247175422"><ele>315.8333333333333</ele><time>2026-04-10T07:44:20Z</time></trkpt><trkpt lat="44.762278076628206" lon="7.82871357007837"><ele>315.66666666666663</ele><time>2026-04-10T07:44:21Z</time></trkpt><trkpt lat="44.76228511963416" lon="7.828618414169418"><ele>315.5</ele><time>2026-04-10T07:44:22Z</time></trkpt><trkpt lat="44.762281043500785" lon="7.8285169132416295"><ele>315.3333333333333</ele><time>2026-04-10T07:44:23Z</time></trkpt><trkpt lat="44.762283875583734" lon="7.828420806716934"><ele>315.1666666666667</ele><time>2026-04-10T07:44:24Z</time></trkpt><trkpt lat="44.762286425150116" lon="7.82825837535934"><ele>315.0</ele><time>2026-04-10T07:44:26Z</time></trkpt><trkpt lat="44.762303744180144" lon="7.828077541303918"><ele>315.0</ele><time>2026-04-10T07:44:28Z</time></trkpt><trkpt lat="44.762308777932624" lon="7.827985675362753"><ele>315.0</ele><time>2026-04-10T07:44:29Z</time></trkpt><trkpt lat="44.76231550342734" lon="7.827856129346329"><ele>315.0</ele><time>2026-04-10T07:44:31Z</time></trkpt><trkpt lat="44.76232640492926" lon="7.827744184266127"><ele>315.0</ele><time>2026-04-10T07:44:33Z</time></trkpt><trkpt lat="44.7623598540381" lon="7.827568214432794"><ele>315.0</ele><time>2026-04-10T07:44:35Z</time></trkpt><trkpt lat="44.76238016650412" lon="7.827482569688959"><ele>315.0</ele><time>2026-04-10T07:44:36Z</time></trkpt><trkpt lat="44.76242294612834" lon="7.827321110384296"><ele>315.0</ele><time>2026-04-10T07:44:38Z</time></trkpt><trkpt lat="44.76245653480608" lon="7.827176601784517"><ele>315.0</ele><time>2026-04-10T07:44:40Z</time></trkpt><trkpt lat="44.76247693738123" lon="7.827026713169377"><ele>315.0</ele><time>2026-04-10T07:44:42Z</time></trkpt><trkpt lat="44.76249265595343" lon="7.8268696949422925"><ele>315.0</ele><time>2026-04-10T07:44:44Z</time></trkpt><trkpt lat="44.76250957447623" lon="7.826717406252543"><ele>315.0</ele><time>2026-04-10T07:44:46Z</time></trkpt><trkpt lat="44.76253652481425" lon="7.826583706333357"><ele>315.0</ele><time>2026-04-10T07:44:48Z</time></trkpt><trkpt lat="44.76255259723894" lon="7.8264485285499665"><ele>315.0</ele><time>2026-04-10T07:44:50Z</time></trkpt><trkpt lat="44.76259133159637" lon="7.826297872531593"><ele>315.0</ele><time>2026-04-10T07:44:52Z</time></trkpt><trkpt lat="44.762611972367" lon="7.826150490142077"><ele>315.0</ele><time>2026-04-10T07:44:54Z</time></trkpt><trkpt lat="44.762631672153105" lon="7.826031505580046"><ele>315.0</ele><time>2026-04-10T07:44:56Z</time></trkpt><trkpt lat="44.76265427540704" lon="7.825873068441764"><ele>315.1666666666667</ele><time>2026-04-10T07:44:58Z</time></trkpt><trkpt lat="44.762652410377605" lon="7.825738411635827"><ele>315.3333333333333</ele><time>2026-04-10T07:45:00Z</time></trkpt><trkpt lat="44.76265216298299" lon="7.825644689990336"><ele>315.5</ele><time>2026-04-10T07:45:02Z</time></trkpt><trkpt lat="44.762633983538265" lon="7.8255199706227305"><ele>315.66666666666663</ele><time>2026-04-10T07:45:05Z</time></trkpt><trkpt lat="44.762608119542875" lon="7.825385491613805"><ele>315.8333333333333</ele><time>2026-04-10T07:45:08Z</time></trkpt><trkpt lat="44.76259546928916" lon="7.825263498653406"><ele>316.0</ele><time>2026-04-10T07:45:11Z</time></trkpt><trkpt lat="44.762583241725416" lon="7.825121562797238"><ele>315.6</ele><time>2026-04-10T07:45:14Z</time></trkpt><trkpt lat="44.76259251373438" lon="7.825008324252399"><ele>315.20000000000005</ele><time>2026-04-10T07:45:16Z</time></trkpt><trkpt lat="44.762592266354254" lon="7.824859077258652"><ele>314.79999999999995</ele><time>2026-04-10T07:45:18Z</time></trkpt><trkpt lat="44.76259480004226" lon="7.824690252911635"><ele>314.4</ele><time>2026-04-10T07:45:20Z</time></trkpt><trkpt lat="44.76258530940845" lon="7.824554341092041"><ele>314.0</ele><time>2026-04-10T07:45:22Z</time></trkpt><trkpt lat="44.762592333565415" lon="7.8244384978523795"><ele>314.0</ele><time>2026-04-10T07:45:24Z</time></trkpt><trkpt lat="44.762621628588455" lon="7.824339899323825"><ele>314.0</ele><time>2026-04-10T07:45:33Z</time></trkpt><trkpt lat="44.7626404405389" lon="7.82423284688708"><ele>314.0</ele><time>2026-04-10T07:45:35Z</time></trkpt><trkpt lat="44.762655431560326" lon="7.824126763819875"><ele>314.0</ele><time>2026-04-10T07:45:37Z</time></trkpt><trkpt lat="44.762670674928984" lon="7.824027153632976"><ele>314.0</ele><time>2026-04-10T07:45:39Z</time></trkpt><trkpt lat="44.7626914554981" lon="7.823929561087268"><ele>314.0</ele><time>2026-04-10T07:45:41Z</time></trkpt><trkpt lat="44.76271610115015" lon="7.823814477405327"><ele>313.1666666666667</ele><time>2026-04-10T07:45:43Z</time></trkpt><trkpt lat="44.76273275961567" lon="7.823725229681096"><ele>312.33333333333337</ele><time>2026-04-10T07:45:44Z</time></trkpt><trkpt lat="44.76274057513505" lon="7.823619090769668"><ele>311.5</ele><time>2026-04-10T07:45:46Z</time></trkpt><trkpt lat="44.76274020871411" lon="7.823506549427531"><ele>310.6666666666667</ele><time>2026-04-10T07:45:49Z</time></trkpt><trkpt lat="44.762748329156956" lon="7.823416257620125"><ele>309.8333333333333</ele><time>2026-04-10T07:45:51Z</time></trkpt><trkpt lat="44.76274897812292" lon="7.8232761299526405"><ele>309.0</ele><time>2026-04-10T07:45:53Z</time></trkpt><trkpt lat="44.76276415512031" lon="7.823140849032638"><ele>309.0</ele><time>2026-04-10T07:45:55Z</time></trkpt><trkpt lat="44.76277772575266" lon="7.82300434576434"><ele>309.0</ele><time>2026-04-10T07:45:58Z</time></trkpt><trkpt lat="44.76279261928629" lon="7.822889251566354"><ele>309.0</ele><time>2026-04-10T07:46:00Z</time></trkpt><trkpt lat="44.7627954034611" lon="7.822751639351783"><ele>309.0</ele><time>2026-04-10T07:46:02Z</time></trkpt><trkpt lat="44.76279362210483" lon="7.8226442672408325"><ele>309.0</ele><time>2026-04-10T07:46:04Z</time></trkpt><trkpt lat="44.76279385246592" lon="7.822523815202546"><ele>309.0</ele><time>2026-04-10T07:46:06Z</time></trkpt><trkpt lat="44.762773583654635" lon="7.822406610733732"><ele>309.0</ele><time>2026-04-10T07:46:09Z</time></trkpt><trkpt lat="44.76277717208231" lon="7.822270444800076"><ele>309.0</ele><time>2026-04-10T07:46:12Z</time></trkpt><trkpt lat="44.76277991414696" lon="7.822141287739635"><ele>309.0</ele><time>2026-04-10T07:46:14Z</time></trkpt><trkpt lat="44.76277721586457" lon="7.822010789475145"><ele>309.0</ele><time>2026-04-10T07:46:16Z</time></trkpt><trkpt lat="44.76276223178158" lon="7.8218728166880185"><ele>309.0</ele><time>2026-04-10T07:46:18Z</time></trkpt><trkpt lat="44.76275593489906" lon="7.821741048701532"><ele>308.8333333333333</ele><time>2026-04-10T07:46:20Z</time></trkpt><trkpt lat="44.76274555942802" lon="7.821624732876481"><ele>308.6666666666667</ele><time>2026-04-10T07:46:21.999Z</time></trkpt><trkpt lat="44.762718427204916" lon="7.821519719792394"><ele>308.5</ele><time>2026-04-10T07:46:23.999Z</time></trkpt><trkpt lat="44.762680637176366" lon="7.82142750221933"><ele>308.33333333333337</ele><time>2026-04-10T07:46:26.999Z</time></trkpt><trkpt lat="44.76261828339944" lon="7.821328138978352"><ele>308.1666666666667</ele><time>2026-04-10T07:46:30.999Z</time></trkpt><trkpt lat="44.76259043751744" lon="7.821234148917499"><ele>308.0</ele><time>2026-04-10T07:46:32.999Z</time></trkpt><trkpt lat="44.762541676881604" lon="7.821138042365412"><ele>308.0</ele><time>2026-04-10T07:46:34.999Z</time></trkpt><trkpt lat="44.762498524542565" lon="7.8210439143911605"><ele>308.0</ele><time>2026-04-10T07:46:37.999Z</time></trkpt><trkpt lat="44.76246333182892" lon="7.820968646592935"><ele>308.0</ele><time>2026-04-10T07:46:39.999Z</time></trkpt><trkpt lat="44.762427069403365" lon="7.82089611243277"><ele>308.0</ele><time>2026-04-10T07:46:42.999Z</time></trkpt><trkpt lat="44.762378127868" lon="7.820787885204682"><ele>308.0</ele><time>2026-04-10T07:46:45.999Z</time></trkpt><trkpt lat="44.7623380437678" lon="7.820692688901167"><ele>308.0</ele><time>2026-04-10T07:46:49.001Z</time></trkpt><trkpt lat="44.76230395695983" lon="7.820591998064364"><ele>307.33333333333337</ele><time>2026-04-10T07:46:52Z</time></trkpt><trkpt lat="44.76226009932729" lon="7.820504833364495"><ele>306.6666666666667</ele><time>2026-04-10T07:46:55Z</time></trkpt><trkpt lat="44.7622158476823" lon="7.820428124544121"><ele>306.0</ele><time>2026-04-10T07:46:58Z</time></trkpt><trkpt lat="44.762199764527494" lon="7.820320065453229"><ele>305.3333333333333</ele><time>2026-04-10T07:47:02Z</time></trkpt><trkpt lat="44.76220691120352" lon="7.820203523857453"><ele>304.66666666666663</ele><time>2026-04-10T07:47:06Z</time></trkpt><trkpt lat="44.76223892048184" lon="7.8200985670335035"><ele>304.0</ele><time>2026-04-10T07:47:10Z</time></trkpt><trkpt lat="44.76227962544685" lon="7.82000452012593"><ele>304.0</ele><time>2026-04-10T07:47:13Z</time></trkpt><trkpt lat="44.762298319343586" lon="7.8199183532153285"><ele>304.0</ele><time>2026-04-10T07:47:15Z</time></trkpt><trkpt lat="44.76233079133191" lon="7.819826403077948"><ele>304.0</ele><time>2026-04-10T07:47:17Z</time></trkpt><trkpt lat="44.76236882500229" lon="7.819700327729039"><ele>304.0</ele><time>2026-04-10T07:47:19Z</time></trkpt><trkpt lat="44.762389600357324" lon="7.819571758463807"><ele>304.0</ele><time>2026-04-10T07:47:21Z</time></trkpt><trkpt lat="44.762408190772334" lon="7.819450617591674"><ele>304.0</ele><time>2026-04-10T07:47:23Z</time></trkpt><trkpt lat="44.76242917038304" lon="7.819352224282345"><ele>304.59999999999997</ele><time>2026-04-10T07:47:25Z</time></trkpt><trkpt lat="44.76245481357153" lon="7.819256941977329"><ele>305.2</ele><time>2026-04-10T07:47:27Z</time></trkpt><trkpt lat="44.76247342020945" lon="7.819146199281307"><ele>305.79999999999995</ele><time>2026-04-10T07:47:29Z</time></trkpt><trkpt lat="44.76249414090379" lon="7.8190089298942524"><ele>306.4</ele><time>2026-04-10T07:47:31Z</time></trkpt><trkpt lat="44.76252140138554" lon="7.818862044916907"><ele>307.0</ele><time>2026-04-10T07:47:33Z</time></trkpt><trkpt lat="44.76256144826428" lon="7.8187035213870875"><ele>307.0</ele><time>2026-04-10T07:47:35Z</time></trkpt><trkpt lat="44.762604471810356" lon="7.8185701120907325"><ele>307.0</ele><time>2026-04-10T07:47:37Z</time></trkpt><trkpt lat="44.76263278604905" lon="7.818463213451453"><ele>307.0</ele><time>2026-04-10T07:47:39Z</time></trkpt><trkpt lat="44.76266191031257" lon="7.818305001780978"><ele>307.0</ele><time>2026-04-10T07:47:41Z</time></trkpt><trkpt lat="44.762682998413815" lon="7.818154216578759"><ele>307.0</ele><time>2026-04-10T07:47:43Z</time></trkpt><trkpt lat="44.762707310620165" lon="7.818038147418476"><ele>305.8</ele><time>2026-04-10T07:47:45Z</time></trkpt><trkpt lat="44.76272387341319" lon="7.817905096180508"><ele>304.6</ele><time>2026-04-10T07:47:47Z</time></trkpt><trkpt lat="44.76274445962117" lon="7.8177474537372555"><ele>303.40000000000003</ele><time>2026-04-10T07:47:49Z</time></trkpt><trkpt lat="44.762737749827515" lon="7.8176135910236555"><ele>302.2</ele><time>2026-04-10T07:47:51Z</time></trkpt><trkpt lat="44.76272172006015" lon="7.817482094113287"><ele>301.0</ele><time>2026-04-10T07:47:53Z</time></trkpt><trkpt lat="44.76269932553247" lon="7.817346547678979"><ele>302.0</ele><time>2026-04-10T07:47:55Z</time></trkpt><trkpt lat="44.762676960111534" lon="7.817244121603038"><ele>303.0</ele><time>2026-04-10T07:47:57Z</time></trkpt><trkpt lat="44.7626488240632" lon="7.81714992995485"><ele>304.0</ele><time>2026-04-10T07:47:59Z</time></trkpt><trkpt lat="44.76262269435516" lon="7.8170547082684045"><ele>305.0</ele><time>2026-04-10T07:48:03Z</time></trkpt><trkpt lat="44.76260211734363" lon="7.816949944584574"><ele>306.0</ele><time>2026-04-10T07:48:06Z</time></trkpt><trkpt lat="44.76258769176207" lon="7.816856210235411"><ele>307.0</ele><time>2026-04-10T07:48:08Z</time></trkpt><trkpt lat="44.7625825216417" lon="7.816766267825107"><ele>308.0</ele><time>2026-04-10T07:48:10Z</time></trkpt><trkpt lat="44.76257699122175" lon="7.816659334781393"><ele>308.1666666666667</ele><time>2026-04-10T07:48:12Z</time></trkpt><trkpt lat="44.76257075739601" lon="7.816562342509201"><ele>308.33333333333337</ele><time>2026-04-10T07:48:14Z</time></trkpt><trkpt lat="44.762566408758516" lon="7.816453142810834"><ele>308.5</ele><time>2026-04-10T07:48:16Z</time></trkpt><trkpt lat="44.76255651116034" lon="7.816332632145357"><ele>308.6666666666667</ele><time>2026-04-10T07:48:18Z</time></trkpt><trkpt lat="44.7625526304319" lon="7.816204497629202"><ele>308.8333333333333</ele><time>2026-04-10T07:48:20Z</time></trkpt><trkpt lat="44.76254468537268" lon="7.816097813968975"><ele>309.0</ele><time>2026-04-10T07:48:22Z</time></trkpt><trkpt lat="44.76254414891241" lon="7.815982788307946"><ele>309.0</ele><time>2026-04-10T07:48:24Z</time></trkpt><trkpt lat="44.76255299591379" lon="7.815869170821828"><ele>309.0</ele><time>2026-04-10T07:48:26Z</time></trkpt><trkpt lat="44.76256419512622" lon="7.8157367942021"><ele>309.0</ele><time>2026-04-10T07:48:28Z</time></trkpt><trkpt lat="44.7625697694501" lon="7.81560057512301"><ele>309.0</ele><time>2026-04-10T07:48:30Z</time></trkpt><trkpt lat="44.76255605191417" lon="7.815502571474746"><ele>309.0</ele><time>2026-04-10T07:48:32Z</time></trkpt><trkpt lat="44.76251627437936" lon="7.815412078910079"><ele>309.0</ele><time>2026-04-10T07:48:35Z</time></trkpt><trkpt lat="44.7624402644587" lon="7.81535898771839"><ele>309.00000000000006</ele><time>2026-04-10T07:48:38Z</time></trkpt><trkpt lat="44.76237525478157" lon="7.815341705771098"><ele>309.0</ele><time>2026-04-10T07:48:40Z</time></trkpt><trkpt lat="44.762316383472466" lon="7.815302593634089"><ele>309.0</ele><time>2026-04-10T07:48:42Z</time></trkpt><trkpt lat="44.76226468232334" lon="7.815249362437009"><ele>309.0</ele><time>2026-04-10T07:48:44Z</time></trkpt><trkpt lat="44.762201491430666" lon="7.815204030717585"><ele>309.0</ele><time>2026-04-10T07:48:46Z</time></trkpt><trkpt lat="44.76211566041403" lon="7.815161488195763"><ele>309.00000000000006</ele><time>2026-04-10T07:48:48Z</time></trkpt><trkpt lat="44.76206151560335" lon="7.815106707775745"><ele>309.0</ele><time>2026-04-10T07:48:50Z</time></trkpt><trkpt lat="44.76199806254672" lon="7.815051792949389"><ele>309.14285714285717</ele><time>2026-04-10T07:48:52Z</time></trkpt><trkpt lat="44.76194320208711" lon="7.815006131748624"><ele>309.2857142857143</ele><time>2026-04-10T07:48:54Z</time></trkpt><trkpt lat="44.76187008145458" lon="7.814942882967569"><ele>309.42857142857144</ele><time>2026-04-10T07:48:57Z</time></trkpt><trkpt lat="44.76182763654123" lon="7.814869018852818"><ele>309.57142857142856</ele><time>2026-04-10T07:48:59Z</time></trkpt><trkpt lat="44.761780117859246" lon="7.814804374183233"><ele>309.7142857142857</ele><time>2026-04-10T07:49:01Z</time></trkpt><trkpt lat="44.761732166743506" lon="7.81473841075748"><ele>309.8571428571429</ele><time>2026-04-10T07:49:03Z</time></trkpt><trkpt lat="44.761710044946" lon="7.814652909190367"><ele>310.0</ele><time>2026-04-10T07:49:06Z</time></trkpt><trkpt lat="44.7617111180068" lon="7.81455587409054"><ele>309.8333333333333</ele><time>2026-04-10T07:49:09Z</time></trkpt><trkpt lat="44.761732396968846" lon="7.814455318527754"><ele>309.66666666666663</ele><time>2026-04-10T07:49:12Z</time></trkpt><trkpt lat="44.76179059562544" lon="7.814404753568135"><ele>309.5</ele><time>2026-04-10T07:49:15Z</time></trkpt><trkpt lat="44.76185732857938" lon="7.8143417401365545"><ele>309.3333333333333</ele><time>2026-04-10T07:49:18Z</time></trkpt><trkpt lat="44.76192231370591" lon="7.814250944372954"><ele>309.1666666666667</ele><time>2026-04-10T07:49:21Z</time></trkpt><trkpt lat="44.76197838825918" lon="7.81417031223684"><ele>309.0</ele><time>2026-04-10T07:49:23Z</time></trkpt><trkpt lat="44.762049891799315" lon="7.81410392023456"><ele>309.0</ele><time>2026-04-10T07:49:25Z</time></trkpt><trkpt lat="44.762102306010846" lon="7.813981876512238"><ele>309.0</ele><time>2026-04-10T07:49:27Z</time></trkpt><trkpt lat="44.762146975646004" lon="7.81386956339853"><ele>309.0</ele><time>2026-04-10T07:49:29Z</time></trkpt><trkpt lat="44.76218883777239" lon="7.813744134190624"><ele>309.0</ele><time>2026-04-10T07:49:31Z</time></trkpt><trkpt lat="44.762229777995024" lon="7.813641775975483"><ele>309.0</ele><time>2026-04-10T07:49:33Z</time></trkpt><trkpt lat="44.76227878861708" lon="7.8135471551605615"><ele>310.1666666666667</ele><time>2026-04-10T07:49:35Z</time></trkpt><trkpt lat="44.76232345685121" lon="7.81346080997294"><ele>311.3333333333333</ele><time>2026-04-10T07:49:37Z</time></trkpt><trkpt lat="44.762369876535324" lon="7.8133679099271545"><ele>312.5</ele><time>2026-04-10T07:49:39Z</time></trkpt><trkpt lat="44.76242003643647" lon="7.813269157902504"><ele>313.66666666666663</ele><time>2026-04-10T07:49:41Z</time></trkpt><trkpt lat="44.762466459092735" lon="7.813181618857332"><ele>314.8333333333333</ele><time>2026-04-10T07:49:43Z</time></trkpt><trkpt lat="44.76251636788368" lon="7.813111926867953"><ele>316.0</ele><time>2026-04-10T07:49:45Z</time></trkpt><trkpt lat="44.762548645304555" lon="7.813021624821634"><ele>316.0</ele><time>2026-04-10T07:49:47Z</time></trkpt><trkpt lat="44.762568019941845" lon="7.8129188628724995"><ele>316.0</ele><time>2026-04-10T07:49:49Z</time></trkpt><trkpt lat="44.76259385375106" lon="7.812782920478658"><ele>316.0</ele><time>2026-04-10T07:49:51Z</time></trkpt><trkpt lat="44.76262581826284" lon="7.812656178812289"><ele>316.0</ele><time>2026-04-10T07:49:53Z</time></trkpt><trkpt lat="44.762634021033975" lon="7.812531382653564"><ele>316.0</ele><time>2026-04-10T07:49:55Z</time></trkpt><trkpt lat="44.762652151588384" lon="7.812397828401275"><ele>316.16666666666663</ele><time>2026-04-10T07:49:57Z</time></trkpt><trkpt lat="44.762679223811894" lon="7.812272460437899"><ele>316.3333333333333</ele><time>2026-04-10T07:49:59Z</time></trkpt><trkpt lat="44.76271090668833" lon="7.812168256799439"><ele>316.5</ele><time>2026-04-10T07:50:01Z</time></trkpt><trkpt lat="44.76277409634111" lon="7.812141796919553"><ele>316.6666666666667</ele><time>2026-04-10T07:50:03Z</time></trkpt><trkpt lat="44.76284347746573" lon="7.812127754281154"><ele>316.83333333333337</ele><time>2026-04-10T07:50:05Z</time></trkpt><trkpt lat="44.76293412682804" lon="7.812089807613312"><ele>317.0</ele><time>2026-04-10T07:50:07Z</time></trkpt><trkpt lat="44.76302802247895" lon="7.812000572070177"><ele>315.4</ele><time>2026-04-10T07:50:09Z</time></trkpt><trkpt lat="44.7631143304706" lon="7.811895885219712"><ele>313.79999999999995</ele><time>2026-04-10T07:50:11Z</time></trkpt><trkpt lat="44.763201929451846" lon="7.8117836583153055"><ele>312.2</ele><time>2026-04-10T07:50:13Z</time></trkpt><trkpt lat="44.76327872428659" lon="7.811650836854704"><ele>310.59999999999997</ele><time>2026-04-10T07:50:15Z</time></trkpt><trkpt lat="44.763318725830246" lon="7.811550718862638"><ele>309.0</ele><time>2026-04-10T07:50:16Z</time></trkpt><trkpt lat="44.7634021289426" lon="7.811420220926416"><ele>308.8333333333333</ele><time>2026-04-10T07:50:18Z</time></trkpt><trkpt lat="44.76345916430155" lon="7.81128514933555"><ele>308.6666666666667</ele><time>2026-04-10T07:50:20Z</time></trkpt><trkpt lat="44.763503078695045" lon="7.811165162704465"><ele>308.5</ele><time>2026-04-10T07:50:22Z</time></trkpt><trkpt lat="44.76353258068802" lon="7.811073414153842"><ele>308.33333333333337</ele><time>2026-04-10T07:50:24Z</time></trkpt><trkpt lat="44.76357680441167" lon="7.810998078320446"><ele>308.1666666666667</ele><time>2026-04-10T07:50:26Z</time></trkpt><trkpt lat="44.763620795286236" lon="7.810927867557164"><ele>308.0</ele><time>2026-04-10T07:50:28Z</time></trkpt><trkpt lat="44.76365441982383" lon="7.8108358242776035"><ele>307.6666666666667</ele><time>2026-04-10T07:50:30Z</time></trkpt><trkpt lat="44.76370017994084" lon="7.8107426238011906"><ele>307.33333333333337</ele><time>2026-04-10T07:50:32Z</time></trkpt><trkpt lat="44.763744303115274" lon="7.810637978822119"><ele>307.0</ele><time>2026-04-10T07:50:34Z</time></trkpt><trkpt lat="44.76380252282702" lon="7.810549451638958"><ele>306.6666666666667</ele><time>2026-04-10T07:50:36Z</time></trkpt><trkpt lat="44.763856993318264" lon="7.810452076627548"><ele>306.3333333333333</ele><time>2026-04-10T07:50:38Z</time></trkpt><trkpt lat="44.763909464601824" lon="7.810362880443448"><ele>306.0</ele><time>2026-04-10T07:50:40Z</time></trkpt><trkpt lat="44.763960649053736" lon="7.810242045735061"><ele>306.3333333333333</ele><time>2026-04-10T07:50:42Z</time></trkpt><trkpt lat="44.76401203921427" lon="7.8101106388559955"><ele>306.6666666666667</ele><time>2026-04-10T07:50:44Z</time></trkpt><trkpt lat="44.764061010035746" lon="7.810010422686796"><ele>307.0</ele><time>2026-04-10T07:50:46Z</time></trkpt><trkpt lat="44.76410644176242" lon="7.809918520479625"><ele>307.33333333333337</ele><time>2026-04-10T07:50:48Z</time></trkpt><trkpt lat="44.76416581301304" lon="7.809867866196106"><ele>307.6666666666667</ele><time>2026-04-10T07:50:50Z</time></trkpt><trkpt lat="44.764225436149815" lon="7.809782198500011"><ele>308.0</ele><time>2026-04-10T07:50:52Z</time></trkpt><trkpt lat="44.76428523401357" lon="7.809675692110156"><ele>308.0</ele><time>2026-04-10T07:50:54Z</time></trkpt><trkpt lat="44.764352145528115" lon="7.809585783321299"><ele>308.0</ele><time>2026-04-10T07:50:56Z</time></trkpt><trkpt lat="44.76441502155866" lon="7.809469641787669"><ele>308.0</ele><time>2026-04-10T07:50:58Z</time></trkpt><trkpt lat="44.76447968221515" lon="7.809357316403466"><ele>308.0</ele><time>2026-04-10T07:51:00Z</time></trkpt><trkpt lat="44.76454323284364" lon="7.809231391666257"><ele>308.0</ele><time>2026-04-10T07:51:02Z</time></trkpt><trkpt lat="44.76460845077625" lon="7.809107338151213"><ele>307.4</ele><time>2026-04-10T07:51:04Z</time></trkpt><trkpt lat="44.76468835799203" lon="7.808986339540506"><ele>306.8</ele><time>2026-04-10T07:51:06Z</time></trkpt><trkpt lat="44.76476976175598" lon="7.808864888968871"><ele>306.2</ele><time>2026-04-10T07:51:08Z</time></trkpt><trkpt lat="44.76484339544705" lon="7.808737346180871"><ele>305.6</ele><time>2026-04-10T07:51:10Z</time></trkpt><trkpt lat="44.76490271419274" lon="7.808646210396734"><ele>305.0</ele><time>2026-04-10T07:51:12Z</time></trkpt><trkpt lat="44.76497880328328" lon="7.808532021080142"><ele>305.4</ele><time>2026-04-10T07:51:14Z</time></trkpt><trkpt lat="44.765037708210386" lon="7.808425447293617"><ele>305.8</ele><time>2026-04-10T07:51:16Z</time></trkpt><trkpt lat="44.765106322328286" lon="7.808308790269782"><ele>306.2</ele><time>2026-04-10T07:51:18Z</time></trkpt><trkpt lat="44.76517724181521" lon="7.8082051859576564"><ele>306.6</ele><time>2026-04-10T07:51:20Z</time></trkpt><trkpt lat="44.765241160255435" lon="7.808108019045932"><ele>307.0</ele><time>2026-04-10T07:51:22Z</time></trkpt><trkpt lat="44.76529176402023" lon="7.807993422948349"><ele>306.2</ele><time>2026-04-10T07:51:24Z</time></trkpt><trkpt lat="44.765340597374546" lon="7.807888004792653"><ele>305.4</ele><time>2026-04-10T07:51:26Z</time></trkpt><trkpt lat="44.7653861478001" lon="7.807788932696098"><ele>304.6</ele><time>2026-04-10T07:51:28Z</time></trkpt><trkpt lat="44.76544059639738" lon="7.807660925010861"><ele>303.8</ele><time>2026-04-10T07:51:30Z</time></trkpt><trkpt lat="44.765508467926054" lon="7.807555863366908"><ele>303.0</ele><time>2026-04-10T07:51:32Z</time></trkpt><trkpt lat="44.765572894287025" lon="7.807430549747457"><ele>303.0</ele><time>2026-04-10T07:51:34Z</time></trkpt><trkpt lat="44.76563534848205" lon="7.807304039478856"><ele>303.0</ele><time>2026-04-10T07:51:36Z</time></trkpt><trkpt lat="44.765695437391635" lon="7.807212693155683"><ele>303.0</ele><time>2026-04-10T07:51:38Z</time></trkpt><trkpt lat="44.76575594279983" lon="7.8071097120049044"><ele>303.0</ele><time>2026-04-10T07:51:40Z</time></trkpt><trkpt lat="44.76580967071538" lon="7.807002695574633"><ele>303.0</ele><time>2026-04-10T07:51:42Z</time></trkpt><trkpt lat="44.765852597175474" lon="7.806883616868063"><ele>303.2</ele><time>2026-04-10T07:51:44Z</time></trkpt><trkpt lat="44.76591480168257" lon="7.8067377832238005"><ele>303.4</ele><time>2026-04-10T07:51:46Z</time></trkpt><trkpt lat="44.76594842151055" lon="7.806586083676074"><ele>303.59999999999997</ele><time>2026-04-10T07:51:48Z</time></trkpt><trkpt lat="44.765940444516936" lon="7.806463739996898"><ele>303.8</ele><time>2026-04-10T07:51:50Z</time></trkpt><trkpt lat="44.76594207560575" lon="7.806339003474296"><ele>304.0</ele><time>2026-04-10T07:51:52Z</time></trkpt><trkpt lat="44.765950918082204" lon="7.806192847912614"><ele>304.0</ele><time>2026-04-10T07:51:54Z</time></trkpt><trkpt lat="44.76601679492983" lon="7.806083598352395"><ele>304.0</ele><time>2026-04-10T07:51:56Z</time></trkpt><trkpt lat="44.766097080381016" lon="7.806012127390591"><ele>304.0</ele><time>2026-04-10T07:51:58Z</time></trkpt><trkpt lat="44.76617222435983" lon="7.805939422129552"><ele>304.0</ele><time>2026-04-10T07:52:00Z</time></trkpt><trkpt lat="44.76623720437837" lon="7.80584728232531"><ele>304.0</ele><time>2026-04-10T07:52:02Z</time></trkpt><trkpt lat="44.766305809959526" lon="7.805741199563101"><ele>303.59999999999997</ele><time>2026-04-10T07:52:04Z</time></trkpt><trkpt lat="44.766365907691345" lon="7.805637336213856"><ele>303.2</ele><time>2026-04-10T07:52:06Z</time></trkpt><trkpt lat="44.766420541329914" lon="7.805535245043701"><ele>302.79999999999995</ele><time>2026-04-10T07:52:08Z</time></trkpt><trkpt lat="44.7664905209994" lon="7.80543568020123"><ele>302.4</ele><time>2026-04-10T07:52:10Z</time></trkpt><trkpt lat="44.766569239435626" lon="7.805342144220824"><ele>302.0</ele><time>2026-04-10T07:52:12Z</time></trkpt><trkpt lat="44.7666598862695" lon="7.805313079489327"><ele>302.0</ele><time>2026-04-10T07:52:14Z</time></trkpt><trkpt lat="44.766722434167804" lon="7.805430376370632"><ele>302.0</ele><time>2026-04-10T07:52:16Z</time></trkpt><trkpt lat="44.76680681376239" lon="7.805526931900776"><ele>302.0</ele><time>2026-04-10T07:52:18Z</time></trkpt><trkpt lat="44.76690772932184" lon="7.8055579042680785"><ele>302.0</ele><time>2026-04-10T07:52:20Z</time></trkpt><trkpt lat="44.76701823385682" lon="7.805514017220478"><ele>302.0</ele><time>2026-04-10T07:52:22Z</time></trkpt><trkpt lat="44.76708747361208" lon="7.805410298879843"><ele>301.8</ele><time>2026-04-10T07:52:24Z</time></trkpt><trkpt lat="44.767171883344346" lon="7.805315091252838"><ele>301.6</ele><time>2026-04-10T07:52:26Z</time></trkpt><trkpt lat="44.76726899561814" lon="7.8052305031122975"><ele>301.40000000000003</ele><time>2026-04-10T07:52:28Z</time></trkpt><trkpt lat="44.76736236567945" lon="7.805130887915148"><ele>301.2</ele><time>2026-04-10T07:52:30Z</time></trkpt><trkpt lat="44.76744233843344" lon="7.805026585852261"><ele>301.0</ele><time>2026-04-10T07:52:32Z</time></trkpt><trkpt lat="44.7675260124984" lon="7.8049482683413345"><ele>301.0</ele><time>2026-04-10T07:52:34Z</time></trkpt><trkpt lat="44.767602931691684" lon="7.804874545623301"><ele>301.0</ele><time>2026-04-10T07:52:36Z</time></trkpt><trkpt lat="44.767680576272646" lon="7.80478568248345"><ele>301.0</ele><time>2026-04-10T07:52:38Z</time></trkpt><trkpt lat="44.76776612551714" lon="7.804702901557216"><ele>301.0</ele><time>2026-04-10T07:52:40Z</time></trkpt><trkpt lat="44.767829936414714" lon="7.804583434001919"><ele>301.0</ele><time>2026-04-10T07:52:42Z</time></trkpt><trkpt lat="44.7678990711879" lon="7.804499241108641"><ele>300.66666666666663</ele><time>2026-04-10T07:52:44Z</time></trkpt><trkpt lat="44.76795238044323" lon="7.804396262508529"><ele>300.3333333333333</ele><time>2026-04-10T07:52:46Z</time></trkpt><trkpt lat="44.76798671771245" lon="7.804295105888023"><ele>300.0</ele><time>2026-04-10T07:52:48Z</time></trkpt><trkpt lat="44.76800705627262" lon="7.804159994380512"><ele>299.6666666666667</ele><time>2026-04-10T07:52:50Z</time></trkpt><trkpt lat="44.768026853065955" lon="7.804074797562735"><ele>299.33333333333337</ele><time>2026-04-10T07:52:51Z</time></trkpt><trkpt lat="44.76805446461517" lon="7.8039182010254455"><ele>299.0</ele><time>2026-04-10T07:52:53Z</time></trkpt><trkpt lat="44.76808234541779" lon="7.803772634192741"><ele>299.0</ele><time>2026-04-10T07:52:55Z</time></trkpt><trkpt lat="44.76810468179658" lon="7.803625447038495"><ele>299.0</ele><time>2026-04-10T07:52:57Z</time></trkpt><trkpt lat="44.76812725959451" lon="7.803490656255743"><ele>299.0</ele><time>2026-04-10T07:52:59Z</time></trkpt><trkpt lat="44.76815351993562" lon="7.803360644674526"><ele>299.0</ele><time>2026-04-10T07:53:01Z</time></trkpt><trkpt lat="44.76817403488902" lon="7.803222054514257"><ele>299.0</ele><time>2026-04-10T07:53:03Z</time></trkpt><trkpt lat="44.768176410752154" lon="7.803067070031964"><ele>298.8</ele><time>2026-04-10T07:53:05Z</time></trkpt><trkpt lat="44.768192108551446" lon="7.802940897175156"><ele>298.59999999999997</ele><time>2026-04-10T07:53:07Z</time></trkpt><trkpt lat="44.76822205246794" lon="7.802811150402219"><ele>298.4</ele><time>2026-04-10T07:53:09Z</time></trkpt><trkpt lat="44.76829252261976" lon="7.8027098131492325"><ele>298.2</ele><time>2026-04-10T07:53:11Z</time></trkpt><trkpt lat="44.76839190753469" lon="7.802677848611646"><ele>298.0</ele><time>2026-04-10T07:53:13Z</time></trkpt><trkpt lat="44.76850173395206" lon="7.802691629914252"><ele>298.0</ele><time>2026-04-10T07:53:15Z</time></trkpt><trkpt lat="44.76856454767126" lon="7.80269808573301"><ele>298.0</ele><time>2026-04-10T07:53:16Z</time></trkpt><trkpt lat="44.76866905834102" lon="7.802661348832192"><ele>298.0</ele><time>2026-04-10T07:53:18Z</time></trkpt><trkpt lat="44.76871577870789" lon="7.802559185324745"><ele>298.0</ele><time>2026-04-10T07:53:20Z</time></trkpt><trkpt lat="44.76874542956448" lon="7.80241895252361"><ele>298.0</ele><time>2026-04-10T07:53:22Z</time></trkpt><trkpt lat="44.768758306696576" lon="7.802272828004842"><ele>298.0</ele><time>2026-04-10T07:53:24Z</time></trkpt><trkpt lat="44.768761826529335" lon="7.802134447711996"><ele>298.0</ele><time>2026-04-10T07:53:26Z</time></trkpt><trkpt lat="44.76876517484191" lon="7.801989119717474"><ele>298.0</ele><time>2026-04-10T07:53:28Z</time></trkpt><trkpt lat="44.76877155497571" lon="7.8018419915024"><ele>298.0</ele><time>2026-04-10T07:53:30Z</time></trkpt><trkpt lat="44.76877274075367" lon="7.801687564381227"><ele>298.0</ele><time>2026-04-10T07:53:32Z</time></trkpt><trkpt lat="44.76878033955516" lon="7.801544693322898"><ele>297.6</ele><time>2026-04-10T07:53:34Z</time></trkpt><trkpt lat="44.76878401461242" lon="7.801407036431605"><ele>297.20000000000005</ele><time>2026-04-10T07:53:36Z</time></trkpt><trkpt lat="44.76878466234442" lon="7.801279473518811"><ele>296.8</ele><time>2026-04-10T07:53:38Z</time></trkpt><trkpt lat="44.76879072302251" lon="7.801155214234521"><ele>296.40000000000003</ele><time>2026-04-10T07:53:40Z</time></trkpt><trkpt lat="44.76879955846233" lon="7.801013145216998"><ele>296.0</ele><time>2026-04-10T07:53:42Z</time></trkpt><trkpt lat="44.76882015804622" lon="7.800876184445626"><ele>296.0</ele><time>2026-04-10T07:53:44Z</time></trkpt><trkpt lat="44.768819681257064" lon="7.8007525810604665"><ele>296.0</ele><time>2026-04-10T07:53:46Z</time></trkpt><trkpt lat="44.76884086876329" lon="7.800642704649367"><ele>296.0</ele><time>2026-04-10T07:53:48Z</time></trkpt><trkpt lat="44.76886977056007" lon="7.800498423810003"><ele>296.0</ele><time>2026-04-10T07:53:50Z</time></trkpt><trkpt lat="44.76889938950149" lon="7.800373422690515"><ele>296.0</ele><time>2026-04-10T07:53:52Z</time></trkpt><trkpt lat="44.768932124401154" lon="7.800264752053276"><ele>295.6</ele><time>2026-04-10T07:53:54Z</time></trkpt><trkpt lat="44.76895070314049" lon="7.800133429937421"><ele>295.20000000000005</ele><time>2026-04-10T07:53:56.001Z</time></trkpt><trkpt lat="44.76898050305246" lon="7.800011194562322"><ele>294.79999999999995</ele><time>2026-04-10T07:53:58.001Z</time></trkpt><trkpt lat="44.769009576094945" lon="7.799898314186687"><ele>294.4</ele><time>2026-04-10T07:54:00.001Z</time></trkpt><trkpt lat="44.7690292111766" lon="7.799753669897926"><ele>294.0</ele><time>2026-04-10T07:54:02.001Z</time></trkpt><trkpt lat="44.769080734276564" lon="7.79963399220561"><ele>294.0</ele><time>2026-04-10T07:54:04.001Z</time></trkpt><trkpt lat="44.76913317648883" lon="7.7995031287752665"><ele>294.0</ele><time>2026-04-10T07:54:06.001Z</time></trkpt><trkpt lat="44.7691902207375" lon="7.799409851810663"><ele>294.0</ele><time>2026-04-10T07:54:08.001Z</time></trkpt><trkpt lat="44.7692321917837" lon="7.7992724632198875"><ele>294.0</ele><time>2026-04-10T07:54:10.001Z</time></trkpt><trkpt lat="44.76928311274884" lon="7.799153390669214"><ele>294.0</ele><time>2026-04-10T07:54:12.001Z</time></trkpt><trkpt lat="44.76930642083882" lon="7.799008464357816"><ele>293.8333333333333</ele><time>2026-04-10T07:54:14.001Z</time></trkpt><trkpt lat="44.76933170661543" lon="7.798872926742366"><ele>293.6666666666667</ele><time>2026-04-10T07:54:16.001Z</time></trkpt><trkpt lat="44.7693698213467" lon="7.798744998422202"><ele>293.5</ele><time>2026-04-10T07:54:18.001Z</time></trkpt><trkpt lat="44.76941248198241" lon="7.798631557616628"><ele>293.33333333333337</ele><time>2026-04-10T07:54:20.001Z</time></trkpt><trkpt lat="44.76944558349314" lon="7.798526732939535"><ele>293.1666666666667</ele><time>2026-04-10T07:54:22Z</time></trkpt><trkpt lat="44.769495736053806" lon="7.798462196375669"><ele>293.0</ele><time>2026-04-10T07:54:24Z</time></trkpt><trkpt lat="44.76955442681675" lon="7.798397495240374"><ele>292.6</ele><time>2026-04-10T07:54:26Z</time></trkpt><trkpt lat="44.76964307412421" lon="7.798365559478323"><ele>292.20000000000005</ele><time>2026-04-10T07:54:28Z</time></trkpt><trkpt lat="44.76973925534769" lon="7.798331591266254"><ele>291.8</ele><time>2026-04-10T07:54:30Z</time></trkpt><trkpt lat="44.76983977051264" lon="7.79829937615937"><ele>291.40000000000003</ele><time>2026-04-10T07:54:32Z</time></trkpt><trkpt lat="44.76993500487444" lon="7.798265701112782"><ele>291.0</ele><time>2026-04-10T07:54:34Z</time></trkpt><trkpt lat="44.77002448338923" lon="7.7982277877930954"><ele>291.0</ele><time>2026-04-10T07:54:36Z</time></trkpt><trkpt lat="44.77011681022451" lon="7.798143911009596"><ele>291.0</ele><time>2026-04-10T07:54:38Z</time></trkpt><trkpt lat="44.77022114416232" lon="7.79809133369269"><ele>291.0</ele><time>2026-04-10T07:54:40Z</time></trkpt><trkpt lat="44.770306463044946" lon="7.798018068545235"><ele>291.0</ele><time>2026-04-10T07:54:42Z</time></trkpt><trkpt lat="44.77038739151278" lon="7.7979584638695405"><ele>291.0</ele><time>2026-04-10T07:54:44Z</time></trkpt><trkpt lat="44.77046181038032" lon="7.797851651196006"><ele>290.8333333333333</ele><time>2026-04-10T07:54:46Z</time></trkpt><trkpt lat="44.77052035991914" lon="7.797736801634222"><ele>290.6666666666667</ele><time>2026-04-10T07:54:48Z</time></trkpt><trkpt lat="44.77056934429523" lon="7.7976407857872845"><ele>290.5</ele><time>2026-04-10T07:54:50Z</time></trkpt><trkpt lat="44.77057889331609" lon="7.797551351189323"><ele>290.33333333333337</ele><time>2026-04-10T07:54:55Z</time></trkpt><trkpt lat="44.77057163652243" lon="7.797646909642888"><ele>290.1666666666667</ele><time>2026-04-10T07:55:15Z</time></trkpt><trkpt lat="44.770649202212496" lon="7.797541471299485"><ele>290.0</ele><time>2026-04-10T07:57:29.999Z</time></trkpt><trkpt lat="44.770708855173396" lon="7.7973997689469385"><ele>290.0</ele><time>2026-04-10T07:57:31.999Z</time></trkpt><trkpt lat="44.770734497515086" lon="7.797314207124219"><ele>290.0</ele><time>2026-04-10T07:57:32.999Z</time></trkpt><trkpt lat="44.77075454344913" lon="7.797209032848208"><ele>290.0</ele><time>2026-04-10T07:57:34.999Z</time></trkpt><trkpt lat="44.77079452952736" lon="7.797087986810373"><ele>290.0</ele><time>2026-04-10T07:57:36.999Z</time></trkpt><trkpt lat="44.77082285708425" lon="7.79694258544824"><ele>290.0</ele><time>2026-04-10T07:57:38.999Z</time></trkpt><trkpt lat="44.77081469153861" lon="7.796830240098833"><ele>290.0</ele><time>2026-04-10T07:57:41.999Z</time></trkpt><trkpt lat="44.770815262797676" lon="7.7966977801039485"><ele>289.8</ele><time>2026-04-10T07:57:44.999Z</time></trkpt><trkpt lat="44.7708355335472" lon="7.796613066669709"><ele>289.6</ele><time>2026-04-10T07:57:46.999Z</time></trkpt><trkpt lat="44.77085294677626" lon="7.796491612915765"><ele>289.4</ele><time>2026-04-10T07:57:48.999Z</time></trkpt><trkpt lat="44.77089480232595" lon="7.796329911572425"><ele>289.2</ele><time>2026-04-10T07:57:50.999Z</time></trkpt><trkpt lat="44.77091939842126" lon="7.796240833579384"><ele>289.0</ele><time>2026-04-10T07:57:51.999Z</time></trkpt><trkpt lat="44.770976254960374" lon="7.796090930383373"><ele>289.0</ele><time>2026-04-10T07:57:53.999Z</time></trkpt><trkpt lat="44.77101081715455" lon="7.796012076662185"><ele>289.0</ele><time>2026-04-10T07:57:54.999Z</time></trkpt><trkpt lat="44.77107399053843" lon="7.795868155000279"><ele>289.0</ele><time>2026-04-10T07:57:56.999Z</time></trkpt><trkpt lat="44.771097754302126" lon="7.795780151733553"><ele>289.0</ele><time>2026-04-10T07:57:57.999Z</time></trkpt><trkpt lat="44.771151050594675" lon="7.795631890741075"><ele>289.0</ele><time>2026-04-10T07:57:59.999Z</time></trkpt><trkpt lat="44.771196635706396" lon="7.795527092429378"><ele>288.16666666666663</ele><time>2026-04-10T07:58:01.999Z</time></trkpt><trkpt lat="44.77125463837248" lon="7.795577540343458"><ele>287.3333333333333</ele><time>2026-04-10T07:58:07.999Z</time></trkpt><trkpt lat="44.771259322480034" lon="7.795694716350434"><ele>286.5</ele><time>2026-04-10T07:58:10.999Z</time></trkpt><trkpt lat="44.77127292703349" lon="7.795598820698018"><ele>285.6666666666667</ele><time>2026-04-10T07:58:19.999Z</time></trkpt><trkpt lat="44.77124677171565" lon="7.795474223732977"><ele>284.83333333333337</ele><time>2026-04-10T07:58:21.999Z</time></trkpt><trkpt lat="44.77121824383858" lon="7.79534596881781"><ele>284.0</ele><time>2026-04-10T07:58:23.999Z</time></trkpt><trkpt lat="44.77116879263828" lon="7.795196870029537"><ele>283.83333333333337</ele><time>2026-04-10T07:58:25.999Z</time></trkpt><trkpt lat="44.771148702419445" lon="7.795015349591186"><ele>283.6666666666667</ele><time>2026-04-10T07:58:27.999Z</time></trkpt><trkpt lat="44.771129642600556" lon="7.794920771777576"><ele>283.5</ele><time>2026-04-10T07:58:28.999Z</time></trkpt><trkpt lat="44.7711066039216" lon="7.7948124178400136"><ele>283.3333333333333</ele><time>2026-04-10T07:58:29.999Z</time></trkpt><trkpt lat="44.77108017860874" lon="7.794710569793319"><ele>283.16666666666663</ele><time>2026-04-10T07:58:30.999Z</time></trkpt><trkpt lat="44.771032410244835" lon="7.7946133463407845"><ele>283.0</ele><time>2026-04-10T07:58:31.999Z</time></trkpt><trkpt lat="44.77098679105667" lon="7.794515706980643"><ele>283.0</ele><time>2026-04-10T07:58:32.999Z</time></trkpt><trkpt lat="44.77094096476469" lon="7.794412302633305"><ele>283.0</ele><time>2026-04-10T07:58:33.999Z</time></trkpt><trkpt lat="44.770890252883916" lon="7.794307301697333"><ele>283.0</ele><time>2026-04-10T07:58:34.999Z</time></trkpt><trkpt lat="44.770870888886876" lon="7.7942022242338425"><ele>283.0</ele><time>2026-04-10T07:58:35.999Z</time></trkpt><trkpt lat="44.77086884761505" lon="7.7940973087074585"><ele>283.0</ele><time>2026-04-10T07:58:36.999Z</time></trkpt><trkpt lat="44.770891533019515" lon="7.793989956158659"><ele>283.0</ele><time>2026-04-10T07:58:37.999Z</time></trkpt><trkpt lat="44.77094029375661" lon="7.793891032012976"><ele>282.3333333333333</ele><time>2026-04-10T07:58:38.999Z</time></trkpt><trkpt lat="44.77099397132494" lon="7.793795544866607"><ele>281.66666666666663</ele><time>2026-04-10T07:58:39.999Z</time></trkpt><trkpt lat="44.77105003276222" lon="7.7937094368797"><ele>281.0</ele><time>2026-04-10T07:58:40.999Z</time></trkpt><trkpt lat="44.771106333790414" lon="7.793623232611469"><ele>280.3333333333333</ele><time>2026-04-10T07:58:41.999Z</time></trkpt><trkpt lat="44.771165226521816" lon="7.793541374589413"><ele>279.6666666666667</ele><time>2026-04-10T07:58:42.999Z</time></trkpt><trkpt lat="44.771221507739924" lon="7.793459482935107"><ele>279.0</ele><time>2026-04-10T07:58:43.999Z</time></trkpt><trkpt lat="44.771272886822935" lon="7.79338056440107"><ele>278.3333333333333</ele><time>2026-04-10T07:58:44.999Z</time></trkpt><trkpt lat="44.7713222690245" lon="7.793306929771759"><ele>277.6666666666667</ele><time>2026-04-10T07:58:45.999Z</time></trkpt><trkpt lat="44.77140673742587" lon="7.7931951811282865"><ele>277.0</ele><time>2026-04-10T07:58:47.999Z</time></trkpt><trkpt lat="44.77146206665486" lon="7.793151024788164"><ele>276.33333333333337</ele><time>2026-04-10T07:58:49.999Z</time></trkpt><trkpt lat="44.7715352053115" lon="7.793214684166446"><ele>275.6666666666667</ele><time>2026-04-10T07:58:52.999Z</time></trkpt><trkpt lat="44.77154699945248" lon="7.793350735510581"><ele>275.0</ele><time>2026-04-10T07:58:54.999Z</time></trkpt><trkpt lat="44.77158283211902" lon="7.793466170662398"><ele>275.4</ele><time>2026-04-10T07:58:56.999Z</time></trkpt><trkpt lat="44.77160108531035" lon="7.793576536443495"><ele>275.8</ele><time>2026-04-10T07:58:58.999Z</time></trkpt><trkpt lat="44.77163580775815" lon="7.793722335011985"><ele>276.2</ele><time>2026-04-10T07:59:00.999Z</time></trkpt><trkpt lat="44.77167571372471" lon="7.793848102905127"><ele>276.6</ele><time>2026-04-10T07:59:02.999Z</time></trkpt><trkpt lat="44.7717388742178" lon="7.7939522130736405"><ele>277.0</ele><time>2026-04-10T07:59:04.999Z</time></trkpt><trkpt lat="44.77179357351934" lon="7.794023819569566"><ele>277.2</ele><time>2026-04-10T07:59:06.999Z</time></trkpt><trkpt lat="44.771861751740666" lon="7.794092525614423"><ele>277.4</ele><time>2026-04-10T07:59:08.999Z</time></trkpt><trkpt lat="44.771936873363124" lon="7.79419874065446"><ele>277.6</ele><time>2026-04-10T07:59:10.999Z</time></trkpt><trkpt lat="44.77201157196082" lon="7.794307088001256"><ele>277.8</ele><time>2026-04-10T07:59:12.999Z</time></trkpt><trkpt lat="44.77209531186099" lon="7.794412024370214"><ele>278.0</ele><time>2026-04-10T07:59:14.999Z</time></trkpt><trkpt lat="44.7721402544127" lon="7.794477889979078"><ele>278.2</ele><time>2026-04-10T07:59:15.999Z</time></trkpt><trkpt lat="44.77221609709296" lon="7.794588957741161"><ele>278.4</ele><time>2026-04-10T07:59:17.999Z</time></trkpt><trkpt lat="44.772287415545264" lon="7.794692710891007"><ele>278.59999999999997</ele><time>2026-04-10T07:59:19.999Z</time></trkpt><trkpt lat="44.7723539317774" lon="7.79481484975777"><ele>278.8</ele><time>2026-04-10T07:59:21.999Z</time></trkpt><trkpt lat="44.77240925115339" lon="7.794941455290842"><ele>279.0</ele><time>2026-04-10T07:59:23.999Z</time></trkpt><trkpt lat="44.77245583784216" lon="7.795054965073989"><ele>278.8</ele><time>2026-04-10T07:59:25.999Z</time></trkpt><trkpt lat="44.77250009912792" lon="7.795182491064294"><ele>278.59999999999997</ele><time>2026-04-10T07:59:27.999Z</time></trkpt><trkpt lat="44.77254326571757" lon="7.795326081201202"><ele>278.4</ele><time>2026-04-10T07:59:29.999Z</time></trkpt><trkpt lat="44.77256420268832" lon="7.795436543355302"><ele>278.2</ele><time>2026-04-10T07:59:31.999Z</time></trkpt><trkpt lat="44.77259008982827" lon="7.795586466798942"><ele>278.0</ele><time>2026-04-10T07:59:33.999Z</time></trkpt><trkpt lat="44.772619221603684" lon="7.795737927588835"><ele>278.0</ele><time>2026-04-10T07:59:35.999Z</time></trkpt><trkpt lat="44.77264676807078" lon="7.795900143227079"><ele>278.0</ele><time>2026-04-10T07:59:37.999Z</time></trkpt><trkpt lat="44.772688497547655" lon="7.796041237451422"><ele>278.0</ele><time>2026-04-10T07:59:39.999Z</time></trkpt><trkpt lat="44.77272534661651" lon="7.796205166590533"><ele>278.0</ele><time>2026-04-10T07:59:41.999Z</time></trkpt><trkpt lat="44.77276239953411" lon="7.7963789549611855"><ele>278.0</ele><time>2026-04-10T07:59:43.999Z</time></trkpt><trkpt lat="44.77279064945072" lon="7.796481853651083"><ele>278.0</ele><time>2026-04-10T07:59:44.999Z</time></trkpt><trkpt lat="44.77281411366075" lon="7.796574689336336"><ele>278.0</ele><time>2026-04-10T07:59:45.999Z</time></trkpt><trkpt lat="44.77283882650042" lon="7.796667746664801"><ele>278.0</ele><time>2026-04-10T07:59:46.999Z</time></trkpt><trkpt lat="44.77287389359265" lon="7.796835778604229"><ele>278.0</ele><time>2026-04-10T07:59:48.999Z</time></trkpt><trkpt lat="44.772892598246564" lon="7.796921718026756"><ele>278.0</ele><time>2026-04-10T07:59:49.999Z</time></trkpt><trkpt lat="44.772911271074214" lon="7.797008179790589"><ele>278.0</ele><time>2026-04-10T07:59:50.999Z</time></trkpt><trkpt lat="44.77292904290485" lon="7.797102083025858"><ele>278.0</ele><time>2026-04-10T07:59:51.999Z</time></trkpt><trkpt lat="44.7729432079183" lon="7.79719504469528"><ele>278.0</ele><time>2026-04-10T07:59:52.999Z</time></trkpt><trkpt lat="44.77295848995754" lon="7.797283113674556"><ele>278.0</ele><time>2026-04-10T07:59:53.999Z</time></trkpt><trkpt lat="44.77297244264385" lon="7.797375933464899"><ele>278.0</ele><time>2026-04-10T07:59:54.999Z</time></trkpt><trkpt lat="44.77297830002126" lon="7.797538624198966"><ele>278.0</ele><time>2026-04-10T07:59:56.999Z</time></trkpt><trkpt lat="44.77299499722859" lon="7.7977088779459605"><ele>278.0</ele><time>2026-04-10T07:59:58.999Z</time></trkpt><trkpt lat="44.77302158735079" lon="7.797858856101954"><ele>278.0</ele><time>2026-04-10T08:00:00.999Z</time></trkpt><trkpt lat="44.773033016735894" lon="7.798000997753101"><ele>278.0</ele><time>2026-04-10T08:00:02.999Z</time></trkpt><trkpt lat="44.77304604823121" lon="7.798159721298923"><ele>278.0</ele><time>2026-04-10T08:00:04.999Z</time></trkpt><trkpt lat="44.77306394940813" lon="7.798320480606811"><ele>278.0</ele><time>2026-04-10T08:00:06.999Z</time></trkpt><trkpt lat="44.773062251942676" lon="7.798462708768523"><ele>278.4</ele><time>2026-04-10T08:00:08.999Z</time></trkpt><trkpt lat="44.773059610174336" lon="7.798606247946029"><ele>278.8</ele><time>2026-04-10T08:00:10.999Z</time></trkpt><trkpt lat="44.77310756717435" lon="7.798744595622155"><ele>279.2</ele><time>2026-04-10T08:00:12.999Z</time></trkpt><trkpt lat="44.77312219022534" lon="7.798886745443029"><ele>279.6</ele><time>2026-04-10T08:00:14.999Z</time></trkpt><trkpt lat="44.7731364112172" lon="7.799046330178164"><ele>280.0</ele><time>2026-04-10T08:00:16.999Z</time></trkpt><trkpt lat="44.773157721851334" lon="7.799223613717667"><ele>280.0</ele><time>2026-04-10T08:00:18.999Z</time></trkpt><trkpt lat="44.77317148576981" lon="7.799382435594812"><ele>280.0</ele><time>2026-04-10T08:00:20.999Z</time></trkpt><trkpt lat="44.77319674225328" lon="7.799549034851235"><ele>280.0</ele><time>2026-04-10T08:00:22.999Z</time></trkpt><trkpt lat="44.77321632195975" lon="7.799706223608191"><ele>280.0</ele><time>2026-04-10T08:00:24.999Z</time></trkpt><trkpt lat="44.773220093669984" lon="7.799863877552839"><ele>280.0</ele><time>2026-04-10T08:00:26.999Z</time></trkpt><trkpt lat="44.773219734450926" lon="7.800014635554951"><ele>280.0</ele><time>2026-04-10T08:00:28.999Z</time></trkpt><trkpt lat="44.77321596732373" lon="7.800176063021705"><ele>280.0</ele><time>2026-04-10T08:00:30.999Z</time></trkpt><trkpt lat="44.77320619720861" lon="7.800337663193675"><ele>280.0</ele><time>2026-04-10T08:00:32.999Z</time></trkpt><trkpt lat="44.77319545126387" lon="7.800478286885257"><ele>280.0</ele><time>2026-04-10T08:00:34.999Z</time></trkpt><trkpt lat="44.77318694836978" lon="7.800589777106936"><ele>280.3333333333333</ele><time>2026-04-10T08:00:36.999Z</time></trkpt><trkpt lat="44.77320510153989" lon="7.800718962701692"><ele>280.66666666666663</ele><time>2026-04-10T08:00:38.999Z</time></trkpt><trkpt lat="44.773230910925314" lon="7.800845724061697"><ele>281.0</ele><time>2026-04-10T08:00:40.999Z</time></trkpt><trkpt lat="44.77325888845558" lon="7.800951105266245"><ele>281.3333333333333</ele><time>2026-04-10T08:00:42.999Z</time></trkpt><trkpt lat="44.77328968515206" lon="7.80105139048263"><ele>281.6666666666667</ele><time>2026-04-10T08:00:44.999Z</time></trkpt><trkpt lat="44.773327458249234" lon="7.801155767977565"><ele>282.0</ele><time>2026-04-10T08:00:46.999Z</time></trkpt><trkpt lat="44.773358918854925" lon="7.801277807596696"><ele>282.1666666666667</ele><time>2026-04-10T08:00:48.999Z</time></trkpt><trkpt lat="44.77337755129891" lon="7.801387409968855"><ele>282.3333333333333</ele><time>2026-04-10T08:00:50.999Z</time></trkpt><trkpt lat="44.773393966928396" lon="7.8015034779788035"><ele>282.5</ele><time>2026-04-10T08:00:52.999Z</time></trkpt><trkpt lat="44.77341246382004" lon="7.80160263272091"><ele>282.66666666666663</ele><time>2026-04-10T08:00:54.999Z</time></trkpt><trkpt lat="44.77344376213388" lon="7.801700638676797"><ele>282.8333333333333</ele><time>2026-04-10T08:00:56.999Z</time></trkpt><trkpt lat="44.77349508918328" lon="7.801796999551754"><ele>283.0</ele><time>2026-04-10T08:00:59.999Z</time></trkpt><trkpt lat="44.773557424420716" lon="7.801841140267449"><ele>284.0</ele><time>2026-04-10T08:01:03Z</time></trkpt><trkpt lat="44.77363111309754" lon="7.801824481456314"><ele>285.0</ele><time>2026-04-10T08:01:06Z</time></trkpt><trkpt lat="44.77370076048384" lon="7.801815220325913"><ele>286.0</ele><time>2026-04-10T08:01:09Z</time></trkpt><trkpt lat="44.77376233414924" lon="7.8018729949874475"><ele>287.0</ele><time>2026-04-10T08:01:13Z</time></trkpt><trkpt lat="44.7737536634633" lon="7.801969380340654"><ele>288.0</ele><time>2026-04-10T08:01:16Z</time></trkpt><trkpt lat="44.77374283936364" lon="7.802088904677816"><ele>289.0</ele><time>2026-04-10T08:01:19Z</time></trkpt><trkpt lat="44.773735235304734" lon="7.802198498808557"><ele>290.0</ele><time>2026-04-10T08:01:22Z</time></trkpt><trkpt lat="44.773735216450376" lon="7.802308074918553"><ele>291.0</ele><time>2026-04-10T08:01:25Z</time></trkpt><trkpt lat="44.77372798571203" lon="7.802398770428011"><ele>292.0</ele><time>2026-04-10T08:01:28Z</time></trkpt><trkpt lat="44.773728729455755" lon="7.802506942038961"><ele>293.0</ele><time>2026-04-10T08:01:31Z</time></trkpt><trkpt lat="44.77373590108205" lon="7.802606923695936"><ele>294.0</ele><time>2026-04-10T08:01:34Z</time></trkpt><trkpt lat="44.77375535079862" lon="7.802697415015624"><ele>295.0</ele><time>2026-04-10T08:01:38Z</time></trkpt><trkpt lat="44.77379122298799" lon="7.802794141979505"><ele>296.0</ele><time>2026-04-10T08:01:42Z</time></trkpt><trkpt lat="44.77383064231848" lon="7.802873506299897"><ele>296.2857142857143</ele><time>2026-04-10T08:01:46Z</time></trkpt><trkpt lat="44.77387733827544" lon="7.802947225212927"><ele>296.57142857142856</ele><time>2026-04-10T08:01:50Z</time></trkpt><trkpt lat="44.77392807591112" lon="7.803009408738302"><ele>296.85714285714283</ele><time>2026-04-10T08:01:53Z</time></trkpt><trkpt lat="44.77398392418148" lon="7.803079945818683"><ele>297.1428571428571</ele><time>2026-04-10T08:01:57Z</time></trkpt><trkpt lat="44.774038295025555" lon="7.803153911350105"><ele>297.4285714285714</ele><time>2026-04-10T08:02:01Z</time></trkpt><trkpt lat="44.774090749333006" lon="7.80324239243118"><ele>297.7142857142857</ele><time>2026-04-10T08:02:05Z</time></trkpt><trkpt lat="44.77415606929693" lon="7.803305467039869"><ele>298.0</ele><time>2026-04-10T08:02:10Z</time></trkpt><trkpt lat="44.774208413162796" lon="7.803372676228921"><ele>298.0</ele><time>2026-04-10T08:02:14Z</time></trkpt><trkpt lat="44.77426023213127" lon="7.80343397964755"><ele>298.0</ele><time>2026-04-10T08:02:18Z</time></trkpt><trkpt lat="44.77431485031908" lon="7.8034988563559065"><ele>298.0</ele><time>2026-04-10T08:02:22Z</time></trkpt><trkpt lat="44.774369489449185" lon="7.803570113650454"><ele>298.0</ele><time>2026-04-10T08:02:27Z</time></trkpt><trkpt lat="44.77442270340439" lon="7.803618259559708"><ele>298.0</ele><time>2026-04-10T08:02:33Z</time></trkpt><trkpt lat="44.774490990827616" lon="7.803640382878601"><ele>298.0</ele><time>2026-04-10T08:02:39Z</time></trkpt><trkpt lat="44.77455602643918" lon="7.803640951524563"><ele>298.0</ele><time>2026-04-10T08:02:45Z</time></trkpt><trkpt lat="44.77461647051435" lon="7.80368046673751"><ele>299.0</ele><time>2026-04-10T08:02:52Z</time></trkpt><trkpt lat="44.77468104080576" lon="7.80369334038676"><ele>300.0</ele><time>2026-04-10T08:02:57Z</time></trkpt><trkpt lat="44.77475003375646" lon="7.803720071681105"><ele>301.0</ele><time>2026-04-10T08:03:03Z</time></trkpt><trkpt lat="44.77481579806968" lon="7.803752148354519"><ele>302.0</ele><time>2026-04-10T08:03:08Z</time></trkpt><trkpt lat="44.774877258118345" lon="7.803785574729858"><ele>303.0</ele><time>2026-04-10T08:03:13Z</time></trkpt><trkpt lat="44.774935522198994" lon="7.803822417265156"><ele>304.0</ele><time>2026-04-10T08:03:16Z</time></trkpt><trkpt lat="44.77501151675924" lon="7.803874182445287"><ele>305.0</ele><time>2026-04-10T08:03:19Z</time></trkpt><trkpt lat="44.775085949659356" lon="7.803924714024897"><ele>305.0</ele><time>2026-04-10T08:03:22Z</time></trkpt><trkpt lat="44.77517260903365" lon="7.803979737992149"><ele>305.0</ele><time>2026-04-10T08:03:25Z</time></trkpt><trkpt lat="44.77523437259483" lon="7.8040113537096785"><ele>305.0</ele><time>2026-04-10T08:03:27Z</time></trkpt><trkpt lat="44.77531507493305" lon="7.804048448183447"><ele>305.0</ele><time>2026-04-10T08:03:30Z</time></trkpt><trkpt lat="44.775410415926146" lon="7.804108009891663"><ele>305.0</ele><time>2026-04-10T08:03:33Z</time></trkpt><trkpt lat="44.77548176272606" lon="7.80416893604559"><ele>305.0</ele><time>2026-04-10T08:03:35Z</time></trkpt><trkpt lat="44.775488209882056" lon="7.804259946527085"><ele>305.0</ele><time>2026-04-10T08:03:37Z</time></trkpt><trkpt lat="44.77545983290973" lon="7.804344195616761"><ele>305.0</ele><time>2026-04-10T08:03:39Z</time></trkpt><trkpt lat="44.77543391607169" lon="7.804433664711023"><ele>305.0</ele><time>2026-04-10T08:03:41Z</time></trkpt><trkpt lat="44.775401764220724" lon="7.804518920429472"><ele>305.0</ele><time>2026-04-10T08:03:43Z</time></trkpt><trkpt lat="44.77537069551031" lon="7.804632871983249"><ele>305.0</ele><time>2026-04-10T08:03:45Z</time></trkpt><trkpt lat="44.775344191791355" lon="7.804741033190924"><ele>305.0</ele><time>2026-04-10T08:03:47Z</time></trkpt><trkpt lat="44.77532662025791" lon="7.804856134365437"><ele>305.0</ele><time>2026-04-10T08:03:49Z</time></trkpt><trkpt lat="44.775309836850724" lon="7.804950003812423"><ele>305.0</ele><time>2026-04-10T08:03:51Z</time></trkpt><trkpt lat="44.77530719196008" lon="7.8050493339826135"><ele>305.0</ele><time>2026-04-10T08:03:53Z</time></trkpt><trkpt lat="44.775315154451754" lon="7.80514528160065"><ele>305.0</ele><time>2026-04-10T08:03:55Z</time></trkpt><trkpt lat="44.77534955379838" lon="7.805269977465412"><ele>305.0</ele><time>2026-04-10T08:03:58Z</time></trkpt><trkpt lat="44.77539493878535" lon="7.805362907546951"><ele>305.0</ele><time>2026-04-10T08:04:00Z</time></trkpt><trkpt lat="44.77543771701738" lon="7.8054758626507255"><ele>304.83333333333337</ele><time>2026-04-10T08:04:02Z</time></trkpt><trkpt lat="44.775477770498306" lon="7.8055883837156275"><ele>304.6666666666667</ele><time>2026-04-10T08:04:04Z</time></trkpt><trkpt lat="44.77550650459949" lon="7.805684915130992"><ele>304.5</ele><time>2026-04-10T08:04:06Z</time></trkpt><trkpt lat="44.775535386470025" lon="7.805793713451657"><ele>304.3333333333333</ele><time>2026-04-10T08:04:08Z</time></trkpt><trkpt lat="44.77554709892635" lon="7.805927034034883"><ele>304.16666666666663</ele><time>2026-04-10T08:04:10Z</time></trkpt><trkpt lat="44.77549349637369" lon="7.806032780303494"><ele>304.0</ele><time>2026-04-10T08:04:12Z</time></trkpt><trkpt lat="44.77544303574398" lon="7.806122068258413"><ele>304.4</ele><time>2026-04-10T08:04:14Z</time></trkpt><trkpt lat="44.775394376536966" lon="7.8062059484058635"><ele>304.79999999999995</ele><time>2026-04-10T08:04:16Z</time></trkpt><trkpt lat="44.77534596338258" lon="7.8063330715263985"><ele>305.20000000000005</ele><time>2026-04-10T08:04:18Z</time></trkpt><trkpt lat="44.775278440316306" lon="7.806441067453225"><ele>305.6</ele><time>2026-04-10T08:04:20Z</time></trkpt><trkpt lat="44.775225007640486" lon="7.806546171405794"><ele>306.0</ele><time>2026-04-10T08:04:22Z</time></trkpt><trkpt lat="44.77515826923521" lon="7.806673611223051"><ele>306.0</ele><time>2026-04-10T08:04:24Z</time></trkpt><trkpt lat="44.77507882555274" lon="7.80678528975614"><ele>306.0</ele><time>2026-04-10T08:04:26Z</time></trkpt><trkpt lat="44.77503787239213" lon="7.806856841880138"><ele>306.0</ele><time>2026-04-10T08:04:27Z</time></trkpt><trkpt lat="44.77499608890563" lon="7.806928138144059"><ele>306.0</ele><time>2026-04-10T08:04:28Z</time></trkpt><trkpt lat="44.77495352300898" lon="7.806998958458479"><ele>306.0</ele><time>2026-04-10T08:04:29Z</time></trkpt><trkpt lat="44.774909654662345" lon="7.807070497940381"><ele>306.0</ele><time>2026-04-10T08:04:30Z</time></trkpt><trkpt lat="44.7748276447001" lon="7.807207034560881"><ele>306.0</ele><time>2026-04-10T08:04:32Z</time></trkpt><trkpt lat="44.77479164879877" lon="7.807281283783118"><ele>306.0</ele><time>2026-04-10T08:04:33Z</time></trkpt><trkpt lat="44.7747132528465" lon="7.807429545789358"><ele>306.0</ele><time>2026-04-10T08:04:35Z</time></trkpt><trkpt lat="44.774667109699635" lon="7.807492692952137"><ele>306.0</ele><time>2026-04-10T08:04:36Z</time></trkpt><trkpt lat="44.77462764341244" lon="7.80756600001539"><ele>306.0</ele><time>2026-04-10T08:04:37Z</time></trkpt><trkpt lat="44.774586367871414" lon="7.8076374368601"><ele>306.0</ele><time>2026-04-10T08:04:38Z</time></trkpt><trkpt lat="44.77454788475297" lon="7.807715492055229"><ele>306.0</ele><time>2026-04-10T08:04:39Z</time></trkpt><trkpt lat="44.774491608310264" lon="7.80782714678359"><ele>306.0</ele><time>2026-04-10T08:04:41Z</time></trkpt><trkpt lat="44.77446003416481" lon="7.807904857024651"><ele>306.0</ele><time>2026-04-10T08:04:42Z</time></trkpt><trkpt lat="44.77439973012556" lon="7.8080430469406705"><ele>306.0</ele><time>2026-04-10T08:04:44Z</time></trkpt><trkpt lat="44.77436664859301" lon="7.808137929230488"><ele>306.0</ele><time>2026-04-10T08:04:45Z</time></trkpt><trkpt lat="44.7743254825423" lon="7.808225711278393"><ele>306.0</ele><time>2026-04-10T08:04:46Z</time></trkpt><trkpt lat="44.774285225110745" lon="7.808305175702363"><ele>306.0</ele><time>2026-04-10T08:04:47Z</time></trkpt><trkpt lat="44.774243112154785" lon="7.808391372324115"><ele>306.0</ele><time>2026-04-10T08:04:48Z</time></trkpt><trkpt lat="44.77420020471897" lon="7.808472771420042"><ele>306.0</ele><time>2026-04-10T08:04:49Z</time></trkpt><trkpt lat="44.7741593466843" lon="7.8085485739217155"><ele>306.0</ele><time>2026-04-10T08:04:50Z</time></trkpt><trkpt lat="44.77412053065798" lon="7.8086250350851065"><ele>306.0</ele><time>2026-04-10T08:04:51Z</time></trkpt><trkpt lat="44.77407607759059" lon="7.808706211056484"><ele>306.0</ele><time>2026-04-10T08:04:52Z</time></trkpt><trkpt lat="44.774016989336985" lon="7.808796900984508"><ele>306.0</ele><time>2026-04-10T08:04:53Z</time></trkpt><trkpt lat="44.77396483319173" lon="7.8088654361680785"><ele>306.0</ele><time>2026-04-10T08:04:54Z</time></trkpt><trkpt lat="44.77391770566395" lon="7.808940337843761"><ele>306.0</ele><time>2026-04-10T08:04:55Z</time></trkpt><trkpt lat="44.773866359134125" lon="7.809012099422368"><ele>306.0</ele><time>2026-04-10T08:04:56Z</time></trkpt><trkpt lat="44.77381843998648" lon="7.809086093766519"><ele>306.0</ele><time>2026-04-10T08:04:57Z</time></trkpt><trkpt lat="44.77377088262493" lon="7.809162395632663"><ele>306.0</ele><time>2026-04-10T08:04:58Z</time></trkpt><trkpt lat="44.7737280123006" lon="7.809234229978414"><ele>306.0</ele><time>2026-04-10T08:04:59Z</time></trkpt><trkpt lat="44.77368358306269" lon="7.809307930470581"><ele>306.0</ele><time>2026-04-10T08:05:00Z</time></trkpt><trkpt lat="44.773640993431066" lon="7.809387144529488"><ele>306.1428571428571</ele><time>2026-04-10T08:05:01Z</time></trkpt><trkpt lat="44.77359873149867" lon="7.809469016484065"><ele>306.2857142857143</ele><time>2026-04-10T08:05:02Z</time></trkpt><trkpt lat="44.773559513152094" lon="7.809547298205469"><ele>306.42857142857144</ele><time>2026-04-10T08:05:03Z</time></trkpt><trkpt lat="44.773525485569884" lon="7.80963891254366"><ele>306.57142857142856</ele><time>2026-04-10T08:05:04Z</time></trkpt><trkpt lat="44.77349311385539" lon="7.809727759629654"><ele>306.7142857142857</ele><time>2026-04-10T08:05:05Z</time></trkpt><trkpt lat="44.773457047106554" lon="7.809821476014652"><ele>306.85714285714283</ele><time>2026-04-10T08:05:06Z</time></trkpt><trkpt lat="44.77342045275277" lon="7.809905937178321"><ele>307.0</ele><time>2026-04-10T08:05:07Z</time></trkpt><trkpt lat="44.773379366651476" lon="7.809990486987665"><ele>307.3333333333333</ele><time>2026-04-10T08:05:08Z</time></trkpt><trkpt lat="44.77333069613081" lon="7.810129510537902"><ele>307.66666666666663</ele><time>2026-04-10T08:05:10Z</time></trkpt><trkpt lat="44.773269347475804" lon="7.810287740413312"><ele>308.0</ele><time>2026-04-10T08:05:12Z</time></trkpt><trkpt lat="44.77323717603855" lon="7.810373305696695"><ele>308.3333333333333</ele><time>2026-04-10T08:05:13Z</time></trkpt><trkpt lat="44.77320529778879" lon="7.810453949283656"><ele>308.6666666666667</ele><time>2026-04-10T08:05:14Z</time></trkpt><trkpt lat="44.7731649713239" lon="7.810532724945898"><ele>309.0</ele><time>2026-04-10T08:05:15Z</time></trkpt><trkpt lat="44.7731265586454" lon="7.810625176950225"><ele>309.0</ele><time>2026-04-10T08:05:16Z</time></trkpt><trkpt lat="44.77309032968682" lon="7.810717920848612"><ele>309.0</ele><time>2026-04-10T08:05:17Z</time></trkpt><trkpt lat="44.77305984561736" lon="7.810805877423722"><ele>309.0</ele><time>2026-04-10T08:05:18Z</time></trkpt><trkpt lat="44.77302754820097" lon="7.8108947764443455"><ele>309.0</ele><time>2026-04-10T08:05:19Z</time></trkpt><trkpt lat="44.77299811418493" lon="7.81097830599753"><ele>309.0</ele><time>2026-04-10T08:05:20Z</time></trkpt><trkpt lat="44.77296890360196" lon="7.811069397163484"><ele>309.0</ele><time>2026-04-10T08:05:21Z</time></trkpt><trkpt lat="44.77290705161057" lon="7.811228121262392"><ele>308.8</ele><time>2026-04-10T08:05:23Z</time></trkpt><trkpt lat="44.772879717421105" lon="7.811308778082262"><ele>308.59999999999997</ele><time>2026-04-10T08:05:24Z</time></trkpt><trkpt lat="44.77282948778905" lon="7.811464559599554"><ele>308.4</ele><time>2026-04-10T08:05:26Z</time></trkpt><trkpt lat="44.772770840667455" lon="7.811620375263412"><ele>308.2</ele><time>2026-04-10T08:05:28Z</time></trkpt><trkpt lat="44.77273702501157" lon="7.811703496058489"><ele>308.0</ele><time>2026-04-10T08:05:29Z</time></trkpt><trkpt lat="44.772670389670395" lon="7.811854980799064"><ele>308.33333333333337</ele><time>2026-04-10T08:05:31Z</time></trkpt><trkpt lat="44.77263007290817" lon="7.811930164341991"><ele>308.6666666666667</ele><time>2026-04-10T08:05:32Z</time></trkpt><trkpt lat="44.772582726601335" lon="7.811999013806822"><ele>309.0</ele><time>2026-04-10T08:05:33Z</time></trkpt><trkpt lat="44.772532509619296" lon="7.812065625145524"><ele>309.3333333333333</ele><time>2026-04-10T08:05:34Z</time></trkpt><trkpt lat="44.77243723117343" lon="7.812173395114993"><ele>309.66666666666663</ele><time>2026-04-10T08:05:36Z</time></trkpt><trkpt lat="44.7723866129319" lon="7.812226872650973"><ele>310.0</ele><time>2026-04-10T08:05:37Z</time></trkpt><trkpt lat="44.772283361237676" lon="7.812327905104949"><ele>310.0</ele><time>2026-04-10T08:05:39Z</time></trkpt><trkpt lat="44.772195791488265" lon="7.812416735037732"><ele>310.0</ele><time>2026-04-10T08:05:41Z</time></trkpt><trkpt lat="44.772144265888606" lon="7.812472183674721"><ele>310.0</ele><time>2026-04-10T08:05:42Z</time></trkpt><trkpt lat="44.77208823540319" lon="7.812528175029124"><ele>310.0</ele><time>2026-04-10T08:05:43Z</time></trkpt><trkpt lat="44.77203445986141" lon="7.812580452196628"><ele>310.0</ele><time>2026-04-10T08:05:44Z</time></trkpt><trkpt lat="44.771977841189425" lon="7.812643170926392"><ele>310.0</ele><time>2026-04-10T08:05:45Z</time></trkpt><trkpt lat="44.771878921200624" lon="7.812775595702824"><ele>310.66666666666663</ele><time>2026-04-10T08:05:47Z</time></trkpt><trkpt lat="44.77182859166408" lon="7.812856943252814"><ele>311.3333333333333</ele><time>2026-04-10T08:05:48Z</time></trkpt><trkpt lat="44.771779692754706" lon="7.812938043859565"><ele>312.0</ele><time>2026-04-10T08:05:49Z</time></trkpt><trkpt lat="44.7717430548209" lon="7.813050841963354"><ele>312.6666666666667</ele><time>2026-04-10T08:05:50Z</time></trkpt><trkpt lat="44.77172892619544" lon="7.813151269651733"><ele>313.33333333333337</ele><time>2026-04-10T08:05:51Z</time></trkpt><trkpt lat="44.77171548765919" lon="7.813263311795438"><ele>314.0</ele><time>2026-04-10T08:05:52Z</time></trkpt><trkpt lat="44.7716984129535" lon="7.8133736672502785"><ele>313.83333333333337</ele><time>2026-04-10T08:05:53Z</time></trkpt><trkpt lat="44.771685018691905" lon="7.813489276142679"><ele>313.6666666666667</ele><time>2026-04-10T08:05:54Z</time></trkpt><trkpt lat="44.77167335639796" lon="7.813605715437858"><ele>313.5</ele><time>2026-04-10T08:05:55Z</time></trkpt><trkpt lat="44.77166456172972" lon="7.813717718471482"><ele>313.3333333333333</ele><time>2026-04-10T08:05:56Z</time></trkpt><trkpt lat="44.77165906203164" lon="7.813830081328875"><ele>313.16666666666663</ele><time>2026-04-10T08:05:57Z</time></trkpt><trkpt lat="44.77165947416887" lon="7.813933237496993"><ele>313.0</ele><time>2026-04-10T08:05:58Z</time></trkpt><trkpt lat="44.77166833208201" lon="7.8140319746185485"><ele>313.0</ele><time>2026-04-10T08:05:59Z</time></trkpt><trkpt lat="44.77168505494221" lon="7.814126221002304"><ele>313.0</ele><time>2026-04-10T08:06:00Z</time></trkpt><trkpt lat="44.77171304960802" lon="7.814220230703062"><ele>313.0</ele><time>2026-04-10T08:06:01Z</time></trkpt><trkpt lat="44.77174457363701" lon="7.814310727510964"><ele>313.0</ele><time>2026-04-10T08:06:02Z</time></trkpt><trkpt lat="44.771778532433" lon="7.814399582151562"><ele>313.0</ele><time>2026-04-10T08:06:03Z</time></trkpt><trkpt lat="44.77181079061149" lon="7.8144908879427515"><ele>313.0</ele><time>2026-04-10T08:06:04Z</time></trkpt><trkpt lat="44.771838880665065" lon="7.814581001145544"><ele>313.0</ele><time>2026-04-10T08:06:05Z</time></trkpt><trkpt lat="44.771864524250724" lon="7.814678719300149"><ele>312.8</ele><time>2026-04-10T08:06:05.999Z</time></trkpt><trkpt lat="44.77187789796409" lon="7.814775970692601"><ele>312.6</ele><time>2026-04-10T08:06:06.999Z</time></trkpt><trkpt lat="44.7718866535663" lon="7.8148708213542335"><ele>312.4</ele><time>2026-04-10T08:06:07.999Z</time></trkpt><trkpt lat="44.77186340752042" lon="7.815040722037977"><ele>312.2</ele><time>2026-04-10T08:06:09.999Z</time></trkpt><trkpt lat="44.77180387340005" lon="7.81518932202683"><ele>312.0</ele><time>2026-04-10T08:06:11.999Z</time></trkpt><trkpt lat="44.77170475734404" lon="7.815286794733734"><ele>312.5</ele><time>2026-04-10T08:06:13.999Z</time></trkpt><trkpt lat="44.77160831703488" lon="7.815374014628638"><ele>313.0</ele><time>2026-04-10T08:06:15.999Z</time></trkpt><trkpt lat="44.77151622902799" lon="7.815457572567762"><ele>313.5</ele><time>2026-04-10T08:06:17.999Z</time></trkpt><trkpt lat="44.77146346902743" lon="7.815518976737032"><ele>314.0</ele><time>2026-04-10T08:06:18.999Z</time></trkpt><trkpt lat="44.77139990091739" lon="7.81557560832725"><ele>314.5</ele><time>2026-04-10T08:06:19.999Z</time></trkpt><trkpt lat="44.771342969521875" lon="7.815640611038362"><ele>315.0</ele><time>2026-04-10T08:06:20.999Z</time></trkpt><trkpt lat="44.77128448934026" lon="7.815690733522"><ele>315.0</ele><time>2026-04-10T08:06:21.999Z</time></trkpt><trkpt lat="44.771231587680894" lon="7.815743372450431"><ele>315.0</ele><time>2026-04-10T08:06:22.999Z</time></trkpt><trkpt lat="44.77113542424733" lon="7.81582941993239"><ele>315.0</ele><time>2026-04-10T08:06:24.999Z</time></trkpt><trkpt lat="44.77103029752117" lon="7.815914760943119"><ele>315.0</ele><time>2026-04-10T08:06:26.999Z</time></trkpt><trkpt lat="44.7709746784661" lon="7.815958634222148"><ele>315.0</ele><time>2026-04-10T08:06:27.999Z</time></trkpt><trkpt lat="44.770912887547254" lon="7.816005601931139"><ele>315.0</ele><time>2026-04-10T08:06:28.999Z</time></trkpt><trkpt lat="44.7708326931029" lon="7.816141055996584"><ele>315.3333333333333</ele><time>2026-04-10T08:06:30.999Z</time></trkpt><trkpt lat="44.7708293513898" lon="7.816253785640655"><ele>315.6666666666667</ele><time>2026-04-10T08:06:31.999Z</time></trkpt><trkpt lat="44.770850256707604" lon="7.816349349708933"><ele>316.0</ele><time>2026-04-10T08:06:32.999Z</time></trkpt><trkpt lat="44.77088196603483" lon="7.81645016863464"><ele>316.33333333333337</ele><time>2026-04-10T08:06:33.999Z</time></trkpt><trkpt lat="44.770918732263674" lon="7.816556280511132"><ele>316.6666666666667</ele><time>2026-04-10T08:06:34.999Z</time></trkpt><trkpt lat="44.7709540593127" lon="7.816659532632613"><ele>317.0</ele><time>2026-04-10T08:06:35.999Z</time></trkpt><trkpt lat="44.77099152861595" lon="7.816761026480648"><ele>316.5</ele><time>2026-04-10T08:06:36.999Z</time></trkpt><trkpt lat="44.77102890345772" lon="7.816857865089488"><ele>316.0</ele><time>2026-04-10T08:06:37.999Z</time></trkpt><trkpt lat="44.77106841314703" lon="7.816957143900513"><ele>315.5</ele><time>2026-04-10T08:06:38.999Z</time></trkpt><trkpt lat="44.77110910669466" lon="7.817059571893591"><ele>315.0</ele><time>2026-04-10T08:06:39.999Z</time></trkpt><trkpt lat="44.771149546859945" lon="7.81715730429757"><ele>314.5</ele><time>2026-04-10T08:06:40.999Z</time></trkpt><trkpt lat="44.77119299504214" lon="7.817261502979479"><ele>314.0</ele><time>2026-04-10T08:06:41.999Z</time></trkpt><trkpt lat="44.77123704423212" lon="7.8173578174593725"><ele>313.99999999999994</ele><time>2026-04-10T08:06:42.999Z</time></trkpt><trkpt lat="44.771278273958174" lon="7.8174458059274885"><ele>314.0</ele><time>2026-04-10T08:06:43.999Z</time></trkpt><trkpt lat="44.77131800723518" lon="7.817532131572968"><ele>314.0</ele><time>2026-04-10T08:06:44.999Z</time></trkpt><trkpt lat="44.77135931187689" lon="7.817619544968301"><ele>314.0</ele><time>2026-04-10T08:06:45.999Z</time></trkpt><trkpt lat="44.77140151754306" lon="7.8177093228272"><ele>314.0</ele><time>2026-04-10T08:06:46.999Z</time></trkpt><trkpt lat="44.771442952546465" lon="7.817796526877276"><ele>313.99999999999994</ele><time>2026-04-10T08:06:47.999Z</time></trkpt><trkpt lat="44.77148363938268" lon="7.817882513903721"><ele>314.0</ele><time>2026-04-10T08:06:48.999Z</time></trkpt><trkpt lat="44.77152365504267" lon="7.817970191236424"><ele>314.33333333333337</ele><time>2026-04-10T08:06:49.999Z</time></trkpt><trkpt lat="44.771562171772956" lon="7.818060127530796"><ele>314.6666666666667</ele><time>2026-04-10T08:06:50.999Z</time></trkpt><trkpt lat="44.77159921783489" lon="7.8181559728392225"><ele>315.0</ele><time>2026-04-10T08:06:51.999Z</time></trkpt><trkpt lat="44.77163261122812" lon="7.818252483541161"><ele>315.3333333333333</ele><time>2026-04-10T08:06:52.999Z</time></trkpt><trkpt lat="44.77166049588016" lon="7.818352953954163"><ele>315.66666666666663</ele><time>2026-04-10T08:06:53.999Z</time></trkpt><trkpt lat="44.77168568481677" lon="7.818449911576529"><ele>316.0</ele><time>2026-04-10T08:06:54.999Z</time></trkpt><trkpt lat="44.77170800381988" lon="7.818547502385411"><ele>316.28571428571433</ele><time>2026-04-10T08:06:55.999Z</time></trkpt><trkpt lat="44.77172873120197" lon="7.818645701315441"><ele>316.57142857142856</ele><time>2026-04-10T08:06:56.999Z</time></trkpt><trkpt lat="44.771749081182115" lon="7.818745958823803"><ele>316.8571428571429</ele><time>2026-04-10T08:06:57.999Z</time></trkpt><trkpt lat="44.77176940029264" lon="7.818845270290879"><ele>317.14285714285717</ele><time>2026-04-10T08:06:58.999Z</time></trkpt><trkpt lat="44.77178717551407" lon="7.8189407286554715"><ele>317.42857142857144</ele><time>2026-04-10T08:06:59.999Z</time></trkpt><trkpt lat="44.771804749778816" lon="7.819035901818006"><ele>317.7142857142857</ele><time>2026-04-10T08:07:00.999Z</time></trkpt><trkpt lat="44.77182148484266" lon="7.819126236527666"><ele>318.0</ele><time>2026-04-10T08:07:01.999Z</time></trkpt><trkpt lat="44.771839365182764" lon="7.81921703143913"><ele>318.4</ele><time>2026-04-10T08:07:02.999Z</time></trkpt><trkpt lat="44.7718582192007" lon="7.819307233582726"><ele>318.8</ele><time>2026-04-10T08:07:03.999Z</time></trkpt><trkpt lat="44.771881571821844" lon="7.819405059198752"><ele>319.2</ele><time>2026-04-10T08:07:04.999Z</time></trkpt><trkpt lat="44.77190298872708" lon="7.819490451307577"><ele>319.6</ele><time>2026-04-10T08:07:05.999Z</time></trkpt><trkpt lat="44.77193714382602" lon="7.819654091264255"><ele>320.0</ele><time>2026-04-10T08:07:07.999Z</time></trkpt><trkpt lat="44.771971990129565" lon="7.819826412950262"><ele>320.2857142857143</ele><time>2026-04-10T08:07:09.999Z</time></trkpt><trkpt lat="44.7719890584496" lon="7.819917027928409"><ele>320.57142857142856</ele><time>2026-04-10T08:07:10.999Z</time></trkpt><trkpt lat="44.772003086518886" lon="7.820011149280021"><ele>320.8571428571429</ele><time>2026-04-10T08:07:11.999Z</time></trkpt><trkpt lat="44.77201675137444" lon="7.8200986462675015"><ele>321.1428571428571</ele><time>2026-04-10T08:07:12.999Z</time></trkpt><trkpt lat="44.772031892985325" lon="7.820191227321611"><ele>321.42857142857144</ele><time>2026-04-10T08:07:13.999Z</time></trkpt><trkpt lat="44.77204727418448" lon="7.820290819353674"><ele>321.7142857142857</ele><time>2026-04-10T08:07:14.999Z</time></trkpt><trkpt lat="44.77205409517915" lon="7.820393169013866"><ele>322.0</ele><time>2026-04-10T08:07:15.999Z</time></trkpt><trkpt lat="44.77205011527359" lon="7.820491003940019"><ele>322.0</ele><time>2026-04-10T08:07:16.999Z</time></trkpt><trkpt lat="44.77202741731719" lon="7.820574637910762"><ele>322.0</ele><time>2026-04-10T08:07:17.999Z</time></trkpt><trkpt lat="44.77194964737969" lon="7.820685179169807"><ele>322.0</ele><time>2026-04-10T08:07:19.999Z</time></trkpt><trkpt lat="44.771837517826796" lon="7.820706099256076"><ele>322.0</ele><time>2026-04-10T08:07:21.999Z</time></trkpt><trkpt lat="44.77177634026776" lon="7.820734935464458"><ele>322.0</ele><time>2026-04-10T08:07:22.999Z</time></trkpt><trkpt lat="44.771669159108406" lon="7.820799836485962"><ele>322.0</ele><time>2026-04-10T08:07:24.999Z</time></trkpt><trkpt lat="44.77159565344021" lon="7.820884330896325"><ele>322.0</ele><time>2026-04-10T08:07:26.999Z</time></trkpt><trkpt lat="44.771557333728126" lon="7.820991327577772"><ele>322.0</ele><time>2026-04-10T08:07:28.999Z</time></trkpt><trkpt lat="44.77153761529402" lon="7.821120088938218"><ele>322.0</ele><time>2026-04-10T08:07:30.999Z</time></trkpt><trkpt lat="44.77154417330272" lon="7.821246511681967"><ele>322.0</ele><time>2026-04-10T08:07:32.999Z</time></trkpt><trkpt lat="44.7715597564645" lon="7.821372576829054"><ele>322.0</ele><time>2026-04-10T08:07:34.999Z</time></trkpt><trkpt lat="44.77159079252176" lon="7.821498031815834"><ele>322.0</ele><time>2026-04-10T08:07:36.999Z</time></trkpt><trkpt lat="44.77162002869545" lon="7.821647846772149"><ele>322.0</ele><time>2026-04-10T08:07:38.999Z</time></trkpt><trkpt lat="44.771649378330565" lon="7.821804848715778"><ele>322.0</ele><time>2026-04-10T08:07:40.999Z</time></trkpt><trkpt lat="44.77165809046219" lon="7.821899319181502"><ele>322.0</ele><time>2026-04-10T08:07:41.999Z</time></trkpt><trkpt lat="44.77167823835026" lon="7.822056496642294"><ele>321.8333333333333</ele><time>2026-04-10T08:07:43.999Z</time></trkpt><trkpt lat="44.771690296011634" lon="7.822156203994373"><ele>321.66666666666663</ele><time>2026-04-10T08:07:44.999Z</time></trkpt><trkpt lat="44.77170540339221" lon="7.822261587496432"><ele>321.5</ele><time>2026-04-10T08:07:45.999Z</time></trkpt><trkpt lat="44.77171385285977" lon="7.822353437589126"><ele>321.3333333333333</ele><time>2026-04-10T08:07:46.999Z</time></trkpt><trkpt lat="44.77172385646067" lon="7.82245110714885"><ele>321.1666666666667</ele><time>2026-04-10T08:07:47.999Z</time></trkpt><trkpt lat="44.77173791563112" lon="7.822635860250682"><ele>321.0</ele><time>2026-04-10T08:07:49.999Z</time></trkpt><trkpt lat="44.771745842597525" lon="7.822735755951445"><ele>321.5</ele><time>2026-04-10T08:07:50.999Z</time></trkpt><trkpt lat="44.77175156562382" lon="7.822849060159777"><ele>322.0</ele><time>2026-04-10T08:07:51.999Z</time></trkpt><trkpt lat="44.771753729873005" lon="7.822959394862226"><ele>322.5</ele><time>2026-04-10T08:07:52.999Z</time></trkpt><trkpt lat="44.771754333215085" lon="7.823068574450591"><ele>323.0</ele><time>2026-04-10T08:07:53.999Z</time></trkpt><trkpt lat="44.77175375409831" lon="7.823175640589001"><ele>323.5</ele><time>2026-04-10T08:07:54.999Z</time></trkpt><trkpt lat="44.77174755109083" lon="7.82328699598193"><ele>324.0</ele><time>2026-04-10T08:07:55.999Z</time></trkpt><trkpt lat="44.77173609782273" lon="7.8233931380120945"><ele>323.79999999999995</ele><time>2026-04-10T08:07:56.999Z</time></trkpt><trkpt lat="44.77171918227306" lon="7.823492674939788"><ele>323.59999999999997</ele><time>2026-04-10T08:07:57.999Z</time></trkpt><trkpt lat="44.7717022913614" lon="7.823593427591526"><ele>323.4</ele><time>2026-04-10T08:07:58.999Z</time></trkpt><trkpt lat="44.77166141019633" lon="7.823762712116562"><ele>323.2</ele><time>2026-04-10T08:08:00.999Z</time></trkpt><trkpt lat="44.77162204153797" lon="7.8239158518083665"><ele>323.0</ele><time>2026-04-10T08:08:02.999Z</time></trkpt><trkpt lat="44.771583240408205" lon="7.824071084578178"><ele>323.00000000000006</ele><time>2026-04-10T08:08:04.999Z</time></trkpt><trkpt lat="44.771563808288995" lon="7.82415717635853"><ele>323.0</ele><time>2026-04-10T08:08:06Z</time></trkpt><trkpt lat="44.77152913672345" lon="7.824321591939343"><ele>323.0</ele><time>2026-04-10T08:08:08Z</time></trkpt><trkpt lat="44.77151407353071" lon="7.824409659750049"><ele>323.0</ele><time>2026-04-10T08:08:09Z</time></trkpt><trkpt lat="44.771489132368714" lon="7.824496673857283"><ele>323.0</ele><time>2026-04-10T08:08:10Z</time></trkpt><trkpt lat="44.77146467853607" lon="7.82458519921097"><ele>323.00000000000006</ele><time>2026-04-10T08:08:11Z</time></trkpt><trkpt lat="44.77144233821965" lon="7.8246691642674095"><ele>323.0</ele><time>2026-04-10T08:08:12Z</time></trkpt><trkpt lat="44.771393790830125" lon="7.824812584667761"><ele>323.0</ele><time>2026-04-10T08:08:14Z</time></trkpt><trkpt lat="44.771361912851475" lon="7.824891471404406"><ele>323.0</ele><time>2026-04-10T08:08:15Z</time></trkpt><trkpt lat="44.77129658155282" lon="7.8250188615673935"><ele>323.0</ele><time>2026-04-10T08:08:17Z</time></trkpt><trkpt lat="44.77122535916248" lon="7.825126860917008"><ele>323.0</ele><time>2026-04-10T08:08:19Z</time></trkpt><trkpt lat="44.77115668792333" lon="7.82525036331457"><ele>323.0</ele><time>2026-04-10T08:08:21Z</time></trkpt><trkpt lat="44.77108699166616" lon="7.825389511654064"><ele>323.0</ele><time>2026-04-10T08:08:23Z</time></trkpt><trkpt lat="44.7710357879023" lon="7.825526431132692"><ele>323.0</ele><time>2026-04-10T08:08:25Z</time></trkpt><trkpt lat="44.77098492112584" lon="7.82564118595108"><ele>323.0</ele><time>2026-04-10T08:08:27Z</time></trkpt><trkpt lat="44.77093845633991" lon="7.825785403147257"><ele>323.0</ele><time>2026-04-10T08:08:29Z</time></trkpt><trkpt lat="44.770869332440135" lon="7.825884433353707"><ele>323.0</ele><time>2026-04-10T08:08:31Z</time></trkpt><trkpt lat="44.77078928200999" lon="7.825933417720713"><ele>324.0</ele><time>2026-04-10T08:08:33Z</time></trkpt><trkpt lat="44.770700923274156" lon="7.8259891025180846"><ele>325.0</ele><time>2026-04-10T08:08:35Z</time></trkpt><trkpt lat="44.77060844182083" lon="7.826022030643064"><ele>326.0</ele><time>2026-04-10T08:08:37Z</time></trkpt><trkpt lat="44.77051834977586" lon="7.826011640102502"><ele>327.0</ele><time>2026-04-10T08:08:39Z</time></trkpt><trkpt lat="44.770422612922346" lon="7.8260209499209425"><ele>328.0</ele><time>2026-04-10T08:08:41Z</time></trkpt><trkpt lat="44.770329765725045" lon="7.826010330237241"><ele>328.0</ele><time>2026-04-10T08:08:43Z</time></trkpt><trkpt lat="44.770217381708605" lon="7.826020237895214"><ele>328.0</ele><time>2026-04-10T08:08:45Z</time></trkpt><trkpt lat="44.77011092729689" lon="7.8260510226091355"><ele>328.0</ele><time>2026-04-10T08:08:47Z</time></trkpt><trkpt lat="44.76999717618978" lon="7.826060925971749"><ele>328.0</ele><time>2026-04-10T08:08:49Z</time></trkpt><trkpt lat="44.76989920802145" lon="7.826071166380676"><ele>328.0</ele><time>2026-04-10T08:08:51Z</time></trkpt><trkpt lat="44.76980325035631" lon="7.826069586901457"><ele>328.25</ele><time>2026-04-10T08:08:53Z</time></trkpt><trkpt lat="44.76969422958149" lon="7.82608416875766"><ele>328.5</ele><time>2026-04-10T08:08:55Z</time></trkpt><trkpt lat="44.76958604843775" lon="7.826114238000283"><ele>328.75</ele><time>2026-04-10T08:08:57Z</time></trkpt><trkpt lat="44.769469149476244" lon="7.826147577532599"><ele>329.0</ele><time>2026-04-10T08:08:59Z</time></trkpt><trkpt lat="44.76934982213541" lon="7.826169629376624"><ele>329.25</ele><time>2026-04-10T08:09:01Z</time></trkpt><trkpt lat="44.76923697549425" lon="7.826186193495967"><ele>329.5</ele><time>2026-04-10T08:09:03Z</time></trkpt><trkpt lat="44.76911927814193" lon="7.826218125969211"><ele>329.75</ele><time>2026-04-10T08:09:05Z</time></trkpt><trkpt lat="44.768996411082114" lon="7.826249718593503"><ele>330.0</ele><time>2026-04-10T08:09:07Z</time></trkpt><trkpt lat="44.768913984167945" lon="7.826307480346049"><ele>330.0</ele><time>2026-04-10T08:09:09Z</time></trkpt><trkpt lat="44.768874436636445" lon="7.826426513529916"><ele>330.0</ele><time>2026-04-10T08:09:11Z</time></trkpt><trkpt lat="44.768905557791534" lon="7.826549576248954"><ele>330.0</ele><time>2026-04-10T08:09:13Z</time></trkpt><trkpt lat="44.768962061341036" lon="7.826664127837184"><ele>330.0</ele><time>2026-04-10T08:09:15Z</time></trkpt><trkpt lat="44.769011120640975" lon="7.826783881227512"><ele>330.0</ele><time>2026-04-10T08:09:17Z</time></trkpt><trkpt lat="44.769066332344075" lon="7.826911642536163"><ele>330.2</ele><time>2026-04-10T08:09:19Z</time></trkpt><trkpt lat="44.76910426737878" lon="7.827037988421702"><ele>330.4</ele><time>2026-04-10T08:09:21Z</time></trkpt><trkpt lat="44.76915075235705" lon="7.827161024544256"><ele>330.6</ele><time>2026-04-10T08:09:23Z</time></trkpt><trkpt lat="44.76919277893548" lon="7.827286570188274"><ele>330.8</ele><time>2026-04-10T08:09:25Z</time></trkpt><trkpt lat="44.7692462493924" lon="7.827416087510197"><ele>331.0</ele><time>2026-04-10T08:09:27Z</time></trkpt><trkpt lat="44.7692698886923" lon="7.827536461193131"><ele>330.8</ele><time>2026-04-10T08:09:29Z</time></trkpt><trkpt lat="44.769273767440296" lon="7.827659586571115"><ele>330.6</ele><time>2026-04-10T08:09:31Z</time></trkpt><trkpt lat="44.769264595958006" lon="7.82778529069139"><ele>330.4</ele><time>2026-04-10T08:09:33Z</time></trkpt><trkpt lat="44.7692833655409" lon="7.827948479580707"><ele>330.2</ele><time>2026-04-10T08:09:35Z</time></trkpt><trkpt lat="44.76930875039011" lon="7.828120346762682"><ele>330.0</ele><time>2026-04-10T08:09:37Z</time></trkpt><trkpt lat="44.7693214226674" lon="7.828218570180141"><ele>330.0</ele><time>2026-04-10T08:09:38Z</time></trkpt><trkpt lat="44.76934055065236" lon="7.828320243014326"><ele>330.0</ele><time>2026-04-10T08:09:39Z</time></trkpt><trkpt lat="44.76936397762848" lon="7.828430414524534"><ele>330.0</ele><time>2026-04-10T08:09:40Z</time></trkpt><trkpt lat="44.769399850523975" lon="7.828525574082675"><ele>330.0</ele><time>2026-04-10T08:09:41Z</time></trkpt><trkpt lat="44.76942840269746" lon="7.828629724050463"><ele>330.0</ele><time>2026-04-10T08:09:42Z</time></trkpt><trkpt lat="44.76945059604871" lon="7.828741827259233"><ele>330.0</ele><time>2026-04-10T08:09:43Z</time></trkpt><trkpt lat="44.76947456209142" lon="7.828854287819641"><ele>329.6666666666667</ele><time>2026-04-10T08:09:44Z</time></trkpt><trkpt lat="44.76949423004827" lon="7.8289766621332175"><ele>329.3333333333333</ele><time>2026-04-10T08:09:45Z</time></trkpt><trkpt lat="44.76951199962742" lon="7.829074775089409"><ele>329.0</ele><time>2026-04-10T08:09:46Z</time></trkpt><trkpt lat="44.769526402363724" lon="7.829176168886954"><ele>328.66666666666663</ele><time>2026-04-10T08:09:47Z</time></trkpt><trkpt lat="44.76954078920032" lon="7.829269230109815"><ele>328.3333333333333</ele><time>2026-04-10T08:09:48Z</time></trkpt><trkpt lat="44.76955925172916" lon="7.829372426655288"><ele>328.0</ele><time>2026-04-10T08:09:49Z</time></trkpt><trkpt lat="44.76957732101948" lon="7.829486714521674"><ele>327.99999999999994</ele><time>2026-04-10T08:09:50Z</time></trkpt><trkpt lat="44.76959148570927" lon="7.829595143206082"><ele>328.0</ele><time>2026-04-10T08:09:51Z</time></trkpt><trkpt lat="44.76960300782983" lon="7.829695768899507"><ele>328.0</ele><time>2026-04-10T08:09:52Z</time></trkpt><trkpt lat="44.769615437076325" lon="7.82979159333503"><ele>328.0</ele><time>2026-04-10T08:09:53Z</time></trkpt><trkpt lat="44.769634793906505" lon="7.829885980185782"><ele>328.0</ele><time>2026-04-10T08:09:54Z</time></trkpt><trkpt lat="44.76965466930078" lon="7.8299778858371605"><ele>327.99999999999994</ele><time>2026-04-10T08:09:55Z</time></trkpt><trkpt lat="44.76967117565135" lon="7.830070166641123"><ele>328.0</ele><time>2026-04-10T08:09:56Z</time></trkpt><trkpt lat="44.769684985265194" lon="7.830169503280616"><ele>328.2857142857143</ele><time>2026-04-10T08:09:57Z</time></trkpt><trkpt lat="44.76969418529587" lon="7.830272311993044"><ele>328.57142857142856</ele><time>2026-04-10T08:09:58Z</time></trkpt><trkpt lat="44.76969947905591" lon="7.830371969673591"><ele>328.8571428571429</ele><time>2026-04-10T08:09:59Z</time></trkpt><trkpt lat="44.769696508143454" lon="7.830465839340927"><ele>329.1428571428571</ele><time>2026-04-10T08:10:00Z</time></trkpt><trkpt lat="44.769685740732655" lon="7.8305561386724545"><ele>329.42857142857144</ele><time>2026-04-10T08:10:01Z</time></trkpt><trkpt lat="44.7696648058785" lon="7.83064153586751"><ele>329.7142857142857</ele><time>2026-04-10T08:10:02Z</time></trkpt><trkpt lat="44.76962296701666" lon="7.830713940127094"><ele>330.0</ele><time>2026-04-10T08:10:03Z</time></trkpt><trkpt lat="44.76952560157842" lon="7.830802439217094"><ele>330.0</ele><time>2026-04-10T08:10:05Z</time></trkpt><trkpt lat="44.76946310255892" lon="7.8308215984984795"><ele>330.0</ele><time>2026-04-10T08:10:06Z</time></trkpt><trkpt lat="44.769346946309106" lon="7.830876155782678"><ele>330.0</ele><time>2026-04-10T08:10:08Z</time></trkpt><trkpt lat="44.76923524573111" lon="7.830930341572591"><ele>330.0</ele><time>2026-04-10T08:10:10Z</time></trkpt><trkpt lat="44.76911780945979" lon="7.830999616019152"><ele>330.0</ele><time>2026-04-10T08:10:12Z</time></trkpt><trkpt lat="44.76905810014326" lon="7.831028804432123"><ele>329.8</ele><time>2026-04-10T08:10:13Z</time></trkpt><trkpt lat="44.768948114378716" lon="7.8310823011606585"><ele>329.6</ele><time>2026-04-10T08:10:15Z</time></trkpt><trkpt lat="44.76885460672557" lon="7.831150795238046"><ele>329.4</ele><time>2026-04-10T08:10:17Z</time></trkpt><trkpt lat="44.76875260487204" lon="7.8312265737837805"><ele>329.2</ele><time>2026-04-10T08:10:19Z</time></trkpt><trkpt lat="44.76865460634536" lon="7.831272211069409"><ele>329.0</ele><time>2026-04-10T08:10:21Z</time></trkpt><trkpt lat="44.76856412002201" lon="7.831336055524937"><ele>329.4</ele><time>2026-04-10T08:10:23Z</time></trkpt><trkpt lat="44.768457850624145" lon="7.831393620781579"><ele>329.79999999999995</ele><time>2026-04-10T08:10:25Z</time></trkpt><trkpt lat="44.76836995720093" lon="7.831452005433428"><ele>330.20000000000005</ele><time>2026-04-10T08:10:27Z</time></trkpt><trkpt lat="44.76830061450648" lon="7.831498853223684"><ele>330.6</ele><time>2026-04-10T08:10:29Z</time></trkpt><trkpt lat="44.76823377986099" lon="7.831560015976728"><ele>331.0</ele><time>2026-04-10T08:10:31Z</time></trkpt><trkpt lat="44.76814523310164" lon="7.831625798479145"><ele>331.0</ele><time>2026-04-10T08:10:33Z</time></trkpt><trkpt lat="44.76807164979199" lon="7.831688818583731"><ele>331.0</ele><time>2026-04-10T08:10:35Z</time></trkpt><trkpt lat="44.767989006604964" lon="7.831755126632856"><ele>331.0</ele><time>2026-04-10T08:10:37Z</time></trkpt><trkpt lat="44.76791365306775" lon="7.831840020244607"><ele>331.0</ele><time>2026-04-10T08:10:39Z</time></trkpt><trkpt lat="44.76784698599557" lon="7.831932639232699"><ele>331.0</ele><time>2026-04-10T08:10:41Z</time></trkpt><trkpt lat="44.767784253089474" lon="7.8320354966812085"><ele>331.0</ele><time>2026-04-10T08:10:43Z</time></trkpt><trkpt lat="44.767717518331146" lon="7.832147055531641"><ele>331.0</ele><time>2026-04-10T08:10:45Z</time></trkpt><trkpt lat="44.767647889118074" lon="7.832249439302273"><ele>331.0</ele><time>2026-04-10T08:10:47Z</time></trkpt><trkpt lat="44.767590333875354" lon="7.832369271306259"><ele>331.0</ele><time>2026-04-10T08:10:49Z</time></trkpt><trkpt lat="44.76751478689278" lon="7.8324795641148794"><ele>331.0</ele><time>2026-04-10T08:10:51Z</time></trkpt><trkpt lat="44.76743725038903" lon="7.832581338674471"><ele>331.6</ele><time>2026-04-10T08:10:53Z</time></trkpt><trkpt lat="44.76736102446279" lon="7.8326876241552705"><ele>332.20000000000005</ele><time>2026-04-10T08:10:55Z</time></trkpt><trkpt lat="44.76728701798536" lon="7.832815249246537"><ele>332.79999999999995</ele><time>2026-04-10T08:10:57Z</time></trkpt><trkpt lat="44.767255519724365" lon="7.832938840280711"><ele>333.4</ele><time>2026-04-10T08:10:59Z</time></trkpt><trkpt lat="44.767236920867994" lon="7.833089898060477"><ele>334.0</ele><time>2026-04-10T08:11:01Z</time></trkpt><trkpt lat="44.76725140491192" lon="7.833242152956718"><ele>334.0</ele><time>2026-04-10T08:11:03Z</time></trkpt><trkpt lat="44.76727258691789" lon="7.833393681433818"><ele>334.0</ele><time>2026-04-10T08:11:05Z</time></trkpt><trkpt lat="44.76729612636238" lon="7.833555011146644"><ele>334.0</ele><time>2026-04-10T08:11:07Z</time></trkpt><trkpt lat="44.767313454865466" lon="7.833648729123726"><ele>334.0</ele><time>2026-04-10T08:11:08Z</time></trkpt><trkpt lat="44.7673241982414" lon="7.83374096356223"><ele>334.0</ele><time>2026-04-10T08:11:09Z</time></trkpt><trkpt lat="44.767334871670556" lon="7.8339135919890275"><ele>334.5</ele><time>2026-04-10T08:11:10.999Z</time></trkpt><trkpt lat="44.76734040344828" lon="7.834095328060962"><ele>335.0</ele><time>2026-04-10T08:11:12.999Z</time></trkpt><trkpt lat="44.76733620836983" lon="7.83419005640872"><ele>335.5</ele><time>2026-04-10T08:11:13.999Z</time></trkpt><trkpt lat="44.76734080750351" lon="7.834289759130553"><ele>336.0</ele><time>2026-04-10T08:11:14.999Z</time></trkpt><trkpt lat="44.76734577145069" lon="7.834384810496166"><ele>336.5</ele><time>2026-04-10T08:11:15.999Z</time></trkpt><trkpt lat="44.76734734719078" lon="7.834480941853743"><ele>337.0</ele><time>2026-04-10T08:11:16.999Z</time></trkpt><trkpt lat="44.76734234770249" lon="7.834579292323783"><ele>337.0</ele><time>2026-04-10T08:11:17.999Z</time></trkpt><trkpt lat="44.76732144748731" lon="7.83472995718757"><ele>337.0</ele><time>2026-04-10T08:11:19.999Z</time></trkpt><trkpt lat="44.76730002055434" lon="7.8348762940623855"><ele>337.0</ele><time>2026-04-10T08:11:21.999Z</time></trkpt><trkpt lat="44.76728324751096" lon="7.835038340626553"><ele>337.0</ele><time>2026-04-10T08:11:23.999Z</time></trkpt><trkpt lat="44.767276268467974" lon="7.835127704500586"><ele>337.0</ele><time>2026-04-10T08:11:24.999Z</time></trkpt><trkpt lat="44.76727216835356" lon="7.835285691797532"><ele>337.0</ele><time>2026-04-10T08:11:26.999Z</time></trkpt><trkpt lat="44.76726403332835" lon="7.835440968110973"><ele>337.0</ele><time>2026-04-10T08:11:28.999Z</time></trkpt><trkpt lat="44.76724851642961" lon="7.835610186458027"><ele>337.0</ele><time>2026-04-10T08:11:30.999Z</time></trkpt><trkpt lat="44.767230959286245" lon="7.835779860909559"><ele>337.0</ele><time>2026-04-10T08:11:32.999Z</time></trkpt><trkpt lat="44.76721428975927" lon="7.835927208214216"><ele>337.0</ele><time>2026-04-10T08:11:34.999Z</time></trkpt><trkpt lat="44.767185296853384" lon="7.836076229189333"><ele>337.0</ele><time>2026-04-10T08:11:36.999Z</time></trkpt><trkpt lat="44.76716259049553" lon="7.836223123347891"><ele>337.0</ele><time>2026-04-10T08:11:38.999Z</time></trkpt><trkpt lat="44.76713548128228" lon="7.836374675986272"><ele>337.0</ele><time>2026-04-10T08:11:40.999Z</time></trkpt><trkpt lat="44.76712502563657" lon="7.836464584867032"><ele>337.0</ele><time>2026-04-10T08:11:41.999Z</time></trkpt><trkpt lat="44.767118101449505" lon="7.836626650004415"><ele>337.0</ele><time>2026-04-10T08:11:43.999Z</time></trkpt><trkpt lat="44.767116250125525" lon="7.836786239238083"><ele>337.0</ele><time>2026-04-10T08:11:45.999Z</time></trkpt><trkpt lat="44.76711726476662" lon="7.836934177566736"><ele>337.0</ele><time>2026-04-10T08:11:47.999Z</time></trkpt><trkpt lat="44.76714105055911" lon="7.8370783190570705"><ele>337.0</ele><time>2026-04-10T08:11:49.999Z</time></trkpt><trkpt lat="44.767208066880336" lon="7.8371954234807335"><ele>337.0</ele><time>2026-04-10T08:11:51.999Z</time></trkpt><trkpt lat="44.76728253305784" lon="7.837330745096482"><ele>336.6</ele><time>2026-04-10T08:11:53.999Z</time></trkpt><trkpt lat="44.767351418677016" lon="7.8374787583864505"><ele>336.20000000000005</ele><time>2026-04-10T08:11:55.999Z</time></trkpt><trkpt lat="44.76741603769821" lon="7.837626935330539"><ele>335.8</ele><time>2026-04-10T08:11:57.999Z</time></trkpt><trkpt lat="44.76745191638682" lon="7.8377048421545465"><ele>335.4</ele><time>2026-04-10T08:11:58.999Z</time></trkpt><trkpt lat="44.7675014599526" lon="7.83779969700364"><ele>335.0</ele><time>2026-04-10T08:11:59.999Z</time></trkpt><trkpt lat="44.76755120681121" lon="7.837905267526374"><ele>334.6</ele><time>2026-04-10T08:12:00.999Z</time></trkpt><trkpt lat="44.767590392712414" lon="7.83800654541231"><ele>334.2</ele><time>2026-04-10T08:12:01.999Z</time></trkpt><trkpt lat="44.76765761876173" lon="7.838132886918447"><ele>333.79999999999995</ele><time>2026-04-10T08:12:02.999Z</time></trkpt><trkpt lat="44.76773045299984" lon="7.8382343826134555"><ele>333.4</ele><time>2026-04-10T08:12:03.999Z</time></trkpt><trkpt lat="44.767802566797585" lon="7.838331166055267"><ele>333.0</ele><time>2026-04-10T08:12:04.999Z</time></trkpt><trkpt lat="44.76788819471492" lon="7.838429785096824"><ele>332.0</ele><time>2026-04-10T08:12:05.999Z</time></trkpt><trkpt lat="44.7679747119816" lon="7.838526673072622"><ele>331.0</ele><time>2026-04-10T08:12:06.999Z</time></trkpt><trkpt lat="44.7680565788999" lon="7.838615254173555"><ele>330.0</ele><time>2026-04-10T08:12:07.999Z</time></trkpt><trkpt lat="44.768143910338786" lon="7.8386987538732225"><ele>329.0</ele><time>2026-04-10T08:12:08.999Z</time></trkpt><trkpt lat="44.76822804471019" lon="7.838778932671504"><ele>328.0</ele><time>2026-04-10T08:12:09.999Z</time></trkpt><trkpt lat="44.76830594977987" lon="7.8388586897676475"><ele>328.0</ele><time>2026-04-10T08:12:10.999Z</time></trkpt><trkpt lat="44.768366098348565" lon="7.83893626025637"><ele>328.0</ele><time>2026-04-10T08:12:11.999Z</time></trkpt><trkpt lat="44.76840931857258" lon="7.839021461952352"><ele>328.0</ele><time>2026-04-10T08:12:12.999Z</time></trkpt><trkpt lat="44.7684291885131" lon="7.83920529855342"><ele>328.0</ele><time>2026-04-10T08:12:14.999Z</time></trkpt><trkpt lat="44.768404480328584" lon="7.839295417551678"><ele>328.0</ele><time>2026-04-10T08:12:15.999Z</time></trkpt><trkpt lat="44.7683825674049" lon="7.83938169196175"><ele>328.0</ele><time>2026-04-10T08:12:16.999Z</time></trkpt><trkpt lat="44.76836130597364" lon="7.839469338114329"><ele>328.79999999999995</ele><time>2026-04-10T08:12:17.999Z</time></trkpt><trkpt lat="44.76832852785541" lon="7.839632257407991"><ele>329.6</ele><time>2026-04-10T08:12:19.999Z</time></trkpt><trkpt lat="44.76829566913519" lon="7.839788874576289"><ele>330.4</ele><time>2026-04-10T08:12:21.999Z</time></trkpt><trkpt lat="44.76827812183911" lon="7.839912833725498"><ele>331.20000000000005</ele><time>2026-04-10T08:12:23.999Z</time></trkpt><trkpt lat="44.76825815706602" lon="7.840018913661572"><ele>332.0</ele><time>2026-04-10T08:12:25.999Z</time></trkpt><trkpt lat="44.76822676890271" lon="7.840125710098314"><ele>332.5</ele><time>2026-04-10T08:12:27.999Z</time></trkpt><trkpt lat="44.76816860810753" lon="7.840226516767621"><ele>333.0</ele><time>2026-04-10T08:12:30.999Z</time></trkpt><trkpt lat="44.76812624366432" lon="7.840328167865507"><ele>333.5</ele><time>2026-04-10T08:12:32.999Z</time></trkpt><trkpt lat="44.76807579676983" lon="7.840411876852949"><ele>334.0</ele><time>2026-04-10T08:12:34.999Z</time></trkpt><trkpt lat="44.76802287605228" lon="7.840492256581523"><ele>334.5</ele><time>2026-04-10T08:12:36.999Z</time></trkpt><trkpt lat="44.76795732632156" lon="7.840609458542123"><ele>335.0</ele><time>2026-04-10T08:12:38.999Z</time></trkpt><trkpt lat="44.76788273666829" lon="7.840700310356"><ele>335.0</ele><time>2026-04-10T08:12:40.999Z</time></trkpt><trkpt lat="44.767805718215" lon="7.840795073895219"><ele>335.0</ele><time>2026-04-10T08:12:42.999Z</time></trkpt><trkpt lat="44.767738048764414" lon="7.840896519357088"><ele>335.0</ele><time>2026-04-10T08:12:44.999Z</time></trkpt><trkpt lat="44.76767069220982" lon="7.841024836112276"><ele>335.0</ele><time>2026-04-10T08:12:46.999Z</time></trkpt><trkpt lat="44.76760330183924" lon="7.841137576534549"><ele>335.0</ele><time>2026-04-10T08:12:48.999Z</time></trkpt><trkpt lat="44.76755379597838" lon="7.84125837562586"><ele>335.5</ele><time>2026-04-10T08:12:50.999Z</time></trkpt><trkpt lat="44.767549867806096" lon="7.8414049919121105"><ele>336.0</ele><time>2026-04-10T08:12:52.999Z</time></trkpt><trkpt lat="44.76755875460652" lon="7.841539484235589"><ele>336.5</ele><time>2026-04-10T08:12:54.999Z</time></trkpt><trkpt lat="44.76757283023376" lon="7.841662673873324"><ele>337.0</ele><time>2026-04-10T08:12:56.999Z</time></trkpt><trkpt lat="44.76759941630134" lon="7.841767790800236"><ele>337.5</ele><time>2026-04-10T08:12:58.999Z</time></trkpt><trkpt lat="44.76762909838475" lon="7.841873987514107"><ele>338.0</ele><time>2026-04-10T08:13:01.999Z</time></trkpt><trkpt lat="44.76765175038512" lon="7.841972405591389"><ele>338.0</ele><time>2026-04-10T08:13:03.999Z</time></trkpt><trkpt lat="44.76767260757739" lon="7.8420692286313125"><ele>338.0</ele><time>2026-04-10T08:13:05.999Z</time></trkpt><trkpt lat="44.767698448606566" lon="7.842153279885265"><ele>338.0</ele><time>2026-04-10T08:13:07.999Z</time></trkpt><trkpt lat="44.7677333150676" lon="7.842270371214738"><ele>338.0</ele><time>2026-04-10T08:13:10.999Z</time></trkpt><trkpt lat="44.76777630961029" lon="7.842344756361011"><ele>338.0</ele><time>2026-04-10T08:13:12.999Z</time></trkpt><trkpt lat="44.767825181897244" lon="7.842459051955874"><ele>338.0</ele><time>2026-04-10T08:13:15.999Z</time></trkpt><trkpt lat="44.76786618723979" lon="7.842556186392725"><ele>338.1666666666667</ele><time>2026-04-10T08:13:17.999Z</time></trkpt><trkpt lat="44.767915472754005" lon="7.8426725888218325"><ele>338.33333333333337</ele><time>2026-04-10T08:13:20.999Z</time></trkpt><trkpt lat="44.767938354500515" lon="7.84277764092427"><ele>338.5</ele><time>2026-04-10T08:13:23.999Z</time></trkpt><trkpt lat="44.76793403271664" lon="7.842896586774072"><ele>338.6666666666667</ele><time>2026-04-10T08:13:26.999Z</time></trkpt><trkpt lat="44.76790660231814" lon="7.843009133511249"><ele>338.8333333333333</ele><time>2026-04-10T08:13:29.999Z</time></trkpt><trkpt lat="44.767854835568826" lon="7.843116416826627"><ele>339.0</ele><time>2026-04-10T08:13:32.999Z</time></trkpt><trkpt lat="44.76780925596959" lon="7.843182541589744"><ele>339.0</ele><time>2026-04-10T08:13:34.999Z</time></trkpt><trkpt lat="44.76775707574849" lon="7.843242316729136"><ele>339.0</ele><time>2026-04-10T08:13:36.999Z</time></trkpt><trkpt lat="44.76769615130409" lon="7.843301831468936"><ele>339.0</ele><time>2026-04-10T08:13:38.999Z</time></trkpt><trkpt lat="44.767640477287976" lon="7.843363377723552"><ele>339.0</ele><time>2026-04-10T08:13:40.999Z</time></trkpt><trkpt lat="44.76758433352548" lon="7.843418064189066"><ele>339.0</ele><time>2026-04-10T08:13:42.999Z</time></trkpt><trkpt lat="44.76751485753865" lon="7.843498918758611"><ele>339.0</ele><time>2026-04-10T08:13:45.999Z</time></trkpt><trkpt lat="44.767437477978376" lon="7.843569183861441"><ele>339.3333333333333</ele><time>2026-04-10T08:13:48.999Z</time></trkpt><trkpt lat="44.76738370765079" lon="7.84362923017695"><ele>339.6666666666667</ele><time>2026-04-10T08:13:50.999Z</time></trkpt><trkpt lat="44.76732643714189" lon="7.84368009551313"><ele>340.0</ele><time>2026-04-10T08:13:52.999Z</time></trkpt><trkpt lat="44.7672684030352" lon="7.843747747654976"><ele>340.33333333333337</ele><time>2026-04-10T08:13:54.999Z</time></trkpt><trkpt lat="44.7672042258046" lon="7.843811641830221"><ele>340.6666666666667</ele><time>2026-04-10T08:13:56.999Z</time></trkpt><trkpt lat="44.767139187730834" lon="7.843878055773423"><ele>341.0</ele><time>2026-04-10T08:13:58.999Z</time></trkpt><trkpt lat="44.76707550322409" lon="7.843947299084649"><ele>341.0</ele><time>2026-04-10T08:14:00.999Z</time></trkpt><trkpt lat="44.76702127838659" lon="7.844013882737371"><ele>341.0</ele><time>2026-04-10T08:14:02.999Z</time></trkpt><trkpt lat="44.766970658357806" lon="7.844076203906779"><ele>341.0</ele><time>2026-04-10T08:14:04.999Z</time></trkpt><trkpt lat="44.766912328078725" lon="7.844134075816864"><ele>341.0</ele><time>2026-04-10T08:14:06.999Z</time></trkpt><trkpt lat="44.7668369068019" lon="7.844222174731548"><ele>341.0</ele><time>2026-04-10T08:14:09.999Z</time></trkpt><trkpt lat="44.76677918629296" lon="7.844283723492461"><ele>341.0</ele><time>2026-04-10T08:14:11.999Z</time></trkpt><trkpt lat="44.7667154865176" lon="7.844344353689702"><ele>341.5</ele><time>2026-04-10T08:14:13.999Z</time></trkpt><trkpt lat="44.76664941998174" lon="7.8444103733327974"><ele>342.0</ele><time>2026-04-10T08:14:15.999Z</time></trkpt><trkpt lat="44.76657912692503" lon="7.844481270283527"><ele>342.5</ele><time>2026-04-10T08:14:17.999Z</time></trkpt><trkpt lat="44.76650708608372" lon="7.844550718938041"><ele>343.0</ele><time>2026-04-10T08:14:19.999Z</time></trkpt><trkpt lat="44.76644027263382" lon="7.844616451326592"><ele>343.5</ele><time>2026-04-10T08:14:21.999Z</time></trkpt><trkpt lat="44.76637067422595" lon="7.844688870270458"><ele>344.0</ele><time>2026-04-10T08:14:23.999Z</time></trkpt><trkpt lat="44.76630221745215" lon="7.8447581766090835"><ele>344.0</ele><time>2026-04-10T08:14:25.999Z</time></trkpt><trkpt lat="44.7662319864847" lon="7.844825525283565"><ele>344.0</ele><time>2026-04-10T08:14:27.999Z</time></trkpt><trkpt lat="44.76615878282967" lon="7.844896884024718"><ele>344.0</ele><time>2026-04-10T08:14:29.999Z</time></trkpt><trkpt lat="44.766084461136565" lon="7.844963321633636"><ele>344.0</ele><time>2026-04-10T08:14:31.999Z</time></trkpt><trkpt lat="44.7660170397741" lon="7.845026637684808"><ele>344.0</ele><time>2026-04-10T08:14:33.999Z</time></trkpt><trkpt lat="44.76594483905417" lon="7.845090495811996"><ele>344.0</ele><time>2026-04-10T08:14:35.999Z</time></trkpt><trkpt lat="44.765881384021114" lon="7.845177605140444"><ele>345.0</ele><time>2026-04-10T08:14:37.999Z</time></trkpt><trkpt lat="44.76585746991698" lon="7.8452909556790456"><ele>346.0</ele><time>2026-04-10T08:14:39.999Z</time></trkpt><trkpt lat="44.765882742395064" lon="7.84539750055547"><ele>347.0</ele><time>2026-04-10T08:14:41.999Z</time></trkpt><trkpt lat="44.76592279602064" lon="7.845507819363321"><ele>348.0</ele><time>2026-04-10T08:14:43.999Z</time></trkpt><trkpt lat="44.76596828006276" lon="7.845630843282926"><ele>349.0</ele><time>2026-04-10T08:14:45.999Z</time></trkpt><trkpt lat="44.766026294953285" lon="7.845745972897111"><ele>348.4</ele><time>2026-04-10T08:14:47.999Z</time></trkpt><trkpt lat="44.766087939849996" lon="7.845857193538828"><ele>347.79999999999995</ele><time>2026-04-10T08:14:49.999Z</time></trkpt><trkpt lat="44.76615824108441" lon="7.845959632155418"><ele>347.20000000000005</ele><time>2026-04-10T08:14:51.999Z</time></trkpt><trkpt lat="44.76622460632524" lon="7.846058822025685"><ele>346.6</ele><time>2026-04-10T08:14:53.999Z</time></trkpt><trkpt lat="44.766283391362656" lon="7.846172759071365"><ele>346.0</ele><time>2026-04-10T08:14:55.999Z</time></trkpt><trkpt lat="44.766344064539474" lon="7.846296096163168"><ele>346.0</ele><time>2026-04-10T08:14:57.999Z</time></trkpt><trkpt lat="44.766405925963184" lon="7.846413451298707"><ele>346.0</ele><time>2026-04-10T08:14:59.999Z</time></trkpt><trkpt lat="44.766467160341456" lon="7.8465521934773275"><ele>346.0</ele><time>2026-04-10T08:15:01.999Z</time></trkpt><trkpt lat="44.76653351611107" lon="7.846692500898652"><ele>346.0</ele><time>2026-04-10T08:15:03.999Z</time></trkpt><trkpt lat="44.76658875715867" lon="7.8468209093983665"><ele>346.0</ele><time>2026-04-10T08:15:05.999Z</time></trkpt><trkpt lat="44.76664739323817" lon="7.846945996291486"><ele>346.4</ele><time>2026-04-10T08:15:07.999Z</time></trkpt><trkpt lat="44.76670838407241" lon="7.847059686170101"><ele>346.8</ele><time>2026-04-10T08:15:09.999Z</time></trkpt><trkpt lat="44.76676097888753" lon="7.847180999192276"><ele>347.2</ele><time>2026-04-10T08:15:12Z</time></trkpt><trkpt lat="44.76682040793953" lon="7.847291800498318"><ele>347.59999999999997</ele><time>2026-04-10T08:15:14Z</time></trkpt><trkpt lat="44.76687611734312" lon="7.847393257792182"><ele>348.0</ele><time>2026-04-10T08:15:16Z</time></trkpt><trkpt lat="44.76688255023143" lon="7.847518615145461"><ele>348.0</ele><time>2026-04-10T08:15:18Z</time></trkpt><trkpt lat="44.76683391227596" lon="7.847609558382885"><ele>348.0</ele><time>2026-04-10T08:15:20Z</time></trkpt><trkpt lat="44.76678532452678" lon="7.8476761876150265"><ele>348.0</ele><time>2026-04-10T08:15:22Z</time></trkpt><trkpt lat="44.76673257692603" lon="7.847727627631344"><ele>348.0</ele><time>2026-04-10T08:15:24Z</time></trkpt><trkpt lat="44.76666500605237" lon="7.8477867122022085"><ele>348.0</ele><time>2026-04-10T08:15:26Z</time></trkpt><trkpt lat="44.76660202970331" lon="7.847846221095898"><ele>348.0</ele><time>2026-04-10T08:15:28Z</time></trkpt><trkpt lat="44.766527971416515" lon="7.847911370443005"><ele>347.6666666666667</ele><time>2026-04-10T08:15:30Z</time></trkpt><trkpt lat="44.76646120671083" lon="7.8479716122926515"><ele>347.3333333333333</ele><time>2026-04-10T08:15:32Z</time></trkpt><trkpt lat="44.766387037062174" lon="7.848046539857287"><ele>347.0</ele><time>2026-04-10T08:15:34Z</time></trkpt><trkpt lat="44.766305356384194" lon="7.84809553667175"><ele>346.66666666666663</ele><time>2026-04-10T08:15:36Z</time></trkpt><trkpt lat="44.76621326704818" lon="7.848094844586871"><ele>346.3333333333333</ele><time>2026-04-10T08:15:38Z</time></trkpt><trkpt lat="44.766122358441244" lon="7.848067109134962"><ele>346.0</ele><time>2026-04-10T08:15:40Z</time></trkpt><trkpt lat="44.76603259488846" lon="7.848025570257081"><ele>345.8</ele><time>2026-04-10T08:15:42Z</time></trkpt><trkpt lat="44.76594765818986" lon="7.847988513213996"><ele>345.6</ele><time>2026-04-10T08:15:44Z</time></trkpt><trkpt lat="44.76586390804742" lon="7.847956362587865"><ele>345.4</ele><time>2026-04-10T08:15:46Z</time></trkpt><trkpt lat="44.765774892512155" lon="7.847920781416125"><ele>345.2</ele><time>2026-04-10T08:15:48Z</time></trkpt><trkpt lat="44.765675663369414" lon="7.847865256521731"><ele>345.0</ele><time>2026-04-10T08:15:50Z</time></trkpt><trkpt lat="44.7655959056567" lon="7.847844181826165"><ele>345.0</ele><time>2026-04-10T08:15:52Z</time></trkpt><trkpt lat="44.765526396850426" lon="7.847879210460047"><ele>345.0</ele><time>2026-04-10T08:15:54Z</time></trkpt><trkpt lat="44.76546787245659" lon="7.847980838655554"><ele>345.0</ele><time>2026-04-10T08:15:57Z</time></trkpt><trkpt lat="44.76540607811571" lon="7.848059471275748"><ele>345.0</ele><time>2026-04-10T08:15:59Z</time></trkpt><trkpt lat="44.76534433080304" lon="7.848140713116684"><ele>345.0</ele><time>2026-04-10T08:16:00.999Z</time></trkpt><trkpt lat="44.76529541342602" lon="7.84826069510897"><ele>345.0</ele><time>2026-04-10T08:16:02.999Z</time></trkpt><trkpt lat="44.76525846656324" lon="7.84838003803341"><ele>344.6</ele><time>2026-04-10T08:16:04.999Z</time></trkpt><trkpt lat="44.76525273764263" lon="7.848523095738228"><ele>344.2</ele><time>2026-04-10T08:16:06.999Z</time></trkpt><trkpt lat="44.76523713317418" lon="7.8486267072030085"><ele>343.79999999999995</ele><time>2026-04-10T08:16:09.999Z</time></trkpt><trkpt lat="44.76527190709945" lon="7.848719349856723"><ele>343.4</ele><time>2026-04-10T08:16:18.999Z</time></trkpt><trkpt lat="44.76536310002999" lon="7.848871535352917"><ele>343.0</ele><time>2026-04-10T08:16:27.999Z</time></trkpt><trkpt lat="44.76540224600306" lon="7.848954229076824"><ele>343.0</ele><time>2026-04-10T08:16:29.999Z</time></trkpt><trkpt lat="44.7654358569409" lon="7.849042008411507"><ele>343.0</ele><time>2026-04-10T08:16:31.999Z</time></trkpt><trkpt lat="44.76548025967231" lon="7.849148682742788"><ele>343.0</ele><time>2026-04-10T08:16:33.999Z</time></trkpt><trkpt lat="44.765513652147774" lon="7.849270380432733"><ele>343.0</ele><time>2026-04-10T08:16:35.999Z</time></trkpt><trkpt lat="44.765548676583066" lon="7.84939885583215"><ele>343.0</ele><time>2026-04-10T08:16:37.999Z</time></trkpt><trkpt lat="44.76558013654854" lon="7.849511707975811"><ele>343.0</ele><time>2026-04-10T08:16:39.999Z</time></trkpt><trkpt lat="44.76561052029187" lon="7.849630776271779"><ele>343.16666666666663</ele><time>2026-04-10T08:16:41.999Z</time></trkpt><trkpt lat="44.765637071219295" lon="7.849756823596018"><ele>343.3333333333333</ele><time>2026-04-10T08:16:43.999Z</time></trkpt><trkpt lat="44.765649022679625" lon="7.8498444670012715"><ele>343.5</ele><time>2026-04-10T08:16:45.999Z</time></trkpt><trkpt lat="44.76562546846446" lon="7.84996287252173"><ele>343.6666666666667</ele><time>2026-04-10T08:16:48.999Z</time></trkpt><trkpt lat="44.76561244021488" lon="7.850064373884368"><ele>343.83333333333337</ele><time>2026-04-10T08:16:50.999Z</time></trkpt><trkpt lat="44.765627760401735" lon="7.850170269715194"><ele>344.0</ele><time>2026-04-10T08:16:53.999Z</time></trkpt><trkpt lat="44.76567702964959" lon="7.850270004552565"><ele>344.0</ele><time>2026-04-10T08:16:55.999Z</time></trkpt><trkpt lat="44.76574982306397" lon="7.850314389124737"><ele>344.0</ele><time>2026-04-10T08:16:58.999Z</time></trkpt><trkpt lat="44.76581350066238" lon="7.850387835668307"><ele>344.0</ele><time>2026-04-10T08:17:01.999Z</time></trkpt><trkpt lat="44.76588038997721" lon="7.8504616510807494"><ele>344.0</ele><time>2026-04-10T08:17:03.999Z</time></trkpt><trkpt lat="44.765959716780436" lon="7.850505222428108"><ele>344.0</ele><time>2026-04-10T08:17:05.999Z</time></trkpt><trkpt lat="44.766045447072486" lon="7.850523254779141"><ele>344.0</ele><time>2026-04-10T08:17:07.999Z</time></trkpt><trkpt lat="44.76612566952994" lon="7.850515088152841"><ele>343.33333333333337</ele><time>2026-04-10T08:17:09.999Z</time></trkpt><trkpt lat="44.766215039449584" lon="7.850465417563258"><ele>342.6666666666667</ele><time>2026-04-10T08:17:11.999Z</time></trkpt><trkpt lat="44.76630802902035" lon="7.850451535515725"><ele>342.0</ele><time>2026-04-10T08:17:13.999Z</time></trkpt><trkpt lat="44.76638462229636" lon="7.85046629253931"><ele>341.3333333333333</ele><time>2026-04-10T08:17:15.999Z</time></trkpt><trkpt lat="44.7664575242175" lon="7.850498173606661"><ele>340.66666666666663</ele><time>2026-04-10T08:17:17.999Z</time></trkpt><trkpt lat="44.76653672358821" lon="7.850542235316917"><ele>340.0</ele><time>2026-04-10T08:17:20.999Z</time></trkpt><trkpt lat="44.766598243602374" lon="7.850568582532586"><ele>340.0</ele><time>2026-04-10T08:17:22.999Z</time></trkpt><trkpt lat="44.766671697858705" lon="7.850591838642846"><ele>340.0</ele><time>2026-04-10T08:17:25.999Z</time></trkpt><trkpt lat="44.766729318191594" lon="7.850642421266194"><ele>340.0</ele><time>2026-04-10T08:17:27.999Z</time></trkpt><trkpt lat="44.766785933472065" lon="7.850711547154109"><ele>340.0</ele><time>2026-04-10T08:17:30.999Z</time></trkpt><trkpt lat="44.76683824004771" lon="7.850793552636383"><ele>340.0</ele><time>2026-04-10T08:17:33.999Z</time></trkpt><trkpt lat="44.766837161970564" lon="7.850901787987934"><ele>340.0</ele><time>2026-04-10T08:17:36.999Z</time></trkpt><trkpt lat="44.76682636176846" lon="7.851008187902287"><ele>340.0</ele><time>2026-04-10T08:17:38.999Z</time></trkpt><trkpt lat="44.76680460938133" lon="7.851131779740457"><ele>340.0</ele><time>2026-04-10T08:17:40.999Z</time></trkpt><trkpt lat="44.766829469919585" lon="7.851234403055385"><ele>340.0</ele><time>2026-04-10T08:17:43.999Z</time></trkpt><trkpt lat="44.76687276577423" lon="7.851305154658575"><ele>340.0</ele><time>2026-04-10T08:17:46.999Z</time></trkpt><trkpt lat="44.76692307818954" lon="7.8513624829719815"><ele>340.0</ele><time>2026-04-10T08:17:49.999Z</time></trkpt><trkpt lat="44.7669440326672" lon="7.851459216628287"><ele>340.0</ele><time>2026-04-10T08:17:55.999Z</time></trkpt><trkpt lat="44.766976085321915" lon="7.851555376085501"><ele>340.0</ele><time>2026-04-10T08:17:59.999Z</time></trkpt><trkpt lat="44.76699486275202" lon="7.851665253902825"><ele>339.66666666666663</ele><time>2026-04-10T08:18:03.999Z</time></trkpt><trkpt lat="44.76698728467668" lon="7.851755270110482"><ele>339.3333333333333</ele><time>2026-04-10T08:18:07.999Z</time></trkpt><trkpt lat="44.76697371624337" lon="7.8518694701315725"><ele>339.0</ele><time>2026-04-10T08:18:12.999Z</time></trkpt><trkpt lat="44.76694978300363" lon="7.851983206077233"><ele>338.6666666666667</ele><time>2026-04-10T08:18:16.999Z</time></trkpt><trkpt lat="44.76693055131915" lon="7.852086513999124"><ele>338.33333333333337</ele><time>2026-04-10T08:18:20.999Z</time></trkpt><trkpt lat="44.76689762370041" lon="7.852207524468058"><ele>338.0</ele><time>2026-04-10T08:18:23.999Z</time></trkpt><trkpt lat="44.76685679568883" lon="7.852294204539839"><ele>338.1666666666667</ele><time>2026-04-10T08:18:26.999Z</time></trkpt><trkpt lat="44.76682511937599" lon="7.8523888375260755"><ele>338.33333333333337</ele><time>2026-04-10T08:18:28.999Z</time></trkpt><trkpt lat="44.766799879916505" lon="7.852512810563356"><ele>338.5</ele><time>2026-04-10T08:18:31.999Z</time></trkpt><trkpt lat="44.766800782620805" lon="7.852613579060465"><ele>338.6666666666667</ele><time>2026-04-10T08:18:33.999Z</time></trkpt><trkpt lat="44.76679722642754" lon="7.852706099035808"><ele>338.8333333333333</ele><time>2026-04-10T08:18:35.999Z</time></trkpt><trkpt lat="44.76677582364011" lon="7.852809227498736"><ele>339.0</ele><time>2026-04-10T08:18:37.999Z</time></trkpt><trkpt lat="44.76674652110017" lon="7.852908300980564"><ele>339.0</ele><time>2026-04-10T08:18:38.999Z</time></trkpt><trkpt lat="44.76672516587788" lon="7.8530114775373345"><ele>339.0</ele><time>2026-04-10T08:18:39.999Z</time></trkpt><trkpt lat="44.76670599130249" lon="7.853111978507799"><ele>339.0</ele><time>2026-04-10T08:18:40.999Z</time></trkpt><trkpt lat="44.76669334527766" lon="7.8532117785865845"><ele>339.0</ele><time>2026-04-10T08:18:41.999Z</time></trkpt><trkpt lat="44.76669107031919" lon="7.853310646924905"><ele>339.0</ele><time>2026-04-10T08:18:42.999Z</time></trkpt><trkpt lat="44.766679764173425" lon="7.853484410067899"><ele>339.0</ele><time>2026-04-10T08:18:44.999Z</time></trkpt><trkpt lat="44.76667092678546" lon="7.8535757093634455"><ele>338.1666666666667</ele><time>2026-04-10T08:18:45.999Z</time></trkpt><trkpt lat="44.766646438452" lon="7.853738628444471"><ele>337.3333333333333</ele><time>2026-04-10T08:18:47.999Z</time></trkpt><trkpt lat="44.76661609285575" lon="7.853853670229867"><ele>336.5</ele><time>2026-04-10T08:18:49.999Z</time></trkpt><trkpt lat="44.76659645305597" lon="7.853948793405189"><ele>335.66666666666663</ele><time>2026-04-10T08:18:52.999Z</time></trkpt><trkpt lat="44.766549754068706" lon="7.8540106202767515"><ele>334.8333333333333</ele><time>2026-04-10T08:18:56.999Z</time></trkpt><trkpt lat="44.76647891004961" lon="7.854018746670798"><ele>334.0</ele><time>2026-04-10T08:19:00.999Z</time></trkpt><trkpt lat="44.76641280806253" lon="7.854044741636244"><ele>334.0</ele><time>2026-04-10T08:19:03.999Z</time></trkpt><trkpt lat="44.766348523107105" lon="7.854064013395767"><ele>334.0</ele><time>2026-04-10T08:19:06.999Z</time></trkpt><trkpt lat="44.766273390535844" lon="7.854076637843135"><ele>334.0</ele><time>2026-04-10T08:19:10.999Z</time></trkpt><trkpt lat="44.76619706493037" lon="7.8540893414136255"><ele>334.0</ele><time>2026-04-10T08:19:12.999Z</time></trkpt><trkpt lat="44.7661365934647" lon="7.854119860219319"><ele>334.0</ele><time>2026-04-10T08:19:14.999Z</time></trkpt><trkpt lat="44.7660820421259" lon="7.854188298369359"><ele>334.0</ele><time>2026-04-10T08:19:17.999Z</time></trkpt><trkpt lat="44.76603315329951" lon="7.854254033382438"><ele>334.0</ele><time>2026-04-10T08:19:20.999Z</time></trkpt><trkpt lat="44.76597261892205" lon="7.854321922061814"><ele>334.16666666666663</ele><time>2026-04-10T08:19:23.999Z</time></trkpt><trkpt lat="44.76590059964568" lon="7.854372865307875"><ele>334.3333333333333</ele><time>2026-04-10T08:19:27.999Z</time></trkpt><trkpt lat="44.76582583821096" lon="7.85441846792342"><ele>334.5</ele><time>2026-04-10T08:19:30.999Z</time></trkpt><trkpt lat="44.76576388175503" lon="7.854458011085645"><ele>334.6666666666667</ele><time>2026-04-10T08:19:32.999Z</time></trkpt><trkpt lat="44.76569371324128" lon="7.854514478620447"><ele>334.83333333333337</ele><time>2026-04-10T08:19:36.999Z</time></trkpt><trkpt lat="44.76562205704162" lon="7.854546960104742"><ele>335.0</ele><time>2026-04-10T08:19:39.999Z</time></trkpt><trkpt lat="44.7655527767225" lon="7.854580775295239"><ele>334.99999999999994</ele><time>2026-04-10T08:19:43.999Z</time></trkpt><trkpt lat="44.76547912276837" lon="7.854635648700293"><ele>335.0</ele><time>2026-04-10T08:19:47.999Z</time></trkpt><trkpt lat="44.76541541950898" lon="7.854653439833847"><ele>335.0</ele><time>2026-04-10T08:19:51.999Z</time></trkpt><trkpt lat="44.76534750840354" lon="7.854666610456572"><ele>335.0</ele><time>2026-04-10T08:19:57.999Z</time></trkpt><trkpt lat="44.76529054074362" lon="7.854618046575574"><ele>335.0</ele><time>2026-04-10T08:20:01.999Z</time></trkpt><trkpt lat="44.76524952908467" lon="7.8545494537717415"><ele>334.99999999999994</ele><time>2026-04-10T08:20:04.999Z</time></trkpt><trkpt lat="44.7652376961445" lon="7.854459750238434"><ele>335.0</ele><time>2026-04-10T08:20:07.999Z</time></trkpt><trkpt lat="44.76522153830629" lon="7.854333438056371"><ele>335.57142857142856</ele><time>2026-04-10T08:20:11.999Z</time></trkpt><trkpt lat="44.765224237795096" lon="7.85423871979423"><ele>336.1428571428571</ele><time>2026-04-10T08:20:13.999Z</time></trkpt><trkpt lat="44.76520993802278" lon="7.854146522957557"><ele>336.71428571428567</ele><time>2026-04-10T08:20:15.999Z</time></trkpt><trkpt lat="44.765159358778774" lon="7.854072179209017"><ele>337.2857142857143</ele><time>2026-04-10T08:20:18.999Z</time></trkpt><trkpt lat="44.76509872189042" lon="7.854010875746382"><ele>337.8571428571429</ele><time>2026-04-10T08:20:21.999Z</time></trkpt><trkpt lat="44.76501942017102" lon="7.8539796738977365"><ele>338.4285714285714</ele><time>2026-04-10T08:20:25.999Z</time></trkpt><trkpt lat="44.764946768253495" lon="7.8539761031740625"><ele>339.0</ele><time>2026-04-10T08:20:29.999Z</time></trkpt><trkpt lat="44.76488555344014" lon="7.853930766793767"><ele>339.8333333333333</ele><time>2026-04-10T08:20:33.999Z</time></trkpt><trkpt lat="44.76483499684335" lon="7.85384895487014"><ele>340.6666666666667</ele><time>2026-04-10T08:20:37.999Z</time></trkpt><trkpt lat="44.76481559883071" lon="7.853737439827629"><ele>341.5</ele><time>2026-04-10T08:20:41.999Z</time></trkpt><trkpt lat="44.76478967517893" lon="7.853653032842513"><ele>342.33333333333337</ele><time>2026-04-10T08:20:44.999Z</time></trkpt><trkpt lat="44.76476194685866" lon="7.8535302400516205"><ele>343.1666666666667</ele><time>2026-04-10T08:20:47.999Z</time></trkpt><trkpt lat="44.76475089882812" lon="7.8534115385863394"><ele>344.0</ele><time>2026-04-10T08:20:50.999Z</time></trkpt><trkpt lat="44.764747721105316" lon="7.853293268706207"><ele>344.28571428571433</ele><time>2026-04-10T08:20:53.999Z</time></trkpt><trkpt lat="44.764747613829186" lon="7.853180337848118"><ele>344.57142857142856</ele><time>2026-04-10T08:20:56.999Z</time></trkpt><trkpt lat="44.764737164142666" lon="7.853092313978137"><ele>344.8571428571429</ele><time>2026-04-10T08:20:58.999Z</time></trkpt><trkpt lat="44.76472746015008" lon="7.85298099221433"><ele>345.14285714285717</ele><time>2026-04-10T08:21:00.999Z</time></trkpt><trkpt lat="44.76469524232467" lon="7.852880002832922"><ele>345.42857142857144</ele><time>2026-04-10T08:21:02.999Z</time></trkpt><trkpt lat="44.76466305605272" lon="7.852786134399038"><ele>345.7142857142857</ele><time>2026-04-10T08:21:04.999Z</time></trkpt><trkpt lat="44.76461165025051" lon="7.852712570582028"><ele>346.0</ele><time>2026-04-10T08:21:07.999Z</time></trkpt><trkpt lat="44.764554937486785" lon="7.852645853815612"><ele>346.16666666666663</ele><time>2026-04-10T08:21:09.999Z</time></trkpt><trkpt lat="44.76448778216854" lon="7.85259027893264"><ele>346.3333333333333</ele><time>2026-04-10T08:21:13.999Z</time></trkpt><trkpt lat="44.76440041849434" lon="7.852584994885904"><ele>346.5</ele><time>2026-04-10T08:21:16.999Z</time></trkpt><trkpt lat="44.76433083568231" lon="7.852602034600961"><ele>346.6666666666667</ele><time>2026-04-10T08:21:19.999Z</time></trkpt><trkpt lat="44.76426272126783" lon="7.852650739938414"><ele>346.83333333333337</ele><time>2026-04-10T08:21:21.999Z</time></trkpt><trkpt lat="44.764201329566056" lon="7.852692141483545"><ele>347.0</ele><time>2026-04-10T08:21:23.999Z</time></trkpt><trkpt lat="44.76414244906965" lon="7.8527679022575185"><ele>348.0</ele><time>2026-04-10T08:21:26.999Z</time></trkpt><trkpt lat="44.764091512190774" lon="7.8528700043837585"><ele>349.0</ele><time>2026-04-10T08:21:29.999Z</time></trkpt><trkpt lat="44.76401828663697" lon="7.852886548778472"><ele>350.0</ele><time>2026-04-10T08:21:32.999Z</time></trkpt><trkpt lat="44.763959028365" lon="7.852855447678073"><ele>351.0</ele><time>2026-04-10T08:21:35.999Z</time></trkpt><trkpt lat="44.76389405215221" lon="7.852829453092593"><ele>352.0</ele><time>2026-04-10T08:21:37.999Z</time></trkpt><trkpt lat="44.76381956216839" lon="7.852808713651247"><ele>353.0</ele><time>2026-04-10T08:21:39.999Z</time></trkpt><trkpt lat="44.76374091242418" lon="7.8527689619638945"><ele>353.0</ele><time>2026-04-10T08:21:42.999Z</time></trkpt><trkpt lat="44.763675328764144" lon="7.85272411557319"><ele>353.0</ele><time>2026-04-10T08:21:45.999Z</time></trkpt><trkpt lat="44.763616729010884" lon="7.852635168052025"><ele>353.0</ele><time>2026-04-10T08:21:48.999Z</time></trkpt><trkpt lat="44.76356798202765" lon="7.852551480784102"><ele>353.0</ele><time>2026-04-10T08:21:50.999Z</time></trkpt><trkpt lat="44.76352106799665" lon="7.852481148121789"><ele>353.0</ele><time>2026-04-10T08:21:52.999Z</time></trkpt><trkpt lat="44.7634561495428" lon="7.852400350131669"><ele>353.0</ele><time>2026-04-10T08:21:55.999Z</time></trkpt><trkpt lat="44.76340055331899" lon="7.852338640903053"><ele>352.5</ele><time>2026-04-10T08:21:57.999Z</time></trkpt><trkpt lat="44.76330340868915" lon="7.852275062056407"><ele>352.0</ele><time>2026-04-10T08:21:59.999Z</time></trkpt><trkpt lat="44.763242349526465" lon="7.852234424613471"><ele>351.5</ele><time>2026-04-10T08:22:00.999Z</time></trkpt><trkpt lat="44.76318076415574" lon="7.852199710901689"><ele>351.0</ele><time>2026-04-10T08:22:01.999Z</time></trkpt><trkpt lat="44.7631118971996" lon="7.852175732209561"><ele>350.5</ele><time>2026-04-10T08:22:02.999Z</time></trkpt><trkpt lat="44.76303725047818" lon="7.852150792333699"><ele>350.0</ele><time>2026-04-10T08:22:03.999Z</time></trkpt><trkpt lat="44.762945807138266" lon="7.852109367618299"><ele>350.0</ele><time>2026-04-10T08:22:04.999Z</time></trkpt><trkpt lat="44.76285605857761" lon="7.852073271673505"><ele>350.0</ele><time>2026-04-10T08:22:05.999Z</time></trkpt><trkpt lat="44.76276525221537" lon="7.852032334980167"><ele>350.0</ele><time>2026-04-10T08:22:06.999Z</time></trkpt><trkpt lat="44.7626731862975" lon="7.851999454520788"><ele>350.0</ele><time>2026-04-10T08:22:07.999Z</time></trkpt><trkpt lat="44.762579888068906" lon="7.85196221210159"><ele>350.0</ele><time>2026-04-10T08:22:08.999Z</time></trkpt><trkpt lat="44.762475817972664" lon="7.851917809251352"><ele>349.6</ele><time>2026-04-10T08:22:09.999Z</time></trkpt><trkpt lat="44.76237324298358" lon="7.8518723571726525"><ele>349.2</ele><time>2026-04-10T08:22:10.999Z</time></trkpt><trkpt lat="44.76226357205319" lon="7.851820200856415"><ele>348.79999999999995</ele><time>2026-04-10T08:22:11.999Z</time></trkpt><trkpt lat="44.76217754081846" lon="7.85178586426115"><ele>348.4</ele><time>2026-04-10T08:22:12.999Z</time></trkpt><trkpt lat="44.76208789199705" lon="7.851753108094255"><ele>348.0</ele><time>2026-04-10T08:22:13.999Z</time></trkpt><trkpt lat="44.76200199436602" lon="7.851723925876112"><ele>348.0</ele><time>2026-04-10T08:22:14.999Z</time></trkpt><trkpt lat="44.76192495242052" lon="7.851685624599267"><ele>348.0</ele><time>2026-04-10T08:22:15.999Z</time></trkpt><trkpt lat="44.76185949160231" lon="7.85163534401996"><ele>348.0</ele><time>2026-04-10T08:22:16.999Z</time></trkpt><trkpt lat="44.76179460981169" lon="7.851589302937338"><ele>348.0</ele><time>2026-04-10T08:22:18Z</time></trkpt><trkpt lat="44.76173551713953" lon="7.85154748301296"><ele>348.0</ele><time>2026-04-10T08:22:19Z</time></trkpt><trkpt lat="44.76164081851848" lon="7.851460992396435"><ele>348.0</ele><time>2026-04-10T08:22:21Z</time></trkpt><trkpt lat="44.761536069467326" lon="7.851391609674127"><ele>347.6666666666667</ele><time>2026-04-10T08:22:23Z</time></trkpt><trkpt lat="44.76145505820961" lon="7.85135474902631"><ele>347.3333333333333</ele><time>2026-04-10T08:22:25Z</time></trkpt><trkpt lat="44.76137477907015" lon="7.851305548233325"><ele>347.0</ele><time>2026-04-10T08:22:28Z</time></trkpt><trkpt lat="44.761318924064305" lon="7.851264197883489"><ele>346.66666666666663</ele><time>2026-04-10T08:22:30Z</time></trkpt><trkpt lat="44.76124310123044" lon="7.851223061192765"><ele>346.3333333333333</ele><time>2026-04-10T08:22:32Z</time></trkpt><trkpt lat="44.761149673648646" lon="7.851179427492189"><ele>346.0</ele><time>2026-04-10T08:22:34Z</time></trkpt><trkpt lat="44.76106004345879" lon="7.8511865956310505"><ele>347.8</ele><time>2026-04-10T08:22:36Z</time></trkpt><trkpt lat="44.76096099306488" lon="7.851200992307415"><ele>349.6</ele><time>2026-04-10T08:22:38Z</time></trkpt><trkpt lat="44.76086729026063" lon="7.851220467350476"><ele>351.4</ele><time>2026-04-10T08:22:40Z</time></trkpt><trkpt lat="44.7607614424655" lon="7.851252738151409"><ele>353.2</ele><time>2026-04-10T08:22:42Z</time></trkpt><trkpt lat="44.760699035635234" lon="7.851271923836102"><ele>355.0</ele><time>2026-04-10T08:22:43Z</time></trkpt><trkpt lat="44.76059505510316" lon="7.851303254585866"><ele>355.0</ele><time>2026-04-10T08:22:45Z</time></trkpt><trkpt lat="44.76051845232681" lon="7.85133408261591"><ele>355.0</ele><time>2026-04-10T08:22:47Z</time></trkpt><trkpt lat="44.760452999986505" lon="7.851351261407317"><ele>355.0</ele><time>2026-04-10T08:22:49Z</time></trkpt><trkpt lat="44.76037685407093" lon="7.851382427766265"><ele>355.0</ele><time>2026-04-10T08:22:51Z</time></trkpt><trkpt lat="44.760319121609754" lon="7.851441989700727"><ele>355.0</ele><time>2026-04-10T08:22:53Z</time></trkpt><trkpt lat="44.760278854919726" lon="7.851528522425965"><ele>355.0</ele><time>2026-04-10T08:22:55Z</time></trkpt><trkpt lat="44.760222005821944" lon="7.851596886015953"><ele>355.0</ele><time>2026-04-10T08:22:57Z</time></trkpt><trkpt lat="44.76013761061571" lon="7.851587570527822"><ele>356.16666666666663</ele><time>2026-04-10T08:22:59Z</time></trkpt><trkpt lat="44.76005507319974" lon="7.851640322869186"><ele>357.3333333333333</ele><time>2026-04-10T08:23:02Z</time></trkpt><trkpt lat="44.75997607908215" lon="7.85168282572584"><ele>358.5</ele><time>2026-04-10T08:23:04Z</time></trkpt><trkpt lat="44.759896078590096" lon="7.851692665263519"><ele>359.6666666666667</ele><time>2026-04-10T08:23:06Z</time></trkpt><trkpt lat="44.75981983961775" lon="7.8517098736274855"><ele>360.83333333333337</ele><time>2026-04-10T08:23:08Z</time></trkpt><trkpt lat="44.75975437579516" lon="7.851699901815055"><ele>362.0</ele><time>2026-04-10T08:23:10Z</time></trkpt><trkpt lat="44.75967380992378" lon="7.851719992971658"><ele>362.0</ele><time>2026-04-10T08:23:14Z</time></trkpt><trkpt lat="44.759608419327826" lon="7.851681229859615"><ele>362.0</ele><time>2026-04-10T08:23:18Z</time></trkpt><trkpt lat="44.75954281816488" lon="7.8516467421148874"><ele>362.0</ele><time>2026-04-10T08:23:22Z</time></trkpt><trkpt lat="44.75946609349046" lon="7.851603683749991"><ele>362.0</ele><time>2026-04-10T08:23:27Z</time></trkpt><trkpt lat="44.75939994488" lon="7.851561863212282"><ele>362.0</ele><time>2026-04-10T08:23:31Z</time></trkpt><trkpt lat="44.7593450722365" lon="7.851508403074001"><ele>362.0</ele><time>2026-04-10T08:23:35Z</time></trkpt><trkpt lat="44.75928249638623" lon="7.8514931449108385"><ele>362.0</ele><time>2026-04-10T08:23:39Z</time></trkpt><trkpt lat="44.75920396068991" lon="7.851489814974137"><ele>362.57142857142856</ele><time>2026-04-10T08:23:43Z</time></trkpt><trkpt lat="44.759139184775336" lon="7.851495578720965"><ele>363.1428571428571</ele><time>2026-04-10T08:23:48Z</time></trkpt><trkpt lat="44.75908424010099" lon="7.851451797091458"><ele>363.7142857142857</ele><time>2026-04-10T08:23:54Z</time></trkpt><trkpt lat="44.75905539932682" lon="7.8513717255527995"><ele>364.2857142857143</ele><time>2026-04-10T08:23:59Z</time></trkpt><trkpt lat="44.759024711000954" lon="7.851272086971442"><ele>364.8571428571429</ele><time>2026-04-10T08:24:03Z</time></trkpt><trkpt lat="44.758977471056355" lon="7.851172635907484"><ele>365.42857142857144</ele><time>2026-04-10T08:24:06Z</time></trkpt><trkpt lat="44.75892006041272" lon="7.851112130705639"><ele>366.0</ele><time>2026-04-10T08:24:09Z</time></trkpt><trkpt lat="44.75886289860252" lon="7.851034348779087"><ele>366.0</ele><time>2026-04-10T08:24:13Z</time></trkpt><trkpt lat="44.75882011839721" lon="7.850966631051089"><ele>366.0</ele><time>2026-04-10T08:24:18Z</time></trkpt><trkpt lat="44.75875977640682" lon="7.850897199328243"><ele>366.0</ele><time>2026-04-10T08:24:22Z</time></trkpt><trkpt lat="44.758705849846635" lon="7.850850480656639"><ele>366.0</ele><time>2026-04-10T08:24:25Z</time></trkpt><trkpt lat="44.758658720190866" lon="7.850779062599348"><ele>366.0</ele><time>2026-04-10T08:24:29Z</time></trkpt><trkpt lat="44.75859895713845" lon="7.850717278741812"><ele>366.0</ele><time>2026-04-10T08:24:33Z</time></trkpt><trkpt lat="44.7585511970722" lon="7.850636527801093"><ele>366.0</ele><time>2026-04-10T08:24:37Z</time></trkpt><trkpt lat="44.75848701843699" lon="7.850568861938416"><ele>367.14285714285717</ele><time>2026-04-10T08:24:41Z</time></trkpt><trkpt lat="44.75842664901701" lon="7.850527706435142"><ele>368.28571428571433</ele><time>2026-04-10T08:24:44Z</time></trkpt><trkpt lat="44.7583631977936" lon="7.850504880367374"><ele>369.42857142857144</ele><time>2026-04-10T08:24:47Z</time></trkpt><trkpt lat="44.7582958830462" lon="7.850480304776212"><ele>370.57142857142856</ele><time>2026-04-10T08:24:51Z</time></trkpt><trkpt lat="44.7582342434298" lon="7.85043754873818"><ele>371.7142857142857</ele><time>2026-04-10T08:24:55Z</time></trkpt><trkpt lat="44.758167569544405" lon="7.85042237204409"><ele>372.85714285714283</ele><time>2026-04-10T08:24:58Z</time></trkpt><trkpt lat="44.75810183668361" lon="7.850397566169468"><ele>374.0</ele><time>2026-04-10T08:25:01Z</time></trkpt><trkpt lat="44.75802788273782" lon="7.850350766081428"><ele>374.0</ele><time>2026-04-10T08:25:06Z</time></trkpt><trkpt lat="44.75796974471662" lon="7.850301822662537"><ele>374.0</ele><time>2026-04-10T08:25:09Z</time></trkpt><trkpt lat="44.757902653097766" lon="7.850265154408523"><ele>374.0</ele><time>2026-04-10T08:25:14Z</time></trkpt><trkpt lat="44.75784245841869" lon="7.850231768463223"><ele>374.0</ele><time>2026-04-10T08:25:17Z</time></trkpt><trkpt lat="44.75777749114143" lon="7.850218426363157"><ele>374.0</ele><time>2026-04-10T08:25:19Z</time></trkpt><trkpt lat="44.75771164675449" lon="7.850187899718768"><ele>374.0</ele><time>2026-04-10T08:25:24Z</time></trkpt><trkpt lat="44.75765130540147" lon="7.850152057651406"><ele>374.0</ele><time>2026-04-10T08:25:29Z</time></trkpt><trkpt lat="44.7575922143143" lon="7.850102124564538"><ele>374.1666666666667</ele><time>2026-04-10T08:25:34Z</time></trkpt><trkpt lat="44.75753546293682" lon="7.8500302695012145"><ele>374.33333333333337</ele><time>2026-04-10T08:25:39Z</time></trkpt><trkpt lat="44.757488449954224" lon="7.849949423955761"><ele>374.5</ele><time>2026-04-10T08:25:44Z</time></trkpt><trkpt lat="44.75743948450059" lon="7.84988294052916"><ele>374.6666666666667</ele><time>2026-04-10T08:25:49Z</time></trkpt><trkpt lat="44.75737113279977" lon="7.849817471531002"><ele>374.8333333333333</ele><time>2026-04-10T08:25:53.999Z</time></trkpt><trkpt lat="44.757284016215536" lon="7.8498183818178795"><ele>375.0</ele><time>2026-04-10T08:25:57.999Z</time></trkpt><trkpt lat="44.75721013794575" lon="7.849848589535488"><ele>375.0</ele><time>2026-04-10T08:26:00.999Z</time></trkpt><trkpt lat="44.75715274011033" lon="7.849887902944099"><ele>375.0</ele><time>2026-04-10T08:26:02.999Z</time></trkpt><trkpt lat="44.7570919931541" lon="7.84992264331345"><ele>375.0</ele><time>2026-04-10T08:26:04.999Z</time></trkpt><trkpt lat="44.75700332965996" lon="7.849974323209576"><ele>375.0</ele><time>2026-04-10T08:26:07.999Z</time></trkpt><trkpt lat="44.75694222608765" lon="7.85006057223599"><ele>375.0</ele><time>2026-04-10T08:26:10.999Z</time></trkpt><trkpt lat="44.75689652850192" lon="7.850147727280645"><ele>375.0</ele><time>2026-04-10T08:26:12.999Z</time></trkpt><trkpt lat="44.75685039746823" lon="7.850249092863052"><ele>375.0</ele><time>2026-04-10T08:26:14.999Z</time></trkpt><trkpt lat="44.7568240041799" lon="7.85035538414665"><ele>375.0</ele><time>2026-04-10T08:26:16.999Z</time></trkpt><trkpt lat="44.7567957133346" lon="7.8504742004854595"><ele>375.0</ele><time>2026-04-10T08:26:18.999Z</time></trkpt><trkpt lat="44.75679519777133" lon="7.850589056258375"><ele>375.0</ele><time>2026-04-10T08:26:20.999Z</time></trkpt><trkpt lat="44.75678429217378" lon="7.8506930565677235"><ele>375.0</ele><time>2026-04-10T08:26:22.999Z</time></trkpt><trkpt lat="44.756767273992324" lon="7.850784580571349"><ele>375.0</ele><time>2026-04-10T08:26:24.999Z</time></trkpt><trkpt lat="44.756766423853115" lon="7.850881917505854"><ele>375.0</ele><time>2026-04-10T08:26:26.999Z</time></trkpt><trkpt lat="44.756766301184825" lon="7.8509835862599715"><ele>375.0</ele><time>2026-04-10T08:26:28.999Z</time></trkpt><trkpt lat="44.7567673903691" lon="7.851087725685612"><ele>375.0</ele><time>2026-04-10T08:26:30.999Z</time></trkpt><trkpt lat="44.75677350576201" lon="7.851178665433161"><ele>375.0</ele><time>2026-04-10T08:26:32.999Z</time></trkpt><trkpt lat="44.75677694737394" lon="7.85127108233326"><ele>375.0</ele><time>2026-04-10T08:26:34.999Z</time></trkpt><trkpt lat="44.75677322518034" lon="7.851379001843611"><ele>375.0</ele><time>2026-04-10T08:26:36.999Z</time></trkpt><trkpt lat="44.75676836406469" lon="7.8514763464053825"><ele>375.0</ele><time>2026-04-10T08:26:38.999Z</time></trkpt><trkpt lat="44.75676880533127" lon="7.851622116097047"><ele>375.0</ele><time>2026-04-10T08:26:41.999Z</time></trkpt><trkpt lat="44.7567524600675" lon="7.8517267501112205"><ele>375.0</ele><time>2026-04-10T08:26:43.999Z</time></trkpt><trkpt lat="44.75674115918577" lon="7.851826942242331"><ele>375.0</ele><time>2026-04-10T08:26:45.999Z</time></trkpt><trkpt lat="44.756740044203426" lon="7.851928321094483"><ele>375.0</ele><time>2026-04-10T08:26:47.999Z</time></trkpt><trkpt lat="44.756721023160225" lon="7.852034917096916"><ele>375.0</ele><time>2026-04-10T08:26:49.999Z</time></trkpt><trkpt lat="44.75670640762083" lon="7.852133644798491"><ele>375.0</ele><time>2026-04-10T08:26:51.999Z</time></trkpt><trkpt lat="44.75671582247783" lon="7.852256239398349"><ele>375.6666666666667</ele><time>2026-04-10T08:26:53.999Z</time></trkpt><trkpt lat="44.756726502712894" lon="7.852378992051677"><ele>376.3333333333333</ele><time>2026-04-10T08:26:55.999Z</time></trkpt><trkpt lat="44.75673330368475" lon="7.852488694475923"><ele>377.0</ele><time>2026-04-10T08:26:57.999Z</time></trkpt><trkpt lat="44.75675240361129" lon="7.852615923676137"><ele>377.66666666666663</ele><time>2026-04-10T08:26:59.999Z</time></trkpt><trkpt lat="44.7567789594261" lon="7.85273591488356"><ele>378.3333333333333</ele><time>2026-04-10T08:27:01.999Z</time></trkpt><trkpt lat="44.75680580100427" lon="7.852865333165634"><ele>379.0</ele><time>2026-04-10T08:27:03.999Z</time></trkpt><trkpt lat="44.75679233946682" lon="7.852984875704631"><ele>379.4</ele><time>2026-04-10T08:27:05.999Z</time></trkpt><trkpt lat="44.756755980482794" lon="7.853088341847421"><ele>379.79999999999995</ele><time>2026-04-10T08:27:07.999Z</time></trkpt><trkpt lat="44.756723209722" lon="7.853217507544289"><ele>380.20000000000005</ele><time>2026-04-10T08:27:09.999Z</time></trkpt><trkpt lat="44.75668846767712" lon="7.853359822549612"><ele>380.6</ele><time>2026-04-10T08:27:11.999Z</time></trkpt><trkpt lat="44.75663458113399" lon="7.853490941548211"><ele>381.0</ele><time>2026-04-10T08:27:13.999Z</time></trkpt><trkpt lat="44.7565953659579" lon="7.853624397899092"><ele>381.6</ele><time>2026-04-10T08:27:15.999Z</time></trkpt><trkpt lat="44.7565570939642" lon="7.853762394057195"><ele>382.20000000000005</ele><time>2026-04-10T08:27:17.999Z</time></trkpt><trkpt lat="44.756547945950956" lon="7.853888460396296"><ele>382.79999999999995</ele><time>2026-04-10T08:27:19.999Z</time></trkpt><trkpt lat="44.756513065007475" lon="7.854018801250556"><ele>383.4</ele><time>2026-04-10T08:27:21.999Z</time></trkpt><trkpt lat="44.756485798937156" lon="7.854106079930936"><ele>384.0</ele><time>2026-04-10T08:27:24.999Z</time></trkpt><trkpt lat="44.75645806505213" lon="7.854227184993734"><ele>384.3333333333333</ele><time>2026-04-10T08:27:27.999Z</time></trkpt><trkpt lat="44.756427002749106" lon="7.85431969934831"><ele>384.66666666666663</ele><time>2026-04-10T08:27:30.999Z</time></trkpt><trkpt lat="44.75636223937756" lon="7.854373679440737"><ele>385.0</ele><time>2026-04-10T08:27:33.999Z</time></trkpt><trkpt lat="44.75631405577988" lon="7.854466889115332"><ele>385.3333333333333</ele><time>2026-04-10T08:27:37.999Z</time></trkpt><trkpt lat="44.75626773619919" lon="7.854562451863042"><ele>385.66666666666663</ele><time>2026-04-10T08:27:41.999Z</time></trkpt><trkpt lat="44.75623244225217" lon="7.8546462481147366"><ele>386.0</ele><time>2026-04-10T08:27:44.999Z</time></trkpt><trkpt lat="44.75618958002568" lon="7.854724335915129"><ele>385.99999999999994</ele><time>2026-04-10T08:27:47.999Z</time></trkpt><trkpt lat="44.756156538357324" lon="7.854817123971548"><ele>386.0</ele><time>2026-04-10T08:27:51.999Z</time></trkpt><trkpt lat="44.75609362531098" lon="7.854892964400792"><ele>386.0</ele><time>2026-04-10T08:27:55.999Z</time></trkpt><trkpt lat="44.75602971117017" lon="7.85497349351049"><ele>386.0</ele><time>2026-04-10T08:27:58.999Z</time></trkpt><trkpt lat="44.75597950660796" lon="7.85503780984516"><ele>385.99999999999994</ele><time>2026-04-10T08:28:01.999Z</time></trkpt><trkpt lat="44.75592530685765" lon="7.855109451123805"><ele>386.0</ele><time>2026-04-10T08:28:04.999Z</time></trkpt><trkpt lat="44.75586805592151" lon="7.85519544041537"><ele>386.16666666666663</ele><time>2026-04-10T08:28:07.999Z</time></trkpt><trkpt lat="44.7558226204084" lon="7.855300251195747"><ele>386.3333333333333</ele><time>2026-04-10T08:28:10.999Z</time></trkpt><trkpt lat="44.755759549208996" lon="7.855402780757188"><ele>386.5</ele><time>2026-04-10T08:28:13.999Z</time></trkpt><trkpt lat="44.755715287952306" lon="7.85548210281472"><ele>386.66666666666663</ele><time>2026-04-10T08:28:15.999Z</time></trkpt><trkpt lat="44.75566987683953" lon="7.855557265931723"><ele>386.8333333333333</ele><time>2026-04-10T08:28:17.999Z</time></trkpt><trkpt lat="44.75562124709144" lon="7.855638708595731"><ele>387.0</ele><time>2026-04-10T08:28:19.999Z</time></trkpt><trkpt lat="44.76534750840354" lon="7.854666610456572"><ele>380.8571428571429</ele><time>2026-04-10T08:19:57.999Z</time></trkpt><trkpt lat="44.76529054074362" lon="7.854618046575574"><ele>374.7142857142857</ele><time>2026-04-10T08:20:01.999Z</time></trkpt><trkpt lat="44.76524952908467" lon="7.8545494537717415"><ele>368.57142857142856</ele><time>2026-04-10T08:20:04.999Z</time></trkpt><trkpt lat="44.7652376961445" lon="7.854459750238434"><ele>362.42857142857144</ele><time>2026-04-10T08:20:07.999Z</time></trkpt><trkpt lat="44.76522153830629" lon="7.854333438056371"><ele>356.2857142857143</ele><time>2026-04-10T08:20:11.999Z</time></trkpt><trkpt lat="44.765224237795096" lon="7.85423871979423"><ele>350.14285714285717</ele><time>2026-04-10T08:20:13.999Z</time></trkpt><trkpt lat="44.76520993802278" lon="7.854146522957557"><ele>344.0</ele><time>2026-04-10T08:20:15.999Z</time></trkpt><trkpt lat="44.765159358778774" lon="7.854072179209017"><ele>344.0</ele><time>2026-04-10T08:20:18.999Z</time></trkpt><trkpt lat="44.76509872189042" lon="7.854010875746382"><ele>344.0</ele><time>2026-04-10T08:20:21.999Z</time></trkpt><trkpt lat="44.76501942017102" lon="7.8539796738977365"><ele>344.0</ele><time>2026-04-10T08:20:25.999Z</time></trkpt><trkpt lat="44.764946768253495" lon="7.8539761031740625"><ele>344.0</ele><time>2026-04-10T08:20:29.999Z</time></trkpt><trkpt lat="44.76488555344014" lon="7.853930766793767"><ele>344.0</ele><time>2026-04-10T08:20:33.999Z</time></trkpt><trkpt lat="44.76483499684335" lon="7.85384895487014"><ele>344.0</ele><time>2026-04-10T08:20:37.999Z</time></trkpt><trkpt lat="44.76481559883071" lon="7.853737439827629"><ele>344.0</ele><time>2026-04-10T08:20:41.999Z</time></trkpt><trkpt lat="44.76478967517893" lon="7.853653032842513"><ele>344.0</ele><time>2026-04-10T08:20:44.999Z</time></trkpt><trkpt lat="44.76476194685866" lon="7.8535302400516205"><ele>344.0</ele><time>2026-04-10T08:20:47.999Z</time></trkpt><trkpt lat="44.76475089882812" lon="7.8534115385863394"><ele>344.0</ele><time>2026-04-10T08:20:50.999Z</time></trkpt><trkpt lat="44.764747721105316" lon="7.853293268706207"><ele>344.0</ele><time>2026-04-10T08:20:53.999Z</time></trkpt><trkpt lat="44.764747613829186" lon="7.853180337848118"><ele>344.0</ele><time>2026-04-10T08:20:56.999Z</time></trkpt><trkpt lat="44.764737164142666" lon="7.853092313978137"><ele>344.33333333333337</ele><time>2026-04-10T08:20:58.999Z</time></trkpt><trkpt lat="44.76472746015008" lon="7.85298099221433"><ele>344.6666666666667</ele><time>2026-04-10T08:21:00.999Z</time></trkpt><trkpt lat="44.76469524232467" lon="7.852880002832922"><ele>345.0</ele><time>2026-04-10T08:21:02.999Z</time></trkpt><trkpt lat="44.76466305605272" lon="7.852786134399038"><ele>345.3333333333333</ele><time>2026-04-10T08:21:04.999Z</time></trkpt><trkpt lat="44.76461165025051" lon="7.852712570582028"><ele>345.66666666666663</ele><time>2026-04-10T08:21:07.999Z</time></trkpt><trkpt lat="44.764554937486785" lon="7.852645853815612"><ele>346.0</ele><time>2026-04-10T08:21:09.999Z</time></trkpt><trkpt lat="44.76448778216854" lon="7.85259027893264"><ele>346.16666666666663</ele><time>2026-04-10T08:21:13.999Z</time></trkpt><trkpt lat="44.76440041849434" lon="7.852584994885904"><ele>346.3333333333333</ele><time>2026-04-10T08:21:16.999Z</time></trkpt><trkpt lat="44.76433083568231" lon="7.852602034600961"><ele>346.5</ele><time>2026-04-10T08:21:19.999Z</time></trkpt><trkpt lat="44.76426272126783" lon="7.852650739938414"><ele>346.6666666666667</ele><time>2026-04-10T08:21:21.999Z</time></trkpt><trkpt lat="44.764201329566056" lon="7.852692141483545"><ele>346.83333333333337</ele><time>2026-04-10T08:21:23.999Z</time></trkpt><trkpt lat="44.76414244906965" lon="7.8527679022575185"><ele>347.0</ele><time>2026-04-10T08:21:26.999Z</time></trkpt><trkpt lat="44.764091512190774" lon="7.8528700043837585"><ele>347.8571428571429</ele><time>2026-04-10T08:21:29.999Z</time></trkpt><trkpt lat="44.76401828663697" lon="7.852886548778472"><ele>348.71428571428567</ele><time>2026-04-10T08:21:32.999Z</time></trkpt><trkpt lat="44.763959028365" lon="7.852855447678073"><ele>349.57142857142856</ele><time>2026-04-10T08:21:35.999Z</time></trkpt><trkpt lat="44.76389405215221" lon="7.852829453092593"><ele>350.42857142857144</ele><time>2026-04-10T08:21:37.999Z</time></trkpt><trkpt lat="44.76381956216839" lon="7.852808713651247"><ele>351.28571428571433</ele><time>2026-04-10T08:21:39.999Z</time></trkpt><trkpt lat="44.76374091242418" lon="7.8527689619638945"><ele>352.1428571428571</ele><time>2026-04-10T08:21:42.999Z</time></trkpt><trkpt lat="44.763675328764144" lon="7.85272411557319"><ele>353.0</ele><time>2026-04-10T08:21:45.999Z</time></trkpt><trkpt lat="44.763616729010884" lon="7.852635168052025"><ele>353.1666666666667</ele><time>2026-04-10T08:21:48.999Z</time></trkpt><trkpt lat="44.76356798202765" lon="7.852551480784102"><ele>353.33333333333337</ele><time>2026-04-10T08:21:50.999Z</time></trkpt><trkpt lat="44.76352106799665" lon="7.852481148121789"><ele>353.5</ele><time>2026-04-10T08:21:52.999Z</time></trkpt><trkpt lat="44.7634561495428" lon="7.852400350131669"><ele>353.6666666666667</ele><time>2026-04-10T08:21:55.999Z</time></trkpt><trkpt lat="44.76340055331899" lon="7.852338640903053"><ele>353.8333333333333</ele><time>2026-04-10T08:21:57.999Z</time></trkpt><trkpt lat="44.76330340868915" lon="7.852275062056407"><ele>354.0</ele><time>2026-04-10T08:21:59.999Z</time></trkpt><trkpt lat="44.763242349526465" lon="7.852234424613471"><ele>353.3333333333333</ele><time>2026-04-10T08:22:00.999Z</time></trkpt><trkpt lat="44.76318076415574" lon="7.852199710901689"><ele>352.6666666666667</ele><time>2026-04-10T08:22:01.999Z</time></trkpt><trkpt lat="44.7631118971996" lon="7.852175732209561"><ele>352.0</ele><time>2026-04-10T08:22:02.999Z</time></trkpt><trkpt lat="44.76303725047818" lon="7.852150792333699"><ele>351.33333333333337</ele><time>2026-04-10T08:22:03.999Z</time></trkpt><trkpt lat="44.762945807138266" lon="7.852109367618299"><ele>350.6666666666667</ele><time>2026-04-10T08:22:04.999Z</time></trkpt><trkpt lat="44.76285605857761" lon="7.852073271673505"><ele>350.0</ele><time>2026-04-10T08:22:05.999Z</time></trkpt><trkpt lat="44.76276525221537" lon="7.852032334980167"><ele>348.8</ele><time>2026-04-10T08:22:06.999Z</time></trkpt><trkpt lat="44.7626731862975" lon="7.851999454520788"><ele>347.6</ele><time>2026-04-10T08:22:07.999Z</time></trkpt><trkpt lat="44.762579888068906" lon="7.85196221210159"><ele>346.4</ele><time>2026-04-10T08:22:08.999Z</time></trkpt><trkpt lat="44.762475817972664" lon="7.851917809251352"><ele>345.2</ele><time>2026-04-10T08:22:09.999Z</time></trkpt><trkpt lat="44.76237324298358" lon="7.8518723571726525"><ele>344.0</ele><time>2026-04-10T08:22:10.999Z</time></trkpt><trkpt lat="44.76226357205319" lon="7.851820200856415"><ele>344.33333333333337</ele><time>2026-04-10T08:22:11.999Z</time></trkpt><trkpt lat="44.76217754081846" lon="7.85178586426115"><ele>344.6666666666667</ele><time>2026-04-10T08:22:12.999Z</time></trkpt><trkpt lat="44.76208789199705" lon="7.851753108094255"><ele>345.0</ele><time>2026-04-10T08:22:13.999Z</time></trkpt><trkpt lat="44.76200199436602" lon="7.851723925876112"><ele>345.3333333333333</ele><time>2026-04-10T08:22:14.999Z</time></trkpt><trkpt lat="44.76192495242052" lon="7.851685624599267"><ele>345.66666666666663</ele><time>2026-04-10T08:22:15.999Z</time></trkpt><trkpt lat="44.76185949160231" lon="7.85163534401996"><ele>346.0</ele><time>2026-04-10T08:22:16.999Z</time></trkpt><trkpt lat="44.76179460981169" lon="7.851589302937338"><ele>346.0</ele><time>2026-04-10T08:22:18Z</time></trkpt><trkpt lat="44.76173551713953" lon="7.85154748301296"><ele>346.0</ele><time>2026-04-10T08:22:19Z</time></trkpt><trkpt lat="44.76164081851848" lon="7.851460992396435"><ele>346.0</ele><time>2026-04-10T08:22:21Z</time></trkpt><trkpt lat="44.761536069467326" lon="7.851391609674127"><ele>346.0</ele><time>2026-04-10T08:22:23Z</time></trkpt><trkpt lat="44.76145505820961" lon="7.85135474902631"><ele>346.0</ele><time>2026-04-10T08:22:25Z</time></trkpt><trkpt lat="44.76137477907015" lon="7.851305548233325"><ele>346.0</ele><time>2026-04-10T08:22:28Z</time></trkpt><trkpt lat="44.761318924064305" lon="7.851264197883489"><ele>346.0</ele><time>2026-04-10T08:22:30Z</time></trkpt><trkpt lat="44.76124310123044" lon="7.851223061192765"><ele>346.0</ele><time>2026-04-10T08:22:32Z</time></trkpt><trkpt lat="44.761149673648646" lon="7.851179427492189"><ele>346.0</ele><time>2026-04-10T08:22:34Z</time></trkpt><trkpt lat="44.76106004345879" lon="7.8511865956310505"><ele>346.0</ele><time>2026-04-10T08:22:36Z</time></trkpt><trkpt lat="44.76096099306488" lon="7.851200992307415"><ele>346.0</ele><time>2026-04-10T08:22:38Z</time></trkpt><trkpt lat="44.76086729026063" lon="7.851220467350476"><ele>347.5</ele><time>2026-04-10T08:22:40Z</time></trkpt><trkpt lat="44.7607614424655" lon="7.851252738151409"><ele>349.0</ele><time>2026-04-10T08:22:42Z</time></trkpt><trkpt lat="44.760699035635234" lon="7.851271923836102"><ele>350.5</ele><time>2026-04-10T08:22:43Z</time></trkpt><trkpt lat="44.76059505510316" lon="7.851303254585866"><ele>352.0</ele><time>2026-04-10T08:22:45Z</time></trkpt><trkpt lat="44.76051845232681" lon="7.85133408261591"><ele>353.5</ele><time>2026-04-10T08:22:47Z</time></trkpt><trkpt lat="44.760452999986505" lon="7.851351261407317"><ele>355.0</ele><time>2026-04-10T08:22:49Z</time></trkpt><trkpt lat="44.76037685407093" lon="7.851382427766265"><ele>355.0</ele><time>2026-04-10T08:22:51Z</time></trkpt><trkpt lat="44.760319121609754" lon="7.851441989700727"><ele>355.0</ele><time>2026-04-10T08:22:53Z</time></trkpt><trkpt lat="44.760278854919726" lon="7.851528522425965"><ele>355.0</ele><time>2026-04-10T08:22:55Z</time></trkpt><trkpt lat="44.760222005821944" lon="7.851596886015953"><ele>355.0</ele><time>2026-04-10T08:22:57Z</time></trkpt><trkpt lat="44.76013761061571" lon="7.851587570527822"><ele>355.0</ele><time>2026-04-10T08:22:59Z</time></trkpt><trkpt lat="44.76005507319974" lon="7.851640322869186"><ele>355.0</ele><time>2026-04-10T08:23:02Z</time></trkpt><trkpt lat="44.75997607908215" lon="7.85168282572584"><ele>356.0</ele><time>2026-04-10T08:23:04Z</time></trkpt><trkpt lat="44.759896078590096" lon="7.851692665263519"><ele>357.0</ele><time>2026-04-10T08:23:06Z</time></trkpt><trkpt lat="44.75981983961775" lon="7.8517098736274855"><ele>358.0</ele><time>2026-04-10T08:23:08Z</time></trkpt><trkpt lat="44.75975437579516" lon="7.851699901815055"><ele>359.0</ele><time>2026-04-10T08:23:10Z</time></trkpt><trkpt lat="44.75967380992378" lon="7.851719992971658"><ele>360.0</ele><time>2026-04-10T08:23:14Z</time></trkpt><trkpt lat="44.759608419327826" lon="7.851681229859615"><ele>361.0</ele><time>2026-04-10T08:23:18Z</time></trkpt><trkpt lat="44.75954281816488" lon="7.8516467421148874"><ele>362.0</ele><time>2026-04-10T08:23:22Z</time></trkpt><trkpt lat="44.75946609349046" lon="7.851603683749991"><ele>362.0</ele><time>2026-04-10T08:23:27Z</time></trkpt><trkpt lat="44.75939994488" lon="7.851561863212282"><ele>362.0</ele><time>2026-04-10T08:23:31Z</time></trkpt><trkpt lat="44.7593450722365" lon="7.851508403074001"><ele>362.0</ele><time>2026-04-10T08:23:35Z</time></trkpt><trkpt lat="44.75928249638623" lon="7.8514931449108385"><ele>362.0</ele><time>2026-04-10T08:23:39Z</time></trkpt><trkpt lat="44.75920396068991" lon="7.851489814974137"><ele>362.0</ele><time>2026-04-10T08:23:43Z</time></trkpt><trkpt lat="44.759139184775336" lon="7.851495578720965"><ele>362.0</ele><time>2026-04-10T08:23:48Z</time></trkpt><trkpt lat="44.75908424010099" lon="7.851451797091458"><ele>362.0</ele><time>2026-04-10T08:23:54Z</time></trkpt><trkpt lat="44.75905539932682" lon="7.8513717255527995"><ele>362.6666666666667</ele><time>2026-04-10T08:23:59Z</time></trkpt><trkpt lat="44.759024711000954" lon="7.851272086971442"><ele>363.33333333333337</ele><time>2026-04-10T08:24:03Z</time></trkpt><trkpt lat="44.758977471056355" lon="7.851172635907484"><ele>364.0</ele><time>2026-04-10T08:24:06Z</time></trkpt><trkpt lat="44.75892006041272" lon="7.851112130705639"><ele>364.6666666666667</ele><time>2026-04-10T08:24:09Z</time></trkpt><trkpt lat="44.75886289860252" lon="7.851034348779087"><ele>365.3333333333333</ele><time>2026-04-10T08:24:13Z</time></trkpt><trkpt lat="44.75882011839721" lon="7.850966631051089"><ele>366.0</ele><time>2026-04-10T08:24:18Z</time></trkpt><trkpt lat="44.75875977640682" lon="7.850897199328243"><ele>366.7142857142857</ele><time>2026-04-10T08:24:22Z</time></trkpt><trkpt lat="44.758705849846635" lon="7.850850480656639"><ele>367.42857142857144</ele><time>2026-04-10T08:24:25Z</time></trkpt><trkpt lat="44.758658720190866" lon="7.850779062599348"><ele>368.1428571428571</ele><time>2026-04-10T08:24:29Z</time></trkpt><trkpt lat="44.75859895713845" lon="7.850717278741812"><ele>368.8571428571429</ele><time>2026-04-10T08:24:33Z</time></trkpt><trkpt lat="44.7585511970722" lon="7.850636527801093"><ele>369.57142857142856</ele><time>2026-04-10T08:24:37Z</time></trkpt><trkpt lat="44.75848701843699" lon="7.850568861938416"><ele>370.2857142857143</ele><time>2026-04-10T08:24:41Z</time></trkpt><trkpt lat="44.75842664901701" lon="7.850527706435142"><ele>371.0</ele><time>2026-04-10T08:24:44Z</time></trkpt><trkpt lat="44.7583631977936" lon="7.850504880367374"><ele>371.42857142857144</ele><time>2026-04-10T08:24:47Z</time></trkpt><trkpt lat="44.7582958830462" lon="7.850480304776212"><ele>371.8571428571429</ele><time>2026-04-10T08:24:51Z</time></trkpt><trkpt lat="44.7582342434298" lon="7.85043754873818"><ele>372.2857142857143</ele><time>2026-04-10T08:24:55Z</time></trkpt><trkpt lat="44.758167569544405" lon="7.85042237204409"><ele>372.7142857142857</ele><time>2026-04-10T08:24:58Z</time></trkpt><trkpt lat="44.75810183668361" lon="7.850397566169468"><ele>373.14285714285717</ele><time>2026-04-10T08:25:01Z</time></trkpt><trkpt lat="44.75802788273782" lon="7.850350766081428"><ele>373.57142857142856</ele><time>2026-04-10T08:25:06Z</time></trkpt><trkpt lat="44.75796974471662" lon="7.850301822662537"><ele>374.0</ele><time>2026-04-10T08:25:09Z</time></trkpt><trkpt lat="44.757902653097766" lon="7.850265154408523"><ele>374.0</ele><time>2026-04-10T08:25:14Z</time></trkpt><trkpt lat="44.75784245841869" lon="7.850231768463223"><ele>374.0</ele><time>2026-04-10T08:25:17Z</time></trkpt><trkpt lat="44.75777749114143" lon="7.850218426363157"><ele>374.0</ele><time>2026-04-10T08:25:19Z</time></trkpt><trkpt lat="44.75771164675449" lon="7.850187899718768"><ele>374.0</ele><time>2026-04-10T08:25:24Z</time></trkpt><trkpt lat="44.75765130540147" lon="7.850152057651406"><ele>374.0</ele><time>2026-04-10T08:25:29Z</time></trkpt><trkpt lat="44.7575922143143" lon="7.850102124564538"><ele>374.0</ele><time>2026-04-10T08:25:34Z</time></trkpt><trkpt lat="44.75753546293682" lon="7.8500302695012145"><ele>374.0</ele><time>2026-04-10T08:25:39Z</time></trkpt><trkpt lat="44.757488449954224" lon="7.849949423955761"><ele>374.1428571428571</ele><time>2026-04-10T08:25:44Z</time></trkpt><trkpt lat="44.75743948450059" lon="7.84988294052916"><ele>374.28571428571433</ele><time>2026-04-10T08:25:49Z</time></trkpt><trkpt lat="44.75737113279977" lon="7.849817471531002"><ele>374.42857142857144</ele><time>2026-04-10T08:25:53.999Z</time></trkpt><trkpt lat="44.757284016215536" lon="7.8498183818178795"><ele>374.57142857142856</ele><time>2026-04-10T08:25:57.999Z</time></trkpt><trkpt lat="44.75721013794575" lon="7.849848589535488"><ele>374.71428571428567</ele><time>2026-04-10T08:26:00.999Z</time></trkpt><trkpt lat="44.75715274011033" lon="7.849887902944099"><ele>374.8571428571429</ele><time>2026-04-10T08:26:02.999Z</time></trkpt><trkpt lat="44.7570919931541" lon="7.84992264331345"><ele>375.0</ele><time>2026-04-10T08:26:04.999Z</time></trkpt><trkpt lat="44.75700332965996" lon="7.849974323209576"><ele>375.0</ele><time>2026-04-10T08:26:07.999Z</time></trkpt><trkpt lat="44.75694222608765" lon="7.85006057223599"><ele>375.0</ele><time>2026-04-10T08:26:10.999Z</time></trkpt><trkpt lat="44.75689652850192" lon="7.850147727280645"><ele>375.0</ele><time>2026-04-10T08:26:12.999Z</time></trkpt><trkpt lat="44.75685039746823" lon="7.850249092863052"><ele>375.0</ele><time>2026-04-10T08:26:14.999Z</time></trkpt><trkpt lat="44.7568240041799" lon="7.85035538414665"><ele>375.0</ele><time>2026-04-10T08:26:16.999Z</time></trkpt><trkpt lat="44.7567957133346" lon="7.8504742004854595"><ele>375.0</ele><time>2026-04-10T08:26:18.999Z</time></trkpt><trkpt lat="44.75679519777133" lon="7.850589056258375"><ele>375.0</ele><time>2026-04-10T08:26:20.999Z</time></trkpt><trkpt lat="44.75678429217378" lon="7.8506930565677235"><ele>375.0</ele><time>2026-04-10T08:26:22.999Z</time></trkpt><trkpt lat="44.756767273992324" lon="7.850784580571349"><ele>375.0</ele><time>2026-04-10T08:26:24.999Z</time></trkpt><trkpt lat="44.756766423853115" lon="7.850881917505854"><ele>375.0</ele><time>2026-04-10T08:26:26.999Z</time></trkpt><trkpt lat="44.756766301184825" lon="7.8509835862599715"><ele>375.0</ele><time>2026-04-10T08:26:28.999Z</time></trkpt><trkpt lat="44.7567673903691" lon="7.851087725685612"><ele>375.0</ele><time>2026-04-10T08:26:30.999Z</time></trkpt><trkpt lat="44.75677350576201" lon="7.851178665433161"><ele>375.0</ele><time>2026-04-10T08:26:32.999Z</time></trkpt><trkpt lat="44.75677694737394" lon="7.85127108233326"><ele>375.0</ele><time>2026-04-10T08:26:34.999Z</time></trkpt><trkpt lat="44.75677322518034" lon="7.851379001843611"><ele>375.0</ele><time>2026-04-10T08:26:36.999Z</time></trkpt><trkpt lat="44.75676836406469" lon="7.8514763464053825"><ele>375.0</ele><time>2026-04-10T08:26:38.999Z</time></trkpt><trkpt lat="44.75676880533127" lon="7.851622116097047"><ele>375.0</ele><time>2026-04-10T08:26:41.999Z</time></trkpt><trkpt lat="44.7567524600675" lon="7.8517267501112205"><ele>375.0</ele><time>2026-04-10T08:26:43.999Z</time></trkpt><trkpt lat="44.75674115918577" lon="7.851826942242331"><ele>375.0</ele><time>2026-04-10T08:26:45.999Z</time></trkpt><trkpt lat="44.756740044203426" lon="7.851928321094483"><ele>375.6666666666667</ele><time>2026-04-10T08:26:47.999Z</time></trkpt><trkpt lat="44.756721023160225" lon="7.852034917096916"><ele>376.3333333333333</ele><time>2026-04-10T08:26:49.999Z</time></trkpt><trkpt lat="44.75670640762083" lon="7.852133644798491"><ele>377.0</ele><time>2026-04-10T08:26:51.999Z</time></trkpt><trkpt lat="44.75671582247783" lon="7.852256239398349"><ele>377.66666666666663</ele><time>2026-04-10T08:26:53.999Z</time></trkpt><trkpt lat="44.756726502712894" lon="7.852378992051677"><ele>378.3333333333333</ele><time>2026-04-10T08:26:55.999Z</time></trkpt><trkpt lat="44.75673330368475" lon="7.852488694475923"><ele>379.0</ele><time>2026-04-10T08:26:57.999Z</time></trkpt><trkpt lat="44.75675240361129" lon="7.852615923676137"><ele>379.4</ele><time>2026-04-10T08:26:59.999Z</time></trkpt><trkpt lat="44.7567789594261" lon="7.85273591488356"><ele>379.79999999999995</ele><time>2026-04-10T08:27:01.999Z</time></trkpt><trkpt lat="44.75680580100427" lon="7.852865333165634"><ele>380.20000000000005</ele><time>2026-04-10T08:27:03.999Z</time></trkpt><trkpt lat="44.75679233946682" lon="7.852984875704631"><ele>380.6</ele><time>2026-04-10T08:27:05.999Z</time></trkpt><trkpt lat="44.756755980482794" lon="7.853088341847421"><ele>381.0</ele><time>2026-04-10T08:27:07.999Z</time></trkpt><trkpt lat="44.756723209722" lon="7.853217507544289"><ele>381.0</ele><time>2026-04-10T08:27:09.999Z</time></trkpt><trkpt lat="44.75668846767712" lon="7.853359822549612"><ele>381.0</ele><time>2026-04-10T08:27:11.999Z</time></trkpt><trkpt lat="44.75663458113399" lon="7.853490941548211"><ele>381.0</ele><time>2026-04-10T08:27:13.999Z</time></trkpt><trkpt lat="44.7565953659579" lon="7.853624397899092"><ele>381.0</ele><time>2026-04-10T08:27:15.999Z</time></trkpt><trkpt lat="44.7565570939642" lon="7.853762394057195"><ele>381.0</ele><time>2026-04-10T08:27:17.999Z</time></trkpt><trkpt lat="44.756547945950956" lon="7.853888460396296"><ele>381.5</ele><time>2026-04-10T08:27:19.999Z</time></trkpt><trkpt lat="44.756513065007475" lon="7.854018801250556"><ele>382.0</ele><time>2026-04-10T08:27:21.999Z</time></trkpt><trkpt lat="44.756485798937156" lon="7.854106079930936"><ele>382.5</ele><time>2026-04-10T08:27:24.999Z</time></trkpt><trkpt lat="44.75645806505213" lon="7.854227184993734"><ele>383.0</ele><time>2026-04-10T08:27:27.999Z</time></trkpt><trkpt lat="44.756427002749106" lon="7.85431969934831"><ele>383.5</ele><time>2026-04-10T08:27:30.999Z</time></trkpt><trkpt lat="44.75636223937756" lon="7.854373679440737"><ele>384.0</ele><time>2026-04-10T08:27:33.999Z</time></trkpt><trkpt lat="44.75631405577988" lon="7.854466889115332"><ele>384.1666666666667</ele><time>2026-04-10T08:27:37.999Z</time></trkpt><trkpt lat="44.75626773619919" lon="7.854562451863042"><ele>384.33333333333337</ele><time>2026-04-10T08:27:41.999Z</time></trkpt><trkpt lat="44.75623244225217" lon="7.8546462481147366"><ele>384.5</ele><time>2026-04-10T08:27:44.999Z</time></trkpt><trkpt lat="44.75618958002568" lon="7.854724335915129"><ele>384.6666666666667</ele><time>2026-04-10T08:27:47.999Z</time></trkpt><trkpt lat="44.756156538357324" lon="7.854817123971548"><ele>384.83333333333337</ele><time>2026-04-10T08:27:51.999Z</time></trkpt><trkpt lat="44.75609362531098" lon="7.854892964400792"><ele>385.0</ele><time>2026-04-10T08:27:55.999Z</time></trkpt><trkpt lat="44.75602971117017" lon="7.85497349351049"><ele>385.00000000000006</ele><time>2026-04-10T08:27:58.999Z</time></trkpt><trkpt lat="44.75597950660796" lon="7.85503780984516"><ele>385.0</ele><time>2026-04-10T08:28:01.999Z</time></trkpt><trkpt lat="44.75592530685765" lon="7.855109451123805"><ele>385.0</ele><time>2026-04-10T08:28:04.999Z</time></trkpt><trkpt lat="44.75586805592151" lon="7.85519544041537"><ele>385.0</ele><time>2026-04-10T08:28:07.999Z</time></trkpt><trkpt lat="44.7558226204084" lon="7.855300251195747"><ele>385.00000000000006</ele><time>2026-04-10T08:28:10.999Z</time></trkpt><trkpt lat="44.755759549208996" lon="7.855402780757188"><ele>385.0</ele><time>2026-04-10T08:28:13.999Z</time></trkpt><trkpt lat="44.755715287952306" lon="7.85548210281472"><ele>385.33333333333337</ele><time>2026-04-10T08:28:15.999Z</time></trkpt><trkpt lat="44.75566987683953" lon="7.855557265931723"><ele>385.6666666666667</ele><time>2026-04-10T08:28:17.999Z</time></trkpt><trkpt lat="44.75562124709144" lon="7.855638708595731"><ele>386.0</ele><time>2026-04-10T08:28:19.999Z</time></trkpt><trkpt lat="44.75558788850668" lon="7.855730777559023"><ele>386.33333333333337</ele><time>2026-04-10T08:28:21.999Z</time></trkpt><trkpt lat="44.75554959680799" lon="7.855830707505126"><ele>386.6666666666667</ele><time>2026-04-10T08:28:23.999Z</time></trkpt><trkpt lat="44.75551679362108" lon="7.855910099922459"><ele>387.0</ele><time>2026-04-10T08:28:25.999Z</time></trkpt><trkpt lat="44.75545924616086" lon="7.856006784235641"><ele>387.1666666666667</ele><time>2026-04-10T08:28:27.999Z</time></trkpt><trkpt lat="44.755408437435456" lon="7.856121022855213"><ele>387.33333333333337</ele><time>2026-04-10T08:28:29.999Z</time></trkpt><trkpt lat="44.75537261594709" lon="7.856226301092828"><ele>387.5</ele><time>2026-04-10T08:28:31.999Z</time></trkpt><trkpt lat="44.75532103279407" lon="7.856318216029121"><ele>387.6666666666667</ele><time>2026-04-10T08:28:33.999Z</time></trkpt><trkpt lat="44.75529684479935" lon="7.856418433240667"><ele>387.83333333333337</ele><time>2026-04-10T08:28:35.999Z</time></trkpt><trkpt lat="44.75526264291869" lon="7.85651658410468"><ele>388.0</ele><time>2026-04-10T08:28:37.999Z</time></trkpt><trkpt lat="44.75523143636119" lon="7.856630650350855"><ele>387.79999999999995</ele><time>2026-04-10T08:28:39.999Z</time></trkpt><trkpt lat="44.755199176080794" lon="7.856783612560306"><ele>387.6</ele><time>2026-04-10T08:28:41.999Z</time></trkpt><trkpt lat="44.75521829411182" lon="7.856889509942677"><ele>387.4</ele><time>2026-04-10T08:28:43.999Z</time></trkpt><trkpt lat="44.75526718170056" lon="7.8570142498089846"><ele>387.20000000000005</ele><time>2026-04-10T08:28:45.999Z</time></trkpt><trkpt lat="44.75533460185098" lon="7.857085590305454"><ele>387.0</ele><time>2026-04-10T08:28:47.999Z</time></trkpt><trkpt lat="44.75542863942266" lon="7.857146480407572"><ele>386.6</ele><time>2026-04-10T08:28:49.999Z</time></trkpt><trkpt lat="44.75554516937924" lon="7.857197537493601"><ele>386.20000000000005</ele><time>2026-04-10T08:28:51.999Z</time></trkpt><trkpt lat="44.755647483680505" lon="7.857223122801566"><ele>385.8</ele><time>2026-04-10T08:28:53.999Z</time></trkpt><trkpt lat="44.755759067442554" lon="7.857230290953203"><ele>385.4</ele><time>2026-04-10T08:28:55.999Z</time></trkpt><trkpt lat="44.75586382829359" lon="7.857218424062821"><ele>385.0</ele><time>2026-04-10T08:28:57.999Z</time></trkpt><trkpt lat="44.755973801151" lon="7.857213668314861"><ele>383.8</ele><time>2026-04-10T08:28:59.999Z</time></trkpt><trkpt lat="44.756077497142115" lon="7.857216195870893"><ele>382.6</ele><time>2026-04-10T08:29:01.999Z</time></trkpt><trkpt lat="44.756196048063444" lon="7.8572041019825045"><ele>381.4</ele><time>2026-04-10T08:29:03.999Z</time></trkpt><trkpt lat="44.75626106566868" lon="7.857194338542402"><ele>380.2</ele><time>2026-04-10T08:29:04.999Z</time></trkpt><trkpt lat="44.75632298055288" lon="7.8571745537794175"><ele>379.0</ele><time>2026-04-10T08:29:05.999Z</time></trkpt><trkpt lat="44.7564400550611" lon="7.8571291780380825"><ele>379.0</ele><time>2026-04-10T08:29:07.999Z</time></trkpt><trkpt lat="44.7565174687383" lon="7.857038336437197"><ele>379.0</ele><time>2026-04-10T08:29:09.999Z</time></trkpt><trkpt lat="44.756575919882934" lon="7.856934333718022"><ele>379.0</ele><time>2026-04-10T08:29:11.999Z</time></trkpt><trkpt lat="44.75663108603416" lon="7.856876058535745"><ele>379.0</ele><time>2026-04-10T08:29:13.999Z</time></trkpt><trkpt lat="44.756713201057906" lon="7.856855884778834"><ele>379.0</ele><time>2026-04-10T08:29:15.999Z</time></trkpt><trkpt lat="44.756784256403925" lon="7.856779150411583"><ele>379.0</ele><time>2026-04-10T08:29:17.999Z</time></trkpt><trkpt lat="44.75688607600938" lon="7.856687013577123"><ele>377.3333333333333</ele><time>2026-04-10T08:29:19.999Z</time></trkpt><trkpt lat="44.75696499399836" lon="7.856605200485147"><ele>375.66666666666663</ele><time>2026-04-10T08:29:21.999Z</time></trkpt><trkpt lat="44.757038705954834" lon="7.856575189520307"><ele>374.0</ele><time>2026-04-10T08:29:25.001Z</time></trkpt><trkpt lat="44.75714082903294" lon="7.856569933898175"><ele>372.3333333333333</ele><time>2026-04-10T08:29:28.001Z</time></trkpt><trkpt lat="44.757220877891754" lon="7.856534305562733"><ele>370.6666666666667</ele><time>2026-04-10T08:29:30.001Z</time></trkpt><trkpt lat="44.75728446522243" lon="7.856475769258573"><ele>369.0</ele><time>2026-04-10T08:29:32.001Z</time></trkpt><trkpt lat="44.75733922393984" lon="7.856401699708227"><ele>369.0</ele><time>2026-04-10T08:29:34Z</time></trkpt><trkpt lat="44.75738103753334" lon="7.85627775457495"><ele>369.0</ele><time>2026-04-10T08:29:36Z</time></trkpt><trkpt lat="44.75734137269533" lon="7.856185884519884"><ele>369.0</ele><time>2026-04-10T08:29:40Z</time></trkpt><trkpt lat="44.757312261558305" lon="7.8561068941602406"><ele>369.0</ele><time>2026-04-10T08:29:43Z</time></trkpt><trkpt lat="44.75733577569566" lon="7.856008418698807"><ele>369.0</ele><time>2026-04-10T08:29:47Z</time></trkpt><trkpt lat="44.75739278700059" lon="7.8559456263914695"><ele>369.0</ele><time>2026-04-10T08:29:51Z</time></trkpt><trkpt lat="44.757434478837325" lon="7.855863981835843"><ele>369.4</ele><time>2026-04-10T08:29:53Z</time></trkpt><trkpt lat="44.75751253952249" lon="7.855771651862928"><ele>369.79999999999995</ele><time>2026-04-10T08:29:55Z</time></trkpt><trkpt lat="44.75759802580025" lon="7.855705367434126"><ele>370.20000000000005</ele><time>2026-04-10T08:29:57Z</time></trkpt><trkpt lat="44.757657495310255" lon="7.855632566652728"><ele>370.6</ele><time>2026-04-10T08:29:59Z</time></trkpt><trkpt lat="44.757723167134245" lon="7.8555190393110506"><ele>371.0</ele><time>2026-04-10T08:30:01Z</time></trkpt><trkpt lat="44.75777550881793" lon="7.855454214189062"><ele>370.33333333333337</ele><time>2026-04-10T08:30:03Z</time></trkpt><trkpt lat="44.75785911479475" lon="7.8554113169508355"><ele>369.6666666666667</ele><time>2026-04-10T08:30:05Z</time></trkpt><trkpt lat="44.75792673122707" lon="7.8553925748578575"><ele>369.0</ele><time>2026-04-10T08:30:07Z</time></trkpt><trkpt lat="44.7579948285658" lon="7.855370417316481"><ele>368.3333333333333</ele><time>2026-04-10T08:30:09Z</time></trkpt><trkpt lat="44.75806642400668" lon="7.855399683416347"><ele>367.66666666666663</ele><time>2026-04-10T08:30:11Z</time></trkpt><trkpt lat="44.758148295355184" lon="7.855415192841894"><ele>367.0</ele><time>2026-04-10T08:30:13Z</time></trkpt><trkpt lat="44.758220629084605" lon="7.855428543484025"><ele>367.0</ele><time>2026-04-10T08:30:15Z</time></trkpt><trkpt lat="44.75829889789001" lon="7.855449437565827"><ele>367.0</ele><time>2026-04-10T08:30:17Z</time></trkpt><trkpt lat="44.758368217962264" lon="7.855455859720348"><ele>367.0</ele><time>2026-04-10T08:30:19Z</time></trkpt><trkpt lat="44.7584474478418" lon="7.855417015739885"><ele>367.0</ele><time>2026-04-10T08:30:23Z</time></trkpt><trkpt lat="44.758511250697566" lon="7.855329673148778"><ele>367.0</ele><time>2026-04-10T08:30:27Z</time></trkpt><trkpt lat="44.75857533626256" lon="7.855272844833797"><ele>367.0</ele><time>2026-04-10T08:30:30Z</time></trkpt><trkpt lat="44.758634887237505" lon="7.8552241569417225"><ele>367.2857142857143</ele><time>2026-04-10T08:30:32Z</time></trkpt><trkpt lat="44.758691300914855" lon="7.855173753473546"><ele>367.5714285714286</ele><time>2026-04-10T08:30:34Z</time></trkpt><trkpt lat="44.758756285231804" lon="7.855120813224137"><ele>367.8571428571429</ele><time>2026-04-10T08:30:36Z</time></trkpt><trkpt lat="44.75883281628465" lon="7.855074186552049"><ele>368.1428571428571</ele><time>2026-04-10T08:30:39Z</time></trkpt><trkpt lat="44.75889746648509" lon="7.855016673429023"><ele>368.42857142857144</ele><time>2026-04-10T08:30:43Z</time></trkpt><trkpt lat="44.75896409566607" lon="7.854988768470245"><ele>368.7142857142857</ele><time>2026-04-10T08:30:47Z</time></trkpt><trkpt lat="44.759029850626575" lon="7.854957606727132"><ele>369.0</ele><time>2026-04-10T08:30:50Z</time></trkpt><trkpt lat="44.759088135626826" lon="7.8549188981425475"><ele>369.0</ele><time>2026-04-10T08:30:54Z</time></trkpt><trkpt lat="44.759162098122175" lon="7.854880444901458"><ele>369.0</ele><time>2026-04-10T08:30:58Z</time></trkpt><trkpt lat="44.75923217947028" lon="7.854852287540781"><ele>369.0</ele><time>2026-04-10T08:31:02Z</time></trkpt><trkpt lat="44.759307335185014" lon="7.854839641948482"><ele>369.0</ele><time>2026-04-10T08:31:06Z</time></trkpt><trkpt lat="44.759378851390345" lon="7.854840191912432"><ele>369.0</ele><time>2026-04-10T08:31:10Z</time></trkpt><trkpt lat="44.759449546693915" lon="7.854839249665465"><ele>369.0</ele><time>2026-04-10T08:31:15Z</time></trkpt><trkpt lat="44.75951284475356" lon="7.854817865773166"><ele>369.0</ele><time>2026-04-10T08:31:20Z</time></trkpt><trkpt lat="44.75958436250479" lon="7.854796583488842"><ele>369.0</ele><time>2026-04-10T08:31:25Z</time></trkpt><trkpt lat="44.75965102168723" lon="7.854800158931642"><ele>369.0</ele><time>2026-04-10T08:31:33Z</time></trkpt><trkpt lat="44.759631929401145" lon="7.854888924586367"><ele>369.0</ele><time>2026-04-10T08:31:40Z</time></trkpt><trkpt lat="44.75960597401315" lon="7.854985645319665"><ele>369.0</ele><time>2026-04-10T08:31:45Z</time></trkpt><trkpt lat="44.75956353580226" lon="7.855094177369499"><ele>369.0</ele><time>2026-04-10T08:31:50Z</time></trkpt><trkpt lat="44.759521599952116" lon="7.855186635767013"><ele>369.0</ele><time>2026-04-10T08:31:53Z</time></trkpt><trkpt lat="44.75948777519468" lon="7.855269177612177"><ele>369.0</ele><time>2026-04-10T08:31:56Z</time></trkpt><trkpt lat="44.759432643629935" lon="7.855335356726037"><ele>369.3333333333333</ele><time>2026-04-10T08:31:59Z</time></trkpt><trkpt lat="44.75938599880268" lon="7.855416191905596"><ele>369.6666666666667</ele><time>2026-04-10T08:32:03Z</time></trkpt><trkpt lat="44.75934291891021" lon="7.855512363615559"><ele>370.0</ele><time>2026-04-10T08:32:06Z</time></trkpt><trkpt lat="44.759320206274" lon="7.855627811307449"><ele>370.33333333333337</ele><time>2026-04-10T08:32:09Z</time></trkpt><trkpt lat="44.75928137114098" lon="7.855738486191089"><ele>370.6666666666667</ele><time>2026-04-10T08:32:12Z</time></trkpt><trkpt lat="44.759255756474715" lon="7.855835277093554"><ele>371.0</ele><time>2026-04-10T08:32:15Z</time></trkpt><trkpt lat="44.75921824856244" lon="7.8559343739883"><ele>372.33333333333337</ele><time>2026-04-10T08:32:18Z</time></trkpt><trkpt lat="44.759175065043834" lon="7.8560449669184695"><ele>373.6666666666667</ele><time>2026-04-10T08:32:21Z</time></trkpt><trkpt lat="44.75914052057155" lon="7.856145460595677"><ele>375.0</ele><time>2026-04-10T08:32:23Z</time></trkpt><trkpt lat="44.75911202170044" lon="7.856249299365932"><ele>376.3333333333333</ele><time>2026-04-10T08:32:25Z</time></trkpt><trkpt lat="44.759081912497926" lon="7.856350278347087"><ele>377.66666666666663</ele><time>2026-04-10T08:32:27Z</time></trkpt><trkpt lat="44.759047330410944" lon="7.856448235292502"><ele>379.0</ele><time>2026-04-10T08:32:29Z</time></trkpt><trkpt lat="44.75901465193209" lon="7.8565518280716065"><ele>379.0</ele><time>2026-04-10T08:32:31Z</time></trkpt><trkpt lat="44.75898740178895" lon="7.856652211891154"><ele>379.0</ele><time>2026-04-10T08:32:33Z</time></trkpt><trkpt lat="44.75895371010012" lon="7.85675886204258"><ele>379.0</ele><time>2026-04-10T08:32:35Z</time></trkpt><trkpt lat="44.75892325145799" lon="7.856869586525429"><ele>379.0</ele><time>2026-04-10T08:32:37Z</time></trkpt><trkpt lat="44.75889009008094" lon="7.856985337718565"><ele>379.0</ele><time>2026-04-10T08:32:39Z</time></trkpt><trkpt lat="44.75885963728045" lon="7.857092462825033"><ele>379.0</ele><time>2026-04-10T08:32:41Z</time></trkpt><trkpt lat="44.758816959228746" lon="7.857196845744292"><ele>379.3333333333333</ele><time>2026-04-10T08:32:43Z</time></trkpt><trkpt lat="44.75877490622879" lon="7.857288946285597"><ele>379.66666666666663</ele><time>2026-04-10T08:32:45Z</time></trkpt><trkpt lat="44.75873384527775" lon="7.857390067285985"><ele>380.0</ele><time>2026-04-10T08:32:47Z</time></trkpt><trkpt lat="44.75869854908262" lon="7.85749219724084"><ele>380.3333333333333</ele><time>2026-04-10T08:32:49Z</time></trkpt><trkpt lat="44.758660063624134" lon="7.857586941449804"><ele>380.6666666666667</ele><time>2026-04-10T08:32:51Z</time></trkpt><trkpt lat="44.75862027196333" lon="7.857675037938239"><ele>381.0</ele><time>2026-04-10T08:32:53Z</time></trkpt><trkpt lat="44.75859531887065" lon="7.857757351205199"><ele>381.3333333333333</ele><time>2026-04-10T08:32:55Z</time></trkpt><trkpt lat="44.75856687898052" lon="7.857849027633223"><ele>381.6666666666667</ele><time>2026-04-10T08:32:57Z</time></trkpt><trkpt lat="44.758506752692675" lon="7.857946851711368"><ele>382.0</ele><time>2026-04-10T08:32:59Z</time></trkpt><trkpt lat="44.75846958722425" lon="7.8580224842884565"><ele>382.33333333333337</ele><time>2026-04-10T08:33:01Z</time></trkpt><trkpt lat="44.75843770217862" lon="7.858132092955267"><ele>382.6666666666667</ele><time>2026-04-10T08:33:03Z</time></trkpt><trkpt lat="44.75840451935076" lon="7.858229584504759"><ele>383.0</ele><time>2026-04-10T08:33:05Z</time></trkpt><trkpt lat="44.758367196338426" lon="7.858324723696174"><ele>383.0</ele><time>2026-04-10T08:33:07Z</time></trkpt><trkpt lat="44.75833883821749" lon="7.8584083229784465"><ele>383.0</ele><time>2026-04-10T08:33:09Z</time></trkpt><trkpt lat="44.75830995538228" lon="7.8585198404267755"><ele>383.0</ele><time>2026-04-10T08:33:11Z</time></trkpt><trkpt lat="44.75827814454056" lon="7.858639240367182"><ele>383.0</ele><time>2026-04-10T08:33:14Z</time></trkpt><trkpt lat="44.75823924113877" lon="7.858717956742854"><ele>383.0</ele><time>2026-04-10T08:33:16Z</time></trkpt><trkpt lat="44.758189849504674" lon="7.858812558145031"><ele>383.0</ele><time>2026-04-10T08:33:18Z</time></trkpt><trkpt lat="44.75814546603416" lon="7.8589022794857275"><ele>383.33333333333337</ele><time>2026-04-10T08:33:20Z</time></trkpt><trkpt lat="44.758112974964945" lon="7.858991335347943"><ele>383.6666666666667</ele><time>2026-04-10T08:33:22Z</time></trkpt><trkpt lat="44.75809538117179" lon="7.859113335701904"><ele>384.0</ele><time>2026-04-10T08:33:24Z</time></trkpt><trkpt lat="44.7580701858686" lon="7.859213798685401"><ele>384.33333333333337</ele><time>2026-04-10T08:33:26Z</time></trkpt><trkpt lat="44.75803780816872" lon="7.85930788269593"><ele>384.6666666666667</ele><time>2026-04-10T08:33:28Z</time></trkpt><trkpt lat="44.75800814454157" lon="7.8594149464352725"><ele>385.0</ele><time>2026-04-10T08:33:30Z</time></trkpt><trkpt lat="44.75796748111699" lon="7.859518202455089"><ele>385.00000000000006</ele><time>2026-04-10T08:33:32Z</time></trkpt><trkpt lat="44.75793326785914" lon="7.8596398583814615"><ele>385.0</ele><time>2026-04-10T08:33:34Z</time></trkpt><trkpt lat="44.757892983073255" lon="7.859762360472005"><ele>385.0</ele><time>2026-04-10T08:33:36Z</time></trkpt><trkpt lat="44.75784866757211" lon="7.859884799040736"><ele>385.0</ele><time>2026-04-10T08:33:38Z</time></trkpt><trkpt lat="44.757812017190346" lon="7.859969051946527"><ele>385.00000000000006</ele><time>2026-04-10T08:33:40Z</time></trkpt><trkpt lat="44.7577642778882" lon="7.860063204981756"><ele>385.0</ele><time>2026-04-10T08:33:42Z</time></trkpt><trkpt lat="44.75772404766643" lon="7.860135727063976"><ele>385.50000000000006</ele><time>2026-04-10T08:33:44Z</time></trkpt><trkpt lat="44.757676281619354" lon="7.860214394767437"><ele>386.0</ele><time>2026-04-10T08:33:46Z</time></trkpt><trkpt lat="44.7576207148278" lon="7.8602718376947465"><ele>386.5</ele><time>2026-04-10T08:33:48Z</time></trkpt><trkpt lat="44.7575406570901" lon="7.860335620408027"><ele>387.0</ele><time>2026-04-10T08:33:50Z</time></trkpt><trkpt lat="44.757468119575364" lon="7.860405769622948"><ele>387.50000000000006</ele><time>2026-04-10T08:33:52Z</time></trkpt><trkpt lat="44.757408201899246" lon="7.860465031212062"><ele>388.0</ele><time>2026-04-10T08:33:54Z</time></trkpt><trkpt lat="44.757348701491814" lon="7.860533761707069"><ele>388.0</ele><time>2026-04-10T08:33:56Z</time></trkpt><trkpt lat="44.75730035809543" lon="7.860592442707052"><ele>388.0</ele><time>2026-04-10T08:33:58Z</time></trkpt><trkpt lat="44.75724884086553" lon="7.860648280324319"><ele>388.0</ele><time>2026-04-10T08:34:00Z</time></trkpt><trkpt lat="44.75718848287051" lon="7.860685447201069"><ele>388.0</ele><time>2026-04-10T08:34:02Z</time></trkpt><trkpt lat="44.75712855907554" lon="7.860722468480525"><ele>388.0</ele><time>2026-04-10T08:34:05Z</time></trkpt><trkpt lat="44.75706397017718" lon="7.86074435666201"><ele>388.0</ele><time>2026-04-10T08:34:09Z</time></trkpt><trkpt lat="44.7570026769078" lon="7.860780534002513"><ele>388.0</ele><time>2026-04-10T08:34:12Z</time></trkpt><trkpt lat="44.75693825018059" lon="7.860792402012843"><ele>388.1666666666667</ele><time>2026-04-10T08:34:14Z</time></trkpt><trkpt lat="44.75685407666804" lon="7.860793309700322"><ele>388.33333333333337</ele><time>2026-04-10T08:34:17Z</time></trkpt><trkpt lat="44.756786090358354" lon="7.860806746546146"><ele>388.5</ele><time>2026-04-10T08:34:19Z</time></trkpt><trkpt lat="44.75669670006112" lon="7.8608382488097615"><ele>388.66666666666663</ele><time>2026-04-10T08:34:21Z</time></trkpt><trkpt lat="44.756601823482384" lon="7.860877695999184"><ele>388.8333333333333</ele><time>2026-04-10T08:34:23Z</time></trkpt><trkpt lat="44.75654242161158" lon="7.860907877952771"><ele>389.0</ele><time>2026-04-10T08:34:24Z</time></trkpt><trkpt lat="44.756433586030425" lon="7.860960898043053"><ele>389.0</ele><time>2026-04-10T08:34:26Z</time></trkpt><trkpt lat="44.75632387752252" lon="7.8610105810360125"><ele>389.0</ele><time>2026-04-10T08:34:28Z</time></trkpt><trkpt lat="44.75624069487026" lon="7.861069901802516"><ele>389.0</ele><time>2026-04-10T08:34:30Z</time></trkpt><trkpt lat="44.756147995147195" lon="7.8611132087379385"><ele>389.0</ele><time>2026-04-10T08:34:32Z</time></trkpt><trkpt lat="44.756063859411036" lon="7.861135657140756"><ele>389.0</ele><time>2026-04-10T08:34:34Z</time></trkpt><trkpt lat="44.75599041247791" lon="7.861168474765959"><ele>389.0</ele><time>2026-04-10T08:34:36Z</time></trkpt><trkpt lat="44.75590931539537" lon="7.861214841365929"><ele>389.0</ele><time>2026-04-10T08:34:38Z</time></trkpt><trkpt lat="44.75581909704743" lon="7.86125524600349"><ele>389.0</ele><time>2026-04-10T08:34:40Z</time></trkpt><trkpt lat="44.75572083075807" lon="7.861290433462529"><ele>389.0</ele><time>2026-04-10T08:34:42Z</time></trkpt><trkpt lat="44.75561999188239" lon="7.861338347564421"><ele>389.0</ele><time>2026-04-10T08:34:44Z</time></trkpt><trkpt lat="44.75553273568008" lon="7.861390281468416"><ele>388.99999999999994</ele><time>2026-04-10T08:34:46Z</time></trkpt><trkpt lat="44.755455475992925" lon="7.861436953077035"><ele>389.0</ele><time>2026-04-10T08:34:48Z</time></trkpt><trkpt lat="44.755382520526865" lon="7.861504851541971"><ele>389.0</ele><time>2026-04-10T08:34:50Z</time></trkpt><trkpt lat="44.755318290100774" lon="7.861560338944497"><ele>389.0</ele><time>2026-04-10T08:34:51.999Z</time></trkpt><trkpt lat="44.75525039222428" lon="7.861635871709904"><ele>388.99999999999994</ele><time>2026-04-10T08:34:53.999Z</time></trkpt><trkpt lat="44.755176109754906" lon="7.861717964114617"><ele>389.0</ele><time>2026-04-10T08:34:55.999Z</time></trkpt><trkpt lat="44.75511329802637" lon="7.861767174508926"><ele>389.4</ele><time>2026-04-10T08:34:57.999Z</time></trkpt><trkpt lat="44.75503977968838" lon="7.861806399549263"><ele>389.79999999999995</ele><time>2026-04-10T08:34:59.999Z</time></trkpt><trkpt lat="44.75497618734258" lon="7.861880092482926"><ele>390.20000000000005</ele><time>2026-04-10T08:35:01.999Z</time></trkpt><trkpt lat="44.75491748270525" lon="7.861970250777991"><ele>390.6</ele><time>2026-04-10T08:35:03.999Z</time></trkpt><trkpt lat="44.75482866574405" lon="7.862092661369401"><ele>391.0</ele><time>2026-04-10T08:35:05.999Z</time></trkpt><trkpt lat="44.754742549428606" lon="7.862195993681293"><ele>391.00000000000006</ele><time>2026-04-10T08:35:07.999Z</time></trkpt><trkpt lat="44.75465664494103" lon="7.862255971727366"><ele>391.0</ele><time>2026-04-10T08:35:09.999Z</time></trkpt><trkpt lat="44.75457487401508" lon="7.862314141724576"><ele>391.0</ele><time>2026-04-10T08:35:11.999Z</time></trkpt><trkpt lat="44.754499012408075" lon="7.862394803985219"><ele>391.0</ele><time>2026-04-10T08:35:13.999Z</time></trkpt><trkpt lat="44.75445177063841" lon="7.862468570995188"><ele>391.00000000000006</ele><time>2026-04-10T08:35:15.999Z</time></trkpt><trkpt lat="44.7543915697563" lon="7.862541427800885"><ele>391.0</ele><time>2026-04-10T08:35:17.999Z</time></trkpt><trkpt lat="44.754332142478226" lon="7.862613806688639"><ele>392.0</ele><time>2026-04-10T08:35:19.999Z</time></trkpt><trkpt lat="44.754263694713764" lon="7.86269412246878"><ele>393.0</ele><time>2026-04-10T08:35:21.999Z</time></trkpt><trkpt lat="44.75418892215424" lon="7.8627794784488385"><ele>394.0</ele><time>2026-04-10T08:35:23.999Z</time></trkpt><trkpt lat="44.75412817359924" lon="7.862876346271879"><ele>395.0</ele><time>2026-04-10T08:35:25.999Z</time></trkpt><trkpt lat="44.754069360629074" lon="7.86298683894259"><ele>396.0</ele><time>2026-04-10T08:35:27.999Z</time></trkpt><trkpt lat="44.75399970311225" lon="7.863099764794285"><ele>396.0</ele><time>2026-04-10T08:35:29.999Z</time></trkpt><trkpt lat="44.75392180161132" lon="7.863202766939746"><ele>396.0</ele><time>2026-04-10T08:35:31.999Z</time></trkpt><trkpt lat="44.75385742397096" lon="7.863312916759377"><ele>396.0</ele><time>2026-04-10T08:35:33.999Z</time></trkpt><trkpt lat="44.7537758682235" lon="7.863431514202094"><ele>396.0</ele><time>2026-04-10T08:35:35.999Z</time></trkpt><trkpt lat="44.753729845340615" lon="7.863503212190258"><ele>396.0</ele><time>2026-04-10T08:35:36.999Z</time></trkpt><trkpt lat="44.753693830836404" lon="7.863688585847936"><ele>395.4</ele><time>2026-04-10T08:35:38.998Z</time></trkpt><trkpt lat="44.75367191441853" lon="7.863841440720167"><ele>394.8</ele><time>2026-04-10T08:35:40.998Z</time></trkpt><trkpt lat="44.75366133274788" lon="7.8639935126823755"><ele>394.2</ele><time>2026-04-10T08:35:42.998Z</time></trkpt><trkpt lat="44.75368961942575" lon="7.864139012251596"><ele>393.59999999999997</ele><time>2026-04-10T08:35:44.998Z</time></trkpt><trkpt lat="44.75374551904458" lon="7.864264415038134"><ele>393.0</ele><time>2026-04-10T08:35:46.998Z</time></trkpt><trkpt lat="44.75376568037381" lon="7.864402867762666"><ele>390.5</ele><time>2026-04-10T08:35:48.998Z</time></trkpt><trkpt lat="44.75371392834832" lon="7.864539876087789"><ele>388.0</ele><time>2026-04-10T08:35:50.998Z</time></trkpt><trkpt lat="44.75364362586619" lon="7.864677615873456"><ele>385.5</ele><time>2026-04-10T08:35:52.998Z</time></trkpt><trkpt lat="44.75358429311748" lon="7.8648277340758534"><ele>383.0</ele><time>2026-04-10T08:35:54.998Z</time></trkpt><trkpt lat="44.75357455569514" lon="7.865006018927185"><ele>382.0</ele><time>2026-04-10T08:35:56.998Z</time></trkpt><trkpt lat="44.75359639438113" lon="7.8651594260903375"><ele>381.0</ele><time>2026-04-10T08:35:58.998Z</time></trkpt><trkpt lat="44.75362666876197" lon="7.865256157107528"><ele>380.0</ele><time>2026-04-10T08:35:59.998Z</time></trkpt><trkpt lat="44.75366857738505" lon="7.865411999554828"><ele>379.0</ele><time>2026-04-10T08:36:01.998Z</time></trkpt><trkpt lat="44.75371510547603" lon="7.865561083898613"><ele>378.0</ele><time>2026-04-10T08:36:03.998Z</time></trkpt><trkpt lat="44.75373443124148" lon="7.865650417212019"><ele>378.0</ele><time>2026-04-10T08:36:04.998Z</time></trkpt><trkpt lat="44.75374390773172" lon="7.865743031766668"><ele>378.0</ele><time>2026-04-10T08:36:05.998Z</time></trkpt><trkpt lat="44.75375002941165" lon="7.865893819792024"><ele>378.0</ele><time>2026-04-10T08:36:07.998Z</time></trkpt><trkpt lat="44.75375220580611" lon="7.866072179078455"><ele>378.0</ele><time>2026-04-10T08:36:09.998Z</time></trkpt><trkpt lat="44.75372135324772" lon="7.866214514695789"><ele>378.0</ele><time>2026-04-10T08:36:11.998Z</time></trkpt><trkpt lat="44.75364491786205" lon="7.866324909152296"><ele>377.2</ele><time>2026-04-10T08:36:13.998Z</time></trkpt><trkpt lat="44.75356544990142" lon="7.866385251118249"><ele>376.4</ele><time>2026-04-10T08:36:15.998Z</time></trkpt><trkpt lat="44.75347582027309" lon="7.866453592319347"><ele>375.59999999999997</ele><time>2026-04-10T08:36:17.998Z</time></trkpt><trkpt lat="44.753380683027174" lon="7.866492022779261"><ele>374.79999999999995</ele><time>2026-04-10T08:36:19.998Z</time></trkpt><trkpt lat="44.75328272781245" lon="7.866481050040389"><ele>374.0</ele><time>2026-04-10T08:36:21.998Z</time></trkpt><trkpt lat="44.75322359736673" lon="7.866440041098915"><ele>373.4</ele><time>2026-04-10T08:36:23.998Z</time></trkpt><trkpt lat="44.75314180719761" lon="7.866440545214318"><ele>372.79999999999995</ele><time>2026-04-10T08:36:26.998Z</time></trkpt><trkpt lat="44.75310878920649" lon="7.866535396376973"><ele>372.20000000000005</ele><time>2026-04-10T08:36:28.998Z</time></trkpt><trkpt lat="44.75307048676425" lon="7.866667117616808"><ele>371.6</ele><time>2026-04-10T08:36:31Z</time></trkpt><trkpt lat="44.75304541370092" lon="7.8668297928911795"><ele>371.0</ele><time>2026-04-10T08:36:33Z</time></trkpt><trkpt lat="44.7530168883124" lon="7.866956068029733"><ele>370.33333333333337</ele><time>2026-04-10T08:36:35Z</time></trkpt><trkpt lat="44.752995436073206" lon="7.86709868272896"><ele>369.6666666666667</ele><time>2026-04-10T08:36:37Z</time></trkpt><trkpt lat="44.75298280309125" lon="7.867200772894389"><ele>369.0</ele><time>2026-04-10T08:36:39Z</time></trkpt><trkpt lat="44.752974924778236" lon="7.867321048336498"><ele>368.3333333333333</ele><time>2026-04-10T08:36:41Z</time></trkpt><trkpt lat="44.75300108798321" lon="7.86747102718017"><ele>367.66666666666663</ele><time>2026-04-10T08:36:43Z</time></trkpt><trkpt lat="44.75301857745494" lon="7.867556307606477"><ele>367.0</ele><time>2026-04-10T08:36:44Z</time></trkpt><trkpt lat="44.75306841498025" lon="7.867700104940147"><ele>366.0</ele><time>2026-04-10T08:36:46Z</time></trkpt><trkpt lat="44.75312169588736" lon="7.867841287091389"><ele>365.0</ele><time>2026-04-10T08:36:48Z</time></trkpt><trkpt lat="44.75315454734463" lon="7.867985502907334"><ele>364.0</ele><time>2026-04-10T08:36:50Z</time></trkpt><trkpt lat="44.753166991724804" lon="7.868151112701266"><ele>363.0</ele><time>2026-04-10T08:36:52Z</time></trkpt><trkpt lat="44.753192619749655" lon="7.868303887203368"><ele>363.0</ele><time>2026-04-10T08:36:54Z</time></trkpt><trkpt lat="44.753211433117265" lon="7.868400325475095"><ele>363.0</ele><time>2026-04-10T08:36:55Z</time></trkpt><trkpt lat="44.753229376852225" lon="7.8685640444094"><ele>363.0</ele><time>2026-04-10T08:36:57Z</time></trkpt><trkpt lat="44.753206597787766" lon="7.86871356312251"><ele>363.0</ele><time>2026-04-10T08:36:59Z</time></trkpt><trkpt lat="44.75320348580382" lon="7.868807562456312"><ele>363.0</ele><time>2026-04-10T08:37:00Z</time></trkpt><trkpt lat="44.753212724675464" lon="7.868986894739626"><ele>361.99999999999994</ele><time>2026-04-10T08:37:02Z</time></trkpt><trkpt lat="44.753220915840586" lon="7.86908475976702"><ele>361.0</ele><time>2026-04-10T08:37:03Z</time></trkpt><trkpt lat="44.75322305661872" lon="7.869183361190123"><ele>360.0</ele><time>2026-04-10T08:37:04Z</time></trkpt><trkpt lat="44.75321828641064" lon="7.8692797756553885"><ele>359.0</ele><time>2026-04-10T08:37:05Z</time></trkpt><trkpt lat="44.75323310396087" lon="7.869373282691141"><ele>358.0</ele><time>2026-04-10T08:37:06Z</time></trkpt><trkpt lat="44.75323954172756" lon="7.869481918598077"><ele>356.99999999999994</ele><time>2026-04-10T08:37:07Z</time></trkpt><trkpt lat="44.753241908572754" lon="7.869577344373826"><ele>356.0</ele><time>2026-04-10T08:37:08Z</time></trkpt><trkpt lat="44.75323094843936" lon="7.8697182057612105"><ele>355.0</ele><time>2026-04-10T08:37:10Z</time></trkpt><trkpt lat="44.75315980773539" lon="7.8697658229770315"><ele>354.0</ele><time>2026-04-10T08:37:12Z</time></trkpt><trkpt lat="44.75308136816061" lon="7.86979890463713"><ele>353.0</ele><time>2026-04-10T08:37:14Z</time></trkpt><trkpt lat="44.753012891449636" lon="7.869850138386996"><ele>352.0</ele><time>2026-04-10T08:37:16Z</time></trkpt><trkpt lat="44.752938712654746" lon="7.869916362342137"><ele>351.0</ele><time>2026-04-10T08:37:18Z</time></trkpt><trkpt lat="44.75287987401798" lon="7.870033481759064"><ele>350.0</ele><time>2026-04-10T08:37:20Z</time></trkpt><trkpt lat="44.752826100770896" lon="7.870183773100029"><ele>349.5</ele><time>2026-04-10T08:37:22Z</time></trkpt><trkpt lat="44.752805164147425" lon="7.870271195045902"><ele>349.0</ele><time>2026-04-10T08:37:23Z</time></trkpt><trkpt lat="44.75278593980884" lon="7.870361885659077"><ele>348.5</ele><time>2026-04-10T08:37:24Z</time></trkpt><trkpt lat="44.75274521086126" lon="7.870506460309707"><ele>348.0</ele><time>2026-04-10T08:37:26Z</time></trkpt><trkpt lat="44.752696438499825" lon="7.870622051427949"><ele>347.5</ele><time>2026-04-10T08:37:28Z</time></trkpt><trkpt lat="44.75263743180487" lon="7.87074880025929"><ele>347.0</ele><time>2026-04-10T08:37:30Z</time></trkpt><trkpt lat="44.75258414992371" lon="7.870871650028059"><ele>348.0</ele><time>2026-04-10T08:37:32Z</time></trkpt><trkpt lat="44.75254292854145" lon="7.871013666086588"><ele>349.0</ele><time>2026-04-10T08:37:34Z</time></trkpt><trkpt lat="44.75246459861876" lon="7.871113420587855"><ele>350.0</ele><time>2026-04-10T08:37:36Z</time></trkpt><trkpt lat="44.75237981975459" lon="7.871264918945996"><ele>351.0</ele><time>2026-04-10T08:37:38Z</time></trkpt><trkpt lat="44.75235358419213" lon="7.8713686392629905"><ele>352.0</ele><time>2026-04-10T08:37:39Z</time></trkpt><trkpt lat="44.75232995247238" lon="7.87146595966692"><ele>352.0</ele><time>2026-04-10T08:37:40Z</time></trkpt><trkpt lat="44.752308706707765" lon="7.871557978322153"><ele>352.0</ele><time>2026-04-10T08:37:41Z</time></trkpt><trkpt lat="44.75228565690775" lon="7.871652005612299"><ele>352.0</ele><time>2026-04-10T08:37:42Z</time></trkpt><trkpt lat="44.75225777471002" lon="7.871748040485634"><ele>352.0</ele><time>2026-04-10T08:37:43Z</time></trkpt><trkpt lat="44.75219758406897" lon="7.8719365240109065"><ele>352.0</ele><time>2026-04-10T08:37:45Z</time></trkpt><trkpt lat="44.752171261144674" lon="7.872042255446913"><ele>352.0</ele><time>2026-04-10T08:37:46Z</time></trkpt><trkpt lat="44.7521402642589" lon="7.872131078545303"><ele>352.0</ele><time>2026-04-10T08:37:47Z</time></trkpt><trkpt lat="44.75209897009082" lon="7.872212275544491"><ele>352.0</ele><time>2026-04-10T08:37:48Z</time></trkpt><trkpt lat="44.752062677453985" lon="7.872294447377765"><ele>352.0</ele><time>2026-04-10T08:37:49Z</time></trkpt><trkpt lat="44.75203257884564" lon="7.87237677127944"><ele>352.0</ele><time>2026-04-10T08:37:50Z</time></trkpt><trkpt lat="44.75196732863146" lon="7.8725273246361915"><ele>352.0</ele><time>2026-04-10T08:37:52Z</time></trkpt><trkpt lat="44.751938204456394" lon="7.872610243050655"><ele>352.0</ele><time>2026-04-10T08:37:53Z</time></trkpt><trkpt lat="44.75189857160615" lon="7.872692936394097"><ele>352.3333333333333</ele><time>2026-04-10T08:37:54Z</time></trkpt><trkpt lat="44.75186626906881" lon="7.872786886097668"><ele>352.66666666666663</ele><time>2026-04-10T08:37:55Z</time></trkpt><trkpt lat="44.751836227347454" lon="7.872870255517745"><ele>353.0</ele><time>2026-04-10T08:37:56Z</time></trkpt><trkpt lat="44.751771842852094" lon="7.872991184285502"><ele>353.3333333333333</ele><time>2026-04-10T08:37:58Z</time></trkpt><trkpt lat="44.751702063173575" lon="7.873105180238955"><ele>353.6666666666667</ele><time>2026-04-10T08:38:00Z</time></trkpt><trkpt lat="44.751665678213335" lon="7.87322822514471"><ele>354.0</ele><time>2026-04-10T08:38:02Z</time></trkpt><trkpt lat="44.7516059637478" lon="7.873329785687524"><ele>354.0</ele><time>2026-04-10T08:38:04Z</time></trkpt><trkpt lat="44.751560493743185" lon="7.873429731199428"><ele>354.0</ele><time>2026-04-10T08:38:06Z</time></trkpt><trkpt lat="44.751507221439816" lon="7.873528267042963"><ele>354.0</ele><time>2026-04-10T08:38:08Z</time></trkpt><trkpt lat="44.751438315727476" lon="7.873613993482991"><ele>354.0</ele><time>2026-04-10T08:38:10Z</time></trkpt><trkpt lat="44.75136315384469" lon="7.873698457611764"><ele>354.0</ele><time>2026-04-10T08:38:12Z</time></trkpt><trkpt lat="44.751290330708734" lon="7.873793648379454"><ele>354.2</ele><time>2026-04-10T08:38:14Z</time></trkpt><trkpt lat="44.75120227831042" lon="7.873877187233502"><ele>354.4</ele><time>2026-04-10T08:38:16Z</time></trkpt><trkpt lat="44.75112859619286" lon="7.873976183181029"><ele>354.6</ele><time>2026-04-10T08:38:18Z</time></trkpt><trkpt lat="44.75105768885478" lon="7.874071944916923"><ele>354.8</ele><time>2026-04-10T08:38:20Z</time></trkpt><trkpt lat="44.750984469621244" lon="7.874185816492483"><ele>355.0</ele><time>2026-04-10T08:38:22Z</time></trkpt><trkpt lat="44.750896275907216" lon="7.874308815436005"><ele>355.0</ele><time>2026-04-10T08:38:24Z</time></trkpt><trkpt lat="44.750812875317294" lon="7.874413509999073"><ele>355.0</ele><time>2026-04-10T08:38:26Z</time></trkpt><trkpt lat="44.75071776663335" lon="7.874496117127945"><ele>355.0</ele><time>2026-04-10T08:38:28Z</time></trkpt><trkpt lat="44.750639084952596" lon="7.874580838296393"><ele>355.0</ele><time>2026-04-10T08:38:30Z</time></trkpt><trkpt lat="44.75056367023887" lon="7.874681016221354"><ele>355.0</ele><time>2026-04-10T08:38:32Z</time></trkpt><trkpt lat="44.75048302111217" lon="7.874762629843341"><ele>355.0</ele><time>2026-04-10T08:38:34Z</time></trkpt><trkpt lat="44.750377492293474" lon="7.874825057844772"><ele>355.0</ele><time>2026-04-10T08:38:36Z</time></trkpt><trkpt lat="44.75027859154535" lon="7.8748818494146064"><ele>355.0</ele><time>2026-04-10T08:38:38Z</time></trkpt><trkpt lat="44.750194033859366" lon="7.874973677462447"><ele>355.0</ele><time>2026-04-10T08:38:40Z</time></trkpt><trkpt lat="44.75013141173487" lon="7.875062273885088"><ele>355.0</ele><time>2026-04-10T08:38:42Z</time></trkpt><trkpt lat="44.75008990643981" lon="7.8751914976691415"><ele>355.6</ele><time>2026-04-10T08:38:43.999Z</time></trkpt><trkpt lat="44.750022735571115" lon="7.875336795306316"><ele>356.2</ele><time>2026-04-10T08:38:45.999Z</time></trkpt><trkpt lat="44.74997664699395" lon="7.875478482830042"><ele>356.79999999999995</ele><time>2026-04-10T08:38:47.999Z</time></trkpt><trkpt lat="44.74995055376729" lon="7.875567049092241"><ele>357.4</ele><time>2026-04-10T08:38:48.999Z</time></trkpt><trkpt lat="44.74991752882716" lon="7.875723417517643"><ele>358.0</ele><time>2026-04-10T08:38:50.999Z</time></trkpt><trkpt lat="44.74987219180313" lon="7.875877416948269"><ele>358.0</ele><time>2026-04-10T08:38:52.999Z</time></trkpt><trkpt lat="44.74983290617001" lon="7.876035400596816"><ele>358.0</ele><time>2026-04-10T08:38:54.999Z</time></trkpt><trkpt lat="44.749809816201314" lon="7.876199469304467"><ele>358.0</ele><time>2026-04-10T08:38:56.999Z</time></trkpt><trkpt lat="44.74979673494308" lon="7.876291329064818"><ele>358.0</ele><time>2026-04-10T08:38:57.999Z</time></trkpt><trkpt lat="44.74977046711197" lon="7.876372434753183"><ele>358.0</ele><time>2026-04-10T08:38:58.999Z</time></trkpt><trkpt lat="44.74974413725625" lon="7.876527737576642"><ele>358.0</ele><time>2026-04-10T08:39:00.999Z</time></trkpt><trkpt lat="44.74971928826537" lon="7.876658159255676"><ele>358.0</ele><time>2026-04-10T08:39:02.999Z</time></trkpt><trkpt lat="44.749698989255045" lon="7.876793392247949"><ele>358.0</ele><time>2026-04-10T08:39:04.999Z</time></trkpt><trkpt lat="44.74966974876049" lon="7.876901961577701"><ele>358.0</ele><time>2026-04-10T08:39:06.999Z</time></trkpt><trkpt lat="44.74963434201722" lon="7.877039977387179"><ele>358.0</ele><time>2026-04-10T08:39:08.999Z</time></trkpt><trkpt lat="44.749604095526784" lon="7.877154460140748"><ele>359.4</ele><time>2026-04-10T08:39:10.999Z</time></trkpt><trkpt lat="44.74956055079711" lon="7.877277204069976"><ele>360.79999999999995</ele><time>2026-04-10T08:39:12.999Z</time></trkpt><trkpt lat="44.74951227419793" lon="7.877389389736818"><ele>362.2</ele><time>2026-04-10T08:39:14.999Z</time></trkpt><trkpt lat="44.74945901820675" lon="7.877513383946428"><ele>363.6</ele><time>2026-04-10T08:39:16.999Z</time></trkpt><trkpt lat="44.74940803931124" lon="7.877641549323306"><ele>365.0</ele><time>2026-04-10T08:39:18.999Z</time></trkpt><trkpt lat="44.749389371007624" lon="7.877729804646844"><ele>366.0</ele><time>2026-04-10T08:39:19.999Z</time></trkpt><trkpt lat="44.74937749474828" lon="7.877819115411338"><ele>367.0</ele><time>2026-04-10T08:39:20.999Z</time></trkpt><trkpt lat="44.74939413645091" lon="7.877906675762999"><ele>368.0</ele><time>2026-04-10T08:39:21.999Z</time></trkpt><trkpt lat="44.74943516487513" lon="7.878055093976762"><ele>369.0</ele><time>2026-04-10T08:39:23.999Z</time></trkpt><trkpt lat="44.749487057208256" lon="7.878184071272942"><ele>370.0</ele><time>2026-04-10T08:39:25.999Z</time></trkpt><trkpt lat="44.74949963065232" lon="7.878328618292017"><ele>370.4</ele><time>2026-04-10T08:39:27.999Z</time></trkpt><trkpt lat="44.74950790933371" lon="7.878462526398283"><ele>370.8</ele><time>2026-04-10T08:39:29.999Z</time></trkpt><trkpt lat="44.74950189116098" lon="7.878595792547213"><ele>371.20000000000005</ele><time>2026-04-10T08:39:31.999Z</time></trkpt><trkpt lat="44.74948179826674" lon="7.878709335795522"><ele>371.6</ele><time>2026-04-10T08:39:33.999Z</time></trkpt><trkpt lat="44.74945618992688" lon="7.878836825404233"><ele>372.0</ele><time>2026-04-10T08:39:35.999Z</time></trkpt><trkpt lat="44.749448781366006" lon="7.878962449625038"><ele>372.0</ele><time>2026-04-10T08:39:37.999Z</time></trkpt><trkpt lat="44.74943843590105" lon="7.879085129244527"><ele>372.0</ele><time>2026-04-10T08:39:39.999Z</time></trkpt><trkpt lat="44.74942345771105" lon="7.879208002762292"><ele>372.0</ele><time>2026-04-10T08:39:41.999Z</time></trkpt><trkpt lat="44.749394032322904" lon="7.879332044696755"><ele>372.0</ele><time>2026-04-10T08:39:43.999Z</time></trkpt><trkpt lat="44.74939486868542" lon="7.879462067783205"><ele>372.0</ele><time>2026-04-10T08:39:45.999Z</time></trkpt><trkpt lat="44.749394239013895" lon="7.87959488981322"><ele>372.20000000000005</ele><time>2026-04-10T08:39:47.999Z</time></trkpt><trkpt lat="44.749401970504245" lon="7.879727863894025"><ele>372.4</ele><time>2026-04-10T08:39:49.999Z</time></trkpt><trkpt lat="44.74940247922282" lon="7.879862318805038"><ele>372.6</ele><time>2026-04-10T08:39:51.999Z</time></trkpt><trkpt lat="44.74940278895708" lon="7.879972759521886"><ele>372.79999999999995</ele><time>2026-04-10T08:39:53.999Z</time></trkpt><trkpt lat="44.74938993803625" lon="7.880128939720365"><ele>373.0</ele><time>2026-04-10T08:39:55.999Z</time></trkpt><trkpt lat="44.749386211245" lon="7.880250319940343"><ele>372.5</ele><time>2026-04-10T08:39:57.999Z</time></trkpt><trkpt lat="44.7493945029787" lon="7.880382402090465"><ele>372.0</ele><time>2026-04-10T08:39:59.999Z</time></trkpt><trkpt lat="44.749405227509705" lon="7.880497268806494"><ele>371.5</ele><time>2026-04-10T08:40:01.999Z</time></trkpt><trkpt lat="44.74940714695034" lon="7.880610776997895"><ele>371.0</ele><time>2026-04-10T08:40:03.999Z</time></trkpt><trkpt lat="44.7494007811077" lon="7.880707262869154"><ele>370.5</ele><time>2026-04-10T08:40:05.999Z</time></trkpt><trkpt lat="44.74939127414471" lon="7.880796743722079"><ele>370.0</ele><time>2026-04-10T08:40:07.999Z</time></trkpt><trkpt lat="44.749336618158665" lon="7.880911017554106"><ele>369.66666666666663</ele><time>2026-04-10T08:40:10.999Z</time></trkpt><trkpt lat="44.749299688740855" lon="7.881011319881687"><ele>369.3333333333333</ele><time>2026-04-10T08:40:12.999Z</time></trkpt><trkpt lat="44.74925582589506" lon="7.88110375681052"><ele>369.0</ele><time>2026-04-10T08:40:14.999Z</time></trkpt><trkpt lat="44.74921940918524" lon="7.881193891799992"><ele>368.6666666666667</ele><time>2026-04-10T08:40:16.999Z</time></trkpt><trkpt lat="44.74918099229073" lon="7.881268846301497"><ele>368.33333333333337</ele><time>2026-04-10T08:40:18.999Z</time></trkpt><trkpt lat="44.749129588192645" lon="7.8813742634790565"><ele>368.0</ele><time>2026-04-10T08:40:20.999Z</time></trkpt><trkpt lat="44.749095420656246" lon="7.881481017168055"><ele>368.0</ele><time>2026-04-10T08:40:22.999Z</time></trkpt><trkpt lat="44.74905238244899" lon="7.881584858508123"><ele>368.0</ele><time>2026-04-10T08:40:25.999Z</time></trkpt><trkpt lat="44.74902022238838" lon="7.88168921362467"><ele>368.0</ele><time>2026-04-10T08:40:27.999Z</time></trkpt><trkpt lat="44.74896965877826" lon="7.881770804391241"><ele>368.0</ele><time>2026-04-10T08:40:30.999Z</time></trkpt><trkpt lat="44.74893572102472" lon="7.881848670667637"><ele>368.0</ele><time>2026-04-10T08:40:32.999Z</time></trkpt><trkpt lat="44.748879338116936" lon="7.881923543165842"><ele>368.0</ele><time>2026-04-10T08:40:35.999Z</time></trkpt><trkpt lat="44.74880172735842" lon="7.88199273437229"><ele>368.33333333333337</ele><time>2026-04-10T08:40:38.999Z</time></trkpt><trkpt lat="44.74873551486839" lon="7.882031544581718"><ele>368.6666666666667</ele><time>2026-04-10T08:40:40.999Z</time></trkpt><trkpt lat="44.7486696298765" lon="7.8820817262158815"><ele>369.0</ele><time>2026-04-10T08:40:42.999Z</time></trkpt><trkpt lat="44.74861212994404" lon="7.8821512226768204"><ele>369.3333333333333</ele><time>2026-04-10T08:40:44.999Z</time></trkpt><trkpt lat="44.74855694132648" lon="7.882211825735679"><ele>369.66666666666663</ele><time>2026-04-10T08:40:46.999Z</time></trkpt><trkpt lat="44.7484999808603" lon="7.882288978764034"><ele>370.0</ele><time>2026-04-10T08:40:48.999Z</time></trkpt><trkpt lat="44.74843594155291" lon="7.882382839952655"><ele>369.99999999999994</ele><time>2026-04-10T08:40:51.999Z</time></trkpt><trkpt lat="44.74837969609419" lon="7.882434034207241"><ele>370.0</ele><time>2026-04-10T08:40:53.999Z</time></trkpt><trkpt lat="44.74832884297788" lon="7.882526636369521"><ele>370.0</ele><time>2026-04-10T08:40:56.999Z</time></trkpt><trkpt lat="44.74827726448653" lon="7.882588451001741"><ele>370.0</ele><time>2026-04-10T08:40:58.999Z</time></trkpt><trkpt lat="44.74822570714651" lon="7.882669268436057"><ele>370.0</ele><time>2026-04-10T08:41:00.999Z</time></trkpt><trkpt lat="44.748186523789215" lon="7.882740908773586"><ele>369.99999999999994</ele><time>2026-04-10T08:41:02.999Z</time></trkpt><trkpt lat="44.748155345397166" lon="7.882837105565409"><ele>370.0</ele><time>2026-04-10T08:41:05.999Z</time></trkpt><trkpt lat="44.74811947666771" lon="7.8829594152309115"><ele>371.5</ele><time>2026-04-10T08:41:08.999Z</time></trkpt><trkpt lat="44.748097154561734" lon="7.8830843074238865"><ele>373.0</ele><time>2026-04-10T08:41:11.999Z</time></trkpt><trkpt lat="44.748071114643984" lon="7.883174908612308"><ele>374.5</ele><time>2026-04-10T08:41:13.999Z</time></trkpt><trkpt lat="44.748046613425174" lon="7.8832954084580855"><ele>376.0</ele><time>2026-04-10T08:41:16.999Z</time></trkpt><trkpt lat="44.748016643234536" lon="7.883398922265752"><ele>377.5</ele><time>2026-04-10T08:41:19.999Z</time></trkpt><trkpt lat="44.747994878303395" lon="7.88349805619846"><ele>379.0</ele><time>2026-04-10T08:41:22.999Z</time></trkpt><trkpt lat="44.74794976321801" lon="7.8835805509436625"><ele>378.8571428571429</ele><time>2026-04-10T08:41:26.999Z</time></trkpt><trkpt lat="44.74791106319415" lon="7.883674724452828"><ele>378.7142857142857</ele><time>2026-04-10T08:41:29.999Z</time></trkpt><trkpt lat="44.747881237839785" lon="7.883756021627246"><ele>378.57142857142856</ele><time>2026-04-10T08:41:33.999Z</time></trkpt><trkpt lat="44.74785978540631" lon="7.88385004501943"><ele>378.42857142857144</ele><time>2026-04-10T08:41:37.999Z</time></trkpt><trkpt lat="44.74783415778834" lon="7.8839471938229675"><ele>378.2857142857143</ele><time>2026-04-10T08:41:42.999Z</time></trkpt><trkpt lat="44.74778834013597" lon="7.884026296099083"><ele>378.14285714285717</ele><time>2026-04-10T08:41:48.999Z</time></trkpt><trkpt lat="44.747739792485994" lon="7.884089128211427"><ele>378.0</ele><time>2026-04-10T08:41:53.999Z</time></trkpt><trkpt lat="44.7477081837686" lon="7.884184029435743"><ele>380.0</ele><time>2026-04-10T08:41:58.999Z</time></trkpt><trkpt lat="44.74767737441334" lon="7.884265419569177"><ele>382.0</ele><time>2026-04-10T08:42:02.999Z</time></trkpt><trkpt lat="44.747632422497176" lon="7.884347209802824"><ele>384.0</ele><time>2026-04-10T08:42:06.999Z</time></trkpt><trkpt lat="44.74758974091647" lon="7.884443669316546"><ele>386.0</ele><time>2026-04-10T08:42:10.999Z</time></trkpt><trkpt lat="44.74755961214111" lon="7.884533983351353"><ele>388.0</ele><time>2026-04-10T08:42:14.999Z</time></trkpt><trkpt lat="44.74753341235261" lon="7.884618513742254"><ele>390.0</ele><time>2026-04-10T08:42:19.999Z</time></trkpt><trkpt lat="44.74749540878613" lon="7.884693708593272"><ele>392.0</ele><time>2026-04-10T08:42:25.999Z</time></trkpt><trkpt lat="44.74745434448481" lon="7.884766660181964"><ele>392.0</ele><time>2026-04-10T08:42:31.999Z</time></trkpt><trkpt lat="44.74739349940867" lon="7.8848188257993455"><ele>392.0</ele><time>2026-04-10T08:42:36.999Z</time></trkpt><trkpt lat="44.747356270606886" lon="7.884904718284702"><ele>392.0</ele><time>2026-04-10T08:42:40.999Z</time></trkpt><trkpt lat="44.74730760626094" lon="7.884977795338713"><ele>392.0</ele><time>2026-04-10T08:42:47.999Z</time></trkpt><trkpt lat="44.747232206245826" lon="7.884984071559653"><ele>392.0</ele><time>2026-04-10T08:42:51.999Z</time></trkpt><trkpt lat="44.74715337871385" lon="7.884978019801336"><ele>392.0</ele><time>2026-04-10T08:42:55.999Z</time></trkpt><trkpt lat="44.74708220278654" lon="7.885003371309061"><ele>392.0</ele><time>2026-04-10T08:42:58.999Z</time></trkpt><trkpt lat="44.747017785118516" lon="7.8850392453737355"><ele>392.0</ele><time>2026-04-10T08:43:02.999Z</time></trkpt><trkpt lat="44.746947042064846" lon="7.885061188679937"><ele>392.0</ele><time>2026-04-10T08:43:05.999Z</time></trkpt><trkpt lat="44.74689776129869" lon="7.885141316915066"><ele>392.0</ele><time>2026-04-10T08:43:09.999Z</time></trkpt><trkpt lat="44.746895060565" lon="7.885240515177575"><ele>392.0</ele><time>2026-04-10T08:43:13.999Z</time></trkpt><trkpt lat="44.74690602868234" lon="7.8853580918901445"><ele>392.0</ele><time>2026-04-10T08:43:17.999Z</time></trkpt><trkpt lat="44.74692096160102" lon="7.885446317398124"><ele>392.0</ele><time>2026-04-10T08:43:20.999Z</time></trkpt><trkpt lat="44.746954113572926" lon="7.885530681991047"><ele>392.0</ele><time>2026-04-10T08:43:25.999Z</time></trkpt><trkpt lat="44.746987990703516" lon="7.885606952650354"><ele>393.57142857142856</ele><time>2026-04-10T08:43:31.999Z</time></trkpt><trkpt lat="44.74700692118357" lon="7.885698205215445"><ele>395.1428571428571</ele><time>2026-04-10T08:43:37Z</time></trkpt><trkpt lat="44.74705155658917" lon="7.885769095954982"><ele>396.7142857142857</ele><time>2026-04-10T08:43:41Z</time></trkpt><trkpt lat="44.747097226218905" lon="7.88584004390155"><ele>398.2857142857143</ele><time>2026-04-10T08:43:45Z</time></trkpt><trkpt lat="44.7471381154572" lon="7.885919693202989"><ele>399.85714285714283</ele><time>2026-04-10T08:43:49Z</time></trkpt><trkpt lat="44.747173717823685" lon="7.886003659540879"><ele>401.42857142857144</ele><time>2026-04-10T08:43:53Z</time></trkpt><trkpt lat="44.747189480070304" lon="7.886093106253402"><ele>403.0</ele><time>2026-04-10T08:43:57Z</time></trkpt><trkpt lat="44.74722231719891" lon="7.886187789494052"><ele>403.42857142857144</ele><time>2026-04-10T08:44:02Z</time></trkpt><trkpt lat="44.74722894591535" lon="7.886286738334492"><ele>403.85714285714283</ele><time>2026-04-10T08:44:06Z</time></trkpt><trkpt lat="44.74723341294661" lon="7.886379502110948"><ele>404.2857142857143</ele><time>2026-04-10T08:44:10Z</time></trkpt><trkpt lat="44.747240612798" lon="7.8864828037950705"><ele>404.7142857142857</ele><time>2026-04-10T08:44:15Z</time></trkpt><trkpt lat="44.74725077210571" lon="7.886597786222921"><ele>405.1428571428571</ele><time>2026-04-10T08:44:20Z</time></trkpt><trkpt lat="44.747261742633576" lon="7.886703993571913"><ele>405.57142857142856</ele><time>2026-04-10T08:44:24Z</time></trkpt><trkpt lat="44.74727195269021" lon="7.886792450871429"><ele>406.0</ele><time>2026-04-10T08:44:29Z</time></trkpt><trkpt lat="44.74726639240738" lon="7.8868829458985"><ele>406.0</ele><time>2026-04-10T08:44:33Z</time></trkpt><trkpt lat="44.74725318284878" lon="7.88698374984302"><ele>406.0</ele><time>2026-04-10T08:44:37Z</time></trkpt><trkpt lat="44.74723834415876" lon="7.887070251250427"><ele>406.0</ele><time>2026-04-10T08:44:41Z</time></trkpt><trkpt lat="44.74722151586007" lon="7.887165887055996"><ele>406.0</ele><time>2026-04-10T08:44:45Z</time></trkpt><trkpt lat="44.7472285083736" lon="7.887302335642006"><ele>406.0</ele><time>2026-04-10T08:44:49Z</time></trkpt><trkpt lat="44.747289580475076" lon="7.887338865895541"><ele>406.0</ele><time>2026-04-10T08:44:52Z</time></trkpt><trkpt lat="44.74733526868615" lon="7.887253326666648"><ele>406.0</ele><time>2026-04-10T08:44:56Z</time></trkpt><trkpt lat="44.747368733669866" lon="7.887158130674069"><ele>406.0</ele><time>2026-04-10T08:44:58Z</time></trkpt><trkpt lat="44.74741297095275" lon="7.88703633788537"><ele>406.0</ele><time>2026-04-10T08:45:00Z</time></trkpt><trkpt lat="44.74745208499414" lon="7.886928523103623"><ele>406.0</ele><time>2026-04-10T08:45:02Z</time></trkpt><trkpt lat="44.747493015537906" lon="7.886815117877382"><ele>406.0</ele><time>2026-04-10T08:45:04Z</time></trkpt><trkpt lat="44.747538506739346" lon="7.886691597039547"><ele>406.0</ele><time>2026-04-10T08:45:06Z</time></trkpt><trkpt lat="44.747585830599405" lon="7.886574146309663"><ele>406.4</ele><time>2026-04-10T08:45:08Z</time></trkpt><trkpt lat="44.74763397726361" lon="7.886473236315201"><ele>406.8</ele><time>2026-04-10T08:45:10Z</time></trkpt><trkpt lat="44.74768009305701" lon="7.886380874803264"><ele>407.2</ele><time>2026-04-10T08:45:12Z</time></trkpt><trkpt lat="44.74773977115013" lon="7.886285112417387"><ele>407.59999999999997</ele><time>2026-04-10T08:45:14Z</time></trkpt><trkpt lat="44.74781311962351" lon="7.886187764575831"><ele>408.0</ele><time>2026-04-10T08:45:16Z</time></trkpt><trkpt lat="44.74788639987684" lon="7.886067786129529"><ele>408.0</ele><time>2026-04-10T08:45:18Z</time></trkpt><trkpt lat="44.74793651443812" lon="7.8859930252264565"><ele>408.0</ele><time>2026-04-10T08:45:19Z</time></trkpt><trkpt lat="44.74797650366736" lon="7.885917488749563"><ele>408.0</ele><time>2026-04-10T08:45:20Z</time></trkpt><trkpt lat="44.74801798497602" lon="7.885842425951932"><ele>408.0</ele><time>2026-04-10T08:45:21Z</time></trkpt><trkpt lat="44.74805366464945" lon="7.885766146742129"><ele>408.0</ele><time>2026-04-10T08:45:22Z</time></trkpt><trkpt lat="44.7480923517653" lon="7.885689629803202"><ele>408.0</ele><time>2026-04-10T08:45:23Z</time></trkpt><trkpt lat="44.74813529895991" lon="7.885606879826299"><ele>408.0</ele><time>2026-04-10T08:45:24Z</time></trkpt><trkpt lat="44.748180453365535" lon="7.8855178612509755"><ele>407.8333333333333</ele><time>2026-04-10T08:45:25Z</time></trkpt><trkpt lat="44.748227545446845" lon="7.885424924664809"><ele>407.66666666666663</ele><time>2026-04-10T08:45:26Z</time></trkpt><trkpt lat="44.74827777549293" lon="7.885332935435932"><ele>407.5</ele><time>2026-04-10T08:45:26.999Z</time></trkpt><trkpt lat="44.74832653256094" lon="7.885250336755333"><ele>407.3333333333333</ele><time>2026-04-10T08:45:27.999Z</time></trkpt><trkpt lat="44.748379769489546" lon="7.88517213139302"><ele>407.16666666666663</ele><time>2026-04-10T08:45:28.999Z</time></trkpt><trkpt lat="44.74843631559437" lon="7.885089149188223"><ele>407.0</ele><time>2026-04-10T08:45:29.999Z</time></trkpt><trkpt lat="44.74848782642852" lon="7.8850057848427735"><ele>406.7142857142857</ele><time>2026-04-10T08:45:30.999Z</time></trkpt><trkpt lat="44.74853858045382" lon="7.88492739736126"><ele>406.42857142857144</ele><time>2026-04-10T08:45:31.999Z</time></trkpt><trkpt lat="44.74859598329776" lon="7.884849417636339"><ele>406.1428571428571</ele><time>2026-04-10T08:45:32.999Z</time></trkpt><trkpt lat="44.74866019316883" lon="7.884789700258362"><ele>405.8571428571429</ele><time>2026-04-10T08:45:33.999Z</time></trkpt><trkpt lat="44.74872477409257" lon="7.8847336108831545"><ele>405.57142857142856</ele><time>2026-04-10T08:45:34.999Z</time></trkpt><trkpt lat="44.74878807467547" lon="7.884683700025726"><ele>405.2857142857143</ele><time>2026-04-10T08:45:35.999Z</time></trkpt><trkpt lat="44.74884609816991" lon="7.884636191954658"><ele>405.0</ele><time>2026-04-10T08:45:36.999Z</time></trkpt><trkpt lat="44.74890431584121" lon="7.88459203661176"><ele>404.99999999999994</ele><time>2026-04-10T08:45:37.999Z</time></trkpt><trkpt lat="44.74896697164" lon="7.884555201602322"><ele>405.0</ele><time>2026-04-10T08:45:38.999Z</time></trkpt><trkpt lat="44.749034861224125" lon="7.884530288826736"><ele>405.0</ele><time>2026-04-10T08:45:39.999Z</time></trkpt><trkpt lat="44.749106092114964" lon="7.884508048890927"><ele>405.0</ele><time>2026-04-10T08:45:40.999Z</time></trkpt><trkpt lat="44.7491788410141" lon="7.8844950297848575"><ele>405.0</ele><time>2026-04-10T08:45:41.999Z</time></trkpt><trkpt lat="44.74924386827433" lon="7.884491632474365"><ele>404.99999999999994</ele><time>2026-04-10T08:45:42.999Z</time></trkpt><trkpt lat="44.74931550764539" lon="7.884484146472372"><ele>405.0</ele><time>2026-04-10T08:45:43.999Z</time></trkpt><trkpt lat="44.74939074507261" lon="7.884475904598096"><ele>404.6666666666667</ele><time>2026-04-10T08:45:44.999Z</time></trkpt><trkpt lat="44.749460493218535" lon="7.884475262746676"><ele>404.33333333333337</ele><time>2026-04-10T08:45:45.999Z</time></trkpt><trkpt lat="44.74957653475995" lon="7.884477611093563"><ele>404.0</ele><time>2026-04-10T08:45:47.999Z</time></trkpt><trkpt lat="44.74964069903059" lon="7.884485694550193"><ele>403.6666666666667</ele><time>2026-04-10T08:45:48.999Z</time></trkpt><trkpt lat="44.749761789657505" lon="7.88450539057521"><ele>403.33333333333337</ele><time>2026-04-10T08:45:50.999Z</time></trkpt><trkpt lat="44.749831498889456" lon="7.884513246168647"><ele>403.0</ele><time>2026-04-10T08:45:51.999Z</time></trkpt><trkpt lat="44.749935659935865" lon="7.8845209711185475"><ele>403.0</ele><time>2026-04-10T08:45:53.999Z</time></trkpt><trkpt lat="44.75004864484588" lon="7.884505174207411"><ele>403.0</ele><time>2026-04-10T08:45:55.999Z</time></trkpt><trkpt lat="44.75016793237253" lon="7.884534203628672"><ele>403.0</ele><time>2026-04-10T08:45:57.999Z</time></trkpt><trkpt lat="44.750281976516625" lon="7.8845568071496"><ele>403.0</ele><time>2026-04-10T08:45:59.999Z</time></trkpt><trkpt lat="44.750348519228986" lon="7.884550994366042"><ele>403.0</ele><time>2026-04-10T08:46:00.999Z</time></trkpt><trkpt lat="44.75045928732593" lon="7.884533575709935"><ele>402.50000000000006</ele><time>2026-04-10T08:46:02.999Z</time></trkpt><trkpt lat="44.750544972709854" lon="7.884539096497883"><ele>402.0</ele><time>2026-04-10T08:46:04.999Z</time></trkpt><trkpt lat="44.750625772376665" lon="7.884501360073556"><ele>401.5</ele><time>2026-04-10T08:46:06.999Z</time></trkpt><trkpt lat="44.75070082609332" lon="7.884440232031391"><ele>401.0</ele><time>2026-04-10T08:46:08.999Z</time></trkpt><trkpt lat="44.75076060668048" lon="7.8843940632460185"><ele>400.50000000000006</ele><time>2026-04-10T08:46:10.999Z</time></trkpt><trkpt lat="44.75082953094171" lon="7.884335230577203"><ele>400.0</ele><time>2026-04-10T08:46:12.999Z</time></trkpt><trkpt lat="44.750888899664666" lon="7.884296986363516"><ele>401.1666666666667</ele><time>2026-04-10T08:46:14.999Z</time></trkpt><trkpt lat="44.750972345740045" lon="7.884251955745656"><ele>402.33333333333337</ele><time>2026-04-10T08:46:16.999Z</time></trkpt><trkpt lat="44.75105317783073" lon="7.884202923647802"><ele>403.5</ele><time>2026-04-10T08:46:18.999Z</time></trkpt><trkpt lat="44.75112457369541" lon="7.884165245534542"><ele>404.66666666666663</ele><time>2026-04-10T08:46:20.999Z</time></trkpt><trkpt lat="44.751200712990546" lon="7.884124847345746"><ele>405.8333333333333</ele><time>2026-04-10T08:46:22.999Z</time></trkpt><trkpt lat="44.75127484833395" lon="7.884088192208152"><ele>407.0</ele><time>2026-04-10T08:46:24.999Z</time></trkpt><trkpt lat="44.7513502345218" lon="7.884028041084381"><ele>407.99999999999994</ele><time>2026-04-10T08:46:26.999Z</time></trkpt><trkpt lat="44.75143671425609" lon="7.883959975627949"><ele>409.0</ele><time>2026-04-10T08:46:28.999Z</time></trkpt><trkpt lat="44.751517202041455" lon="7.883906632761773"><ele>410.0</ele><time>2026-04-10T08:46:30.999Z</time></trkpt><trkpt lat="44.7515808468785" lon="7.883850068010734"><ele>411.0</ele><time>2026-04-10T08:46:32.999Z</time></trkpt><trkpt lat="44.75164398409517" lon="7.883786082035226"><ele>411.99999999999994</ele><time>2026-04-10T08:46:34.999Z</time></trkpt><trkpt lat="44.751695545258485" lon="7.883722566447159"><ele>413.0</ele><time>2026-04-10T08:46:36.999Z</time></trkpt><trkpt lat="44.75175021762094" lon="7.883656068258219"><ele>412.99999999999994</ele><time>2026-04-10T08:46:38.999Z</time></trkpt><trkpt lat="44.751814128191114" lon="7.883603352770638"><ele>413.0</ele><time>2026-04-10T08:46:40.999Z</time></trkpt><trkpt lat="44.751865986275355" lon="7.8835404788199"><ele>413.0</ele><time>2026-04-10T08:46:42.999Z</time></trkpt><trkpt lat="44.75192661900215" lon="7.8834674183093085"><ele>413.0</ele><time>2026-04-10T08:46:44.999Z</time></trkpt><trkpt lat="44.751991796892156" lon="7.883389844774953"><ele>412.99999999999994</ele><time>2026-04-10T08:46:46.999Z</time></trkpt><trkpt lat="44.752044706593836" lon="7.88331651212723"><ele>413.0</ele><time>2026-04-10T08:46:48.999Z</time></trkpt><trkpt lat="44.752079458590686" lon="7.883208641595192"><ele>413.59999999999997</ele><time>2026-04-10T08:46:50.999Z</time></trkpt><trkpt lat="44.75210687125681" lon="7.883121168500079"><ele>414.2</ele><time>2026-04-10T08:46:51.999Z</time></trkpt><trkpt lat="44.752132532085426" lon="7.883032655924166"><ele>414.8</ele><time>2026-04-10T08:46:52.999Z</time></trkpt><trkpt lat="44.75218122033112" lon="7.882875712431495"><ele>415.4</ele><time>2026-04-10T08:46:54.999Z</time></trkpt><trkpt lat="44.75222458187496" lon="7.882747415114735"><ele>416.0</ele><time>2026-04-10T08:46:56.999Z</time></trkpt><trkpt lat="44.75227204569377" lon="7.88262683537246"><ele>417.20000000000005</ele><time>2026-04-10T08:46:58.999Z</time></trkpt><trkpt lat="44.75230340121111" lon="7.882481526024601"><ele>418.40000000000003</ele><time>2026-04-10T08:47:00.999Z</time></trkpt><trkpt lat="44.75228970814738" lon="7.882366201692388"><ele>419.6</ele><time>2026-04-10T08:47:02.999Z</time></trkpt><trkpt lat="44.75227100490094" lon="7.882219497737526"><ele>420.8</ele><time>2026-04-10T08:47:05.999Z</time></trkpt><trkpt lat="44.75225597240417" lon="7.882115007758868"><ele>422.0</ele><time>2026-04-10T08:47:07.999Z</time></trkpt><trkpt lat="44.752238178265486" lon="7.881992647070032"><ele>421.99999999999994</ele><time>2026-04-10T08:47:10.999Z</time></trkpt><trkpt lat="44.75220964317752" lon="7.881907688884889"><ele>422.0</ele><time>2026-04-10T08:47:12.999Z</time></trkpt><trkpt lat="44.75218933219793" lon="7.881798585421868"><ele>422.0</ele><time>2026-04-10T08:47:14.999Z</time></trkpt><trkpt lat="44.75218135722598" lon="7.881684707376683"><ele>422.0</ele><time>2026-04-10T08:47:16.999Z</time></trkpt><trkpt lat="44.752183228002075" lon="7.881557485168629"><ele>421.99999999999994</ele><time>2026-04-10T08:47:18.999Z</time></trkpt><trkpt lat="44.75220363463604" lon="7.881439632935635"><ele>422.0</ele><time>2026-04-10T08:47:20.999Z</time></trkpt><trkpt lat="44.75222618344041" lon="7.88129698835765"><ele>421.99999999999994</ele><time>2026-04-10T08:47:22.999Z</time></trkpt><trkpt lat="44.75225855132175" lon="7.881134178840075"><ele>422.0</ele><time>2026-04-10T08:47:24.999Z</time></trkpt><trkpt lat="44.7522827524776" lon="7.881051671141002"><ele>422.0</ele><time>2026-04-10T08:47:25.999Z</time></trkpt><trkpt lat="44.752306508606296" lon="7.880957668064513"><ele>422.0</ele><time>2026-04-10T08:47:26.999Z</time></trkpt><trkpt lat="44.75234660915035" lon="7.880818750442983"><ele>421.99999999999994</ele><time>2026-04-10T08:47:28.999Z</time></trkpt><trkpt lat="44.7523765046107" lon="7.880733385892551"><ele>422.0</ele><time>2026-04-10T08:47:30.999Z</time></trkpt><trkpt lat="44.75239830736014" lon="7.8806467412126455"><ele>421.16666666666663</ele><time>2026-04-10T08:47:32.999Z</time></trkpt><trkpt lat="44.75242480657815" lon="7.880565610469724"><ele>420.3333333333333</ele><time>2026-04-10T08:47:34.999Z</time></trkpt><trkpt lat="44.752461381482966" lon="7.8804805600020735"><ele>419.5</ele><time>2026-04-10T08:47:37.999Z</time></trkpt><trkpt lat="44.75253588747132" lon="7.880447248252376"><ele>418.66666666666663</ele><time>2026-04-10T08:47:40.999Z</time></trkpt><trkpt lat="44.75261582280445" lon="7.8804213984879405"><ele>417.8333333333333</ele><time>2026-04-10T08:47:42.999Z</time></trkpt><trkpt lat="44.752691848042225" lon="7.880368726948387"><ele>417.0</ele><time>2026-04-10T08:47:44.999Z</time></trkpt><trkpt lat="44.75276644725765" lon="7.880360583464583"><ele>415.8</ele><time>2026-04-10T08:47:47.999Z</time></trkpt><trkpt lat="44.7528587688342" lon="7.880356358574637"><ele>414.6</ele><time>2026-04-10T08:47:49.999Z</time></trkpt><trkpt lat="44.752958888152506" lon="7.880364209071665"><ele>413.40000000000003</ele><time>2026-04-10T08:47:51.999Z</time></trkpt><trkpt lat="44.753040220340175" lon="7.880296499095044"><ele>412.20000000000005</ele><time>2026-04-10T08:47:53.999Z</time></trkpt><trkpt lat="44.7531034155861" lon="7.880161295917707"><ele>411.0</ele><time>2026-04-10T08:47:55.999Z</time></trkpt><trkpt lat="44.753141696776254" lon="7.880082911551617"><ele>409.3333333333333</ele><time>2026-04-10T08:47:56.999Z</time></trkpt><trkpt lat="44.753180082052104" lon="7.880003179364763"><ele>407.66666666666663</ele><time>2026-04-10T08:47:57.999Z</time></trkpt><trkpt lat="44.75322138977516" lon="7.879919633704422"><ele>406.0</ele><time>2026-04-10T08:47:58.999Z</time></trkpt><trkpt lat="44.75327290043845" lon="7.879815159470296"><ele>404.3333333333333</ele><time>2026-04-10T08:48:00.999Z</time></trkpt><trkpt lat="44.7533153354163" lon="7.879691526657264"><ele>402.66666666666663</ele><time>2026-04-10T08:48:02.999Z</time></trkpt><trkpt lat="44.753351361337835" lon="7.879556673120579"><ele>401.0</ele><time>2026-04-10T08:48:04.999Z</time></trkpt><trkpt lat="44.753396080903016" lon="7.879452981102077"><ele>400.99999999999994</ele><time>2026-04-10T08:48:06.999Z</time></trkpt><trkpt lat="44.75342791909633" lon="7.879345873433107"><ele>401.0</ele><time>2026-04-10T08:48:08.999Z</time></trkpt><trkpt lat="44.753461696868925" lon="7.879251632427048"><ele>401.0</ele><time>2026-04-10T08:48:10.999Z</time></trkpt><trkpt lat="44.753496912117285" lon="7.879139950732336"><ele>401.0</ele><time>2026-04-10T08:48:12.999Z</time></trkpt><trkpt lat="44.75352765014548" lon="7.8790263634524225"><ele>400.99999999999994</ele><time>2026-04-10T08:48:14.999Z</time></trkpt><trkpt lat="44.75357449000866" lon="7.878923633637981"><ele>401.0</ele><time>2026-04-10T08:48:16.999Z</time></trkpt><trkpt lat="44.75365626989057" lon="7.87882998139425"><ele>399.8</ele><time>2026-04-10T08:48:18.999Z</time></trkpt><trkpt lat="44.753737310043" lon="7.878733835399651"><ele>398.6</ele><time>2026-04-10T08:48:20.999Z</time></trkpt><trkpt lat="44.753823637482974" lon="7.878652627456021"><ele>397.4</ele><time>2026-04-10T08:48:22.999Z</time></trkpt><trkpt lat="44.75391588103195" lon="7.878551142523632"><ele>396.2</ele><time>2026-04-10T08:48:24.999Z</time></trkpt><trkpt lat="44.75397871619096" lon="7.8784541065312705"><ele>395.0</ele><time>2026-04-10T08:48:26.999Z</time></trkpt><trkpt lat="44.75403263915999" lon="7.878387628053293"><ele>397.4</ele><time>2026-04-10T08:48:28.999Z</time></trkpt><trkpt lat="44.754077196928144" lon="7.878289835150523"><ele>399.8</ele><time>2026-04-10T08:48:30.999Z</time></trkpt><trkpt lat="44.754125262782736" lon="7.878169804737306"><ele>402.20000000000005</ele><time>2026-04-10T08:48:32.999Z</time></trkpt><trkpt lat="44.75417529923081" lon="7.878057779633676"><ele>404.6</ele><time>2026-04-10T08:48:34.999Z</time></trkpt><trkpt lat="44.75421881894569" lon="7.877948864190991"><ele>407.0</ele><time>2026-04-10T08:48:36.999Z</time></trkpt><trkpt lat="44.754268129325794" lon="7.8778379173652535"><ele>407.0</ele><time>2026-04-10T08:48:38.999Z</time></trkpt><trkpt lat="44.75430774636427" lon="7.877708505678713"><ele>407.0</ele><time>2026-04-10T08:48:40.999Z</time></trkpt><trkpt lat="44.75435812971039" lon="7.8775847390690075"><ele>407.0</ele><time>2026-04-10T08:48:42.999Z</time></trkpt><trkpt lat="44.75440713958858" lon="7.877423424505177"><ele>407.0</ele><time>2026-04-10T08:48:44.999Z</time></trkpt><trkpt lat="44.75444140938949" lon="7.8773191981848845"><ele>407.0</ele><time>2026-04-10T08:48:45.999Z</time></trkpt><trkpt lat="44.75447355074755" lon="7.877240670543692"><ele>408.75</ele><time>2026-04-10T08:48:46.999Z</time></trkpt><trkpt lat="44.754540127334906" lon="7.877087268423044"><ele>410.5</ele><time>2026-04-10T08:48:48.999Z</time></trkpt><trkpt lat="44.754577488980736" lon="7.876932279769439"><ele>412.25</ele><time>2026-04-10T08:48:50.999Z</time></trkpt><trkpt lat="44.75461457425848" lon="7.876764912650802"><ele>414.0</ele><time>2026-04-10T08:48:52.999Z</time></trkpt><trkpt lat="44.754649983852076" lon="7.876597260152007"><ele>414.0</ele><time>2026-04-10T08:48:54.999Z</time></trkpt><trkpt lat="44.754669546929705" lon="7.876433432405503"><ele>414.0</ele><time>2026-04-10T08:48:56.999Z</time></trkpt><trkpt lat="44.75467290253809" lon="7.876342890649506"><ele>414.0</ele><time>2026-04-10T08:48:57.999Z</time></trkpt><trkpt lat="44.75467007594956" lon="7.8761778646577945"><ele>414.0</ele><time>2026-04-10T08:48:59.999Z</time></trkpt><trkpt lat="44.754671071614176" lon="7.876084368287428"><ele>414.0</ele><time>2026-04-10T08:49:00.999Z</time></trkpt><trkpt lat="44.754665217244685" lon="7.875911130452177"><ele>412.79999999999995</ele><time>2026-04-10T08:49:02.999Z</time></trkpt><trkpt lat="44.75466487857148" lon="7.8757421124032545"><ele>411.59999999999997</ele><time>2026-04-10T08:49:04.999Z</time></trkpt><trkpt lat="44.7546388465682" lon="7.875569734926881"><ele>410.4</ele><time>2026-04-10T08:49:06.999Z</time></trkpt><trkpt lat="44.754633281471996" lon="7.875477508749851"><ele>409.2</ele><time>2026-04-10T08:49:07.999Z</time></trkpt><trkpt lat="44.75463782223496" lon="7.875315770521058"><ele>408.0</ele><time>2026-04-10T08:49:09.999Z</time></trkpt><trkpt lat="44.75462689237211" lon="7.875184098696931"><ele>406.8333333333333</ele><time>2026-04-10T08:49:11.999Z</time></trkpt><trkpt lat="44.75461927259218" lon="7.875047032829688"><ele>405.66666666666663</ele><time>2026-04-10T08:49:13.999Z</time></trkpt><trkpt lat="44.75463521698594" lon="7.874863867123114"><ele>404.5</ele><time>2026-04-10T08:49:15.999Z</time></trkpt><trkpt lat="44.75463466000097" lon="7.874768945500002"><ele>403.3333333333333</ele><time>2026-04-10T08:49:16.999Z</time></trkpt><trkpt lat="44.754622362110524" lon="7.874672831551475"><ele>402.16666666666663</ele><time>2026-04-10T08:49:17.999Z</time></trkpt><trkpt lat="44.75461401338527" lon="7.874582053311252"><ele>401.0</ele><time>2026-04-10T08:49:18.999Z</time></trkpt><trkpt lat="44.7546164115783" lon="7.87440694303073"><ele>400.99999999999994</ele><time>2026-04-10T08:49:20.999Z</time></trkpt><trkpt lat="44.75462020813623" lon="7.874310168418667"><ele>401.0</ele><time>2026-04-10T08:49:21.999Z</time></trkpt><trkpt lat="44.75463114118047" lon="7.874209266928303"><ele>401.0</ele><time>2026-04-10T08:49:22.999Z</time></trkpt><trkpt lat="44.75463943923444" lon="7.87404149502013"><ele>401.0</ele><time>2026-04-10T08:49:24.999Z</time></trkpt><trkpt lat="44.75463973638895" lon="7.873912239305187"><ele>400.99999999999994</ele><time>2026-04-10T08:49:26.999Z</time></trkpt><trkpt lat="44.75470879854407" lon="7.8738501729836745"><ele>401.0</ele><time>2026-04-10T08:49:29.999Z</time></trkpt><trkpt lat="44.75477301877714" lon="7.873836928114638"><ele>401.16666666666663</ele><time>2026-04-10T08:49:31.999Z</time></trkpt><trkpt lat="44.754853883822044" lon="7.873794088907024"><ele>401.3333333333333</ele><time>2026-04-10T08:49:33.999Z</time></trkpt><trkpt lat="44.75493444119127" lon="7.873730437592071"><ele>401.5</ele><time>2026-04-10T08:49:35.999Z</time></trkpt><trkpt lat="44.755027729673465" lon="7.873687294548369"><ele>401.66666666666663</ele><time>2026-04-10T08:49:37.999Z</time></trkpt><trkpt lat="44.755114888989226" lon="7.873646243252053"><ele>401.8333333333333</ele><time>2026-04-10T08:49:39.999Z</time></trkpt><trkpt lat="44.75518624025123" lon="7.87361352731909"><ele>402.0</ele><time>2026-04-10T08:49:41.999Z</time></trkpt><trkpt lat="44.75525838613943" lon="7.8735746519280445"><ele>401.5</ele><time>2026-04-10T08:49:43.999Z</time></trkpt><trkpt lat="44.75532370825381" lon="7.873549275353886"><ele>401.0</ele><time>2026-04-10T08:49:46.999Z</time></trkpt><trkpt lat="44.75540276674701" lon="7.873528164309451"><ele>400.5</ele><time>2026-04-10T08:49:50.999Z</time></trkpt><trkpt lat="44.75547090159354" lon="7.873511938890379"><ele>400.0</ele><time>2026-04-10T08:49:53.999Z</time></trkpt><trkpt lat="44.7555516862206" lon="7.873487013963453"><ele>399.5</ele><time>2026-04-10T08:49:56.999Z</time></trkpt><trkpt lat="44.75563074079718" lon="7.873482826235966"><ele>399.0</ele><time>2026-04-10T08:49:58.999Z</time></trkpt><trkpt lat="44.75574740756532" lon="7.873496294022673"><ele>399.0</ele><time>2026-04-10T08:50:00.999Z</time></trkpt><trkpt lat="44.755822526297266" lon="7.873488221240015"><ele>399.0</ele><time>2026-04-10T08:50:01.999Z</time></trkpt><trkpt lat="44.755889708745414" lon="7.873466147957336"><ele>399.0</ele><time>2026-04-10T08:50:02.999Z</time></trkpt><trkpt lat="44.75599116885364" lon="7.873422021446579"><ele>399.0</ele><time>2026-04-10T08:50:04.999Z</time></trkpt><trkpt lat="44.75608691748726" lon="7.8733865168589094"><ele>399.0</ele><time>2026-04-10T08:50:06.999Z</time></trkpt><trkpt lat="44.75618837646601" lon="7.873367395419673"><ele>400.4</ele><time>2026-04-10T08:50:08.999Z</time></trkpt><trkpt lat="44.756266875849924" lon="7.8733461025203715"><ele>401.79999999999995</ele><time>2026-04-10T08:50:10.999Z</time></trkpt><trkpt lat="44.75637335960979" lon="7.873351463849409"><ele>403.20000000000005</ele><time>2026-04-10T08:50:12.999Z</time></trkpt><trkpt lat="44.7564670148647" lon="7.873352306774525"><ele>404.6</ele><time>2026-04-10T08:50:14.999Z</time></trkpt><trkpt lat="44.756534973592686" lon="7.873356051355035"><ele>406.0</ele><time>2026-04-10T08:50:16.999Z</time></trkpt><trkpt lat="44.75663801077985" lon="7.873385783847921"><ele>406.0</ele><time>2026-04-10T08:50:18.999Z</time></trkpt><trkpt lat="44.75674626382305" lon="7.873411946522949"><ele>406.0</ele><time>2026-04-10T08:50:20.999Z</time></trkpt><trkpt lat="44.75683006806101" lon="7.873423833487862"><ele>406.0</ele><time>2026-04-10T08:50:22.999Z</time></trkpt><trkpt lat="44.75690429928698" lon="7.873449850171236"><ele>406.0</ele><time>2026-04-10T08:50:24.998Z</time></trkpt><trkpt lat="44.756996954667876" lon="7.873453571090291"><ele>406.0</ele><time>2026-04-10T08:50:26.998Z</time></trkpt><trkpt lat="44.757108795823896" lon="7.873449592248421"><ele>406.6</ele><time>2026-04-10T08:50:28.998Z</time></trkpt><trkpt lat="44.75720921181915" lon="7.873434403821512"><ele>407.20000000000005</ele><time>2026-04-10T08:50:30.998Z</time></trkpt><trkpt lat="44.75731263921207" lon="7.87340627877209"><ele>407.79999999999995</ele><time>2026-04-10T08:50:32.998Z</time></trkpt><trkpt lat="44.75741876236912" lon="7.87335220676769"><ele>408.4</ele><time>2026-04-10T08:50:34.998Z</time></trkpt><trkpt lat="44.75748357672004" lon="7.873329076118531"><ele>409.0</ele><time>2026-04-10T08:50:35.998Z</time></trkpt><trkpt lat="44.75760315751177" lon="7.873276300427636"><ele>408.79999999999995</ele><time>2026-04-10T08:50:37.998Z</time></trkpt><trkpt lat="44.757715159365276" lon="7.8732347177139905"><ele>408.59999999999997</ele><time>2026-04-10T08:50:39.998Z</time></trkpt><trkpt lat="44.75781299288146" lon="7.873188222521781"><ele>408.4</ele><time>2026-04-10T08:50:42Z</time></trkpt><trkpt lat="44.757895154211255" lon="7.8731173363565"><ele>408.2</ele><time>2026-04-10T08:50:44Z</time></trkpt><trkpt lat="44.75797034214485" lon="7.872995955890585"><ele>408.0</ele><time>2026-04-10T08:50:46Z</time></trkpt><trkpt lat="44.75801162615069" lon="7.872925027660056"><ele>408.0</ele><time>2026-04-10T08:50:47Z</time></trkpt><trkpt lat="44.75805230264605" lon="7.872844598961564"><ele>408.0</ele><time>2026-04-10T08:50:48Z</time></trkpt><trkpt lat="44.7580939278189" lon="7.87276888629625"><ele>408.0</ele><time>2026-04-10T08:50:49Z</time></trkpt><trkpt lat="44.758141217168216" lon="7.872687468919933"><ele>408.0</ele><time>2026-04-10T08:50:50Z</time></trkpt><trkpt lat="44.75819201880385" lon="7.872594830468392"><ele>408.0</ele><time>2026-04-10T08:50:51Z</time></trkpt><trkpt lat="44.75823280875575" lon="7.872503587992429"><ele>408.0</ele><time>2026-04-10T08:50:52Z</time></trkpt><trkpt lat="44.75826887222596" lon="7.87241440133245"><ele>408.0</ele><time>2026-04-10T08:50:53Z</time></trkpt><trkpt lat="44.75829897125514" lon="7.872316340612162"><ele>407.1666666666667</ele><time>2026-04-10T08:50:54Z</time></trkpt><trkpt lat="44.758331062049876" lon="7.872217584844884"><ele>406.33333333333337</ele><time>2026-04-10T08:50:55Z</time></trkpt><trkpt lat="44.75836338238947" lon="7.872128450385418"><ele>405.5</ele><time>2026-04-10T08:50:56Z</time></trkpt><trkpt lat="44.758448148959694" lon="7.8720104181553925"><ele>404.6666666666667</ele><time>2026-04-10T08:50:58Z</time></trkpt><trkpt lat="44.75850146611677" lon="7.871947394871099"><ele>403.83333333333337</ele><time>2026-04-10T08:50:59Z</time></trkpt><trkpt lat="44.75854850652328" lon="7.871878973090528"><ele>403.0</ele><time>2026-04-10T08:51:00Z</time></trkpt><trkpt lat="44.75861419967306" lon="7.871768952794049"><ele>401.50000000000006</ele><time>2026-04-10T08:51:02Z</time></trkpt><trkpt lat="44.75866263528536" lon="7.871704266716761"><ele>400.0</ele><time>2026-04-10T08:51:04Z</time></trkpt><trkpt lat="44.75871690636854" lon="7.871630659920014"><ele>398.5</ele><time>2026-04-10T08:51:07Z</time></trkpt><trkpt lat="44.75877910876038" lon="7.871498768323075"><ele>397.0</ele><time>2026-04-10T08:51:28Z</time></trkpt><trkpt lat="44.75881268092477" lon="7.871412046326191"><ele>395.50000000000006</ele><time>2026-04-10T08:51:33Z</time></trkpt><trkpt lat="44.75887171165012" lon="7.871344705950577"><ele>394.0</ele><time>2026-04-10T08:51:44Z</time></trkpt><trkpt lat="44.75890109588399" lon="7.871249318822921"><ele>394.00000000000006</ele><time>2026-04-10T08:51:51Z</time></trkpt><trkpt lat="44.75894850901775" lon="7.871171025285193"><ele>394.0</ele><time>2026-04-10T08:51:55Z</time></trkpt><trkpt lat="44.75898861792213" lon="7.871093404994547"><ele>394.0</ele><time>2026-04-10T08:51:58Z</time></trkpt><trkpt lat="44.75902923644041" lon="7.870996565493804"><ele>394.0</ele><time>2026-04-10T08:52:01Z</time></trkpt><trkpt lat="44.759050010458694" lon="7.870873645471339"><ele>394.00000000000006</ele><time>2026-04-10T08:52:04Z</time></trkpt><trkpt lat="44.75906453694668" lon="7.870751171002397"><ele>394.0</ele><time>2026-04-10T08:52:07Z</time></trkpt><trkpt lat="44.759070298526986" lon="7.8706440292864315"><ele>394.00000000000006</ele><time>2026-04-10T08:52:09Z</time></trkpt><trkpt lat="44.7590822593476" lon="7.870528183930332"><ele>394.0</ele><time>2026-04-10T08:52:11Z</time></trkpt><trkpt lat="44.75909094791759" lon="7.870403587580105"><ele>394.0</ele><time>2026-04-10T08:52:13Z</time></trkpt><trkpt lat="44.75909432045779" lon="7.870298133011587"><ele>394.0</ele><time>2026-04-10T08:52:15Z</time></trkpt><trkpt lat="44.75911497610781" lon="7.870182308920846"><ele>394.00000000000006</ele><time>2026-04-10T08:52:17Z</time></trkpt><trkpt lat="44.759161522633946" lon="7.87005506581252"><ele>394.0</ele><time>2026-04-10T08:52:19Z</time></trkpt><trkpt lat="44.759214498481974" lon="7.8699470686133886"><ele>394.00000000000006</ele><time>2026-04-10T08:52:21Z</time></trkpt><trkpt lat="44.759296432612196" lon="7.86985112477028"><ele>394.0</ele><time>2026-04-10T08:52:23Z</time></trkpt><trkpt lat="44.75937645491023" lon="7.869799414099228"><ele>394.0</ele><time>2026-04-10T08:52:25Z</time></trkpt><trkpt lat="44.7594614402068" lon="7.869777634927234"><ele>394.0</ele><time>2026-04-10T08:52:27Z</time></trkpt><trkpt lat="44.75952375923124" lon="7.869708121209617"><ele>394.00000000000006</ele><time>2026-04-10T08:52:29Z</time></trkpt><trkpt lat="44.759580982028886" lon="7.869650468550618"><ele>394.0</ele><time>2026-04-10T08:52:31Z</time></trkpt><trkpt lat="44.759653140076786" lon="7.869603331259742"><ele>392.6666666666667</ele><time>2026-04-10T08:52:33Z</time></trkpt><trkpt lat="44.75972028795267" lon="7.869573209090815"><ele>391.33333333333337</ele><time>2026-04-10T08:52:35Z</time></trkpt><trkpt lat="44.75977044777819" lon="7.869485835464721"><ele>390.0</ele><time>2026-04-10T08:52:37Z</time></trkpt><trkpt lat="44.75980895661516" lon="7.869353043622406"><ele>388.66666666666663</ele><time>2026-04-10T08:52:39Z</time></trkpt><trkpt lat="44.75985490341512" lon="7.869227838004616"><ele>387.3333333333333</ele><time>2026-04-10T08:52:41Z</time></trkpt><trkpt lat="44.75990154700379" lon="7.869111260978315"><ele>386.0</ele><time>2026-04-10T08:52:43Z</time></trkpt><trkpt lat="44.759907856061716" lon="7.868997330217653"><ele>386.0</ele><time>2026-04-10T08:52:45Z</time></trkpt><trkpt lat="44.7599322100172" lon="7.868868563573758"><ele>386.0</ele><time>2026-04-10T08:52:47Z</time></trkpt><trkpt lat="44.75997161393061" lon="7.868750930700148"><ele>386.0</ele><time>2026-04-10T08:52:49Z</time></trkpt><trkpt lat="44.760017163963404" lon="7.868643694284661"><ele>386.0</ele><time>2026-04-10T08:52:51Z</time></trkpt><trkpt lat="44.760071611408016" lon="7.868524964184827"><ele>386.0</ele><time>2026-04-10T08:52:53Z</time></trkpt><trkpt lat="44.76013425178287" lon="7.86842146595669"><ele>385.66666666666663</ele><time>2026-04-10T08:52:55Z</time></trkpt><trkpt lat="44.7601807222053" lon="7.8683091016295545"><ele>385.3333333333333</ele><time>2026-04-10T08:52:57Z</time></trkpt><trkpt lat="44.76019804253441" lon="7.868172718244577"><ele>385.0</ele><time>2026-04-10T08:52:59Z</time></trkpt><trkpt lat="44.760210201012114" lon="7.868069275042924"><ele>384.66666666666663</ele><time>2026-04-10T08:53:01Z</time></trkpt><trkpt lat="44.760222724470175" lon="7.867960075256694"><ele>384.3333333333333</ele><time>2026-04-10T08:53:04Z</time></trkpt><trkpt lat="44.76027091101035" lon="7.867830958501884"><ele>384.0</ele><time>2026-04-10T08:53:08Z</time></trkpt><trkpt lat="44.76028158176168" lon="7.867736446701839"><ele>382.6666666666667</ele><time>2026-04-10T08:53:09Z</time></trkpt><trkpt lat="44.76029061722603" lon="7.867612297373644"><ele>381.3333333333333</ele><time>2026-04-10T08:53:11Z</time></trkpt><trkpt lat="44.76031176743793" lon="7.867509285514861"><ele>380.0</ele><time>2026-04-10T08:53:13Z</time></trkpt><trkpt lat="44.76033060712412" lon="7.867385914948701"><ele>378.66666666666663</ele><time>2026-04-10T08:53:15Z</time></trkpt><trkpt lat="44.760383739348384" lon="7.867274581265044"><ele>377.3333333333333</ele><time>2026-04-10T08:53:17Z</time></trkpt><trkpt lat="44.76044763091647" lon="7.86720241879617"><ele>376.0</ele><time>2026-04-10T08:53:20Z</time></trkpt><trkpt lat="44.76049253216303" lon="7.867077776644635"><ele>375.5</ele><time>2026-04-10T08:53:22Z</time></trkpt><trkpt lat="44.76052112422926" lon="7.866980428901912"><ele>375.0</ele><time>2026-04-10T08:53:24Z</time></trkpt><trkpt lat="44.76057026448493" lon="7.866897427766415"><ele>374.5</ele><time>2026-04-10T08:53:26Z</time></trkpt><trkpt lat="44.76060545369076" lon="7.866759937950106"><ele>374.0</ele><time>2026-04-10T08:53:28Z</time></trkpt><trkpt lat="44.76062221802775" lon="7.8666682537183465"><ele>373.5</ele><time>2026-04-10T08:53:29Z</time></trkpt><trkpt lat="44.76065540783561" lon="7.86651140345435"><ele>373.0</ele><time>2026-04-10T08:53:31Z</time></trkpt><trkpt lat="44.76067010286997" lon="7.866363162505284"><ele>372.3333333333333</ele><time>2026-04-10T08:53:33Z</time></trkpt><trkpt lat="44.760654521785725" lon="7.866247752393913"><ele>371.66666666666663</ele><time>2026-04-10T08:53:35Z</time></trkpt><trkpt lat="44.760642478999436" lon="7.866134012182619"><ele>371.0</ele><time>2026-04-10T08:53:37Z</time></trkpt><trkpt lat="44.760655536297214" lon="7.866015337167121"><ele>370.3333333333333</ele><time>2026-04-10T08:53:40Z</time></trkpt><trkpt lat="44.760736305223766" lon="7.865982568788562"><ele>369.6666666666667</ele><time>2026-04-10T08:53:44Z</time></trkpt><trkpt lat="44.760804290690906" lon="7.865947993242441"><ele>369.0</ele><time>2026-04-10T08:53:47Z</time></trkpt><trkpt lat="44.760875537182955" lon="7.865922104774113"><ele>367.0</ele><time>2026-04-10T08:53:52Z</time></trkpt><trkpt lat="44.76095639605941" lon="7.865870808268564"><ele>365.0</ele><time>2026-04-10T08:53:57Z</time></trkpt><trkpt lat="44.761012891987136" lon="7.865800085075775"><ele>363.0</ele><time>2026-04-10T08:54:00Z</time></trkpt><trkpt lat="44.76107312740112" lon="7.865762509017416"><ele>361.0</ele><time>2026-04-10T08:54:03Z</time></trkpt><trkpt lat="44.76113718510553" lon="7.865742440903786"><ele>359.0</ele><time>2026-04-10T08:54:05Z</time></trkpt><trkpt lat="44.76122124372996" lon="7.865727664942634"><ele>357.0</ele><time>2026-04-10T08:54:07Z</time></trkpt><trkpt lat="44.76128818452848" lon="7.865708210450465"><ele>355.0</ele><time>2026-04-10T08:54:09Z</time></trkpt><trkpt lat="44.761363565180275" lon="7.86569955166789"><ele>355.0</ele><time>2026-04-10T08:54:11Z</time></trkpt><trkpt lat="44.761443073372085" lon="7.865704489053076"><ele>355.0</ele><time>2026-04-10T08:54:14Z</time></trkpt><trkpt lat="44.76152795354163" lon="7.865718309303389"><ele>355.0</ele><time>2026-04-10T08:54:16Z</time></trkpt><trkpt lat="44.76160481576436" lon="7.865736980881367"><ele>355.0</ele><time>2026-04-10T08:54:18Z</time></trkpt><trkpt lat="44.76167000532419" lon="7.865759394299709"><ele>355.0</ele><time>2026-04-10T08:54:20Z</time></trkpt><trkpt lat="44.76174711390197" lon="7.865762970680355"><ele>355.0</ele><time>2026-04-10T08:54:22Z</time></trkpt><trkpt lat="44.7617874267898" lon="7.86566689700262"><ele>355.0</ele><time>2026-04-10T08:54:25Z</time></trkpt><trkpt lat="44.76184803663275" lon="7.865510161832823"><ele>355.0</ele><time>2026-04-10T08:54:28Z</time></trkpt><trkpt lat="44.76188864105134" lon="7.865363210139342"><ele>355.0</ele><time>2026-04-10T08:54:30Z</time></trkpt><trkpt lat="44.7619200227796" lon="7.865229704758519"><ele>355.0</ele><time>2026-04-10T08:54:32Z</time></trkpt><trkpt lat="44.76195437953432" lon="7.865147600219402"><ele>355.0</ele><time>2026-04-10T08:54:35Z</time></trkpt><trkpt lat="44.76201370853271" lon="7.8650821222029395"><ele>352.57142857142856</ele><time>2026-04-10T08:54:39Z</time></trkpt><trkpt lat="44.76208674169385" lon="7.865060663587349"><ele>350.14285714285717</ele><time>2026-04-10T08:54:43Z</time></trkpt><trkpt lat="44.76214164354566" lon="7.8649972400342625"><ele>347.7142857142857</ele><time>2026-04-10T08:54:47Z</time></trkpt><trkpt lat="44.76219380690633" lon="7.864943180702848"><ele>345.2857142857143</ele><time>2026-04-10T08:54:50Z</time></trkpt><trkpt lat="44.76225830235533" lon="7.864904358311652"><ele>342.85714285714283</ele><time>2026-04-10T08:54:56Z</time></trkpt><trkpt lat="44.762292074255775" lon="7.864827754727798"><ele>340.42857142857144</ele><time>2026-04-10T08:55:05Z</time></trkpt><trkpt lat="44.76234487781732" lon="7.864776882164051"><ele>338.0</ele><time>2026-04-10T08:55:10Z</time></trkpt><trkpt lat="44.76241674180742" lon="7.86479324448751"><ele>338.0</ele><time>2026-04-10T08:55:19Z</time></trkpt><trkpt lat="44.7624440685313" lon="7.864891504768687"><ele>338.0</ele><time>2026-04-10T08:55:22Z</time></trkpt><trkpt lat="44.76249518030671" lon="7.865007795831778"><ele>338.0</ele><time>2026-04-10T08:55:24.999Z</time></trkpt><trkpt lat="44.76256919415542" lon="7.865085314528302"><ele>338.0</ele><time>2026-04-10T08:55:27.999Z</time></trkpt><trkpt lat="44.76264934270429" lon="7.865117761226115"><ele>338.0</ele><time>2026-04-10T08:55:29.999Z</time></trkpt><trkpt lat="44.76274558997575" lon="7.86513667016469"><ele>338.0</ele><time>2026-04-10T08:55:31.999Z</time></trkpt><trkpt lat="44.762833718472606" lon="7.865153604488669"><ele>338.0</ele><time>2026-04-10T08:55:33.999Z</time></trkpt><trkpt lat="44.76291653524943" lon="7.865144039606291"><ele>338.0</ele><time>2026-04-10T08:55:35.999Z</time></trkpt><trkpt lat="44.76298542996588" lon="7.865097367415156"><ele>338.0</ele><time>2026-04-10T08:55:37.999Z</time></trkpt><trkpt lat="44.763055283097636" lon="7.865067330494695"><ele>338.0</ele><time>2026-04-10T08:55:39.999Z</time></trkpt><trkpt lat="44.76312685989582" lon="7.865082732661424"><ele>338.0</ele><time>2026-04-10T08:55:41.999Z</time></trkpt><trkpt lat="44.76317677458072" lon="7.8651761254931705"><ele>338.0</ele><time>2026-04-10T08:55:43.999Z</time></trkpt><trkpt lat="44.7632534125579" lon="7.865284159692225"><ele>338.0</ele><time>2026-04-10T08:55:45.999Z</time></trkpt><trkpt lat="44.763341187025766" lon="7.8653435255288695"><ele>338.0</ele><time>2026-04-10T08:55:47.999Z</time></trkpt><trkpt lat="44.763425011837214" lon="7.865346274396799"><ele>338.0</ele><time>2026-04-10T08:55:49.999Z</time></trkpt><trkpt lat="44.76351165477636" lon="7.86532520827229"><ele>338.0</ele><time>2026-04-10T08:55:51.999Z</time></trkpt><trkpt lat="44.76359954203871" lon="7.865320156007435"><ele>338.0</ele><time>2026-04-10T08:55:53.999Z</time></trkpt><trkpt lat="44.76369610575378" lon="7.865337733278353"><ele>338.2</ele><time>2026-04-10T08:55:55.999Z</time></trkpt><trkpt lat="44.7638045632779" lon="7.865353909088522"><ele>338.4</ele><time>2026-04-10T08:55:57.999Z</time></trkpt><trkpt lat="44.76392409413366" lon="7.865377666313212"><ele>338.59999999999997</ele><time>2026-04-10T08:55:59.999Z</time></trkpt><trkpt lat="44.76401941194687" lon="7.865371643936526"><ele>338.79999999999995</ele><time>2026-04-10T08:56:01.999Z</time></trkpt><trkpt lat="44.76411229840218" lon="7.86535196073878"><ele>339.0</ele><time>2026-04-10T08:56:03.999Z</time></trkpt><trkpt lat="44.764172016993" lon="7.865295611868972"><ele>339.0</ele><time>2026-04-10T08:56:05.999Z</time></trkpt><trkpt lat="44.764211037085005" lon="7.865154244987151"><ele>339.0</ele><time>2026-04-10T08:56:07.999Z</time></trkpt><trkpt lat="44.764215026470694" lon="7.86506567786903"><ele>339.0</ele><time>2026-04-10T08:56:08.999Z</time></trkpt><trkpt lat="44.76421197461841" lon="7.864922153472288"><ele>339.0</ele><time>2026-04-10T08:56:10.999Z</time></trkpt><trkpt lat="44.76422258676159" lon="7.864771056070602"><ele>339.0</ele><time>2026-04-10T08:56:12.999Z</time></trkpt><trkpt lat="44.76424251147173" lon="7.864630193497632"><ele>338.2</ele><time>2026-04-10T08:56:14.999Z</time></trkpt><trkpt lat="44.76426030817809" lon="7.864516567769201"><ele>337.4</ele><time>2026-04-10T08:56:16.999Z</time></trkpt><trkpt lat="44.764309444069745" lon="7.864413562271767"><ele>336.6</ele><time>2026-04-10T08:56:18.999Z</time></trkpt><trkpt lat="44.764376588893654" lon="7.8643007412541195"><ele>335.8</ele><time>2026-04-10T08:56:20.999Z</time></trkpt><trkpt lat="44.764437525269756" lon="7.864173023920842"><ele>335.0</ele><time>2026-04-10T08:56:22.999Z</time></trkpt><trkpt lat="44.764509350835304" lon="7.864033986248914"><ele>334.33333333333337</ele><time>2026-04-10T08:56:24.999Z</time></trkpt><trkpt lat="44.76456143644226" lon="7.863983586807267"><ele>333.6666666666667</ele><time>2026-04-10T08:56:25.999Z</time></trkpt><trkpt lat="44.76462383521055" lon="7.863944547960709"><ele>333.0</ele><time>2026-04-10T08:56:26.999Z</time></trkpt><trkpt lat="44.76468841744213" lon="7.863921703879529"><ele>332.3333333333333</ele><time>2026-04-10T08:56:27.999Z</time></trkpt><trkpt lat="44.7647955849871" lon="7.863834461415027"><ele>331.66666666666663</ele><time>2026-04-10T08:56:29.999Z</time></trkpt><trkpt lat="44.764892378906616" lon="7.863736167734587"><ele>331.0</ele><time>2026-04-10T08:56:31.999Z</time></trkpt><trkpt lat="44.76495513707174" lon="7.8636146563015155"><ele>331.0</ele><time>2026-04-10T08:56:33.999Z</time></trkpt><trkpt lat="44.76498700935003" lon="7.863457434187819"><ele>331.0</ele><time>2026-04-10T08:56:35.999Z</time></trkpt><trkpt lat="44.765000878855275" lon="7.863289684248672"><ele>331.0</ele><time>2026-04-10T08:56:37.999Z</time></trkpt><trkpt lat="44.765016155767604" lon="7.863197741166277"><ele>331.0</ele><time>2026-04-10T08:56:38.999Z</time></trkpt><trkpt lat="44.76503548084522" lon="7.863103833817676"><ele>331.0</ele><time>2026-04-10T08:56:39.999Z</time></trkpt><trkpt lat="44.76504110401717" lon="7.863003009949658"><ele>331.0</ele><time>2026-04-10T08:56:40.999Z</time></trkpt><trkpt lat="44.76509008676022" lon="7.86285707278159"><ele>331.20000000000005</ele><time>2026-04-10T08:56:42.999Z</time></trkpt><trkpt lat="44.76513875731709" lon="7.862747580836868"><ele>331.40000000000003</ele><time>2026-04-10T08:56:44.999Z</time></trkpt><trkpt lat="44.765179005533774" lon="7.8625984709004095"><ele>331.6</ele><time>2026-04-10T08:56:46.999Z</time></trkpt><trkpt lat="44.76519835013862" lon="7.862434759347061"><ele>331.8</ele><time>2026-04-10T08:56:48.999Z</time></trkpt><trkpt lat="44.765241400134336" lon="7.862288582874968"><ele>332.0</ele><time>2026-04-10T08:56:50.999Z</time></trkpt><trkpt lat="44.76529549175831" lon="7.862155906718601"><ele>332.0</ele><time>2026-04-10T08:56:52.999Z</time></trkpt><trkpt lat="44.76533429315138" lon="7.862046612624247"><ele>332.0</ele><time>2026-04-10T08:56:54.999Z</time></trkpt><trkpt lat="44.76536118855643" lon="7.861918160953357"><ele>332.0</ele><time>2026-04-10T08:56:56.999Z</time></trkpt><trkpt lat="44.76543002778354" lon="7.861771413118683"><ele>332.0</ele><time>2026-04-10T08:56:58.999Z</time></trkpt><trkpt lat="44.765462138929045" lon="7.861688997768459"><ele>332.0</ele><time>2026-04-10T08:56:59.999Z</time></trkpt><trkpt lat="44.7654952458379" lon="7.861608590560948"><ele>332.0</ele><time>2026-04-10T08:57:00.999Z</time></trkpt><trkpt lat="44.76552793602338" lon="7.861529121086938"><ele>331.57142857142856</ele><time>2026-04-10T08:57:01.999Z</time></trkpt><trkpt lat="44.76555813908554" lon="7.861438331612887"><ele>331.14285714285717</ele><time>2026-04-10T08:57:02.999Z</time></trkpt><trkpt lat="44.76556466161622" lon="7.861348687054178"><ele>330.7142857142857</ele><time>2026-04-10T08:57:03.999Z</time></trkpt><trkpt lat="44.76559198971794" lon="7.861224679195961"><ele>330.2857142857143</ele><time>2026-04-10T08:57:04.999Z</time></trkpt><trkpt lat="44.765616759360356" lon="7.861115533629303"><ele>329.8571428571429</ele><time>2026-04-10T08:57:05.999Z</time></trkpt><trkpt lat="44.76563722607674" lon="7.861027353985132"><ele>329.42857142857144</ele><time>2026-04-10T08:57:06.999Z</time></trkpt><trkpt lat="44.76566351961144" lon="7.860934196766344"><ele>329.0</ele><time>2026-04-10T08:57:07.999Z</time></trkpt><trkpt lat="44.7657134701047" lon="7.8607702643602355"><ele>328.79999999999995</ele><time>2026-04-10T08:57:09.999Z</time></trkpt><trkpt lat="44.76574854878396" lon="7.860667723292297"><ele>328.59999999999997</ele><time>2026-04-10T08:57:10.999Z</time></trkpt><trkpt lat="44.7657832849693" lon="7.860581885926641"><ele>328.4</ele><time>2026-04-10T08:57:11.999Z</time></trkpt><trkpt lat="44.76584580335274" lon="7.8604329044854815"><ele>328.2</ele><time>2026-04-10T08:57:13.999Z</time></trkpt><trkpt lat="44.76589211596853" lon="7.8602882285990665"><ele>328.0</ele><time>2026-04-10T08:57:15.999Z</time></trkpt><trkpt lat="44.765914481997626" lon="7.860173291514717"><ele>328.16666666666663</ele><time>2026-04-10T08:57:17.999Z</time></trkpt><trkpt lat="44.765965208165404" lon="7.8600485763595245"><ele>328.3333333333333</ele><time>2026-04-10T08:57:19.999Z</time></trkpt><trkpt lat="44.76603598437685" lon="7.859936496383479"><ele>328.5</ele><time>2026-04-10T08:57:21.999Z</time></trkpt><trkpt lat="44.766090914522174" lon="7.859873014939359"><ele>328.6666666666667</ele><time>2026-04-10T08:57:22.999Z</time></trkpt><trkpt lat="44.76615609831206" lon="7.859824526064566"><ele>328.83333333333337</ele><time>2026-04-10T08:57:23.999Z</time></trkpt><trkpt lat="44.766212922620056" lon="7.859776128434067"><ele>329.0</ele><time>2026-04-10T08:57:24.999Z</time></trkpt><trkpt lat="44.76626871625896" lon="7.859713263650364"><ele>328.83333333333337</ele><time>2026-04-10T08:57:25.999Z</time></trkpt><trkpt lat="44.76635453326129" lon="7.859573187892733"><ele>328.6666666666667</ele><time>2026-04-10T08:57:27.999Z</time></trkpt><trkpt lat="44.766404682971505" lon="7.859494616211142"><ele>328.5</ele><time>2026-04-10T08:57:28.999Z</time></trkpt><trkpt lat="44.76645849347167" lon="7.85942661712317"><ele>328.3333333333333</ele><time>2026-04-10T08:57:29.999Z</time></trkpt><trkpt lat="44.76650513194153" lon="7.859345968681865"><ele>328.16666666666663</ele><time>2026-04-10T08:57:30.999Z</time></trkpt><trkpt lat="44.766551293536935" lon="7.859253069594138"><ele>328.0</ele><time>2026-04-10T08:57:31.999Z</time></trkpt><trkpt lat="44.76657459422294" lon="7.859169725230171"><ele>327.99999999999994</ele><time>2026-04-10T08:57:32.999Z</time></trkpt><trkpt lat="44.76661362750899" lon="7.85908540612396"><ele>328.0</ele><time>2026-04-10T08:57:33.999Z</time></trkpt><trkpt lat="44.766649699435895" lon="7.859004426223896"><ele>328.0</ele><time>2026-04-10T08:57:34.999Z</time></trkpt><trkpt lat="44.76667607219724" lon="7.858915668125805"><ele>328.0</ele><time>2026-04-10T08:57:35.999Z</time></trkpt><trkpt lat="44.76669825712729" lon="7.858814535362764"><ele>328.0</ele><time>2026-04-10T08:57:36.999Z</time></trkpt><trkpt lat="44.76669629528463" lon="7.858709979132591"><ele>327.99999999999994</ele><time>2026-04-10T08:57:37.999Z</time></trkpt><trkpt lat="44.76671397778227" lon="7.858605369928842"><ele>328.0</ele><time>2026-04-10T08:57:38.999Z</time></trkpt><trkpt lat="44.7667387370421" lon="7.858517487323279"><ele>328.0</ele><time>2026-04-10T08:57:39.999Z</time></trkpt><trkpt lat="44.7668119958772" lon="7.858377771689965"><ele>328.0</ele><time>2026-04-10T08:57:41.998Z</time></trkpt><trkpt lat="44.76690538707206" lon="7.858276271262132"><ele>328.0</ele><time>2026-04-10T08:57:43.998Z</time></trkpt><trkpt lat="44.76699118535605" lon="7.8581815253074465"><ele>328.0</ele><time>2026-04-10T08:57:45.998Z</time></trkpt><trkpt lat="44.767078380714096" lon="7.858052937717856"><ele>327.79999999999995</ele><time>2026-04-10T08:57:48Z</time></trkpt><trkpt lat="44.76711978456984" lon="7.857939427136602"><ele>327.6</ele><time>2026-04-10T08:57:50Z</time></trkpt><trkpt lat="44.767184132713936" lon="7.857812889010023"><ele>327.4</ele><time>2026-04-10T08:57:52Z</time></trkpt><trkpt lat="44.767244906355735" lon="7.857718826154625"><ele>327.20000000000005</ele><time>2026-04-10T08:57:54Z</time></trkpt><trkpt lat="44.767315505695784" lon="7.8576451100425615"><ele>327.0</ele><time>2026-04-10T08:57:56Z</time></trkpt><trkpt lat="44.76737536644624" lon="7.857556571993844"><ele>327.0</ele><time>2026-04-10T08:57:58Z</time></trkpt><trkpt lat="44.76742274408045" lon="7.857419873142861"><ele>327.0</ele><time>2026-04-10T08:58:00Z</time></trkpt><trkpt lat="44.767453035045534" lon="7.857335044374977"><ele>327.0</ele><time>2026-04-10T08:58:01Z</time></trkpt><trkpt lat="44.767499632281066" lon="7.857188878275046"><ele>327.0</ele><time>2026-04-10T08:58:03Z</time></trkpt><trkpt lat="44.767542465428384" lon="7.857057835763968"><ele>327.0</ele><time>2026-04-10T08:58:05Z</time></trkpt><trkpt lat="44.767590771184146" lon="7.856919836359282"><ele>327.0</ele><time>2026-04-10T08:58:07Z</time></trkpt><trkpt lat="44.76761815830201" lon="7.856811338863941"><ele>327.0</ele><time>2026-04-10T08:58:09Z</time></trkpt><trkpt lat="44.76766066900491" lon="7.8567072945491105"><ele>327.0</ele><time>2026-04-10T08:58:11Z</time></trkpt><trkpt lat="44.76768143263161" lon="7.856593031736518"><ele>327.0</ele><time>2026-04-10T08:58:13Z</time></trkpt><trkpt lat="44.767682586554535" lon="7.856465724368579"><ele>327.0</ele><time>2026-04-10T08:58:15Z</time></trkpt><trkpt lat="44.76768607863702" lon="7.856303921917386"><ele>327.6666666666667</ele><time>2026-04-10T08:58:17Z</time></trkpt><trkpt lat="44.76767429907916" lon="7.856165421839774"><ele>328.3333333333333</ele><time>2026-04-10T08:58:19Z</time></trkpt><trkpt lat="44.76764396122499" lon="7.856042189590569"><ele>329.0</ele><time>2026-04-10T08:58:21Z</time></trkpt><trkpt lat="44.76758624315078" lon="7.855928884196753"><ele>329.66666666666663</ele><time>2026-04-10T08:58:23Z</time></trkpt><trkpt lat="44.76751963699422" lon="7.855850265315538"><ele>330.3333333333333</ele><time>2026-04-10T08:58:25Z</time></trkpt><trkpt lat="44.76747828432215" lon="7.85577702998217"><ele>331.0</ele><time>2026-04-10T08:58:27Z</time></trkpt><trkpt lat="44.76742142049608" lon="7.855667966583129"><ele>331.20000000000005</ele><time>2026-04-10T08:58:30Z</time></trkpt><trkpt lat="44.76738930546137" lon="7.855537954175269"><ele>331.40000000000003</ele><time>2026-04-10T08:58:32Z</time></trkpt><trkpt lat="44.76738354893278" lon="7.855384172511327"><ele>331.6</ele><time>2026-04-10T08:58:34Z</time></trkpt><trkpt lat="44.767366372782305" lon="7.855225138617423"><ele>331.8</ele><time>2026-04-10T08:58:36Z</time></trkpt><trkpt lat="44.767371479471834" lon="7.855082187531193"><ele>332.0</ele><time>2026-04-10T08:58:38Z</time></trkpt><trkpt lat="44.767420689456394" lon="7.854989816403571"><ele>331.6666666666667</ele><time>2026-04-10T08:58:40Z</time></trkpt><trkpt lat="44.76751537855603" lon="7.854910554765549"><ele>331.33333333333337</ele><time>2026-04-10T08:58:42Z</time></trkpt><trkpt lat="44.76759476165491" lon="7.854774023953111"><ele>331.0</ele><time>2026-04-10T08:58:44Z</time></trkpt><trkpt lat="44.76763502246572" lon="7.854697499836363"><ele>330.6666666666667</ele><time>2026-04-10T08:58:45Z</time></trkpt><trkpt lat="44.767674755868335" lon="7.854621055636168"><ele>330.3333333333333</ele><time>2026-04-10T08:58:46Z</time></trkpt><trkpt lat="44.76772268428301" lon="7.854555682418753"><ele>330.0</ele><time>2026-04-10T08:58:47Z</time></trkpt><trkpt lat="44.767810765130655" lon="7.854448357066157"><ele>329.5</ele><time>2026-04-10T08:58:49Z</time></trkpt><trkpt lat="44.76786582209442" lon="7.854392726883872"><ele>329.0</ele><time>2026-04-10T08:58:50Z</time></trkpt><trkpt lat="44.76791981144157" lon="7.854335556409379"><ele>328.5</ele><time>2026-04-10T08:58:51Z</time></trkpt><trkpt lat="44.76801694357192" lon="7.854231156048916"><ele>328.0</ele><time>2026-04-10T08:58:53Z</time></trkpt><trkpt lat="44.76807269355181" lon="7.854179961433325"><ele>327.5</ele><time>2026-04-10T08:58:54Z</time></trkpt><trkpt lat="44.76813394292583" lon="7.854128460367489"><ele>327.0</ele><time>2026-04-10T08:58:55Z</time></trkpt><trkpt lat="44.76819006686497" lon="7.854076551025062"><ele>326.6666666666667</ele><time>2026-04-10T08:58:56Z</time></trkpt><trkpt lat="44.76824369092299" lon="7.85401867396749"><ele>326.3333333333333</ele><time>2026-04-10T08:58:57Z</time></trkpt><trkpt lat="44.76832331693972" lon="7.853908244078662"><ele>326.0</ele><time>2026-04-10T08:58:59Z</time></trkpt><trkpt lat="44.768378006654274" lon="7.85382514029933"><ele>325.66666666666663</ele><time>2026-04-10T08:59:01Z</time></trkpt><trkpt lat="44.76844738066193" lon="7.853739693661802"><ele>325.3333333333333</ele><time>2026-04-10T08:59:03Z</time></trkpt><trkpt lat="44.768523916682426" lon="7.853682437228534"><ele>325.0</ele><time>2026-04-10T08:59:05Z</time></trkpt><trkpt lat="44.768583827744415" lon="7.853623963483558"><ele>325.0</ele><time>2026-04-10T08:59:07Z</time></trkpt><trkpt lat="44.768633574311245" lon="7.853553847388919"><ele>325.0</ele><time>2026-04-10T08:59:09Z</time></trkpt><trkpt lat="44.7686786794202" lon="7.853487435557263"><ele>325.0</ele><time>2026-04-10T08:59:11Z</time></trkpt><trkpt lat="44.768728773794344" lon="7.853408571212803"><ele>325.0</ele><time>2026-04-10T08:59:13Z</time></trkpt><trkpt lat="44.768781215977825" lon="7.853332552549668"><ele>325.0</ele><time>2026-04-10T08:59:15Z</time></trkpt><trkpt lat="44.768831076000936" lon="7.853255122284585"><ele>325.0</ele><time>2026-04-10T08:59:17Z</time></trkpt><trkpt lat="44.768880137070475" lon="7.853132175104975"><ele>325.0</ele><time>2026-04-10T08:59:19Z</time></trkpt><trkpt lat="44.76893321415833" lon="7.8529717353369906"><ele>325.0</ele><time>2026-04-10T08:59:21Z</time></trkpt><trkpt lat="44.768954940918974" lon="7.852791150226401"><ele>325.0</ele><time>2026-04-10T08:59:23Z</time></trkpt><trkpt lat="44.768953723213386" lon="7.8526989155217946"><ele>325.0</ele><time>2026-04-10T08:59:24Z</time></trkpt><trkpt lat="44.768959015889926" lon="7.8526022257630625"><ele>325.0</ele><time>2026-04-10T08:59:25Z</time></trkpt><trkpt lat="44.76897348531686" lon="7.852507945628868"><ele>324.5</ele><time>2026-04-10T08:59:26Z</time></trkpt><trkpt lat="44.76896859909981" lon="7.852367168700636"><ele>324.0</ele><time>2026-04-10T08:59:28Z</time></trkpt><trkpt lat="44.768968994162194" lon="7.852262651239199"><ele>323.5</ele><time>2026-04-10T08:59:30Z</time></trkpt><trkpt lat="44.76897354750136" lon="7.85216923240445"><ele>323.0</ele><time>2026-04-10T08:59:32Z</time></trkpt><trkpt lat="44.76900218229679" lon="7.852075076958392"><ele>322.5</ele><time>2026-04-10T08:59:35Z</time></trkpt><trkpt lat="44.76900944907096" lon="7.851958627643977"><ele>322.0</ele><time>2026-04-10T08:59:38Z</time></trkpt><trkpt lat="44.768996581119495" lon="7.851866551849341"><ele>321.5</ele><time>2026-04-10T08:59:41Z</time></trkpt><trkpt lat="44.76898359782014" lon="7.8517406597183745"><ele>321.0</ele><time>2026-04-10T08:59:45Z</time></trkpt><trkpt lat="44.76895821625835" lon="7.851640876446123"><ele>320.5</ele><time>2026-04-10T08:59:48Z</time></trkpt><trkpt lat="44.76893474187687" lon="7.851529757889229"><ele>320.0</ele><time>2026-04-10T08:59:51Z</time></trkpt><trkpt lat="44.76891751548175" lon="7.851433421422196"><ele>319.5</ele><time>2026-04-10T08:59:53Z</time></trkpt><trkpt lat="44.768882708637335" lon="7.85135175693318"><ele>319.0</ele><time>2026-04-10T08:59:56Z</time></trkpt><trkpt lat="44.76886989759174" lon="7.851264050149492"><ele>319.0</ele><time>2026-04-10T08:59:59Z</time></trkpt><trkpt lat="44.76884018953321" lon="7.851174078962081"><ele>319.0</ele><time>2026-04-10T09:00:02Z</time></trkpt><trkpt lat="44.768821226787296" lon="7.851072089644824"><ele>319.0</ele><time>2026-04-10T09:00:05Z</time></trkpt><trkpt lat="44.76879749740087" lon="7.850956182154566"><ele>319.0</ele><time>2026-04-10T09:00:09Z</time></trkpt><trkpt lat="44.76877572052818" lon="7.850858659044574"><ele>319.0</ele><time>2026-04-10T09:00:12Z</time></trkpt><trkpt lat="44.768752578082534" lon="7.8507734716837785"><ele>319.0</ele><time>2026-04-10T09:00:15Z</time></trkpt><trkpt lat="44.768729087875755" lon="7.85066335161202"><ele>319.5</ele><time>2026-04-10T09:00:19Z</time></trkpt><trkpt lat="44.76872625768387" lon="7.850549960957571"><ele>320.0</ele><time>2026-04-10T09:00:23Z</time></trkpt><trkpt lat="44.76877955618991" lon="7.850488206476131"><ele>320.5</ele><time>2026-04-10T09:00:26Z</time></trkpt><trkpt lat="44.768844364800174" lon="7.850455755113"><ele>321.0</ele><time>2026-04-10T09:00:28Z</time></trkpt><trkpt lat="44.76892001782154" lon="7.850383982865927"><ele>321.5</ele><time>2026-04-10T09:00:30Z</time></trkpt><trkpt lat="44.76899612265525" lon="7.850329454285792"><ele>322.0</ele><time>2026-04-10T09:00:32Z</time></trkpt><trkpt lat="44.7690869398519" lon="7.850275774344247"><ele>322.0</ele><time>2026-04-10T09:00:34Z</time></trkpt><trkpt lat="44.76914726468707" lon="7.850248173658288"><ele>322.0</ele><time>2026-04-10T09:00:35Z</time></trkpt><trkpt lat="44.76926428198816" lon="7.850182959669234"><ele>322.0</ele><time>2026-04-10T09:00:37Z</time></trkpt><trkpt lat="44.769378053901974" lon="7.850133050590268"><ele>322.0</ele><time>2026-04-10T09:00:39Z</time></trkpt><trkpt lat="44.76943918813556" lon="7.850102707450608"><ele>322.0</ele><time>2026-04-10T09:00:40Z</time></trkpt><trkpt lat="44.769544664917206" lon="7.850031725603274"><ele>321.75</ele><time>2026-04-10T09:00:42Z</time></trkpt><trkpt lat="44.76964606728398" lon="7.849973516981385"><ele>321.5</ele><time>2026-04-10T09:00:44Z</time></trkpt><trkpt lat="44.76972577270636" lon="7.849868149282047"><ele>321.25</ele><time>2026-04-10T09:00:46Z</time></trkpt><trkpt lat="44.76976908785794" lon="7.849700302722927"><ele>321.0</ele><time>2026-04-10T09:00:48Z</time></trkpt><trkpt lat="44.76977137104734" lon="7.849532228894055"><ele>321.0</ele><time>2026-04-10T09:00:50Z</time></trkpt><trkpt lat="44.76977627962227" lon="7.8493722120599"><ele>321.0</ele><time>2026-04-10T09:00:52Z</time></trkpt><trkpt lat="44.76976525998921" lon="7.84922253799028"><ele>321.0</ele><time>2026-04-10T09:00:54Z</time></trkpt><trkpt lat="44.76975294692983" lon="7.849085641422041"><ele>321.0</ele><time>2026-04-10T09:00:56Z</time></trkpt><trkpt lat="44.76973451981313" lon="7.848962769511518"><ele>321.0</ele><time>2026-04-10T09:00:58Z</time></trkpt><trkpt lat="44.76972079897547" lon="7.848833419401577"><ele>321.0</ele><time>2026-04-10T09:01:00Z</time></trkpt><trkpt lat="44.769706791640836" lon="7.848715675071854"><ele>321.0</ele><time>2026-04-10T09:01:02Z</time></trkpt><trkpt lat="44.76969342719254" lon="7.848607266516353"><ele>321.0</ele><time>2026-04-10T09:01:04Z</time></trkpt><trkpt lat="44.76967627498826" lon="7.848490529577987"><ele>321.0</ele><time>2026-04-10T09:01:06Z</time></trkpt><trkpt lat="44.769662793041974" lon="7.848382580272422"><ele>321.0</ele><time>2026-04-10T09:01:08Z</time></trkpt><trkpt lat="44.76965416892981" lon="7.8482792616768"><ele>321.0</ele><time>2026-04-10T09:01:10Z</time></trkpt><trkpt lat="44.76966080009573" lon="7.848186045526803"><ele>321.6</ele><time>2026-04-10T09:01:12Z</time></trkpt><trkpt lat="44.76971579411375" lon="7.848125242159686"><ele>322.20000000000005</ele><time>2026-04-10T09:01:14Z</time></trkpt><trkpt lat="44.76981059965688" lon="7.848135980605383"><ele>322.79999999999995</ele><time>2026-04-10T09:01:16Z</time></trkpt><trkpt lat="44.76992124149924" lon="7.848145628747639"><ele>323.4</ele><time>2026-04-10T09:01:18Z</time></trkpt><trkpt lat="44.770046934793314" lon="7.848149538852226"><ele>324.0</ele><time>2026-04-10T09:01:20Z</time></trkpt><trkpt lat="44.770110721474346" lon="7.8481505428098455"><ele>324.0</ele><time>2026-04-10T09:01:21Z</time></trkpt><trkpt lat="44.77017823869137" lon="7.848146877685622"><ele>324.0</ele><time>2026-04-10T09:01:22Z</time></trkpt><trkpt lat="44.770246024893595" lon="7.84814056432014"><ele>324.0</ele><time>2026-04-10T09:01:23Z</time></trkpt><trkpt lat="44.77031330917191" lon="7.848133175726323"><ele>324.0</ele><time>2026-04-10T09:01:24Z</time></trkpt><trkpt lat="44.77038616084487" lon="7.84812161462999"><ele>324.0</ele><time>2026-04-10T09:01:25Z</time></trkpt><trkpt lat="44.77045837920791" lon="7.848107986866355"><ele>324.0</ele><time>2026-04-10T09:01:26Z</time></trkpt><trkpt lat="44.77053273503507" lon="7.848089205687223"><ele>324.0</ele><time>2026-04-10T09:01:27Z</time></trkpt><trkpt lat="44.77060641951867" lon="7.848067547706386"><ele>324.0</ele><time>2026-04-10T09:01:28Z</time></trkpt><trkpt lat="44.770681438041066" lon="7.848039516604478"><ele>324.0</ele><time>2026-04-10T09:01:29Z</time></trkpt><trkpt lat="44.770754806635644" lon="7.84800927229594"><ele>324.0</ele><time>2026-04-10T09:01:30Z</time></trkpt><trkpt lat="44.770826727221866" lon="7.847979084398483"><ele>324.0</ele><time>2026-04-10T09:01:31Z</time></trkpt><trkpt lat="44.77089411545958" lon="7.847947073760615"><ele>324.0</ele><time>2026-04-10T09:01:32Z</time></trkpt><trkpt lat="44.77095783137755" lon="7.847908832866658"><ele>324.0</ele><time>2026-04-10T09:01:33Z</time></trkpt><trkpt lat="44.77101750551335" lon="7.847872002637194"><ele>324.0</ele><time>2026-04-10T09:01:34Z</time></trkpt><trkpt lat="44.771082890308776" lon="7.8478315485524845"><ele>324.6</ele><time>2026-04-10T09:01:35Z</time></trkpt><trkpt lat="44.77114202181104" lon="7.847785407303832"><ele>325.2</ele><time>2026-04-10T09:01:36Z</time></trkpt><trkpt lat="44.77119999064919" lon="7.847738335681867"><ele>325.8</ele><time>2026-04-10T09:01:37Z</time></trkpt><trkpt lat="44.77126073246194" lon="7.847691734662828"><ele>326.40000000000003</ele><time>2026-04-10T09:01:38Z</time></trkpt><trkpt lat="44.77136960625489" lon="7.847594271300914"><ele>327.0</ele><time>2026-04-10T09:01:40Z</time></trkpt><trkpt lat="44.771469445988814" lon="7.847505700597594"><ele>327.75</ele><time>2026-04-10T09:01:42Z</time></trkpt><trkpt lat="44.77157573472581" lon="7.847418143391514"><ele>328.5</ele><time>2026-04-10T09:01:44Z</time></trkpt><trkpt lat="44.7716302773331" lon="7.847371343012339"><ele>329.25</ele><time>2026-04-10T09:01:45Z</time></trkpt><trkpt lat="44.77173623785686" lon="7.847267404997231"><ele>330.0</ele><time>2026-04-10T09:01:47Z</time></trkpt><trkpt lat="44.77184717899677" lon="7.847154004100159"><ele>330.0</ele><time>2026-04-10T09:01:49Z</time></trkpt><trkpt lat="44.77190605790123" lon="7.847095735657889"><ele>330.0</ele><time>2026-04-10T09:01:50Z</time></trkpt><trkpt lat="44.771961193120895" lon="7.847040366904255"><ele>330.0</ele><time>2026-04-10T09:01:51Z</time></trkpt><trkpt lat="44.77206608325046" lon="7.846947105563131"><ele>330.0</ele><time>2026-04-10T09:01:53Z</time></trkpt><trkpt lat="44.77216513508" lon="7.846859662003393"><ele>330.0</ele><time>2026-04-10T09:01:55Z</time></trkpt><trkpt lat="44.77227039753655" lon="7.846770768683036"><ele>330.0</ele><time>2026-04-10T09:01:57Z</time></trkpt><trkpt lat="44.7723260571905" lon="7.846724534626727"><ele>330.0</ele><time>2026-04-10T09:01:58Z</time></trkpt><trkpt lat="44.772384933220565" lon="7.846671830644836"><ele>330.0</ele><time>2026-04-10T09:01:59Z</time></trkpt><trkpt lat="44.772491235269065" lon="7.846584256661933"><ele>330.0</ele><time>2026-04-10T09:02:01Z</time></trkpt><trkpt lat="44.772590336223594" lon="7.846510521308648"><ele>330.0</ele><time>2026-04-10T09:02:03Z</time></trkpt><trkpt lat="44.772687600570436" lon="7.846417271788025"><ele>329.8571428571429</ele><time>2026-04-10T09:02:05Z</time></trkpt><trkpt lat="44.77274700788717" lon="7.846355568348985"><ele>329.7142857142857</ele><time>2026-04-10T09:02:06Z</time></trkpt><trkpt lat="44.77280610909767" lon="7.846295416438044"><ele>329.57142857142856</ele><time>2026-04-10T09:02:07Z</time></trkpt><trkpt lat="44.77286034143627" lon="7.846237510780446"><ele>329.42857142857144</ele><time>2026-04-10T09:02:08Z</time></trkpt><trkpt lat="44.77291164310138" lon="7.84617714577811"><ele>329.2857142857143</ele><time>2026-04-10T09:02:09Z</time></trkpt><trkpt lat="44.77296256409423" lon="7.846119744650837"><ele>329.14285714285717</ele><time>2026-04-10T09:02:10Z</time></trkpt><trkpt lat="44.77301986424274" lon="7.846068541055785"><ele>329.0</ele><time>2026-04-10T09:02:11Z</time></trkpt><trkpt lat="44.77307149230859" lon="7.846015535646228"><ele>329.0</ele><time>2026-04-10T09:02:12Z</time></trkpt><trkpt lat="44.77313011113763" lon="7.845965300115564"><ele>329.0</ele><time>2026-04-10T09:02:13Z</time></trkpt><trkpt lat="44.77318731883289" lon="7.8459089782035925"><ele>329.0</ele><time>2026-04-10T09:02:14Z</time></trkpt><trkpt lat="44.773242662736244" lon="7.8458428823723905"><ele>329.0</ele><time>2026-04-10T09:02:15Z</time></trkpt><trkpt lat="44.77331669743308" lon="7.845771031245249"><ele>329.0</ele><time>2026-04-10T09:02:16Z</time></trkpt><trkpt lat="44.773384140773324" lon="7.845704752380739"><ele>329.0</ele><time>2026-04-10T09:02:17Z</time></trkpt><trkpt lat="44.77344717653757" lon="7.845650833037111"><ele>329.33333333333337</ele><time>2026-04-10T09:02:18Z</time></trkpt><trkpt lat="44.77350431128985" lon="7.84559615664668"><ele>329.6666666666667</ele><time>2026-04-10T09:02:19Z</time></trkpt><trkpt lat="44.77355917963733" lon="7.845535791173774"><ele>330.0</ele><time>2026-04-10T09:02:20Z</time></trkpt><trkpt lat="44.77361755940047" lon="7.845463351623801"><ele>330.3333333333333</ele><time>2026-04-10T09:02:21Z</time></trkpt><trkpt lat="44.773667071872886" lon="7.8453932815303995"><ele>330.66666666666663</ele><time>2026-04-10T09:02:22Z</time></trkpt><trkpt lat="44.77373871064016" lon="7.84533220310816"><ele>331.0</ele><time>2026-04-10T09:02:23Z</time></trkpt><trkpt lat="44.773812513501895" lon="7.845265699264452"><ele>330.4</ele><time>2026-04-10T09:02:24Z</time></trkpt><trkpt lat="44.77388819218811" lon="7.84519154639718"><ele>329.8</ele><time>2026-04-10T09:02:25Z</time></trkpt><trkpt lat="44.773970768471145" lon="7.845105751457663"><ele>329.2</ele><time>2026-04-10T09:02:26Z</time></trkpt><trkpt lat="44.774046907519605" lon="7.845030836069608"><ele>328.59999999999997</ele><time>2026-04-10T09:02:27Z</time></trkpt><trkpt lat="44.77412936937851" lon="7.84496511980783"><ele>328.0</ele><time>2026-04-10T09:02:28Z</time></trkpt><trkpt lat="44.7742189667579" lon="7.844904615302534"><ele>328.0</ele><time>2026-04-10T09:02:29Z</time></trkpt><trkpt lat="44.774310148436385" lon="7.844849779050952"><ele>328.0</ele><time>2026-04-10T09:02:30Z</time></trkpt><trkpt lat="44.77440054785082" lon="7.844801295567778"><ele>328.0</ele><time>2026-04-10T09:02:31Z</time></trkpt><trkpt lat="44.774496869113776" lon="7.844770081928068"><ele>328.0</ele><time>2026-04-10T09:02:32Z</time></trkpt><trkpt lat="44.774590334701564" lon="7.84474473180586"><ele>328.0</ele><time>2026-04-10T09:02:33Z</time></trkpt><trkpt lat="44.77468435544368" lon="7.8447318447184475"><ele>326.79999999999995</ele><time>2026-04-10T09:02:34Z</time></trkpt><trkpt lat="44.7747873136589" lon="7.844720412138442"><ele>325.6</ele><time>2026-04-10T09:02:35Z</time></trkpt><trkpt lat="44.77489040121661" lon="7.8447127300695545"><ele>324.4</ele><time>2026-04-10T09:02:36Z</time></trkpt><trkpt lat="44.774992057040784" lon="7.844692347959849"><ele>323.20000000000005</ele><time>2026-04-10T09:02:37Z</time></trkpt><trkpt lat="44.77509499196805" lon="7.844666534130735"><ele>322.0</ele><time>2026-04-10T09:02:38Z</time></trkpt><trkpt lat="44.77519334738052" lon="7.844605928179882"><ele>321.5</ele><time>2026-04-10T09:02:39Z</time></trkpt><trkpt lat="44.77528891541613" lon="7.844541518746997"><ele>321.0</ele><time>2026-04-10T09:02:40Z</time></trkpt><trkpt lat="44.77538779889803" lon="7.844469987767194"><ele>320.5</ele><time>2026-04-10T09:02:41Z</time></trkpt><trkpt lat="44.77549004591766" lon="7.844379781047152"><ele>320.0</ele><time>2026-04-10T09:02:42Z</time></trkpt><trkpt lat="44.77559485369869" lon="7.844286598719486"><ele>320.0</ele><time>2026-04-10T09:02:43Z</time></trkpt><trkpt lat="44.77569576656548" lon="7.8442050080336205"><ele>320.0</ele><time>2026-04-10T09:02:44Z</time></trkpt><trkpt lat="44.7757969768237" lon="7.844132195100714"><ele>320.0</ele><time>2026-04-10T09:02:45Z</time></trkpt><trkpt lat="44.77589864784132" lon="7.844065079617423"><ele>320.0</ele><time>2026-04-10T09:02:46Z</time></trkpt><trkpt lat="44.77600325642075" lon="7.843990827563068"><ele>318.25</ele><time>2026-04-10T09:02:47Z</time></trkpt><trkpt lat="44.77608715504387" lon="7.843862928997392"><ele>316.5</ele><time>2026-04-10T09:02:48Z</time></trkpt><trkpt lat="44.77618691061011" lon="7.843781199333791"><ele>314.75</ele><time>2026-04-10T09:02:49Z</time></trkpt><trkpt lat="44.77628552110781" lon="7.8437006919039005"><ele>313.0</ele><time>2026-04-10T09:02:50Z</time></trkpt><trkpt lat="44.776385717984176" lon="7.84361888937779"><ele>313.0</ele><time>2026-04-10T09:02:51Z</time></trkpt><trkpt lat="44.7764873040241" lon="7.843539357226227"><ele>313.0</ele><time>2026-04-10T09:02:52Z</time></trkpt><trkpt lat="44.776589641810894" lon="7.843460420141843"><ele>313.0</ele><time>2026-04-10T09:02:53Z</time></trkpt><trkpt lat="44.77669025005075" lon="7.843382817350784"><ele>313.0</ele><time>2026-04-10T09:02:54Z</time></trkpt><trkpt lat="44.77679229434438" lon="7.8433027275202996"><ele>311.5</ele><time>2026-04-10T09:02:55Z</time></trkpt><trkpt lat="44.77689185411475" lon="7.843224413483543"><ele>310.0</ele><time>2026-04-10T09:02:56Z</time></trkpt><trkpt lat="44.77698830634749" lon="7.843146009514369"><ele>308.5</ele><time>2026-04-10T09:02:57Z</time></trkpt><trkpt lat="44.77709455501529" lon="7.843077609974063"><ele>307.0</ele><time>2026-04-10T09:02:58Z</time></trkpt><trkpt lat="44.777181576308514" lon="7.842969458100527"><ele>307.0</ele><time>2026-04-10T09:02:59Z</time></trkpt><trkpt lat="44.777274599870246" lon="7.8428768994755815"><ele>307.0</ele><time>2026-04-10T09:03:00Z</time></trkpt><trkpt lat="44.77737230025065" lon="7.842808613529079"><ele>307.0</ele><time>2026-04-10T09:03:01Z</time></trkpt><trkpt lat="44.77745992010492" lon="7.842718739348913"><ele>307.0</ele><time>2026-04-10T09:03:02Z</time></trkpt><trkpt lat="44.77753430191206" lon="7.84260802532797"><ele>307.0</ele><time>2026-04-10T09:03:03Z</time></trkpt><trkpt lat="44.777615077800235" lon="7.842515479519122"><ele>308.8</ele><time>2026-04-10T09:03:04Z</time></trkpt><trkpt lat="44.77769382260938" lon="7.842425261069413"><ele>310.6</ele><time>2026-04-10T09:03:05Z</time></trkpt><trkpt lat="44.77776830313418" lon="7.842340336767301"><ele>312.40000000000003</ele><time>2026-04-10T09:03:06Z</time></trkpt><trkpt lat="44.77783826738347" lon="7.842261758861099"><ele>314.2</ele><time>2026-04-10T09:03:07Z</time></trkpt><trkpt lat="44.77790564302689" lon="7.842186088386285"><ele>316.0</ele><time>2026-04-10T09:03:07.999Z</time></trkpt><trkpt lat="44.777965798303335" lon="7.842118409844099"><ele>316.00000000000006</ele><time>2026-04-10T09:03:08.999Z</time></trkpt><trkpt lat="44.77802552293576" lon="7.842050913306585"><ele>316.0</ele><time>2026-04-10T09:03:09.999Z</time></trkpt><trkpt lat="44.778082224521" lon="7.841983821587838"><ele>316.0</ele><time>2026-04-10T09:03:10.999Z</time></trkpt><trkpt lat="44.7781388505155" lon="7.8419171088003825"><ele>316.0</ele><time>2026-04-10T09:03:11.999Z</time></trkpt><trkpt lat="44.77819490901522" lon="7.841851064589472"><ele>316.0</ele><time>2026-04-10T09:03:12.999Z</time></trkpt><trkpt lat="44.778250385417486" lon="7.841786643497752"><ele>316.00000000000006</ele><time>2026-04-10T09:03:13.999Z</time></trkpt><trkpt lat="44.7783029025303" lon="7.841727966056888"><ele>316.0</ele><time>2026-04-10T09:03:14.999Z</time></trkpt><trkpt lat="44.77839892632432" lon="7.841626672969675"><ele>315.3333333333333</ele><time>2026-04-10T09:03:16.999Z</time></trkpt><trkpt lat="44.778505388302236" lon="7.841566017442063"><ele>314.66666666666663</ele><time>2026-04-10T09:03:18.999Z</time></trkpt><trkpt lat="44.778604918052075" lon="7.84156436493"><ele>314.0</ele><time>2026-04-10T09:03:20.999Z</time></trkpt><trkpt lat="44.778678797322144" lon="7.841592074179484"><ele>313.3333333333333</ele><time>2026-04-10T09:03:22.999Z</time></trkpt><trkpt lat="44.77874298945428" lon="7.841641191799874"><ele>312.6666666666667</ele><time>2026-04-10T09:03:24.999Z</time></trkpt><trkpt lat="44.77879448398775" lon="7.8417037291922576"><ele>312.0</ele><time>2026-04-10T09:03:26.999Z</time></trkpt><trkpt lat="44.778824240138825" lon="7.841791466851823"><ele>314.0</ele><time>2026-04-10T09:03:28.999Z</time></trkpt><trkpt lat="44.77885016668209" lon="7.841890893239518"><ele>316.0</ele><time>2026-04-10T09:03:31.999Z</time></trkpt><trkpt lat="44.77883990949789" lon="7.841985205506446"><ele>318.0</ele><time>2026-04-10T09:03:33.999Z</time></trkpt><trkpt lat="44.77886950542556" lon="7.842103433602068"><ele>320.0</ele><time>2026-04-10T09:03:36.999Z</time></trkpt><trkpt lat="44.77891041905553" lon="7.842206694391896"><ele>322.0</ele><time>2026-04-10T09:03:39.999Z</time></trkpt><trkpt lat="44.77896211898186" lon="7.8423003485600855"><ele>324.0</ele><time>2026-04-10T09:03:43.999Z</time></trkpt><trkpt lat="44.77901909068357" lon="7.842353033050013"><ele>324.0</ele><time>2026-04-10T09:03:45.999Z</time></trkpt><trkpt lat="44.779092483728384" lon="7.842405653293842"><ele>324.0</ele><time>2026-04-10T09:03:47.999Z</time></trkpt><trkpt lat="44.779173112156734" lon="7.842433014139153"><ele>324.0</ele><time>2026-04-10T09:03:50.999Z</time></trkpt><trkpt lat="44.779254037512516" lon="7.842453449018801"><ele>324.0</ele><time>2026-04-10T09:03:53.999Z</time></trkpt><trkpt lat="44.77932716387274" lon="7.842466896657772"><ele>324.0</ele><time>2026-04-10T09:03:56.999Z</time></trkpt><trkpt lat="44.7793951359371" lon="7.842449256113617"><ele>324.0</ele><time>2026-04-10T09:03:58.999Z</time></trkpt><trkpt lat="44.77947251185164" lon="7.842445009537306"><ele>324.3333333333333</ele><time>2026-04-10T09:04:00.999Z</time></trkpt><trkpt lat="44.77953881642127" lon="7.8424189452262665"><ele>324.6666666666667</ele><time>2026-04-10T09:04:02.999Z</time></trkpt><trkpt lat="44.779601211655255" lon="7.842383037889938"><ele>325.0</ele><time>2026-04-10T09:04:04.999Z</time></trkpt><trkpt lat="44.779661116257806" lon="7.842355575648753"><ele>325.33333333333337</ele><time>2026-04-10T09:04:06.999Z</time></trkpt><trkpt lat="44.77974257776803" lon="7.842291168365956"><ele>325.6666666666667</ele><time>2026-04-10T09:04:09.999Z</time></trkpt><trkpt lat="44.779823560641354" lon="7.842239500762428"><ele>326.0</ele><time>2026-04-10T09:04:11.999Z</time></trkpt><trkpt lat="44.779887534993684" lon="7.842184592924002"><ele>326.0</ele><time>2026-04-10T09:04:13.999Z</time></trkpt><trkpt lat="44.779955846378954" lon="7.842139003558948"><ele>326.0</ele><time>2026-04-10T09:04:15.999Z</time></trkpt><trkpt lat="44.780028478965754" lon="7.842071564614127"><ele>326.0</ele><time>2026-04-10T09:04:17.999Z</time></trkpt><trkpt lat="44.780081010955314" lon="7.841978318230858"><ele>326.0</ele><time>2026-04-10T09:04:19.999Z</time></trkpt><trkpt lat="44.78015529205071" lon="7.841877466536585"><ele>326.0</ele><time>2026-04-10T09:04:21.999Z</time></trkpt><trkpt lat="44.78022734526111" lon="7.841786798828668"><ele>326.0</ele><time>2026-04-10T09:04:23.999Z</time></trkpt><trkpt lat="44.78030016533083" lon="7.841715753596177"><ele>325.6</ele><time>2026-04-10T09:04:25.999Z</time></trkpt><trkpt lat="44.78037361489256" lon="7.841635989593568"><ele>325.20000000000005</ele><time>2026-04-10T09:04:27.999Z</time></trkpt><trkpt lat="44.78045249050719" lon="7.841540510827063"><ele>324.79999999999995</ele><time>2026-04-10T09:04:29.999Z</time></trkpt><trkpt lat="44.78053178726889" lon="7.841436471651708"><ele>324.4</ele><time>2026-04-10T09:04:31.999Z</time></trkpt><trkpt lat="44.78062629700949" lon="7.841330142133437"><ele>324.0</ele><time>2026-04-10T09:04:33.999Z</time></trkpt><trkpt lat="44.780733020831164" lon="7.8412369735813865"><ele>324.0</ele><time>2026-04-10T09:04:35.999Z</time></trkpt><trkpt lat="44.78083692749395" lon="7.841166548022085"><ele>324.0</ele><time>2026-04-10T09:04:37.999Z</time></trkpt><trkpt lat="44.780915688899626" lon="7.841140845122304"><ele>324.0</ele><time>2026-04-10T09:04:38.999Z</time></trkpt><trkpt lat="44.78099684138163" lon="7.841132306337956"><ele>324.0</ele><time>2026-04-10T09:04:39.999Z</time></trkpt><trkpt lat="44.781076342751604" lon="7.841170997441982"><ele>324.0</ele><time>2026-04-10T09:04:40.999Z</time></trkpt><trkpt lat="44.78115890104889" lon="7.841234368567479"><ele>323.2</ele><time>2026-04-10T09:04:41.999Z</time></trkpt><trkpt lat="44.78122488756919" lon="7.841337053631167"><ele>322.4</ele><time>2026-04-10T09:04:42.999Z</time></trkpt><trkpt lat="44.78127373810483" lon="7.841455766473171"><ele>321.6</ele><time>2026-04-10T09:04:43.999Z</time></trkpt><trkpt lat="44.78130989359444" lon="7.841571143949361"><ele>320.8</ele><time>2026-04-10T09:04:44.999Z</time></trkpt><trkpt lat="44.781333332024886" lon="7.841698987148574"><ele>320.0</ele><time>2026-04-10T09:04:45.999Z</time></trkpt><trkpt lat="44.78135345106075" lon="7.841825969409371"><ele>319.2</ele><time>2026-04-10T09:04:46.999Z</time></trkpt><trkpt lat="44.781361379851305" lon="7.841953500321157"><ele>318.4</ele><time>2026-04-10T09:04:47.999Z</time></trkpt><trkpt lat="44.78136505694287" lon="7.8420949149598025"><ele>317.6</ele><time>2026-04-10T09:04:48.999Z</time></trkpt><trkpt lat="44.781376711442135" lon="7.842244129993032"><ele>316.8</ele><time>2026-04-10T09:04:49.999Z</time></trkpt><trkpt lat="44.781415630828874" lon="7.8423861013450455"><ele>316.0</ele><time>2026-04-10T09:04:50.999Z</time></trkpt><trkpt lat="44.78147693320382" lon="7.842521537972142"><ele>315.8</ele><time>2026-04-10T09:04:52.001Z</time></trkpt><trkpt lat="44.781549555126986" lon="7.842638434174604"><ele>315.6</ele><time>2026-04-10T09:04:53.001Z</time></trkpt><trkpt lat="44.78163049591944" lon="7.842720975723135"><ele>315.4</ele><time>2026-04-10T09:04:54.001Z</time></trkpt><trkpt lat="44.78172904214134" lon="7.842767425711036"><ele>315.2</ele><time>2026-04-10T09:04:55.001Z</time></trkpt><trkpt lat="44.78182631756566" lon="7.8427666114025625"><ele>315.0</ele><time>2026-04-10T09:04:56.001Z</time></trkpt><trkpt lat="44.7819230000091" lon="7.84271375427826"><ele>314.2</ele><time>2026-04-10T09:04:57.001Z</time></trkpt><trkpt lat="44.782013914259245" lon="7.842648927688313"><ele>313.4</ele><time>2026-04-10T09:04:58.001Z</time></trkpt><trkpt lat="44.78210539715677" lon="7.842594686522489"><ele>312.6</ele><time>2026-04-10T09:04:59.001Z</time></trkpt><trkpt lat="44.78220138070263" lon="7.842546104714138"><ele>311.8</ele><time>2026-04-10T09:05:00.001Z</time></trkpt><trkpt lat="44.782295882597445" lon="7.842491121562753"><ele>311.0</ele><time>2026-04-10T09:05:01.001Z</time></trkpt><trkpt lat="44.78239760560414" lon="7.842443830714674"><ele>311.0</ele><time>2026-04-10T09:05:02.001Z</time></trkpt><trkpt lat="44.782494659754356" lon="7.842397073797251"><ele>311.0</ele><time>2026-04-10T09:05:03.001Z</time></trkpt><trkpt lat="44.78259946211322" lon="7.84237720744477"><ele>311.0</ele><time>2026-04-10T09:05:04.001Z</time></trkpt><trkpt lat="44.7827042122368" lon="7.842326692471785"><ele>311.0</ele><time>2026-04-10T09:05:05.001Z</time></trkpt><trkpt lat="44.78281951131366" lon="7.842301432656122"><ele>311.0</ele><time>2026-04-10T09:05:06.001Z</time></trkpt><trkpt lat="44.78293509703696" lon="7.842301120018907"><ele>309.0</ele><time>2026-04-10T09:05:07.001Z</time></trkpt><trkpt lat="44.78304893940665" lon="7.842339984141643"><ele>307.0</ele><time>2026-04-10T09:05:08Z</time></trkpt><trkpt lat="44.783168541475064" lon="7.842360309037577"><ele>305.0</ele><time>2026-04-10T09:05:09Z</time></trkpt><trkpt lat="44.78328253625046" lon="7.842402825024965"><ele>303.0</ele><time>2026-04-10T09:05:10Z</time></trkpt><trkpt lat="44.78339530895647" lon="7.8424669259692745"><ele>303.0</ele><time>2026-04-10T09:05:11Z</time></trkpt><trkpt lat="44.78350495354755" lon="7.842535467084889"><ele>303.0</ele><time>2026-04-10T09:05:12Z</time></trkpt><trkpt lat="44.78360704329605" lon="7.842617969878295"><ele>303.0</ele><time>2026-04-10T09:05:13Z</time></trkpt><trkpt lat="44.78370790058237" lon="7.842706615338304"><ele>303.0</ele><time>2026-04-10T09:05:14Z</time></trkpt><trkpt lat="44.78379927826012" lon="7.84282681593662"><ele>301.25</ele><time>2026-04-10T09:05:15Z</time></trkpt><trkpt lat="44.78388792936026" lon="7.8429459484179915"><ele>299.5</ele><time>2026-04-10T09:05:16Z</time></trkpt><trkpt lat="44.78397997285002" lon="7.843061490287948"><ele>297.75</ele><time>2026-04-10T09:05:17Z</time></trkpt><trkpt lat="44.78407014960473" lon="7.843179084538718"><ele>296.0</ele><time>2026-04-10T09:05:18Z</time></trkpt><trkpt lat="44.78416198492206" lon="7.843293303247097"><ele>296.0</ele><time>2026-04-10T09:05:19Z</time></trkpt><trkpt lat="44.78425115960826" lon="7.84341175097658"><ele>296.0</ele><time>2026-04-10T09:05:20Z</time></trkpt><trkpt lat="44.78434119773798" lon="7.8435284076866845"><ele>296.0</ele><time>2026-04-10T09:05:21Z</time></trkpt><trkpt lat="44.784430425140464" lon="7.843637833288779"><ele>296.0</ele><time>2026-04-10T09:05:22Z</time></trkpt><trkpt lat="44.78451594874406" lon="7.843743056805039"><ele>296.0</ele><time>2026-04-10T09:05:23Z</time></trkpt><trkpt lat="44.784598759222426" lon="7.843845283635609"><ele>296.0</ele><time>2026-04-10T09:05:24Z</time></trkpt><trkpt lat="44.78468013127471" lon="7.843939260859327"><ele>296.0</ele><time>2026-04-10T09:05:25Z</time></trkpt><trkpt lat="44.78475865435571" lon="7.84402819867569"><ele>296.0</ele><time>2026-04-10T09:05:26Z</time></trkpt><trkpt lat="44.78483458359879" lon="7.844117414685549"><ele>296.0</ele><time>2026-04-10T09:05:27Z</time></trkpt><trkpt lat="44.78490460415185" lon="7.844208527660282"><ele>296.0</ele><time>2026-04-10T09:05:28Z</time></trkpt><trkpt lat="44.78497448057739" lon="7.844293072497065"><ele>296.0</ele><time>2026-04-10T09:05:29Z</time></trkpt><trkpt lat="44.78504099159809" lon="7.844373685702331"><ele>296.0</ele><time>2026-04-10T09:05:30Z</time></trkpt><trkpt lat="44.78510568399337" lon="7.844450846103906"><ele>296.0</ele><time>2026-04-10T09:05:31Z</time></trkpt><trkpt lat="44.78516554184037" lon="7.844521636572173"><ele>296.0</ele><time>2026-04-10T09:05:32Z</time></trkpt><trkpt lat="44.785215562787364" lon="7.844597919345111"><ele>296.0</ele><time>2026-04-10T09:05:33Z</time></trkpt><trkpt lat="44.78526252273988" lon="7.844670237315226"><ele>296.1666666666667</ele><time>2026-04-10T09:05:34Z</time></trkpt><trkpt lat="44.785309495206555" lon="7.844737628680417"><ele>296.33333333333337</ele><time>2026-04-10T09:05:35Z</time></trkpt><trkpt lat="44.78536732588817" lon="7.844779332322558"><ele>296.5</ele><time>2026-04-10T09:05:36Z</time></trkpt><trkpt lat="44.785445265280735" lon="7.844863546579787"><ele>296.6666666666667</ele><time>2026-04-10T09:05:38Z</time></trkpt><trkpt lat="44.785511565405685" lon="7.844921425418741"><ele>296.8333333333333</ele><time>2026-04-10T09:05:40Z</time></trkpt><trkpt lat="44.78557130207303" lon="7.844967278125422"><ele>297.0</ele><time>2026-04-10T09:05:41Z</time></trkpt><trkpt lat="44.7855956094506" lon="7.8448439859244985"><ele>297.0</ele><time>2026-04-10T09:05:43Z</time></trkpt><trkpt lat="44.78562664905874" lon="7.844674479505327"><ele>297.0</ele><time>2026-04-10T09:05:45Z</time></trkpt><trkpt lat="44.7856486009546" lon="7.844587831135407"><ele>297.0</ele><time>2026-04-10T09:05:46Z</time></trkpt><trkpt lat="44.785672740727485" lon="7.844494334330211"><ele>297.0</ele><time>2026-04-10T09:05:47Z</time></trkpt><trkpt lat="44.7856962854838" lon="7.844395483169282"><ele>297.0</ele><time>2026-04-10T09:05:48Z</time></trkpt><trkpt lat="44.78571428882047" lon="7.844291767471512"><ele>297.0</ele><time>2026-04-10T09:05:49Z</time></trkpt><trkpt lat="44.78573160727726" lon="7.8441895763765075"><ele>296.6666666666667</ele><time>2026-04-10T09:05:50Z</time></trkpt><trkpt lat="44.78574907583523" lon="7.844098265770772"><ele>296.3333333333333</ele><time>2026-04-10T09:05:50.999Z</time></trkpt><trkpt lat="44.78576855387952" lon="7.844010779304414"><ele>296.0</ele><time>2026-04-10T09:05:51.999Z</time></trkpt><trkpt lat="44.78579206196563" lon="7.843911026710215"><ele>295.66666666666663</ele><time>2026-04-10T09:05:52.999Z</time></trkpt><trkpt lat="44.785813351137946" lon="7.843799949603895"><ele>295.3333333333333</ele><time>2026-04-10T09:05:53.999Z</time></trkpt><trkpt lat="44.785842687308374" lon="7.843684684401679"><ele>295.0</ele><time>2026-04-10T09:05:54.999Z</time></trkpt><trkpt lat="44.785877700960654" lon="7.8435639619974244"><ele>294.8333333333333</ele><time>2026-04-10T09:05:55.999Z</time></trkpt><trkpt lat="44.7859103632897" lon="7.843447592633422"><ele>294.66666666666663</ele><time>2026-04-10T09:05:56.999Z</time></trkpt><trkpt lat="44.78593746493507" lon="7.843341228990158"><ele>294.5</ele><time>2026-04-10T09:05:57.999Z</time></trkpt><trkpt lat="44.785965841881264" lon="7.843234964559279"><ele>294.3333333333333</ele><time>2026-04-10T09:05:58.999Z</time></trkpt><trkpt lat="44.785990185292725" lon="7.843130972891948"><ele>294.1666666666667</ele><time>2026-04-10T09:05:59.999Z</time></trkpt><trkpt lat="44.786014856886254" lon="7.84302247072139"><ele>294.0</ele><time>2026-04-10T09:06:00.999Z</time></trkpt><trkpt lat="44.78603928115791" lon="7.842927327529916"><ele>294.0</ele><time>2026-04-10T09:06:01.999Z</time></trkpt><trkpt lat="44.78606868077425" lon="7.842823778458542"><ele>294.0</ele><time>2026-04-10T09:06:02.999Z</time></trkpt><trkpt lat="44.786093555695984" lon="7.842725016119474"><ele>294.0</ele><time>2026-04-10T09:06:03.999Z</time></trkpt><trkpt lat="44.786113840843164" lon="7.842617202287559"><ele>294.0</ele><time>2026-04-10T09:06:04.999Z</time></trkpt><trkpt lat="44.786133813270055" lon="7.842509497680201"><ele>294.0</ele><time>2026-04-10T09:06:05.999Z</time></trkpt><trkpt lat="44.78615680890915" lon="7.842401580460007"><ele>294.0</ele><time>2026-04-10T09:06:06.999Z</time></trkpt><trkpt lat="44.786184833933156" lon="7.842290967633337"><ele>294.42857142857144</ele><time>2026-04-10T09:06:07.999Z</time></trkpt><trkpt lat="44.786212030409814" lon="7.842190462658543"><ele>294.8571428571429</ele><time>2026-04-10T09:06:08.999Z</time></trkpt><trkpt lat="44.78623479637835" lon="7.842092284566426"><ele>295.2857142857143</ele><time>2026-04-10T09:06:09.999Z</time></trkpt><trkpt lat="44.78625956900928" lon="7.841992751252037"><ele>295.7142857142857</ele><time>2026-04-10T09:06:10.999Z</time></trkpt><trkpt lat="44.786281652915974" lon="7.841894014783223"><ele>296.14285714285717</ele><time>2026-04-10T09:06:11.999Z</time></trkpt><trkpt lat="44.78630416860295" lon="7.84179267389731"><ele>296.57142857142856</ele><time>2026-04-10T09:06:12.999Z</time></trkpt><trkpt lat="44.786324293429" lon="7.8416969744199125"><ele>297.0</ele><time>2026-04-10T09:06:13.999Z</time></trkpt><trkpt lat="44.78634479643708" lon="7.841596393146814"><ele>297.0</ele><time>2026-04-10T09:06:14.999Z</time></trkpt><trkpt lat="44.786370620779884" lon="7.841501988813178"><ele>297.0</ele><time>2026-04-10T09:06:15.999Z</time></trkpt><trkpt lat="44.786408303160854" lon="7.841418692190438"><ele>297.0</ele><time>2026-04-10T09:06:16.999Z</time></trkpt><trkpt lat="44.78645991972432" lon="7.8413653337875475"><ele>297.0</ele><time>2026-04-10T09:06:17.999Z</time></trkpt><trkpt lat="44.786567218903336" lon="7.841391017667883"><ele>297.0</ele><time>2026-04-10T09:06:19.999Z</time></trkpt><trkpt lat="44.786640995104186" lon="7.841486379084138"><ele>297.0</ele><time>2026-04-10T09:06:21.999Z</time></trkpt><trkpt lat="44.78671918407774" lon="7.841566048100326"><ele>297.0</ele><time>2026-04-10T09:06:23.999Z</time></trkpt><trkpt lat="44.78679507503458" lon="7.841665723218584"><ele>297.0</ele><time>2026-04-10T09:06:25.999Z</time></trkpt><trkpt lat="44.7868649294228" lon="7.841763862003058"><ele>297.0</ele><time>2026-04-10T09:06:27.999Z</time></trkpt><trkpt lat="44.78694210563269" lon="7.841848113768666"><ele>297.0</ele><time>2026-04-10T09:06:29.999Z</time></trkpt><trkpt lat="44.78703085510498" lon="7.841876065779972"><ele>297.0</ele><time>2026-04-10T09:06:31.999Z</time></trkpt><trkpt lat="44.787113417788184" lon="7.841845253492303"><ele>298.3333333333333</ele><time>2026-04-10T09:06:33.999Z</time></trkpt><trkpt lat="44.78718200681865" lon="7.841830676366527"><ele>299.6666666666667</ele><time>2026-04-10T09:06:35.999Z</time></trkpt><trkpt lat="44.787249131695425" lon="7.841829482955841"><ele>301.0</ele><time>2026-04-10T09:06:37.999Z</time></trkpt><trkpt lat="44.787323344911556" lon="7.841814840375272"><ele>302.33333333333337</ele><time>2026-04-10T09:06:39.999Z</time></trkpt><trkpt lat="44.787410061721566" lon="7.841782974614497"><ele>303.6666666666667</ele><time>2026-04-10T09:06:42.999Z</time></trkpt><trkpt lat="44.787504374980195" lon="7.841743761386051"><ele>305.0</ele><time>2026-04-10T09:06:45.999Z</time></trkpt><trkpt lat="44.78760147934819" lon="7.841718065739366"><ele>306.33333333333337</ele><time>2026-04-10T09:06:47.999Z</time></trkpt><trkpt lat="44.787687242229126" lon="7.841699071877633"><ele>307.6666666666667</ele><time>2026-04-10T09:06:49.999Z</time></trkpt><trkpt lat="44.787771003812416" lon="7.841687055483968"><ele>309.0</ele><time>2026-04-10T09:06:51.999Z</time></trkpt><trkpt lat="44.78784988382995" lon="7.841696633139702"><ele>310.3333333333333</ele><time>2026-04-10T09:06:53.999Z</time></trkpt><trkpt lat="44.787919508540725" lon="7.841696006658663"><ele>311.66666666666663</ele><time>2026-04-10T09:06:55.999Z</time></trkpt><trkpt lat="44.78799399951219" lon="7.8417323112873545"><ele>313.0</ele><time>2026-04-10T09:06:58.999Z</time></trkpt><trkpt lat="44.78808534125132" lon="7.8417759047740745"><ele>312.66666666666663</ele><time>2026-04-10T09:07:01.999Z</time></trkpt><trkpt lat="44.7881626076092" lon="7.84182426037261"><ele>312.3333333333333</ele><time>2026-04-10T09:07:04.999Z</time></trkpt><trkpt lat="44.78821470713447" lon="7.841878689926466"><ele>312.0</ele><time>2026-04-10T09:07:07.999Z</time></trkpt><trkpt lat="44.78828106787427" lon="7.841944434004962"><ele>311.6666666666667</ele><time>2026-04-10T09:07:10.999Z</time></trkpt><trkpt lat="44.788352019539786" lon="7.8420061625979"><ele>311.33333333333337</ele><time>2026-04-10T09:07:13.999Z</time></trkpt><trkpt lat="44.78840938543512" lon="7.842082642517193"><ele>311.0</ele><time>2026-04-10T09:07:16.999Z</time></trkpt><trkpt lat="44.78847373683579" lon="7.842167762685886"><ele>311.5</ele><time>2026-04-10T09:07:19.999Z</time></trkpt><trkpt lat="44.78853045403581" lon="7.842260368042492"><ele>312.0</ele><time>2026-04-10T09:07:22.999Z</time></trkpt><trkpt lat="44.78859306161184" lon="7.842366233522598"><ele>312.5</ele><time>2026-04-10T09:07:25.999Z</time></trkpt><trkpt lat="44.78863573133791" lon="7.842438481079431"><ele>313.0</ele><time>2026-04-10T09:07:27.999Z</time></trkpt><trkpt lat="44.788686572058324" lon="7.842522118033479"><ele>313.5</ele><time>2026-04-10T09:07:30.999Z</time></trkpt><trkpt lat="44.78873713877152" lon="7.842623521322904"><ele>314.0</ele><time>2026-04-10T09:07:33.999Z</time></trkpt><trkpt lat="44.78878869049414" lon="7.842707987676797"><ele>314.0</ele><time>2026-04-10T09:07:36.999Z</time></trkpt><trkpt lat="44.78882604085367" lon="7.842792214653833"><ele>314.0</ele><time>2026-04-10T09:07:39.999Z</time></trkpt><trkpt lat="44.78887303244243" lon="7.842907010575877"><ele>314.0</ele><time>2026-04-10T09:07:42.999Z</time></trkpt><trkpt lat="44.78894013702744" lon="7.843003733551003"><ele>314.0</ele><time>2026-04-10T09:07:45.999Z</time></trkpt><trkpt lat="44.788994246724684" lon="7.843073517601079"><ele>314.0</ele><time>2026-04-10T09:07:47.999Z</time></trkpt><trkpt lat="44.78904205899261" lon="7.843147693924615"><ele>314.0</ele><time>2026-04-10T09:07:49.999Z</time></trkpt><trkpt lat="44.789091439692264" lon="7.843229113708165"><ele>314.0</ele><time>2026-04-10T09:07:52.999Z</time></trkpt><trkpt lat="44.789141046761465" lon="7.843316353114917"><ele>314.0</ele><time>2026-04-10T09:07:56.999Z</time></trkpt><trkpt lat="44.78919874739866" lon="7.843415111942499"><ele>314.0</ele><time>2026-04-10T09:07:59.999Z</time></trkpt><trkpt lat="44.78924392430102" lon="7.843480106230215"><ele>314.0</ele><time>2026-04-10T09:08:01.999Z</time></trkpt><trkpt lat="44.789306373008905" lon="7.843545146538746"><ele>314.0</ele><time>2026-04-10T09:08:03.999Z</time></trkpt><trkpt lat="44.78936462097417" lon="7.843595637141104"><ele>314.0</ele><time>2026-04-10T09:08:05.999Z</time></trkpt><trkpt lat="44.78943150860252" lon="7.843621187632094"><ele>315.0</ele><time>2026-04-10T09:08:07.999Z</time></trkpt><trkpt lat="44.78949202511472" lon="7.843659492372275"><ele>316.0</ele><time>2026-04-10T09:08:09.999Z</time></trkpt><trkpt lat="44.78955083076295" lon="7.843697136877307"><ele>317.0</ele><time>2026-04-10T09:08:11.999Z</time></trkpt><trkpt lat="44.78963197105052" lon="7.843734155103389"><ele>318.0</ele><time>2026-04-10T09:08:14.999Z</time></trkpt><trkpt lat="44.789718189832065" lon="7.8437591681798535"><ele>319.0</ele><time>2026-04-10T09:08:17.999Z</time></trkpt><trkpt lat="44.78980719163515" lon="7.843759026896179"><ele>320.0</ele><time>2026-04-10T09:08:20.999Z</time></trkpt><trkpt lat="44.78989301040724" lon="7.843767424414733"><ele>320.0</ele><time>2026-04-10T09:08:23.999Z</time></trkpt><trkpt lat="44.78998556568049" lon="7.8437894365970156"><ele>320.0</ele><time>2026-04-10T09:08:26.999Z</time></trkpt><trkpt lat="44.79006962400493" lon="7.843803428192747"><ele>320.0</ele><time>2026-04-10T09:08:29.999Z</time></trkpt><trkpt lat="44.79015224681191" lon="7.843838559768673"><ele>320.0</ele><time>2026-04-10T09:08:32.999Z</time></trkpt><trkpt lat="44.790232143871414" lon="7.843830154593106"><ele>320.0</ele><time>2026-04-10T09:08:35.999Z</time></trkpt><trkpt lat="44.79031956250296" lon="7.843844969902886"><ele>320.0</ele><time>2026-04-10T09:08:38.999Z</time></trkpt><trkpt lat="44.79040922988949" lon="7.843862659664614"><ele>321.0</ele><time>2026-04-10T09:08:41.999Z</time></trkpt><trkpt lat="44.790477864126075" lon="7.843839583445436"><ele>322.0</ele><time>2026-04-10T09:08:43.999Z</time></trkpt><trkpt lat="44.790541472855644" lon="7.843825070334649"><ele>323.0</ele><time>2026-04-10T09:08:45.999Z</time></trkpt><trkpt lat="44.79060229149203" lon="7.843792919153273"><ele>324.0</ele><time>2026-04-10T09:08:47.999Z</time></trkpt><trkpt lat="44.790693767981615" lon="7.843756613715325"><ele>325.0</ele><time>2026-04-10T09:08:50.999Z</time></trkpt><trkpt lat="44.79078251088652" lon="7.843722311838279"><ele>326.0</ele><time>2026-04-10T09:08:53.999Z</time></trkpt><trkpt lat="44.7908632464722" lon="7.843684183020654"><ele>326.0</ele><time>2026-04-10T09:08:56.999Z</time></trkpt><trkpt lat="44.79094390438408" lon="7.843649818983075"><ele>326.0</ele><time>2026-04-10T09:08:59.999Z</time></trkpt><trkpt lat="44.79103528896316" lon="7.8436369212814645"><ele>326.0</ele><time>2026-04-10T09:09:02.999Z</time></trkpt><trkpt lat="44.7911189406546" lon="7.843652655397575"><ele>326.0</ele><time>2026-04-10T09:09:05.999Z</time></trkpt><trkpt lat="44.79120452332076" lon="7.843680320208285"><ele>326.0</ele><time>2026-04-10T09:09:08.999Z</time></trkpt><trkpt lat="44.7912885730047" lon="7.843706750085616"><ele>326.0</ele><time>2026-04-10T09:09:11.999Z</time></trkpt><trkpt lat="44.79136333288527" lon="7.843777984998499"><ele>326.7142857142857</ele><time>2026-04-10T09:09:14.999Z</time></trkpt><trkpt lat="44.791415167508426" lon="7.843856333947482"><ele>327.4285714285714</ele><time>2026-04-10T09:09:17.999Z</time></trkpt><trkpt lat="44.79144887128889" lon="7.843934275107941"><ele>328.1428571428571</ele><time>2026-04-10T09:09:19.999Z</time></trkpt><trkpt lat="44.791465079222434" lon="7.844030606056462"><ele>328.8571428571429</ele><time>2026-04-10T09:09:21.999Z</time></trkpt><trkpt lat="44.79148365474215" lon="7.844119719672638"><ele>329.57142857142856</ele><time>2026-04-10T09:09:23.999Z</time></trkpt><trkpt lat="44.79150916634202" lon="7.8442163288870255"><ele>330.2857142857143</ele><time>2026-04-10T09:09:26.999Z</time></trkpt><trkpt lat="44.791541600944335" lon="7.8443016856239165"><ele>331.0</ele><time>2026-04-10T09:09:28.999Z</time></trkpt><trkpt lat="44.791572901469294" lon="7.8443967257426825"><ele>331.66666666666663</ele><time>2026-04-10T09:09:30.999Z</time></trkpt><trkpt lat="44.79159041446787" lon="7.844493932262218"><ele>332.3333333333333</ele><time>2026-04-10T09:09:33.999Z</time></trkpt><trkpt lat="44.791624121312566" lon="7.844579664044216"><ele>333.0</ele><time>2026-04-10T09:09:36.999Z</time></trkpt><trkpt lat="44.791658108386365" lon="7.844679339736727"><ele>333.6666666666667</ele><time>2026-04-10T09:09:39.999Z</time></trkpt><trkpt lat="44.79167297217757" lon="7.844798242835813"><ele>334.33333333333337</ele><time>2026-04-10T09:09:42.999Z</time></trkpt><trkpt lat="44.79167883139039" lon="7.844893974988065"><ele>335.0</ele><time>2026-04-10T09:09:44.999Z</time></trkpt><trkpt lat="44.79169691720534" lon="7.845002762024782"><ele>334.6</ele><time>2026-04-10T09:09:47.999Z</time></trkpt><trkpt lat="44.79171226150411" lon="7.845139811451831"><ele>334.2</ele><time>2026-04-10T09:09:50.999Z</time></trkpt><trkpt lat="44.7917282342768" lon="7.845255445764351"><ele>333.79999999999995</ele><time>2026-04-10T09:09:52.999Z</time></trkpt><trkpt lat="44.79176974850721" lon="7.845401987122422"><ele>333.4</ele><time>2026-04-10T09:09:54.999Z</time></trkpt><trkpt lat="44.79182536664788" lon="7.845502345864292"><ele>333.0</ele><time>2026-04-10T09:09:56.999Z</time></trkpt><trkpt lat="44.79191045714528" lon="7.845570388298375"><ele>333.0</ele><time>2026-04-10T09:09:58.999Z</time></trkpt><trkpt lat="44.792017083270686" lon="7.8456089764281725"><ele>333.0</ele><time>2026-04-10T09:10:00.999Z</time></trkpt><trkpt lat="44.792136367855086" lon="7.845573788879425"><ele>333.0</ele><time>2026-04-10T09:10:02.999Z</time></trkpt><trkpt lat="44.79225669646665" lon="7.845517665297477"><ele>333.0</ele><time>2026-04-10T09:10:04.999Z</time></trkpt><trkpt lat="44.79235845881449" lon="7.845461138926887"><ele>333.0</ele><time>2026-04-10T09:10:06.999Z</time></trkpt><trkpt lat="44.792449278631196" lon="7.845405912489444"><ele>333.0</ele><time>2026-04-10T09:10:08.999Z</time></trkpt><trkpt lat="44.79253787581063" lon="7.845376157875904"><ele>333.0</ele><time>2026-04-10T09:10:10.999Z</time></trkpt><trkpt lat="44.792626791399" lon="7.845357029614275"><ele>333.0</ele><time>2026-04-10T09:10:12.999Z</time></trkpt><trkpt lat="44.79272691487931" lon="7.845319018215313"><ele>333.0</ele><time>2026-04-10T09:10:14.999Z</time></trkpt><trkpt lat="44.792837976963675" lon="7.84527314132554"><ele>332.3333333333333</ele><time>2026-04-10T09:10:16.999Z</time></trkpt><trkpt lat="44.79294292045555" lon="7.845196528471992"><ele>331.6666666666667</ele><time>2026-04-10T09:10:18.999Z</time></trkpt><trkpt lat="44.79304827555488" lon="7.845148324835373"><ele>331.0</ele><time>2026-04-10T09:10:20.999Z</time></trkpt><trkpt lat="44.793124414993066" lon="7.845171271956376"><ele>330.33333333333337</ele><time>2026-04-10T09:10:22.999Z</time></trkpt><trkpt lat="44.79312212929879" lon="7.845262567247331"><ele>329.6666666666667</ele><time>2026-04-10T09:10:24.999Z</time></trkpt><trkpt lat="44.79309256812995" lon="7.84535197580844"><ele>329.0</ele><time>2026-04-10T09:10:25.999Z</time></trkpt><trkpt lat="44.793091692239166" lon="7.845451567807012"><ele>329.0</ele><time>2026-04-10T09:10:26.999Z</time></trkpt><trkpt lat="44.79309044741418" lon="7.84555595667681"><ele>329.0</ele><time>2026-04-10T09:10:27.999Z</time></trkpt><trkpt lat="44.793086768874424" lon="7.8456541595749805"><ele>329.0</ele><time>2026-04-10T09:10:28.999Z</time></trkpt><trkpt lat="44.79307601590133" lon="7.845747179869845"><ele>329.0</ele><time>2026-04-10T09:10:29.999Z</time></trkpt><trkpt lat="44.793065039192555" lon="7.845838926559937"><ele>329.0</ele><time>2026-04-10T09:10:30.999Z</time></trkpt><trkpt lat="44.79305967689533" lon="7.845941311297929"><ele>329.0</ele><time>2026-04-10T09:10:31.999Z</time></trkpt><trkpt lat="44.79304800884553" lon="7.8460435644768705"><ele>329.0</ele><time>2026-04-10T09:10:32.999Z</time></trkpt><trkpt lat="44.79303780031359" lon="7.846143781849051"><ele>329.2</ele><time>2026-04-10T09:10:33.999Z</time></trkpt><trkpt lat="44.79300987794876" lon="7.846228412264751"><ele>329.4</ele><time>2026-04-10T09:10:34.999Z</time></trkpt><trkpt lat="44.792984810586226" lon="7.8463116594199604"><ele>329.6</ele><time>2026-04-10T09:10:35.999Z</time></trkpt><trkpt lat="44.79294503969684" lon="7.84646417568595"><ele>329.8</ele><time>2026-04-10T09:10:37.999Z</time></trkpt><trkpt lat="44.79291850897378" lon="7.846624857989453"><ele>330.0</ele><time>2026-04-10T09:10:39.999Z</time></trkpt><trkpt lat="44.79288179623504" lon="7.846774824794878"><ele>330.5</ele><time>2026-04-10T09:10:41.999Z</time></trkpt><trkpt lat="44.79284597071215" lon="7.8469276913857575"><ele>331.0</ele><time>2026-04-10T09:10:43.999Z</time></trkpt><trkpt lat="44.79281324609233" lon="7.8470901240422775"><ele>331.5</ele><time>2026-04-10T09:10:45.999Z</time></trkpt><trkpt lat="44.79281960749809" lon="7.847238381503342"><ele>332.0</ele><time>2026-04-10T09:10:47.999Z</time></trkpt><trkpt lat="44.79290793849218" lon="7.847341834075511"><ele>332.0</ele><time>2026-04-10T09:10:49.999Z</time></trkpt><trkpt lat="44.7930312593468" lon="7.847379553993443"><ele>332.0</ele><time>2026-04-10T09:10:51.999Z</time></trkpt><trkpt lat="44.793095162567454" lon="7.8473903202401525"><ele>332.0</ele><time>2026-04-10T09:10:52.999Z</time></trkpt><trkpt lat="44.79315873069482" lon="7.847400547975489"><ele>332.0</ele><time>2026-04-10T09:10:53.999Z</time></trkpt><trkpt lat="44.793278372897134" lon="7.847419286689645"><ele>332.0</ele><time>2026-04-10T09:10:55.999Z</time></trkpt><trkpt lat="44.79334466472653" lon="7.847433443351162"><ele>332.0</ele><time>2026-04-10T09:10:56.999Z</time></trkpt><trkpt lat="44.79340914771238" lon="7.847436764556731"><ele>332.0</ele><time>2026-04-10T09:10:57.999Z</time></trkpt><trkpt lat="44.79347426537221" lon="7.847440403689502"><ele>332.0</ele><time>2026-04-10T09:10:58.999Z</time></trkpt><trkpt lat="44.7935390362082" lon="7.847451458357487"><ele>332.0</ele><time>2026-04-10T09:10:59.999Z</time></trkpt><trkpt lat="44.79360176584561" lon="7.847469011565039"><ele>332.0</ele><time>2026-04-10T09:11:00.999Z</time></trkpt><trkpt lat="44.79366572559253" lon="7.847486547463814"><ele>332.0</ele><time>2026-04-10T09:11:01.999Z</time></trkpt><trkpt lat="44.79373194743266" lon="7.847505969176633"><ele>332.0</ele><time>2026-04-10T09:11:02.999Z</time></trkpt><trkpt lat="44.793797031545196" lon="7.847529318517522"><ele>332.0</ele><time>2026-04-10T09:11:03.999Z</time></trkpt><trkpt lat="44.793915827052274" lon="7.847571245038208"><ele>332.40000000000003</ele><time>2026-04-10T09:11:05.999Z</time></trkpt><trkpt lat="44.79402894728348" lon="7.847626111234885"><ele>332.8</ele><time>2026-04-10T09:11:07.999Z</time></trkpt><trkpt lat="44.79415519694971" lon="7.847686542631723"><ele>333.2</ele><time>2026-04-10T09:11:09.999Z</time></trkpt><trkpt lat="44.794220451003575" lon="7.847710890080163"><ele>333.6</ele><time>2026-04-10T09:11:10.999Z</time></trkpt><trkpt lat="44.79428979132797" lon="7.847738937327015"><ele>334.0</ele><time>2026-04-10T09:11:11.999Z</time></trkpt><trkpt lat="44.79435154087433" lon="7.847775508573374"><ele>334.0</ele><time>2026-04-10T09:11:12.999Z</time></trkpt><trkpt lat="44.79441213700678" lon="7.847804554412698"><ele>334.0</ele><time>2026-04-10T09:11:13.999Z</time></trkpt><trkpt lat="44.79447808401763" lon="7.847841745884057"><ele>334.0</ele><time>2026-04-10T09:11:14.999Z</time></trkpt><trkpt lat="44.79453980893817" lon="7.847870806600644"><ele>334.0</ele><time>2026-04-10T09:11:15.999Z</time></trkpt><trkpt lat="44.79461136643109" lon="7.847903919070164"><ele>334.0</ele><time>2026-04-10T09:11:16.999Z</time></trkpt><trkpt lat="44.79468050050932" lon="7.847939682352077"><ele>334.0</ele><time>2026-04-10T09:11:17.999Z</time></trkpt><trkpt lat="44.79475447554591" lon="7.847973488145995"><ele>334.0</ele><time>2026-04-10T09:11:18.999Z</time></trkpt><trkpt lat="44.7948400434509" lon="7.848005673403542"><ele>334.0</ele><time>2026-04-10T09:11:19.999Z</time></trkpt><trkpt lat="44.794921233955826" lon="7.848037303891539"><ele>334.0</ele><time>2026-04-10T09:11:20.999Z</time></trkpt><trkpt lat="44.794992372004366" lon="7.8480713910129385"><ele>334.0</ele><time>2026-04-10T09:11:21.999Z</time></trkpt><trkpt lat="44.79506358434445" lon="7.848102464305793"><ele>334.0</ele><time>2026-04-10T09:11:22.999Z</time></trkpt><trkpt lat="44.79513326211771" lon="7.848137145577085"><ele>334.0</ele><time>2026-04-10T09:11:23.999Z</time></trkpt><trkpt lat="44.79520382628714" lon="7.848177813004609"><ele>334.0</ele><time>2026-04-10T09:11:24.999Z</time></trkpt><trkpt lat="44.79527341893817" lon="7.848220129773617"><ele>333.66666666666663</ele><time>2026-04-10T09:11:25.999Z</time></trkpt><trkpt lat="44.79534511116154" lon="7.848266938501017"><ele>333.3333333333333</ele><time>2026-04-10T09:11:26.999Z</time></trkpt><trkpt lat="44.79541251160626" lon="7.848305692505944"><ele>333.0</ele><time>2026-04-10T09:11:27.999Z</time></trkpt><trkpt lat="44.79548044684905" lon="7.848353555795226"><ele>332.6666666666667</ele><time>2026-04-10T09:11:28.999Z</time></trkpt><trkpt lat="44.79554679662911" lon="7.848400173441403"><ele>332.33333333333337</ele><time>2026-04-10T09:11:29.999Z</time></trkpt><trkpt lat="44.79561573603905" lon="7.848443612151945"><ele>332.0</ele><time>2026-04-10T09:11:30.999Z</time></trkpt><trkpt lat="44.795685013012175" lon="7.848487977565085"><ele>332.0</ele><time>2026-04-10T09:11:31.999Z</time></trkpt><trkpt lat="44.795754186879854" lon="7.8485304476416164"><ele>332.0</ele><time>2026-04-10T09:11:32.999Z</time></trkpt><trkpt lat="44.7958206011645" lon="7.848573899678777"><ele>332.0</ele><time>2026-04-10T09:11:33.999Z</time></trkpt><trkpt lat="44.79588719054448" lon="7.848620703178498"><ele>332.0</ele><time>2026-04-10T09:11:34.999Z</time></trkpt><trkpt lat="44.79595407197952" lon="7.848667804483122"><ele>332.0</ele><time>2026-04-10T09:11:35.999Z</time></trkpt><trkpt lat="44.796017446808506" lon="7.848714348378444"><ele>332.0</ele><time>2026-04-10T09:11:36.999Z</time></trkpt><trkpt lat="44.796081043106525" lon="7.848754311524091"><ele>332.0</ele><time>2026-04-10T09:11:37.999Z</time></trkpt><trkpt lat="44.79614998775983" lon="7.848802335925334"><ele>331.83333333333337</ele><time>2026-04-10T09:11:38.999Z</time></trkpt><trkpt lat="44.796216156038426" lon="7.8488502032682765"><ele>331.6666666666667</ele><time>2026-04-10T09:11:39.999Z</time></trkpt><trkpt lat="44.796271687404946" lon="7.848914450416762"><ele>331.5</ele><time>2026-04-10T09:11:40.999Z</time></trkpt><trkpt lat="44.7963181029261" lon="7.84899683200945"><ele>331.3333333333333</ele><time>2026-04-10T09:11:41.999Z</time></trkpt><trkpt lat="44.79635135341813" lon="7.849102880738267"><ele>331.16666666666663</ele><time>2026-04-10T09:11:42.999Z</time></trkpt><trkpt lat="44.796371365951394" lon="7.8492139354132"><ele>331.0</ele><time>2026-04-10T09:11:43.999Z</time></trkpt><trkpt lat="44.79637176450241" lon="7.8493227550372255"><ele>330.5</ele><time>2026-04-10T09:11:44.999Z</time></trkpt><trkpt lat="44.79636095787001" lon="7.849433398092246"><ele>330.0</ele><time>2026-04-10T09:11:45.999Z</time></trkpt><trkpt lat="44.79634810251429" lon="7.8495509002108665"><ele>329.5</ele><time>2026-04-10T09:11:46.999Z</time></trkpt><trkpt lat="44.796337316941106" lon="7.849668176481032"><ele>329.0</ele><time>2026-04-10T09:11:47.999Z</time></trkpt><trkpt lat="44.79632378917343" lon="7.849789000149824"><ele>328.5</ele><time>2026-04-10T09:11:48.999Z</time></trkpt><trkpt lat="44.796308148315376" lon="7.84990787691378"><ele>328.0</ele><time>2026-04-10T09:11:49.999Z</time></trkpt><trkpt lat="44.79629396371946" lon="7.850030386373117"><ele>327.3333333333333</ele><time>2026-04-10T09:11:50.999Z</time></trkpt><trkpt lat="44.79627971575157" lon="7.850157320018591"><ele>326.66666666666663</ele><time>2026-04-10T09:11:51.999Z</time></trkpt><trkpt lat="44.79626547331034" lon="7.850274936493966"><ele>326.0</ele><time>2026-04-10T09:11:52.999Z</time></trkpt><trkpt lat="44.79624505888831" lon="7.850403240469806"><ele>325.3333333333333</ele><time>2026-04-10T09:11:53.999Z</time></trkpt><trkpt lat="44.796224264556976" lon="7.850529064146605"><ele>324.6666666666667</ele><time>2026-04-10T09:11:54.999Z</time></trkpt><trkpt lat="44.79621137996929" lon="7.850636869448101"><ele>324.0</ele><time>2026-04-10T09:11:55.999Z</time></trkpt><trkpt lat="44.79622420316331" lon="7.850749814737923"><ele>324.0</ele><time>2026-04-10T09:11:56.999Z</time></trkpt><trkpt lat="44.79627268736636" lon="7.850843609540041"><ele>324.0</ele><time>2026-04-10T09:11:58.001Z</time></trkpt><trkpt lat="44.79635279124146" lon="7.850893026123337"><ele>324.0</ele><time>2026-04-10T09:11:59.001Z</time></trkpt><trkpt lat="44.79644981211798" lon="7.850895731445104"><ele>324.0</ele><time>2026-04-10T09:12:00.001Z</time></trkpt><trkpt lat="44.79653696214038" lon="7.850880127423232"><ele>324.0</ele><time>2026-04-10T09:12:01.001Z</time></trkpt><trkpt lat="44.79662168776365" lon="7.850862545323327"><ele>324.0</ele><time>2026-04-10T09:12:02.001Z</time></trkpt><trkpt lat="44.7967034690492" lon="7.850832344547017"><ele>324.0</ele><time>2026-04-10T09:12:03.001Z</time></trkpt><trkpt lat="44.79678366945666" lon="7.850802318632777"><ele>324.0</ele><time>2026-04-10T09:12:04.001Z</time></trkpt><trkpt lat="44.7968649196785" lon="7.850769938831567"><ele>324.0</ele><time>2026-04-10T09:12:05.001Z</time></trkpt><trkpt lat="44.79694565477497" lon="7.850735861032895"><ele>324.0</ele><time>2026-04-10T09:12:06.001Z</time></trkpt><trkpt lat="44.79702639021914" lon="7.850699927227218"><ele>324.0</ele><time>2026-04-10T09:12:07.001Z</time></trkpt><trkpt lat="44.79710824120288" lon="7.850668298610344"><ele>324.0</ele><time>2026-04-10T09:12:08.001Z</time></trkpt><trkpt lat="44.7971915512886" lon="7.850636054259171"><ele>324.0</ele><time>2026-04-10T09:12:09.001Z</time></trkpt><trkpt lat="44.79728118104448" lon="7.8506084576237924"><ele>324.0</ele><time>2026-04-10T09:12:10.001Z</time></trkpt><trkpt lat="44.79737024735512" lon="7.85062137988263"><ele>324.0</ele><time>2026-04-10T09:12:11.001Z</time></trkpt><trkpt lat="44.79744145426425" lon="7.850673073987553"><ele>324.0</ele><time>2026-04-10T09:12:12.001Z</time></trkpt><trkpt lat="44.79749218007794" lon="7.850760311424707"><ele>324.0</ele><time>2026-04-10T09:12:13.001Z</time></trkpt><trkpt lat="44.797532225191766" lon="7.850867794319203"><ele>324.0</ele><time>2026-04-10T09:12:14Z</time></trkpt><trkpt lat="44.79760383111444" lon="7.8509573717763965"><ele>323.79999999999995</ele><time>2026-04-10T09:12:15Z</time></trkpt><trkpt lat="44.797633553917706" lon="7.851078856639763"><ele>323.59999999999997</ele><time>2026-04-10T09:12:16Z</time></trkpt><trkpt lat="44.79766476390983" lon="7.8512054710459225"><ele>323.4</ele><time>2026-04-10T09:12:17Z</time></trkpt><trkpt lat="44.79769857860904" lon="7.851325484371205"><ele>323.2</ele><time>2026-04-10T09:12:18Z</time></trkpt><trkpt lat="44.79773607603865" lon="7.851440301377004"><ele>323.0</ele><time>2026-04-10T09:12:19Z</time></trkpt><trkpt lat="44.797778552218915" lon="7.85156501429155"><ele>323.0</ele><time>2026-04-10T09:12:20Z</time></trkpt><trkpt lat="44.79782197371313" lon="7.851686526479553"><ele>323.0</ele><time>2026-04-10T09:12:21Z</time></trkpt><trkpt lat="44.7978679469686" lon="7.851804013339459"><ele>323.0</ele><time>2026-04-10T09:12:22Z</time></trkpt><trkpt lat="44.79791187233355" lon="7.85191223173649"><ele>323.0</ele><time>2026-04-10T09:12:23Z</time></trkpt><trkpt lat="44.79795166306553" lon="7.852028491810504"><ele>323.0</ele><time>2026-04-10T09:12:24Z</time></trkpt><trkpt lat="44.79798163397913" lon="7.852140709705069"><ele>323.0</ele><time>2026-04-10T09:12:25Z</time></trkpt><trkpt lat="44.798002375017276" lon="7.852245175789425"><ele>323.0</ele><time>2026-04-10T09:12:26Z</time></trkpt><trkpt lat="44.798006428082466" lon="7.852348472771839"><ele>323.0</ele><time>2026-04-10T09:12:27Z</time></trkpt><trkpt lat="44.798036919308" lon="7.852436232389597"><ele>323.0</ele><time>2026-04-10T09:12:28Z</time></trkpt><trkpt lat="44.7980731028802" lon="7.8525132147339125"><ele>323.0</ele><time>2026-04-10T09:12:29Z</time></trkpt><trkpt lat="44.7981202131666" lon="7.852577816545809"><ele>323.0</ele><time>2026-04-10T09:12:30Z</time></trkpt><trkpt lat="44.79824055678396" lon="7.85263843874824"><ele>323.0</ele><time>2026-04-10T09:12:32Z</time></trkpt><trkpt lat="44.798312877902525" lon="7.8526065654872195"><ele>323.0</ele><time>2026-04-10T09:12:33Z</time></trkpt><trkpt lat="44.79838138048794" lon="7.852560719190258"><ele>323.0</ele><time>2026-04-10T09:12:34Z</time></trkpt><trkpt lat="44.79845273449398" lon="7.852516399320548"><ele>323.0</ele><time>2026-04-10T09:12:35Z</time></trkpt><trkpt lat="44.798528953790175" lon="7.852476993899495"><ele>323.0</ele><time>2026-04-10T09:12:36Z</time></trkpt><trkpt lat="44.798607100626626" lon="7.852443392326647"><ele>323.0</ele><time>2026-04-10T09:12:37Z</time></trkpt><trkpt lat="44.79868801651275" lon="7.852408497147006"><ele>322.33333333333337</ele><time>2026-04-10T09:12:38Z</time></trkpt><trkpt lat="44.7987697864757" lon="7.852369814899233"><ele>321.6666666666667</ele><time>2026-04-10T09:12:39Z</time></trkpt><trkpt lat="44.7988513159072" lon="7.852332926074641"><ele>321.0</ele><time>2026-04-10T09:12:40Z</time></trkpt><trkpt lat="44.79893339424554" lon="7.852295538301715"><ele>320.3333333333333</ele><time>2026-04-10T09:12:41Z</time></trkpt><trkpt lat="44.79901545031928" lon="7.8522499257286915"><ele>319.66666666666663</ele><time>2026-04-10T09:12:42Z</time></trkpt><trkpt lat="44.799099172673934" lon="7.85220303360531"><ele>319.0</ele><time>2026-04-10T09:12:43Z</time></trkpt><trkpt lat="44.79918407129421" lon="7.852159379113482"><ele>319.0</ele><time>2026-04-10T09:12:44Z</time></trkpt><trkpt lat="44.799271096435895" lon="7.852117915426871"><ele>319.0</ele><time>2026-04-10T09:12:45Z</time></trkpt><trkpt lat="44.79936052345841" lon="7.8520792228334"><ele>319.0</ele><time>2026-04-10T09:12:46Z</time></trkpt><trkpt lat="44.7994536603616" lon="7.852051702247466"><ele>319.0</ele><time>2026-04-10T09:12:47Z</time></trkpt><trkpt lat="44.79955225860978" lon="7.852063006466833"><ele>319.0</ele><time>2026-04-10T09:12:48Z</time></trkpt><trkpt lat="44.79963128566283" lon="7.8521490117860075"><ele>318.4</ele><time>2026-04-10T09:12:49Z</time></trkpt><trkpt lat="44.799681276409125" lon="7.8522505617968985"><ele>317.79999999999995</ele><time>2026-04-10T09:12:50Z</time></trkpt><trkpt lat="44.79972761292467" lon="7.852385408101158"><ele>317.20000000000005</ele><time>2026-04-10T09:12:51Z</time></trkpt><trkpt lat="44.79977980621778" lon="7.852533988384455"><ele>316.6</ele><time>2026-04-10T09:12:52Z</time></trkpt><trkpt lat="44.79983590751846" lon="7.8526763075222625"><ele>316.0</ele><time>2026-04-10T09:12:53Z</time></trkpt><trkpt lat="44.7998926900732" lon="7.852815778770868"><ele>316.0</ele><time>2026-04-10T09:12:54Z</time></trkpt><trkpt lat="44.799953483534985" lon="7.852955995665774"><ele>316.0</ele><time>2026-04-10T09:12:55Z</time></trkpt><trkpt lat="44.80001386650551" lon="7.853086583359273"><ele>316.0</ele><time>2026-04-10T09:12:56Z</time></trkpt><trkpt lat="44.80006962881202" lon="7.8532100611938125"><ele>316.0</ele><time>2026-04-10T09:12:57Z</time></trkpt><trkpt lat="44.80012794658983" lon="7.853321190536455"><ele>316.0</ele><time>2026-04-10T09:12:58Z</time></trkpt><trkpt lat="44.80017368045722" lon="7.853432778355821"><ele>317.0</ele><time>2026-04-10T09:12:59Z</time></trkpt><trkpt lat="44.80021696390732" lon="7.853535399556457"><ele>318.0</ele><time>2026-04-10T09:13:00Z</time></trkpt><trkpt lat="44.80026109200004" lon="7.85362473786357"><ele>319.0</ele><time>2026-04-10T09:13:01Z</time></trkpt><trkpt lat="44.80028394860157" lon="7.853718958121565"><ele>320.0</ele><time>2026-04-10T09:13:02Z</time></trkpt><trkpt lat="44.800317446252535" lon="7.853795823173834"><ele>321.0</ele><time>2026-04-10T09:13:03Z</time></trkpt><trkpt lat="44.80038637706636" lon="7.853910887241866"><ele>322.0</ele><time>2026-04-10T09:13:05Z</time></trkpt><trkpt lat="44.80041789853876" lon="7.8540309169069715"><ele>322.0</ele><time>2026-04-10T09:13:07Z</time></trkpt><trkpt lat="44.80046305635094" lon="7.854142086942077"><ele>322.0</ele><time>2026-04-10T09:13:09Z</time></trkpt><trkpt lat="44.80050087819018" lon="7.854238729428217"><ele>322.0</ele><time>2026-04-10T09:13:11Z</time></trkpt><trkpt lat="44.800578160952554" lon="7.854316105101382"><ele>322.0</ele><time>2026-04-10T09:13:14Z</time></trkpt><trkpt lat="44.8006131423755" lon="7.854406517561133"><ele>322.0</ele><time>2026-04-10T09:13:17Z</time></trkpt><trkpt lat="44.8006652192363" lon="7.854510017452896"><ele>322.0</ele><time>2026-04-10T09:13:20Z</time></trkpt><trkpt lat="44.80070410589167" lon="7.854600261751796"><ele>323.2857142857143</ele><time>2026-04-10T09:13:23Z</time></trkpt><trkpt lat="44.80074442923442" lon="7.854680141276926"><ele>324.57142857142856</ele><time>2026-04-10T09:13:25Z</time></trkpt><trkpt lat="44.80078036648983" lon="7.854778497029914"><ele>325.8571428571429</ele><time>2026-04-10T09:13:28Z</time></trkpt><trkpt lat="44.80081026186231" lon="7.854874510095464"><ele>327.1428571428571</ele><time>2026-04-10T09:13:31Z</time></trkpt><trkpt lat="44.80085005071208" lon="7.8549700306807475"><ele>328.42857142857144</ele><time>2026-04-10T09:13:34Z</time></trkpt><trkpt lat="44.80088315281899" lon="7.855073653063016"><ele>329.7142857142857</ele><time>2026-04-10T09:13:37Z</time></trkpt><trkpt lat="44.80090783155611" lon="7.855156810722047"><ele>331.0</ele><time>2026-04-10T09:13:39Z</time></trkpt><trkpt lat="44.80094509524366" lon="7.855272491862876"><ele>331.42857142857144</ele><time>2026-04-10T09:13:41Z</time></trkpt><trkpt lat="44.800960471679474" lon="7.855368455713998"><ele>331.85714285714283</ele><time>2026-04-10T09:13:43Z</time></trkpt><trkpt lat="44.800934971909925" lon="7.855458499381782"><ele>332.2857142857143</ele><time>2026-04-10T09:13:46Z</time></trkpt><trkpt lat="44.800907466767725" lon="7.85555886690417"><ele>332.7142857142857</ele><time>2026-04-10T09:13:49Z</time></trkpt><trkpt lat="44.80086677492956" lon="7.855661224194424"><ele>333.14285714285717</ele><time>2026-04-10T09:13:52Z</time></trkpt><trkpt lat="44.8008407185814" lon="7.855751747632043"><ele>333.57142857142856</ele><time>2026-04-10T09:13:55Z</time></trkpt><trkpt lat="44.80081503295868" lon="7.855839912056376"><ele>334.0</ele><time>2026-04-10T09:13:58Z</time></trkpt><trkpt lat="44.80079148810569" lon="7.8559443666799975"><ele>334.5</ele><time>2026-04-10T09:14:01Z</time></trkpt><trkpt lat="44.800764339542084" lon="7.856057655751387"><ele>335.0</ele><time>2026-04-10T09:14:04Z</time></trkpt><trkpt lat="44.800745175475946" lon="7.8561485594908875"><ele>335.5</ele><time>2026-04-10T09:14:06Z</time></trkpt><trkpt lat="44.800748099508034" lon="7.856278208643695"><ele>336.0</ele><time>2026-04-10T09:14:09Z</time></trkpt><trkpt lat="44.800809130214645" lon="7.856392618447248"><ele>336.5</ele><time>2026-04-10T09:14:12Z</time></trkpt><trkpt lat="44.800880245408955" lon="7.856460893484092"><ele>337.0</ele><time>2026-04-10T09:14:14Z</time></trkpt><trkpt lat="44.80094883429802" lon="7.856517419627572"><ele>336.40000000000003</ele><time>2026-04-10T09:14:16Z</time></trkpt><trkpt lat="44.801012255994586" lon="7.856588090693564"><ele>335.8</ele><time>2026-04-10T09:14:18Z</time></trkpt><trkpt lat="44.80108720352275" lon="7.8566772698899285"><ele>335.2</ele><time>2026-04-10T09:14:20Z</time></trkpt><trkpt lat="44.801170597966724" lon="7.856756960711486"><ele>334.6</ele><time>2026-04-10T09:14:22Z</time></trkpt><trkpt lat="44.80125048658242" lon="7.856841607614688"><ele>334.0</ele><time>2026-04-10T09:14:24Z</time></trkpt><trkpt lat="44.801320186690056" lon="7.856917449601315"><ele>333.3333333333333</ele><time>2026-04-10T09:14:26Z</time></trkpt><trkpt lat="44.801356452119336" lon="7.856991134758294"><ele>332.66666666666663</ele><time>2026-04-10T09:14:28Z</time></trkpt><trkpt lat="44.80136517920118" lon="7.857130413043727"><ele>332.0</ele><time>2026-04-10T09:14:30Z</time></trkpt><trkpt lat="44.80136654285927" lon="7.857220357292351"><ele>331.3333333333333</ele><time>2026-04-10T09:14:31Z</time></trkpt><trkpt lat="44.80136521755543" lon="7.857321939281023"><ele>330.6666666666667</ele><time>2026-04-10T09:14:32Z</time></trkpt><trkpt lat="44.80135726264033" lon="7.857424274523971"><ele>330.0</ele><time>2026-04-10T09:14:33Z</time></trkpt><trkpt lat="44.80134943798467" lon="7.857534485753412"><ele>328.4</ele><time>2026-04-10T09:14:34Z</time></trkpt><trkpt lat="44.80133909671872" lon="7.85764902694757"><ele>326.8</ele><time>2026-04-10T09:14:35Z</time></trkpt><trkpt lat="44.8013249779764" lon="7.857778112652816"><ele>325.20000000000005</ele><time>2026-04-10T09:14:36Z</time></trkpt><trkpt lat="44.80131253894074" lon="7.85792038019729"><ele>323.6</ele><time>2026-04-10T09:14:37Z</time></trkpt><trkpt lat="44.80129686605272" lon="7.858102939030325"><ele>322.0</ele><time>2026-04-10T09:14:38Z</time></trkpt><trkpt lat="44.801264573197976" lon="7.858262410851466"><ele>322.0</ele><time>2026-04-10T09:14:39Z</time></trkpt><trkpt lat="44.801237648887295" lon="7.858413941027391"><ele>322.0</ele><time>2026-04-10T09:14:40Z</time></trkpt><trkpt lat="44.80123154569626" lon="7.858570188898801"><ele>322.0</ele><time>2026-04-10T09:14:41Z</time></trkpt><trkpt lat="44.80125257137396" lon="7.858733966047361"><ele>322.0</ele><time>2026-04-10T09:14:42Z</time></trkpt><trkpt lat="44.80130389281403" lon="7.858884701519408"><ele>322.0</ele><time>2026-04-10T09:14:43Z</time></trkpt><trkpt lat="44.80138329901886" lon="7.859005124307145"><ele>322.0</ele><time>2026-04-10T09:14:44Z</time></trkpt><trkpt lat="44.80147576337557" lon="7.859112695616032"><ele>322.0</ele><time>2026-04-10T09:14:45Z</time></trkpt><trkpt lat="44.80157051989778" lon="7.859217078771612"><ele>322.0</ele><time>2026-04-10T09:14:46Z</time></trkpt><trkpt lat="44.801650687309966" lon="7.859339388276612"><ele>322.0</ele><time>2026-04-10T09:14:47Z</time></trkpt><trkpt lat="44.80173089533447" lon="7.859452214190667"><ele>322.0</ele><time>2026-04-10T09:14:48Z</time></trkpt><trkpt lat="44.80179750191223" lon="7.859564782798149"><ele>322.0</ele><time>2026-04-10T09:14:49Z</time></trkpt><trkpt lat="44.80185030669082" lon="7.85968466544813"><ele>322.0</ele><time>2026-04-10T09:14:50Z</time></trkpt><trkpt lat="44.80188730411263" lon="7.8598022407349735"><ele>322.0</ele><time>2026-04-10T09:14:51Z</time></trkpt><trkpt lat="44.80191792487858" lon="7.859913558440737"><ele>323.3333333333333</ele><time>2026-04-10T09:14:51.999Z</time></trkpt><trkpt lat="44.80194499734736" lon="7.860016976937999"><ele>324.66666666666663</ele><time>2026-04-10T09:14:52.999Z</time></trkpt><trkpt lat="44.80197040155315" lon="7.860114022360343"><ele>326.0</ele><time>2026-04-10T09:14:53.999Z</time></trkpt><trkpt lat="44.80199851378215" lon="7.860211499599648"><ele>327.3333333333333</ele><time>2026-04-10T09:14:54.999Z</time></trkpt><trkpt lat="44.80202629208891" lon="7.860303038896026"><ele>328.6666666666667</ele><time>2026-04-10T09:14:55.999Z</time></trkpt><trkpt lat="44.8020531879119" lon="7.8603894780677"><ele>330.0</ele><time>2026-04-10T09:14:56.999Z</time></trkpt><trkpt lat="44.80210256086683" lon="7.860548155282359"><ele>330.0</ele><time>2026-04-10T09:14:58.999Z</time></trkpt><trkpt lat="44.802150787716286" lon="7.860695537245032"><ele>330.0</ele><time>2026-04-10T09:15:00.999Z</time></trkpt><trkpt lat="44.80220947528953" lon="7.860836888294575"><ele>330.0</ele><time>2026-04-10T09:15:02.999Z</time></trkpt><trkpt lat="44.80225176544056" lon="7.860996600835295"><ele>330.0</ele><time>2026-04-10T09:15:04.999Z</time></trkpt><trkpt lat="44.8023013344183" lon="7.861127874854462"><ele>329.4</ele><time>2026-04-10T09:15:06.999Z</time></trkpt><trkpt lat="44.80235344071498" lon="7.861247364216748"><ele>328.8</ele><time>2026-04-10T09:15:08.999Z</time></trkpt><trkpt lat="44.80241215235241" lon="7.861356984800698"><ele>328.20000000000005</ele><time>2026-04-10T09:15:10.999Z</time></trkpt><trkpt lat="44.80249198625025" lon="7.861431675957912"><ele>327.6</ele><time>2026-04-10T09:15:12.999Z</time></trkpt><trkpt lat="44.80255999845032" lon="7.861510305130129"><ele>327.0</ele><time>2026-04-10T09:15:14.999Z</time></trkpt><trkpt lat="44.80263855840074" lon="7.861608508388506"><ele>328.3333333333333</ele><time>2026-04-10T09:15:16.999Z</time></trkpt><trkpt lat="44.802697741184296" lon="7.861692064139529"><ele>329.6666666666667</ele><time>2026-04-10T09:15:18.999Z</time></trkpt><trkpt lat="44.80274642760171" lon="7.861760908232115"><ele>331.0</ele><time>2026-04-10T09:15:20.999Z</time></trkpt><trkpt lat="44.8028164323135" lon="7.8618491328350935"><ele>332.33333333333337</ele><time>2026-04-10T09:15:22.999Z</time></trkpt><trkpt lat="44.80286091579077" lon="7.861929508376537"><ele>333.6666666666667</ele><time>2026-04-10T09:15:24.999Z</time></trkpt><trkpt lat="44.802934479229954" lon="7.862018061639588"><ele>335.0</ele><time>2026-04-10T09:15:27.999Z</time></trkpt><trkpt lat="44.80298608353513" lon="7.8620927746996125"><ele>335.0</ele><time>2026-04-10T09:15:29.999Z</time></trkpt><trkpt lat="44.80303246425738" lon="7.862168121604737"><ele>335.0</ele><time>2026-04-10T09:15:31.999Z</time></trkpt><trkpt lat="44.80309882001398" lon="7.862266516493392"><ele>335.0</ele><time>2026-04-10T09:15:34.999Z</time></trkpt><trkpt lat="44.803148550867995" lon="7.862351257905518"><ele>335.0</ele><time>2026-04-10T09:15:36.999Z</time></trkpt><trkpt lat="44.80319747023373" lon="7.862430409636255"><ele>335.0</ele><time>2026-04-10T09:15:39.999Z</time></trkpt><trkpt lat="44.80323890783924" lon="7.862498405650241"><ele>335.0</ele><time>2026-04-10T09:15:42.999Z</time></trkpt><trkpt lat="44.80329520339169" lon="7.862577327750506"><ele>335.0</ele><time>2026-04-10T09:15:45.999Z</time></trkpt><trkpt lat="44.80335782431519" lon="7.862666903841749"><ele>335.0</ele><time>2026-04-10T09:15:48.999Z</time></trkpt><trkpt lat="44.803421425022094" lon="7.862751412908715"><ele>335.0</ele><time>2026-04-10T09:15:51.999Z</time></trkpt><trkpt lat="44.80348362422389" lon="7.862823504092324"><ele>335.0</ele><time>2026-04-10T09:15:54.999Z</time></trkpt><trkpt lat="44.80354880953009" lon="7.862872533763372"><ele>335.0</ele><time>2026-04-10T09:15:57.999Z</time></trkpt><trkpt lat="44.80362649782727" lon="7.862918723351198"><ele>335.0</ele><time>2026-04-10T09:16:00.999Z</time></trkpt><trkpt lat="44.803690231807856" lon="7.862969110921453"><ele>335.99999999999994</ele><time>2026-04-10T09:16:02.999Z</time></trkpt><trkpt lat="44.80374953078829" lon="7.863010206884734"><ele>337.0</ele><time>2026-04-10T09:16:04.999Z</time></trkpt><trkpt lat="44.80380784744801" lon="7.863065767632452"><ele>338.0</ele><time>2026-04-10T09:16:06.999Z</time></trkpt><trkpt lat="44.80387389442574" lon="7.863133479036356"><ele>339.0</ele><time>2026-04-10T09:16:09.999Z</time></trkpt><trkpt lat="44.80392454869593" lon="7.863193670711502"><ele>340.0</ele><time>2026-04-10T09:16:11.999Z</time></trkpt><trkpt lat="44.80397723985239" lon="7.863248966823544"><ele>340.99999999999994</ele><time>2026-04-10T09:16:13.999Z</time></trkpt><trkpt lat="44.804026575890596" lon="7.863320486856204"><ele>342.0</ele><time>2026-04-10T09:16:15.999Z</time></trkpt><trkpt lat="44.80406503663471" lon="7.863430389453242"><ele>342.1666666666667</ele><time>2026-04-10T09:16:18.999Z</time></trkpt><trkpt lat="44.80409797404036" lon="7.863529141626676"><ele>342.3333333333333</ele><time>2026-04-10T09:16:21.999Z</time></trkpt><trkpt lat="44.80414451457253" lon="7.863626956703813"><ele>342.5</ele><time>2026-04-10T09:16:24.999Z</time></trkpt><trkpt lat="44.804182674997165" lon="7.863733110194667"><ele>342.66666666666663</ele><time>2026-04-10T09:16:27.999Z</time></trkpt><trkpt lat="44.804214346114854" lon="7.863828097000822"><ele>342.8333333333333</ele><time>2026-04-10T09:16:30.999Z</time></trkpt><trkpt lat="44.804266176356265" lon="7.863924463792253"><ele>343.0</ele><time>2026-04-10T09:16:34.999Z</time></trkpt><trkpt lat="44.80430180052245" lon="7.864026038036842"><ele>344.3333333333333</ele><time>2026-04-10T09:16:38.999Z</time></trkpt><trkpt lat="44.804353653241954" lon="7.8641129674887535"><ele>345.66666666666663</ele><time>2026-04-10T09:16:41.999Z</time></trkpt><trkpt lat="44.80439661928808" lon="7.864208364723636"><ele>347.0</ele><time>2026-04-10T09:16:44.999Z</time></trkpt><trkpt lat="44.80442390905447" lon="7.864293745178673"><ele>348.3333333333333</ele><time>2026-04-10T09:16:47.999Z</time></trkpt><trkpt lat="44.80446299578578" lon="7.864367638713405"><ele>349.6666666666667</ele><time>2026-04-10T09:16:50.999Z</time></trkpt><trkpt lat="44.80450222269194" lon="7.864490437398027"><ele>351.0</ele><time>2026-04-10T09:16:54.999Z</time></trkpt><trkpt lat="44.804518210206574" lon="7.86460738458482"><ele>351.0</ele><time>2026-04-10T09:16:58.999Z</time></trkpt><trkpt lat="44.80454894277394" lon="7.864717565862767"><ele>351.0</ele><time>2026-04-10T09:17:01.999Z</time></trkpt><trkpt lat="44.804545822899726" lon="7.864816630964519"><ele>351.0</ele><time>2026-04-10T09:17:04.999Z</time></trkpt><trkpt lat="44.804552163680015" lon="7.86492291946748"><ele>351.0</ele><time>2026-04-10T09:17:07.999Z</time></trkpt><trkpt lat="44.80455927532385" lon="7.865047396019513"><ele>351.0</ele><time>2026-04-10T09:17:10.999Z</time></trkpt><trkpt lat="44.80459055243527" lon="7.8651635058338085"><ele>351.0</ele><time>2026-04-10T09:17:13.999Z</time></trkpt><trkpt lat="44.80461574275156" lon="7.865254122378719"><ele>350.6666666666667</ele><time>2026-04-10T09:17:15.999Z</time></trkpt><trkpt lat="44.8046256175653" lon="7.865383892500721"><ele>350.3333333333333</ele><time>2026-04-10T09:17:18.999Z</time></trkpt><trkpt lat="44.804634134007244" lon="7.865479411409586"><ele>350.0</ele><time>2026-04-10T09:17:20.999Z</time></trkpt><trkpt lat="44.80464952856015" lon="7.865570981813094"><ele>349.66666666666663</ele><time>2026-04-10T09:17:22.999Z</time></trkpt><trkpt lat="44.80466191337776" lon="7.865675884813249"><ele>349.3333333333333</ele><time>2026-04-10T09:17:24.999Z</time></trkpt><trkpt lat="44.80468485859964" lon="7.865800035677768"><ele>349.0</ele><time>2026-04-10T09:17:26.999Z</time></trkpt><trkpt lat="44.80469571205768" lon="7.865927651842867"><ele>348.6</ele><time>2026-04-10T09:17:28.999Z</time></trkpt><trkpt lat="44.804706803613136" lon="7.86607609107752"><ele>348.2</ele><time>2026-04-10T09:17:30.999Z</time></trkpt><trkpt lat="44.80474215744471" lon="7.866235308427125"><ele>347.8</ele><time>2026-04-10T09:17:32.999Z</time></trkpt><trkpt lat="44.80477564427738" lon="7.866392688282443"><ele>347.40000000000003</ele><time>2026-04-10T09:17:34.999Z</time></trkpt><trkpt lat="44.80478828007049" lon="7.866480410148636"><ele>347.0</ele><time>2026-04-10T09:17:35.999Z</time></trkpt><trkpt lat="44.80480743201331" lon="7.866640207645162"><ele>347.0</ele><time>2026-04-10T09:17:37.999Z</time></trkpt><trkpt lat="44.8048060044078" lon="7.866733790731594"><ele>347.0</ele><time>2026-04-10T09:17:38.999Z</time></trkpt><trkpt lat="44.804802258690785" lon="7.866828851797476"><ele>347.0</ele><time>2026-04-10T09:17:39.999Z</time></trkpt><trkpt lat="44.80478444914393" lon="7.866917417041387"><ele>347.0</ele><time>2026-04-10T09:17:40.999Z</time></trkpt><trkpt lat="44.80475582789619" lon="7.8670775861802325"><ele>347.0</ele><time>2026-04-10T09:17:42.999Z</time></trkpt><trkpt lat="44.804751258420616" lon="7.867260242372653"><ele>347.0</ele><time>2026-04-10T09:17:44.999Z</time></trkpt><trkpt lat="44.804750226595445" lon="7.8673566758643485"><ele>346.83333333333337</ele><time>2026-04-10T09:17:45.999Z</time></trkpt><trkpt lat="44.804728888866165" lon="7.867461329791616"><ele>346.6666666666667</ele><time>2026-04-10T09:17:46.999Z</time></trkpt><trkpt lat="44.80471612854756" lon="7.867553472696052"><ele>346.5</ele><time>2026-04-10T09:17:47.999Z</time></trkpt><trkpt lat="44.80470047990828" lon="7.8677040278370844"><ele>346.3333333333333</ele><time>2026-04-10T09:17:49.999Z</time></trkpt><trkpt lat="44.80468567893537" lon="7.867796205490727"><ele>346.16666666666663</ele><time>2026-04-10T09:17:50.999Z</time></trkpt><trkpt lat="44.80465424038039" lon="7.8679491835704365"><ele>346.0</ele><time>2026-04-10T09:17:52.999Z</time></trkpt><trkpt lat="44.80464205210277" lon="7.868046548467079"><ele>346.0</ele><time>2026-04-10T09:17:53.999Z</time></trkpt><trkpt lat="44.804629995828236" lon="7.868153736825097"><ele>346.0</ele><time>2026-04-10T09:17:54.999Z</time></trkpt><trkpt lat="44.80462258923473" lon="7.868251300136766"><ele>346.0</ele><time>2026-04-10T09:17:55.999Z</time></trkpt><trkpt lat="44.80461586123709" lon="7.86837338509091"><ele>346.0</ele><time>2026-04-10T09:17:56.999Z</time></trkpt><trkpt lat="44.80458643321013" lon="7.868548693343988"><ele>346.0</ele><time>2026-04-10T09:17:58.999Z</time></trkpt><trkpt lat="44.80457058647296" lon="7.86863796264147"><ele>346.0</ele><time>2026-04-10T09:17:59.999Z</time></trkpt><trkpt lat="44.80454344336421" lon="7.868807975287403"><ele>346.5</ele><time>2026-04-10T09:18:01.998Z</time></trkpt><trkpt lat="44.8045263129188" lon="7.868969848459698"><ele>347.0</ele><time>2026-04-10T09:18:03.998Z</time></trkpt><trkpt lat="44.80451001768894" lon="7.8691205995505085"><ele>347.5</ele><time>2026-04-10T09:18:05.998Z</time></trkpt><trkpt lat="44.80449019007535" lon="7.869268791090346"><ele>348.0</ele><time>2026-04-10T09:18:07.998Z</time></trkpt><trkpt lat="44.80445853252443" lon="7.869444860094599"><ele>348.79999999999995</ele><time>2026-04-10T09:18:09.998Z</time></trkpt><trkpt lat="44.80443979991647" lon="7.869581374194042"><ele>349.6</ele><time>2026-04-10T09:18:11.998Z</time></trkpt><trkpt lat="44.8044470646125" lon="7.8697319071264165"><ele>350.4</ele><time>2026-04-10T09:18:13.998Z</time></trkpt><trkpt lat="44.80454165489911" lon="7.869715941985005"><ele>351.20000000000005</ele><time>2026-04-10T09:18:17.998Z</time></trkpt><trkpt lat="44.804636429744214" lon="7.869706447046612"><ele>352.0</ele><time>2026-04-10T09:18:19.998Z</time></trkpt><trkpt lat="44.804774984563004" lon="7.869656011940699"><ele>352.0</ele><time>2026-04-10T09:18:21.998Z</time></trkpt><trkpt lat="44.804849740581645" lon="7.869632408202445"><ele>352.0</ele><time>2026-04-10T09:18:22.998Z</time></trkpt><trkpt lat="44.804932023047094" lon="7.869618068537507"><ele>352.0</ele><time>2026-04-10T09:18:23.998Z</time></trkpt><trkpt lat="44.80501064312669" lon="7.869602971233606"><ele>352.0</ele><time>2026-04-10T09:18:24.998Z</time></trkpt><trkpt lat="44.80507856597446" lon="7.869598073697479"><ele>352.0</ele><time>2026-04-10T09:18:25.998Z</time></trkpt><trkpt lat="44.805164989996776" lon="7.869596420823113"><ele>352.0</ele><time>2026-04-10T09:18:26.998Z</time></trkpt><trkpt lat="44.805240426491146" lon="7.869589604058479"><ele>351.66666666666663</ele><time>2026-04-10T09:18:27.998Z</time></trkpt><trkpt lat="44.80530720538331" lon="7.869578842359834"><ele>351.3333333333333</ele><time>2026-04-10T09:18:28.998Z</time></trkpt><trkpt lat="44.80542654574846" lon="7.869575987339115"><ele>351.0</ele><time>2026-04-10T09:18:30.998Z</time></trkpt><trkpt lat="44.8054908017897" lon="7.869597491334216"><ele>350.6666666666667</ele><time>2026-04-10T09:18:31.998Z</time></trkpt><trkpt lat="44.80556458855867" lon="7.869620411728414"><ele>350.33333333333337</ele><time>2026-04-10T09:18:32.998Z</time></trkpt><trkpt lat="44.80562861403608" lon="7.869638585759801"><ele>350.0</ele><time>2026-04-10T09:18:33.998Z</time></trkpt><trkpt lat="44.80569200411735" lon="7.869646416014047"><ele>350.0</ele><time>2026-04-10T09:18:34.998Z</time></trkpt><trkpt lat="44.80575544094347" lon="7.86964238806437"><ele>350.0</ele><time>2026-04-10T09:18:35.998Z</time></trkpt><trkpt lat="44.80582027123163" lon="7.8696285282126714"><ele>350.0</ele><time>2026-04-10T09:18:36.998Z</time></trkpt><trkpt lat="44.805937386775575" lon="7.869578092102405"><ele>350.0</ele><time>2026-04-10T09:18:38.998Z</time></trkpt><trkpt lat="44.80600212556848" lon="7.869554859592272"><ele>350.0</ele><time>2026-04-10T09:18:39.998Z</time></trkpt><trkpt lat="44.80611553497255" lon="7.869491838310441"><ele>350.0</ele><time>2026-04-10T09:18:41.998Z</time></trkpt><trkpt lat="44.80617791839903" lon="7.869458003095085"><ele>348.6</ele><time>2026-04-10T09:18:42.998Z</time></trkpt><trkpt lat="44.806237577246435" lon="7.869416150518543"><ele>347.2</ele><time>2026-04-10T09:18:43.998Z</time></trkpt><trkpt lat="44.806299757753436" lon="7.869383604790986"><ele>345.79999999999995</ele><time>2026-04-10T09:18:44.998Z</time></trkpt><trkpt lat="44.806429231169766" lon="7.869358870753716"><ele>344.4</ele><time>2026-04-10T09:18:46.998Z</time></trkpt><trkpt lat="44.8065588256454" lon="7.869342148632863"><ele>343.0</ele><time>2026-04-10T09:18:48.998Z</time></trkpt><trkpt lat="44.80661997394035" lon="7.8693197506295816"><ele>343.0</ele><time>2026-04-10T09:18:49.998Z</time></trkpt><trkpt lat="44.80668534693587" lon="7.869288829414061"><ele>343.0</ele><time>2026-04-10T09:18:50.998Z</time></trkpt><trkpt lat="44.80675298542861" lon="7.869250763500036"><ele>343.0</ele><time>2026-04-10T09:18:51.998Z</time></trkpt><trkpt lat="44.80681935969953" lon="7.8692032301162484"><ele>343.0</ele><time>2026-04-10T09:18:52.998Z</time></trkpt><trkpt lat="44.80688478877894" lon="7.869152075348251"><ele>343.0</ele><time>2026-04-10T09:18:53.998Z</time></trkpt><trkpt lat="44.80694417621464" lon="7.869103702519042"><ele>343.0</ele><time>2026-04-10T09:18:54.998Z</time></trkpt><trkpt lat="44.80701250071781" lon="7.869059429363661"><ele>343.0</ele><time>2026-04-10T09:18:55.998Z</time></trkpt><trkpt lat="44.80707466954691" lon="7.869016914583523"><ele>343.3333333333333</ele><time>2026-04-10T09:18:56.998Z</time></trkpt><trkpt lat="44.80713525496603" lon="7.868980332985729"><ele>343.66666666666663</ele><time>2026-04-10T09:18:57.998Z</time></trkpt><trkpt lat="44.80721126487119" lon="7.8689341041846665"><ele>344.0</ele><time>2026-04-10T09:18:58.998Z</time></trkpt><trkpt lat="44.80728033334932" lon="7.868891805545478"><ele>344.3333333333333</ele><time>2026-04-10T09:18:59.998Z</time></trkpt><trkpt lat="44.80735212670557" lon="7.8688538764726"><ele>344.6666666666667</ele><time>2026-04-10T09:19:00.998Z</time></trkpt><trkpt lat="44.80742989802211" lon="7.868816379129223"><ele>345.0</ele><time>2026-04-10T09:19:01.998Z</time></trkpt><trkpt lat="44.80750555820178" lon="7.868776476419529"><ele>345.0</ele><time>2026-04-10T09:19:02.998Z</time></trkpt><trkpt lat="44.807582052176166" lon="7.868727734455529"><ele>345.0</ele><time>2026-04-10T09:19:04Z</time></trkpt><trkpt lat="44.80765296791129" lon="7.868677270100493"><ele>345.0</ele><time>2026-04-10T09:19:05Z</time></trkpt><trkpt lat="44.80772568753146" lon="7.868627419999702"><ele>345.0</ele><time>2026-04-10T09:19:06Z</time></trkpt><trkpt lat="44.80779771946038" lon="7.8685818106360355"><ele>345.0</ele><time>2026-04-10T09:19:07Z</time></trkpt><trkpt lat="44.80787136725882" lon="7.868534193423727"><ele>345.0</ele><time>2026-04-10T09:19:08Z</time></trkpt><trkpt lat="44.80794514769005" lon="7.868488182418496"><ele>345.1666666666667</ele><time>2026-04-10T09:19:09Z</time></trkpt><trkpt lat="44.80801751479829" lon="7.868443461927075"><ele>345.3333333333333</ele><time>2026-04-10T09:19:10Z</time></trkpt><trkpt lat="44.80808464623466" lon="7.868400025657697"><ele>345.5</ele><time>2026-04-10T09:19:11Z</time></trkpt><trkpt lat="44.808154551518626" lon="7.868349470485711"><ele>345.66666666666663</ele><time>2026-04-10T09:19:12Z</time></trkpt><trkpt lat="44.80822566777014" lon="7.868289944641678"><ele>345.8333333333333</ele><time>2026-04-10T09:19:13Z</time></trkpt><trkpt lat="44.808292049582874" lon="7.868223362391291"><ele>346.0</ele><time>2026-04-10T09:19:14Z</time></trkpt><trkpt lat="44.808351400928466" lon="7.8681442557008765"><ele>346.0</ele><time>2026-04-10T09:19:15Z</time></trkpt><trkpt lat="44.80840819832959" lon="7.868057313856356"><ele>346.0</ele><time>2026-04-10T09:19:16Z</time></trkpt><trkpt lat="44.808467450855396" lon="7.867968644099311"><ele>346.0</ele><time>2026-04-10T09:19:17Z</time></trkpt><trkpt lat="44.808522739025285" lon="7.867882395831718"><ele>346.0</ele><time>2026-04-10T09:19:18Z</time></trkpt><trkpt lat="44.8085806513555" lon="7.867797145474418"><ele>346.0</ele><time>2026-04-10T09:19:19Z</time></trkpt><trkpt lat="44.80863640242503" lon="7.867714892407013"><ele>346.0</ele><time>2026-04-10T09:19:20Z</time></trkpt><trkpt lat="44.80869054449054" lon="7.867633320123755"><ele>345.8333333333333</ele><time>2026-04-10T09:19:21Z</time></trkpt><trkpt lat="44.80874764825057" lon="7.867548271576429"><ele>345.66666666666663</ele><time>2026-04-10T09:19:22Z</time></trkpt><trkpt lat="44.808802715085655" lon="7.86746460158556"><ele>345.5</ele><time>2026-04-10T09:19:23Z</time></trkpt><trkpt lat="44.808864093240594" lon="7.867372284981881"><ele>345.3333333333333</ele><time>2026-04-10T09:19:24Z</time></trkpt><trkpt lat="44.8089172708844" lon="7.86728925901678"><ele>345.1666666666667</ele><time>2026-04-10T09:19:25Z</time></trkpt><trkpt lat="44.80897271690623" lon="7.8671998502241705"><ele>345.0</ele><time>2026-04-10T09:19:26Z</time></trkpt><trkpt lat="44.80903089553377" lon="7.867109171219088"><ele>345.0</ele><time>2026-04-10T09:19:27Z</time></trkpt><trkpt lat="44.80909131394286" lon="7.8670267248668715"><ele>345.0</ele><time>2026-04-10T09:19:28Z</time></trkpt><trkpt lat="44.80915938588527" lon="7.86694450695141"><ele>345.0</ele><time>2026-04-10T09:19:29Z</time></trkpt><trkpt lat="44.8092407114318" lon="7.866853298155009"><ele>345.0</ele><time>2026-04-10T09:19:30Z</time></trkpt><trkpt lat="44.809321150750065" lon="7.866759966346349"><ele>345.0</ele><time>2026-04-10T09:19:31Z</time></trkpt><trkpt lat="44.80940976663318" lon="7.866667704725652"><ele>344.0</ele><time>2026-04-10T09:19:32Z</time></trkpt><trkpt lat="44.809494185695605" lon="7.866585615045027"><ele>343.0</ele><time>2026-04-10T09:19:33Z</time></trkpt><trkpt lat="44.80958433204044" lon="7.866504287247209"><ele>342.0</ele><time>2026-04-10T09:19:34Z</time></trkpt><trkpt lat="44.80967421690484" lon="7.8664335749065195"><ele>341.0</ele><time>2026-04-10T09:19:35Z</time></trkpt><trkpt lat="44.80976362811669" lon="7.866366887801507"><ele>340.0</ele><time>2026-04-10T09:19:36Z</time></trkpt><trkpt lat="44.80984714100349" lon="7.866304991835914"><ele>340.0</ele><time>2026-04-10T09:19:37Z</time></trkpt><trkpt lat="44.80993538223886" lon="7.86623425233903"><ele>340.0</ele><time>2026-04-10T09:19:38Z</time></trkpt><trkpt lat="44.81002813379005" lon="7.866167815308539"><ele>340.0</ele><time>2026-04-10T09:19:39Z</time></trkpt><trkpt lat="44.810122074979425" lon="7.866097600524594"><ele>340.0</ele><time>2026-04-10T09:19:40Z</time></trkpt><trkpt lat="44.81021260014647" lon="7.866023405729533"><ele>340.0</ele><time>2026-04-10T09:19:41Z</time></trkpt><trkpt lat="44.81030279687226" lon="7.865954809927604"><ele>339.6</ele><time>2026-04-10T09:19:42Z</time></trkpt><trkpt lat="44.81039009985626" lon="7.865893548133763"><ele>339.2</ele><time>2026-04-10T09:19:43Z</time></trkpt><trkpt lat="44.810474137184634" lon="7.865826705177634"><ele>338.79999999999995</ele><time>2026-04-10T09:19:44Z</time></trkpt><trkpt lat="44.810556743147224" lon="7.865759859128095"><ele>338.4</ele><time>2026-04-10T09:19:45Z</time></trkpt><trkpt lat="44.81064003500826" lon="7.8656943244400255"><ele>338.0</ele><time>2026-04-10T09:19:46Z</time></trkpt><trkpt lat="44.8107221855788" lon="7.865630986068574"><ele>338.0</ele><time>2026-04-10T09:19:47Z</time></trkpt><trkpt lat="44.81080176771789" lon="7.865573998291214"><ele>338.0</ele><time>2026-04-10T09:19:48Z</time></trkpt><trkpt lat="44.81087843106037" lon="7.865517980391059"><ele>338.0</ele><time>2026-04-10T09:19:49Z</time></trkpt><trkpt lat="44.81095294912608" lon="7.865464843583274"><ele>338.0</ele><time>2026-04-10T09:19:50Z</time></trkpt><trkpt lat="44.81102306018676" lon="7.865419291605145"><ele>338.0</ele><time>2026-04-10T09:19:51Z</time></trkpt><trkpt lat="44.81108961703266" lon="7.865365660887485"><ele>338.0</ele><time>2026-04-10T09:19:52Z</time></trkpt><trkpt lat="44.8111506346179" lon="7.865306032550357"><ele>338.1666666666667</ele><time>2026-04-10T09:19:53Z</time></trkpt><trkpt lat="44.811210551687815" lon="7.865252986641415"><ele>338.33333333333337</ele><time>2026-04-10T09:19:54Z</time></trkpt><trkpt lat="44.81127312311062" lon="7.865201485838523"><ele>338.5</ele><time>2026-04-10T09:19:55Z</time></trkpt><trkpt lat="44.81133724915355" lon="7.865153878337682"><ele>338.6666666666667</ele><time>2026-04-10T09:19:56Z</time></trkpt><trkpt lat="44.811404790638726" lon="7.865106309648505"><ele>338.8333333333333</ele><time>2026-04-10T09:19:57Z</time></trkpt><trkpt lat="44.811474949961344" lon="7.865053169495183"><ele>339.0</ele><time>2026-04-10T09:19:58Z</time></trkpt><trkpt lat="44.81154528911165" lon="7.864985663979188"><ele>339.1666666666667</ele><time>2026-04-10T09:19:59Z</time></trkpt><trkpt lat="44.81161439761546" lon="7.864915160078576"><ele>339.3333333333333</ele><time>2026-04-10T09:20:00Z</time></trkpt><trkpt lat="44.81168015223525" lon="7.864846154982741"><ele>339.5</ele><time>2026-04-10T09:20:01Z</time></trkpt><trkpt lat="44.811758582390844" lon="7.8648078288752"><ele>339.66666666666663</ele><time>2026-04-10T09:20:02Z</time></trkpt><trkpt lat="44.81182170006396" lon="7.864734519647018"><ele>339.8333333333333</ele><time>2026-04-10T09:20:03Z</time></trkpt><trkpt lat="44.81189550895833" lon="7.864683508193457"><ele>340.0</ele><time>2026-04-10T09:20:04Z</time></trkpt><trkpt lat="44.81197289559395" lon="7.864647652893195"><ele>340.0</ele><time>2026-04-10T09:20:05Z</time></trkpt><trkpt lat="44.81204873494445" lon="7.864598075472797"><ele>340.0</ele><time>2026-04-10T09:20:06Z</time></trkpt><trkpt lat="44.81211838750998" lon="7.864540086802409"><ele>340.0</ele><time>2026-04-10T09:20:07Z</time></trkpt><trkpt lat="44.812185703504916" lon="7.864466384380641"><ele>340.0</ele><time>2026-04-10T09:20:08Z</time></trkpt><trkpt lat="44.81225717827588" lon="7.8644090972473455"><ele>340.0</ele><time>2026-04-10T09:20:09Z</time></trkpt><trkpt lat="44.81232846621877" lon="7.864351673478701"><ele>340.0</ele><time>2026-04-10T09:20:10Z</time></trkpt><trkpt lat="44.812403641358294" lon="7.864298022744817"><ele>339.8333333333333</ele><time>2026-04-10T09:20:11Z</time></trkpt><trkpt lat="44.812480076023945" lon="7.864242399709452"><ele>339.66666666666663</ele><time>2026-04-10T09:20:12Z</time></trkpt><trkpt lat="44.812553829635945" lon="7.864183709041399"><ele>339.5</ele><time>2026-04-10T09:20:13Z</time></trkpt><trkpt lat="44.81262644842061" lon="7.864122242342797"><ele>339.3333333333333</ele><time>2026-04-10T09:20:14Z</time></trkpt><trkpt lat="44.81270316764972" lon="7.86406633373713"><ele>339.1666666666667</ele><time>2026-04-10T09:20:15Z</time></trkpt><trkpt lat="44.81277831251722" lon="7.864007391762314"><ele>339.0</ele><time>2026-04-10T09:20:16Z</time></trkpt><trkpt lat="44.812855400527226" lon="7.863949439160769"><ele>339.0</ele><time>2026-04-10T09:20:17Z</time></trkpt><trkpt lat="44.81293076991355" lon="7.863886032403556"><ele>339.0</ele><time>2026-04-10T09:20:18Z</time></trkpt><trkpt lat="44.81300893549594" lon="7.863826186887435"><ele>339.0</ele><time>2026-04-10T09:20:19Z</time></trkpt><trkpt lat="44.813087788077006" lon="7.863763792129649"><ele>339.0</ele><time>2026-04-10T09:20:20Z</time></trkpt><trkpt lat="44.81316706675356" lon="7.863699981214937"><ele>339.0</ele><time>2026-04-10T09:20:21Z</time></trkpt><trkpt lat="44.81324571973889" lon="7.863635945805946"><ele>339.0</ele><time>2026-04-10T09:20:22Z</time></trkpt><trkpt lat="44.81332457939066" lon="7.863571931506023"><ele>339.0</ele><time>2026-04-10T09:20:23Z</time></trkpt><trkpt lat="44.813405063095296" lon="7.86350828053875"><ele>339.0</ele><time>2026-04-10T09:20:24Z</time></trkpt><trkpt lat="44.813489905457196" lon="7.863444464440925"><ele>339.0</ele><time>2026-04-10T09:20:25Z</time></trkpt><trkpt lat="44.81357885405037" lon="7.863382410027279"><ele>339.0</ele><time>2026-04-10T09:20:26Z</time></trkpt><trkpt lat="44.81366104521869" lon="7.863311832441564"><ele>339.0</ele><time>2026-04-10T09:20:27Z</time></trkpt><trkpt lat="44.81374886797037" lon="7.863243988003424"><ele>337.6</ele><time>2026-04-10T09:20:28Z</time></trkpt><trkpt lat="44.81384109891858" lon="7.863170764072367"><ele>336.2</ele><time>2026-04-10T09:20:29Z</time></trkpt><trkpt lat="44.81392917514482" lon="7.863092497725542"><ele>334.8</ele><time>2026-04-10T09:20:30Z</time></trkpt><trkpt lat="44.81400570012292" lon="7.863007572243651"><ele>333.40000000000003</ele><time>2026-04-10T09:20:31Z</time></trkpt><trkpt lat="44.814059284275544" lon="7.862933122971221"><ele>332.0</ele><time>2026-04-10T09:20:32Z</time></trkpt><trkpt lat="44.81407554110708" lon="7.862794691456271"><ele>332.0</ele><time>2026-04-10T09:20:34Z</time></trkpt><trkpt lat="44.8139926520069" lon="7.862674748942356"><ele>332.0</ele><time>2026-04-10T09:20:36Z</time></trkpt><trkpt lat="44.81393951971413" lon="7.862618336595505"><ele>332.0</ele><time>2026-04-10T09:20:37Z</time></trkpt><trkpt lat="44.813809726836624" lon="7.862657824740541"><ele>332.0</ele><time>2026-04-10T09:20:38Z</time></trkpt><trkpt lat="44.8137700826244" lon="7.862587106019118"><ele>332.0</ele><time>2026-04-10T09:20:39Z</time></trkpt><trkpt lat="44.81373289795868" lon="7.8625153249814925"><ele>332.0</ele><time>2026-04-10T09:20:40Z</time></trkpt><trkpt lat="44.81369271010096" lon="7.86243774662534"><ele>332.1428571428571</ele><time>2026-04-10T09:20:41Z</time></trkpt><trkpt lat="44.81364991777273" lon="7.862355140619627"><ele>332.28571428571433</ele><time>2026-04-10T09:20:42Z</time></trkpt><trkpt lat="44.81360834972192" lon="7.862278623441317"><ele>332.42857142857144</ele><time>2026-04-10T09:20:43Z</time></trkpt><trkpt lat="44.813569380637894" lon="7.862185805704995"><ele>332.57142857142856</ele><time>2026-04-10T09:20:44Z</time></trkpt><trkpt lat="44.813515866766636" lon="7.862118605325812"><ele>332.71428571428567</ele><time>2026-04-10T09:20:45Z</time></trkpt><trkpt lat="44.813464241922055" lon="7.862054843909949"><ele>332.8571428571429</ele><time>2026-04-10T09:20:46Z</time></trkpt><trkpt lat="44.81341576103115" lon="7.861975105081916"><ele>333.0</ele><time>2026-04-10T09:20:47Z</time></trkpt><trkpt lat="44.81337037142269" lon="7.861898985395364"><ele>333.0</ele><time>2026-04-10T09:20:48Z</time></trkpt><trkpt lat="44.81333343086104" lon="7.861809630065614"><ele>333.0</ele><time>2026-04-10T09:20:49Z</time></trkpt><trkpt lat="44.81328251238549" lon="7.861732910427381"><ele>333.0</ele><time>2026-04-10T09:20:50Z</time></trkpt><trkpt lat="44.813251756121176" lon="7.86163940358935"><ele>333.0</ele><time>2026-04-10T09:20:51Z</time></trkpt><trkpt lat="44.81322117394692" lon="7.861545520335351"><ele>333.0</ele><time>2026-04-10T09:20:52Z</time></trkpt><trkpt lat="44.81318725333603" lon="7.861458622974753"><ele>333.0</ele><time>2026-04-10T09:20:53Z</time></trkpt><trkpt lat="44.813157511430624" lon="7.861372860162542"><ele>333.0</ele><time>2026-04-10T09:20:54Z</time></trkpt><trkpt lat="44.81312660375975" lon="7.861286864831406"><ele>332.8333333333333</ele><time>2026-04-10T09:20:55Z</time></trkpt><trkpt lat="44.81307648324365" lon="7.861127767837973"><ele>332.6666666666667</ele><time>2026-04-10T09:20:57Z</time></trkpt><trkpt lat="44.81304832217917" lon="7.86104784821394"><ele>332.5</ele><time>2026-04-10T09:20:58Z</time></trkpt><trkpt lat="44.81302116112371" lon="7.860965402749622"><ele>332.33333333333337</ele><time>2026-04-10T09:20:59Z</time></trkpt><trkpt lat="44.8129898443112" lon="7.860885541029502"><ele>332.1666666666667</ele><time>2026-04-10T09:21:00Z</time></trkpt><trkpt lat="44.812957097921675" lon="7.860807697950003"><ele>332.0</ele><time>2026-04-10T09:21:01Z</time></trkpt><trkpt lat="44.812907586292646" lon="7.860658144121726"><ele>332.0</ele><time>2026-04-10T09:21:03Z</time></trkpt><trkpt lat="44.81285044008607" lon="7.860516853599064"><ele>332.0</ele><time>2026-04-10T09:21:05Z</time></trkpt><trkpt lat="44.812796552415506" lon="7.860390128381162"><ele>332.0</ele><time>2026-04-10T09:21:07Z</time></trkpt><trkpt lat="44.81273117909317" lon="7.8602910951174225"><ele>332.0</ele><time>2026-04-10T09:21:09Z</time></trkpt><trkpt lat="44.81268033625707" lon="7.860190369551611"><ele>332.0</ele><time>2026-04-10T09:21:11Z</time></trkpt><trkpt lat="44.812676540078755" lon="7.8600472635217145"><ele>332.0</ele><time>2026-04-10T09:21:13Z</time></trkpt><trkpt lat="44.812653714640604" lon="7.8599286483216275"><ele>332.0</ele><time>2026-04-10T09:21:15Z</time></trkpt><trkpt lat="44.812639264066235" lon="7.859805935148665"><ele>332.0</ele><time>2026-04-10T09:21:17Z</time></trkpt><trkpt lat="44.812645715798986" lon="7.859674832713436"><ele>332.0</ele><time>2026-04-10T09:21:19Z</time></trkpt><trkpt lat="44.812663339252" lon="7.859532001561658"><ele>332.0</ele><time>2026-04-10T09:21:21Z</time></trkpt><trkpt lat="44.81266919998894" lon="7.85938434041821"><ele>331.83333333333337</ele><time>2026-04-10T09:21:23Z</time></trkpt><trkpt lat="44.81269017965909" lon="7.859241864898446"><ele>331.6666666666667</ele><time>2026-04-10T09:21:25Z</time></trkpt><trkpt lat="44.812694861114885" lon="7.859148128463358"><ele>331.5</ele><time>2026-04-10T09:21:26Z</time></trkpt><trkpt lat="44.81268856246479" lon="7.859049504268546"><ele>331.3333333333333</ele><time>2026-04-10T09:21:27Z</time></trkpt><trkpt lat="44.81268832638173" lon="7.858954889897742"><ele>331.16666666666663</ele><time>2026-04-10T09:21:28Z</time></trkpt><trkpt lat="44.81269205584284" lon="7.8588648204079865"><ele>331.0</ele><time>2026-04-10T09:21:29Z</time></trkpt><trkpt lat="44.81269284341985" lon="7.858695840443251"><ele>331.0</ele><time>2026-04-10T09:21:31Z</time></trkpt><trkpt lat="44.812684309534376" lon="7.858595589001708"><ele>331.0</ele><time>2026-04-10T09:21:32Z</time></trkpt><trkpt lat="44.812676890914794" lon="7.85850452221132"><ele>331.0</ele><time>2026-04-10T09:21:33Z</time></trkpt><trkpt lat="44.812663418185245" lon="7.858395653364596"><ele>331.0</ele><time>2026-04-10T09:21:34Z</time></trkpt><trkpt lat="44.812655603469" lon="7.858303692752701"><ele>331.0</ele><time>2026-04-10T09:21:35Z</time></trkpt><trkpt lat="44.812646812606" lon="7.85813489750502"><ele>331.0</ele><time>2026-04-10T09:21:37Z</time></trkpt><trkpt lat="44.81262901244018" lon="7.85799046857556"><ele>331.0</ele><time>2026-04-10T09:21:39Z</time></trkpt><trkpt lat="44.812614031331236" lon="7.857900391498421"><ele>331.0</ele><time>2026-04-10T09:21:40Z</time></trkpt><trkpt lat="44.81259724522958" lon="7.857744843271175"><ele>331.0</ele><time>2026-04-10T09:21:42Z</time></trkpt><trkpt lat="44.81257941347592" lon="7.857638093253786"><ele>331.0</ele><time>2026-04-10T09:21:43Z</time></trkpt><trkpt lat="44.8125848599376" lon="7.857490374176217"><ele>331.0</ele><time>2026-04-10T09:21:45Z</time></trkpt><trkpt lat="44.81263238689763" lon="7.857364661416203"><ele>331.0</ele><time>2026-04-10T09:21:47Z</time></trkpt><trkpt lat="44.81267623041386" lon="7.857230307368113"><ele>331.0</ele><time>2026-04-10T09:21:49Z</time></trkpt><trkpt lat="44.812718917518396" lon="7.857062715274707"><ele>331.0</ele><time>2026-04-10T09:21:51Z</time></trkpt><trkpt lat="44.8127443768516" lon="7.856971889050794"><ele>331.0</ele><time>2026-04-10T09:21:52Z</time></trkpt><trkpt lat="44.81279754782076" lon="7.856802548036161"><ele>331.0</ele><time>2026-04-10T09:21:54Z</time></trkpt><trkpt lat="44.81282602898087" lon="7.856719506202809"><ele>331.4</ele><time>2026-04-10T09:21:55Z</time></trkpt><trkpt lat="44.81286570871769" lon="7.8566273804575495"><ele>331.8</ele><time>2026-04-10T09:21:56Z</time></trkpt><trkpt lat="44.81289538771425" lon="7.856541273545659"><ele>332.2</ele><time>2026-04-10T09:21:57Z</time></trkpt><trkpt lat="44.81296898965255" lon="7.856420451273806"><ele>332.59999999999997</ele><time>2026-04-10T09:21:59Z</time></trkpt><trkpt lat="44.81304700655052" lon="7.856276961184753"><ele>333.0</ele><time>2026-04-10T09:22:01Z</time></trkpt><trkpt lat="44.81309732742518" lon="7.856196988054957"><ele>333.0</ele><time>2026-04-10T09:22:02Z</time></trkpt><trkpt lat="44.81314894790827" lon="7.856126204443461"><ele>333.0</ele><time>2026-04-10T09:22:03Z</time></trkpt><trkpt lat="44.813204443103224" lon="7.856076789164523"><ele>333.0</ele><time>2026-04-10T09:22:04Z</time></trkpt><trkpt lat="44.81325658817843" lon="7.856015238815609"><ele>333.0</ele><time>2026-04-10T09:22:05Z</time></trkpt><trkpt lat="44.81330392605761" lon="7.855948357249358"><ele>333.0</ele><time>2026-04-10T09:22:06Z</time></trkpt><trkpt lat="44.813382367929336" lon="7.855811086895349"><ele>333.0</ele><time>2026-04-10T09:22:08Z</time></trkpt><trkpt lat="44.813413541780804" lon="7.855731681643767"><ele>333.2</ele><time>2026-04-10T09:22:09Z</time></trkpt><trkpt lat="44.813462605478634" lon="7.855598518471669"><ele>333.4</ele><time>2026-04-10T09:22:11Z</time></trkpt><trkpt lat="44.81351976835685" lon="7.855448375153264"><ele>333.59999999999997</ele><time>2026-04-10T09:22:13Z</time></trkpt><trkpt lat="44.81354948329846" lon="7.855368656925171"><ele>333.79999999999995</ele><time>2026-04-10T09:22:14Z</time></trkpt><trkpt lat="44.813603297236824" lon="7.855222255240543"><ele>334.0</ele><time>2026-04-10T09:22:16Z</time></trkpt><trkpt lat="44.81365347708989" lon="7.855096797136998"><ele>334.25</ele><time>2026-04-10T09:22:18Z</time></trkpt><trkpt lat="44.81371842118263" lon="7.854962869524011"><ele>334.5</ele><time>2026-04-10T09:22:20Z</time></trkpt><trkpt lat="44.81377669590847" lon="7.8548156400105595"><ele>334.75</ele><time>2026-04-10T09:22:22Z</time></trkpt><trkpt lat="44.81383842896095" lon="7.854677081579486"><ele>335.0</ele><time>2026-04-10T09:22:24Z</time></trkpt><trkpt lat="44.813905504373515" lon="7.854554714701799"><ele>335.0</ele><time>2026-04-10T09:22:26Z</time></trkpt><trkpt lat="44.81399819595845" lon="7.85445721486482"><ele>335.0</ele><time>2026-04-10T09:22:28Z</time></trkpt><trkpt lat="44.81410538582503" lon="7.854465445988356"><ele>335.0</ele><time>2026-04-10T09:22:30Z</time></trkpt><trkpt lat="44.81419225760234" lon="7.854441741000121"><ele>335.0</ele><time>2026-04-10T09:22:32Z</time></trkpt><trkpt lat="44.8142649731277" lon="7.854401107432955"><ele>335.0</ele><time>2026-04-10T09:22:34Z</time></trkpt><trkpt lat="44.81434092344504" lon="7.85437061416122"><ele>334.8</ele><time>2026-04-10T09:22:36Z</time></trkpt><trkpt lat="44.81443548423213" lon="7.854349175672288"><ele>334.6</ele><time>2026-04-10T09:22:38Z</time></trkpt><trkpt lat="44.814536588720664" lon="7.854322528354124"><ele>334.4</ele><time>2026-04-10T09:22:40Z</time></trkpt><trkpt lat="44.81464096905181" lon="7.8542239539247305"><ele>334.2</ele><time>2026-04-10T09:22:42Z</time></trkpt><trkpt lat="44.81470670947981" lon="7.854148018431991"><ele>334.0</ele><time>2026-04-10T09:22:43Z</time></trkpt><trkpt lat="44.81477552240727" lon="7.854073353433576"><ele>333.16666666666663</ele><time>2026-04-10T09:22:44Z</time></trkpt><trkpt lat="44.814830949546234" lon="7.853993774259888"><ele>332.3333333333333</ele><time>2026-04-10T09:22:45Z</time></trkpt><trkpt lat="44.81487964950144" lon="7.853912674545047"><ele>331.5</ele><time>2026-04-10T09:22:46Z</time></trkpt><trkpt lat="44.81492575944538" lon="7.853845055054562"><ele>330.6666666666667</ele><time>2026-04-10T09:22:47Z</time></trkpt><trkpt lat="44.815002602864126" lon="7.853727907404955"><ele>329.83333333333337</ele><time>2026-04-10T09:22:49Z</time></trkpt><trkpt lat="44.81507493748335" lon="7.853628690726752"><ele>329.0</ele><time>2026-04-10T09:22:50.999Z</time></trkpt><trkpt lat="44.81516884810957" lon="7.853497146842401"><ele>327.4</ele><time>2026-04-10T09:22:52.999Z</time></trkpt><trkpt lat="44.81521500931229" lon="7.85342977732155"><ele>325.79999999999995</ele><time>2026-04-10T09:22:53.999Z</time></trkpt><trkpt lat="44.81530409429198" lon="7.853295794383924"><ele>324.20000000000005</ele><time>2026-04-10T09:22:55.999Z</time></trkpt><trkpt lat="44.815348498548516" lon="7.853228426253786"><ele>322.6</ele><time>2026-04-10T09:22:56.999Z</time></trkpt><trkpt lat="44.81542048628264" lon="7.8530967907109686"><ele>321.0</ele><time>2026-04-10T09:22:58.999Z</time></trkpt><trkpt lat="44.81549673561113" lon="7.852980170727006"><ele>321.0</ele><time>2026-04-10T09:23:00.999Z</time></trkpt><trkpt lat="44.81556938133951" lon="7.852866434939095"><ele>321.0</ele><time>2026-04-10T09:23:02.999Z</time></trkpt><trkpt lat="44.81563275419692" lon="7.852764711170849"><ele>321.0</ele><time>2026-04-10T09:23:04.999Z</time></trkpt><trkpt lat="44.815686069781805" lon="7.852674078322452"><ele>321.0</ele><time>2026-04-10T09:23:06.999Z</time></trkpt><trkpt lat="44.81576747856059" lon="7.852605662016342"><ele>321.0</ele><time>2026-04-10T09:23:08.999Z</time></trkpt><trkpt lat="44.815845415921764" lon="7.852671615885942"><ele>321.0</ele><time>2026-04-10T09:23:10.999Z</time></trkpt><trkpt lat="44.81592187512815" lon="7.852756549737223"><ele>321.0</ele><time>2026-04-10T09:23:12.999Z</time></trkpt><trkpt lat="44.81600986190362" lon="7.85285809039091"><ele>321.0</ele><time>2026-04-10T09:23:14.999Z</time></trkpt><trkpt lat="44.81610870526314" lon="7.852946604918397"><ele>321.0</ele><time>2026-04-10T09:23:16.999Z</time></trkpt><trkpt lat="44.816206431520854" lon="7.853037861144602"><ele>321.0</ele><time>2026-04-10T09:23:18.999Z</time></trkpt><trkpt lat="44.816267586679096" lon="7.853075868562734"><ele>320.40000000000003</ele><time>2026-04-10T09:23:19.999Z</time></trkpt><trkpt lat="44.816379287188525" lon="7.853136780787497"><ele>319.8</ele><time>2026-04-10T09:23:21.999Z</time></trkpt><trkpt lat="44.81646967157732" lon="7.8531494737286485"><ele>319.20000000000005</ele><time>2026-04-10T09:23:23.999Z</time></trkpt><trkpt lat="44.816508883011636" lon="7.853028697858625"><ele>318.6</ele><time>2026-04-10T09:23:26.999Z</time></trkpt><trkpt lat="44.81653126040111" lon="7.8529255986344175"><ele>318.0</ele><time>2026-04-10T09:23:28.999Z</time></trkpt><trkpt lat="44.816563110949886" lon="7.8528081428400585"><ele>318.0</ele><time>2026-04-10T09:23:30.999Z</time></trkpt><trkpt lat="44.81659755565763" lon="7.852693363281131"><ele>318.0</ele><time>2026-04-10T09:23:32.999Z</time></trkpt><trkpt lat="44.81664436296198" lon="7.852576912216283"><ele>318.0</ele><time>2026-04-10T09:23:34.999Z</time></trkpt><trkpt lat="44.816691858555764" lon="7.852447747708578"><ele>318.0</ele><time>2026-04-10T09:23:36.999Z</time></trkpt><trkpt lat="44.816723435779984" lon="7.852325371891391"><ele>318.0</ele><time>2026-04-10T09:23:38.999Z</time></trkpt><trkpt lat="44.81673885476968" lon="7.85218857470318"><ele>317.8</ele><time>2026-04-10T09:23:40.999Z</time></trkpt><trkpt lat="44.816771347213574" lon="7.852085019635473"><ele>317.6</ele><time>2026-04-10T09:23:42.999Z</time></trkpt><trkpt lat="44.81678703325476" lon="7.8519577944433845"><ele>317.4</ele><time>2026-04-10T09:23:44.999Z</time></trkpt><trkpt lat="44.81682529978131" lon="7.8518106906557"><ele>317.2</ele><time>2026-04-10T09:23:46.999Z</time></trkpt><trkpt lat="44.81686425139174" lon="7.851676728086082"><ele>317.0</ele><time>2026-04-10T09:23:48.999Z</time></trkpt><trkpt lat="44.81689757676819" lon="7.851527285628767"><ele>315.75</ele><time>2026-04-10T09:23:50.999Z</time></trkpt><trkpt lat="44.8169408259052" lon="7.851370032847743"><ele>314.5</ele><time>2026-04-10T09:23:52.999Z</time></trkpt><trkpt lat="44.81698895791637" lon="7.851215106353666"><ele>313.25</ele><time>2026-04-10T09:23:54.999Z</time></trkpt><trkpt lat="44.817028426322416" lon="7.851075272015091"><ele>312.0</ele><time>2026-04-10T09:23:56.999Z</time></trkpt><trkpt lat="44.817075078627305" lon="7.850926046729939"><ele>311.6666666666667</ele><time>2026-04-10T09:23:58.999Z</time></trkpt><trkpt lat="44.81711328676683" lon="7.850850106211549"><ele>311.3333333333333</ele><time>2026-04-10T09:23:59.999Z</time></trkpt><trkpt lat="44.817163777085106" lon="7.8507935644597255"><ele>311.0</ele><time>2026-04-10T09:24:00.999Z</time></trkpt><trkpt lat="44.817214515650356" lon="7.850738103460599"><ele>310.66666666666663</ele><time>2026-04-10T09:24:01.999Z</time></trkpt><trkpt lat="44.817301464233196" lon="7.8506365020150595"><ele>310.3333333333333</ele><time>2026-04-10T09:24:03.999Z</time></trkpt><trkpt lat="44.81739533162552" lon="7.8504943059547045"><ele>310.0</ele><time>2026-04-10T09:24:05.999Z</time></trkpt><trkpt lat="44.81743428102151" lon="7.850403308512219"><ele>310.0</ele><time>2026-04-10T09:24:06.999Z</time></trkpt><trkpt lat="44.8174778280181" lon="7.850332585869808"><ele>310.0</ele><time>2026-04-10T09:24:07.999Z</time></trkpt><trkpt lat="44.81756958925187" lon="7.850222226858171"><ele>310.0</ele><time>2026-04-10T09:24:09.999Z</time></trkpt><trkpt lat="44.817625560608775" lon="7.850173367103244"><ele>310.0</ele><time>2026-04-10T09:24:10.999Z</time></trkpt><trkpt lat="44.817684810505675" lon="7.850135184374442"><ele>310.0</ele><time>2026-04-10T09:24:11.999Z</time></trkpt><trkpt lat="44.817754867141076" lon="7.850134768742816"><ele>310.0</ele><time>2026-04-10T09:24:12.999Z</time></trkpt><trkpt lat="44.81782323209689" lon="7.850138327876809"><ele>309.7142857142857</ele><time>2026-04-10T09:24:13.999Z</time></trkpt><trkpt lat="44.8178882166295" lon="7.850136394684111"><ele>309.42857142857144</ele><time>2026-04-10T09:24:14.999Z</time></trkpt><trkpt lat="44.817951460307206" lon="7.850134635413082"><ele>309.1428571428571</ele><time>2026-04-10T09:24:15.999Z</time></trkpt><trkpt lat="44.81802110180712" lon="7.850126406269328"><ele>308.8571428571429</ele><time>2026-04-10T09:24:16.999Z</time></trkpt><trkpt lat="44.81808970035503" lon="7.850098566559292"><ele>308.57142857142856</ele><time>2026-04-10T09:24:17.999Z</time></trkpt><trkpt lat="44.818147586988154" lon="7.850044999017422"><ele>308.2857142857143</ele><time>2026-04-10T09:24:18.999Z</time></trkpt><trkpt lat="44.81820801673688" lon="7.849959293765751"><ele>308.0</ele><time>2026-04-10T09:24:19.999Z</time></trkpt><trkpt lat="44.818264235000754" lon="7.8498873410138605"><ele>308.0</ele><time>2026-04-10T09:24:20.999Z</time></trkpt><trkpt lat="44.81831660914014" lon="7.849806889997451"><ele>308.0</ele><time>2026-04-10T09:24:21.999Z</time></trkpt><trkpt lat="44.8183622138809" lon="7.849729940291265"><ele>308.0</ele><time>2026-04-10T09:24:22.999Z</time></trkpt><trkpt lat="44.818403852977596" lon="7.849654144624835"><ele>308.0</ele><time>2026-04-10T09:24:23.999Z</time></trkpt><trkpt lat="44.81849477017985" lon="7.84953323424481"><ele>308.0</ele><time>2026-04-10T09:24:25.999Z</time></trkpt><trkpt lat="44.818545891833914" lon="7.849463356809206"><ele>308.0</ele><time>2026-04-10T09:24:26.999Z</time></trkpt><trkpt lat="44.818635455770064" lon="7.849329967881573"><ele>307.0</ele><time>2026-04-10T09:24:28.999Z</time></trkpt><trkpt lat="44.81868383591815" lon="7.849258164441186"><ele>306.0</ele><time>2026-04-10T09:24:29.999Z</time></trkpt><trkpt lat="44.81872620416378" lon="7.849186115463513"><ele>305.0</ele><time>2026-04-10T09:24:30.999Z</time></trkpt><trkpt lat="44.818777176419474" lon="7.849079151204549"><ele>304.0</ele><time>2026-04-10T09:24:32.999Z</time></trkpt><trkpt lat="44.81877202786123" lon="7.848941420113917"><ele>303.0</ele><time>2026-04-10T09:24:34.999Z</time></trkpt><trkpt lat="44.81871991522458" lon="7.848825689275426"><ele>302.0</ele><time>2026-04-10T09:24:36.998Z</time></trkpt><trkpt lat="44.81866791317488" lon="7.848666677081973"><ele>302.0</ele><time>2026-04-10T09:24:38.998Z</time></trkpt><trkpt lat="44.818635501733525" lon="7.848530689396218"><ele>302.0</ele><time>2026-04-10T09:24:40.998Z</time></trkpt><trkpt lat="44.81860752823099" lon="7.8484500301400075"><ele>302.0</ele><time>2026-04-10T09:24:41.998Z</time></trkpt><trkpt lat="44.818560136692895" lon="7.848308176193355"><ele>302.0</ele><time>2026-04-10T09:24:43.998Z</time></trkpt><trkpt lat="44.81851564227634" lon="7.848175373511668"><ele>302.0</ele><time>2026-04-10T09:24:45.998Z</time></trkpt><trkpt lat="44.818444835242865" lon="7.848061208034858"><ele>303.0</ele><time>2026-04-10T09:24:47.998Z</time></trkpt><trkpt lat="44.81833705505579" lon="7.8480005110548"><ele>304.0</ele><time>2026-04-10T09:24:49.998Z</time></trkpt><trkpt lat="44.81823168674366" lon="7.847989688670343"><ele>305.0</ele><time>2026-04-10T09:24:51.998Z</time></trkpt><trkpt lat="44.81816110505631" lon="7.847980781051894"><ele>306.0</ele><time>2026-04-10T09:24:52.998Z</time></trkpt><trkpt lat="44.81807314611743" lon="7.847977171089355"><ele>307.0</ele><time>2026-04-10T09:24:53.998Z</time></trkpt><trkpt lat="44.81797942008069" lon="7.84796934220821"><ele>307.0</ele><time>2026-04-10T09:24:54.998Z</time></trkpt><trkpt lat="44.81788620676698" lon="7.8479622252725365"><ele>307.0</ele><time>2026-04-10T09:24:55.998Z</time></trkpt><trkpt lat="44.81779210762096" lon="7.8479463749528335"><ele>307.0</ele><time>2026-04-10T09:24:56.998Z</time></trkpt><trkpt lat="44.81771682204602" lon="7.847916931799305"><ele>307.0</ele><time>2026-04-10T09:24:57.998Z</time></trkpt><trkpt lat="44.81761043765174" lon="7.847864142397779"><ele>307.0</ele><time>2026-04-10T09:24:59.998Z</time></trkpt><trkpt lat="44.81750930277394" lon="7.847745214100383"><ele>307.2857142857143</ele><time>2026-04-10T09:25:01.998Z</time></trkpt><trkpt lat="44.817471317348286" lon="7.847668393054377"><ele>307.57142857142856</ele><time>2026-04-10T09:25:02.998Z</time></trkpt><trkpt lat="44.81743416698125" lon="7.847571735007294"><ele>307.8571428571429</ele><time>2026-04-10T09:25:03.998Z</time></trkpt><trkpt lat="44.817405279219386" lon="7.847484407007935"><ele>308.1428571428571</ele><time>2026-04-10T09:25:04.998Z</time></trkpt><trkpt lat="44.817346165312166" lon="7.847400545706779"><ele>308.42857142857144</ele><time>2026-04-10T09:25:05.998Z</time></trkpt><trkpt lat="44.81728855629246" lon="7.8473426927865155"><ele>308.7142857142857</ele><time>2026-04-10T09:25:06.998Z</time></trkpt><trkpt lat="44.817233156072696" lon="7.8472982162116764"><ele>309.0</ele><time>2026-04-10T09:25:07.998Z</time></trkpt><trkpt lat="44.81713654740585" lon="7.847233074564423"><ele>308.1666666666667</ele><time>2026-04-10T09:25:09.998Z</time></trkpt><trkpt lat="44.81707012699828" lon="7.847184271399777"><ele>307.3333333333333</ele><time>2026-04-10T09:25:11.998Z</time></trkpt><trkpt lat="44.81699450592413" lon="7.847177332628011"><ele>306.5</ele><time>2026-04-10T09:25:16.998Z</time></trkpt><trkpt lat="44.81690671949624" lon="7.847179274550218"><ele>305.66666666666663</ele><time>2026-04-10T09:25:19.998Z</time></trkpt><trkpt lat="44.81681443207293" lon="7.847175291771363"><ele>304.8333333333333</ele><time>2026-04-10T09:25:22.998Z</time></trkpt><trkpt lat="44.81671736281572" lon="7.84712809784573"><ele>304.0</ele><time>2026-04-10T09:25:25.998Z</time></trkpt><trkpt lat="44.81665822594335" lon="7.847092898675305"><ele>303.5</ele><time>2026-04-10T09:25:27.998Z</time></trkpt><trkpt lat="44.81658580611696" lon="7.847028728560976"><ele>303.0</ele><time>2026-04-10T09:25:29.998Z</time></trkpt><trkpt lat="44.81651925782764" lon="7.84698667279704"><ele>302.5</ele><time>2026-04-10T09:25:32.998Z</time></trkpt><trkpt lat="44.81644606970513" lon="7.846922605106536"><ele>302.0</ele><time>2026-04-10T09:25:35.998Z</time></trkpt><trkpt lat="44.8163852659228" lon="7.84685740081002"><ele>301.5</ele><time>2026-04-10T09:25:37.998Z</time></trkpt><trkpt lat="44.816322460611396" lon="7.846817883560996"><ele>301.0</ele><time>2026-04-10T09:25:39.998Z</time></trkpt><trkpt lat="44.81626724553225" lon="7.846771265525455"><ele>301.0</ele><time>2026-04-10T09:25:41.998Z</time></trkpt><trkpt lat="44.8161976967261" lon="7.846698248322585"><ele>301.0</ele><time>2026-04-10T09:25:44.998Z</time></trkpt><trkpt lat="44.81614523180012" lon="7.846625031340856"><ele>301.0</ele><time>2026-04-10T09:25:47.998Z</time></trkpt><trkpt lat="44.816101366221346" lon="7.846540609200192"><ele>301.0</ele><time>2026-04-10T09:25:50.998Z</time></trkpt><trkpt lat="44.8160694932155" lon="7.846462798556504"><ele>301.0</ele><time>2026-04-10T09:25:52.998Z</time></trkpt><trkpt lat="44.81601754222143" lon="7.846367508614963"><ele>301.0</ele><time>2026-04-10T09:25:55.998Z</time></trkpt><trkpt lat="44.815963581089996" lon="7.846279752196472"><ele>300.8333333333333</ele><time>2026-04-10T09:25:58.998Z</time></trkpt><trkpt lat="44.81590294864651" lon="7.846199500995217"><ele>300.66666666666663</ele><time>2026-04-10T09:26:01.998Z</time></trkpt><trkpt lat="44.815852231243134" lon="7.8461047045410295"><ele>300.5</ele><time>2026-04-10T09:26:04.998Z</time></trkpt><trkpt lat="44.81581934042255" lon="7.846028464243247"><ele>300.3333333333333</ele><time>2026-04-10T09:26:06.998Z</time></trkpt><trkpt lat="44.81577473753775" lon="7.845954722929693"><ele>300.1666666666667</ele><time>2026-04-10T09:26:08.998Z</time></trkpt><trkpt lat="44.815714594436834" lon="7.845891250642512"><ele>300.0</ele><time>2026-04-10T09:26:11Z</time></trkpt><trkpt lat="44.81565721687298" lon="7.8458073272374795"><ele>299.8333333333333</ele><time>2026-04-10T09:26:13Z</time></trkpt><trkpt lat="44.81561254319183" lon="7.845728655020735"><ele>299.6666666666667</ele><time>2026-04-10T09:26:15Z</time></trkpt><trkpt lat="44.81555097208628" lon="7.845641378638062"><ele>299.5</ele><time>2026-04-10T09:26:17Z</time></trkpt><trkpt lat="44.815492408881305" lon="7.8455657752203285"><ele>299.33333333333337</ele><time>2026-04-10T09:26:19Z</time></trkpt><trkpt lat="44.815440176650526" lon="7.845477266369512"><ele>299.1666666666667</ele><time>2026-04-10T09:26:21Z</time></trkpt><trkpt lat="44.81547296692556" lon="7.845376120670854"><ele>299.0</ele><time>2026-04-10T09:26:24Z</time></trkpt><trkpt lat="44.815536839754444" lon="7.845301831309433"><ele>299.0</ele><time>2026-04-10T09:26:26Z</time></trkpt><trkpt lat="44.81560512239428" lon="7.845220467635488"><ele>299.0</ele><time>2026-04-10T09:26:28Z</time></trkpt><trkpt lat="44.81567964689312" lon="7.845138202299781"><ele>299.0</ele><time>2026-04-10T09:26:30Z</time></trkpt><trkpt lat="44.8157645866922" lon="7.845043629730569"><ele>299.0</ele><time>2026-04-10T09:26:32Z</time></trkpt><trkpt lat="44.81583948630295" lon="7.844944325159397"><ele>299.0</ele><time>2026-04-10T09:26:34Z</time></trkpt><trkpt lat="44.8159189097813" lon="7.844847506956471"><ele>298.4</ele><time>2026-04-10T09:26:36Z</time></trkpt><trkpt lat="44.816024407450314" lon="7.844753521434158"><ele>297.79999999999995</ele><time>2026-04-10T09:26:38Z</time></trkpt><trkpt lat="44.81609035353386" lon="7.844703345207976"><ele>297.20000000000005</ele><time>2026-04-10T09:26:39Z</time></trkpt><trkpt lat="44.81618887397039" lon="7.844619046588651"><ele>296.6</ele><time>2026-04-10T09:26:41Z</time></trkpt><trkpt lat="44.81628221355184" lon="7.844540746002772"><ele>296.0</ele><time>2026-04-10T09:26:43Z</time></trkpt><trkpt lat="44.81635628348151" lon="7.8444601267770695"><ele>296.0</ele><time>2026-04-10T09:26:45Z</time></trkpt><trkpt lat="44.816420110499045" lon="7.844407171574114"><ele>296.0</ele><time>2026-04-10T09:26:47Z</time></trkpt><trkpt lat="44.81648730502986" lon="7.844360380564824"><ele>296.0</ele><time>2026-04-10T09:26:49Z</time></trkpt><trkpt lat="44.81656665328785" lon="7.844326909148468"><ele>296.0</ele><time>2026-04-10T09:26:51Z</time></trkpt><trkpt lat="44.816651587999196" lon="7.844305233919558"><ele>296.0</ele><time>2026-04-10T09:26:53Z</time></trkpt><trkpt lat="44.816740853148424" lon="7.844280017294143"><ele>296.0</ele><time>2026-04-10T09:26:55Z</time></trkpt><trkpt lat="44.816818357027195" lon="7.844234745534093"><ele>295.83333333333337</ele><time>2026-04-10T09:26:57Z</time></trkpt><trkpt lat="44.81687529607378" lon="7.844170278034963"><ele>295.6666666666667</ele><time>2026-04-10T09:26:59Z</time></trkpt><trkpt lat="44.81690454665596" lon="7.844058205296367"><ele>295.5</ele><time>2026-04-10T09:27:01Z</time></trkpt><trkpt lat="44.81690428513331" lon="7.843942854015735"><ele>295.3333333333333</ele><time>2026-04-10T09:27:03Z</time></trkpt><trkpt lat="44.81689817191546" lon="7.843831289234577"><ele>295.16666666666663</ele><time>2026-04-10T09:27:05Z</time></trkpt><trkpt lat="44.816887985382934" lon="7.843732273868975"><ele>295.0</ele><time>2026-04-10T09:27:07Z</time></trkpt><trkpt lat="44.816881827975045" lon="7.843624677947071"><ele>295.0</ele><time>2026-04-10T09:27:09Z</time></trkpt><trkpt lat="44.8168795694538" lon="7.843506963648346"><ele>295.0</ele><time>2026-04-10T09:27:11Z</time></trkpt><trkpt lat="44.816864926124246" lon="7.843366864652227"><ele>295.0</ele><time>2026-04-10T09:27:13Z</time></trkpt><trkpt lat="44.81685521730639" lon="7.843253447604679"><ele>295.0</ele><time>2026-04-10T09:27:15Z</time></trkpt><trkpt lat="44.81683184941642" lon="7.843121406046948"><ele>295.0</ele><time>2026-04-10T09:27:17Z</time></trkpt><trkpt lat="44.81681642156437" lon="7.842984497387777"><ele>295.3333333333333</ele><time>2026-04-10T09:27:19Z</time></trkpt><trkpt lat="44.81680356018491" lon="7.842852877465198"><ele>295.66666666666663</ele><time>2026-04-10T09:27:21Z</time></trkpt><trkpt lat="44.816802680070175" lon="7.842730970175402"><ele>296.0</ele><time>2026-04-10T09:27:23Z</time></trkpt><trkpt lat="44.816828061355295" lon="7.842630820025933"><ele>296.3333333333333</ele><time>2026-04-10T09:27:25Z</time></trkpt><trkpt lat="44.81685249811364" lon="7.842519405716662"><ele>296.6666666666667</ele><time>2026-04-10T09:27:27Z</time></trkpt><trkpt lat="44.816874995684834" lon="7.842415488600352"><ele>297.0</ele><time>2026-04-10T09:27:29Z</time></trkpt><trkpt lat="44.81690187803855" lon="7.842295806946272"><ele>297.0</ele><time>2026-04-10T09:27:31Z</time></trkpt><trkpt lat="44.816911391754225" lon="7.842168304570746"><ele>297.0</ele><time>2026-04-10T09:27:33Z</time></trkpt><trkpt lat="44.81693391299904" lon="7.8420466241793765"><ele>297.0</ele><time>2026-04-10T09:27:35Z</time></trkpt><trkpt lat="44.81694395011969" lon="7.841939359834576"><ele>297.0</ele><time>2026-04-10T09:27:37Z</time></trkpt><trkpt lat="44.81695173826401" lon="7.84184644495597"><ele>297.0</ele><time>2026-04-10T09:27:39Z</time></trkpt><trkpt lat="44.81696338986137" lon="7.841745714159603"><ele>297.0</ele><time>2026-04-10T09:27:41Z</time></trkpt><trkpt lat="44.81697011426373" lon="7.8416432304882235"><ele>297.1666666666667</ele><time>2026-04-10T09:27:43Z</time></trkpt><trkpt lat="44.81697843768281" lon="7.841536711905612"><ele>297.3333333333333</ele><time>2026-04-10T09:27:45Z</time></trkpt><trkpt lat="44.81696826305046" lon="7.8414047647113545"><ele>297.5</ele><time>2026-04-10T09:27:48Z</time></trkpt><trkpt lat="44.816962832185276" lon="7.841268185420523"><ele>297.66666666666663</ele><time>2026-04-10T09:27:51Z</time></trkpt><trkpt lat="44.81693609286382" lon="7.841142916491557"><ele>297.8333333333333</ele><time>2026-04-10T09:27:54Z</time></trkpt><trkpt lat="44.81690109851981" lon="7.841064236416853"><ele>298.0</ele><time>2026-04-10T09:27:55.999Z</time></trkpt><trkpt lat="44.81687949674739" lon="7.840974354089441"><ele>298.0</ele><time>2026-04-10T09:27:57.999Z</time></trkpt><trkpt lat="44.81685064642072" lon="7.840883882049613"><ele>298.0</ele><time>2026-04-10T09:27:59.999Z</time></trkpt><trkpt lat="44.816812778638" lon="7.840800580652384"><ele>298.0</ele><time>2026-04-10T09:28:01.999Z</time></trkpt><trkpt lat="44.81677505562097" lon="7.840705680500526"><ele>298.0</ele><time>2026-04-10T09:28:03.999Z</time></trkpt><trkpt lat="44.81676601543632" lon="7.84060767383103"><ele>298.0</ele><time>2026-04-10T09:28:05.999Z</time></trkpt><trkpt lat="44.81675966194817" lon="7.840506537312258"><ele>298.0</ele><time>2026-04-10T09:28:07.999Z</time></trkpt><trkpt lat="44.816755905624774" lon="7.840414222053577"><ele>298.0</ele><time>2026-04-10T09:28:09.999Z</time></trkpt><trkpt lat="44.81674875917179" lon="7.840322542470396"><ele>298.3333333333333</ele><time>2026-04-10T09:28:11.999Z</time></trkpt><trkpt lat="44.81673748287197" lon="7.84022782373419"><ele>298.66666666666663</ele><time>2026-04-10T09:28:14.999Z</time></trkpt><trkpt lat="44.816728381274785" lon="7.840104470466611"><ele>299.0</ele><time>2026-04-10T09:28:17.999Z</time></trkpt><trkpt lat="44.81671977498311" lon="7.839967195206123"><ele>299.3333333333333</ele><time>2026-04-10T09:28:20.999Z</time></trkpt><trkpt lat="44.8167106475276" lon="7.839865979801355"><ele>299.6666666666667</ele><time>2026-04-10T09:28:22.999Z</time></trkpt><trkpt lat="44.81669238123192" lon="7.839771906092247"><ele>300.0</ele><time>2026-04-10T09:28:24.999Z</time></trkpt><trkpt lat="44.81666795449489" lon="7.839678945015932"><ele>300.4</ele><time>2026-04-10T09:28:26.999Z</time></trkpt><trkpt lat="44.81662718771673" lon="7.839586499402355"><ele>300.8</ele><time>2026-04-10T09:28:28.999Z</time></trkpt><trkpt lat="44.816576848841386" lon="7.839492785404626"><ele>301.2</ele><time>2026-04-10T09:28:30.999Z</time></trkpt><trkpt lat="44.81650399238771" lon="7.839397478077788"><ele>301.6</ele><time>2026-04-10T09:28:32.999Z</time></trkpt><trkpt lat="44.816432961810484" lon="7.83929565703229"><ele>302.0</ele><time>2026-04-10T09:28:34.999Z</time></trkpt><trkpt lat="44.816372784746214" lon="7.839196933755269"><ele>302.2</ele><time>2026-04-10T09:28:36.999Z</time></trkpt><trkpt lat="44.816311174851336" lon="7.8390857151238915"><ele>302.4</ele><time>2026-04-10T09:28:38.999Z</time></trkpt><trkpt lat="44.816260762430375" lon="7.838971343316525"><ele>302.6</ele><time>2026-04-10T09:28:40.999Z</time></trkpt><trkpt lat="44.816215676475665" lon="7.838837189274835"><ele>302.8</ele><time>2026-04-10T09:28:42.999Z</time></trkpt><trkpt lat="44.816207838943996" lon="7.838737445152201"><ele>303.0</ele><time>2026-04-10T09:28:44.999Z</time></trkpt><trkpt lat="44.81621801035715" lon="7.838619726740845"><ele>303.0</ele><time>2026-04-10T09:28:46.999Z</time></trkpt><trkpt lat="44.81622897443558" lon="7.838501077509342"><ele>303.0</ele><time>2026-04-10T09:28:48.999Z</time></trkpt><trkpt lat="44.816244957873856" lon="7.838390783548496"><ele>303.0</ele><time>2026-04-10T09:28:50.999Z</time></trkpt><trkpt lat="44.816259994152325" lon="7.838251665214276"><ele>303.0</ele><time>2026-04-10T09:28:52.999Z</time></trkpt><trkpt lat="44.8162719529474" lon="7.838131423370241"><ele>303.0</ele><time>2026-04-10T09:28:54.999Z</time></trkpt><trkpt lat="44.81630196826912" lon="7.838033786262053"><ele>303.0</ele><time>2026-04-10T09:28:56.999Z</time></trkpt><trkpt lat="44.81634181000742" lon="7.837938627556766"><ele>303.3333333333333</ele><time>2026-04-10T09:28:58.999Z</time></trkpt><trkpt lat="44.81637243718243" lon="7.837834797642814"><ele>303.6666666666667</ele><time>2026-04-10T09:29:00.999Z</time></trkpt><trkpt lat="44.81638491985259" lon="7.837724739682175"><ele>304.0</ele><time>2026-04-10T09:29:02.999Z</time></trkpt><trkpt lat="44.81638222406277" lon="7.83760536149334"><ele>304.33333333333337</ele><time>2026-04-10T09:29:04.999Z</time></trkpt><trkpt lat="44.81637297984574" lon="7.837493401480792"><ele>304.6666666666667</ele><time>2026-04-10T09:29:06.999Z</time></trkpt><trkpt lat="44.81633517270607" lon="7.8374031768905486"><ele>305.0</ele><time>2026-04-10T09:29:08.999Z</time></trkpt><trkpt lat="44.81638251181866" lon="7.83734342075967"><ele>305.4</ele><time>2026-04-10T09:29:13.999Z</time></trkpt><trkpt lat="44.81646801021126" lon="7.837314110745576"><ele>305.8</ele><time>2026-04-10T09:29:15.999Z</time></trkpt><trkpt lat="44.81655632664865" lon="7.83726776231304"><ele>306.2</ele><time>2026-04-10T09:29:17.999Z</time></trkpt><trkpt lat="44.81664464836909" lon="7.8372063055885555"><ele>306.6</ele><time>2026-04-10T09:29:19.999Z</time></trkpt><trkpt lat="44.81671810183789" lon="7.837150769911441"><ele>307.0</ele><time>2026-04-10T09:29:21.999Z</time></trkpt><trkpt lat="44.81679610691408" lon="7.837085531240207"><ele>306.6</ele><time>2026-04-10T09:29:23.999Z</time></trkpt><trkpt lat="44.816866764155996" lon="7.836957256443396"><ele>306.2</ele><time>2026-04-10T09:29:25.999Z</time></trkpt><trkpt lat="44.816947907078145" lon="7.836831059671221"><ele>305.8</ele><time>2026-04-10T09:29:27.999Z</time></trkpt><trkpt lat="44.81699304269741" lon="7.836756959234815"><ele>305.4</ele><time>2026-04-10T09:29:28.999Z</time></trkpt><trkpt lat="44.817030478606604" lon="7.836679799213942"><ele>305.0</ele><time>2026-04-10T09:29:29.999Z</time></trkpt><trkpt lat="44.81710421078072" lon="7.836536440681291"><ele>304.7142857142857</ele><time>2026-04-10T09:29:31.999Z</time></trkpt><trkpt lat="44.81715256226975" lon="7.836467083450198"><ele>304.4285714285714</ele><time>2026-04-10T09:29:32.999Z</time></trkpt><trkpt lat="44.81721313379968" lon="7.836395454167284"><ele>304.1428571428571</ele><time>2026-04-10T09:29:33.999Z</time></trkpt><trkpt lat="44.81726346628528" lon="7.836325876894004"><ele>303.8571428571429</ele><time>2026-04-10T09:29:34.999Z</time></trkpt><trkpt lat="44.81730849025239" lon="7.836259792159064"><ele>303.57142857142856</ele><time>2026-04-10T09:29:35.999Z</time></trkpt><trkpt lat="44.81735875064426" lon="7.836178372899807"><ele>303.2857142857143</ele><time>2026-04-10T09:29:36.999Z</time></trkpt><trkpt lat="44.8174153336245" lon="7.836089540984943"><ele>303.0</ele><time>2026-04-10T09:29:37.999Z</time></trkpt><trkpt lat="44.8174674942551" lon="7.836001184777043"><ele>302.8333333333333</ele><time>2026-04-10T09:29:38.999Z</time></trkpt><trkpt lat="44.81750491570599" lon="7.835910385119386"><ele>302.6666666666667</ele><time>2026-04-10T09:29:39.999Z</time></trkpt><trkpt lat="44.81753304609243" lon="7.83580860196198"><ele>302.5</ele><time>2026-04-10T09:29:40.999Z</time></trkpt><trkpt lat="44.81755142119973" lon="7.83571222022819"><ele>302.33333333333337</ele><time>2026-04-10T09:29:41.999Z</time></trkpt><trkpt lat="44.81755882298307" lon="7.835620971337786"><ele>302.1666666666667</ele><time>2026-04-10T09:29:42.999Z</time></trkpt><trkpt lat="44.81756511766495" lon="7.835477920475491"><ele>302.0</ele><time>2026-04-10T09:29:44.999Z</time></trkpt><trkpt lat="44.817619983765866" lon="7.835391877811789"><ele>301.8</ele><time>2026-04-10T09:29:46.999Z</time></trkpt><trkpt lat="44.817685020749906" lon="7.835432846075212"><ele>301.6</ele><time>2026-04-10T09:29:48.999Z</time></trkpt><trkpt lat="44.81776036116296" lon="7.835518710680921"><ele>301.40000000000003</ele><time>2026-04-10T09:29:50.999Z</time></trkpt><trkpt lat="44.817834368271235" lon="7.835607399340104"><ele>301.2</ele><time>2026-04-10T09:29:52.999Z</time></trkpt><trkpt lat="44.817917154195804" lon="7.8356903313797925"><ele>301.0</ele><time>2026-04-10T09:29:54.999Z</time></trkpt><trkpt lat="44.818008237702" lon="7.835772636239071"><ele>301.0</ele><time>2026-04-10T09:29:56.999Z</time></trkpt><trkpt lat="44.81806312479314" lon="7.835817927536083"><ele>301.0</ele><time>2026-04-10T09:29:57.999Z</time></trkpt><trkpt lat="44.81815928071975" lon="7.835916369434422"><ele>301.0</ele><time>2026-04-10T09:29:59.999Z</time></trkpt><trkpt lat="44.81825531591063" lon="7.8360183535012915"><ele>301.0</ele><time>2026-04-10T09:30:01.999Z</time></trkpt><trkpt lat="44.81835564005951" lon="7.836101557339358"><ele>301.0</ele><time>2026-04-10T09:30:03.999Z</time></trkpt><trkpt lat="44.81844632227419" lon="7.836186306499567"><ele>301.2</ele><time>2026-04-10T09:30:05.999Z</time></trkpt><trkpt lat="44.818540531476486" lon="7.836258261328408"><ele>301.40000000000003</ele><time>2026-04-10T09:30:07.999Z</time></trkpt><trkpt lat="44.81862612715647" lon="7.8363222438819475"><ele>301.6</ele><time>2026-04-10T09:30:09.999Z</time></trkpt><trkpt lat="44.8187195317928" lon="7.8363923245705385"><ele>301.8</ele><time>2026-04-10T09:30:11.999Z</time></trkpt><trkpt lat="44.81882899135971" lon="7.836491863987126"><ele>302.0</ele><time>2026-04-10T09:30:13.999Z</time></trkpt><trkpt lat="44.81892298187937" lon="7.836597192252674"><ele>302.0</ele><time>2026-04-10T09:30:15.999Z</time></trkpt><trkpt lat="44.81897821531126" lon="7.836659594501153"><ele>302.0</ele><time>2026-04-10T09:30:16.999Z</time></trkpt><trkpt lat="44.81907219821508" lon="7.836781824173609"><ele>302.0</ele><time>2026-04-10T09:30:18.999Z</time></trkpt><trkpt lat="44.819121479069494" lon="7.83686609394521"><ele>302.0</ele><time>2026-04-10T09:30:19.999Z</time></trkpt><trkpt lat="44.819198237280354" lon="7.8369958092231595"><ele>302.0</ele><time>2026-04-10T09:30:21.999Z</time></trkpt><trkpt lat="44.81926703659822" lon="7.837129805093538"><ele>302.2</ele><time>2026-04-10T09:30:23.999Z</time></trkpt><trkpt lat="44.819297648592816" lon="7.837209550836858"><ele>302.4</ele><time>2026-04-10T09:30:24.999Z</time></trkpt><trkpt lat="44.81933567171722" lon="7.837350909933146"><ele>302.6</ele><time>2026-04-10T09:30:26.999Z</time></trkpt><trkpt lat="44.81938903166519" lon="7.837489403283708"><ele>302.8</ele><time>2026-04-10T09:30:28.999Z</time></trkpt><trkpt lat="44.81941936654432" lon="7.837571805653908"><ele>303.0</ele><time>2026-04-10T09:30:29.999Z</time></trkpt><trkpt lat="44.81946971154185" lon="7.8377170722465195"><ele>302.5</ele><time>2026-04-10T09:30:31.999Z</time></trkpt><trkpt lat="44.819498332385564" lon="7.837801770707623"><ele>302.0</ele><time>2026-04-10T09:30:33.999Z</time></trkpt><trkpt lat="44.819449396638106" lon="7.837736747483105"><ele>301.5</ele><time>2026-04-10T09:31:24.999Z</time></trkpt><trkpt lat="44.819529594477444" lon="7.837807704559181"><ele>301.0</ele><time>2026-04-10T09:32:32.999Z</time></trkpt><trkpt lat="44.819577156547794" lon="7.837727592706077"><ele>300.5</ele><time>2026-04-10T09:32:35.999Z</time></trkpt><trkpt lat="44.81963285565907" lon="7.837652447132022"><ele>300.0</ele><time>2026-04-10T09:32:37.999Z</time></trkpt><trkpt lat="44.819717924633046" lon="7.837605928480503"><ele>300.0</ele><time>2026-04-10T09:32:39.999Z</time></trkpt><trkpt lat="44.8198052565489" lon="7.837567705992544"><ele>300.0</ele><time>2026-04-10T09:32:41.999Z</time></trkpt><trkpt lat="44.81989947324163" lon="7.837515138182366"><ele>300.0</ele><time>2026-04-10T09:32:43.999Z</time></trkpt><trkpt lat="44.82000358513011" lon="7.837467703091"><ele>300.0</ele><time>2026-04-10T09:32:45.999Z</time></trkpt><trkpt lat="44.82011142945774" lon="7.837403504109054"><ele>300.0</ele><time>2026-04-10T09:32:47.999Z</time></trkpt><trkpt lat="44.82021618643403" lon="7.837347390620774"><ele>299.8</ele><time>2026-04-10T09:32:49.999Z</time></trkpt><trkpt lat="44.82027589478083" lon="7.837315899831148"><ele>299.6</ele><time>2026-04-10T09:32:50.999Z</time></trkpt><trkpt lat="44.82038442944195" lon="7.837260456812552"><ele>299.4</ele><time>2026-04-10T09:32:52.999Z</time></trkpt><trkpt lat="44.82049980302928" lon="7.837205091160207"><ele>299.2</ele><time>2026-04-10T09:32:54.999Z</time></trkpt><trkpt lat="44.82056336246384" lon="7.837181992149998"><ele>299.0</ele><time>2026-04-10T09:32:55.999Z</time></trkpt><trkpt lat="44.82067625799099" lon="7.837118542337329"><ele>299.0</ele><time>2026-04-10T09:32:57.999Z</time></trkpt><trkpt lat="44.820738023168964" lon="7.8370933422934455"><ele>299.0</ele><time>2026-04-10T09:32:58.999Z</time></trkpt><trkpt lat="44.82080394531536" lon="7.8370615300801045"><ele>299.0</ele><time>2026-04-10T09:32:59.999Z</time></trkpt><trkpt lat="44.82092606397083" lon="7.837005489243851"><ele>299.0</ele><time>2026-04-10T09:33:01.999Z</time></trkpt><trkpt lat="44.82099214158308" lon="7.83696501136235"><ele>299.0</ele><time>2026-04-10T09:33:02.999Z</time></trkpt><trkpt lat="44.821054600032696" lon="7.836921896715729"><ele>299.0</ele><time>2026-04-10T09:33:03.999Z</time></trkpt><trkpt lat="44.8211304969966" lon="7.836884201770399"><ele>299.0</ele><time>2026-04-10T09:33:04.999Z</time></trkpt><trkpt lat="44.821252557824536" lon="7.8368282498891615"><ele>299.0</ele><time>2026-04-10T09:33:06.999Z</time></trkpt><trkpt lat="44.8213144908464" lon="7.836797049671079"><ele>299.0</ele><time>2026-04-10T09:33:07.999Z</time></trkpt><trkpt lat="44.82143467035498" lon="7.836742176254529"><ele>299.0</ele><time>2026-04-10T09:33:09.999Z</time></trkpt><trkpt lat="44.82150187435967" lon="7.836713457648979"><ele>299.0</ele><time>2026-04-10T09:33:10.999Z</time></trkpt><trkpt lat="44.821566869476314" lon="7.836692599352016"><ele>298.83333333333337</ele><time>2026-04-10T09:33:11.999Z</time></trkpt><trkpt lat="44.821640016984304" lon="7.836667810772069"><ele>298.6666666666667</ele><time>2026-04-10T09:33:12.999Z</time></trkpt><trkpt lat="44.82171203462263" lon="7.836648970780085"><ele>298.5</ele><time>2026-04-10T09:33:13.999Z</time></trkpt><trkpt lat="44.821781230934725" lon="7.83662654555677"><ele>298.3333333333333</ele><time>2026-04-10T09:33:14.999Z</time></trkpt><trkpt lat="44.82190828193972" lon="7.836583438230365"><ele>298.16666666666663</ele><time>2026-04-10T09:33:17Z</time></trkpt><trkpt lat="44.82197474948893" lon="7.836563405375419"><ele>298.0</ele><time>2026-04-10T09:33:18Z</time></trkpt><trkpt lat="44.82204136183782" lon="7.8365412574175695"><ele>298.0</ele><time>2026-04-10T09:33:19Z</time></trkpt><trkpt lat="44.82210758684987" lon="7.83652035378549"><ele>298.0</ele><time>2026-04-10T09:33:20Z</time></trkpt><trkpt lat="44.82217336167423" lon="7.83649728882862"><ele>298.0</ele><time>2026-04-10T09:33:21Z</time></trkpt><trkpt lat="44.82224052762127" lon="7.836470246664018"><ele>298.0</ele><time>2026-04-10T09:33:22Z</time></trkpt><trkpt lat="44.82230889691076" lon="7.836438406024777"><ele>298.0</ele><time>2026-04-10T09:33:23Z</time></trkpt><trkpt lat="44.82237534936527" lon="7.836405211894343"><ele>298.0</ele><time>2026-04-10T09:33:24Z</time></trkpt><trkpt lat="44.82244385674765" lon="7.836373076417875"><ele>298.0</ele><time>2026-04-10T09:33:25Z</time></trkpt><trkpt lat="44.82250536084687" lon="7.836346561938186"><ele>298.0</ele><time>2026-04-10T09:33:26Z</time></trkpt><trkpt lat="44.82256905368011" lon="7.8363190085948125"><ele>298.0</ele><time>2026-04-10T09:33:27Z</time></trkpt><trkpt lat="44.822635612252625" lon="7.836288038785444"><ele>298.0</ele><time>2026-04-10T09:33:28Z</time></trkpt><trkpt lat="44.822695787732265" lon="7.836259365638028"><ele>298.0</ele><time>2026-04-10T09:33:29Z</time></trkpt><trkpt lat="44.82275875709675" lon="7.836229032494662"><ele>298.0</ele><time>2026-04-10T09:33:30Z</time></trkpt><trkpt lat="44.82282096702423" lon="7.836198238151602"><ele>298.0</ele><time>2026-04-10T09:33:31Z</time></trkpt><trkpt lat="44.82288674439146" lon="7.836164372099463"><ele>298.0</ele><time>2026-04-10T09:33:32Z</time></trkpt><trkpt lat="44.82294891071578" lon="7.8361349605361905"><ele>297.2857142857143</ele><time>2026-04-10T09:33:33Z</time></trkpt><trkpt lat="44.8230120148678" lon="7.8361046542115345"><ele>296.57142857142856</ele><time>2026-04-10T09:33:34Z</time></trkpt><trkpt lat="44.82307535044168" lon="7.836075307055591"><ele>295.85714285714283</ele><time>2026-04-10T09:33:35Z</time></trkpt><trkpt lat="44.82313866373053" lon="7.836054687830912"><ele>295.1428571428571</ele><time>2026-04-10T09:33:36Z</time></trkpt><trkpt lat="44.82320469283675" lon="7.83602949521748"><ele>294.42857142857144</ele><time>2026-04-10T09:33:37Z</time></trkpt><trkpt lat="44.823269121099614" lon="7.836007448771906"><ele>293.71428571428567</ele><time>2026-04-10T09:33:38Z</time></trkpt><trkpt lat="44.823341276278256" lon="7.8359819144351555"><ele>293.0</ele><time>2026-04-10T09:33:39Z</time></trkpt><trkpt lat="44.82341375912192" lon="7.835956454872071"><ele>293.1666666666667</ele><time>2026-04-10T09:33:40Z</time></trkpt><trkpt lat="44.823490180506546" lon="7.835927767448802"><ele>293.33333333333337</ele><time>2026-04-10T09:33:41Z</time></trkpt><trkpt lat="44.82357339508243" lon="7.835897038498121"><ele>293.5</ele><time>2026-04-10T09:33:42Z</time></trkpt><trkpt lat="44.823658656521275" lon="7.835873484180917"><ele>293.6666666666667</ele><time>2026-04-10T09:33:43Z</time></trkpt><trkpt lat="44.82373797750243" lon="7.835849764247057"><ele>293.8333333333333</ele><time>2026-04-10T09:33:44Z</time></trkpt><trkpt lat="44.823815700182685" lon="7.835820753624441"><ele>294.0</ele><time>2026-04-10T09:33:45Z</time></trkpt><trkpt lat="44.82388616323941" lon="7.835758846949928"><ele>294.0</ele><time>2026-04-10T09:33:46Z</time></trkpt><trkpt lat="44.82393248399184" lon="7.835675694262233"><ele>294.0</ele><time>2026-04-10T09:33:47Z</time></trkpt><trkpt lat="44.82393043323529" lon="7.835559020331004"><ele>294.0</ele><time>2026-04-10T09:33:48Z</time></trkpt><trkpt lat="44.82389216202384" lon="7.835448231967493"><ele>294.0</ele><time>2026-04-10T09:33:49Z</time></trkpt><trkpt lat="44.8238430722785" lon="7.835355915956498"><ele>294.0</ele><time>2026-04-10T09:33:50Z</time></trkpt><trkpt lat="44.823798545316066" lon="7.835261492218806"><ele>294.0</ele><time>2026-04-10T09:33:51Z</time></trkpt><trkpt lat="44.823753571773615" lon="7.835166220914001"><ele>293.6666666666667</ele><time>2026-04-10T09:33:52Z</time></trkpt><trkpt lat="44.82372542737176" lon="7.835053528771919"><ele>293.3333333333333</ele><time>2026-04-10T09:33:53Z</time></trkpt><trkpt lat="44.82371733714612" lon="7.8349515419623454"><ele>293.0</ele><time>2026-04-10T09:33:54Z</time></trkpt><trkpt lat="44.8237511160718" lon="7.834856206562571"><ele>292.66666666666663</ele><time>2026-04-10T09:33:55Z</time></trkpt><trkpt lat="44.82380605657187" lon="7.8347670873204605"><ele>292.3333333333333</ele><time>2026-04-10T09:33:56Z</time></trkpt><trkpt lat="44.823871565984916" lon="7.834687640787968"><ele>292.0</ele><time>2026-04-10T09:33:57Z</time></trkpt><trkpt lat="44.82393767850584" lon="7.834608881523125"><ele>292.0</ele><time>2026-04-10T09:33:58Z</time></trkpt><trkpt lat="44.82399933515237" lon="7.834527540308"><ele>292.0</ele><time>2026-04-10T09:33:59Z</time></trkpt><trkpt lat="44.824063064691614" lon="7.834444888569498"><ele>292.0</ele><time>2026-04-10T09:34:00Z</time></trkpt><trkpt lat="44.824119355212815" lon="7.834362516737735"><ele>292.0</ele><time>2026-04-10T09:34:01Z</time></trkpt><trkpt lat="44.82417211817064" lon="7.834282162847236"><ele>292.0</ele><time>2026-04-10T09:34:02Z</time></trkpt><trkpt lat="44.82422197030219" lon="7.834199859012693"><ele>292.0</ele><time>2026-04-10T09:34:03Z</time></trkpt><trkpt lat="44.82427266654386" lon="7.834113486724986"><ele>292.3333333333333</ele><time>2026-04-10T09:34:04Z</time></trkpt><trkpt lat="44.824321042710665" lon="7.83402517371917"><ele>292.66666666666663</ele><time>2026-04-10T09:34:05Z</time></trkpt><trkpt lat="44.82437053781317" lon="7.833939094339263"><ele>293.0</ele><time>2026-04-10T09:34:06Z</time></trkpt><trkpt lat="44.824416124037676" lon="7.833852717248301"><ele>293.3333333333333</ele><time>2026-04-10T09:34:07Z</time></trkpt><trkpt lat="44.824462565781936" lon="7.833765975368743"><ele>293.6666666666667</ele><time>2026-04-10T09:34:08Z</time></trkpt><trkpt lat="44.82450838469359" lon="7.833683238647502"><ele>294.0</ele><time>2026-04-10T09:34:09Z</time></trkpt><trkpt lat="44.82455241724215" lon="7.833606118825732"><ele>294.0</ele><time>2026-04-10T09:34:10Z</time></trkpt><trkpt lat="44.82459932269417" lon="7.833538281515234"><ele>294.0</ele><time>2026-04-10T09:34:11Z</time></trkpt><trkpt lat="44.824691716034536" lon="7.833440096910323"><ele>294.0</ele><time>2026-04-10T09:34:13Z</time></trkpt><trkpt lat="44.82478808850851" lon="7.833352620677712"><ele>294.0</ele><time>2026-04-10T09:34:15Z</time></trkpt><trkpt lat="44.8248825166711" lon="7.833264747313126"><ele>294.0</ele><time>2026-04-10T09:34:17Z</time></trkpt><trkpt lat="44.82497344958397" lon="7.833173448808"><ele>293.6666666666667</ele><time>2026-04-10T09:34:19Z</time></trkpt><trkpt lat="44.825085629832365" lon="7.833067330253192"><ele>293.3333333333333</ele><time>2026-04-10T09:34:21Z</time></trkpt><trkpt lat="44.82514319211961" lon="7.833003823370644"><ele>293.0</ele><time>2026-04-10T09:34:22Z</time></trkpt><trkpt lat="44.825196836941174" lon="7.832938543461102"><ele>292.66666666666663</ele><time>2026-04-10T09:34:22.999Z</time></trkpt><trkpt lat="44.82524944069812" lon="7.83287900497589"><ele>292.3333333333333</ele><time>2026-04-10T09:34:23.999Z</time></trkpt><trkpt lat="44.8253001123488" lon="7.832821915763495"><ele>292.0</ele><time>2026-04-10T09:34:24.999Z</time></trkpt><trkpt lat="44.82535358544815" lon="7.832761099033736"><ele>291.85714285714283</ele><time>2026-04-10T09:34:25.999Z</time></trkpt><trkpt lat="44.825403311141216" lon="7.832686669598058"><ele>291.7142857142857</ele><time>2026-04-10T09:34:26.999Z</time></trkpt><trkpt lat="44.82542453638088" lon="7.832599404440376"><ele>291.57142857142856</ele><time>2026-04-10T09:34:27.999Z</time></trkpt><trkpt lat="44.82543118885723" lon="7.832506403088243"><ele>291.42857142857144</ele><time>2026-04-10T09:34:28.999Z</time></trkpt><trkpt lat="44.82542045143613" lon="7.832414912773085"><ele>291.2857142857143</ele><time>2026-04-10T09:34:29.999Z</time></trkpt><trkpt lat="44.825388869694066" lon="7.832333916311673"><ele>291.1428571428571</ele><time>2026-04-10T09:34:30.999Z</time></trkpt><trkpt lat="44.825343005328975" lon="7.832262291127343"><ele>291.0</ele><time>2026-04-10T09:34:31.999Z</time></trkpt><trkpt lat="44.82529217982233" lon="7.832196862170374"><ele>290.6666666666667</ele><time>2026-04-10T09:34:32.999Z</time></trkpt><trkpt lat="44.82524475464622" lon="7.832134814070582"><ele>290.3333333333333</ele><time>2026-04-10T09:34:33.999Z</time></trkpt><trkpt lat="44.82520086965759" lon="7.832060967212986"><ele>290.0</ele><time>2026-04-10T09:34:34.999Z</time></trkpt><trkpt lat="44.82517855277625" lon="7.831903232173682"><ele>289.66666666666663</ele><time>2026-04-10T09:34:36.999Z</time></trkpt><trkpt lat="44.825231065578706" lon="7.831749385065297"><ele>289.3333333333333</ele><time>2026-04-10T09:34:38.999Z</time></trkpt><trkpt lat="44.825271525029514" lon="7.831663782167203"><ele>289.0</ele><time>2026-04-10T09:34:39.999Z</time></trkpt><trkpt lat="44.825309304250155" lon="7.831578129763897"><ele>289.0</ele><time>2026-04-10T09:34:40.999Z</time></trkpt><trkpt lat="44.825351778933005" lon="7.831493526105472"><ele>289.0</ele><time>2026-04-10T09:34:41.999Z</time></trkpt><trkpt lat="44.825392327405915" lon="7.83140601787891"><ele>289.0</ele><time>2026-04-10T09:34:42.999Z</time></trkpt><trkpt lat="44.82543207362277" lon="7.831313501043729"><ele>289.0</ele><time>2026-04-10T09:34:43.999Z</time></trkpt><trkpt lat="44.82546670529501" lon="7.831216201359622"><ele>289.0</ele><time>2026-04-10T09:34:44.999Z</time></trkpt><trkpt lat="44.825500067063246" lon="7.831126738428845"><ele>289.0</ele><time>2026-04-10T09:34:45.999Z</time></trkpt><trkpt lat="44.825529314952774" lon="7.831043479991191"><ele>289.0</ele><time>2026-04-10T09:34:46.999Z</time></trkpt><trkpt lat="44.82556109553047" lon="7.830964227760211"><ele>289.0</ele><time>2026-04-10T09:34:47.999Z</time></trkpt><trkpt lat="44.82560568799746" lon="7.830883887809275"><ele>289.0</ele><time>2026-04-10T09:34:48.999Z</time></trkpt><trkpt lat="44.825659461267165" lon="7.830807482215714"><ele>289.0</ele><time>2026-04-10T09:34:49.999Z</time></trkpt><trkpt lat="44.82571113179998" lon="7.830737898515861"><ele>289.0</ele><time>2026-04-10T09:34:50.999Z</time></trkpt><trkpt lat="44.82575621156425" lon="7.830670336730936"><ele>289.0</ele><time>2026-04-10T09:34:51.999Z</time></trkpt><trkpt lat="44.82580446881861" lon="7.830602331446293"><ele>289.0</ele><time>2026-04-10T09:34:52.999Z</time></trkpt><trkpt lat="44.82585335536371" lon="7.830531662420637"><ele>289.0</ele><time>2026-04-10T09:34:53.999Z</time></trkpt><trkpt lat="44.82590287547601" lon="7.830461280175284"><ele>289.0</ele><time>2026-04-10T09:34:54.999Z</time></trkpt><trkpt lat="44.82595374306059" lon="7.830388460761385"><ele>289.0</ele><time>2026-04-10T09:34:55.999Z</time></trkpt><trkpt lat="44.82601213336138" lon="7.830314747461647"><ele>289.0</ele><time>2026-04-10T09:34:56.999Z</time></trkpt><trkpt lat="44.82606622674702" lon="7.830249739681646"><ele>289.0</ele><time>2026-04-10T09:34:57.999Z</time></trkpt><trkpt lat="44.82612466427848" lon="7.830177964892502"><ele>289.0</ele><time>2026-04-10T09:34:58.999Z</time></trkpt><trkpt lat="44.82618350433651" lon="7.83010437843901"><ele>289.0</ele><time>2026-04-10T09:34:59.999Z</time></trkpt><trkpt lat="44.82623375426844" lon="7.830023389121779"><ele>288.5</ele><time>2026-04-10T09:35:00.999Z</time></trkpt><trkpt lat="44.82627602810251" lon="7.829924411813973"><ele>288.0</ele><time>2026-04-10T09:35:01.999Z</time></trkpt><trkpt lat="44.82630828239153" lon="7.829822336275392"><ele>287.5</ele><time>2026-04-10T09:35:02.999Z</time></trkpt><trkpt lat="44.82632856109938" lon="7.829716480132646"><ele>287.0</ele><time>2026-04-10T09:35:03.999Z</time></trkpt><trkpt lat="44.82633835826852" lon="7.829617234990916"><ele>286.5</ele><time>2026-04-10T09:35:04.999Z</time></trkpt><trkpt lat="44.82634603645265" lon="7.829510893371466"><ele>286.0</ele><time>2026-04-10T09:35:05.999Z</time></trkpt><trkpt lat="44.826351677513145" lon="7.829401925690039"><ele>286.5</ele><time>2026-04-10T09:35:06.999Z</time></trkpt><trkpt lat="44.826355808897645" lon="7.829292555536087"><ele>287.0</ele><time>2026-04-10T09:35:07.999Z</time></trkpt><trkpt lat="44.82636106103101" lon="7.829189682359571"><ele>287.5</ele><time>2026-04-10T09:35:08.999Z</time></trkpt><trkpt lat="44.826363809864816" lon="7.829081751409993"><ele>288.0</ele><time>2026-04-10T09:35:09.999Z</time></trkpt><trkpt lat="44.82635849363265" lon="7.828969582891818"><ele>288.5</ele><time>2026-04-10T09:35:10.999Z</time></trkpt><trkpt lat="44.82635253654175" lon="7.828863445341978"><ele>289.0</ele><time>2026-04-10T09:35:11.999Z</time></trkpt><trkpt lat="44.82635056958717" lon="7.828764336800896"><ele>289.0</ele><time>2026-04-10T09:35:12.999Z</time></trkpt><trkpt lat="44.826360387456155" lon="7.828663501106659"><ele>289.0</ele><time>2026-04-10T09:35:13.999Z</time></trkpt><trkpt lat="44.826370966032556" lon="7.828573786942079"><ele>289.0</ele><time>2026-04-10T09:35:14.999Z</time></trkpt><trkpt lat="44.826382264934665" lon="7.828452232213492"><ele>289.0</ele><time>2026-04-10T09:35:16.999Z</time></trkpt><trkpt lat="44.82638718120615" lon="7.828358095343916"><ele>289.0</ele><time>2026-04-10T09:35:18.999Z</time></trkpt><trkpt lat="44.82638926504739" lon="7.828248052249171"><ele>289.0</ele><time>2026-04-10T09:35:20.999Z</time></trkpt><trkpt lat="44.82639342545924" lon="7.828138056063865"><ele>289.0</ele><time>2026-04-10T09:35:22.999Z</time></trkpt><trkpt lat="44.82640543799109" lon="7.828024629365032"><ele>289.2</ele><time>2026-04-10T09:35:24.999Z</time></trkpt><trkpt lat="44.826471575951764" lon="7.827992558369141"><ele>289.4</ele><time>2026-04-10T09:35:26.999Z</time></trkpt><trkpt lat="44.826556825947776" lon="7.828043479992587"><ele>289.6</ele><time>2026-04-10T09:35:28.999Z</time></trkpt><trkpt lat="44.82663127813223" lon="7.828098789445401"><ele>289.8</ele><time>2026-04-10T09:35:30.999Z</time></trkpt><trkpt lat="44.826728880607085" lon="7.82817154772814"><ele>290.0</ele><time>2026-04-10T09:35:32.999Z</time></trkpt><trkpt lat="44.8268417691844" lon="7.828224085115461"><ele>290.25</ele><time>2026-04-10T09:35:34.999Z</time></trkpt><trkpt lat="44.82694895131315" lon="7.828300250697466"><ele>290.5</ele><time>2026-04-10T09:35:36.999Z</time></trkpt><trkpt lat="44.82704517679739" lon="7.828382220531298"><ele>290.75</ele><time>2026-04-10T09:35:38.999Z</time></trkpt><trkpt lat="44.827149955040724" lon="7.828464803802603"><ele>291.0</ele><time>2026-04-10T09:35:40.999Z</time></trkpt><trkpt lat="44.82725741008262" lon="7.828559581758028"><ele>290.40000000000003</ele><time>2026-04-10T09:35:42.999Z</time></trkpt><trkpt lat="44.82735412701575" lon="7.828642944420866"><ele>289.8</ele><time>2026-04-10T09:35:44.999Z</time></trkpt><trkpt lat="44.827451906495845" lon="7.828721663812989"><ele>289.20000000000005</ele><time>2026-04-10T09:35:46.999Z</time></trkpt><trkpt lat="44.82756473959195" lon="7.8288030521462915"><ele>288.6</ele><time>2026-04-10T09:35:48.999Z</time></trkpt><trkpt lat="44.827623649701906" lon="7.82883524842943"><ele>288.0</ele><time>2026-04-10T09:35:49.999Z</time></trkpt><trkpt lat="44.827729657190766" lon="7.828919683837663"><ele>288.0</ele><time>2026-04-10T09:35:51.999Z</time></trkpt><trkpt lat="44.827828757091645" lon="7.829002393721728"><ele>288.0</ele><time>2026-04-10T09:35:53.999Z</time></trkpt><trkpt lat="44.82788329855496" lon="7.829056849883248"><ele>288.0</ele><time>2026-04-10T09:35:54.999Z</time></trkpt><trkpt lat="44.827941132127314" lon="7.829103552632691"><ele>288.0</ele><time>2026-04-10T09:35:55.999Z</time></trkpt><trkpt lat="44.827997548243246" lon="7.829155223823791"><ele>288.0</ele><time>2026-04-10T09:35:56.999Z</time></trkpt><trkpt lat="44.82806047569523" lon="7.829200154716247"><ele>288.0</ele><time>2026-04-10T09:35:57.999Z</time></trkpt><trkpt lat="44.82812071494121" lon="7.8292461550456505"><ele>288.0</ele><time>2026-04-10T09:35:58.999Z</time></trkpt><trkpt lat="44.82818277610383" lon="7.829293417569267"><ele>288.0</ele><time>2026-04-10T09:35:59.999Z</time></trkpt><trkpt lat="44.82824632974895" lon="7.829337302504282"><ele>288.0</ele><time>2026-04-10T09:36:00.999Z</time></trkpt><trkpt lat="44.828302872420046" lon="7.829390003279958"><ele>288.0</ele><time>2026-04-10T09:36:01.999Z</time></trkpt><trkpt lat="44.828361124679795" lon="7.829441916327824"><ele>288.0</ele><time>2026-04-10T09:36:02.999Z</time></trkpt><trkpt lat="44.828471203540296" lon="7.8295290112492895"><ele>288.0</ele><time>2026-04-10T09:36:04.999Z</time></trkpt><trkpt lat="44.82858457332447" lon="7.829606472111741"><ele>287.5</ele><time>2026-04-10T09:36:06.999Z</time></trkpt><trkpt lat="44.828647312883845" lon="7.829641414525034"><ele>287.0</ele><time>2026-04-10T09:36:07.999Z</time></trkpt><trkpt lat="44.82870377749207" lon="7.829688450215568"><ele>286.5</ele><time>2026-04-10T09:36:08.999Z</time></trkpt><trkpt lat="44.82881144554452" lon="7.829779970979699"><ele>286.0</ele><time>2026-04-10T09:36:10.999Z</time></trkpt><trkpt lat="44.828909424037235" lon="7.829876877493889"><ele>285.5</ele><time>2026-04-10T09:36:12.999Z</time></trkpt><trkpt lat="44.82896214147587" lon="7.829936317929331"><ele>285.0</ele><time>2026-04-10T09:36:13.999Z</time></trkpt><trkpt lat="44.8290617800639" lon="7.830042981678663"><ele>285.0</ele><time>2026-04-10T09:36:15.999Z</time></trkpt><trkpt lat="44.829106768571314" lon="7.8301065859974655"><ele>285.0</ele><time>2026-04-10T09:36:16.999Z</time></trkpt><trkpt lat="44.82917768149166" lon="7.830195765752319"><ele>285.0</ele><time>2026-04-10T09:36:18.999Z</time></trkpt><trkpt lat="44.8292454954138" lon="7.830284323394379"><ele>285.0</ele><time>2026-04-10T09:36:20.999Z</time></trkpt><trkpt lat="44.82930080246129" lon="7.830331914874796"><ele>285.0</ele><time>2026-04-10T09:36:21.999Z</time></trkpt><trkpt lat="44.82939791004966" lon="7.830416202531453"><ele>285.0</ele><time>2026-04-10T09:36:23.999Z</time></trkpt><trkpt lat="44.82949411407229" lon="7.830477329859306"><ele>284.2</ele><time>2026-04-10T09:36:25.999Z</time></trkpt><trkpt lat="44.8295992852974" lon="7.830524268572898"><ele>283.4</ele><time>2026-04-10T09:36:27.999Z</time></trkpt><trkpt lat="44.82971018222047" lon="7.8305894482892"><ele>282.6</ele><time>2026-04-10T09:36:29.999Z</time></trkpt><trkpt lat="44.829806725802634" lon="7.8306367447957115"><ele>281.8</ele><time>2026-04-10T09:36:31.999Z</time></trkpt><trkpt lat="44.829871714474464" lon="7.830701040037317"><ele>281.0</ele><time>2026-04-10T09:36:33.999Z</time></trkpt><trkpt lat="44.82994977563651" lon="7.830743612782352"><ele>281.0</ele><time>2026-04-10T09:36:35.999Z</time></trkpt><trkpt lat="44.83002124172748" lon="7.83081365410539"><ele>281.0</ele><time>2026-04-10T09:36:37.999Z</time></trkpt><trkpt lat="44.83006740782694" lon="7.8309468615244695"><ele>281.0</ele><time>2026-04-10T09:36:39.999Z</time></trkpt><trkpt lat="44.830111249327686" lon="7.831062607873338"><ele>281.0</ele><time>2026-04-10T09:36:41.999Z</time></trkpt><trkpt lat="44.83016178954136" lon="7.831161734568175"><ele>281.0</ele><time>2026-04-10T09:36:43.999Z</time></trkpt><trkpt lat="44.83021408125381" lon="7.831258359615787"><ele>281.1666666666667</ele><time>2026-04-10T09:36:45.999Z</time></trkpt><trkpt lat="44.83027349332264" lon="7.831359076311809"><ele>281.33333333333337</ele><time>2026-04-10T09:36:47.999Z</time></trkpt><trkpt lat="44.830324008101" lon="7.831436644249435"><ele>281.5</ele><time>2026-04-10T09:36:49.999Z</time></trkpt><trkpt lat="44.83041019153056" lon="7.831386563937142"><ele>281.6666666666667</ele><time>2026-04-10T09:36:52.999Z</time></trkpt><trkpt lat="44.83047348481939" lon="7.8313054321764195"><ele>281.8333333333333</ele><time>2026-04-10T09:36:54.999Z</time></trkpt><trkpt lat="44.83053394067838" lon="7.8312467359247675"><ele>282.0</ele><time>2026-04-10T09:36:56.999Z</time></trkpt><trkpt lat="44.83062176112738" lon="7.831188971988402"><ele>282.0</ele><time>2026-04-10T09:36:58.999Z</time></trkpt><trkpt lat="44.830710827245305" lon="7.831200137387754"><ele>282.0</ele><time>2026-04-10T09:37:00.999Z</time></trkpt><trkpt lat="44.83079330712065" lon="7.831296024573369"><ele>282.0</ele><time>2026-04-10T09:37:02.999Z</time></trkpt><trkpt lat="44.830847524687265" lon="7.831397101210288"><ele>282.0</ele><time>2026-04-10T09:37:04.999Z</time></trkpt><trkpt lat="44.830898580202046" lon="7.831492530878275"><ele>282.0</ele><time>2026-04-10T09:37:06.999Z</time></trkpt><trkpt lat="44.83096238664369" lon="7.831604665131827"><ele>282.0</ele><time>2026-04-10T09:37:08.999Z</time></trkpt><trkpt lat="44.831013533870625" lon="7.831725011775046"><ele>282.0</ele><time>2026-04-10T09:37:10.999Z</time></trkpt><trkpt lat="44.83105159211761" lon="7.831838178484898"><ele>282.0</ele><time>2026-04-10T09:37:12.999Z</time></trkpt><trkpt lat="44.83110603774174" lon="7.831951436118255"><ele>282.0</ele><time>2026-04-10T09:37:14.999Z</time></trkpt><trkpt lat="44.831162028365156" lon="7.832063999318198"><ele>282.0</ele><time>2026-04-10T09:37:16.999Z</time></trkpt><trkpt lat="44.83120985515413" lon="7.832173622655175"><ele>282.0</ele><time>2026-04-10T09:37:18.999Z</time></trkpt><trkpt lat="44.83126421730572" lon="7.832284834696312"><ele>282.0</ele><time>2026-04-10T09:37:20.999Z</time></trkpt><trkpt lat="44.831320649811325" lon="7.8323922079897645"><ele>282.0</ele><time>2026-04-10T09:37:22.999Z</time></trkpt><trkpt lat="44.83137391906345" lon="7.832500475546827"><ele>282.0</ele><time>2026-04-10T09:37:24.999Z</time></trkpt><trkpt lat="44.8314243900829" lon="7.8326331132618"><ele>282.0</ele><time>2026-04-10T09:37:26.999Z</time></trkpt><trkpt lat="44.83146583710311" lon="7.832759559083481"><ele>282.2</ele><time>2026-04-10T09:37:28.999Z</time></trkpt><trkpt lat="44.8315178625051" lon="7.832873526724"><ele>282.4</ele><time>2026-04-10T09:37:30.999Z</time></trkpt><trkpt lat="44.831593284908244" lon="7.832990048985732"><ele>282.6</ele><time>2026-04-10T09:37:32.999Z</time></trkpt><trkpt lat="44.83165308560156" lon="7.833071697929739"><ele>282.8</ele><time>2026-04-10T09:37:34.999Z</time></trkpt><trkpt lat="44.83172247848871" lon="7.83315464541669"><ele>283.0</ele><time>2026-04-10T09:37:36.999Z</time></trkpt><trkpt lat="44.831773258798606" lon="7.833218731805057"><ele>283.66666666666663</ele><time>2026-04-10T09:37:38.999Z</time></trkpt><trkpt lat="44.831850461773946" lon="7.833159109178139"><ele>284.3333333333333</ele><time>2026-04-10T09:37:42.999Z</time></trkpt><trkpt lat="44.83189339347723" lon="7.833061718592255"><ele>285.0</ele><time>2026-04-10T09:37:45.999Z</time></trkpt><trkpt lat="44.83194794514789" lon="7.832967939131524"><ele>285.6666666666667</ele><time>2026-04-10T09:37:48.999Z</time></trkpt><trkpt lat="44.83197969591438" lon="7.832870988519133"><ele>286.33333333333337</ele><time>2026-04-10T09:37:50.999Z</time></trkpt><trkpt lat="44.83202658103817" lon="7.832810313083653"><ele>287.0</ele><time>2026-04-10T09:37:52.999Z</time></trkpt><trkpt lat="44.83207178166957" lon="7.832730835989321"><ele>286.83333333333337</ele><time>2026-04-10T09:37:54.999Z</time></trkpt><trkpt lat="44.832118766316" lon="7.832634045779962"><ele>286.6666666666667</ele><time>2026-04-10T09:37:56.999Z</time></trkpt><trkpt lat="44.83216022593893" lon="7.8325475641011435"><ele>286.5</ele><time>2026-04-10T09:37:58.999Z</time></trkpt><trkpt lat="44.832215683325046" lon="7.832452146053921"><ele>286.3333333333333</ele><time>2026-04-10T09:38:00.999Z</time></trkpt><trkpt lat="44.83228368690052" lon="7.832347437716876"><ele>286.16666666666663</ele><time>2026-04-10T09:38:02.999Z</time></trkpt><trkpt lat="44.83234633470372" lon="7.832239976132775"><ele>286.0</ele><time>2026-04-10T09:38:04.999Z</time></trkpt><trkpt lat="44.83240251636792" lon="7.832116801166845"><ele>286.0</ele><time>2026-04-10T09:38:06.999Z</time></trkpt><trkpt lat="44.8324506783887" lon="7.831996868588727"><ele>286.0</ele><time>2026-04-10T09:38:08.999Z</time></trkpt><trkpt lat="44.83251351650464" lon="7.831879682282235"><ele>286.0</ele><time>2026-04-10T09:38:10.999Z</time></trkpt><trkpt lat="44.83256925112842" lon="7.831760085345775"><ele>286.0</ele><time>2026-04-10T09:38:12.999Z</time></trkpt><trkpt lat="44.83262994828602" lon="7.831639779795564"><ele>286.0</ele><time>2026-04-10T09:38:14.999Z</time></trkpt><trkpt lat="44.832707949909455" lon="7.83153806178547"><ele>285.0</ele><time>2026-04-10T09:38:16.999Z</time></trkpt><trkpt lat="44.83278375226457" lon="7.831432279123265"><ele>284.0</ele><time>2026-04-10T09:38:18.999Z</time></trkpt><trkpt lat="44.8328533673638" lon="7.831309144286471"><ele>283.0</ele><time>2026-04-10T09:38:20.999Z</time></trkpt><trkpt lat="44.83292172947783" lon="7.831193662976029"><ele>282.0</ele><time>2026-04-10T09:38:22.999Z</time></trkpt><trkpt lat="44.83297118413367" lon="7.831091548673124"><ele>281.0</ele><time>2026-04-10T09:38:24.999Z</time></trkpt><trkpt lat="44.83301472314609" lon="7.8309893582829"><ele>281.0</ele><time>2026-04-10T09:38:26.999Z</time></trkpt><trkpt lat="44.833079202716476" lon="7.830896031731922"><ele>281.0</ele><time>2026-04-10T09:38:28.999Z</time></trkpt><trkpt lat="44.83312902343322" lon="7.830785437279696"><ele>281.0</ele><time>2026-04-10T09:38:30.999Z</time></trkpt><trkpt lat="44.833194395994546" lon="7.830677362593604"><ele>281.0</ele><time>2026-04-10T09:38:32.999Z</time></trkpt><trkpt lat="44.833269815089004" lon="7.830567185450814"><ele>281.0</ele><time>2026-04-10T09:38:34.999Z</time></trkpt><trkpt lat="44.83333886365249" lon="7.830461735020018"><ele>281.0</ele><time>2026-04-10T09:38:36.999Z</time></trkpt><trkpt lat="44.83341075787365" lon="7.830336552446539"><ele>281.0</ele><time>2026-04-10T09:38:38.999Z</time></trkpt><trkpt lat="44.83347669015238" lon="7.8301989417454445"><ele>281.0</ele><time>2026-04-10T09:38:40.999Z</time></trkpt><trkpt lat="44.833510012383556" lon="7.830121512301287"><ele>281.0</ele><time>2026-04-10T09:38:41.999Z</time></trkpt><trkpt lat="44.83354511868283" lon="7.830042428979692"><ele>281.0</ele><time>2026-04-10T09:38:42.999Z</time></trkpt><trkpt lat="44.83358231272241" lon="7.829964241841681"><ele>281.0</ele><time>2026-04-10T09:38:43.999Z</time></trkpt><trkpt lat="44.83362211771154" lon="7.829893317043856"><ele>280.8</ele><time>2026-04-10T09:38:44.999Z</time></trkpt><trkpt lat="44.83370788884339" lon="7.829764474766758"><ele>280.6</ele><time>2026-04-10T09:38:46.999Z</time></trkpt><trkpt lat="44.83375128811942" lon="7.829691527176047"><ele>280.4</ele><time>2026-04-10T09:38:47.999Z</time></trkpt><trkpt lat="44.83381899533881" lon="7.829565959159373"><ele>280.2</ele><time>2026-04-10T09:38:49.999Z</time></trkpt><trkpt lat="44.83388665951338" lon="7.82945426758602"><ele>280.0</ele><time>2026-04-10T09:38:51.999Z</time></trkpt><trkpt lat="44.833947863276364" lon="7.829328853330775"><ele>279.8</ele><time>2026-04-10T09:38:53.999Z</time></trkpt><trkpt lat="44.83402904753682" lon="7.829205671821382"><ele>279.6</ele><time>2026-04-10T09:38:55.999Z</time></trkpt><trkpt lat="44.834078199269705" lon="7.82914101218412"><ele>279.4</ele><time>2026-04-10T09:38:56.999Z</time></trkpt><trkpt lat="44.834159477197296" lon="7.829013674796078"><ele>279.2</ele><time>2026-04-10T09:38:58.999Z</time></trkpt><trkpt lat="44.83420765107368" lon="7.8289211617515555"><ele>279.0</ele><time>2026-04-10T09:39:00.999Z</time></trkpt><trkpt lat="44.83427105977197" lon="7.828818502447265"><ele>279.3333333333333</ele><time>2026-04-10T09:39:02.999Z</time></trkpt><trkpt lat="44.83432776749726" lon="7.82874741556653"><ele>279.6666666666667</ele><time>2026-04-10T09:39:04.999Z</time></trkpt><trkpt lat="44.83438457150442" lon="7.828680545718204"><ele>280.0</ele><time>2026-04-10T09:39:06.999Z</time></trkpt><trkpt lat="44.83445327383913" lon="7.828603443311651"><ele>280.33333333333337</ele><time>2026-04-10T09:39:08.999Z</time></trkpt><trkpt lat="44.83452364031515" lon="7.828499598779949"><ele>280.6666666666667</ele><time>2026-04-10T09:39:10.999Z</time></trkpt><trkpt lat="44.83457040265384" lon="7.82840058075798"><ele>281.0</ele><time>2026-04-10T09:39:12.999Z</time></trkpt><trkpt lat="44.83463885790214" lon="7.828295660443383"><ele>281.0</ele><time>2026-04-10T09:39:14.999Z</time></trkpt><trkpt lat="44.834713510924146" lon="7.828182099579231"><ele>281.0</ele><time>2026-04-10T09:39:16.999Z</time></trkpt><trkpt lat="44.83478164116515" lon="7.828102975768708"><ele>281.0</ele><time>2026-04-10T09:39:18.999Z</time></trkpt><trkpt lat="44.834856884030515" lon="7.828018854700656"><ele>281.0</ele><time>2026-04-10T09:39:20.999Z</time></trkpt><trkpt lat="44.83492499478211" lon="7.8279130078977355"><ele>281.0</ele><time>2026-04-10T09:39:22.999Z</time></trkpt><trkpt lat="44.834990014109785" lon="7.827800025309836"><ele>281.0</ele><time>2026-04-10T09:39:24.999Z</time></trkpt><trkpt lat="44.83502894829551" lon="7.8277259924503815"><ele>281.0</ele><time>2026-04-10T09:39:25.999Z</time></trkpt><trkpt lat="44.83507992656787" lon="7.827638779984387"><ele>281.0</ele><time>2026-04-10T09:39:27.999Z</time></trkpt><trkpt lat="44.83512894999335" lon="7.827532992937187"><ele>281.0</ele><time>2026-04-10T09:39:29.999Z</time></trkpt><trkpt lat="44.835180320999044" lon="7.827448594991984"><ele>281.0</ele><time>2026-04-10T09:39:31.999Z</time></trkpt><trkpt lat="44.83525100546029" lon="7.827359679980066"><ele>281.0</ele><time>2026-04-10T09:39:33.999Z</time></trkpt><trkpt lat="44.835326847758665" lon="7.82726163004177"><ele>280.0</ele><time>2026-04-10T09:39:35.999Z</time></trkpt><trkpt lat="44.835395958851294" lon="7.827184377418752"><ele>279.0</ele><time>2026-04-10T09:39:37.999Z</time></trkpt><trkpt lat="44.835460469315095" lon="7.827089201377621"><ele>278.0</ele><time>2026-04-10T09:39:39.999Z</time></trkpt><trkpt lat="44.8355415586849" lon="7.82695641417492"><ele>277.0</ele><time>2026-04-10T09:39:41.999Z</time></trkpt><trkpt lat="44.83561691291467" lon="7.826827744037606"><ele>276.0</ele><time>2026-04-10T09:39:43.999Z</time></trkpt><trkpt lat="44.83568736088819" lon="7.826697275906215"><ele>276.0</ele><time>2026-04-10T09:39:45.999Z</time></trkpt><trkpt lat="44.83573001399998" lon="7.826622744324815"><ele>276.0</ele><time>2026-04-10T09:39:46.999Z</time></trkpt><trkpt lat="44.835772086099304" lon="7.8265509013909895"><ele>276.0</ele><time>2026-04-10T09:39:47.999Z</time></trkpt><trkpt lat="44.83585564561266" lon="7.826434502406736"><ele>276.0</ele><time>2026-04-10T09:39:49.999Z</time></trkpt><trkpt lat="44.83593585549432" lon="7.82632887000767"><ele>276.0</ele><time>2026-04-10T09:39:51.999Z</time></trkpt><trkpt lat="44.8360089554864" lon="7.826212204045561"><ele>275.8</ele><time>2026-04-10T09:39:53.999Z</time></trkpt><trkpt lat="44.836074670414106" lon="7.826085340524253"><ele>275.6</ele><time>2026-04-10T09:39:55.999Z</time></trkpt><trkpt lat="44.83615196733037" lon="7.8259669717554345"><ele>275.4</ele><time>2026-04-10T09:39:57.999Z</time></trkpt><trkpt lat="44.83619816383911" lon="7.825901906066541"><ele>275.2</ele><time>2026-04-10T09:39:58.999Z</time></trkpt><trkpt lat="44.836282163319645" lon="7.825765942252379"><ele>275.0</ele><time>2026-04-10T09:40:00.999Z</time></trkpt><trkpt lat="44.836327263535686" lon="7.825685967749701"><ele>275.0</ele><time>2026-04-10T09:40:01.999Z</time></trkpt><trkpt lat="44.8363733771051" lon="7.825616283730321"><ele>275.0</ele><time>2026-04-10T09:40:02.999Z</time></trkpt><trkpt lat="44.83642214494253" lon="7.8255428313156195"><ele>275.0</ele><time>2026-04-10T09:40:03.999Z</time></trkpt><trkpt lat="44.83649173202427" lon="7.825435857704947"><ele>275.0</ele><time>2026-04-10T09:40:05.999Z</time></trkpt><trkpt lat="44.83653769616629" lon="7.825365735755919"><ele>275.0</ele><time>2026-04-10T09:40:06.999Z</time></trkpt><trkpt lat="44.83658734443986" lon="7.8252923181310186"><ele>275.0</ele><time>2026-04-10T09:40:07.999Z</time></trkpt><trkpt lat="44.83666594671083" lon="7.825179708292595"><ele>274.6</ele><time>2026-04-10T09:40:09.999Z</time></trkpt><trkpt lat="44.83675416083055" lon="7.825073501843697"><ele>274.2</ele><time>2026-04-10T09:40:11.999Z</time></trkpt><trkpt lat="44.83684649170479" lon="7.824956889662875"><ele>273.8</ele><time>2026-04-10T09:40:13.999Z</time></trkpt><trkpt lat="44.836899882549105" lon="7.824883825077889"><ele>273.4</ele><time>2026-04-10T09:40:14.999Z</time></trkpt><trkpt lat="44.83697587438845" lon="7.824789983981439"><ele>273.0</ele><time>2026-04-10T09:40:16.999Z</time></trkpt><trkpt lat="44.8370465787776" lon="7.824707908681414"><ele>272.8333333333333</ele><time>2026-04-10T09:40:18.999Z</time></trkpt><trkpt lat="44.83708929424025" lon="7.824633770171203"><ele>272.6666666666667</ele><time>2026-04-10T09:40:19.999Z</time></trkpt><trkpt lat="44.83716079436623" lon="7.824527475509667"><ele>272.5</ele><time>2026-04-10T09:40:22Z</time></trkpt><trkpt lat="44.837203944336586" lon="7.8244541392367735"><ele>272.33333333333337</ele><time>2026-04-10T09:40:23Z</time></trkpt><trkpt lat="44.837230184753345" lon="7.824278420966336"><ele>272.1666666666667</ele><time>2026-04-10T09:40:25Z</time></trkpt><trkpt lat="44.83720431193298" lon="7.824182719787446"><ele>272.0</ele><time>2026-04-10T09:40:26Z</time></trkpt><trkpt lat="44.83718248650683" lon="7.824092684232829"><ele>271.75</ele><time>2026-04-10T09:40:27Z</time></trkpt><trkpt lat="44.837120881458304" lon="7.823928158076289"><ele>271.5</ele><time>2026-04-10T09:40:29Z</time></trkpt><trkpt lat="44.837052103752555" lon="7.823782620823399"><ele>271.25</ele><time>2026-04-10T09:40:31Z</time></trkpt><trkpt lat="44.83699336048995" lon="7.82364006876528"><ele>271.0</ele><time>2026-04-10T09:40:33Z</time></trkpt><trkpt lat="44.83693120126102" lon="7.823497951559529"><ele>271.0</ele><time>2026-04-10T09:40:35Z</time></trkpt><trkpt lat="44.836888691323956" lon="7.823404092709173"><ele>271.0</ele><time>2026-04-10T09:40:36Z</time></trkpt><trkpt lat="44.836835638341554" lon="7.823255896536446"><ele>271.0</ele><time>2026-04-10T09:40:38Z</time></trkpt><trkpt lat="44.83677857262035" lon="7.823121298161588"><ele>271.0</ele><time>2026-04-10T09:40:40Z</time></trkpt><trkpt lat="44.83673565310948" lon="7.822989770809548"><ele>271.0</ele><time>2026-04-10T09:40:42Z</time></trkpt><trkpt lat="44.836702954064954" lon="7.8229036791578235"><ele>271.75</ele><time>2026-04-10T09:40:43Z</time></trkpt><trkpt lat="44.836655554528654" lon="7.822752035775802"><ele>272.5</ele><time>2026-04-10T09:40:45Z</time></trkpt><trkpt lat="44.83659398022422" lon="7.822607483159446"><ele>273.25</ele><time>2026-04-10T09:40:47Z</time></trkpt><trkpt lat="44.83653695664287" lon="7.822464350549603"><ele>274.0</ele><time>2026-04-10T09:40:49Z</time></trkpt><trkpt lat="44.83647644895947" lon="7.822321663858063"><ele>274.2</ele><time>2026-04-10T09:40:51Z</time></trkpt><trkpt lat="44.83642361328234" lon="7.822176188347849"><ele>274.4</ele><time>2026-04-10T09:40:53Z</time></trkpt><trkpt lat="44.83637375263133" lon="7.822027166721318"><ele>274.6</ele><time>2026-04-10T09:40:55Z</time></trkpt><trkpt lat="44.83632901696471" lon="7.821881162669273"><ele>274.8</ele><time>2026-04-10T09:40:57Z</time></trkpt><trkpt lat="44.836307333788795" lon="7.821745531934872"><ele>275.0</ele><time>2026-04-10T09:40:59Z</time></trkpt><trkpt lat="44.8363810987048" lon="7.821661554344077"><ele>275.4</ele><time>2026-04-10T09:41:01Z</time></trkpt><trkpt lat="44.8364867486027" lon="7.82155837165068"><ele>275.8</ele><time>2026-04-10T09:41:03Z</time></trkpt><trkpt lat="44.83653844632921" lon="7.821491947891187"><ele>276.2</ele><time>2026-04-10T09:41:04Z</time></trkpt><trkpt lat="44.83662868000319" lon="7.821366199349363"><ele>276.6</ele><time>2026-04-10T09:41:06Z</time></trkpt><trkpt lat="44.83667956852084" lon="7.821294150443649"><ele>277.0</ele><time>2026-04-10T09:41:07Z</time></trkpt><trkpt lat="44.836727051991815" lon="7.82122932372798"><ele>276.8</ele><time>2026-04-10T09:41:08Z</time></trkpt><trkpt lat="44.83682296865864" lon="7.821104947499744"><ele>276.6</ele><time>2026-04-10T09:41:10Z</time></trkpt><trkpt lat="44.83691288759805" lon="7.820980459090406"><ele>276.40000000000003</ele><time>2026-04-10T09:41:12Z</time></trkpt><trkpt lat="44.83697344207904" lon="7.820901522051298"><ele>276.2</ele><time>2026-04-10T09:41:13Z</time></trkpt><trkpt lat="44.83703462274348" lon="7.820821106845415"><ele>276.0</ele><time>2026-04-10T09:41:14Z</time></trkpt><trkpt lat="44.837087072983955" lon="7.8207467894029605"><ele>276.0</ele><time>2026-04-10T09:41:15Z</time></trkpt><trkpt lat="44.83713553164569" lon="7.820680048507586"><ele>276.0</ele><time>2026-04-10T09:41:16Z</time></trkpt><trkpt lat="44.837185685653154" lon="7.820611713011857"><ele>276.0</ele><time>2026-04-10T09:41:17Z</time></trkpt><trkpt lat="44.83722913144612" lon="7.820547377404144"><ele>276.0</ele><time>2026-04-10T09:41:18Z</time></trkpt><trkpt lat="44.837274085298745" lon="7.820482287630354"><ele>276.0</ele><time>2026-04-10T09:41:19Z</time></trkpt><trkpt lat="44.837319278869856" lon="7.820415820160275"><ele>276.0</ele><time>2026-04-10T09:41:20Z</time></trkpt><trkpt lat="44.83736387928094" lon="7.8203507620860595"><ele>276.0</ele><time>2026-04-10T09:41:21Z</time></trkpt><trkpt lat="44.83741157846433" lon="7.820286068556148"><ele>276.0</ele><time>2026-04-10T09:41:22Z</time></trkpt><trkpt lat="44.83750522553994" lon="7.8201554506813995"><ele>276.0</ele><time>2026-04-10T09:41:24Z</time></trkpt><trkpt lat="44.837556081427934" lon="7.820089586272406"><ele>276.0</ele><time>2026-04-10T09:41:25Z</time></trkpt><trkpt lat="44.83760462542104" lon="7.820022883746054"><ele>276.0</ele><time>2026-04-10T09:41:26Z</time></trkpt><trkpt lat="44.83765108903326" lon="7.8199561087487615"><ele>276.0</ele><time>2026-04-10T09:41:27Z</time></trkpt><trkpt lat="44.8376979354338" lon="7.819888217315472"><ele>276.0</ele><time>2026-04-10T09:41:28Z</time></trkpt><trkpt lat="44.83775149148979" lon="7.819812551405118"><ele>276.0</ele><time>2026-04-10T09:41:29Z</time></trkpt><trkpt lat="44.8377993236914" lon="7.8197434878546055"><ele>276.0</ele><time>2026-04-10T09:41:30Z</time></trkpt><trkpt lat="44.83784468140346" lon="7.819680693401521"><ele>276.0</ele><time>2026-04-10T09:41:31Z</time></trkpt><trkpt lat="44.837894920324295" lon="7.8196116378488965"><ele>276.0</ele><time>2026-04-10T09:41:32Z</time></trkpt><trkpt lat="44.83794671978936" lon="7.819542553045436"><ele>276.0</ele><time>2026-04-10T09:41:33Z</time></trkpt><trkpt lat="44.838003461082266" lon="7.819470452636394"><ele>276.0</ele><time>2026-04-10T09:41:34Z</time></trkpt><trkpt lat="44.838053077397845" lon="7.8193987146842625"><ele>276.0</ele><time>2026-04-10T09:41:35Z</time></trkpt><trkpt lat="44.83810083662086" lon="7.819327302856096"><ele>275.8571428571429</ele><time>2026-04-10T09:41:36Z</time></trkpt><trkpt lat="44.8381525633328" lon="7.819253636579212"><ele>275.7142857142857</ele><time>2026-04-10T09:41:37Z</time></trkpt><trkpt lat="44.83820144728956" lon="7.819179168760136"><ele>275.57142857142856</ele><time>2026-04-10T09:41:38Z</time></trkpt><trkpt lat="44.83824878862797" lon="7.819113208535907"><ele>275.42857142857144</ele><time>2026-04-10T09:41:39Z</time></trkpt><trkpt lat="44.83829626899858" lon="7.819045948409207"><ele>275.2857142857143</ele><time>2026-04-10T09:41:40Z</time></trkpt><trkpt lat="44.838346287202235" lon="7.818976048249935"><ele>275.14285714285717</ele><time>2026-04-10T09:41:41Z</time></trkpt><trkpt lat="44.83839957305062" lon="7.818916589369458"><ele>275.0</ele><time>2026-04-10T09:41:42Z</time></trkpt><trkpt lat="44.83845004712482" lon="7.818847292737566"><ele>275.0</ele><time>2026-04-10T09:41:43Z</time></trkpt><trkpt lat="44.83850130181238" lon="7.818776616688239"><ele>275.0</ele><time>2026-04-10T09:41:44Z</time></trkpt><trkpt lat="44.838554059462616" lon="7.818698795811325"><ele>275.0</ele><time>2026-04-10T09:41:45Z</time></trkpt><trkpt lat="44.838605866521405" lon="7.818621339026903"><ele>275.0</ele><time>2026-04-10T09:41:46Z</time></trkpt><trkpt lat="44.83866351068103" lon="7.818540814488457"><ele>275.0</ele><time>2026-04-10T09:41:47Z</time></trkpt><trkpt lat="44.83871813992851" lon="7.818469915064692"><ele>275.0</ele><time>2026-04-10T09:41:48Z</time></trkpt><trkpt lat="44.83876973072869" lon="7.818385656752046"><ele>274.6666666666667</ele><time>2026-04-10T09:41:49Z</time></trkpt><trkpt lat="44.83882086580112" lon="7.818303277236287"><ele>274.33333333333337</ele><time>2026-04-10T09:41:50Z</time></trkpt><trkpt lat="44.838877551753136" lon="7.818221699136436"><ele>274.0</ele><time>2026-04-10T09:41:51Z</time></trkpt><trkpt lat="44.83892896418877" lon="7.818141226495723"><ele>273.6666666666667</ele><time>2026-04-10T09:41:52Z</time></trkpt><trkpt lat="44.83898232511174" lon="7.818063334539572"><ele>273.3333333333333</ele><time>2026-04-10T09:41:53Z</time></trkpt><trkpt lat="44.839030475248585" lon="7.817986636671138"><ele>273.0</ele><time>2026-04-10T09:41:54Z</time></trkpt><trkpt lat="44.839072423740866" lon="7.817913586346157"><ele>273.0</ele><time>2026-04-10T09:41:55Z</time></trkpt><trkpt lat="44.83911770480824" lon="7.817841988979004"><ele>273.0</ele><time>2026-04-10T09:41:56Z</time></trkpt><trkpt lat="44.83916525334301" lon="7.817768905238628"><ele>273.0</ele><time>2026-04-10T09:41:57Z</time></trkpt><trkpt lat="44.83921382435779" lon="7.817695492883984"><ele>273.0</ele><time>2026-04-10T09:41:58Z</time></trkpt><trkpt lat="44.839257946293195" lon="7.8176308272389825"><ele>273.0</ele><time>2026-04-10T09:41:59Z</time></trkpt><trkpt lat="44.839315964681454" lon="7.81754988773411"><ele>273.0</ele><time>2026-04-10T09:42:00Z</time></trkpt><trkpt lat="44.83936822157575" lon="7.817470734124544"><ele>273.0</ele><time>2026-04-10T09:42:01Z</time></trkpt><trkpt lat="44.83942809394192" lon="7.817389951919872"><ele>273.1666666666667</ele><time>2026-04-10T09:42:02Z</time></trkpt><trkpt lat="44.83948595180468" lon="7.817315626058634"><ele>273.3333333333333</ele><time>2026-04-10T09:42:03Z</time></trkpt><trkpt lat="44.83953932713236" lon="7.817238616400466"><ele>273.5</ele><time>2026-04-10T09:42:04Z</time></trkpt><trkpt lat="44.83959440229846" lon="7.817163981236446"><ele>273.66666666666663</ele><time>2026-04-10T09:42:05Z</time></trkpt><trkpt lat="44.83964083980069" lon="7.817097381629227"><ele>273.8333333333333</ele><time>2026-04-10T09:42:06Z</time></trkpt><trkpt lat="44.839700396253846" lon="7.817024097987299"><ele>274.0</ele><time>2026-04-10T09:42:07Z</time></trkpt><trkpt lat="44.839758043942375" lon="7.816957635028199"><ele>274.0</ele><time>2026-04-10T09:42:08Z</time></trkpt><trkpt lat="44.83981552023786" lon="7.816882315558857"><ele>274.0</ele><time>2026-04-10T09:42:09Z</time></trkpt><trkpt lat="44.839874933705715" lon="7.816815555206354"><ele>274.0</ele><time>2026-04-10T09:42:10Z</time></trkpt><trkpt lat="44.83993225810582" lon="7.816761269531325"><ele>274.0</ele><time>2026-04-10T09:42:11Z</time></trkpt><trkpt lat="44.84003447712651" lon="7.816712463645433"><ele>274.0</ele><time>2026-04-10T09:42:13Z</time></trkpt><trkpt lat="44.84014872761221" lon="7.816770634696288"><ele>273.3333333333333</ele><time>2026-04-10T09:42:15Z</time></trkpt><trkpt lat="44.840198581918706" lon="7.816829865492869"><ele>272.66666666666663</ele><time>2026-04-10T09:42:16Z</time></trkpt><trkpt lat="44.840253907236885" lon="7.816892031586812"><ele>272.0</ele><time>2026-04-10T09:42:17Z</time></trkpt><trkpt lat="44.84030843279769" lon="7.8169462986591824"><ele>271.3333333333333</ele><time>2026-04-10T09:42:18Z</time></trkpt><trkpt lat="44.840358092944044" lon="7.817005459286228"><ele>270.6666666666667</ele><time>2026-04-10T09:42:19Z</time></trkpt><trkpt lat="44.84045400531784" lon="7.817112663670803"><ele>270.0</ele><time>2026-04-10T09:42:21Z</time></trkpt><trkpt lat="44.84055550738523" lon="7.817216333510876"><ele>270.0</ele><time>2026-04-10T09:42:23Z</time></trkpt><trkpt lat="44.84065518018131" lon="7.817313433587019"><ele>270.0</ele><time>2026-04-10T09:42:25Z</time></trkpt><trkpt lat="44.840770417222245" lon="7.8173882690061784"><ele>270.0</ele><time>2026-04-10T09:42:27Z</time></trkpt><trkpt lat="44.8408320717527" lon="7.817432782019787"><ele>270.0</ele><time>2026-04-10T09:42:28Z</time></trkpt><trkpt lat="44.84089022253543" lon="7.817479220043512"><ele>270.0</ele><time>2026-04-10T09:42:29Z</time></trkpt><trkpt lat="44.84094727257497" lon="7.817525274991293"><ele>270.0</ele><time>2026-04-10T09:42:30Z</time></trkpt><trkpt lat="44.841004943531644" lon="7.817567051814583"><ele>270.0</ele><time>2026-04-10T09:42:31Z</time></trkpt><trkpt lat="44.84106388798422" lon="7.817616550816169"><ele>270.0</ele><time>2026-04-10T09:42:32Z</time></trkpt><trkpt lat="44.8411247961802" lon="7.817659402181296"><ele>270.0</ele><time>2026-04-10T09:42:33Z</time></trkpt><trkpt lat="44.8411836809543" lon="7.817699300220281"><ele>270.0</ele><time>2026-04-10T09:42:34Z</time></trkpt><trkpt lat="44.84124444774064" lon="7.817743625355296"><ele>270.0</ele><time>2026-04-10T09:42:35Z</time></trkpt><trkpt lat="44.84130867485482" lon="7.817780716021698"><ele>270.0</ele><time>2026-04-10T09:42:36Z</time></trkpt><trkpt lat="44.84137488807972" lon="7.817813449624942"><ele>270.0</ele><time>2026-04-10T09:42:37Z</time></trkpt><trkpt lat="44.84144287974598" lon="7.817832200391304"><ele>270.0</ele><time>2026-04-10T09:42:38Z</time></trkpt><trkpt lat="44.841514381294346" lon="7.817852041202831"><ele>270.0</ele><time>2026-04-10T09:42:39Z</time></trkpt><trkpt lat="44.841586455224295" lon="7.817858894008435"><ele>270.0</ele><time>2026-04-10T09:42:40Z</time></trkpt><trkpt lat="44.841663802559665" lon="7.817858458932932"><ele>270.0</ele><time>2026-04-10T09:42:41Z</time></trkpt><trkpt lat="44.84174019787706" lon="7.817856105533025"><ele>270.0</ele><time>2026-04-10T09:42:42Z</time></trkpt><trkpt lat="44.84181543413121" lon="7.8178502233088345"><ele>270.0</ele><time>2026-04-10T09:42:43Z</time></trkpt><trkpt lat="44.84189205998978" lon="7.817843622048974"><ele>269.5</ele><time>2026-04-10T09:42:44Z</time></trkpt><trkpt lat="44.84197030482142" lon="7.817841955119221"><ele>269.0</ele><time>2026-04-10T09:42:45Z</time></trkpt><trkpt lat="44.842041216017705" lon="7.817839793570064"><ele>268.5</ele><time>2026-04-10T09:42:46Z</time></trkpt><trkpt lat="44.84211165844569" lon="7.817842800407434"><ele>268.0</ele><time>2026-04-10T09:42:47Z</time></trkpt><trkpt lat="44.84218428354989" lon="7.817848943615477"><ele>267.5</ele><time>2026-04-10T09:42:48Z</time></trkpt><trkpt lat="44.84225874198903" lon="7.817862907422185"><ele>267.0</ele><time>2026-04-10T09:42:49Z</time></trkpt><trkpt lat="44.842342404972676" lon="7.8179026374910485"><ele>267.00000000000006</ele><time>2026-04-10T09:42:50Z</time></trkpt><trkpt lat="44.842406191759615" lon="7.8179350550205395"><ele>267.0</ele><time>2026-04-10T09:42:51Z</time></trkpt><trkpt lat="44.84247375986048" lon="7.817957878223849"><ele>267.0</ele><time>2026-04-10T09:42:52Z</time></trkpt><trkpt lat="44.842542132045175" lon="7.81797575620827"><ele>267.0</ele><time>2026-04-10T09:42:53Z</time></trkpt><trkpt lat="44.84261010941096" lon="7.817992856946395"><ele>267.0</ele><time>2026-04-10T09:42:54Z</time></trkpt><trkpt lat="44.84268834100437" lon="7.818010419007847"><ele>267.00000000000006</ele><time>2026-04-10T09:42:55Z</time></trkpt><trkpt lat="44.842754551639345" lon="7.8180129821117506"><ele>267.0</ele><time>2026-04-10T09:42:56Z</time></trkpt><trkpt lat="44.842877351230115" lon="7.8180182370565845"><ele>266.6666666666667</ele><time>2026-04-10T09:42:58Z</time></trkpt><trkpt lat="44.842947413399735" lon="7.81801769225967"><ele>266.3333333333333</ele><time>2026-04-10T09:42:59Z</time></trkpt><trkpt lat="44.843012023235495" lon="7.818017173284458"><ele>266.0</ele><time>2026-04-10T09:43:00Z</time></trkpt><trkpt lat="44.843086454343" lon="7.81801409893395"><ele>265.66666666666663</ele><time>2026-04-10T09:43:01Z</time></trkpt><trkpt lat="44.843150150523044" lon="7.818006076817192"><ele>265.3333333333333</ele><time>2026-04-10T09:43:02Z</time></trkpt><trkpt lat="44.84328178798645" lon="7.817991057376343"><ele>265.0</ele><time>2026-04-10T09:43:04Z</time></trkpt><trkpt lat="44.843345023587986" lon="7.817997973904528"><ele>264.99999999999994</ele><time>2026-04-10T09:43:05Z</time></trkpt><trkpt lat="44.84340934154508" lon="7.8180063102340505"><ele>265.0</ele><time>2026-04-10T09:43:06Z</time></trkpt><trkpt lat="44.84347785771486" lon="7.818023729133501"><ele>265.0</ele><time>2026-04-10T09:43:07Z</time></trkpt><trkpt lat="44.84354511539145" lon="7.818041799067739"><ele>265.0</ele><time>2026-04-10T09:43:08Z</time></trkpt><trkpt lat="44.843613773942245" lon="7.8180591617152935"><ele>265.0</ele><time>2026-04-10T09:43:09Z</time></trkpt><trkpt lat="44.843681933162244" lon="7.818074842473255"><ele>264.99999999999994</ele><time>2026-04-10T09:43:10Z</time></trkpt><trkpt lat="44.84374975107567" lon="7.818090909541497"><ele>265.0</ele><time>2026-04-10T09:43:11Z</time></trkpt><trkpt lat="44.84381983117748" lon="7.818111144097795"><ele>264.8333333333333</ele><time>2026-04-10T09:43:12Z</time></trkpt><trkpt lat="44.84388841655435" lon="7.818128705730361"><ele>264.66666666666663</ele><time>2026-04-10T09:43:13Z</time></trkpt><trkpt lat="44.84395932037365" lon="7.818149908032193"><ele>264.5</ele><time>2026-04-10T09:43:14Z</time></trkpt><trkpt lat="44.84402673313153" lon="7.818168077885593"><ele>264.3333333333333</ele><time>2026-04-10T09:43:15Z</time></trkpt><trkpt lat="44.84414478281049" lon="7.818197825250977"><ele>264.1666666666667</ele><time>2026-04-10T09:43:17Z</time></trkpt><trkpt lat="44.84421194130904" lon="7.818216620268224"><ele>264.0</ele><time>2026-04-10T09:43:18Z</time></trkpt><trkpt lat="44.84427966415868" lon="7.818214150597583"><ele>264.1666666666667</ele><time>2026-04-10T09:43:19Z</time></trkpt><trkpt lat="44.84434532873793" lon="7.81818835344614"><ele>264.3333333333333</ele><time>2026-04-10T09:43:20Z</time></trkpt><trkpt lat="44.8444520461512" lon="7.818102095385896"><ele>264.5</ele><time>2026-04-10T09:43:22Z</time></trkpt><trkpt lat="44.84450458356618" lon="7.818036928834301"><ele>264.66666666666663</ele><time>2026-04-10T09:43:23Z</time></trkpt><trkpt lat="44.844560020852555" lon="7.817974218572385"><ele>264.8333333333333</ele><time>2026-04-10T09:43:24Z</time></trkpt><trkpt lat="44.84461156371994" lon="7.817916718108445"><ele>265.0</ele><time>2026-04-10T09:43:25Z</time></trkpt><trkpt lat="44.84466474798321" lon="7.817861403201325"><ele>265.0</ele><time>2026-04-10T09:43:26Z</time></trkpt><trkpt lat="44.84472089946269" lon="7.817805257354012"><ele>265.0</ele><time>2026-04-10T09:43:27Z</time></trkpt><trkpt lat="44.84482422913752" lon="7.817702667509195"><ele>265.0</ele><time>2026-04-10T09:43:29Z</time></trkpt><trkpt lat="44.84488236228559" lon="7.817643433827553"><ele>265.0</ele><time>2026-04-10T09:43:30Z</time></trkpt><trkpt lat="44.8449428053891" lon="7.817580928103623"><ele>265.0</ele><time>2026-04-10T09:43:31Z</time></trkpt><trkpt lat="44.844998794171865" lon="7.817522194081372"><ele>265.0</ele><time>2026-04-10T09:43:32Z</time></trkpt><trkpt lat="44.84505142066414" lon="7.817465824092576"><ele>264.8333333333333</ele><time>2026-04-10T09:43:33Z</time></trkpt><trkpt lat="44.84511343313445" lon="7.817405159702985"><ele>264.66666666666663</ele><time>2026-04-10T09:43:34Z</time></trkpt><trkpt lat="44.845172326662976" lon="7.817345799556273"><ele>264.5</ele><time>2026-04-10T09:43:35Z</time></trkpt><trkpt lat="44.84522797903414" lon="7.817286384972716"><ele>264.3333333333333</ele><time>2026-04-10T09:43:36Z</time></trkpt><trkpt lat="44.84532998711261" lon="7.8171791574203"><ele>264.1666666666667</ele><time>2026-04-10T09:43:38Z</time></trkpt><trkpt lat="44.84538242041112" lon="7.817129327214838"><ele>264.0</ele><time>2026-04-10T09:43:39Z</time></trkpt><trkpt lat="44.845488999790454" lon="7.817036703571185"><ele>264.0</ele><time>2026-04-10T09:43:41Z</time></trkpt><trkpt lat="44.845543538976635" lon="7.816985961193838"><ele>264.0</ele><time>2026-04-10T09:43:42Z</time></trkpt><trkpt lat="44.84564576405926" lon="7.81688822043452"><ele>264.0</ele><time>2026-04-10T09:43:44Z</time></trkpt><trkpt lat="44.845745727383566" lon="7.816796063977475"><ele>264.0</ele><time>2026-04-10T09:43:46Z</time></trkpt><trkpt lat="44.845850181506286" lon="7.816699671608548"><ele>264.0</ele><time>2026-04-10T09:43:48Z</time></trkpt><trkpt lat="44.84590156432903" lon="7.816645857969968"><ele>263.8333333333333</ele><time>2026-04-10T09:43:49Z</time></trkpt><trkpt lat="44.845953115425914" lon="7.8165912565397875"><ele>263.6666666666667</ele><time>2026-04-10T09:43:50Z</time></trkpt><trkpt lat="44.84605806596297" lon="7.816484939225822"><ele>263.5</ele><time>2026-04-10T09:43:52Z</time></trkpt><trkpt lat="44.8461137967825" lon="7.8164254587362105"><ele>263.33333333333337</ele><time>2026-04-10T09:43:53Z</time></trkpt><trkpt lat="44.84616918995767" lon="7.816372340644745"><ele>263.1666666666667</ele><time>2026-04-10T09:43:54Z</time></trkpt><trkpt lat="44.846225507911164" lon="7.816314080919812"><ele>263.0</ele><time>2026-04-10T09:43:55Z</time></trkpt><trkpt lat="44.84628194431992" lon="7.816255739517535"><ele>263.0</ele><time>2026-04-10T09:43:56Z</time></trkpt><trkpt lat="44.84633632635003" lon="7.8162087963657685"><ele>263.0</ele><time>2026-04-10T09:43:57Z</time></trkpt><trkpt lat="44.84639449011376" lon="7.8161623099800295"><ele>263.0</ele><time>2026-04-10T09:43:58Z</time></trkpt><trkpt lat="44.84645409556518" lon="7.816126590611712"><ele>263.0</ele><time>2026-04-10T09:43:59Z</time></trkpt><trkpt lat="44.846517503919216" lon="7.816092117328802"><ele>263.0</ele><time>2026-04-10T09:44:00Z</time></trkpt><trkpt lat="44.84658124099267" lon="7.816058332397017"><ele>263.0</ele><time>2026-04-10T09:44:01Z</time></trkpt><trkpt lat="44.84664867672444" lon="7.816024778677905"><ele>263.0</ele><time>2026-04-10T09:44:02Z</time></trkpt><trkpt lat="44.84671354041725" lon="7.815996742510943"><ele>263.0</ele><time>2026-04-10T09:44:03Z</time></trkpt><trkpt lat="44.84677674005163" lon="7.8159708196344315"><ele>263.0</ele><time>2026-04-10T09:44:04Z</time></trkpt><trkpt lat="44.84683911686218" lon="7.815944465348325"><ele>263.0</ele><time>2026-04-10T09:44:05Z</time></trkpt><trkpt lat="44.846906625088614" lon="7.81591369532262"><ele>263.0</ele><time>2026-04-10T09:44:06Z</time></trkpt><trkpt lat="44.8469684101681" lon="7.815881833131352"><ele>263.0</ele><time>2026-04-10T09:44:06.999Z</time></trkpt><trkpt lat="44.84703125103605" lon="7.815854809360257"><ele>263.0</ele><time>2026-04-10T09:44:07.999Z</time></trkpt><trkpt lat="44.84709378935979" lon="7.8158292861152665"><ele>263.0</ele><time>2026-04-10T09:44:08.999Z</time></trkpt><trkpt lat="44.847216931043945" lon="7.8157771608997475"><ele>262.6666666666667</ele><time>2026-04-10T09:44:10.999Z</time></trkpt><trkpt lat="44.84728192762561" lon="7.815746495856115"><ele>262.33333333333337</ele><time>2026-04-10T09:44:11.999Z</time></trkpt><trkpt lat="44.84739505339455" lon="7.81568544754248"><ele>262.0</ele><time>2026-04-10T09:44:13.999Z</time></trkpt><trkpt lat="44.84745649207953" lon="7.815653222678145"><ele>261.6666666666667</ele><time>2026-04-10T09:44:14.999Z</time></trkpt><trkpt lat="44.8475170197268" lon="7.815621989967531"><ele>261.3333333333333</ele><time>2026-04-10T09:44:15.999Z</time></trkpt><trkpt lat="44.84758248830545" lon="7.815602462494703"><ele>261.0</ele><time>2026-04-10T09:44:16.999Z</time></trkpt><trkpt lat="44.8476434294876" lon="7.8155745660156155"><ele>261.0</ele><time>2026-04-10T09:44:17.999Z</time></trkpt><trkpt lat="44.84770560634604" lon="7.815546346832777"><ele>261.0</ele><time>2026-04-10T09:44:18.999Z</time></trkpt><trkpt lat="44.84782914898022" lon="7.815485572292771"><ele>261.0</ele><time>2026-04-10T09:44:20.999Z</time></trkpt><trkpt lat="44.847890007298645" lon="7.815457657386262"><ele>261.0</ele><time>2026-04-10T09:44:21.999Z</time></trkpt><trkpt lat="44.8480057539948" lon="7.815397324744891"><ele>261.0</ele><time>2026-04-10T09:44:23.999Z</time></trkpt><trkpt lat="44.848068505962104" lon="7.815365296608118"><ele>261.0</ele><time>2026-04-10T09:44:24.999Z</time></trkpt><trkpt lat="44.84812676949041" lon="7.815331644159723"><ele>261.0</ele><time>2026-04-10T09:44:25.999Z</time></trkpt><trkpt lat="44.84818735728418" lon="7.815295930249324"><ele>261.0</ele><time>2026-04-10T09:44:26.999Z</time></trkpt><trkpt lat="44.848305436595" lon="7.815229909272806"><ele>261.0</ele><time>2026-04-10T09:44:28.999Z</time></trkpt><trkpt lat="44.848367238734355" lon="7.81519790096255"><ele>261.0</ele><time>2026-04-10T09:44:29.999Z</time></trkpt><trkpt lat="44.84842952436717" lon="7.815165969446532"><ele>261.0</ele><time>2026-04-10T09:44:30.999Z</time></trkpt><trkpt lat="44.848488776164714" lon="7.815133332550645"><ele>260.8</ele><time>2026-04-10T09:44:31.999Z</time></trkpt><trkpt lat="44.848551871829386" lon="7.815095241578155"><ele>260.6</ele><time>2026-04-10T09:44:32.999Z</time></trkpt><trkpt lat="44.84866829881932" lon="7.815022134560233"><ele>260.4</ele><time>2026-04-10T09:44:34.999Z</time></trkpt><trkpt lat="44.84872802474569" lon="7.814989711470818"><ele>260.2</ele><time>2026-04-10T09:44:35.999Z</time></trkpt><trkpt lat="44.848841881903496" lon="7.81492239590957"><ele>260.0</ele><time>2026-04-10T09:44:37.999Z</time></trkpt><trkpt lat="44.848906510842546" lon="7.814887595259081"><ele>260.00000000000006</ele><time>2026-04-10T09:44:38.999Z</time></trkpt><trkpt lat="44.8489720881678" lon="7.814851465745301"><ele>260.0</ele><time>2026-04-10T09:44:39.999Z</time></trkpt><trkpt lat="44.849033183155235" lon="7.814821376778678"><ele>260.0</ele><time>2026-04-10T09:44:40.999Z</time></trkpt><trkpt lat="44.84909399174746" lon="7.814784905769246"><ele>260.0</ele><time>2026-04-10T09:44:41.999Z</time></trkpt><trkpt lat="44.849153855090144" lon="7.8147501244254425"><ele>260.0</ele><time>2026-04-10T09:44:42.999Z</time></trkpt><trkpt lat="44.849219000414465" lon="7.814709105760015"><ele>260.00000000000006</ele><time>2026-04-10T09:44:43.999Z</time></trkpt><trkpt lat="44.849282855804" lon="7.814667345692588"><ele>260.0</ele><time>2026-04-10T09:44:44.999Z</time></trkpt><trkpt lat="44.849345130785295" lon="7.814629555600829"><ele>259.8571428571429</ele><time>2026-04-10T09:44:45.999Z</time></trkpt><trkpt lat="44.84940839376291" lon="7.814593372194108"><ele>259.7142857142857</ele><time>2026-04-10T09:44:46.999Z</time></trkpt><trkpt lat="44.84947081009033" lon="7.8145596503964905"><ele>259.57142857142856</ele><time>2026-04-10T09:44:47.999Z</time></trkpt><trkpt lat="44.84953223306717" lon="7.81452372988317"><ele>259.42857142857144</ele><time>2026-04-10T09:44:48.999Z</time></trkpt><trkpt lat="44.84959528318244" lon="7.8144879101346945"><ele>259.2857142857143</ele><time>2026-04-10T09:44:49.999Z</time></trkpt><trkpt lat="44.8496590014681" lon="7.814452710311818"><ele>259.14285714285717</ele><time>2026-04-10T09:44:50.999Z</time></trkpt><trkpt lat="44.84972056267871" lon="7.814422001683114"><ele>259.0</ele><time>2026-04-10T09:44:51.999Z</time></trkpt><trkpt lat="44.849784918165646" lon="7.81438558245645"><ele>259.0</ele><time>2026-04-10T09:44:52.999Z</time></trkpt><trkpt lat="44.8498434553114" lon="7.814350346893825"><ele>259.0</ele><time>2026-04-10T09:44:53.999Z</time></trkpt><trkpt lat="44.84991199864778" lon="7.814311122261288"><ele>259.0</ele><time>2026-04-10T09:44:54.999Z</time></trkpt><trkpt lat="44.849978495578895" lon="7.814273859064643"><ele>259.0</ele><time>2026-04-10T09:44:55.999Z</time></trkpt><trkpt lat="44.850043219559836" lon="7.814238952646513"><ele>259.0</ele><time>2026-04-10T09:44:56.999Z</time></trkpt><trkpt lat="44.85010543694874" lon="7.81420692332336"><ele>259.0</ele><time>2026-04-10T09:44:57.999Z</time></trkpt><trkpt lat="44.850173363606444" lon="7.814176284543376"><ele>259.0</ele><time>2026-04-10T09:44:58.999Z</time></trkpt><trkpt lat="44.850237889083985" lon="7.814144550125309"><ele>259.14285714285717</ele><time>2026-04-10T09:44:59.999Z</time></trkpt><trkpt lat="44.85030602320743" lon="7.814106868595452"><ele>259.2857142857143</ele><time>2026-04-10T09:45:00.999Z</time></trkpt><trkpt lat="44.85037434434762" lon="7.814067831234028"><ele>259.42857142857144</ele><time>2026-04-10T09:45:01.999Z</time></trkpt><trkpt lat="44.850439504482615" lon="7.814034838822693"><ele>259.57142857142856</ele><time>2026-04-10T09:45:02.999Z</time></trkpt><trkpt lat="44.850507949588575" lon="7.813996178809646"><ele>259.7142857142857</ele><time>2026-04-10T09:45:03.999Z</time></trkpt><trkpt lat="44.850574308429756" lon="7.813960967372853"><ele>259.8571428571429</ele><time>2026-04-10T09:45:04.999Z</time></trkpt><trkpt lat="44.85063917669682" lon="7.813921937086424"><ele>260.0</ele><time>2026-04-10T09:45:05.999Z</time></trkpt><trkpt lat="44.8507045323355" lon="7.813882021026388"><ele>260.00000000000006</ele><time>2026-04-10T09:45:06.999Z</time></trkpt><trkpt lat="44.85077290633015" lon="7.813840097933119"><ele>260.0</ele><time>2026-04-10T09:45:07.999Z</time></trkpt><trkpt lat="44.85083637586292" lon="7.8138016527357355"><ele>260.0</ele><time>2026-04-10T09:45:08.999Z</time></trkpt><trkpt lat="44.85090157275139" lon="7.813764183476168"><ele>260.0</ele><time>2026-04-10T09:45:09.999Z</time></trkpt><trkpt lat="44.850965475000585" lon="7.813726780761476"><ele>260.0</ele><time>2026-04-10T09:45:10.999Z</time></trkpt><trkpt lat="44.85103492610958" lon="7.813683544211968"><ele>260.00000000000006</ele><time>2026-04-10T09:45:11.999Z</time></trkpt><trkpt lat="44.85109860224411" lon="7.813648811688804"><ele>260.0</ele><time>2026-04-10T09:45:12.999Z</time></trkpt><trkpt lat="44.85116777817967" lon="7.81361023765258"><ele>260.00000000000006</ele><time>2026-04-10T09:45:13.999Z</time></trkpt><trkpt lat="44.85123317696001" lon="7.813569554872833"><ele>260.0</ele><time>2026-04-10T09:45:14.999Z</time></trkpt><trkpt lat="44.85130186665157" lon="7.813529397974998"><ele>260.0</ele><time>2026-04-10T09:45:15.999Z</time></trkpt><trkpt lat="44.8513622627758" lon="7.813497920034075"><ele>260.0</ele><time>2026-04-10T09:45:16.999Z</time></trkpt><trkpt lat="44.8514273701395" lon="7.813459230012164"><ele>260.0</ele><time>2026-04-10T09:45:17.999Z</time></trkpt><trkpt lat="44.851491807072335" lon="7.813419418158252"><ele>260.00000000000006</ele><time>2026-04-10T09:45:18.999Z</time></trkpt><trkpt lat="44.85155409765294" lon="7.813377929781083"><ele>260.0</ele><time>2026-04-10T09:45:19.999Z</time></trkpt><trkpt lat="44.85161380771662" lon="7.813340922150709"><ele>259.8571428571429</ele><time>2026-04-10T09:45:20.999Z</time></trkpt><trkpt lat="44.851671670162126" lon="7.8133025871434505"><ele>259.7142857142857</ele><time>2026-04-10T09:45:21.999Z</time></trkpt><trkpt lat="44.85173007061556" lon="7.813254864128767"><ele>259.57142857142856</ele><time>2026-04-10T09:45:22.999Z</time></trkpt><trkpt lat="44.85178968524044" lon="7.813207285939696"><ele>259.42857142857144</ele><time>2026-04-10T09:45:23.999Z</time></trkpt><trkpt lat="44.851848896612715" lon="7.813159459456658"><ele>259.2857142857143</ele><time>2026-04-10T09:45:24.999Z</time></trkpt><trkpt lat="44.85190948106478" lon="7.813108026682601"><ele>259.14285714285717</ele><time>2026-04-10T09:45:25.999Z</time></trkpt><trkpt lat="44.85196700300898" lon="7.813056861311358"><ele>259.0</ele><time>2026-04-10T09:45:26.999Z</time></trkpt><trkpt lat="44.85202306209192" lon="7.812998606010685"><ele>259.0</ele><time>2026-04-10T09:45:27.999Z</time></trkpt><trkpt lat="44.8520827142849" lon="7.812925124948507"><ele>259.0</ele><time>2026-04-10T09:45:28.999Z</time></trkpt><trkpt lat="44.85213568398712" lon="7.812855892508377"><ele>259.0</ele><time>2026-04-10T09:45:29.999Z</time></trkpt><trkpt lat="44.85222841557216" lon="7.812746084077755"><ele>259.0</ele><time>2026-04-10T09:45:31.999Z</time></trkpt><trkpt lat="44.85232405611273" lon="7.812631516450243"><ele>259.0</ele><time>2026-04-10T09:45:33.999Z</time></trkpt><trkpt lat="44.8523765311306" lon="7.812570235089526"><ele>258.85714285714283</ele><time>2026-04-10T09:45:34.999Z</time></trkpt><trkpt lat="44.85242972184101" lon="7.812510679201461"><ele>258.7142857142857</ele><time>2026-04-10T09:45:35.999Z</time></trkpt><trkpt lat="44.852482356918514" lon="7.812449306167869"><ele>258.57142857142856</ele><time>2026-04-10T09:45:36.999Z</time></trkpt><trkpt lat="44.852537469581364" lon="7.8123855965910725"><ele>258.42857142857144</ele><time>2026-04-10T09:45:37.999Z</time></trkpt><trkpt lat="44.85259214560397" lon="7.812324381732306"><ele>258.2857142857143</ele><time>2026-04-10T09:45:38.999Z</time></trkpt><trkpt lat="44.85264132696218" lon="7.81226412188298"><ele>258.1428571428571</ele><time>2026-04-10T09:45:39.999Z</time></trkpt><trkpt lat="44.852692032055394" lon="7.81220334081907"><ele>258.0</ele><time>2026-04-10T09:45:40.999Z</time></trkpt><trkpt lat="44.852791655108255" lon="7.812081876833791"><ele>257.99999999999994</ele><time>2026-04-10T09:45:42.999Z</time></trkpt><trkpt lat="44.85284852351963" lon="7.812013600472545"><ele>258.0</ele><time>2026-04-10T09:45:43.999Z</time></trkpt><trkpt lat="44.85289925151156" lon="7.811955424951124"><ele>258.0</ele><time>2026-04-10T09:45:44.999Z</time></trkpt><trkpt lat="44.85295459291689" lon="7.811890957625059"><ele>258.0</ele><time>2026-04-10T09:45:45.999Z</time></trkpt><trkpt lat="44.853006784925995" lon="7.811820093910169"><ele>258.0</ele><time>2026-04-10T09:45:46.999Z</time></trkpt><trkpt lat="44.853056608077964" lon="7.8117574499577564"><ele>257.99999999999994</ele><time>2026-04-10T09:45:47.999Z</time></trkpt><trkpt lat="44.853106712923775" lon="7.81169912981956"><ele>258.0</ele><time>2026-04-10T09:45:48.998Z</time></trkpt><trkpt lat="44.85315610920116" lon="7.811641201299457"><ele>258.0</ele><time>2026-04-10T09:45:49.998Z</time></trkpt><trkpt lat="44.85321130731285" lon="7.811576023405228"><ele>258.0</ele><time>2026-04-10T09:45:50.998Z</time></trkpt><trkpt lat="44.85325959820295" lon="7.811518378136873"><ele>258.0</ele><time>2026-04-10T09:45:51.998Z</time></trkpt><trkpt lat="44.85331035733403" lon="7.811457503621161"><ele>258.0</ele><time>2026-04-10T09:45:52.998Z</time></trkpt><trkpt lat="44.85336276848242" lon="7.811402719754962"><ele>258.0</ele><time>2026-04-10T09:45:53.998Z</time></trkpt><trkpt lat="44.85346143221753" lon="7.811294593240051"><ele>258.0</ele><time>2026-04-10T09:45:55.998Z</time></trkpt><trkpt lat="44.853511995184284" lon="7.811231516434947"><ele>257.85714285714283</ele><time>2026-04-10T09:45:56.998Z</time></trkpt><trkpt lat="44.853563175239" lon="7.811169981588121"><ele>257.7142857142857</ele><time>2026-04-10T09:45:57.998Z</time></trkpt><trkpt lat="44.85361476372831" lon="7.811109217876545"><ele>257.57142857142856</ele><time>2026-04-10T09:45:58.998Z</time></trkpt><trkpt lat="44.85366560171039" lon="7.811048356941022"><ele>257.42857142857144</ele><time>2026-04-10T09:45:59.998Z</time></trkpt><trkpt lat="44.853713275477226" lon="7.810989602734523"><ele>257.2857142857143</ele><time>2026-04-10T09:46:00.998Z</time></trkpt><trkpt lat="44.853764368233925" lon="7.810931714532367"><ele>257.1428571428571</ele><time>2026-04-10T09:46:01.998Z</time></trkpt><trkpt lat="44.85381891328518" lon="7.810870962204249"><ele>257.0</ele><time>2026-04-10T09:46:02.998Z</time></trkpt><trkpt lat="44.853877500124206" lon="7.810806454433769"><ele>257.0</ele><time>2026-04-10T09:46:03.998Z</time></trkpt><trkpt lat="44.85392642974493" lon="7.8107461651414685"><ele>257.0</ele><time>2026-04-10T09:46:04.998Z</time></trkpt><trkpt lat="44.853975512115085" lon="7.8106829918765275"><ele>257.0</ele><time>2026-04-10T09:46:05.998Z</time></trkpt><trkpt lat="44.85402635289436" lon="7.810612611300594"><ele>257.0</ele><time>2026-04-10T09:46:06.998Z</time></trkpt><trkpt lat="44.85407511361944" lon="7.810553914166085"><ele>257.0</ele><time>2026-04-10T09:46:07.998Z</time></trkpt><trkpt lat="44.85412447758151" lon="7.810498624841313"><ele>257.0</ele><time>2026-04-10T09:46:08.998Z</time></trkpt><trkpt lat="44.854221862942076" lon="7.810391393976049"><ele>256.8</ele><time>2026-04-10T09:46:10.998Z</time></trkpt><trkpt lat="44.85431984378447" lon="7.810273043382112"><ele>256.6</ele><time>2026-04-10T09:46:12.998Z</time></trkpt><trkpt lat="44.854366441628194" lon="7.8102077422371305"><ele>256.40000000000003</ele><time>2026-04-10T09:46:13.998Z</time></trkpt><trkpt lat="44.85441659262845" lon="7.810145188946153"><ele>256.2</ele><time>2026-04-10T09:46:14.998Z</time></trkpt><trkpt lat="44.85446887128309" lon="7.81008150838647"><ele>256.0</ele><time>2026-04-10T09:46:15.998Z</time></trkpt><trkpt lat="44.854562610389245" lon="7.809971953081677"><ele>256.0</ele><time>2026-04-10T09:46:17.998Z</time></trkpt><trkpt lat="44.854616661813" lon="7.809907736450853"><ele>256.0</ele><time>2026-04-10T09:46:18.998Z</time></trkpt><trkpt lat="44.85472308846201" lon="7.809800021796556"><ele>256.0</ele><time>2026-04-10T09:46:20.998Z</time></trkpt><trkpt lat="44.8547846342074" lon="7.80977101485163"><ele>256.0</ele><time>2026-04-10T09:46:21.998Z</time></trkpt><trkpt lat="44.85491112835247" lon="7.809768974857356"><ele>256.0</ele><time>2026-04-10T09:46:23.998Z</time></trkpt><trkpt lat="44.85503102853253" lon="7.809782980208351"><ele>255.75</ele><time>2026-04-10T09:46:25.998Z</time></trkpt><trkpt lat="44.85515479246834" lon="7.8097965294353475"><ele>255.5</ele><time>2026-04-10T09:46:27.998Z</time></trkpt><trkpt lat="44.85527746936246" lon="7.809815597905227"><ele>255.25</ele><time>2026-04-10T09:46:29.998Z</time></trkpt><trkpt lat="44.85540106941944" lon="7.8098266686456705"><ele>255.0</ele><time>2026-04-10T09:46:31.998Z</time></trkpt><trkpt lat="44.855511102594434" lon="7.8098247940451"><ele>255.0</ele><time>2026-04-10T09:46:33.998Z</time></trkpt><trkpt lat="44.855592050921196" lon="7.809794924769897"><ele>255.0</ele><time>2026-04-10T09:46:35.998Z</time></trkpt><trkpt lat="44.85563153308931" lon="7.809709418599094"><ele>255.0</ele><time>2026-04-10T09:46:41.998Z</time></trkpt><trkpt lat="44.85569305570921" lon="7.80956499658408"><ele>255.0</ele><time>2026-04-10T09:46:44.998Z</time></trkpt><trkpt lat="44.85571266840874" lon="7.809391088308555"><ele>255.0</ele><time>2026-04-10T09:46:46.998Z</time></trkpt><trkpt lat="44.85573473591381" lon="7.8092436858559875"><ele>254.83333333333334</ele><time>2026-04-10T09:46:48.998Z</time></trkpt><trkpt lat="44.85579186990573" lon="7.809116604757765"><ele>254.66666666666669</ele><time>2026-04-10T09:46:50.998Z</time></trkpt><trkpt lat="44.855844466152085" lon="7.809062601736328"><ele>254.5</ele><time>2026-04-10T09:46:51.998Z</time></trkpt><trkpt lat="44.855912025887" lon="7.809013258173395"><ele>254.33333333333334</ele><time>2026-04-10T09:46:52.998Z</time></trkpt><trkpt lat="44.85597067883445" lon="7.808960458231589"><ele>254.16666666666669</ele><time>2026-04-10T09:46:53.998Z</time></trkpt><trkpt lat="44.85607227779767" lon="7.808846428582717"><ele>254.0</ele><time>2026-04-10T09:46:55.998Z</time></trkpt><trkpt lat="44.856120522690645" lon="7.808784504714579"><ele>254.0</ele><time>2026-04-10T09:46:56.998Z</time></trkpt><trkpt lat="44.856170071423335" lon="7.808725703309864"><ele>254.0</ele><time>2026-04-10T09:46:57.998Z</time></trkpt><trkpt lat="44.85622136657308" lon="7.808663194768359"><ele>254.0</ele><time>2026-04-10T09:46:58.998Z</time></trkpt><trkpt lat="44.85627259344735" lon="7.808607343767379"><ele>254.0</ele><time>2026-04-10T09:46:59.998Z</time></trkpt><trkpt lat="44.85632302646217" lon="7.8085463441897245"><ele>254.0</ele><time>2026-04-10T09:47:00.998Z</time></trkpt><trkpt lat="44.856378004998575" lon="7.808486128131909"><ele>254.0</ele><time>2026-04-10T09:47:01.998Z</time></trkpt><trkpt lat="44.85643063982976" lon="7.8084289390000725"><ele>254.0</ele><time>2026-04-10T09:47:02.998Z</time></trkpt><trkpt lat="44.85653417289816" lon="7.808311680986783"><ele>254.00000000000003</ele><time>2026-04-10T09:47:04.998Z</time></trkpt><trkpt lat="44.85658088126975" lon="7.808250996833604"><ele>254.0</ele><time>2026-04-10T09:47:05.998Z</time></trkpt><trkpt lat="44.856635029074745" lon="7.8081853540365564"><ele>254.0</ele><time>2026-04-10T09:47:06.998Z</time></trkpt><trkpt lat="44.85668845033138" lon="7.80812964105679"><ele>254.0</ele><time>2026-04-10T09:47:07.998Z</time></trkpt><trkpt lat="44.856740138665394" lon="7.808071951788594"><ele>254.00000000000003</ele><time>2026-04-10T09:47:08.998Z</time></trkpt><trkpt lat="44.85683372920356" lon="7.807962213410135"><ele>254.0</ele><time>2026-04-10T09:47:10.998Z</time></trkpt><trkpt lat="44.85693182077752" lon="7.807849704716853"><ele>254.0</ele><time>2026-04-10T09:47:12.998Z</time></trkpt><trkpt lat="44.8569839939214" lon="7.807784780159292"><ele>253.99999999999997</ele><time>2026-04-10T09:47:13.998Z</time></trkpt><trkpt lat="44.85703579388948" lon="7.807720429237273"><ele>253.99999999999997</ele><time>2026-04-10T09:47:14.998Z</time></trkpt><trkpt lat="44.85713812537647" lon="7.807610626692952"><ele>254.0</ele><time>2026-04-10T09:47:16.998Z</time></trkpt><trkpt lat="44.857229566600964" lon="7.807505849203831"><ele>254.0</ele><time>2026-04-10T09:47:18.998Z</time></trkpt><trkpt lat="44.857329436183655" lon="7.807379429638186"><ele>254.0</ele><time>2026-04-10T09:47:20.998Z</time></trkpt><trkpt lat="44.857380205088084" lon="7.807305469256736"><ele>254.0</ele><time>2026-04-10T09:47:21.998Z</time></trkpt><trkpt lat="44.85743322620527" lon="7.807245192229025"><ele>254.0</ele><time>2026-04-10T09:47:22.998Z</time></trkpt><trkpt lat="44.85748303837302" lon="7.807186393727637"><ele>254.0</ele><time>2026-04-10T09:47:23.998Z</time></trkpt><trkpt lat="44.857534233245104" lon="7.807125371969971"><ele>254.0</ele><time>2026-04-10T09:47:24.998Z</time></trkpt><trkpt lat="44.857590682593376" lon="7.8070612137814965"><ele>254.0</ele><time>2026-04-10T09:47:25.998Z</time></trkpt><trkpt lat="44.85764577638362" lon="7.807000069379547"><ele>254.0</ele><time>2026-04-10T09:47:27Z</time></trkpt><trkpt lat="44.85770469348791" lon="7.806930477250662"><ele>253.85714285714286</ele><time>2026-04-10T09:47:28Z</time></trkpt><trkpt lat="44.857760233559674" lon="7.806861595792588"><ele>253.71428571428572</ele><time>2026-04-10T09:47:29Z</time></trkpt><trkpt lat="44.857807726810684" lon="7.806800239403877"><ele>253.57142857142858</ele><time>2026-04-10T09:47:30Z</time></trkpt><trkpt lat="44.857857290092674" lon="7.806737635212154"><ele>253.42857142857144</ele><time>2026-04-10T09:47:31Z</time></trkpt><trkpt lat="44.85790598769306" lon="7.806674756204582"><ele>253.28571428571428</ele><time>2026-04-10T09:47:32Z</time></trkpt><trkpt lat="44.85795880015947" lon="7.806616287112876"><ele>253.14285714285717</ele><time>2026-04-10T09:47:33Z</time></trkpt><trkpt lat="44.85801039578667" lon="7.806558111922511"><ele>253.00000000000003</ele><time>2026-04-10T09:47:34Z</time></trkpt><trkpt lat="44.85810315276759" lon="7.806445207789607"><ele>253.0</ele><time>2026-04-10T09:47:36Z</time></trkpt><trkpt lat="44.858199255659" lon="7.80633969339585"><ele>253.0</ele><time>2026-04-10T09:47:38Z</time></trkpt><trkpt lat="44.858247957423714" lon="7.806282960565742"><ele>253.0</ele><time>2026-04-10T09:47:39Z</time></trkpt><trkpt lat="44.85829707305371" lon="7.8062252526302665"><ele>253.0</ele><time>2026-04-10T09:47:40Z</time></trkpt><trkpt lat="44.858380922830214" lon="7.806107874180937"><ele>253.0</ele><time>2026-04-10T09:47:42Z</time></trkpt><trkpt lat="44.85847753993443" lon="7.80599109538932"><ele>252.66666666666666</ele><time>2026-04-10T09:47:44Z</time></trkpt><trkpt lat="44.858552416475256" lon="7.805876032058508"><ele>252.33333333333331</ele><time>2026-04-10T09:47:46Z</time></trkpt><trkpt lat="44.85858256513301" lon="7.805794119142897"><ele>252.0</ele><time>2026-04-10T09:47:47Z</time></trkpt><trkpt lat="44.858613650716904" lon="7.805715388813023"><ele>251.66666666666669</ele><time>2026-04-10T09:47:48Z</time></trkpt><trkpt lat="44.858666433888835" lon="7.805562410929759"><ele>251.33333333333334</ele><time>2026-04-10T09:47:50Z</time></trkpt><trkpt lat="44.858685695395984" lon="7.80547783142989"><ele>251.0</ele><time>2026-04-10T09:47:51Z</time></trkpt><trkpt lat="44.85871248145354" lon="7.805298906675686"><ele>250.99999999999997</ele><time>2026-04-10T09:47:53Z</time></trkpt><trkpt lat="44.858730781753316" lon="7.805205661955091"><ele>251.0</ele><time>2026-04-10T09:47:54Z</time></trkpt><trkpt lat="44.85874930940978" lon="7.8051127637627395"><ele>250.99999999999997</ele><time>2026-04-10T09:47:55Z</time></trkpt><trkpt lat="44.85876807327514" lon="7.805023612780621"><ele>250.99999999999997</ele><time>2026-04-10T09:47:56Z</time></trkpt><trkpt lat="44.85878774754796" lon="7.8049334599674625"><ele>251.0</ele><time>2026-04-10T09:47:57Z</time></trkpt><trkpt lat="44.85880657718165" lon="7.804838363368991"><ele>250.99999999999997</ele><time>2026-04-10T09:47:58Z</time></trkpt><trkpt lat="44.85882412262451" lon="7.804752824435623"><ele>250.99999999999997</ele><time>2026-04-10T09:47:59Z</time></trkpt><trkpt lat="44.85884563819844" lon="7.804668362262058"><ele>251.16666666666669</ele><time>2026-04-10T09:48:00Z</time></trkpt><trkpt lat="44.85886461940028" lon="7.804575906125188"><ele>251.33333333333334</ele><time>2026-04-10T09:48:01Z</time></trkpt><trkpt lat="44.85887924213216" lon="7.804484501243931"><ele>251.5</ele><time>2026-04-10T09:48:02Z</time></trkpt><trkpt lat="44.858909076507196" lon="7.804329135419335"><ele>251.66666666666669</ele><time>2026-04-10T09:48:04Z</time></trkpt><trkpt lat="44.858942541375235" lon="7.8041734617179666"><ele>251.83333333333334</ele><time>2026-04-10T09:48:06Z</time></trkpt><trkpt lat="44.85895933846163" lon="7.804083770573097"><ele>252.0</ele><time>2026-04-10T09:48:07Z</time></trkpt><trkpt lat="44.858993616057845" lon="7.803910154101468"><ele>252.0</ele><time>2026-04-10T09:48:09Z</time></trkpt><trkpt lat="44.859031663225274" lon="7.803751030760875"><ele>252.0</ele><time>2026-04-10T09:48:11Z</time></trkpt><trkpt lat="44.85904972887113" lon="7.803661639362804"><ele>252.0</ele><time>2026-04-10T09:48:12Z</time></trkpt><trkpt lat="44.859069017383824" lon="7.803503873131702"><ele>252.0</ele><time>2026-04-10T09:48:14Z</time></trkpt><trkpt lat="44.85909426333782" lon="7.803333730992211"><ele>252.0</ele><time>2026-04-10T09:48:16Z</time></trkpt><trkpt lat="44.85913578955471" lon="7.803179663105199"><ele>252.0</ele><time>2026-04-10T09:48:18Z</time></trkpt><trkpt lat="44.85918123520802" lon="7.803021833207604"><ele>252.0</ele><time>2026-04-10T09:48:20Z</time></trkpt><trkpt lat="44.85924086138961" lon="7.802856288508641"><ele>252.0</ele><time>2026-04-10T09:48:22Z</time></trkpt><trkpt lat="44.85927382684944" lon="7.802776664421459"><ele>252.0</ele><time>2026-04-10T09:48:23Z</time></trkpt><trkpt lat="44.85930632240254" lon="7.802700011469156"><ele>252.0</ele><time>2026-04-10T09:48:24Z</time></trkpt><trkpt lat="44.859349079842545" lon="7.80263306997936"><ele>252.0</ele><time>2026-04-10T09:48:25Z</time></trkpt><trkpt lat="44.859425707802885" lon="7.8024891775224265"><ele>252.0</ele><time>2026-04-10T09:48:27Z</time></trkpt><trkpt lat="44.85949857601987" lon="7.80234652198058"><ele>252.0</ele><time>2026-04-10T09:48:29Z</time></trkpt><trkpt lat="44.85957679173191" lon="7.802224116096059"><ele>252.0</ele><time>2026-04-10T09:48:31Z</time></trkpt><trkpt lat="44.8596194631831" lon="7.802157678432"><ele>252.0</ele><time>2026-04-10T09:48:32Z</time></trkpt><trkpt lat="44.85970851956768" lon="7.8020449077553495"><ele>252.0</ele><time>2026-04-10T09:48:34Z</time></trkpt><trkpt lat="44.85978999232419" lon="7.801916705798469"><ele>251.6</ele><time>2026-04-10T09:48:36Z</time></trkpt><trkpt lat="44.85987266100887" lon="7.801778422708474"><ele>251.2</ele><time>2026-04-10T09:48:38Z</time></trkpt><trkpt lat="44.859915686019626" lon="7.80171349258056"><ele>250.8</ele><time>2026-04-10T09:48:39Z</time></trkpt><trkpt lat="44.85998922833994" lon="7.801608445786007"><ele>250.4</ele><time>2026-04-10T09:48:41Z</time></trkpt><trkpt lat="44.86005745390443" lon="7.801498959670739"><ele>250.0</ele><time>2026-04-10T09:48:43Z</time></trkpt><trkpt lat="44.86009483491587" lon="7.801422259414822"><ele>250.33333333333331</ele><time>2026-04-10T09:48:44Z</time></trkpt><trkpt lat="44.860168882260076" lon="7.801305843579424"><ele>250.66666666666666</ele><time>2026-04-10T09:48:46Z</time></trkpt><trkpt lat="44.86021004025601" lon="7.801230894970079"><ele>251.0</ele><time>2026-04-10T09:48:47Z</time></trkpt><trkpt lat="44.86025622463649" lon="7.80115701565304"><ele>251.33333333333331</ele><time>2026-04-10T09:48:48Z</time></trkpt><trkpt lat="44.86030035089007" lon="7.801093333684198"><ele>251.66666666666666</ele><time>2026-04-10T09:48:49Z</time></trkpt><trkpt lat="44.86034094445061" lon="7.801023275174646"><ele>252.0</ele><time>2026-04-10T09:48:50Z</time></trkpt><trkpt lat="44.860415635111224" lon="7.800910728547577"><ele>252.0</ele><time>2026-04-10T09:48:52Z</time></trkpt><trkpt lat="44.8604959565094" lon="7.800787450036515"><ele>252.0</ele><time>2026-04-10T09:48:54Z</time></trkpt><trkpt lat="44.860539052118014" lon="7.800721521089886"><ele>252.0</ele><time>2026-04-10T09:48:55Z</time></trkpt><trkpt lat="44.86062248021508" lon="7.800583828975575"><ele>252.0</ele><time>2026-04-10T09:48:57Z</time></trkpt><trkpt lat="44.86066778340918" lon="7.80051201790446"><ele>252.0</ele><time>2026-04-10T09:48:58Z</time></trkpt><trkpt lat="44.860713012505464" lon="7.800448640288804"><ele>252.0</ele><time>2026-04-10T09:48:59Z</time></trkpt><trkpt lat="44.860797771997795" lon="7.800317097870467"><ele>252.0</ele><time>2026-04-10T09:49:01Z</time></trkpt><trkpt lat="44.86084156449723" lon="7.800240736430534"><ele>252.0</ele><time>2026-04-10T09:49:02Z</time></trkpt><trkpt lat="44.860888623519955" lon="7.800161797437813"><ele>252.0</ele><time>2026-04-10T09:49:03Z</time></trkpt><trkpt lat="44.860932092334544" lon="7.80008708043437"><ele>252.0</ele><time>2026-04-10T09:49:04Z</time></trkpt><trkpt lat="44.860977369560715" lon="7.8000172875176474"><ele>252.0</ele><time>2026-04-10T09:49:05Z</time></trkpt><trkpt lat="44.861023376114744" lon="7.799950525334557"><ele>252.0</ele><time>2026-04-10T09:49:06Z</time></trkpt><trkpt lat="44.861064974552484" lon="7.799882031127978"><ele>252.0</ele><time>2026-04-10T09:49:07Z</time></trkpt><trkpt lat="44.86110477227019" lon="7.799811491317044"><ele>251.85714285714286</ele><time>2026-04-10T09:49:08Z</time></trkpt><trkpt lat="44.86114770552724" lon="7.7997364031803995"><ele>251.71428571428572</ele><time>2026-04-10T09:49:09Z</time></trkpt><trkpt lat="44.86119133712867" lon="7.7996641354006755"><ele>251.57142857142856</ele><time>2026-04-10T09:49:10Z</time></trkpt><trkpt lat="44.861239969060264" lon="7.799588503357084"><ele>251.42857142857142</ele><time>2026-04-10T09:49:11Z</time></trkpt><trkpt lat="44.86128721237916" lon="7.799507894682968"><ele>251.28571428571428</ele><time>2026-04-10T09:49:12Z</time></trkpt><trkpt lat="44.86132649563657" lon="7.7994369708988645"><ele>251.1428571428571</ele><time>2026-04-10T09:49:13Z</time></trkpt><trkpt lat="44.86136509278193" lon="7.7993601330997135"><ele>250.99999999999997</ele><time>2026-04-10T09:49:14Z</time></trkpt><trkpt lat="44.86140237839072" lon="7.799279860953903"><ele>250.99999999999997</ele><time>2026-04-10T09:49:15Z</time></trkpt><trkpt lat="44.86144031181121" lon="7.799200963371431"><ele>251.0</ele><time>2026-04-10T09:49:16Z</time></trkpt><trkpt lat="44.86147456302775" lon="7.799115162335743"><ele>250.99999999999997</ele><time>2026-04-10T09:49:17Z</time></trkpt><trkpt lat="44.86150504985186" lon="7.79902857399516"><ele>250.99999999999997</ele><time>2026-04-10T09:49:18Z</time></trkpt><trkpt lat="44.861533171142554" lon="7.798935463963747"><ele>251.0</ele><time>2026-04-10T09:49:19Z</time></trkpt><trkpt lat="44.861560518104" lon="7.7988430294759885"><ele>250.99999999999997</ele><time>2026-04-10T09:49:20Z</time></trkpt><trkpt lat="44.86159043508669" lon="7.798752501494893"><ele>250.99999999999997</ele><time>2026-04-10T09:49:21Z</time></trkpt><trkpt lat="44.86161856842765" lon="7.798666703375781"><ele>250.99999999999997</ele><time>2026-04-10T09:49:22Z</time></trkpt><trkpt lat="44.8616510478908" lon="7.798574672700067"><ele>251.0</ele><time>2026-04-10T09:49:23Z</time></trkpt><trkpt lat="44.8616869563531" lon="7.798488532130981"><ele>250.99999999999997</ele><time>2026-04-10T09:49:24Z</time></trkpt><trkpt lat="44.86172253729903" lon="7.798406867872997"><ele>250.99999999999997</ele><time>2026-04-10T09:49:25Z</time></trkpt><trkpt lat="44.86175516397868" lon="7.798328965090888"><ele>251.0</ele><time>2026-04-10T09:49:26Z</time></trkpt><trkpt lat="44.86179321067507" lon="7.798246480258464"><ele>250.99999999999997</ele><time>2026-04-10T09:49:27Z</time></trkpt><trkpt lat="44.86183298334922" lon="7.798171028965807"><ele>250.99999999999997</ele><time>2026-04-10T09:49:28Z</time></trkpt><trkpt lat="44.86187180617262" lon="7.798099859246861"><ele>250.83333333333334</ele><time>2026-04-10T09:49:29Z</time></trkpt><trkpt lat="44.86191051367601" lon="7.798025944747978"><ele>250.66666666666669</ele><time>2026-04-10T09:49:30Z</time></trkpt><trkpt lat="44.86194832930041" lon="7.797947516344187"><ele>250.5</ele><time>2026-04-10T09:49:31Z</time></trkpt><trkpt lat="44.861987220305245" lon="7.797869140565414"><ele>250.33333333333331</ele><time>2026-04-10T09:49:32Z</time></trkpt><trkpt lat="44.86203173092778" lon="7.797778313769483"><ele>250.16666666666666</ele><time>2026-04-10T09:49:33Z</time></trkpt><trkpt lat="44.86206838390434" lon="7.79769736660117"><ele>250.0</ele><time>2026-04-10T09:49:34Z</time></trkpt><trkpt lat="44.86212856221745" lon="7.797555092365195"><ele>249.85714285714283</ele><time>2026-04-10T09:49:36Z</time></trkpt><trkpt lat="44.86215896446042" lon="7.797475976369606"><ele>249.71428571428572</ele><time>2026-04-10T09:49:37Z</time></trkpt><trkpt lat="44.86219580685331" lon="7.797397471342382"><ele>249.57142857142856</ele><time>2026-04-10T09:49:38Z</time></trkpt><trkpt lat="44.862229470618736" lon="7.797310536707684"><ele>249.42857142857142</ele><time>2026-04-10T09:49:39Z</time></trkpt><trkpt lat="44.862270234985374" lon="7.797221948405873"><ele>249.28571428571428</ele><time>2026-04-10T09:49:40Z</time></trkpt><trkpt lat="44.86230929502952" lon="7.79714255350683"><ele>249.14285714285714</ele><time>2026-04-10T09:49:41Z</time></trkpt><trkpt lat="44.86234872050157" lon="7.797059299585079"><ele>249.0</ele><time>2026-04-10T09:49:42Z</time></trkpt><trkpt lat="44.862385139606786" lon="7.79697657297954"><ele>249.0</ele><time>2026-04-10T09:49:43Z</time></trkpt><trkpt lat="44.86242383452255" lon="7.796889980562463"><ele>248.99999999999997</ele><time>2026-04-10T09:49:44Z</time></trkpt><trkpt lat="44.86245924997085" lon="7.796803658022989"><ele>249.0</ele><time>2026-04-10T09:49:45Z</time></trkpt><trkpt lat="44.8624915782105" lon="7.796721211318684"><ele>249.0</ele><time>2026-04-10T09:49:46Z</time></trkpt><trkpt lat="44.86252178580402" lon="7.796635775857078"><ele>248.99999999999997</ele><time>2026-04-10T09:49:47Z</time></trkpt><trkpt lat="44.86254713606671" lon="7.79654732288363"><ele>249.0</ele><time>2026-04-10T09:49:48Z</time></trkpt><trkpt lat="44.86256648113337" lon="7.7964561840629925"><ele>249.0</ele><time>2026-04-10T09:49:49Z</time></trkpt><trkpt lat="44.86258098714315" lon="7.796358453043916"><ele>249.0</ele><time>2026-04-10T09:49:50Z</time></trkpt><trkpt lat="44.862586820832995" lon="7.796268780223582"><ele>249.0</ele><time>2026-04-10T09:49:51Z</time></trkpt><trkpt lat="44.862586770966075" lon="7.796176678099234"><ele>249.0</ele><time>2026-04-10T09:49:52Z</time></trkpt><trkpt lat="44.862583598125184" lon="7.796081912319163"><ele>249.0</ele><time>2026-04-10T09:49:53Z</time></trkpt><trkpt lat="44.86257199082491" lon="7.795985753659919"><ele>249.0</ele><time>2026-04-10T09:49:54Z</time></trkpt><trkpt lat="44.86255986580137" lon="7.795893996022249"><ele>249.0</ele><time>2026-04-10T09:49:55Z</time></trkpt><trkpt lat="44.862534314419236" lon="7.795720138907929"><ele>249.16666666666666</ele><time>2026-04-10T09:49:56.999Z</time></trkpt><trkpt lat="44.86252098231145" lon="7.795629902541362"><ele>249.33333333333331</ele><time>2026-04-10T09:49:57.999Z</time></trkpt><trkpt lat="44.86250813091211" lon="7.795542209788905"><ele>249.5</ele><time>2026-04-10T09:49:58.999Z</time></trkpt><trkpt lat="44.862494306576316" lon="7.795379265872556"><ele>249.66666666666666</ele><time>2026-04-10T09:50:00.999Z</time></trkpt><trkpt lat="44.862505813403146" lon="7.795231334272779"><ele>249.83333333333331</ele><time>2026-04-10T09:50:02.999Z</time></trkpt><trkpt lat="44.862564630665396" lon="7.795121852774757"><ele>250.0</ele><time>2026-04-10T09:50:04.999Z</time></trkpt><trkpt lat="44.862623720079846" lon="7.795088474691726"><ele>249.49999999999997</ele><time>2026-04-10T09:50:05.999Z</time></trkpt><trkpt lat="44.86269852314001" lon="7.79509790835932"><ele>249.0</ele><time>2026-04-10T09:50:06.999Z</time></trkpt><trkpt lat="44.862797791078165" lon="7.7951176315096955"><ele>248.5</ele><time>2026-04-10T09:50:07.999Z</time></trkpt><trkpt lat="44.86288429507705" lon="7.795118658811126"><ele>248.0</ele><time>2026-04-10T09:50:08.999Z</time></trkpt><trkpt lat="44.86296404926983" lon="7.795113404279138"><ele>247.49999999999997</ele><time>2026-04-10T09:50:09.999Z</time></trkpt><trkpt lat="44.86305129598943" lon="7.795090977301945"><ele>247.0</ele><time>2026-04-10T09:50:10.999Z</time></trkpt><trkpt lat="44.863123938409885" lon="7.795085006594094"><ele>247.0</ele><time>2026-04-10T09:50:11.999Z</time></trkpt><trkpt lat="44.86319979886931" lon="7.795077869142146"><ele>247.0</ele><time>2026-04-10T09:50:12.999Z</time></trkpt><trkpt lat="44.86327936356556" lon="7.795068255298412"><ele>247.0</ele><time>2026-04-10T09:50:13.999Z</time></trkpt><trkpt lat="44.86339781318961" lon="7.795054659890404"><ele>247.0</ele><time>2026-04-10T09:50:15.999Z</time></trkpt><trkpt lat="44.863462299476275" lon="7.795044911414802"><ele>247.0</ele><time>2026-04-10T09:50:16.999Z</time></trkpt><trkpt lat="44.86357820581784" lon="7.795031565426535"><ele>247.28571428571428</ele><time>2026-04-10T09:50:18.999Z</time></trkpt><trkpt lat="44.86364081616968" lon="7.795020502804022"><ele>247.57142857142856</ele><time>2026-04-10T09:50:19.999Z</time></trkpt><trkpt lat="44.86370603559236" lon="7.7950087589456825"><ele>247.85714285714283</ele><time>2026-04-10T09:50:20.999Z</time></trkpt><trkpt lat="44.8637720061389" lon="7.794996651317355"><ele>248.14285714285714</ele><time>2026-04-10T09:50:21.999Z</time></trkpt><trkpt lat="44.86384206161341" lon="7.794983071119927"><ele>248.4285714285714</ele><time>2026-04-10T09:50:22.999Z</time></trkpt><trkpt lat="44.86390845624381" lon="7.794969113701981"><ele>248.7142857142857</ele><time>2026-04-10T09:50:23.999Z</time></trkpt><trkpt lat="44.8639736949253" lon="7.794958328805209"><ele>249.0</ele><time>2026-04-10T09:50:24.999Z</time></trkpt><trkpt lat="44.86404118286958" lon="7.794942276803979"><ele>249.0</ele><time>2026-04-10T09:50:25.999Z</time></trkpt><trkpt lat="44.86410860952764" lon="7.794929590745339"><ele>248.99999999999997</ele><time>2026-04-10T09:50:26.999Z</time></trkpt><trkpt lat="44.86417901614242" lon="7.794915563159113"><ele>249.0</ele><time>2026-04-10T09:50:27.999Z</time></trkpt><trkpt lat="44.86424527810123" lon="7.794898964290241"><ele>249.0</ele><time>2026-04-10T09:50:28.999Z</time></trkpt><trkpt lat="44.864315951237565" lon="7.7948810523820935"><ele>248.99999999999997</ele><time>2026-04-10T09:50:29.999Z</time></trkpt><trkpt lat="44.86438089652632" lon="7.7948655330810634"><ele>249.0</ele><time>2026-04-10T09:50:30.999Z</time></trkpt><trkpt lat="44.86445128464519" lon="7.794849151106725"><ele>249.0</ele><time>2026-04-10T09:50:31.999Z</time></trkpt><trkpt lat="44.86451824174051" lon="7.794829703622299"><ele>248.7142857142857</ele><time>2026-04-10T09:50:32.999Z</time></trkpt><trkpt lat="44.8645864404817" lon="7.794812160732491"><ele>248.4285714285714</ele><time>2026-04-10T09:50:33.999Z</time></trkpt><trkpt lat="44.86465692897228" lon="7.794798351969454"><ele>248.14285714285714</ele><time>2026-04-10T09:50:34.999Z</time></trkpt><trkpt lat="44.864726715294715" lon="7.794783108656652"><ele>247.85714285714283</ele><time>2026-04-10T09:50:35.999Z</time></trkpt><trkpt lat="44.864800111084335" lon="7.794766952061337"><ele>247.57142857142856</ele><time>2026-04-10T09:50:36.999Z</time></trkpt><trkpt lat="44.86486997335502" lon="7.7947474605197415"><ele>247.28571428571428</ele><time>2026-04-10T09:50:37.999Z</time></trkpt><trkpt lat="44.864938509732504" lon="7.7947359662066855"><ele>247.0</ele><time>2026-04-10T09:50:38.999Z</time></trkpt><trkpt lat="44.86501219503641" lon="7.794718121194747"><ele>247.0</ele><time>2026-04-10T09:50:39.999Z</time></trkpt><trkpt lat="44.865084613804086" lon="7.794701191664848"><ele>247.0</ele><time>2026-04-10T09:50:40.999Z</time></trkpt><trkpt lat="44.86515771326263" lon="7.794684536307529"><ele>247.0</ele><time>2026-04-10T09:50:41.999Z</time></trkpt><trkpt lat="44.86523163355942" lon="7.7946682856677905"><ele>247.0</ele><time>2026-04-10T09:50:42.999Z</time></trkpt><trkpt lat="44.865304660347185" lon="7.794649879819537"><ele>247.0</ele><time>2026-04-10T09:50:43.999Z</time></trkpt><trkpt lat="44.86537633784893" lon="7.794631797599302"><ele>247.0</ele><time>2026-04-10T09:50:44.999Z</time></trkpt><trkpt lat="44.86545105411119" lon="7.794613227233574"><ele>247.0</ele><time>2026-04-10T09:50:45.999Z</time></trkpt><trkpt lat="44.86552204994521" lon="7.794596108841323"><ele>246.83333333333331</ele><time>2026-04-10T09:50:46.999Z</time></trkpt><trkpt lat="44.8655953262973" lon="7.7945787165601566"><ele>246.66666666666666</ele><time>2026-04-10T09:50:47.999Z</time></trkpt><trkpt lat="44.86567111178511" lon="7.794559420440464"><ele>246.5</ele><time>2026-04-10T09:50:48.999Z</time></trkpt><trkpt lat="44.865748960006236" lon="7.794536933792242"><ele>246.33333333333331</ele><time>2026-04-10T09:50:49.999Z</time></trkpt><trkpt lat="44.865825092573445" lon="7.794518046122482"><ele>246.16666666666666</ele><time>2026-04-10T09:50:50.999Z</time></trkpt><trkpt lat="44.86589681821097" lon="7.794502579745077"><ele>246.0</ele><time>2026-04-10T09:50:51.999Z</time></trkpt><trkpt lat="44.865971948823756" lon="7.794485168380684"><ele>246.0</ele><time>2026-04-10T09:50:52.999Z</time></trkpt><trkpt lat="44.866044737362266" lon="7.794468535270748"><ele>246.0</ele><time>2026-04-10T09:50:53.999Z</time></trkpt><trkpt lat="44.86611863411038" lon="7.794451834499291"><ele>246.0</ele><time>2026-04-10T09:50:54.999Z</time></trkpt><trkpt lat="44.86619218187601" lon="7.794436465929278"><ele>246.0</ele><time>2026-04-10T09:50:55.999Z</time></trkpt><trkpt lat="44.866270856977835" lon="7.794417310138774"><ele>246.0</ele><time>2026-04-10T09:50:56.999Z</time></trkpt><trkpt lat="44.866348531960064" lon="7.794398683805743"><ele>246.0</ele><time>2026-04-10T09:50:57.999Z</time></trkpt><trkpt lat="44.86642406555264" lon="7.794381521226093"><ele>246.0</ele><time>2026-04-10T09:50:58.999Z</time></trkpt><trkpt lat="44.86650213027603" lon="7.7943619769168535"><ele>246.0</ele><time>2026-04-10T09:50:59.999Z</time></trkpt><trkpt lat="44.86657277739605" lon="7.794347507004393"><ele>246.0</ele><time>2026-04-10T09:51:00.999Z</time></trkpt><trkpt lat="44.86664797311884" lon="7.794331138248363"><ele>246.0</ele><time>2026-04-10T09:51:01.999Z</time></trkpt><trkpt lat="44.8667231092398" lon="7.79431529518118"><ele>246.0</ele><time>2026-04-10T09:51:02.999Z</time></trkpt><trkpt lat="44.86679529070596" lon="7.794300573372164"><ele>246.0</ele><time>2026-04-10T09:51:03.999Z</time></trkpt><trkpt lat="44.86687355716695" lon="7.794282215992931"><ele>246.00000000000003</ele><time>2026-04-10T09:51:04.999Z</time></trkpt><trkpt lat="44.866947400642374" lon="7.7942657299939695"><ele>246.0</ele><time>2026-04-10T09:51:05.999Z</time></trkpt><trkpt lat="44.86702297205794" lon="7.794246600947397"><ele>246.00000000000003</ele><time>2026-04-10T09:51:06.999Z</time></trkpt><trkpt lat="44.867097440229756" lon="7.79422687792316"><ele>246.00000000000003</ele><time>2026-04-10T09:51:07.999Z</time></trkpt><trkpt lat="44.86716667606806" lon="7.79421223400532"><ele>246.0</ele><time>2026-04-10T09:51:08.999Z</time></trkpt><trkpt lat="44.86723922626238" lon="7.794193533772013"><ele>246.00000000000003</ele><time>2026-04-10T09:51:09.999Z</time></trkpt><trkpt lat="44.867313284191326" lon="7.794177664718321"><ele>246.00000000000003</ele><time>2026-04-10T09:51:10.999Z</time></trkpt><trkpt lat="44.867387330359264" lon="7.7941601408926555"><ele>246.00000000000003</ele><time>2026-04-10T09:51:11.999Z</time></trkpt><trkpt lat="44.86746246898792" lon="7.79413905085794"><ele>246.0</ele><time>2026-04-10T09:51:12.999Z</time></trkpt><trkpt lat="44.867534795573" lon="7.7941243079675795"><ele>246.00000000000003</ele><time>2026-04-10T09:51:13.999Z</time></trkpt><trkpt lat="44.86760827419206" lon="7.794108853441178"><ele>246.00000000000003</ele><time>2026-04-10T09:51:14.999Z</time></trkpt><trkpt lat="44.867681196102026" lon="7.794091163135504"><ele>246.0</ele><time>2026-04-10T09:51:15.999Z</time></trkpt><trkpt lat="44.86775164014356" lon="7.794073583504729"><ele>246.00000000000003</ele><time>2026-04-10T09:51:16.999Z</time></trkpt><trkpt lat="44.86781922397658" lon="7.794060164381252"><ele>246.00000000000003</ele><time>2026-04-10T09:51:17.999Z</time></trkpt><trkpt lat="44.86788999245952" lon="7.794043239285414"><ele>246.00000000000003</ele><time>2026-04-10T09:51:18.999Z</time></trkpt><trkpt lat="44.86795641016729" lon="7.794028272900465"><ele>246.0</ele><time>2026-04-10T09:51:19.999Z</time></trkpt><trkpt lat="44.86803278069115" lon="7.794009658670599"><ele>246.00000000000003</ele><time>2026-04-10T09:51:20.999Z</time></trkpt><trkpt lat="44.86810639603953" lon="7.793991558318431"><ele>246.00000000000003</ele><time>2026-04-10T09:51:21.999Z</time></trkpt><trkpt lat="44.86817785601621" lon="7.7939750620120805"><ele>246.0</ele><time>2026-04-10T09:51:22.999Z</time></trkpt><trkpt lat="44.8682476488769" lon="7.793958862874246"><ele>246.00000000000003</ele><time>2026-04-10T09:51:23.999Z</time></trkpt><trkpt lat="44.86831959615798" lon="7.793942091157483"><ele>246.00000000000003</ele><time>2026-04-10T09:51:24.999Z</time></trkpt><trkpt lat="44.86839003526948" lon="7.793926665784824"><ele>245.8571428571429</ele><time>2026-04-10T09:51:25.999Z</time></trkpt><trkpt lat="44.86845983526391" lon="7.793910735030489"><ele>245.71428571428572</ele><time>2026-04-10T09:51:26.999Z</time></trkpt><trkpt lat="44.86853385496307" lon="7.793892744639332"><ele>245.57142857142858</ele><time>2026-04-10T09:51:27.999Z</time></trkpt><trkpt lat="44.86860689882653" lon="7.793873229974656"><ele>245.42857142857144</ele><time>2026-04-10T09:51:28.999Z</time></trkpt><trkpt lat="44.868680590196114" lon="7.793857796613348"><ele>245.28571428571428</ele><time>2026-04-10T09:51:29.999Z</time></trkpt><trkpt lat="44.86875405405371" lon="7.793841008244954"><ele>245.14285714285714</ele><time>2026-04-10T09:51:30.999Z</time></trkpt><trkpt lat="44.868823574746386" lon="7.793824322702688"><ele>245.0</ele><time>2026-04-10T09:51:31.999Z</time></trkpt><trkpt lat="44.868894878075096" lon="7.7938030146568416"><ele>245.00000000000003</ele><time>2026-04-10T09:51:32.999Z</time></trkpt><trkpt lat="44.86896108942078" lon="7.793780202904998"><ele>245.0</ele><time>2026-04-10T09:51:33.999Z</time></trkpt><trkpt lat="44.86902504466225" lon="7.793749288329461"><ele>245.0</ele><time>2026-04-10T09:51:34.999Z</time></trkpt><trkpt lat="44.869089970972695" lon="7.793717249801499"><ele>245.0</ele><time>2026-04-10T09:51:35.999Z</time></trkpt><trkpt lat="44.86918783470898" lon="7.793661274116955"><ele>245.00000000000003</ele><time>2026-04-10T09:51:37.999Z</time></trkpt><trkpt lat="44.869276900526195" lon="7.793645747020735"><ele>245.0</ele><time>2026-04-10T09:51:41.999Z</time></trkpt><trkpt lat="44.86934655223675" lon="7.793613439686852"><ele>245.0</ele><time>2026-04-10T09:51:43.999Z</time></trkpt><trkpt lat="44.8694374246078" lon="7.793562748208196"><ele>245.0</ele><time>2026-04-10T09:51:45.999Z</time></trkpt><trkpt lat="44.86951351845361" lon="7.7934870733720905"><ele>245.0</ele><time>2026-04-10T09:51:47.999Z</time></trkpt><trkpt lat="44.86958834654016" lon="7.793397112100227"><ele>245.0</ele><time>2026-04-10T09:51:49.999Z</time></trkpt><trkpt lat="44.86967182852508" lon="7.793295695424797"><ele>245.0</ele><time>2026-04-10T09:51:51.999Z</time></trkpt><trkpt lat="44.86977486087858" lon="7.793230677973676"><ele>245.0</ele><time>2026-04-10T09:51:53.999Z</time></trkpt><trkpt lat="44.86989498919701" lon="7.793232484454449"><ele>245.0</ele><time>2026-04-10T09:51:55.999Z</time></trkpt><trkpt lat="44.87001324864744" lon="7.793211556821891"><ele>245.0</ele><time>2026-04-10T09:51:57.999Z</time></trkpt><trkpt lat="44.87012392734268" lon="7.793205310451015"><ele>245.0</ele><time>2026-04-10T09:51:59.999Z</time></trkpt><trkpt lat="44.87022715919403" lon="7.793203693504638"><ele>245.4</ele><time>2026-04-10T09:52:01.999Z</time></trkpt><trkpt lat="44.87034808298365" lon="7.793189136803702"><ele>245.8</ele><time>2026-04-10T09:52:03.999Z</time></trkpt><trkpt lat="44.87045947183372" lon="7.793197290489201"><ele>246.2</ele><time>2026-04-10T09:52:05.999Z</time></trkpt><trkpt lat="44.87056947787785" lon="7.79318998992406"><ele>246.6</ele><time>2026-04-10T09:52:07.999Z</time></trkpt><trkpt lat="44.870673054206705" lon="7.79316532731249"><ele>247.0</ele><time>2026-04-10T09:52:09.999Z</time></trkpt><trkpt lat="44.87075939745109" lon="7.7931693213399695"><ele>247.0</ele><time>2026-04-10T09:52:11.999Z</time></trkpt><trkpt lat="44.8708563329496" lon="7.793154568455448"><ele>247.0</ele><time>2026-04-10T09:52:13.999Z</time></trkpt><trkpt lat="44.870946677885016" lon="7.7931633293112155"><ele>247.0</ele><time>2026-04-10T09:52:15.999Z</time></trkpt><trkpt lat="44.8710497284341" lon="7.793177971212872"><ele>247.0</ele><time>2026-04-10T09:52:17.999Z</time></trkpt><trkpt lat="44.871151713922195" lon="7.793166744162746"><ele>247.0</ele><time>2026-04-10T09:52:19.999Z</time></trkpt><trkpt lat="44.87123913561578" lon="7.793176834915895"><ele>247.8</ele><time>2026-04-10T09:52:21.999Z</time></trkpt><trkpt lat="44.8713505726045" lon="7.7931711327982205"><ele>248.6</ele><time>2026-04-10T09:52:23.999Z</time></trkpt><trkpt lat="44.87145376116954" lon="7.793178352567719"><ele>249.40000000000003</ele><time>2026-04-10T09:52:25.999Z</time></trkpt><trkpt lat="44.871564147881685" lon="7.793158215827899"><ele>250.20000000000002</ele><time>2026-04-10T09:52:27.999Z</time></trkpt><trkpt lat="44.87165638892045" lon="7.793179992180417"><ele>251.0</ele><time>2026-04-10T09:52:29.999Z</time></trkpt><trkpt lat="44.87174379987593" lon="7.793191676434455"><ele>251.99999999999997</ele><time>2026-04-10T09:52:31.999Z</time></trkpt><trkpt lat="44.87180897484671" lon="7.793186121907377"><ele>253.0</ele><time>2026-04-10T09:52:33.999Z</time></trkpt><trkpt lat="44.871873328641065" lon="7.793179855607663"><ele>253.99999999999997</ele><time>2026-04-10T09:52:35.999Z</time></trkpt><trkpt lat="44.871932526928624" lon="7.793132989562863"><ele>254.99999999999997</ele><time>2026-04-10T09:52:37.999Z</time></trkpt><trkpt lat="44.87196275408428" lon="7.7930525130806245"><ele>256.0</ele><time>2026-04-10T09:52:39.999Z</time></trkpt><trkpt lat="44.871946640870654" lon="7.792953254184859"><ele>256.99999999999994</ele><time>2026-04-10T09:52:42.999Z</time></trkpt><trkpt lat="44.87195891317604" lon="7.792845997358197"><ele>258.0</ele><time>2026-04-10T09:52:45.999Z</time></trkpt><trkpt lat="44.871990253495404" lon="7.792751039712601"><ele>257.99999999999994</ele><time>2026-04-10T09:52:50.999Z</time></trkpt><trkpt lat="44.87205639837281" lon="7.792719796463492"><ele>258.0</ele><time>2026-04-10T09:52:54.999Z</time></trkpt><trkpt lat="44.87211622937614" lon="7.792676684383815"><ele>258.0</ele><time>2026-04-10T09:53:07.999Z</time></trkpt><trkpt lat="44.87215010793347" lon="7.792601576915498"><ele>258.0</ele><time>2026-04-10T09:53:14.999Z</time></trkpt><trkpt lat="44.87220209804339" lon="7.792540724082544"><ele>258.0</ele><time>2026-04-10T09:53:18.999Z</time></trkpt><trkpt lat="44.87226436145685" lon="7.792474104033286"><ele>257.99999999999994</ele><time>2026-04-10T09:53:22.999Z</time></trkpt><trkpt lat="44.87229687888237" lon="7.7923896685882745"><ele>258.0</ele><time>2026-04-10T09:53:25.999Z</time></trkpt><trkpt lat="44.87235773541125" lon="7.792103483109973"><ele>257.8333333333333</ele><time>2026-04-10T09:55:01Z</time></trkpt><trkpt lat="44.87236871384711" lon="7.791996922379698"><ele>257.6666666666667</ele><time>2026-04-10T09:55:03Z</time></trkpt><trkpt lat="44.87236804916968" lon="7.7918976374432685"><ele>257.5</ele><time>2026-04-10T09:55:05Z</time></trkpt><trkpt lat="44.87233739940685" lon="7.791813972603588"><ele>257.33333333333337</ele><time>2026-04-10T09:55:07Z</time></trkpt><trkpt lat="44.87228744261733" lon="7.7917278628865265"><ele>257.1666666666667</ele><time>2026-04-10T09:55:09Z</time></trkpt><trkpt lat="44.87223650789889" lon="7.79162759423829"><ele>257.0</ele><time>2026-04-10T09:55:11Z</time></trkpt><trkpt lat="44.87219331012648" lon="7.7915368782733605"><ele>256.5</ele><time>2026-04-10T09:55:13Z</time></trkpt><trkpt lat="44.872174717679755" lon="7.791429265436215"><ele>256.0</ele><time>2026-04-10T09:55:15Z</time></trkpt><trkpt lat="44.87214668860482" lon="7.791332785194234"><ele>255.5</ele><time>2026-04-10T09:55:16.999Z</time></trkpt><trkpt lat="44.87210177176381" lon="7.791217926787133"><ele>255.0</ele><time>2026-04-10T09:55:18.999Z</time></trkpt><trkpt lat="44.872081272383234" lon="7.791095595865469"><ele>254.50000000000003</ele><time>2026-04-10T09:55:20.999Z</time></trkpt><trkpt lat="44.87206730071989" lon="7.790975028255262"><ele>254.0</ele><time>2026-04-10T09:55:22.999Z</time></trkpt><trkpt lat="44.8720351969532" lon="7.790825242763266"><ele>253.6</ele><time>2026-04-10T09:55:24.999Z</time></trkpt><trkpt lat="44.87200779651758" lon="7.790691317962155"><ele>253.2</ele><time>2026-04-10T09:55:26.999Z</time></trkpt><trkpt lat="44.87199463674676" lon="7.790574893036656"><ele>252.79999999999998</ele><time>2026-04-10T09:55:28.999Z</time></trkpt><trkpt lat="44.87197913854019" lon="7.790450410096288"><ele>252.39999999999998</ele><time>2026-04-10T09:55:30.999Z</time></trkpt><trkpt lat="44.87194815323045" lon="7.790329668302818"><ele>252.0</ele><time>2026-04-10T09:55:32.999Z</time></trkpt><trkpt lat="44.87192614788806" lon="7.790183092672459"><ele>252.0</ele><time>2026-04-10T09:55:34.999Z</time></trkpt><trkpt lat="44.87191002393597" lon="7.790032310604371"><ele>252.0</ele><time>2026-04-10T09:55:36.999Z</time></trkpt><trkpt lat="44.87188082934061" lon="7.7898921633872344"><ele>252.0</ele><time>2026-04-10T09:55:38.999Z</time></trkpt><trkpt lat="44.871857509733616" lon="7.789770475654843"><ele>252.0</ele><time>2026-04-10T09:55:40.999Z</time></trkpt><trkpt lat="44.87182877209931" lon="7.789633591575148"><ele>252.0</ele><time>2026-04-10T09:55:42.999Z</time></trkpt><trkpt lat="44.87179578678291" lon="7.789498221939897"><ele>252.0</ele><time>2026-04-10T09:55:44.999Z</time></trkpt><trkpt lat="44.871773555712075" lon="7.789389725112208"><ele>252.0</ele><time>2026-04-10T09:55:46.999Z</time></trkpt><trkpt lat="44.87177143005892" lon="7.78927982446835"><ele>252.0</ele><time>2026-04-10T09:55:48.999Z</time></trkpt><trkpt lat="44.871780717117836" lon="7.789188907405084"><ele>252.0</ele><time>2026-04-10T09:55:50.999Z</time></trkpt><trkpt lat="44.8717056993583" lon="7.789106915472509"><ele>252.0</ele><time>2026-04-10T09:55:53.999Z</time></trkpt><trkpt lat="44.87162422808896" lon="7.789040554882015"><ele>252.0</ele><time>2026-04-10T09:55:55.999Z</time></trkpt><trkpt lat="44.87154097044517" lon="7.788968882331654"><ele>252.0</ele><time>2026-04-10T09:55:57.999Z</time></trkpt><trkpt lat="44.87143051472639" lon="7.788900610965387"><ele>252.0</ele><time>2026-04-10T09:55:59.999Z</time></trkpt><trkpt lat="44.871323450826175" lon="7.788833649276985"><ele>252.0</ele><time>2026-04-10T09:56:01.999Z</time></trkpt><trkpt lat="44.871207452678554" lon="7.788766974912714"><ele>252.0</ele><time>2026-04-10T09:56:03.999Z</time></trkpt><trkpt lat="44.871142887274466" lon="7.7887304876929715"><ele>252.0</ele><time>2026-04-10T09:56:04.999Z</time></trkpt><trkpt lat="44.871082666827704" lon="7.7886947674171"><ele>252.0</ele><time>2026-04-10T09:56:05.999Z</time></trkpt><trkpt lat="44.87101931283534" lon="7.7886520697435575"><ele>252.0</ele><time>2026-04-10T09:56:06.999Z</time></trkpt><trkpt lat="44.87095876489308" lon="7.788607529227824"><ele>252.0</ele><time>2026-04-10T09:56:07.999Z</time></trkpt><trkpt lat="44.870849934626946" lon="7.788529853906455"><ele>252.0</ele><time>2026-04-10T09:56:09.999Z</time></trkpt><trkpt lat="44.87079426355605" lon="7.78847695000444"><ele>252.0</ele><time>2026-04-10T09:56:10.999Z</time></trkpt><trkpt lat="44.8706901163217" lon="7.788408294423772"><ele>252.0</ele><time>2026-04-10T09:56:12.999Z</time></trkpt><trkpt lat="44.87058951294666" lon="7.788330206850747"><ele>251.66666666666666</ele><time>2026-04-10T09:56:14.999Z</time></trkpt><trkpt lat="44.87047719154459" lon="7.788249388517861"><ele>251.33333333333331</ele><time>2026-04-10T09:56:16.999Z</time></trkpt><trkpt lat="44.870417583354794" lon="7.788216535134402"><ele>251.0</ele><time>2026-04-10T09:56:17.999Z</time></trkpt><trkpt lat="44.87035677533325" lon="7.788175586881639"><ele>250.66666666666666</ele><time>2026-04-10T09:56:18.999Z</time></trkpt><trkpt lat="44.87029529116686" lon="7.788122446594141"><ele>250.33333333333331</ele><time>2026-04-10T09:56:19.999Z</time></trkpt><trkpt lat="44.8702382629495" lon="7.788075789132437"><ele>250.0</ele><time>2026-04-10T09:56:20.999Z</time></trkpt><trkpt lat="44.87017987278938" lon="7.788028770106034"><ele>250.0</ele><time>2026-04-10T09:56:21.999Z</time></trkpt><trkpt lat="44.870120423949764" lon="7.787980941502638"><ele>250.0</ele><time>2026-04-10T09:56:22.999Z</time></trkpt><trkpt lat="44.87001859464001" lon="7.787900660656205"><ele>250.0</ele><time>2026-04-10T09:56:24.999Z</time></trkpt><trkpt lat="44.869921649245676" lon="7.787817193244989"><ele>250.0</ele><time>2026-04-10T09:56:26.999Z</time></trkpt><trkpt lat="44.86986575803995" lon="7.787771428140002"><ele>250.0</ele><time>2026-04-10T09:56:27.999Z</time></trkpt><trkpt lat="44.86976506650956" lon="7.787687361388811"><ele>249.66666666666666</ele><time>2026-04-10T09:56:29.999Z</time></trkpt><trkpt lat="44.86970317511678" lon="7.7876559803484"><ele>249.33333333333331</ele><time>2026-04-10T09:56:30.999Z</time></trkpt><trkpt lat="44.869596341083806" lon="7.787566430079299"><ele>249.0</ele><time>2026-04-10T09:56:32.999Z</time></trkpt><trkpt lat="44.86953270363384" lon="7.787518336972573"><ele>248.66666666666669</ele><time>2026-04-10T09:56:33.999Z</time></trkpt><trkpt lat="44.869474061344455" lon="7.7874682091295435"><ele>248.33333333333334</ele><time>2026-04-10T09:56:34.999Z</time></trkpt><trkpt lat="44.869420555904014" lon="7.787416679275184"><ele>248.0</ele><time>2026-04-10T09:56:35.999Z</time></trkpt><trkpt lat="44.86933223854267" lon="7.787337023288209"><ele>248.16666666666669</ele><time>2026-04-10T09:56:37.999Z</time></trkpt><trkpt lat="44.86927173764026" lon="7.787285518148031"><ele>248.33333333333334</ele><time>2026-04-10T09:56:38.999Z</time></trkpt><trkpt lat="44.869217362728556" lon="7.787237768057189"><ele>248.5</ele><time>2026-04-10T09:56:39.999Z</time></trkpt><trkpt lat="44.86916295667941" lon="7.787189351286883"><ele>248.66666666666669</ele><time>2026-04-10T09:56:40.999Z</time></trkpt><trkpt lat="44.869060847403574" lon="7.787100897073123"><ele>248.83333333333334</ele><time>2026-04-10T09:56:42.999Z</time></trkpt><trkpt lat="44.869006208604056" lon="7.787050824988303"><ele>249.0</ele><time>2026-04-10T09:56:43.999Z</time></trkpt><trkpt lat="44.86895034795665" lon="7.78700043333044"><ele>249.0</ele><time>2026-04-10T09:56:44.999Z</time></trkpt><trkpt lat="44.86888690427552" lon="7.786948211617171"><ele>249.0</ele><time>2026-04-10T09:56:45.999Z</time></trkpt><trkpt lat="44.86882965281088" lon="7.786896229788577"><ele>249.0</ele><time>2026-04-10T09:56:46.999Z</time></trkpt><trkpt lat="44.86877030629579" lon="7.78684457331469"><ele>249.0</ele><time>2026-04-10T09:56:47.999Z</time></trkpt><trkpt lat="44.86871473547638" lon="7.78679409156288"><ele>249.0</ele><time>2026-04-10T09:56:48.999Z</time></trkpt><trkpt lat="44.86860137504567" lon="7.786701256802582"><ele>249.0</ele><time>2026-04-10T09:56:50.999Z</time></trkpt><trkpt lat="44.868544378555534" lon="7.786648356084945"><ele>249.0</ele><time>2026-04-10T09:56:51.999Z</time></trkpt><trkpt lat="44.86848978982828" lon="7.786594126806838"><ele>248.99999999999997</ele><time>2026-04-10T09:56:52.999Z</time></trkpt><trkpt lat="44.86843102813417" lon="7.786538516336465"><ele>249.0</ele><time>2026-04-10T09:56:53.999Z</time></trkpt><trkpt lat="44.868375902589506" lon="7.786488786892911"><ele>249.0</ele><time>2026-04-10T09:56:54.999Z</time></trkpt><trkpt lat="44.86832146271819" lon="7.786433975570748"><ele>248.99999999999997</ele><time>2026-04-10T09:56:55.999Z</time></trkpt><trkpt lat="44.86826424976708" lon="7.786381741035263"><ele>249.0</ele><time>2026-04-10T09:56:56.999Z</time></trkpt><trkpt lat="44.8682053695737" lon="7.786331053544247"><ele>249.0</ele><time>2026-04-10T09:56:57.999Z</time></trkpt><trkpt lat="44.86814931177191" lon="7.786279785348515"><ele>249.0</ele><time>2026-04-10T09:56:58.999Z</time></trkpt><trkpt lat="44.868095854090214" lon="7.786228684055222"><ele>248.99999999999997</ele><time>2026-04-10T09:56:59.999Z</time></trkpt><trkpt lat="44.86803897516841" lon="7.786179488390245"><ele>249.0</ele><time>2026-04-10T09:57:00.999Z</time></trkpt><trkpt lat="44.86798156399887" lon="7.786132277119913"><ele>249.0</ele><time>2026-04-10T09:57:01.999Z</time></trkpt><trkpt lat="44.86792416985981" lon="7.786085222404092"><ele>248.99999999999997</ele><time>2026-04-10T09:57:02.999Z</time></trkpt><trkpt lat="44.867870263843315" lon="7.78603741488928"><ele>249.0</ele><time>2026-04-10T09:57:03.999Z</time></trkpt><trkpt lat="44.86781656279641" lon="7.785986547462167"><ele>249.0</ele><time>2026-04-10T09:57:04.999Z</time></trkpt><trkpt lat="44.86776440376936" lon="7.785936450353377"><ele>248.5</ele><time>2026-04-10T09:57:05.999Z</time></trkpt><trkpt lat="44.867666374055055" lon="7.785834353030998"><ele>248.0</ele><time>2026-04-10T09:57:07.999Z</time></trkpt><trkpt lat="44.86756699174227" lon="7.785736463412139"><ele>247.5</ele><time>2026-04-10T09:57:09.999Z</time></trkpt><trkpt lat="44.86746514599889" lon="7.785643180413755"><ele>247.0</ele><time>2026-04-10T09:57:11.999Z</time></trkpt><trkpt lat="44.86738979936735" lon="7.785535518201443"><ele>246.99999999999997</ele><time>2026-04-10T09:57:13.999Z</time></trkpt><trkpt lat="44.867408526763654" lon="7.785393906124088"><ele>247.0</ele><time>2026-04-10T09:57:15.999Z</time></trkpt><trkpt lat="44.86745078458111" lon="7.785321940297049"><ele>247.0</ele><time>2026-04-10T09:57:16.999Z</time></trkpt><trkpt lat="44.86749545142868" lon="7.7852508899764326"><ele>247.0</ele><time>2026-04-10T09:57:17.999Z</time></trkpt><trkpt lat="44.867531282635305" lon="7.785176982039317"><ele>246.99999999999997</ele><time>2026-04-10T09:57:18.999Z</time></trkpt><trkpt lat="44.867573373838304" lon="7.785101253427067"><ele>247.0</ele><time>2026-04-10T09:57:19.999Z</time></trkpt><trkpt lat="44.8676239941042" lon="7.7850057930367615"><ele>247.0</ele><time>2026-04-10T09:57:20.999Z</time></trkpt><trkpt lat="44.86770735630995" lon="7.784856450532756"><ele>247.0</ele><time>2026-04-10T09:57:22.999Z</time></trkpt><trkpt lat="44.8677790368239" lon="7.784750784998186"><ele>247.0</ele><time>2026-04-10T09:57:24.999Z</time></trkpt><trkpt lat="44.867841870793846" lon="7.784618767224705"><ele>247.0</ele><time>2026-04-10T09:57:26.999Z</time></trkpt><trkpt lat="44.867882335929416" lon="7.784544907168744"><ele>247.0</ele><time>2026-04-10T09:57:27.999Z</time></trkpt><trkpt lat="44.86792202060175" lon="7.784466986356782"><ele>246.99999999999997</ele><time>2026-04-10T09:57:28.999Z</time></trkpt><trkpt lat="44.86796006873233" lon="7.78439567602832"><ele>247.0</ele><time>2026-04-10T09:57:29.999Z</time></trkpt><trkpt lat="44.86799896563924" lon="7.784320356434031"><ele>247.0</ele><time>2026-04-10T09:57:30.999Z</time></trkpt><trkpt lat="44.868037526703255" lon="7.784239040688559"><ele>247.0</ele><time>2026-04-10T09:57:31.999Z</time></trkpt><trkpt lat="44.8680738362549" lon="7.7841647248831265"><ele>246.99999999999997</ele><time>2026-04-10T09:57:32.999Z</time></trkpt><trkpt lat="44.86814678457632" lon="7.7840162503728445"><ele>247.0</ele><time>2026-04-10T09:57:34.999Z</time></trkpt><trkpt lat="44.86818459462966" lon="7.783935680718006"><ele>247.0</ele><time>2026-04-10T09:57:35.999Z</time></trkpt><trkpt lat="44.86822080236986" lon="7.783856479681731"><ele>247.0</ele><time>2026-04-10T09:57:36.999Z</time></trkpt><trkpt lat="44.86825980642449" lon="7.783781675855976"><ele>247.0</ele><time>2026-04-10T09:57:37.999Z</time></trkpt><trkpt lat="44.868294079727626" lon="7.783706911110937"><ele>247.0</ele><time>2026-04-10T09:57:38.999Z</time></trkpt><trkpt lat="44.86833335895941" lon="7.7836244887205455"><ele>247.0</ele><time>2026-04-10T09:57:39.999Z</time></trkpt><trkpt lat="44.86837143810027" lon="7.783543015883909"><ele>247.0</ele><time>2026-04-10T09:57:40.999Z</time></trkpt><trkpt lat="44.868408720213104" lon="7.7834668757308165"><ele>247.0</ele><time>2026-04-10T09:57:41.999Z</time></trkpt><trkpt lat="44.86844487310977" lon="7.783388112045478"><ele>246.49999999999997</ele><time>2026-04-10T09:57:42.999Z</time></trkpt><trkpt lat="44.86848524755713" lon="7.783305938100883"><ele>246.0</ele><time>2026-04-10T09:57:43.999Z</time></trkpt><trkpt lat="44.86852523145461" lon="7.783228364368036"><ele>245.5</ele><time>2026-04-10T09:57:44.999Z</time></trkpt><trkpt lat="44.86856183784712" lon="7.783153170464209"><ele>245.0</ele><time>2026-04-10T09:57:45.999Z</time></trkpt><trkpt lat="44.86859769716815" lon="7.783074009593218"><ele>244.49999999999997</ele><time>2026-04-10T09:57:46.999Z</time></trkpt><trkpt lat="44.868659126400324" lon="7.7829239633200205"><ele>244.0</ele><time>2026-04-10T09:57:48.999Z</time></trkpt><trkpt lat="44.86869735189232" lon="7.782837343723213"><ele>244.0</ele><time>2026-04-10T09:57:49.999Z</time></trkpt><trkpt lat="44.86873744893952" lon="7.782757766611765"><ele>243.99999999999997</ele><time>2026-04-10T09:57:50.999Z</time></trkpt><trkpt lat="44.868776237579404" lon="7.782676985113938"><ele>243.99999999999997</ele><time>2026-04-10T09:57:51.999Z</time></trkpt><trkpt lat="44.86884357098747" lon="7.782527973980018"><ele>244.0</ele><time>2026-04-10T09:57:53.999Z</time></trkpt><trkpt lat="44.86888599016437" lon="7.78245116970621"><ele>244.0</ele><time>2026-04-10T09:57:54.999Z</time></trkpt><trkpt lat="44.86896375512651" lon="7.782318877680231"><ele>244.2</ele><time>2026-04-10T09:57:56.999Z</time></trkpt><trkpt lat="44.869031686041396" lon="7.7821772924130945"><ele>244.39999999999998</ele><time>2026-04-10T09:57:58.999Z</time></trkpt><trkpt lat="44.86909369935583" lon="7.782032355283036"><ele>244.6</ele><time>2026-04-10T09:58:00.999Z</time></trkpt><trkpt lat="44.869158961664006" lon="7.781870614916246"><ele>244.8</ele><time>2026-04-10T09:58:02.999Z</time></trkpt><trkpt lat="44.86918824878616" lon="7.781785618496993"><ele>245.0</ele><time>2026-04-10T09:58:03.999Z</time></trkpt><trkpt lat="44.869256787171445" lon="7.7816276815649905"><ele>245.2</ele><time>2026-04-10T09:58:05.999Z</time></trkpt><trkpt lat="44.86928939665293" lon="7.781549631966596"><ele>245.4</ele><time>2026-04-10T09:58:06.999Z</time></trkpt><trkpt lat="44.86935902714291" lon="7.781409569923119"><ele>245.60000000000002</ele><time>2026-04-10T09:58:08.999Z</time></trkpt><trkpt lat="44.869425755777016" lon="7.781259285034996"><ele>245.8</ele><time>2026-04-10T09:58:10.999Z</time></trkpt><trkpt lat="44.86948835358413" lon="7.781138313571359"><ele>246.0</ele><time>2026-04-10T09:58:12.999Z</time></trkpt><trkpt lat="44.869536893258086" lon="7.781067401840652"><ele>246.60000000000002</ele><time>2026-04-10T09:58:13.999Z</time></trkpt><trkpt lat="44.869612855952475" lon="7.780952533762204"><ele>247.20000000000002</ele><time>2026-04-10T09:58:15.999Z</time></trkpt><trkpt lat="44.86968448713957" lon="7.780810768965523"><ele>247.79999999999998</ele><time>2026-04-10T09:58:17.999Z</time></trkpt><trkpt lat="44.86975506377918" lon="7.780683200399655"><ele>248.39999999999998</ele><time>2026-04-10T09:58:19.999Z</time></trkpt><trkpt lat="44.86979511752061" lon="7.780606670111114"><ele>249.0</ele><time>2026-04-10T09:58:20.999Z</time></trkpt><trkpt lat="44.86983300985296" lon="7.780520484064056"><ele>249.0</ele><time>2026-04-10T09:58:21.999Z</time></trkpt><trkpt lat="44.86986557028055" lon="7.780402248396387"><ele>248.99999999999997</ele><time>2026-04-10T09:58:23.999Z</time></trkpt><trkpt lat="44.86985526746465" lon="7.7802953882087795"><ele>248.99999999999997</ele><time>2026-04-10T09:58:25.999Z</time></trkpt><trkpt lat="44.86978599338534" lon="7.780203377667284"><ele>249.0</ele><time>2026-04-10T09:58:28.999Z</time></trkpt><trkpt lat="44.86972216812599" lon="7.780102399136237"><ele>249.0</ele><time>2026-04-10T09:58:30.999Z</time></trkpt><trkpt lat="44.869654933322366" lon="7.780008432085923"><ele>248.2</ele><time>2026-04-10T09:58:32.999Z</time></trkpt><trkpt lat="44.8695840814476" lon="7.779908148751852"><ele>247.39999999999998</ele><time>2026-04-10T09:58:34.999Z</time></trkpt><trkpt lat="44.86952225202679" lon="7.7797919193015055"><ele>246.6</ele><time>2026-04-10T09:58:36.999Z</time></trkpt><trkpt lat="44.86946984336863" lon="7.779678276011757"><ele>245.8</ele><time>2026-04-10T09:58:38.999Z</time></trkpt><trkpt lat="44.86941867907916" lon="7.779559156979028"><ele>245.0</ele><time>2026-04-10T09:58:40.999Z</time></trkpt><trkpt lat="44.869354446332835" lon="7.779428386090363"><ele>245.0</ele><time>2026-04-10T09:58:42.999Z</time></trkpt><trkpt lat="44.86931707961967" lon="7.779355012070154"><ele>245.0</ele><time>2026-04-10T09:58:43.999Z</time></trkpt><trkpt lat="44.86924073295033" lon="7.779210943337476"><ele>245.0</ele><time>2026-04-10T09:58:45.999Z</time></trkpt><trkpt lat="44.86920482477242" lon="7.779132479540313"><ele>245.0</ele><time>2026-04-10T09:58:46.999Z</time></trkpt><trkpt lat="44.86913392281071" lon="7.778979811485642"><ele>245.0</ele><time>2026-04-10T09:58:48.999Z</time></trkpt><trkpt lat="44.86909477264549" lon="7.778892118737783"><ele>245.00000000000003</ele><time>2026-04-10T09:58:49.999Z</time></trkpt><trkpt lat="44.869064079757884" lon="7.778810894597811"><ele>245.0</ele><time>2026-04-10T09:58:50.999Z</time></trkpt><trkpt lat="44.869014357910075" lon="7.778628297692658"><ele>245.0</ele><time>2026-04-10T09:58:52.999Z</time></trkpt><trkpt lat="44.869019922732946" lon="7.7785377893347185"><ele>245.0</ele><time>2026-04-10T09:58:53.999Z</time></trkpt><trkpt lat="44.869029962061184" lon="7.778437485081418"><ele>245.00000000000003</ele><time>2026-04-10T09:58:54.999Z</time></trkpt><trkpt lat="44.869040181712755" lon="7.778344618621726"><ele>245.0</ele><time>2026-04-10T09:58:55.999Z</time></trkpt><trkpt lat="44.869050381380035" lon="7.7782540796427515"><ele>245.0</ele><time>2026-04-10T09:58:56.999Z</time></trkpt><trkpt lat="44.86906060199947" lon="7.778160866845133"><ele>245.0</ele><time>2026-04-10T09:58:57.999Z</time></trkpt><trkpt lat="44.869070022614885" lon="7.778062315391325"><ele>245.0</ele><time>2026-04-10T09:58:58.999Z</time></trkpt><trkpt lat="44.86907787625786" lon="7.777964407318914"><ele>245.0</ele><time>2026-04-10T09:58:59.999Z</time></trkpt><trkpt lat="44.86908714490585" lon="7.777866300621296"><ele>245.0</ele><time>2026-04-10T09:59:00.999Z</time></trkpt><trkpt lat="44.86909353603427" lon="7.777767906122847"><ele>245.0</ele><time>2026-04-10T09:59:01.999Z</time></trkpt><trkpt lat="44.869101360248045" lon="7.777662235014344"><ele>245.0</ele><time>2026-04-10T09:59:02.999Z</time></trkpt><trkpt lat="44.869108731414435" lon="7.777561919748668"><ele>244.66666666666669</ele><time>2026-04-10T09:59:03.999Z</time></trkpt><trkpt lat="44.869119489716965" lon="7.777392307826996"><ele>244.33333333333334</ele><time>2026-04-10T09:59:05.999Z</time></trkpt><trkpt lat="44.869121063608354" lon="7.7772863272122805"><ele>244.0</ele><time>2026-04-10T09:59:06.999Z</time></trkpt><trkpt lat="44.869121602455614" lon="7.777188660148597"><ele>243.66666666666669</ele><time>2026-04-10T09:59:07.999Z</time></trkpt><trkpt lat="44.869122964249904" lon="7.777089872291471"><ele>243.33333333333334</ele><time>2026-04-10T09:59:08.999Z</time></trkpt><trkpt lat="44.86912657527006" lon="7.776994508099352"><ele>243.0</ele><time>2026-04-10T09:59:09.999Z</time></trkpt><trkpt lat="44.86912653456436" lon="7.77682741178655"><ele>242.33333333333334</ele><time>2026-04-10T09:59:11.999Z</time></trkpt><trkpt lat="44.869130677412365" lon="7.776654287117368"><ele>241.66666666666669</ele><time>2026-04-10T09:59:13.999Z</time></trkpt><trkpt lat="44.86912452076863" lon="7.776563220034649"><ele>241.0</ele><time>2026-04-10T09:59:14.999Z</time></trkpt><trkpt lat="44.86911570175695" lon="7.776461558499279"><ele>240.33333333333334</ele><time>2026-04-10T09:59:15.999Z</time></trkpt><trkpt lat="44.86910825543195" lon="7.776361026119771"><ele>239.66666666666669</ele><time>2026-04-10T09:59:16.999Z</time></trkpt><trkpt lat="44.86910072427512" lon="7.776253459734479"><ele>239.0</ele><time>2026-04-10T09:59:17.999Z</time></trkpt><trkpt lat="44.86909312204307" lon="7.776162285664572"><ele>239.00000000000003</ele><time>2026-04-10T09:59:18.999Z</time></trkpt><trkpt lat="44.86908451288053" lon="7.7760712090676485"><ele>239.0</ele><time>2026-04-10T09:59:19.999Z</time></trkpt><trkpt lat="44.86907546067373" lon="7.775979565307395"><ele>239.00000000000003</ele><time>2026-04-10T09:59:20.999Z</time></trkpt><trkpt lat="44.86906531910025" lon="7.775890585330145"><ele>239.00000000000003</ele><time>2026-04-10T09:59:21.999Z</time></trkpt><trkpt lat="44.86904870983285" lon="7.775719089719145"><ele>239.0</ele><time>2026-04-10T09:59:23.999Z</time></trkpt><trkpt lat="44.86904116059358" lon="7.775630033303755"><ele>239.00000000000003</ele><time>2026-04-10T09:59:24.999Z</time></trkpt><trkpt lat="44.86903179973186" lon="7.775538563058219"><ele>239.00000000000003</ele><time>2026-04-10T09:59:25.999Z</time></trkpt><trkpt lat="44.86902776628529" lon="7.775442178658512"><ele>239.0</ele><time>2026-04-10T09:59:26.999Z</time></trkpt><trkpt lat="44.8690104506027" lon="7.775266304119449"><ele>239.0</ele><time>2026-04-10T09:59:28.999Z</time></trkpt><trkpt lat="44.86899675924417" lon="7.7750961737282775"><ele>239.0</ele><time>2026-04-10T09:59:30.999Z</time></trkpt><trkpt lat="44.86898933237603" lon="7.774937155984754"><ele>239.0</ele><time>2026-04-10T09:59:32.999Z</time></trkpt><trkpt lat="44.86897950632138" lon="7.774761273806151"><ele>239.0</ele><time>2026-04-10T09:59:34.999Z</time></trkpt><trkpt lat="44.868972406559806" lon="7.774596585932213"><ele>239.0</ele><time>2026-04-10T09:59:36.999Z</time></trkpt><trkpt lat="44.86894593393095" lon="7.774409431532486"><ele>239.0</ele><time>2026-04-10T09:59:38.999Z</time></trkpt><trkpt lat="44.86892066783243" lon="7.774229532348295"><ele>239.0</ele><time>2026-04-10T09:59:40.999Z</time></trkpt><trkpt lat="44.868908308708704" lon="7.7740699625027725"><ele>238.79999999999998</ele><time>2026-04-10T09:59:42.999Z</time></trkpt><trkpt lat="44.86889443027722" lon="7.773897647959664"><ele>238.59999999999997</ele><time>2026-04-10T09:59:44.999Z</time></trkpt><trkpt lat="44.86888408210003" lon="7.773806456878843"><ele>238.4</ele><time>2026-04-10T09:59:45.999Z</time></trkpt><trkpt lat="44.868863690777154" lon="7.7737116356383416"><ele>238.2</ele><time>2026-04-10T09:59:46.999Z</time></trkpt><trkpt lat="44.86885118422048" lon="7.773584459387537"><ele>238.0</ele><time>2026-04-10T09:59:48.999Z</time></trkpt><trkpt lat="44.868829059810714" lon="7.773427740351929"><ele>238.0</ele><time>2026-04-10T09:59:50.999Z</time></trkpt><trkpt lat="44.86879756558941" lon="7.773245459826339"><ele>238.0</ele><time>2026-04-10T09:59:52.999Z</time></trkpt><trkpt lat="44.868781814664125" lon="7.773155204455879"><ele>238.0</ele><time>2026-04-10T09:59:53.999Z</time></trkpt><trkpt lat="44.86876474897106" lon="7.773068765998559"><ele>238.0</ele><time>2026-04-10T09:59:54.999Z</time></trkpt><trkpt lat="44.868739265635426" lon="7.7729148204845435"><ele>238.0</ele><time>2026-04-10T09:59:56.999Z</time></trkpt><trkpt lat="44.86872502310742" lon="7.772756591665673"><ele>238.60000000000002</ele><time>2026-04-10T09:59:58.999Z</time></trkpt><trkpt lat="44.86870733029048" lon="7.772601741799142"><ele>239.20000000000002</ele><time>2026-04-10T10:00:00.999Z</time></trkpt><trkpt lat="44.86869262078238" lon="7.772507776505699"><ele>239.8</ele><time>2026-04-10T10:00:01.999Z</time></trkpt><trkpt lat="44.86867848844014" lon="7.772419860530684"><ele>240.4</ele><time>2026-04-10T10:00:02.999Z</time></trkpt><trkpt lat="44.868659825052084" lon="7.772280397603337"><ele>241.0</ele><time>2026-04-10T10:00:04.999Z</time></trkpt><trkpt lat="44.86863183663475" lon="7.772097888491483"><ele>241.0</ele><time>2026-04-10T10:00:06.999Z</time></trkpt><trkpt lat="44.868606914462916" lon="7.7719357054596925"><ele>241.00000000000003</ele><time>2026-04-10T10:00:08.999Z</time></trkpt><trkpt lat="44.86858030339715" lon="7.77179693083407"><ele>241.00000000000003</ele><time>2026-04-10T10:00:10.999Z</time></trkpt><trkpt lat="44.868563760789975" lon="7.771710091110701"><ele>241.0</ele><time>2026-04-10T10:00:11.999Z</time></trkpt><trkpt lat="44.86853228040367" lon="7.771564649190064"><ele>241.0</ele><time>2026-04-10T10:00:13.999Z</time></trkpt><trkpt lat="44.8685044909602" lon="7.771412343519016"><ele>241.0</ele><time>2026-04-10T10:00:15.999Z</time></trkpt><trkpt lat="44.868470537233115" lon="7.771312832313577"><ele>241.00000000000003</ele><time>2026-04-10T10:00:17.999Z</time></trkpt><trkpt lat="44.86841417676221" lon="7.7712475944734525"><ele>241.00000000000003</ele><time>2026-04-10T10:00:19.999Z</time></trkpt><trkpt lat="44.868347363475685" lon="7.771162325428033"><ele>241.0</ele><time>2026-04-10T10:00:21.999Z</time></trkpt><trkpt lat="44.86826869328258" lon="7.771057760538695"><ele>241.0</ele><time>2026-04-10T10:00:23.999Z</time></trkpt><trkpt lat="44.868173111443156" lon="7.770969265618455"><ele>241.0</ele><time>2026-04-10T10:00:25.999Z</time></trkpt><trkpt lat="44.868107478731886" lon="7.770897358245405"><ele>241.00000000000003</ele><time>2026-04-10T10:00:26.999Z</time></trkpt><trkpt lat="44.86801658541394" lon="7.7708135008052555"><ele>241.00000000000003</ele><time>2026-04-10T10:00:28.999Z</time></trkpt><trkpt lat="44.86792351408211" lon="7.770737912534647"><ele>241.0</ele><time>2026-04-10T10:00:30.999Z</time></trkpt><trkpt lat="44.8678304465205" lon="7.770644107284809"><ele>241.0</ele><time>2026-04-10T10:00:32.999Z</time></trkpt><trkpt lat="44.86773653425416" lon="7.7705592873031355"><ele>241.0</ele><time>2026-04-10T10:00:34.999Z</time></trkpt><trkpt lat="44.86762984050042" lon="7.770486886727024"><ele>241.0</ele><time>2026-04-10T10:00:36.999Z</time></trkpt><trkpt lat="44.867528658771626" lon="7.770412179527476"><ele>241.0</ele><time>2026-04-10T10:00:38.999Z</time></trkpt><trkpt lat="44.8674186440141" lon="7.770321058169408"><ele>241.0</ele><time>2026-04-10T10:00:40.999Z</time></trkpt><trkpt lat="44.86730685751741" lon="7.770249978749723"><ele>241.25</ele><time>2026-04-10T10:00:42.999Z</time></trkpt><trkpt lat="44.86719807385282" lon="7.770183654220734"><ele>241.5</ele><time>2026-04-10T10:00:44.999Z</time></trkpt><trkpt lat="44.86709217503117" lon="7.770114385315487"><ele>241.75</ele><time>2026-04-10T10:00:46.999Z</time></trkpt><trkpt lat="44.86698772234224" lon="7.7700356737648"><ele>242.0</ele><time>2026-04-10T10:00:48.999Z</time></trkpt><trkpt lat="44.866886447637135" lon="7.769959502152939"><ele>242.0</ele><time>2026-04-10T10:00:50.999Z</time></trkpt><trkpt lat="44.86677827522668" lon="7.769870042358146"><ele>242.0</ele><time>2026-04-10T10:00:52.999Z</time></trkpt><trkpt lat="44.866687840497924" lon="7.769784571794105"><ele>242.0</ele><time>2026-04-10T10:00:54.999Z</time></trkpt><trkpt lat="44.8666376918134" lon="7.769721433685915"><ele>242.0</ele><time>2026-04-10T10:00:55.999Z</time></trkpt><trkpt lat="44.86659199355777" lon="7.769657379238108"><ele>242.0</ele><time>2026-04-10T10:00:56.999Z</time></trkpt><trkpt lat="44.86650630581428" lon="7.769544397129568"><ele>241.8</ele><time>2026-04-10T10:00:58.999Z</time></trkpt><trkpt lat="44.8664180592798" lon="7.769418752054164"><ele>241.6</ele><time>2026-04-10T10:01:00.999Z</time></trkpt><trkpt lat="44.8663709365645" lon="7.769359271134487"><ele>241.40000000000003</ele><time>2026-04-10T10:01:01.999Z</time></trkpt><trkpt lat="44.86629197391675" lon="7.769253250386574"><ele>241.20000000000002</ele><time>2026-04-10T10:01:03.999Z</time></trkpt><trkpt lat="44.86620567018715" lon="7.769141645875236"><ele>241.0</ele><time>2026-04-10T10:01:05.999Z</time></trkpt><trkpt lat="44.866132631071714" lon="7.769039416710319"><ele>241.0</ele><time>2026-04-10T10:01:07.999Z</time></trkpt><trkpt lat="44.86605198819261" lon="7.768938886836204"><ele>241.00000000000003</ele><time>2026-04-10T10:01:09.999Z</time></trkpt><trkpt lat="44.86598019971531" lon="7.7688309328762255"><ele>241.00000000000003</ele><time>2026-04-10T10:01:11.999Z</time></trkpt><trkpt lat="44.86589917607631" lon="7.76869920599243"><ele>241.0</ele><time>2026-04-10T10:01:13.999Z</time></trkpt><trkpt lat="44.86585054213207" lon="7.768624446409726"><ele>241.0</ele><time>2026-04-10T10:01:14.999Z</time></trkpt><trkpt lat="44.86579937147615" lon="7.76855320047142"><ele>240.8</ele><time>2026-04-10T10:01:15.999Z</time></trkpt><trkpt lat="44.86575543654431" lon="7.768480781435449"><ele>240.60000000000002</ele><time>2026-04-10T10:01:16.999Z</time></trkpt><trkpt lat="44.86570862837282" lon="7.768385227247393"><ele>240.4</ele><time>2026-04-10T10:01:17.999Z</time></trkpt><trkpt lat="44.86563529776033" lon="7.768258409552115"><ele>240.2</ele><time>2026-04-10T10:01:19.999Z</time></trkpt><trkpt lat="44.865559276635224" lon="7.768117764857039"><ele>240.0</ele><time>2026-04-10T10:01:21.999Z</time></trkpt><trkpt lat="44.865520738455054" lon="7.768044433615871"><ele>240.0</ele><time>2026-04-10T10:01:22.999Z</time></trkpt><trkpt lat="44.86545617868379" lon="7.767907767323733"><ele>240.0</ele><time>2026-04-10T10:01:24.999Z</time></trkpt><trkpt lat="44.865389657233024" lon="7.767773190503007"><ele>240.0</ele><time>2026-04-10T10:01:26.999Z</time></trkpt><trkpt lat="44.865357690708045" lon="7.767696363306329"><ele>240.0</ele><time>2026-04-10T10:01:27.999Z</time></trkpt><trkpt lat="44.86532764335685" lon="7.767617522462221"><ele>240.0</ele><time>2026-04-10T10:01:28.999Z</time></trkpt><trkpt lat="44.86528694005588" lon="7.767446630920977"><ele>240.25</ele><time>2026-04-10T10:01:30.999Z</time></trkpt><trkpt lat="44.86528706583359" lon="7.767275638323348"><ele>240.5</ele><time>2026-04-10T10:01:32.999Z</time></trkpt><trkpt lat="44.865344673702054" lon="7.76710744748233"><ele>240.75</ele><time>2026-04-10T10:01:34.999Z</time></trkpt><trkpt lat="44.86541265043772" lon="7.767002483236139"><ele>241.0</ele><time>2026-04-10T10:01:36.999Z</time></trkpt><trkpt lat="44.86548722752856" lon="7.766897081330491"><ele>241.4</ele><time>2026-04-10T10:01:39Z</time></trkpt><trkpt lat="44.86554245660042" lon="7.766814938874231"><ele>241.8</ele><time>2026-04-10T10:01:41Z</time></trkpt><trkpt lat="44.86561713660364" lon="7.766682688437439"><ele>242.20000000000002</ele><time>2026-04-10T10:01:43Z</time></trkpt><trkpt lat="44.86568671055504" lon="7.766549834437325"><ele>242.60000000000002</ele><time>2026-04-10T10:01:45Z</time></trkpt><trkpt lat="44.865741444999095" lon="7.766409566202667"><ele>243.0</ele><time>2026-04-10T10:01:47Z</time></trkpt><trkpt lat="44.86576504263393" lon="7.766301374469554"><ele>243.0</ele><time>2026-04-10T10:01:48Z</time></trkpt><trkpt lat="44.86576920440722" lon="7.766206057365866"><ele>243.0</ele><time>2026-04-10T10:01:49Z</time></trkpt><trkpt lat="44.865764352622094" lon="7.76611274718848"><ele>243.0</ele><time>2026-04-10T10:01:50Z</time></trkpt><trkpt lat="44.86576295971572" lon="7.765963698517636"><ele>243.0</ele><time>2026-04-10T10:01:52Z</time></trkpt><trkpt lat="44.86579833136795" lon="7.7657992042418424"><ele>243.0</ele><time>2026-04-10T10:01:54Z</time></trkpt><trkpt lat="44.86583531827272" lon="7.765654773524703"><ele>243.0</ele><time>2026-04-10T10:01:56Z</time></trkpt><trkpt lat="44.865843405004796" lon="7.765541469261188"><ele>243.0</ele><time>2026-04-10T10:01:57Z</time></trkpt><trkpt lat="44.86588047588628" lon="7.765387000616533"><ele>243.0</ele><time>2026-04-10T10:01:59Z</time></trkpt><trkpt lat="44.86590960563199" lon="7.765237071435698"><ele>243.0</ele><time>2026-04-10T10:02:01Z</time></trkpt><trkpt lat="44.86594563833846" lon="7.765090243755041"><ele>243.0</ele><time>2026-04-10T10:02:03Z</time></trkpt><trkpt lat="44.86596674245928" lon="7.7649353480215035"><ele>243.0</ele><time>2026-04-10T10:02:05Z</time></trkpt><trkpt lat="44.865994561049035" lon="7.764782363433828"><ele>243.0</ele><time>2026-04-10T10:02:07Z</time></trkpt><trkpt lat="44.866021647433676" lon="7.764621978618339"><ele>243.0</ele><time>2026-04-10T10:02:09Z</time></trkpt><trkpt lat="44.866052362456166" lon="7.764455426227495"><ele>243.0</ele><time>2026-04-10T10:02:11Z</time></trkpt><trkpt lat="44.86606818712277" lon="7.764277603505563"><ele>242.85714285714283</ele><time>2026-04-10T10:02:13Z</time></trkpt><trkpt lat="44.8660687930812" lon="7.764187281408058"><ele>242.71428571428572</ele><time>2026-04-10T10:02:14Z</time></trkpt><trkpt lat="44.86607094457676" lon="7.764098206480206"><ele>242.57142857142856</ele><time>2026-04-10T10:02:15Z</time></trkpt><trkpt lat="44.86607160334209" lon="7.7639578779282195"><ele>242.42857142857142</ele><time>2026-04-10T10:02:17Z</time></trkpt><trkpt lat="44.86607002446953" lon="7.7638640457505215"><ele>242.28571428571428</ele><time>2026-04-10T10:02:18Z</time></trkpt><trkpt lat="44.86606699739986" lon="7.763757557101187"><ele>242.14285714285714</ele><time>2026-04-10T10:02:19Z</time></trkpt><trkpt lat="44.86606885716543" lon="7.763665219932554"><ele>242.0</ele><time>2026-04-10T10:02:20Z</time></trkpt><trkpt lat="44.866075461057044" lon="7.763495366910845"><ele>241.6</ele><time>2026-04-10T10:02:22Z</time></trkpt><trkpt lat="44.866111654278754" lon="7.763358326952152"><ele>241.2</ele><time>2026-04-10T10:02:24Z</time></trkpt><trkpt lat="44.86620058694682" lon="7.76326734455517"><ele>240.8</ele><time>2026-04-10T10:02:26Z</time></trkpt><trkpt lat="44.866259716287615" lon="7.763207826104372"><ele>240.4</ele><time>2026-04-10T10:02:27Z</time></trkpt><trkpt lat="44.86629762085607" lon="7.7631360879043685"><ele>240.0</ele><time>2026-04-10T10:02:28Z</time></trkpt><trkpt lat="44.8663871247549" lon="7.76302271128201"><ele>240.0</ele><time>2026-04-10T10:02:30Z</time></trkpt><trkpt lat="44.866458027829005" lon="7.762913633402499"><ele>240.0</ele><time>2026-04-10T10:02:32Z</time></trkpt><trkpt lat="44.866530663171105" lon="7.762792737888409"><ele>240.0</ele><time>2026-04-10T10:02:34Z</time></trkpt><trkpt lat="44.86661097865802" lon="7.762668974999753"><ele>240.0</ele><time>2026-04-10T10:02:36Z</time></trkpt><trkpt lat="44.86668612039436" lon="7.762582652042744"><ele>240.0</ele><time>2026-04-10T10:02:38Z</time></trkpt><trkpt lat="44.86676186463327" lon="7.762504171103235"><ele>240.0</ele><time>2026-04-10T10:02:40Z</time></trkpt><trkpt lat="44.86684746567422" lon="7.762401129255713"><ele>240.0</ele><time>2026-04-10T10:02:42Z</time></trkpt><trkpt lat="44.86689357146885" lon="7.762335544209135"><ele>240.0</ele><time>2026-04-10T10:02:43Z</time></trkpt><trkpt lat="44.86697163157625" lon="7.7622274982580715"><ele>240.0</ele><time>2026-04-10T10:02:45Z</time></trkpt><trkpt lat="44.86706524115226" lon="7.762103337799947"><ele>240.0</ele><time>2026-04-10T10:02:47Z</time></trkpt><trkpt lat="44.86715255260128" lon="7.761993029263651"><ele>240.0</ele><time>2026-04-10T10:02:49Z</time></trkpt><trkpt lat="44.86720611768465" lon="7.761918687204413"><ele>240.0</ele><time>2026-04-10T10:02:50Z</time></trkpt><trkpt lat="44.867280338329756" lon="7.761792704383586"><ele>240.0</ele><time>2026-04-10T10:02:52Z</time></trkpt><trkpt lat="44.867327216982744" lon="7.761725457909077"><ele>240.0</ele><time>2026-04-10T10:02:53Z</time></trkpt><trkpt lat="44.86737516592008" lon="7.761652642521836"><ele>240.0</ele><time>2026-04-10T10:02:54Z</time></trkpt><trkpt lat="44.867458233889586" lon="7.761524495573125"><ele>240.0</ele><time>2026-04-10T10:02:56Z</time></trkpt><trkpt lat="44.86749654566498" lon="7.761451906190245"><ele>240.0</ele><time>2026-04-10T10:02:57Z</time></trkpt><trkpt lat="44.867534977016746" lon="7.761376588395251"><ele>240.0</ele><time>2026-04-10T10:02:58Z</time></trkpt><trkpt lat="44.86758398487322" lon="7.7612969237768565"><ele>240.0</ele><time>2026-04-10T10:02:59Z</time></trkpt><trkpt lat="44.867632428023455" lon="7.761239386331127"><ele>240.0</ele><time>2026-04-10T10:03:00Z</time></trkpt><trkpt lat="44.86768803764874" lon="7.761189707743899"><ele>240.0</ele><time>2026-04-10T10:03:01Z</time></trkpt><trkpt lat="44.86774463505654" lon="7.76113560358133"><ele>240.0</ele><time>2026-04-10T10:03:02Z</time></trkpt><trkpt lat="44.86782782335121" lon="7.76100044780117"><ele>239.83333333333334</ele><time>2026-04-10T10:03:04Z</time></trkpt><trkpt lat="44.86785730159797" lon="7.7609184294583855"><ele>239.66666666666669</ele><time>2026-04-10T10:03:05Z</time></trkpt><trkpt lat="44.867886677683515" lon="7.760752944809805"><ele>239.5</ele><time>2026-04-10T10:03:07Z</time></trkpt><trkpt lat="44.86789803306459" lon="7.760660775509276"><ele>239.33333333333334</ele><time>2026-04-10T10:03:08Z</time></trkpt><trkpt lat="44.86791261838142" lon="7.760564908317203"><ele>239.16666666666669</ele><time>2026-04-10T10:03:09Z</time></trkpt><trkpt lat="44.867946619263606" lon="7.76039918506387"><ele>239.0</ele><time>2026-04-10T10:03:11Z</time></trkpt><trkpt lat="44.867973880945996" lon="7.760237972818803"><ele>239.2</ele><time>2026-04-10T10:03:13Z</time></trkpt><trkpt lat="44.8680103775897" lon="7.760088975439515"><ele>239.39999999999998</ele><time>2026-04-10T10:03:15Z</time></trkpt><trkpt lat="44.86802046083729" lon="7.760000234530283"><ele>239.6</ele><time>2026-04-10T10:03:16Z</time></trkpt><trkpt lat="44.86806619381064" lon="7.759842526384844"><ele>239.8</ele><time>2026-04-10T10:03:18Z</time></trkpt><trkpt lat="44.86809914772849" lon="7.7597617387349604"><ele>240.0</ele><time>2026-04-10T10:03:19Z</time></trkpt><trkpt lat="44.86816105282987" lon="7.759606284225764"><ele>240.0</ele><time>2026-04-10T10:03:21Z</time></trkpt><trkpt lat="44.86822056353266" lon="7.759469061709018"><ele>240.0</ele><time>2026-04-10T10:03:23Z</time></trkpt><trkpt lat="44.868256101084555" lon="7.759386152133749"><ele>240.0</ele><time>2026-04-10T10:03:24Z</time></trkpt><trkpt lat="44.86834882226552" lon="7.759278175157396"><ele>240.0</ele><time>2026-04-10T10:03:26Z</time></trkpt><trkpt lat="44.86840508132793" lon="7.759211495754943"><ele>240.0</ele><time>2026-04-10T10:03:27Z</time></trkpt><trkpt lat="44.86845781971764" lon="7.759161531805009"><ele>240.0</ele><time>2026-04-10T10:03:28Z</time></trkpt><trkpt lat="44.86854824826831" lon="7.759067569304329"><ele>240.0</ele><time>2026-04-10T10:03:30Z</time></trkpt><trkpt lat="44.86860933443993" lon="7.759000039043234"><ele>240.0</ele><time>2026-04-10T10:03:31Z</time></trkpt><trkpt lat="44.86869827869318" lon="7.758893291459787"><ele>240.0</ele><time>2026-04-10T10:03:33Z</time></trkpt><trkpt lat="44.868789566724644" lon="7.758794043842209"><ele>240.0</ele><time>2026-04-10T10:03:35Z</time></trkpt><trkpt lat="44.86887996825812" lon="7.758733022732619"><ele>240.0</ele><time>2026-04-10T10:03:36.999Z</time></trkpt><trkpt lat="44.868931390087454" lon="7.758676276851732"><ele>240.0</ele><time>2026-04-10T10:03:37.999Z</time></trkpt><trkpt lat="44.86903170407607" lon="7.758595871046537"><ele>240.0</ele><time>2026-04-10T10:03:39.999Z</time></trkpt><trkpt lat="44.86912555188032" lon="7.758533632228869"><ele>240.0</ele><time>2026-04-10T10:03:41.999Z</time></trkpt><trkpt lat="44.86918551495664" lon="7.758500271633721"><ele>240.0</ele><time>2026-04-10T10:03:42.999Z</time></trkpt><trkpt lat="44.86927770260039" lon="7.758458884168694"><ele>240.0</ele><time>2026-04-10T10:03:44.999Z</time></trkpt><trkpt lat="44.869376281163824" lon="7.7583841926696815"><ele>239.8</ele><time>2026-04-10T10:03:46.999Z</time></trkpt><trkpt lat="44.869472995455205" lon="7.758300126966807"><ele>239.6</ele><time>2026-04-10T10:03:48.999Z</time></trkpt><trkpt lat="44.86955817015494" lon="7.758219443094118"><ele>239.39999999999998</ele><time>2026-04-10T10:03:50.999Z</time></trkpt><trkpt lat="44.86964791649339" lon="7.758115768935003"><ele>239.2</ele><time>2026-04-10T10:03:52.999Z</time></trkpt><trkpt lat="44.86972106431199" lon="7.758024614100639"><ele>239.0</ele><time>2026-04-10T10:03:54.999Z</time></trkpt><trkpt lat="44.8697829612545" lon="7.757915737902719"><ele>239.0</ele><time>2026-04-10T10:03:56.999Z</time></trkpt><trkpt lat="44.869854012718086" lon="7.757791727932449"><ele>238.99999999999997</ele><time>2026-04-10T10:03:58.999Z</time></trkpt><trkpt lat="44.86990722188376" lon="7.757670536595751"><ele>238.99999999999997</ele><time>2026-04-10T10:04:00.999Z</time></trkpt><trkpt lat="44.86997013180239" lon="7.757543270243342"><ele>239.0</ele><time>2026-04-10T10:04:02.999Z</time></trkpt><trkpt lat="44.870007371277225" lon="7.757427066470317"><ele>239.0</ele><time>2026-04-10T10:04:04.999Z</time></trkpt><trkpt lat="44.87005645889722" lon="7.75731025059776"><ele>238.79999999999998</ele><time>2026-04-10T10:04:06.999Z</time></trkpt><trkpt lat="44.87009160140706" lon="7.757189096341812"><ele>238.59999999999997</ele><time>2026-04-10T10:04:08.999Z</time></trkpt><trkpt lat="44.87008690982953" lon="7.757017072351491"><ele>238.4</ele><time>2026-04-10T10:04:10.999Z</time></trkpt><trkpt lat="44.87007846861132" lon="7.756859624866975"><ele>238.2</ele><time>2026-04-10T10:04:12.999Z</time></trkpt><trkpt lat="44.870072296361705" lon="7.756770063038385"><ele>238.0</ele><time>2026-04-10T10:04:13.999Z</time></trkpt><trkpt lat="44.87006378437672" lon="7.756627172782201"><ele>237.99999999999997</ele><time>2026-04-10T10:04:15.999Z</time></trkpt><trkpt lat="44.87005522913007" lon="7.756493048654127"><ele>238.0</ele><time>2026-04-10T10:04:17.999Z</time></trkpt><trkpt lat="44.87004573548368" lon="7.7563853284186735"><ele>238.0</ele><time>2026-04-10T10:04:19.999Z</time></trkpt><trkpt lat="44.87000654422751" lon="7.756303034976467"><ele>238.0</ele><time>2026-04-10T10:04:21.999Z</time></trkpt><trkpt lat="44.86993416367768" lon="7.756245993456396"><ele>237.99999999999997</ele><time>2026-04-10T10:04:23.999Z</time></trkpt><trkpt lat="44.86984122841439" lon="7.756200802105926"><ele>238.0</ele><time>2026-04-10T10:04:25.999Z</time></trkpt><trkpt lat="44.86975288684853" lon="7.756145569199671"><ele>238.0</ele><time>2026-04-10T10:04:27.999Z</time></trkpt><trkpt lat="44.86965813235783" lon="7.756080029216943"><ele>238.0</ele><time>2026-04-10T10:04:29.999Z</time></trkpt><trkpt lat="44.86957277376076" lon="7.7560126805860135"><ele>238.0</ele><time>2026-04-10T10:04:31.999Z</time></trkpt><trkpt lat="44.86948266147812" lon="7.755912972579901"><ele>238.0</ele><time>2026-04-10T10:04:33.999Z</time></trkpt><trkpt lat="44.86939558735768" lon="7.755810626285928"><ele>238.0</ele><time>2026-04-10T10:04:35.999Z</time></trkpt><trkpt lat="44.86932156524002" lon="7.755713883137074"><ele>237.8</ele><time>2026-04-10T10:04:37.999Z</time></trkpt><trkpt lat="44.86924694604736" lon="7.755616382707809"><ele>237.60000000000002</ele><time>2026-04-10T10:04:39.999Z</time></trkpt><trkpt lat="44.86916372618512" lon="7.755513866563816"><ele>237.39999999999998</ele><time>2026-04-10T10:04:41.999Z</time></trkpt><trkpt lat="44.86908307860897" lon="7.755393003141277"><ele>237.2</ele><time>2026-04-10T10:04:43.999Z</time></trkpt><trkpt lat="44.868985605288756" lon="7.755298340883706"><ele>237.0</ele><time>2026-04-10T10:04:45.999Z</time></trkpt><trkpt lat="44.868896602785995" lon="7.755194139244318"><ele>237.0</ele><time>2026-04-10T10:04:47.999Z</time></trkpt><trkpt lat="44.86881288884552" lon="7.755099598677462"><ele>237.0</ele><time>2026-04-10T10:04:49.999Z</time></trkpt><trkpt lat="44.8687362049362" lon="7.755009171003931"><ele>237.0</ele><time>2026-04-10T10:04:51.999Z</time></trkpt><trkpt lat="44.86866554741444" lon="7.7549125674058335"><ele>237.0</ele><time>2026-04-10T10:04:53.999Z</time></trkpt><trkpt lat="44.868589491788654" lon="7.754789991006834"><ele>237.0</ele><time>2026-04-10T10:04:55.999Z</time></trkpt><trkpt lat="44.86850873741058" lon="7.754672642753362"><ele>237.75</ele><time>2026-04-10T10:04:57.999Z</time></trkpt><trkpt lat="44.8684235459421" lon="7.754594777384194"><ele>238.5</ele><time>2026-04-10T10:04:59.999Z</time></trkpt><trkpt lat="44.868342056238355" lon="7.754477707079158"><ele>239.25</ele><time>2026-04-10T10:05:01.999Z</time></trkpt><trkpt lat="44.86825074290401" lon="7.7543751378816035"><ele>240.0</ele><time>2026-04-10T10:05:03.999Z</time></trkpt><trkpt lat="44.86815859399922" lon="7.754272691189876"><ele>240.8</ele><time>2026-04-10T10:05:05.999Z</time></trkpt><trkpt lat="44.86807042729356" lon="7.75417377479992"><ele>241.6</ele><time>2026-04-10T10:05:07.999Z</time></trkpt><trkpt lat="44.867984414910765" lon="7.75406468748463"><ele>242.39999999999998</ele><time>2026-04-10T10:05:09.999Z</time></trkpt><trkpt lat="44.86790283908093" lon="7.753964382751878"><ele>243.2</ele><time>2026-04-10T10:05:11.999Z</time></trkpt><trkpt lat="44.8678208736889" lon="7.753861034337117"><ele>244.0</ele><time>2026-04-10T10:05:13.999Z</time></trkpt><trkpt lat="44.867744335933324" lon="7.753742268102187"><ele>244.0</ele><time>2026-04-10T10:05:15.999Z</time></trkpt><trkpt lat="44.86765497924164" lon="7.753623730632635"><ele>244.0</ele><time>2026-04-10T10:05:17.999Z</time></trkpt><trkpt lat="44.86757181304939" lon="7.753500958282533"><ele>244.0</ele><time>2026-04-10T10:05:19.999Z</time></trkpt><trkpt lat="44.86750210047287" lon="7.7533594755924975"><ele>244.0</ele><time>2026-04-10T10:05:21.999Z</time></trkpt><trkpt lat="44.867426641136674" lon="7.753224141140295"><ele>243.33333333333331</ele><time>2026-04-10T10:05:23.999Z</time></trkpt><trkpt lat="44.86739090089027" lon="7.75314851007185"><ele>242.66666666666666</ele><time>2026-04-10T10:05:24.999Z</time></trkpt><trkpt lat="44.86731524153906" lon="7.752999894353729"><ele>242.0</ele><time>2026-04-10T10:05:26.999Z</time></trkpt><trkpt lat="44.86727132139006" lon="7.752922013803209"><ele>241.33333333333331</ele><time>2026-04-10T10:05:27.999Z</time></trkpt><trkpt lat="44.86721715336391" lon="7.752780790416044"><ele>240.66666666666666</ele><time>2026-04-10T10:05:29.999Z</time></trkpt><trkpt lat="44.86717816176006" lon="7.752702148786629"><ele>240.0</ele><time>2026-04-10T10:05:30.999Z</time></trkpt><trkpt lat="44.867141182674544" lon="7.752622541019965"><ele>239.83333333333334</ele><time>2026-04-10T10:05:31.999Z</time></trkpt><trkpt lat="44.86710512042916" lon="7.7525481209654865"><ele>239.66666666666669</ele><time>2026-04-10T10:05:32.999Z</time></trkpt><trkpt lat="44.867064003288284" lon="7.752474063875715"><ele>239.5</ele><time>2026-04-10T10:05:33.999Z</time></trkpt><trkpt lat="44.86698790188647" lon="7.752347640364048"><ele>239.33333333333334</ele><time>2026-04-10T10:05:35.999Z</time></trkpt><trkpt lat="44.866941885437036" lon="7.752281680495901"><ele>239.16666666666669</ele><time>2026-04-10T10:05:36.999Z</time></trkpt><trkpt lat="44.86689671843702" lon="7.752218393748939"><ele>239.0</ele><time>2026-04-10T10:05:37.999Z</time></trkpt><trkpt lat="44.8668420775045" lon="7.752150332715665"><ele>239.0</ele><time>2026-04-10T10:05:38.999Z</time></trkpt><trkpt lat="44.86679055012562" lon="7.752036317447507"><ele>238.99999999999997</ele><time>2026-04-10T10:05:40.999Z</time></trkpt><trkpt lat="44.866734192636464" lon="7.7518986222704"><ele>238.99999999999997</ele><time>2026-04-10T10:05:42.999Z</time></trkpt><trkpt lat="44.8666843064664" lon="7.75176927447285"><ele>239.0</ele><time>2026-04-10T10:05:44.999Z</time></trkpt><trkpt lat="44.86662149663751" lon="7.751627942619476"><ele>239.0</ele><time>2026-04-10T10:05:46.999Z</time></trkpt><trkpt lat="44.866558731809825" lon="7.751486471573563"><ele>239.2</ele><time>2026-04-10T10:05:48.999Z</time></trkpt><trkpt lat="44.86650308766436" lon="7.751379157009741"><ele>239.39999999999998</ele><time>2026-04-10T10:05:50.999Z</time></trkpt><trkpt lat="44.866443057325796" lon="7.751280912557037"><ele>239.6</ele><time>2026-04-10T10:05:52.999Z</time></trkpt><trkpt lat="44.86638125385997" lon="7.751163954334044"><ele>239.8</ele><time>2026-04-10T10:05:54.999Z</time></trkpt><trkpt lat="44.86631784586932" lon="7.751025141391361"><ele>240.0</ele><time>2026-04-10T10:05:56.999Z</time></trkpt><trkpt lat="44.866254245796846" lon="7.75089022593725"><ele>240.2</ele><time>2026-04-10T10:05:58.999Z</time></trkpt><trkpt lat="44.86620097936936" lon="7.750760242882905"><ele>240.4</ele><time>2026-04-10T10:06:00.999Z</time></trkpt><trkpt lat="44.866158397469434" lon="7.75062803783291"><ele>240.60000000000002</ele><time>2026-04-10T10:06:02.999Z</time></trkpt><trkpt lat="44.86611519967635" lon="7.750493645085785"><ele>240.8</ele><time>2026-04-10T10:06:04.999Z</time></trkpt><trkpt lat="44.86605686594646" lon="7.750335393809725"><ele>241.0</ele><time>2026-04-10T10:06:06.999Z</time></trkpt><trkpt lat="44.86600740986551" lon="7.750198235702066"><ele>240.75</ele><time>2026-04-10T10:06:08.999Z</time></trkpt><trkpt lat="44.865913965439574" lon="7.750095829112848"><ele>240.5</ele><time>2026-04-10T10:06:10.999Z</time></trkpt><trkpt lat="44.8658006124993" lon="7.750037295171369"><ele>240.25</ele><time>2026-04-10T10:06:12.999Z</time></trkpt><trkpt lat="44.86568285894037" lon="7.750020557909795"><ele>240.0</ele><time>2026-04-10T10:06:14.999Z</time></trkpt><trkpt lat="44.865569970001914" lon="7.749982822811769"><ele>240.0</ele><time>2026-04-10T10:06:16.999Z</time></trkpt><trkpt lat="44.86550541067695" lon="7.74996382998659"><ele>240.0</ele><time>2026-04-10T10:06:17.999Z</time></trkpt><trkpt lat="44.86544230137497" lon="7.74994680043743"><ele>240.0</ele><time>2026-04-10T10:06:18.999Z</time></trkpt><trkpt lat="44.865380888177135" lon="7.749920127099945"><ele>240.0</ele><time>2026-04-10T10:06:19.999Z</time></trkpt><trkpt lat="44.86530611520991" lon="7.749898160053976"><ele>240.0</ele><time>2026-04-10T10:06:20.999Z</time></trkpt><trkpt lat="44.8652361739146" lon="7.749868548083234"><ele>240.0</ele><time>2026-04-10T10:06:21.999Z</time></trkpt><trkpt lat="44.86515759516505" lon="7.74983710913511"><ele>240.0</ele><time>2026-04-10T10:06:22.999Z</time></trkpt><trkpt lat="44.86509166315026" lon="7.749812395801053"><ele>239.83333333333334</ele><time>2026-04-10T10:06:23.999Z</time></trkpt><trkpt lat="44.86503041283334" lon="7.74977900123666"><ele>239.66666666666669</ele><time>2026-04-10T10:06:24.999Z</time></trkpt><trkpt lat="44.86497290245009" lon="7.749741739629931"><ele>239.5</ele><time>2026-04-10T10:06:25.999Z</time></trkpt><trkpt lat="44.86485045828985" lon="7.749666731775603"><ele>239.33333333333334</ele><time>2026-04-10T10:06:27.999Z</time></trkpt><trkpt lat="44.864789452702574" lon="7.749626607068793"><ele>239.16666666666669</ele><time>2026-04-10T10:06:28.999Z</time></trkpt><trkpt lat="44.864724892955735" lon="7.749596072898462"><ele>239.0</ele><time>2026-04-10T10:06:29.999Z</time></trkpt><trkpt lat="44.8646152448319" lon="7.749549331369771"><ele>239.0</ele><time>2026-04-10T10:06:31.999Z</time></trkpt><trkpt lat="44.86450196565346" lon="7.749502583983864"><ele>238.99999999999997</ele><time>2026-04-10T10:06:33.999Z</time></trkpt><trkpt lat="44.864382891291434" lon="7.749446428875669"><ele>238.99999999999997</ele><time>2026-04-10T10:06:35.999Z</time></trkpt><trkpt lat="44.864320274251575" lon="7.749420400457212"><ele>239.0</ele><time>2026-04-10T10:06:36.999Z</time></trkpt><trkpt lat="44.864204684470394" lon="7.7493634474366155"><ele>239.0</ele><time>2026-04-10T10:06:38.999Z</time></trkpt><trkpt lat="44.864096447673745" lon="7.749307019862669"><ele>238.66666666666669</ele><time>2026-04-10T10:06:40.999Z</time></trkpt><trkpt lat="44.86398436770642" lon="7.749248220158829"><ele>238.33333333333334</ele><time>2026-04-10T10:06:42.999Z</time></trkpt><trkpt lat="44.863916550600415" lon="7.749209551651538"><ele>238.0</ele><time>2026-04-10T10:06:43.999Z</time></trkpt><trkpt lat="44.86385314328349" lon="7.749172268442616"><ele>237.66666666666669</ele><time>2026-04-10T10:06:44.999Z</time></trkpt><trkpt lat="44.86379926183166" lon="7.749124172245057"><ele>237.33333333333334</ele><time>2026-04-10T10:06:45.999Z</time></trkpt><trkpt lat="44.86370175361049" lon="7.7490195263256485"><ele>237.0</ele><time>2026-04-10T10:06:47.999Z</time></trkpt><trkpt lat="44.86363479052332" lon="7.748882732829018"><ele>237.0</ele><time>2026-04-10T10:06:49.999Z</time></trkpt><trkpt lat="44.86358384954981" lon="7.74873153695021"><ele>237.0</ele><time>2026-04-10T10:06:51.999Z</time></trkpt><trkpt lat="44.86355026237402" lon="7.748607370288528"><ele>237.0</ele><time>2026-04-10T10:06:53.999Z</time></trkpt><trkpt lat="44.863517976977356" lon="7.748492605458986"><ele>237.0</ele><time>2026-04-10T10:06:55.999Z</time></trkpt><trkpt lat="44.863504948391544" lon="7.748357355630698"><ele>237.0</ele><time>2026-04-10T10:06:57.999Z</time></trkpt><trkpt lat="44.8635128093759" lon="7.748206344045266"><ele>237.33333333333334</ele><time>2026-04-10T10:06:59.999Z</time></trkpt><trkpt lat="44.86353683541276" lon="7.7481217510098865"><ele>237.66666666666669</ele><time>2026-04-10T10:07:00.999Z</time></trkpt><trkpt lat="44.86356803986942" lon="7.747961367279891"><ele>238.0</ele><time>2026-04-10T10:07:02.999Z</time></trkpt><trkpt lat="44.863584869420194" lon="7.747840060780206"><ele>238.33333333333334</ele><time>2026-04-10T10:07:04.999Z</time></trkpt><trkpt lat="44.86358990022361" lon="7.747726883679955"><ele>238.66666666666669</ele><time>2026-04-10T10:07:06.999Z</time></trkpt><trkpt lat="44.863593505616905" lon="7.747603074864782"><ele>239.0</ele><time>2026-04-10T10:07:08.999Z</time></trkpt><trkpt lat="44.86359402013429" lon="7.747483498725902"><ele>239.0</ele><time>2026-04-10T10:07:10.999Z</time></trkpt><trkpt lat="44.86358321228445" lon="7.747348322829761"><ele>238.99999999999997</ele><time>2026-04-10T10:07:12.999Z</time></trkpt><trkpt lat="44.86354923591729" lon="7.747205884713408"><ele>238.99999999999997</ele><time>2026-04-10T10:07:14.999Z</time></trkpt><trkpt lat="44.8634778047885" lon="7.74705296430857"><ele>239.0</ele><time>2026-04-10T10:07:16.999Z</time></trkpt><trkpt lat="44.86343391864862" lon="7.746982122310625"><ele>239.0</ele><time>2026-04-10T10:07:17.999Z</time></trkpt><trkpt lat="44.86338479959349" lon="7.746905327843729"><ele>239.33333333333334</ele><time>2026-04-10T10:07:18.999Z</time></trkpt><trkpt lat="44.86333766836083" lon="7.746832427339679"><ele>239.66666666666669</ele><time>2026-04-10T10:07:19.999Z</time></trkpt><trkpt lat="44.86328846808551" lon="7.746755540319464"><ele>240.0</ele><time>2026-04-10T10:07:20.999Z</time></trkpt><trkpt lat="44.86323596476344" lon="7.746677630827486"><ele>240.33333333333331</ele><time>2026-04-10T10:07:21.999Z</time></trkpt><trkpt lat="44.86318093572207" lon="7.746606515555045"><ele>240.66666666666666</ele><time>2026-04-10T10:07:22.999Z</time></trkpt><trkpt lat="44.86311337611958" lon="7.746521327885262"><ele>241.0</ele><time>2026-04-10T10:07:23.999Z</time></trkpt><trkpt lat="44.86305176830822" lon="7.746431587076214"><ele>240.99999999999997</ele><time>2026-04-10T10:07:24.999Z</time></trkpt><trkpt lat="44.86300044768189" lon="7.746342512672943"><ele>241.0</ele><time>2026-04-10T10:07:25.999Z</time></trkpt><trkpt lat="44.86295154259019" lon="7.746253343433634"><ele>241.0</ele><time>2026-04-10T10:07:26.999Z</time></trkpt><trkpt lat="44.86290435029585" lon="7.746159691209541"><ele>241.0</ele><time>2026-04-10T10:07:27.999Z</time></trkpt><trkpt lat="44.862857210560676" lon="7.7460681561427895"><ele>240.99999999999997</ele><time>2026-04-10T10:07:28.999Z</time></trkpt><trkpt lat="44.862811679748255" lon="7.745967821375578"><ele>241.0</ele><time>2026-04-10T10:07:29.999Z</time></trkpt><trkpt lat="44.86277286383436" lon="7.745870067288788"><ele>240.60000000000002</ele><time>2026-04-10T10:07:30.999Z</time></trkpt><trkpt lat="44.86273239161594" lon="7.745764516974064"><ele>240.20000000000002</ele><time>2026-04-10T10:07:31.999Z</time></trkpt><trkpt lat="44.86269804214803" lon="7.745674374262401"><ele>239.79999999999998</ele><time>2026-04-10T10:07:32.999Z</time></trkpt><trkpt lat="44.86264929403655" lon="7.745525308725259"><ele>239.39999999999998</ele><time>2026-04-10T10:07:34.999Z</time></trkpt><trkpt lat="44.86263716451984" lon="7.7453940567619135"><ele>239.0</ele><time>2026-04-10T10:07:36.999Z</time></trkpt><trkpt lat="44.862786706657154" lon="7.745420172998757"><ele>239.0</ele><time>2026-04-10T10:07:40.999Z</time></trkpt><trkpt lat="44.86288036959305" lon="7.745468021483904"><ele>238.99999999999997</ele><time>2026-04-10T10:07:42.999Z</time></trkpt><trkpt lat="44.86298448749651" lon="7.745495466324523"><ele>238.99999999999997</ele><time>2026-04-10T10:07:44.999Z</time></trkpt><trkpt lat="44.86308202553643" lon="7.745479694942979"><ele>239.0</ele><time>2026-04-10T10:07:46.999Z</time></trkpt><trkpt lat="44.86319401180937" lon="7.7454887206600915"><ele>239.0</ele><time>2026-04-10T10:07:48.999Z</time></trkpt><trkpt lat="44.86328129974946" lon="7.7454735712505975"><ele>239.0</ele><time>2026-04-10T10:07:50.999Z</time></trkpt><trkpt lat="44.8633844346466" lon="7.745463989139011"><ele>238.99999999999997</ele><time>2026-04-10T10:07:52.999Z</time></trkpt><trkpt lat="44.8634808488311" lon="7.745415452436043"><ele>238.99999999999997</ele><time>2026-04-10T10:07:54.999Z</time></trkpt><trkpt lat="44.86358398345705" lon="7.745359290701203"><ele>239.0</ele><time>2026-04-10T10:07:56.999Z</time></trkpt><trkpt lat="44.86367244196625" lon="7.745326828813037"><ele>239.0</ele><time>2026-04-10T10:07:58.999Z</time></trkpt><trkpt lat="44.86376904604638" lon="7.745276899201193"><ele>239.2</ele><time>2026-04-10T10:08:00.999Z</time></trkpt><trkpt lat="44.86387140817965" lon="7.7452055262797685"><ele>239.39999999999998</ele><time>2026-04-10T10:08:02.999Z</time></trkpt><trkpt lat="44.86398089656795" lon="7.745125968786939"><ele>239.6</ele><time>2026-04-10T10:08:04.999Z</time></trkpt><trkpt lat="44.86404023235422" lon="7.745095566459068"><ele>239.8</ele><time>2026-04-10T10:08:05.999Z</time></trkpt><trkpt lat="44.864100892435545" lon="7.74505767564245"><ele>240.0</ele><time>2026-04-10T10:08:06.998Z</time></trkpt><trkpt lat="44.86421169235943" lon="7.744993290784093"><ele>240.4</ele><time>2026-04-10T10:08:08.998Z</time></trkpt><trkpt lat="44.86429276365678" lon="7.74494398653165"><ele>240.8</ele><time>2026-04-10T10:08:10.998Z</time></trkpt><trkpt lat="44.864387582985174" lon="7.744893150015516"><ele>241.2</ele><time>2026-04-10T10:08:12.998Z</time></trkpt><trkpt lat="44.86448780839726" lon="7.7448515476731465"><ele>241.6</ele><time>2026-04-10T10:08:14.998Z</time></trkpt><trkpt lat="44.86457757730866" lon="7.7447931101853715"><ele>242.0</ele><time>2026-04-10T10:08:16.998Z</time></trkpt><trkpt lat="44.86467525290368" lon="7.744740465129258"><ele>242.0</ele><time>2026-04-10T10:08:18.998Z</time></trkpt><trkpt lat="44.864773756461446" lon="7.744683571929202"><ele>242.0</ele><time>2026-04-10T10:08:20.998Z</time></trkpt><trkpt lat="44.864869836370964" lon="7.744632831678547"><ele>242.0</ele><time>2026-04-10T10:08:22.998Z</time></trkpt><trkpt lat="44.864973353450615" lon="7.7445613377194915"><ele>242.0</ele><time>2026-04-10T10:08:24.998Z</time></trkpt><trkpt lat="44.86506336588759" lon="7.744512457191885"><ele>242.0</ele><time>2026-04-10T10:08:26.998Z</time></trkpt><trkpt lat="44.86515745949393" lon="7.7444670524352475"><ele>242.0</ele><time>2026-04-10T10:08:28.998Z</time></trkpt><trkpt lat="44.865247493418835" lon="7.7444203492537875"><ele>242.0</ele><time>2026-04-10T10:08:30.998Z</time></trkpt><trkpt lat="44.8653586311252" lon="7.7444098366343095"><ele>242.0</ele><time>2026-04-10T10:08:32.998Z</time></trkpt><trkpt lat="44.86545301083248" lon="7.744373170921597"><ele>242.0</ele><time>2026-04-10T10:08:34.998Z</time></trkpt><trkpt lat="44.865567749529994" lon="7.74432314414147"><ele>242.0</ele><time>2026-04-10T10:08:36.998Z</time></trkpt><trkpt lat="44.86568273619991" lon="7.744292579468466"><ele>241.6</ele><time>2026-04-10T10:08:38.998Z</time></trkpt><trkpt lat="44.86579670465656" lon="7.744266194099543"><ele>241.2</ele><time>2026-04-10T10:08:40.998Z</time></trkpt><trkpt lat="44.86591897359751" lon="7.744259641799551"><ele>240.8</ele><time>2026-04-10T10:08:42.998Z</time></trkpt><trkpt lat="44.86598460905373" lon="7.744248803107143"><ele>240.4</ele><time>2026-04-10T10:08:43.998Z</time></trkpt><trkpt lat="44.86605946924279" lon="7.744249147119061"><ele>240.0</ele><time>2026-04-10T10:08:45Z</time></trkpt><trkpt lat="44.86613019494414" lon="7.744240925929726"><ele>239.83333333333334</ele><time>2026-04-10T10:08:46Z</time></trkpt><trkpt lat="44.86623811811028" lon="7.744269190069964"><ele>239.66666666666669</ele><time>2026-04-10T10:08:48Z</time></trkpt><trkpt lat="44.86630648982569" lon="7.7442819193186"><ele>239.5</ele><time>2026-04-10T10:08:49Z</time></trkpt><trkpt lat="44.866377902003656" lon="7.7442961879826635"><ele>239.33333333333334</ele><time>2026-04-10T10:08:50Z</time></trkpt><trkpt lat="44.86649339932889" lon="7.744345692464894"><ele>239.16666666666669</ele><time>2026-04-10T10:08:52Z</time></trkpt><trkpt lat="44.86655280136431" lon="7.744379819201323"><ele>239.0</ele><time>2026-04-10T10:08:53Z</time></trkpt><trkpt lat="44.86661248711119" lon="7.744411054741501"><ele>239.0</ele><time>2026-04-10T10:08:54Z</time></trkpt><trkpt lat="44.866724290765966" lon="7.744490699901828"><ele>239.0</ele><time>2026-04-10T10:08:56Z</time></trkpt><trkpt lat="44.86682207996103" lon="7.744583979542367"><ele>239.0</ele><time>2026-04-10T10:08:58Z</time></trkpt><trkpt lat="44.86692166307678" lon="7.744668197004831"><ele>239.0</ele><time>2026-04-10T10:09:00Z</time></trkpt><trkpt lat="44.86700639647543" lon="7.744760461971153"><ele>239.0</ele><time>2026-04-10T10:09:02Z</time></trkpt><trkpt lat="44.867063053339336" lon="7.744799954491501"><ele>238.99999999999997</ele><time>2026-04-10T10:09:03Z</time></trkpt><trkpt lat="44.86717314871264" lon="7.744879917338355"><ele>238.99999999999997</ele><time>2026-04-10T10:09:05Z</time></trkpt><trkpt lat="44.8672391238297" lon="7.744934968951205"><ele>239.0</ele><time>2026-04-10T10:09:06Z</time></trkpt><trkpt lat="44.867345533332404" lon="7.745013189956138"><ele>239.0</ele><time>2026-04-10T10:09:08Z</time></trkpt><trkpt lat="44.86744718416366" lon="7.745082005993948"><ele>239.0</ele><time>2026-04-10T10:09:10Z</time></trkpt><trkpt lat="44.86754903163521" lon="7.745154101122111"><ele>238.99999999999997</ele><time>2026-04-10T10:09:12Z</time></trkpt><trkpt lat="44.867654359947274" lon="7.745238660331309"><ele>238.99999999999997</ele><time>2026-04-10T10:09:14Z</time></trkpt><trkpt lat="44.8677300471899" lon="7.7452724470061955"><ele>239.0</ele><time>2026-04-10T10:09:15Z</time></trkpt><trkpt lat="44.86779121296692" lon="7.745310613220111"><ele>239.0</ele><time>2026-04-10T10:09:16Z</time></trkpt><trkpt lat="44.86790527853153" lon="7.745383124072736"><ele>238.79999999999998</ele><time>2026-04-10T10:09:18Z</time></trkpt><trkpt lat="44.86800714499534" lon="7.74546764744836"><ele>238.59999999999997</ele><time>2026-04-10T10:09:20Z</time></trkpt><trkpt lat="44.86812569633365" lon="7.745546610167139"><ele>238.4</ele><time>2026-04-10T10:09:22Z</time></trkpt><trkpt lat="44.868184684115064" lon="7.745579969930644"><ele>238.2</ele><time>2026-04-10T10:09:23Z</time></trkpt><trkpt lat="44.86829728639385" lon="7.745637630306928"><ele>238.0</ele><time>2026-04-10T10:09:25Z</time></trkpt><trkpt lat="44.868362120770485" lon="7.745665562405359"><ele>238.2</ele><time>2026-04-10T10:09:26Z</time></trkpt><trkpt lat="44.86846695735715" lon="7.745726581078485"><ele>238.4</ele><time>2026-04-10T10:09:28Z</time></trkpt><trkpt lat="44.86857124776219" lon="7.745772634083449"><ele>238.59999999999997</ele><time>2026-04-10T10:09:30Z</time></trkpt><trkpt lat="44.86866193813093" lon="7.7458229816954445"><ele>238.79999999999998</ele><time>2026-04-10T10:09:32Z</time></trkpt><trkpt lat="44.86876107108684" lon="7.745871659395428"><ele>239.0</ele><time>2026-04-10T10:09:34Z</time></trkpt><trkpt lat="44.8688431929397" lon="7.745920902351144"><ele>239.0</ele><time>2026-04-10T10:09:36Z</time></trkpt><trkpt lat="44.86893110720936" lon="7.7459547255720205"><ele>238.99999999999997</ele><time>2026-04-10T10:09:38Z</time></trkpt><trkpt lat="44.869026842141174" lon="7.745986486110799"><ele>238.99999999999997</ele><time>2026-04-10T10:09:40Z</time></trkpt><trkpt lat="44.869129999987564" lon="7.746008873129913"><ele>239.0</ele><time>2026-04-10T10:09:42Z</time></trkpt><trkpt lat="44.86922753874164" lon="7.7460028736487025"><ele>239.0</ele><time>2026-04-10T10:09:44Z</time></trkpt><trkpt lat="44.86930195553875" lon="7.745980067158284"><ele>239.16666666666669</ele><time>2026-04-10T10:09:46Z</time></trkpt><trkpt lat="44.86936136951774" lon="7.7459388243395315"><ele>239.33333333333334</ele><time>2026-04-10T10:09:48Z</time></trkpt><trkpt lat="44.86946086631064" lon="7.745860803135493"><ele>239.5</ele><time>2026-04-10T10:09:50Z</time></trkpt><trkpt lat="44.86954502466807" lon="7.745797108687249"><ele>239.66666666666669</ele><time>2026-04-10T10:09:52Z</time></trkpt><trkpt lat="44.869639383546186" lon="7.745735471293524"><ele>239.83333333333334</ele><time>2026-04-10T10:09:54Z</time></trkpt><trkpt lat="44.86969810166552" lon="7.745699722497926"><ele>240.0</ele><time>2026-04-10T10:09:55Z</time></trkpt><trkpt lat="44.86979629352984" lon="7.745632468010538"><ele>240.0</ele><time>2026-04-10T10:09:57Z</time></trkpt><trkpt lat="44.86987605697069" lon="7.745569205443505"><ele>240.0</ele><time>2026-04-10T10:09:59Z</time></trkpt><trkpt lat="44.86997663510288" lon="7.745479492495633"><ele>240.0</ele><time>2026-04-10T10:10:01Z</time></trkpt><trkpt lat="44.870035831585014" lon="7.745433993826938"><ele>240.0</ele><time>2026-04-10T10:10:02Z</time></trkpt><trkpt lat="44.87009732137955" lon="7.745393785807279"><ele>240.0</ele><time>2026-04-10T10:10:03Z</time></trkpt><trkpt lat="44.87015509238331" lon="7.745358365059499"><ele>240.0</ele><time>2026-04-10T10:10:04Z</time></trkpt><trkpt lat="44.87026581086198" lon="7.745302985115203"><ele>239.6</ele><time>2026-04-10T10:10:06Z</time></trkpt><trkpt lat="44.87036433665413" lon="7.745245300827948"><ele>239.2</ele><time>2026-04-10T10:10:08Z</time></trkpt><trkpt lat="44.87048189304122" lon="7.745221725739277"><ele>238.8</ele><time>2026-04-10T10:10:10Z</time></trkpt><trkpt lat="44.87054479571479" lon="7.745227565560339"><ele>238.4</ele><time>2026-04-10T10:10:11Z</time></trkpt><trkpt lat="44.87066968545199" lon="7.745252724719349"><ele>238.0</ele><time>2026-04-10T10:10:13Z</time></trkpt><trkpt lat="44.870789977890894" lon="7.745306762711302"><ele>237.99999999999997</ele><time>2026-04-10T10:10:15Z</time></trkpt><trkpt lat="44.87084885518628" lon="7.745339557758588"><ele>238.0</ele><time>2026-04-10T10:10:16Z</time></trkpt><trkpt lat="44.87094691526916" lon="7.745456411725845"><ele>238.0</ele><time>2026-04-10T10:10:18Z</time></trkpt><trkpt lat="44.87099855333582" lon="7.74552446728514"><ele>238.0</ele><time>2026-04-10T10:10:19Z</time></trkpt><trkpt lat="44.87104340608985" lon="7.745589999996661"><ele>237.99999999999997</ele><time>2026-04-10T10:10:20Z</time></trkpt><trkpt lat="44.871087685757374" lon="7.745655817275948"><ele>238.0</ele><time>2026-04-10T10:10:21Z</time></trkpt><trkpt lat="44.871130970540335" lon="7.745730257714063"><ele>238.14285714285714</ele><time>2026-04-10T10:10:22Z</time></trkpt><trkpt lat="44.87117746284939" lon="7.745808094767164"><ele>238.28571428571428</ele><time>2026-04-10T10:10:23Z</time></trkpt><trkpt lat="44.87121975382279" lon="7.745879360541317"><ele>238.42857142857144</ele><time>2026-04-10T10:10:24Z</time></trkpt><trkpt lat="44.87126486879453" lon="7.745949645116714"><ele>238.57142857142858</ele><time>2026-04-10T10:10:25Z</time></trkpt><trkpt lat="44.871311240260404" lon="7.746020661780038"><ele>238.71428571428572</ele><time>2026-04-10T10:10:26Z</time></trkpt><trkpt lat="44.871356070208165" lon="7.7460907292166725"><ele>238.8571428571429</ele><time>2026-04-10T10:10:27Z</time></trkpt><trkpt lat="44.871403396919945" lon="7.746163055112229"><ele>239.00000000000003</ele><time>2026-04-10T10:10:28Z</time></trkpt><trkpt lat="44.871447787730695" lon="7.746230865778399"><ele>239.16666666666669</ele><time>2026-04-10T10:10:29Z</time></trkpt><trkpt lat="44.87149638768781" lon="7.746300484141824"><ele>239.33333333333334</ele><time>2026-04-10T10:10:30Z</time></trkpt><trkpt lat="44.87154096046594" lon="7.746364583477476"><ele>239.5</ele><time>2026-04-10T10:10:31Z</time></trkpt><trkpt lat="44.871613812376395" lon="7.746475718347535"><ele>239.66666666666669</ele><time>2026-04-10T10:10:33Z</time></trkpt><trkpt lat="44.87167311152813" lon="7.746594852418276"><ele>239.83333333333334</ele><time>2026-04-10T10:10:35Z</time></trkpt><trkpt lat="44.87170859662277" lon="7.746672725762002"><ele>240.0</ele><time>2026-04-10T10:10:36Z</time></trkpt><trkpt lat="44.87174338668147" lon="7.746747233856204"><ele>240.0</ele><time>2026-04-10T10:10:37Z</time></trkpt><trkpt lat="44.87181568638631" lon="7.746860632411855"><ele>240.0</ele><time>2026-04-10T10:10:39Z</time></trkpt><trkpt lat="44.87193161968957" lon="7.746936373356272"><ele>240.0</ele><time>2026-04-10T10:10:41Z</time></trkpt><trkpt lat="44.872050203107264" lon="7.746936711209565"><ele>240.0</ele><time>2026-04-10T10:10:43Z</time></trkpt><trkpt lat="44.8721126141671" lon="7.746916914259802"><ele>240.0</ele><time>2026-04-10T10:10:44Z</time></trkpt><trkpt lat="44.8721753198912" lon="7.746900031837826"><ele>240.0</ele><time>2026-04-10T10:10:45Z</time></trkpt><trkpt lat="44.87229061342764" lon="7.746856741257782"><ele>240.0</ele><time>2026-04-10T10:10:47Z</time></trkpt><trkpt lat="44.872405022685776" lon="7.746793424753164"><ele>240.0</ele><time>2026-04-10T10:10:49Z</time></trkpt><trkpt lat="44.87247219010321" lon="7.746752978471814"><ele>240.0</ele><time>2026-04-10T10:10:50Z</time></trkpt><trkpt lat="44.872532228440186" lon="7.746712616362778"><ele>240.0</ele><time>2026-04-10T10:10:51Z</time></trkpt><trkpt lat="44.872591351955634" lon="7.746665617741526"><ele>239.8</ele><time>2026-04-10T10:10:52Z</time></trkpt><trkpt lat="44.87268462511328" lon="7.7465798082432205"><ele>239.6</ele><time>2026-04-10T10:10:54Z</time></trkpt><trkpt lat="44.8727636095974" lon="7.746481282201206"><ele>239.39999999999998</ele><time>2026-04-10T10:10:56Z</time></trkpt><trkpt lat="44.87280887559687" lon="7.746418355845894"><ele>239.2</ele><time>2026-04-10T10:10:57Z</time></trkpt><trkpt lat="44.872884276955624" lon="7.746300963569215"><ele>239.0</ele><time>2026-04-10T10:10:59Z</time></trkpt><trkpt lat="44.87296242324379" lon="7.746186180385906"><ele>239.0</ele><time>2026-04-10T10:11:01Z</time></trkpt><trkpt lat="44.87302471342281" lon="7.7460619499126855"><ele>238.99999999999997</ele><time>2026-04-10T10:11:03Z</time></trkpt><trkpt lat="44.87309254245868" lon="7.745963651389933"><ele>238.99999999999997</ele><time>2026-04-10T10:11:05Z</time></trkpt><trkpt lat="44.87314585830965" lon="7.745872494847377"><ele>239.0</ele><time>2026-04-10T10:11:07Z</time></trkpt><trkpt lat="44.87321220474233" lon="7.745764866324143"><ele>239.0</ele><time>2026-04-10T10:11:09Z</time></trkpt><trkpt lat="44.873305257415396" lon="7.745664259357474"><ele>239.0</ele><time>2026-04-10T10:11:11Z</time></trkpt><trkpt lat="44.8734181417878" lon="7.745598719380629"><ele>238.99999999999997</ele><time>2026-04-10T10:11:13Z</time></trkpt><trkpt lat="44.87352957172077" lon="7.745598357440209"><ele>238.99999999999997</ele><time>2026-04-10T10:11:15Z</time></trkpt><trkpt lat="44.87365207390619" lon="7.745595832302396"><ele>239.0</ele><time>2026-04-10T10:11:17Z</time></trkpt><trkpt lat="44.87372041328491" lon="7.745586590329555"><ele>239.0</ele><time>2026-04-10T10:11:18Z</time></trkpt><trkpt lat="44.87381517950737" lon="7.7455622149132575"><ele>239.0</ele><time>2026-04-10T10:11:20Z</time></trkpt><trkpt lat="44.87392772557206" lon="7.745556707613627"><ele>238.99999999999997</ele><time>2026-04-10T10:11:22Z</time></trkpt><trkpt lat="44.874031590645" lon="7.745584407992769"><ele>238.99999999999997</ele><time>2026-04-10T10:11:24Z</time></trkpt><trkpt lat="44.874142223954074" lon="7.745577869801484"><ele>239.0</ele><time>2026-04-10T10:11:26Z</time></trkpt><trkpt lat="44.87420574823091" lon="7.745578634959487"><ele>239.0</ele><time>2026-04-10T10:11:27Z</time></trkpt><trkpt lat="44.87431893857111" lon="7.7455644369271495"><ele>238.39999999999998</ele><time>2026-04-10T10:11:29Z</time></trkpt><trkpt lat="44.87442767136176" lon="7.745558823465944"><ele>237.79999999999998</ele><time>2026-04-10T10:11:31Z</time></trkpt><trkpt lat="44.87452490057042" lon="7.745545750195231"><ele>237.20000000000002</ele><time>2026-04-10T10:11:33Z</time></trkpt><trkpt lat="44.874626864564746" lon="7.745559301927785"><ele>236.60000000000002</ele><time>2026-04-10T10:11:35Z</time></trkpt><trkpt lat="44.874687196566065" lon="7.745658127130213"><ele>236.0</ele><time>2026-04-10T10:11:37Z</time></trkpt><trkpt lat="44.87471195550752" lon="7.745799264181391"><ele>236.0</ele><time>2026-04-10T10:11:39Z</time></trkpt><trkpt lat="44.87474122060449" lon="7.745963905366092"><ele>236.00000000000003</ele><time>2026-04-10T10:11:41Z</time></trkpt><trkpt lat="44.874768303898804" lon="7.746116284393369"><ele>236.00000000000003</ele><time>2026-04-10T10:11:43Z</time></trkpt><trkpt lat="44.87481567589208" lon="7.746261284435009"><ele>236.0</ele><time>2026-04-10T10:11:45Z</time></trkpt><trkpt lat="44.87487824031232" lon="7.7463671948079975"><ele>236.0</ele><time>2026-04-10T10:11:47Z</time></trkpt><trkpt lat="44.87496088882542" lon="7.746470276994835"><ele>236.25</ele><time>2026-04-10T10:11:49Z</time></trkpt><trkpt lat="44.8750458423118" lon="7.746565238642471"><ele>236.5</ele><time>2026-04-10T10:11:51Z</time></trkpt><trkpt lat="44.87515346606009" lon="7.746619962067205"><ele>236.75</ele><time>2026-04-10T10:11:53Z</time></trkpt><trkpt lat="44.875269518924455" lon="7.746644993918379"><ele>237.0</ele><time>2026-04-10T10:11:55Z</time></trkpt><trkpt lat="44.87538331843533" lon="7.746666064252676"><ele>237.25</ele><time>2026-04-10T10:11:57Z</time></trkpt><trkpt lat="44.87550146478535" lon="7.746656372520782"><ele>237.5</ele><time>2026-04-10T10:11:59Z</time></trkpt><trkpt lat="44.87561439961363" lon="7.746637612341843"><ele>237.75</ele><time>2026-04-10T10:12:01Z</time></trkpt><trkpt lat="44.875715357266756" lon="7.7466493240578815"><ele>238.0</ele><time>2026-04-10T10:12:03Z</time></trkpt><trkpt lat="44.87583566047082" lon="7.746624041674786"><ele>238.0</ele><time>2026-04-10T10:12:05Z</time></trkpt><trkpt lat="44.875898473898125" lon="7.746611415999828"><ele>238.0</ele><time>2026-04-10T10:12:06Z</time></trkpt><trkpt lat="44.87600708751536" lon="7.7465933206989535"><ele>238.0</ele><time>2026-04-10T10:12:08Z</time></trkpt><trkpt lat="44.87611570598077" lon="7.746599884338932"><ele>238.0</ele><time>2026-04-10T10:12:10Z</time></trkpt><trkpt lat="44.87623410132091" lon="7.746583062215857"><ele>238.0</ele><time>2026-04-10T10:12:12Z</time></trkpt><trkpt lat="44.87634723623847" lon="7.746592066098392"><ele>237.75</ele><time>2026-04-10T10:12:14Z</time></trkpt><trkpt lat="44.87646345393063" lon="7.746597871762366"><ele>237.5</ele><time>2026-04-10T10:12:16Z</time></trkpt><trkpt lat="44.87657854459268" lon="7.746611305201786"><ele>237.25</ele><time>2026-04-10T10:12:18Z</time></trkpt><trkpt lat="44.87669851916384" lon="7.746615997444602"><ele>237.0</ele><time>2026-04-10T10:12:20Z</time></trkpt><trkpt lat="44.87680585151909" lon="7.746604327303592"><ele>237.0</ele><time>2026-04-10T10:12:22Z</time></trkpt><trkpt lat="44.87692477864245" lon="7.746598653157375"><ele>237.0</ele><time>2026-04-10T10:12:24Z</time></trkpt><trkpt lat="44.87703904726392" lon="7.746593541570368"><ele>237.0</ele><time>2026-04-10T10:12:26Z</time></trkpt><trkpt lat="44.87715659216539" lon="7.746576896319725"><ele>237.0</ele><time>2026-04-10T10:12:28Z</time></trkpt><trkpt lat="44.87727982775034" lon="7.746572015359382"><ele>237.0</ele><time>2026-04-10T10:12:30Z</time></trkpt><trkpt lat="44.87738609649168" lon="7.746553197265845"><ele>237.0</ele><time>2026-04-10T10:12:32Z</time></trkpt><trkpt lat="44.87746350916807" lon="7.746548635281752"><ele>237.0</ele><time>2026-04-10T10:12:34Z</time></trkpt><trkpt lat="44.8775354703104" lon="7.746501885514995"><ele>237.0</ele><time>2026-04-10T10:12:36Z</time></trkpt><trkpt lat="44.87757747833411" lon="7.746384256476096"><ele>237.0</ele><time>2026-04-10T10:12:38Z</time></trkpt><trkpt lat="44.87759655849379" lon="7.7462383922323035"><ele>237.0</ele><time>2026-04-10T10:12:40Z</time></trkpt><trkpt lat="44.8775962172143" lon="7.746109715438443"><ele>237.0</ele><time>2026-04-10T10:12:42Z</time></trkpt><trkpt lat="44.87761795644353" lon="7.745968123061953"><ele>237.0</ele><time>2026-04-10T10:12:44Z</time></trkpt><trkpt lat="44.877627017737595" lon="7.745835473621464"><ele>237.0</ele><time>2026-04-10T10:12:46Z</time></trkpt><trkpt lat="44.87765352541176" lon="7.745714596031626"><ele>237.0</ele><time>2026-04-10T10:12:48Z</time></trkpt><trkpt lat="44.8776727236533" lon="7.7455958402223315"><ele>237.0</ele><time>2026-04-10T10:12:50Z</time></trkpt><trkpt lat="44.877687220378014" lon="7.745449550174278"><ele>237.0</ele><time>2026-04-10T10:12:52Z</time></trkpt><trkpt lat="44.877705214502754" lon="7.745285523529825"><ele>237.0</ele><time>2026-04-10T10:12:54Z</time></trkpt><trkpt lat="44.877708136070794" lon="7.7451220395431095"><ele>237.0</ele><time>2026-04-10T10:12:56Z</time></trkpt><trkpt lat="44.87771764296605" lon="7.744977886428641"><ele>237.0</ele><time>2026-04-10T10:12:58Z</time></trkpt><trkpt lat="44.87775709176205" lon="7.744832181126814"><ele>237.0</ele><time>2026-04-10T10:13:00Z</time></trkpt><trkpt lat="44.87778829169576" lon="7.744675192442687"><ele>237.0</ele><time>2026-04-10T10:13:02Z</time></trkpt><trkpt lat="44.87781806815059" lon="7.744520552500719"><ele>237.0</ele><time>2026-04-10T10:13:04Z</time></trkpt><trkpt lat="44.87784025775898" lon="7.744370372638885"><ele>237.0</ele><time>2026-04-10T10:13:06Z</time></trkpt><trkpt lat="44.8778826079491" lon="7.74423434160993"><ele>237.0</ele><time>2026-04-10T10:13:08Z</time></trkpt><trkpt lat="44.87791690306223" lon="7.74412996419481"><ele>237.0</ele><time>2026-04-10T10:13:10Z</time></trkpt><trkpt lat="44.877938261836796" lon="7.743993886410443"><ele>237.0</ele><time>2026-04-10T10:13:12Z</time></trkpt><trkpt lat="44.8779780472592" lon="7.743855638758461"><ele>237.0</ele><time>2026-04-10T10:13:14Z</time></trkpt><trkpt lat="44.878023363294965" lon="7.743709903292684"><ele>237.0</ele><time>2026-04-10T10:13:16Z</time></trkpt><trkpt lat="44.87805149877486" lon="7.743552215128053"><ele>237.0</ele><time>2026-04-10T10:13:18Z</time></trkpt><trkpt lat="44.878053753414314" lon="7.743458950896819"><ele>237.16666666666666</ele><time>2026-04-10T10:13:19Z</time></trkpt><trkpt lat="44.87806957284774" lon="7.743302470254612"><ele>237.33333333333331</ele><time>2026-04-10T10:13:20.999Z</time></trkpt><trkpt lat="44.87807937479675" lon="7.743209168530839"><ele>237.5</ele><time>2026-04-10T10:13:21.998Z</time></trkpt><trkpt lat="44.878093918529025" lon="7.743122163289651"><ele>237.66666666666666</ele><time>2026-04-10T10:13:22.998Z</time></trkpt><trkpt lat="44.878116909314876" lon="7.74295884790326"><ele>237.83333333333331</ele><time>2026-04-10T10:13:24.998Z</time></trkpt><trkpt lat="44.87812992652709" lon="7.742862264891257"><ele>238.0</ele><time>2026-04-10T10:13:25.998Z</time></trkpt><trkpt lat="44.87815197266764" lon="7.742716735135999"><ele>237.71428571428572</ele><time>2026-04-10T10:13:27.998Z</time></trkpt><trkpt lat="44.878159978309675" lon="7.742624700907328"><ele>237.42857142857144</ele><time>2026-04-10T10:13:28.998Z</time></trkpt><trkpt lat="44.87816705670859" lon="7.742521655335093"><ele>237.14285714285714</ele><time>2026-04-10T10:13:29.998Z</time></trkpt><trkpt lat="44.8781764562459" lon="7.742422453495635"><ele>236.85714285714286</ele><time>2026-04-10T10:13:30.998Z</time></trkpt><trkpt lat="44.87818421478676" lon="7.742317891590658"><ele>236.57142857142858</ele><time>2026-04-10T10:13:31.998Z</time></trkpt><trkpt lat="44.8781933453906" lon="7.742219690756182"><ele>236.28571428571428</ele><time>2026-04-10T10:13:32.998Z</time></trkpt><trkpt lat="44.878201726794344" lon="7.74211686075164"><ele>236.0</ele><time>2026-04-10T10:13:33.998Z</time></trkpt><trkpt lat="44.87821173538195" lon="7.742021040560544"><ele>236.0</ele><time>2026-04-10T10:13:34.998Z</time></trkpt><trkpt lat="44.87822460275895" lon="7.74191660443476"><ele>236.0</ele><time>2026-04-10T10:13:35.998Z</time></trkpt><trkpt lat="44.87824014162905" lon="7.741812975414985"><ele>236.0</ele><time>2026-04-10T10:13:36.998Z</time></trkpt><trkpt lat="44.87824859259435" lon="7.74170540280885"><ele>236.0</ele><time>2026-04-10T10:13:37.998Z</time></trkpt><trkpt lat="44.878260345897836" lon="7.741613473583774"><ele>236.0</ele><time>2026-04-10T10:13:38.998Z</time></trkpt><trkpt lat="44.878268678087785" lon="7.741507807272656"><ele>236.0</ele><time>2026-04-10T10:13:39.998Z</time></trkpt><trkpt lat="44.878280904454535" lon="7.741411953325846"><ele>236.0</ele><time>2026-04-10T10:13:40.998Z</time></trkpt><trkpt lat="44.87828550333167" lon="7.741308887099307"><ele>235.83333333333334</ele><time>2026-04-10T10:13:41.998Z</time></trkpt><trkpt lat="44.87828941557169" lon="7.74119891029671"><ele>235.66666666666669</ele><time>2026-04-10T10:13:42.998Z</time></trkpt><trkpt lat="44.878296113525586" lon="7.741093092561022"><ele>235.5</ele><time>2026-04-10T10:13:43.998Z</time></trkpt><trkpt lat="44.878309077084374" lon="7.740991758078841"><ele>235.33333333333331</ele><time>2026-04-10T10:13:44.998Z</time></trkpt><trkpt lat="44.87832481352589" lon="7.740885600210621"><ele>235.16666666666666</ele><time>2026-04-10T10:13:45.998Z</time></trkpt><trkpt lat="44.87833691735341" lon="7.740764495664143"><ele>235.0</ele><time>2026-04-10T10:13:46.998Z</time></trkpt><trkpt lat="44.87834834283019" lon="7.740652254296364"><ele>235.33333333333331</ele><time>2026-04-10T10:13:47.998Z</time></trkpt><trkpt lat="44.87836025954345" lon="7.740536028488978"><ele>235.66666666666666</ele><time>2026-04-10T10:13:48.998Z</time></trkpt><trkpt lat="44.87837168180459" lon="7.740430279787302"><ele>236.0</ele><time>2026-04-10T10:13:49.998Z</time></trkpt><trkpt lat="44.878384290562984" lon="7.740326152073145"><ele>236.33333333333331</ele><time>2026-04-10T10:13:50.998Z</time></trkpt><trkpt lat="44.87839387314374" lon="7.740217233013022"><ele>236.66666666666666</ele><time>2026-04-10T10:13:51.998Z</time></trkpt><trkpt lat="44.87840591858241" lon="7.740110536939452"><ele>237.0</ele><time>2026-04-10T10:13:52.998Z</time></trkpt><trkpt lat="44.878421055371994" lon="7.739987490337673"><ele>237.16666666666666</ele><time>2026-04-10T10:13:53.998Z</time></trkpt><trkpt lat="44.87843255450507" lon="7.739864164770987"><ele>237.33333333333331</ele><time>2026-04-10T10:13:54.998Z</time></trkpt><trkpt lat="44.878446456522745" lon="7.739752084403064"><ele>237.5</ele><time>2026-04-10T10:13:55.998Z</time></trkpt><trkpt lat="44.87846126252146" lon="7.7396436715145365"><ele>237.66666666666666</ele><time>2026-04-10T10:13:56.998Z</time></trkpt><trkpt lat="44.87847525535779" lon="7.739532070115619"><ele>237.83333333333331</ele><time>2026-04-10T10:13:57.998Z</time></trkpt><trkpt lat="44.87849159906203" lon="7.739417002392261"><ele>238.0</ele><time>2026-04-10T10:13:58.998Z</time></trkpt><trkpt lat="44.87850482413171" lon="7.739315851824174"><ele>237.4</ele><time>2026-04-10T10:13:59.998Z</time></trkpt><trkpt lat="44.878517129881516" lon="7.739217357583613"><ele>236.8</ele><time>2026-04-10T10:14:00.998Z</time></trkpt><trkpt lat="44.87853756717196" lon="7.739053997909863"><ele>236.2</ele><time>2026-04-10T10:14:02.998Z</time></trkpt><trkpt lat="44.878553635180765" lon="7.73890426977019"><ele>235.6</ele><time>2026-04-10T10:14:04.998Z</time></trkpt><trkpt lat="44.878567773036785" lon="7.738756755437576"><ele>235.0</ele><time>2026-04-10T10:14:06.998Z</time></trkpt><trkpt lat="44.8785823976426" lon="7.738599812743791"><ele>234.83333333333331</ele><time>2026-04-10T10:14:08.998Z</time></trkpt><trkpt lat="44.87859037458583" lon="7.738504463383052"><ele>234.66666666666666</ele><time>2026-04-10T10:14:10.998Z</time></trkpt><trkpt lat="44.878604174687844" lon="7.738393488448189"><ele>234.5</ele><time>2026-04-10T10:14:13.998Z</time></trkpt><trkpt lat="44.87861134061282" lon="7.738275664223783"><ele>234.33333333333331</ele><time>2026-04-10T10:14:15.998Z</time></trkpt><trkpt lat="44.87863071046564" lon="7.738162348139706"><ele>234.16666666666666</ele><time>2026-04-10T10:14:17.998Z</time></trkpt><trkpt lat="44.87865423803885" lon="7.738064158510882"><ele>234.0</ele><time>2026-04-10T10:14:19.998Z</time></trkpt><trkpt lat="44.8786684350718" lon="7.7379733516013465"><ele>234.0</ele><time>2026-04-10T10:14:21.998Z</time></trkpt><trkpt lat="44.87868020971645" lon="7.737873360089828"><ele>234.0</ele><time>2026-04-10T10:14:23.998Z</time></trkpt><trkpt lat="44.878691341383835" lon="7.737721026324032"><ele>234.0</ele><time>2026-04-10T10:14:25.998Z</time></trkpt><trkpt lat="44.878698759757214" lon="7.737632716242703"><ele>234.0</ele><time>2026-04-10T10:14:26.998Z</time></trkpt><trkpt lat="44.878709614959696" lon="7.737543550937009"><ele>234.0</ele><time>2026-04-10T10:14:27.998Z</time></trkpt><trkpt lat="44.87872549321371" lon="7.737437083942504"><ele>234.0</ele><time>2026-04-10T10:14:28.998Z</time></trkpt><trkpt lat="44.87875585788793" lon="7.737288806677017"><ele>234.2</ele><time>2026-04-10T10:14:29.998Z</time></trkpt><trkpt lat="44.87876926270712" lon="7.737163227179312"><ele>234.39999999999998</ele><time>2026-04-10T10:14:30.998Z</time></trkpt><trkpt lat="44.878785640992035" lon="7.737038078962726"><ele>234.6</ele><time>2026-04-10T10:14:31.998Z</time></trkpt><trkpt lat="44.878802052948764" lon="7.736883029146575"><ele>234.8</ele><time>2026-04-10T10:14:32.998Z</time></trkpt><trkpt lat="44.8788153244045" lon="7.736729447026959"><ele>235.0</ele><time>2026-04-10T10:14:33.998Z</time></trkpt><trkpt lat="44.87882815840944" lon="7.736585369738756"><ele>235.0</ele><time>2026-04-10T10:14:34.998Z</time></trkpt><trkpt lat="44.8788446149706" lon="7.736441579148499"><ele>235.0</ele><time>2026-04-10T10:14:35.998Z</time></trkpt><trkpt lat="44.87886054123565" lon="7.736293802753925"><ele>235.0</ele><time>2026-04-10T10:14:36.998Z</time></trkpt><trkpt lat="44.87887626763808" lon="7.73616101263258"><ele>235.0</ele><time>2026-04-10T10:14:37.998Z</time></trkpt><trkpt lat="44.87889463999986" lon="7.736028228210592"><ele>235.0</ele><time>2026-04-10T10:14:38.998Z</time></trkpt><trkpt lat="44.878911104038636" lon="7.735893114902788"><ele>234.99999999999997</ele><time>2026-04-10T10:14:39.998Z</time></trkpt><trkpt lat="44.87892676927887" lon="7.73576322327748"><ele>235.0</ele><time>2026-04-10T10:14:40.998Z</time></trkpt><trkpt lat="44.87893932509064" lon="7.735639106586781"><ele>235.0</ele><time>2026-04-10T10:14:41.998Z</time></trkpt><trkpt lat="44.87895011701154" lon="7.735522182744021"><ele>235.0</ele><time>2026-04-10T10:14:42.998Z</time></trkpt><trkpt lat="44.8789640413048" lon="7.735408252669207"><ele>234.99999999999997</ele><time>2026-04-10T10:14:43.998Z</time></trkpt><trkpt lat="44.87897580390364" lon="7.735300327984531"><ele>235.0</ele><time>2026-04-10T10:14:44.998Z</time></trkpt><trkpt lat="44.878986331575334" lon="7.735204505280268"><ele>235.16666666666666</ele><time>2026-04-10T10:14:45.998Z</time></trkpt><trkpt lat="44.87900319140859" lon="7.735053740908311"><ele>235.33333333333331</ele><time>2026-04-10T10:14:47.998Z</time></trkpt><trkpt lat="44.879020801184836" lon="7.734938602999767"><ele>235.5</ele><time>2026-04-10T10:14:49.998Z</time></trkpt><trkpt lat="44.87903644792605" lon="7.734829733477715"><ele>235.66666666666669</ele><time>2026-04-10T10:14:59.998Z</time></trkpt><trkpt lat="44.87902891217023" lon="7.7347198550973495"><ele>235.83333333333334</ele><time>2026-04-10T10:15:01.998Z</time></trkpt><trkpt lat="44.87905207286304" lon="7.734604822907214"><ele>236.0</ele><time>2026-04-10T10:15:03.998Z</time></trkpt><trkpt lat="44.87906061213066" lon="7.734484382656304"><ele>236.20000000000002</ele><time>2026-04-10T10:15:05.998Z</time></trkpt><trkpt lat="44.879073591983115" lon="7.734353256860525"><ele>236.40000000000003</ele><time>2026-04-10T10:15:07.998Z</time></trkpt><trkpt lat="44.87907561682643" lon="7.734215873130416"><ele>236.6</ele><time>2026-04-10T10:15:09.998Z</time></trkpt><trkpt lat="44.87909591297259" lon="7.734081376043796"><ele>236.8</ele><time>2026-04-10T10:15:11.998Z</time></trkpt><trkpt lat="44.8791190787014" lon="7.733953261045672"><ele>237.0</ele><time>2026-04-10T10:15:13.998Z</time></trkpt><trkpt lat="44.879135838086825" lon="7.733826076328533"><ele>237.0</ele><time>2026-04-10T10:15:15.998Z</time></trkpt><trkpt lat="44.8791606793191" lon="7.733703603517378"><ele>237.0</ele><time>2026-04-10T10:15:17.998Z</time></trkpt><trkpt lat="44.879178505313355" lon="7.733562784686662"><ele>237.0</ele><time>2026-04-10T10:15:19.998Z</time></trkpt><trkpt lat="44.87919407057504" lon="7.733423926198475"><ele>237.0</ele><time>2026-04-10T10:15:21.998Z</time></trkpt><trkpt lat="44.87920902934378" lon="7.733284674954539"><ele>237.0</ele><time>2026-04-10T10:15:23.998Z</time></trkpt><trkpt lat="44.879224654972234" lon="7.733134149942873"><ele>236.8</ele><time>2026-04-10T10:15:25.998Z</time></trkpt><trkpt lat="44.879240268672696" lon="7.732983739831547"><ele>236.6</ele><time>2026-04-10T10:15:27.998Z</time></trkpt><trkpt lat="44.879256650237174" lon="7.732825743604137"><ele>236.40000000000003</ele><time>2026-04-10T10:15:29.998Z</time></trkpt><trkpt lat="44.87927285169247" lon="7.732669416968077"><ele>236.20000000000002</ele><time>2026-04-10T10:15:31.998Z</time></trkpt><trkpt lat="44.879289514611614" lon="7.732510328886519"><ele>236.0</ele><time>2026-04-10T10:15:33.998Z</time></trkpt><trkpt lat="44.879307850310866" lon="7.7323410842445925"><ele>236.0</ele><time>2026-04-10T10:15:35.998Z</time></trkpt><trkpt lat="44.87932648206364" lon="7.732169900201496"><ele>236.00000000000003</ele><time>2026-04-10T10:15:37.998Z</time></trkpt><trkpt lat="44.87934347904973" lon="7.732017867444506"><ele>236.00000000000003</ele><time>2026-04-10T10:15:39.998Z</time></trkpt><trkpt lat="44.87936103469697" lon="7.73186598491048"><ele>236.0</ele><time>2026-04-10T10:15:41.998Z</time></trkpt><trkpt lat="44.87937799693231" lon="7.731719236280787"><ele>236.0</ele><time>2026-04-10T10:15:43.998Z</time></trkpt><trkpt lat="44.87939690919573" lon="7.731560499589826"><ele>236.0</ele><time>2026-04-10T10:15:45.998Z</time></trkpt><trkpt lat="44.87940133794118" lon="7.731396773671775"><ele>236.0</ele><time>2026-04-10T10:15:47.998Z</time></trkpt><trkpt lat="44.87943492258369" lon="7.731243613304995"><ele>236.0</ele><time>2026-04-10T10:15:49.998Z</time></trkpt><trkpt lat="44.87945393053531" lon="7.731085159678922"><ele>236.0</ele><time>2026-04-10T10:15:52Z</time></trkpt><trkpt lat="44.87947248319178" lon="7.730928687162804"><ele>236.0</ele><time>2026-04-10T10:15:54Z</time></trkpt><trkpt lat="44.87949007145012" lon="7.730778646322576"><ele>236.00000000000003</ele><time>2026-04-10T10:15:56Z</time></trkpt><trkpt lat="44.87949631573177" lon="7.730625852095681"><ele>236.00000000000003</ele><time>2026-04-10T10:15:58Z</time></trkpt><trkpt lat="44.87951270313425" lon="7.730485175843239"><ele>236.0</ele><time>2026-04-10T10:16:00Z</time></trkpt><trkpt lat="44.87954084905167" lon="7.730352696357724"><ele>236.0</ele><time>2026-04-10T10:16:02Z</time></trkpt><trkpt lat="44.87955724176024" lon="7.730221294749741"><ele>236.20000000000002</ele><time>2026-04-10T10:16:04Z</time></trkpt><trkpt lat="44.87957532884651" lon="7.730075683857446"><ele>236.40000000000003</ele><time>2026-04-10T10:16:06Z</time></trkpt><trkpt lat="44.8795924674573" lon="7.7299273210416315"><ele>236.6</ele><time>2026-04-10T10:16:08Z</time></trkpt><trkpt lat="44.87960937496416" lon="7.729780958575496"><ele>236.8</ele><time>2026-04-10T10:16:10Z</time></trkpt><trkpt lat="44.87962662500216" lon="7.729631631041036"><ele>237.0</ele><time>2026-04-10T10:16:12Z</time></trkpt><trkpt lat="44.87964271235975" lon="7.72949236843406"><ele>237.2</ele><time>2026-04-10T10:16:14Z</time></trkpt><trkpt lat="44.87963752760009" lon="7.729351784973856"><ele>237.39999999999998</ele><time>2026-04-10T10:16:16Z</time></trkpt><trkpt lat="44.87965612598783" lon="7.729198360744078"><ele>237.60000000000002</ele><time>2026-04-10T10:16:18Z</time></trkpt><trkpt lat="44.879676923475685" lon="7.729033648312993"><ele>237.8</ele><time>2026-04-10T10:16:20Z</time></trkpt><trkpt lat="44.87969301369897" lon="7.728879068438631"><ele>238.0</ele><time>2026-04-10T10:16:22Z</time></trkpt><trkpt lat="44.879709407460055" lon="7.7287149790889185"><ele>238.0</ele><time>2026-04-10T10:16:24Z</time></trkpt><trkpt lat="44.879724114348654" lon="7.728569410946569"><ele>238.0</ele><time>2026-04-10T10:16:26Z</time></trkpt><trkpt lat="44.87974187583846" lon="7.728413119896679"><ele>238.0</ele><time>2026-04-10T10:16:28Z</time></trkpt><trkpt lat="44.879755449098155" lon="7.72825856890246"><ele>238.0</ele><time>2026-04-10T10:16:30Z</time></trkpt><trkpt lat="44.879773468160366" lon="7.728101983830617"><ele>238.0</ele><time>2026-04-10T10:16:32Z</time></trkpt><trkpt lat="44.879785809068515" lon="7.727954826061443"><ele>237.8</ele><time>2026-04-10T10:16:34Z</time></trkpt><trkpt lat="44.87979548628421" lon="7.727801288048816"><ele>237.60000000000002</ele><time>2026-04-10T10:16:36Z</time></trkpt><trkpt lat="44.87980446716936" lon="7.727638369299977"><ele>237.39999999999998</ele><time>2026-04-10T10:16:38Z</time></trkpt><trkpt lat="44.879824084239644" lon="7.727480558211419"><ele>237.2</ele><time>2026-04-10T10:16:40Z</time></trkpt><trkpt lat="44.87984866803932" lon="7.7273297670170304"><ele>237.0</ele><time>2026-04-10T10:16:42Z</time></trkpt><trkpt lat="44.879873806381475" lon="7.727165562360304"><ele>236.8</ele><time>2026-04-10T10:16:44Z</time></trkpt><trkpt lat="44.87988610865504" lon="7.727019165647837"><ele>236.6</ele><time>2026-04-10T10:16:46Z</time></trkpt><trkpt lat="44.87990195529013" lon="7.726874840738539"><ele>236.40000000000003</ele><time>2026-04-10T10:16:48Z</time></trkpt><trkpt lat="44.879922103985876" lon="7.726737631727778"><ele>236.20000000000002</ele><time>2026-04-10T10:16:50Z</time></trkpt><trkpt lat="44.87994312452844" lon="7.72659799397382"><ele>236.0</ele><time>2026-04-10T10:16:52Z</time></trkpt><trkpt lat="44.87996591671447" lon="7.726440909134477"><ele>236.0</ele><time>2026-04-10T10:16:54Z</time></trkpt><trkpt lat="44.87997923063967" lon="7.726292156439877"><ele>236.00000000000003</ele><time>2026-04-10T10:16:56Z</time></trkpt><trkpt lat="44.879995360080606" lon="7.726153335647481"><ele>236.00000000000003</ele><time>2026-04-10T10:16:58Z</time></trkpt><trkpt lat="44.8800118079765" lon="7.72601658614314"><ele>236.0</ele><time>2026-04-10T10:17:00Z</time></trkpt><trkpt lat="44.88004024321714" lon="7.725867672691244"><ele>236.0</ele><time>2026-04-10T10:17:02Z</time></trkpt><trkpt lat="44.880066402484665" lon="7.7257092763121396"><ele>236.0</ele><time>2026-04-10T10:17:04Z</time></trkpt><trkpt lat="44.88007535855032" lon="7.725541648088131"><ele>236.0</ele><time>2026-04-10T10:17:06Z</time></trkpt><trkpt lat="44.88008628108409" lon="7.725386682300326"><ele>236.0</ele><time>2026-04-10T10:17:08Z</time></trkpt><trkpt lat="44.880095869506505" lon="7.725226337435147"><ele>236.0</ele><time>2026-04-10T10:17:10Z</time></trkpt><trkpt lat="44.88011383439253" lon="7.725055298733167"><ele>236.20000000000002</ele><time>2026-04-10T10:17:12Z</time></trkpt><trkpt lat="44.880134101523446" lon="7.724876617878618"><ele>236.40000000000003</ele><time>2026-04-10T10:17:14Z</time></trkpt><trkpt lat="44.880154760600504" lon="7.7247085661028985"><ele>236.6</ele><time>2026-04-10T10:17:16Z</time></trkpt><trkpt lat="44.88016281943228" lon="7.724618911822461"><ele>236.8</ele><time>2026-04-10T10:17:17Z</time></trkpt><trkpt lat="44.88018183975772" lon="7.72445069072576"><ele>237.0</ele><time>2026-04-10T10:17:19Z</time></trkpt><trkpt lat="44.88020595685175" lon="7.724268791810966"><ele>237.16666666666666</ele><time>2026-04-10T10:17:21Z</time></trkpt><trkpt lat="44.88022235986017" lon="7.724182148588253"><ele>237.33333333333331</ele><time>2026-04-10T10:17:22Z</time></trkpt><trkpt lat="44.880239220167795" lon="7.724090601729451"><ele>237.5</ele><time>2026-04-10T10:17:23Z</time></trkpt><trkpt lat="44.88024998061971" lon="7.724001792364563"><ele>237.66666666666666</ele><time>2026-04-10T10:17:24Z</time></trkpt><trkpt lat="44.880259424140135" lon="7.72389626611824"><ele>237.83333333333331</ele><time>2026-04-10T10:17:25Z</time></trkpt><trkpt lat="44.880270884684656" lon="7.723797852324097"><ele>238.0</ele><time>2026-04-10T10:17:26Z</time></trkpt><trkpt lat="44.88029402103537" lon="7.723627725158837"><ele>238.16666666666666</ele><time>2026-04-10T10:17:28Z</time></trkpt><trkpt lat="44.88030448570811" lon="7.723527530145629"><ele>238.33333333333331</ele><time>2026-04-10T10:17:29Z</time></trkpt><trkpt lat="44.8803157704682" lon="7.723439395252432"><ele>238.5</ele><time>2026-04-10T10:17:30Z</time></trkpt><trkpt lat="44.88032556772206" lon="7.7233514294721655"><ele>238.66666666666669</ele><time>2026-04-10T10:17:31Z</time></trkpt><trkpt lat="44.8803499634394" lon="7.723167920725012"><ele>238.83333333333334</ele><time>2026-04-10T10:17:33Z</time></trkpt><trkpt lat="44.88036055597351" lon="7.723078013671945"><ele>239.0</ele><time>2026-04-10T10:17:34Z</time></trkpt><trkpt lat="44.880377195136205" lon="7.722923262082853"><ele>239.0</ele><time>2026-04-10T10:17:36Z</time></trkpt><trkpt lat="44.88039724003738" lon="7.722765906529646"><ele>238.99999999999997</ele><time>2026-04-10T10:17:38Z</time></trkpt><trkpt lat="44.880415669328166" lon="7.72261212954291"><ele>238.99999999999997</ele><time>2026-04-10T10:17:40Z</time></trkpt><trkpt lat="44.88043580653768" lon="7.722439738562826"><ele>239.0</ele><time>2026-04-10T10:17:42Z</time></trkpt><trkpt lat="44.88044435742038" lon="7.722351121913241"><ele>239.0</ele><time>2026-04-10T10:17:43Z</time></trkpt><trkpt lat="44.88045255174795" lon="7.722205325085155"><ele>239.0</ele><time>2026-04-10T10:17:45Z</time></trkpt><trkpt lat="44.880466269355324" lon="7.722056221135915"><ele>239.0</ele><time>2026-04-10T10:17:47Z</time></trkpt><trkpt lat="44.88047896296217" lon="7.721909138108944"><ele>239.0</ele><time>2026-04-10T10:17:49Z</time></trkpt><trkpt lat="44.880488386366785" lon="7.721749362731646"><ele>239.0</ele><time>2026-04-10T10:17:51Z</time></trkpt><trkpt lat="44.880505515171095" lon="7.721575217452951"><ele>238.79999999999998</ele><time>2026-04-10T10:17:53Z</time></trkpt><trkpt lat="44.88051923280554" lon="7.721486607840305"><ele>238.59999999999997</ele><time>2026-04-10T10:17:54Z</time></trkpt><trkpt lat="44.880546783821735" lon="7.7213133294954615"><ele>238.4</ele><time>2026-04-10T10:17:56Z</time></trkpt><trkpt lat="44.88056906466926" lon="7.7211453637982235"><ele>238.2</ele><time>2026-04-10T10:17:58Z</time></trkpt><trkpt lat="44.88059579344805" lon="7.720986281612373"><ele>238.0</ele><time>2026-04-10T10:17:59.999Z</time></trkpt><trkpt lat="44.880616075487836" lon="7.720846518293202"><ele>238.0</ele><time>2026-04-10T10:18:01.999Z</time></trkpt><trkpt lat="44.880640696221676" lon="7.7207048823145294"><ele>238.0</ele><time>2026-04-10T10:18:03.999Z</time></trkpt><trkpt lat="44.880656997459475" lon="7.720550422367639"><ele>238.0</ele><time>2026-04-10T10:18:05.999Z</time></trkpt><trkpt lat="44.880668608782784" lon="7.7203980680977775"><ele>238.0</ele><time>2026-04-10T10:18:07.999Z</time></trkpt><trkpt lat="44.88068447738176" lon="7.720242226682428"><ele>238.0</ele><time>2026-04-10T10:18:09.999Z</time></trkpt><trkpt lat="44.88070023360773" lon="7.720091194122341"><ele>238.0</ele><time>2026-04-10T10:18:11.999Z</time></trkpt><trkpt lat="44.88070549638909" lon="7.719960296530579"><ele>238.0</ele><time>2026-04-10T10:18:13.999Z</time></trkpt><trkpt lat="44.88071759836059" lon="7.719802603445242"><ele>238.0</ele><time>2026-04-10T10:18:15.999Z</time></trkpt><trkpt lat="44.880732784533" lon="7.719629767191148"><ele>238.0</ele><time>2026-04-10T10:18:17.999Z</time></trkpt><trkpt lat="44.88074509483048" lon="7.719477911724784"><ele>238.0</ele><time>2026-04-10T10:18:19.999Z</time></trkpt><trkpt lat="44.88075807861641" lon="7.719331923499749"><ele>238.0</ele><time>2026-04-10T10:18:21.999Z</time></trkpt><trkpt lat="44.8807666011562" lon="7.719187781135413"><ele>238.0</ele><time>2026-04-10T10:18:23.999Z</time></trkpt><trkpt lat="44.88079194533178" lon="7.719018835142081"><ele>238.0</ele><time>2026-04-10T10:18:25.999Z</time></trkpt><trkpt lat="44.88080738804028" lon="7.718874881282108"><ele>238.0</ele><time>2026-04-10T10:18:27.999Z</time></trkpt><trkpt lat="44.880815054369926" lon="7.718716773473922"><ele>238.0</ele><time>2026-04-10T10:18:29.999Z</time></trkpt><trkpt lat="44.88081798828533" lon="7.718538601912251"><ele>238.0</ele><time>2026-04-10T10:18:31.999Z</time></trkpt><trkpt lat="44.8808234897204" lon="7.718441296813722"><ele>238.0</ele><time>2026-04-10T10:18:32.999Z</time></trkpt><trkpt lat="44.8808322728406" lon="7.718349484556237"><ele>238.0</ele><time>2026-04-10T10:18:33.999Z</time></trkpt><trkpt lat="44.88084374577683" lon="7.7182553239542955"><ele>238.0</ele><time>2026-04-10T10:18:34.999Z</time></trkpt><trkpt lat="44.88085889990568" lon="7.718168087086139"><ele>238.0</ele><time>2026-04-10T10:18:35.999Z</time></trkpt><trkpt lat="44.88087236755507" lon="7.718071618883624"><ele>238.0</ele><time>2026-04-10T10:18:36.999Z</time></trkpt><trkpt lat="44.880887357409094" lon="7.717978794548844"><ele>238.0</ele><time>2026-04-10T10:18:37.999Z</time></trkpt><trkpt lat="44.88089986393229" lon="7.71788547789004"><ele>237.8</ele><time>2026-04-10T10:18:38.999Z</time></trkpt><trkpt lat="44.880916529369344" lon="7.717708312922101"><ele>237.60000000000002</ele><time>2026-04-10T10:18:40.999Z</time></trkpt><trkpt lat="44.88093741150199" lon="7.717567830421131"><ele>237.39999999999998</ele><time>2026-04-10T10:18:42.999Z</time></trkpt><trkpt lat="44.88095942654187" lon="7.717399002195158"><ele>237.2</ele><time>2026-04-10T10:18:44.999Z</time></trkpt><trkpt lat="44.88096847001435" lon="7.717309951233197"><ele>237.0</ele><time>2026-04-10T10:18:45.999Z</time></trkpt><trkpt lat="44.88098796047735" lon="7.717146522116086"><ele>236.83333333333334</ele><time>2026-04-10T10:18:47.999Z</time></trkpt><trkpt lat="44.881013250145095" lon="7.716980033457995"><ele>236.66666666666669</ele><time>2026-04-10T10:18:49.999Z</time></trkpt><trkpt lat="44.88102508738286" lon="7.716889516784127"><ele>236.5</ele><time>2026-04-10T10:18:50.999Z</time></trkpt><trkpt lat="44.88103292192642" lon="7.7167994653694665"><ele>236.33333333333334</ele><time>2026-04-10T10:18:51.999Z</time></trkpt><trkpt lat="44.88103648658506" lon="7.716700588621603"><ele>236.16666666666669</ele><time>2026-04-10T10:18:52.999Z</time></trkpt><trkpt lat="44.881046259910725" lon="7.716601884158848"><ele>236.0</ele><time>2026-04-10T10:18:53.999Z</time></trkpt><trkpt lat="44.88106359535883" lon="7.716425825167546"><ele>236.00000000000003</ele><time>2026-04-10T10:18:55.999Z</time></trkpt><trkpt lat="44.88107679639919" lon="7.716273144677093"><ele>236.0</ele><time>2026-04-10T10:18:57.999Z</time></trkpt><trkpt lat="44.88108363023742" lon="7.7161771835703155"><ele>236.0</ele><time>2026-04-10T10:18:58.999Z</time></trkpt><trkpt lat="44.881096475108265" lon="7.716085899159303"><ele>236.0</ele><time>2026-04-10T10:18:59.999Z</time></trkpt><trkpt lat="44.8811136260151" lon="7.7159132410778986"><ele>236.00000000000003</ele><time>2026-04-10T10:19:01.999Z</time></trkpt><trkpt lat="44.881122004042595" lon="7.7158170813537925"><ele>236.0</ele><time>2026-04-10T10:19:02.999Z</time></trkpt><trkpt lat="44.88113420802793" lon="7.715723256342962"><ele>236.0</ele><time>2026-04-10T10:19:03.999Z</time></trkpt><trkpt lat="44.881146747911004" lon="7.715624236688706"><ele>236.0</ele><time>2026-04-10T10:19:04.999Z</time></trkpt><trkpt lat="44.88116189502412" lon="7.715537122440741"><ele>236.0</ele><time>2026-04-10T10:19:05.999Z</time></trkpt><trkpt lat="44.881175473577635" lon="7.715442468248717"><ele>236.0</ele><time>2026-04-10T10:19:06.999Z</time></trkpt><trkpt lat="44.88118727290785" lon="7.715345331517582"><ele>236.0</ele><time>2026-04-10T10:19:07.999Z</time></trkpt><trkpt lat="44.88119711903296" lon="7.715255951908751"><ele>236.0</ele><time>2026-04-10T10:19:08.999Z</time></trkpt><trkpt lat="44.88120613683898" lon="7.715167733289927"><ele>236.0</ele><time>2026-04-10T10:19:09.999Z</time></trkpt><trkpt lat="44.881219862444496" lon="7.715080084898468"><ele>235.8</ele><time>2026-04-10T10:19:10.999Z</time></trkpt><trkpt lat="44.881233186444874" lon="7.714990737942333"><ele>235.60000000000002</ele><time>2026-04-10T10:19:11.999Z</time></trkpt><trkpt lat="44.88124735113691" lon="7.714897732690229"><ele>235.4</ele><time>2026-04-10T10:19:12.999Z</time></trkpt><trkpt lat="44.881261163428256" lon="7.714803925703267"><ele>235.2</ele><time>2026-04-10T10:19:13.999Z</time></trkpt><trkpt lat="44.88128633031872" lon="7.714629127354975"><ele>235.0</ele><time>2026-04-10T10:19:15.999Z</time></trkpt><trkpt lat="44.88130880909215" lon="7.714450226696687"><ele>235.2</ele><time>2026-04-10T10:19:17.999Z</time></trkpt><trkpt lat="44.88133342384446" lon="7.714278829780381"><ele>235.4</ele><time>2026-04-10T10:19:19.999Z</time></trkpt><trkpt lat="44.881347247724314" lon="7.714182774693271"><ele>235.60000000000002</ele><time>2026-04-10T10:19:20.999Z</time></trkpt><trkpt lat="44.881371990386015" lon="7.714014877371814"><ele>235.8</ele><time>2026-04-10T10:19:22.999Z</time></trkpt><trkpt lat="44.88138560598413" lon="7.713928127422888"><ele>236.0</ele><time>2026-04-10T10:19:23.999Z</time></trkpt><trkpt lat="44.88141614363708" lon="7.713758086441883"><ele>236.00000000000003</ele><time>2026-04-10T10:19:25.999Z</time></trkpt><trkpt lat="44.88143772938016" lon="7.713585327916787"><ele>236.0</ele><time>2026-04-10T10:19:27.999Z</time></trkpt><trkpt lat="44.881456110672055" lon="7.713415248698792"><ele>236.0</ele><time>2026-04-10T10:19:29.999Z</time></trkpt><trkpt lat="44.881468080571864" lon="7.713323486593054"><ele>236.0</ele><time>2026-04-10T10:19:30.999Z</time></trkpt><trkpt lat="44.88148008423936" lon="7.713234117355309"><ele>236.00000000000003</ele><time>2026-04-10T10:19:31.999Z</time></trkpt><trkpt lat="44.88149192255313" lon="7.713146413510363"><ele>236.0</ele><time>2026-04-10T10:19:32.999Z</time></trkpt><trkpt lat="44.88151325117339" lon="7.712982687279265"><ele>236.20000000000002</ele><time>2026-04-10T10:19:34.999Z</time></trkpt><trkpt lat="44.881533114377845" lon="7.712814357690129"><ele>236.40000000000003</ele><time>2026-04-10T10:19:36.999Z</time></trkpt><trkpt lat="44.88155233063949" lon="7.712634758731238"><ele>236.6</ele><time>2026-04-10T10:19:38.999Z</time></trkpt><trkpt lat="44.881563207723204" lon="7.712540002795775"><ele>236.8</ele><time>2026-04-10T10:19:39.999Z</time></trkpt><trkpt lat="44.88158311288306" lon="7.7123851894727435"><ele>237.0</ele><time>2026-04-10T10:19:41.999Z</time></trkpt><trkpt lat="44.88159455687804" lon="7.712278569870871"><ele>236.99999999999997</ele><time>2026-04-10T10:19:42.999Z</time></trkpt><trkpt lat="44.88160589072152" lon="7.7121906476953095"><ele>237.0</ele><time>2026-04-10T10:19:43.999Z</time></trkpt><trkpt lat="44.88162330979917" lon="7.712041944978169"><ele>236.99999999999997</ele><time>2026-04-10T10:19:45.999Z</time></trkpt><trkpt lat="44.88163534147638" lon="7.711950890262417"><ele>236.99999999999997</ele><time>2026-04-10T10:19:46.999Z</time></trkpt><trkpt lat="44.881647836201616" lon="7.711849850166643"><ele>237.0</ele><time>2026-04-10T10:19:47.999Z</time></trkpt><trkpt lat="44.88165805498906" lon="7.711753546164408"><ele>236.99999999999997</ele><time>2026-04-10T10:19:48.999Z</time></trkpt><trkpt lat="44.881665946228466" lon="7.711664199602615"><ele>236.99999999999997</ele><time>2026-04-10T10:19:49.999Z</time></trkpt><trkpt lat="44.881680325627336" lon="7.711522561131274"><ele>237.0</ele><time>2026-04-10T10:19:51.999Z</time></trkpt><trkpt lat="44.881696069913986" lon="7.7113793199870235"><ele>237.0</ele><time>2026-04-10T10:19:53.999Z</time></trkpt><trkpt lat="44.88171311875549" lon="7.711211374137697"><ele>237.0</ele><time>2026-04-10T10:19:55.999Z</time></trkpt><trkpt lat="44.88172565498005" lon="7.711117448815025"><ele>237.0</ele><time>2026-04-10T10:19:56.999Z</time></trkpt><trkpt lat="44.88173767339179" lon="7.711016114118566"><ele>237.0</ele><time>2026-04-10T10:19:57.999Z</time></trkpt><trkpt lat="44.88175801034425" lon="7.710866021448797"><ele>237.0</ele><time>2026-04-10T10:19:59.999Z</time></trkpt><trkpt lat="44.881777498648425" lon="7.710695467313999"><ele>237.0</ele><time>2026-04-10T10:20:01.999Z</time></trkpt><trkpt lat="44.88179856489155" lon="7.710515225303615"><ele>237.0</ele><time>2026-04-10T10:20:03.999Z</time></trkpt><trkpt lat="44.88180751281642" lon="7.710418315259051"><ele>237.0</ele><time>2026-04-10T10:20:04.999Z</time></trkpt><trkpt lat="44.88181522108522" lon="7.710328992333854"><ele>237.0</ele><time>2026-04-10T10:20:05.999Z</time></trkpt><trkpt lat="44.88183224774828" lon="7.710162903973099"><ele>237.0</ele><time>2026-04-10T10:20:07.999Z</time></trkpt><trkpt lat="44.881851132252194" lon="7.709994087232288"><ele>237.0</ele><time>2026-04-10T10:20:09.999Z</time></trkpt><trkpt lat="44.88186240766636" lon="7.709899274967189"><ele>237.0</ele><time>2026-04-10T10:20:10.999Z</time></trkpt><trkpt lat="44.8818847768026" lon="7.709728078394342"><ele>237.0</ele><time>2026-04-10T10:20:12.999Z</time></trkpt><trkpt lat="44.88190316056845" lon="7.709569624053598"><ele>237.0</ele><time>2026-04-10T10:20:14.999Z</time></trkpt><trkpt lat="44.881925384377396" lon="7.709407397167669"><ele>236.6</ele><time>2026-04-10T10:20:16.999Z</time></trkpt><trkpt lat="44.881933898047336" lon="7.709309408469483"><ele>236.2</ele><time>2026-04-10T10:20:17.999Z</time></trkpt><trkpt lat="44.88194514968391" lon="7.709140971538436"><ele>235.8</ele><time>2026-04-10T10:20:19.999Z</time></trkpt><trkpt lat="44.881954678403446" lon="7.70904381660848"><ele>235.4</ele><time>2026-04-10T10:20:20.999Z</time></trkpt><trkpt lat="44.88197357812036" lon="7.70889934302395"><ele>235.0</ele><time>2026-04-10T10:20:22.999Z</time></trkpt><trkpt lat="44.881996755086234" lon="7.708755711468744"><ele>234.99999999999997</ele><time>2026-04-10T10:20:24.999Z</time></trkpt><trkpt lat="44.88201310826736" lon="7.7086686832761675"><ele>235.0</ele><time>2026-04-10T10:20:25.999Z</time></trkpt><trkpt lat="44.88204168623386" lon="7.708514336963422"><ele>235.0</ele><time>2026-04-10T10:20:27.999Z</time></trkpt><trkpt lat="44.882066416884875" lon="7.7084204752374275"><ele>235.0</ele><time>2026-04-10T10:20:29.999Z</time></trkpt><trkpt lat="44.88213568169874" lon="7.708410196333831"><ele>234.99999999999997</ele><time>2026-04-10T10:20:31.999Z</time></trkpt><trkpt lat="44.8822157598098" lon="7.708526999113456"><ele>235.0</ele><time>2026-04-10T10:20:33.999Z</time></trkpt><trkpt lat="44.882285402286286" lon="7.708646719004314"><ele>235.0</ele><time>2026-04-10T10:20:35.999Z</time></trkpt><trkpt lat="44.882365821089415" lon="7.708739152621686"><ele>235.0</ele><time>2026-04-10T10:20:37.999Z</time></trkpt><trkpt lat="44.882456884327816" lon="7.708845395512783"><ele>235.0</ele><time>2026-04-10T10:20:39.999Z</time></trkpt><trkpt lat="44.88255907629905" lon="7.7089642448564675"><ele>235.0</ele><time>2026-04-10T10:20:41.999Z</time></trkpt><trkpt lat="44.88260892733834" lon="7.709023397437767"><ele>235.0</ele><time>2026-04-10T10:20:42.999Z</time></trkpt><trkpt lat="44.882659869399795" lon="7.709083541390298"><ele>235.33333333333331</ele><time>2026-04-10T10:20:43.999Z</time></trkpt><trkpt lat="44.88276243833878" lon="7.709198255795418"><ele>235.66666666666666</ele><time>2026-04-10T10:20:45.999Z</time></trkpt><trkpt lat="44.882811790291754" lon="7.709254162331091"><ele>236.0</ele><time>2026-04-10T10:20:46.999Z</time></trkpt><trkpt lat="44.88286332112967" lon="7.709307660673811"><ele>236.33333333333331</ele><time>2026-04-10T10:20:47.999Z</time></trkpt><trkpt lat="44.882913819598876" lon="7.709366596812044"><ele>236.66666666666666</ele><time>2026-04-10T10:20:48.999Z</time></trkpt><trkpt lat="44.88301001633461" lon="7.7094644695030645"><ele>237.0</ele><time>2026-04-10T10:20:50.999Z</time></trkpt><trkpt lat="44.8831115423746" lon="7.709568734256363"><ele>237.0</ele><time>2026-04-10T10:20:52.999Z</time></trkpt><trkpt lat="44.88316478210819" lon="7.70962770492429"><ele>237.0</ele><time>2026-04-10T10:20:53.999Z</time></trkpt><trkpt lat="44.88325568726499" lon="7.7097308090590655"><ele>237.0</ele><time>2026-04-10T10:20:55.999Z</time></trkpt><trkpt lat="44.883351884378044" lon="7.709834656393713"><ele>237.0</ele><time>2026-04-10T10:20:57.999Z</time></trkpt><trkpt lat="44.883448995333296" lon="7.709937996145631"><ele>237.0</ele><time>2026-04-10T10:20:59.999Z</time></trkpt><trkpt lat="44.88349950187808" lon="7.709993392158532"><ele>237.0</ele><time>2026-04-10T10:21:00.999Z</time></trkpt><trkpt lat="44.88354878608216" lon="7.710049037383021"><ele>237.0</ele><time>2026-04-10T10:21:01.999Z</time></trkpt><trkpt lat="44.88363926771297" lon="7.71015917770785"><ele>237.0</ele><time>2026-04-10T10:21:03.999Z</time></trkpt><trkpt lat="44.88372707967192" lon="7.71025768051683"><ele>237.0</ele><time>2026-04-10T10:21:05.999Z</time></trkpt><trkpt lat="44.883800718360206" lon="7.71034755737278"><ele>237.0</ele><time>2026-04-10T10:21:07.999Z</time></trkpt><trkpt lat="44.88388911529654" lon="7.7104431492316206"><ele>236.8</ele><time>2026-04-10T10:21:09.999Z</time></trkpt><trkpt lat="44.883976757120216" lon="7.710549785676839"><ele>236.6</ele><time>2026-04-10T10:21:11.999Z</time></trkpt><trkpt lat="44.88406741656517" lon="7.710663972132872"><ele>236.40000000000003</ele><time>2026-04-10T10:21:13.999Z</time></trkpt><trkpt lat="44.88414665415536" lon="7.7107588900111566"><ele>236.20000000000002</ele><time>2026-04-10T10:21:15.999Z</time></trkpt><trkpt lat="44.88423130074857" lon="7.71084177613762"><ele>236.0</ele><time>2026-04-10T10:21:17.999Z</time></trkpt><trkpt lat="44.88428739579733" lon="7.710896694173756"><ele>236.0</ele><time>2026-04-10T10:21:18.999Z</time></trkpt><trkpt lat="44.88434159716446" lon="7.710950165241636"><ele>236.00000000000003</ele><time>2026-04-10T10:21:19.999Z</time></trkpt><trkpt lat="44.88443830807208" lon="7.711047507970589"><ele>236.00000000000003</ele><time>2026-04-10T10:21:21.999Z</time></trkpt><trkpt lat="44.884490943931354" lon="7.711098991273273"><ele>236.0</ele><time>2026-04-10T10:21:22.999Z</time></trkpt><trkpt lat="44.88460219303212" lon="7.711191475691571"><ele>236.0</ele><time>2026-04-10T10:21:24.999Z</time></trkpt><trkpt lat="44.88469737512134" lon="7.711268658241182"><ele>236.25</ele><time>2026-04-10T10:21:26.999Z</time></trkpt><trkpt lat="44.88480630753956" lon="7.711345381104364"><ele>236.5</ele><time>2026-04-10T10:21:28.999Z</time></trkpt><trkpt lat="44.88490692467477" lon="7.711414720261653"><ele>236.75</ele><time>2026-04-10T10:21:30.999Z</time></trkpt><trkpt lat="44.88501258675591" lon="7.711490053868612"><ele>237.0</ele><time>2026-04-10T10:21:32.999Z</time></trkpt><trkpt lat="44.885118408312664" lon="7.711565083921896"><ele>237.0</ele><time>2026-04-10T10:21:34.999Z</time></trkpt><trkpt lat="44.8852136391103" lon="7.711631108812507"><ele>237.0</ele><time>2026-04-10T10:21:36.999Z</time></trkpt><trkpt lat="44.88531924465721" lon="7.7117058273985455"><ele>237.0</ele><time>2026-04-10T10:21:38.999Z</time></trkpt><trkpt lat="44.885424211220524" lon="7.711769701931934"><ele>237.0</ele><time>2026-04-10T10:21:40.999Z</time></trkpt><trkpt lat="44.88554291070107" lon="7.711807399255711"><ele>237.0</ele><time>2026-04-10T10:21:42.999Z</time></trkpt><trkpt lat="44.88561297651067" lon="7.711797599617724"><ele>237.0</ele><time>2026-04-10T10:21:43.999Z</time></trkpt><trkpt lat="44.885683101166926" lon="7.711780247286653"><ele>237.0</ele><time>2026-04-10T10:21:44.999Z</time></trkpt><trkpt lat="44.88579865097003" lon="7.711750368141746"><ele>237.0</ele><time>2026-04-10T10:21:46.999Z</time></trkpt><trkpt lat="44.88592154690295" lon="7.711715668949943"><ele>237.0</ele><time>2026-04-10T10:21:48.999Z</time></trkpt><trkpt lat="44.88599388877222" lon="7.711697549128656"><ele>236.99999999999997</ele><time>2026-04-10T10:21:49.999Z</time></trkpt><trkpt lat="44.886066645844124" lon="7.711672346910067"><ele>237.0</ele><time>2026-04-10T10:21:50.999Z</time></trkpt><trkpt lat="44.886136466919986" lon="7.711645264900647"><ele>236.99999999999997</ele><time>2026-04-10T10:21:51.999Z</time></trkpt><trkpt lat="44.88620965411023" lon="7.71162899122752"><ele>236.99999999999997</ele><time>2026-04-10T10:21:52.999Z</time></trkpt><trkpt lat="44.886282999896125" lon="7.711619224105918"><ele>237.0</ele><time>2026-04-10T10:21:53.999Z</time></trkpt><trkpt lat="44.88635536913424" lon="7.711605927522049"><ele>236.99999999999997</ele><time>2026-04-10T10:21:54.999Z</time></trkpt><trkpt lat="44.88643055031443" lon="7.711595026591662"><ele>236.99999999999997</ele><time>2026-04-10T10:21:55.999Z</time></trkpt><trkpt lat="44.88650008678236" lon="7.711579646939759"><ele>236.99999999999997</ele><time>2026-04-10T10:21:56.999Z</time></trkpt><trkpt lat="44.88657156527699" lon="7.711561479388845"><ele>237.0</ele><time>2026-04-10T10:21:57.999Z</time></trkpt><trkpt lat="44.886635049337656" lon="7.7115430353722685"><ele>236.99999999999997</ele><time>2026-04-10T10:21:58.999Z</time></trkpt><trkpt lat="44.886699745358015" lon="7.7115213559444875"><ele>236.99999999999997</ele><time>2026-04-10T10:21:59.999Z</time></trkpt><trkpt lat="44.88676681527852" lon="7.711505524940375"><ele>237.0</ele><time>2026-04-10T10:22:00.999Z</time></trkpt><trkpt lat="44.8868356597464" lon="7.711488219716378"><ele>236.99999999999997</ele><time>2026-04-10T10:22:01.999Z</time></trkpt><trkpt lat="44.88691512968119" lon="7.711469286360451"><ele>236.99999999999997</ele><time>2026-04-10T10:22:02.999Z</time></trkpt><trkpt lat="44.8869879577068" lon="7.711450612045724"><ele>236.83333333333334</ele><time>2026-04-10T10:22:03.999Z</time></trkpt><trkpt lat="44.887061030221396" lon="7.711436297908197"><ele>236.66666666666669</ele><time>2026-04-10T10:22:04.999Z</time></trkpt><trkpt lat="44.887132933381395" lon="7.7114254685384855"><ele>236.5</ele><time>2026-04-10T10:22:05.999Z</time></trkpt><trkpt lat="44.8872598833504" lon="7.711408218519769"><ele>236.33333333333334</ele><time>2026-04-10T10:22:07.999Z</time></trkpt><trkpt lat="44.88732674620152" lon="7.711397668994435"><ele>236.16666666666669</ele><time>2026-04-10T10:22:08.999Z</time></trkpt><trkpt lat="44.88739409783199" lon="7.711382166159884"><ele>236.0</ele><time>2026-04-10T10:22:09.999Z</time></trkpt><trkpt lat="44.887460204539124" lon="7.711371062828423"><ele>236.00000000000003</ele><time>2026-04-10T10:22:10.999Z</time></trkpt><trkpt lat="44.88752857890749" lon="7.711357791395206"><ele>236.0</ele><time>2026-04-10T10:22:11.999Z</time></trkpt><trkpt lat="44.88759868196855" lon="7.711342677054414"><ele>236.0</ele><time>2026-04-10T10:22:12.999Z</time></trkpt><trkpt lat="44.8877162264844" lon="7.711312807680782"><ele>236.0</ele><time>2026-04-10T10:22:14.999Z</time></trkpt><trkpt lat="44.88777952313404" lon="7.71129649463107"><ele>236.00000000000003</ele><time>2026-04-10T10:22:15.999Z</time></trkpt><trkpt lat="44.887842698199556" lon="7.711282092273956"><ele>236.0</ele><time>2026-04-10T10:22:16.999Z</time></trkpt><trkpt lat="44.88790470343533" lon="7.711262881917769"><ele>235.50000000000003</ele><time>2026-04-10T10:22:17.999Z</time></trkpt><trkpt lat="44.887970912354994" lon="7.711242020131876"><ele>235.0</ele><time>2026-04-10T10:22:18.999Z</time></trkpt><trkpt lat="44.88803242939922" lon="7.711221901304606"><ele>234.5</ele><time>2026-04-10T10:22:19.999Z</time></trkpt><trkpt lat="44.88809576543036" lon="7.711200597562037"><ele>234.0</ele><time>2026-04-10T10:22:20.999Z</time></trkpt><trkpt lat="44.888216438107634" lon="7.71115379066794"><ele>233.50000000000003</ele><time>2026-04-10T10:22:22.999Z</time></trkpt><trkpt lat="44.88832941722593" lon="7.711110040061515"><ele>233.0</ele><time>2026-04-10T10:22:24.999Z</time></trkpt><trkpt lat="44.88844480324535" lon="7.711066702644204"><ele>233.00000000000003</ele><time>2026-04-10T10:22:26.999Z</time></trkpt><trkpt lat="44.88855369479333" lon="7.711013259130529"><ele>233.0</ele><time>2026-04-10T10:22:28.999Z</time></trkpt><trkpt lat="44.88861930278567" lon="7.710971277045728"><ele>233.0</ele><time>2026-04-10T10:22:29.999Z</time></trkpt><trkpt lat="44.88868070323253" lon="7.710929525566501"><ele>233.0</ele><time>2026-04-10T10:22:30.999Z</time></trkpt><trkpt lat="44.88874373840889" lon="7.710882239383169"><ele>233.00000000000003</ele><time>2026-04-10T10:22:31.999Z</time></trkpt><trkpt lat="44.888803840647206" lon="7.710833608867783"><ele>233.0</ele><time>2026-04-10T10:22:32.999Z</time></trkpt><trkpt lat="44.888862906222386" lon="7.710781855910523"><ele>233.0</ele><time>2026-04-10T10:22:33.999Z</time></trkpt><trkpt lat="44.88895398839116" lon="7.710691141077038"><ele>233.0</ele><time>2026-04-10T10:22:35.999Z</time></trkpt><trkpt lat="44.8890549804818" lon="7.710594425787818"><ele>233.0</ele><time>2026-04-10T10:22:37.999Z</time></trkpt><trkpt lat="44.88911352040025" lon="7.71053148217839"><ele>233.0</ele><time>2026-04-10T10:22:38.999Z</time></trkpt><trkpt lat="44.8892113679306" lon="7.710424150396007"><ele>233.0</ele><time>2026-04-10T10:22:40.999Z</time></trkpt><trkpt lat="44.889305741268856" lon="7.710333758149885"><ele>233.25</ele><time>2026-04-10T10:22:42.999Z</time></trkpt><trkpt lat="44.88940587303053" lon="7.710241768933287"><ele>233.5</ele><time>2026-04-10T10:22:44.999Z</time></trkpt><trkpt lat="44.88950700567852" lon="7.710143755957383"><ele>233.75</ele><time>2026-04-10T10:22:46.999Z</time></trkpt><trkpt lat="44.88960458765882" lon="7.710047477801181"><ele>234.0</ele><time>2026-04-10T10:22:48.999Z</time></trkpt><trkpt lat="44.889696304530865" lon="7.709955740775965"><ele>234.0</ele><time>2026-04-10T10:22:50.999Z</time></trkpt><trkpt lat="44.88978957617258" lon="7.709871806305675"><ele>233.99999999999997</ele><time>2026-04-10T10:22:52.999Z</time></trkpt><trkpt lat="44.889843175376306" lon="7.70982107374578"><ele>233.99999999999997</ele><time>2026-04-10T10:22:53.999Z</time></trkpt><trkpt lat="44.88989466615342" lon="7.709768830338683"><ele>234.0</ele><time>2026-04-10T10:22:54.999Z</time></trkpt><trkpt lat="44.889997932815994" lon="7.709673274977339"><ele>234.0</ele><time>2026-04-10T10:22:57Z</time></trkpt><trkpt lat="44.89011644616835" lon="7.709566009575934"><ele>233.83333333333334</ele><time>2026-04-10T10:22:59Z</time></trkpt><trkpt lat="44.89017177286267" lon="7.709516547813641"><ele>233.66666666666669</ele><time>2026-04-10T10:23:00Z</time></trkpt><trkpt lat="44.89022896977051" lon="7.709471497350595"><ele>233.5</ele><time>2026-04-10T10:23:01Z</time></trkpt><trkpt lat="44.89028626583818" lon="7.709432262872401"><ele>233.33333333333334</ele><time>2026-04-10T10:23:02Z</time></trkpt><trkpt lat="44.89039272425549" lon="7.709356749350287"><ele>233.16666666666669</ele><time>2026-04-10T10:23:04.001Z</time></trkpt><trkpt lat="44.890497340373166" lon="7.709284804167768"><ele>233.0</ele><time>2026-04-10T10:23:06Z</time></trkpt><trkpt lat="44.89061118136903" lon="7.709211422970982"><ele>232.8</ele><time>2026-04-10T10:23:08Z</time></trkpt><trkpt lat="44.89070452635703" lon="7.709145747310216"><ele>232.60000000000002</ele><time>2026-04-10T10:23:10Z</time></trkpt><trkpt lat="44.89078882877371" lon="7.70910016454266"><ele>232.39999999999998</ele><time>2026-04-10T10:23:12Z</time></trkpt><trkpt lat="44.8908524120561" lon="7.709057708304409"><ele>232.2</ele><time>2026-04-10T10:23:13Z</time></trkpt><trkpt lat="44.89095544272096" lon="7.708988750528645"><ele>232.0</ele><time>2026-04-10T10:23:15Z</time></trkpt><trkpt lat="44.89106563668172" lon="7.708925952859925"><ele>231.99999999999997</ele><time>2026-04-10T10:23:17Z</time></trkpt><trkpt lat="44.891127794291265" lon="7.708903112251434"><ele>232.0</ele><time>2026-04-10T10:23:18Z</time></trkpt><trkpt lat="44.89123830415978" lon="7.708872349091799"><ele>232.0</ele><time>2026-04-10T10:23:20Z</time></trkpt><trkpt lat="44.89135383328503" lon="7.7088073651254865"><ele>232.0</ele><time>2026-04-10T10:23:22Z</time></trkpt><trkpt lat="44.89141470268404" lon="7.708767879296104"><ele>231.99999999999997</ele><time>2026-04-10T10:23:23Z</time></trkpt><trkpt lat="44.89147472128045" lon="7.708729779146096"><ele>232.0</ele><time>2026-04-10T10:23:24Z</time></trkpt><trkpt lat="44.891541415966685" lon="7.708691504785509"><ele>231.99999999999997</ele><time>2026-04-10T10:23:25Z</time></trkpt><trkpt lat="44.89165526851256" lon="7.708644036568239"><ele>232.0</ele><time>2026-04-10T10:23:27Z</time></trkpt><trkpt lat="44.89177232942294" lon="7.708568607786435"><ele>232.0</ele><time>2026-04-10T10:23:29Z</time></trkpt><trkpt lat="44.89183191999209" lon="7.708525727540658"><ele>232.0</ele><time>2026-04-10T10:23:29.999Z</time></trkpt><trkpt lat="44.89189307463478" lon="7.708496899513139"><ele>231.99999999999997</ele><time>2026-04-10T10:23:30.999Z</time></trkpt><trkpt lat="44.89195625122073" lon="7.708474423694018"><ele>232.0</ele><time>2026-04-10T10:23:31.999Z</time></trkpt><trkpt lat="44.89202145184902" lon="7.708448233684044"><ele>231.25</ele><time>2026-04-10T10:23:32.999Z</time></trkpt><trkpt lat="44.89212702201582" lon="7.708404776806405"><ele>230.5</ele><time>2026-04-10T10:23:34.999Z</time></trkpt><trkpt lat="44.892238922420034" lon="7.708354790254981"><ele>229.75</ele><time>2026-04-10T10:23:36.999Z</time></trkpt><trkpt lat="44.89234940595377" lon="7.708297098687434"><ele>229.0</ele><time>2026-04-10T10:23:38.999Z</time></trkpt><trkpt lat="44.89245532333191" lon="7.708241768471524"><ele>229.0</ele><time>2026-04-10T10:23:40.999Z</time></trkpt><trkpt lat="44.89254242341752" lon="7.708188592137382"><ele>228.99999999999997</ele><time>2026-04-10T10:23:42.999Z</time></trkpt><trkpt lat="44.892639005202504" lon="7.70811743671631"><ele>228.99999999999997</ele><time>2026-04-10T10:23:44.999Z</time></trkpt><trkpt lat="44.892744124533586" lon="7.708068812704686"><ele>229.0</ele><time>2026-04-10T10:23:46.999Z</time></trkpt><trkpt lat="44.89285856471881" lon="7.7080130306128165"><ele>229.0</ele><time>2026-04-10T10:23:48.999Z</time></trkpt><trkpt lat="44.892952430731235" lon="7.707966669873801"><ele>229.2</ele><time>2026-04-10T10:23:50.999Z</time></trkpt><trkpt lat="44.893046088559565" lon="7.707926208912305"><ele>229.39999999999998</ele><time>2026-04-10T10:23:52.999Z</time></trkpt><trkpt lat="44.89314175920955" lon="7.707886094609148"><ele>229.6</ele><time>2026-04-10T10:23:54.999Z</time></trkpt><trkpt lat="44.89323585574012" lon="7.707842389465281"><ele>229.8</ele><time>2026-04-10T10:23:56.999Z</time></trkpt><trkpt lat="44.89333051568975" lon="7.7077899803834296"><ele>230.0</ele><time>2026-04-10T10:23:58.999Z</time></trkpt><trkpt lat="44.89344018290241" lon="7.7077333669644466"><ele>230.4</ele><time>2026-04-10T10:24:00.999Z</time></trkpt><trkpt lat="44.89353819819951" lon="7.7076808468898355"><ele>230.8</ele><time>2026-04-10T10:24:02.999Z</time></trkpt><trkpt lat="44.89364551715064" lon="7.7076231566994755"><ele>231.2</ele><time>2026-04-10T10:24:04.999Z</time></trkpt><trkpt lat="44.8937461408539" lon="7.707566709355732"><ele>231.6</ele><time>2026-04-10T10:24:06.999Z</time></trkpt><trkpt lat="44.89382620395431" lon="7.70752687660946"><ele>232.0</ele><time>2026-04-10T10:24:08.999Z</time></trkpt><trkpt lat="44.89392000099687" lon="7.7074750633517715"><ele>232.0</ele><time>2026-04-10T10:24:10.999Z</time></trkpt><trkpt lat="44.89397788577729" lon="7.70743734398887"><ele>232.0</ele><time>2026-04-10T10:24:11.999Z</time></trkpt><trkpt lat="44.89409254689065" lon="7.7073757325404655"><ele>232.0</ele><time>2026-04-10T10:24:13.999Z</time></trkpt><trkpt lat="44.89415118940666" lon="7.707341487302096"><ele>232.0</ele><time>2026-04-10T10:24:14.999Z</time></trkpt><trkpt lat="44.894255426123145" lon="7.707286778888604"><ele>232.0</ele><time>2026-04-10T10:24:16.999Z</time></trkpt><trkpt lat="44.894364945217255" lon="7.707230571309655"><ele>231.8</ele><time>2026-04-10T10:24:18.999Z</time></trkpt><trkpt lat="44.89446746037165" lon="7.707170450915995"><ele>231.6</ele><time>2026-04-10T10:24:20.999Z</time></trkpt><trkpt lat="44.89456529078432" lon="7.7071143869554755"><ele>231.40000000000003</ele><time>2026-04-10T10:24:22.999Z</time></trkpt><trkpt lat="44.894666683001894" lon="7.707062227237752"><ele>231.20000000000002</ele><time>2026-04-10T10:24:24.999Z</time></trkpt><trkpt lat="44.89477121992051" lon="7.707009133967925"><ele>231.0</ele><time>2026-04-10T10:24:26.999Z</time></trkpt><trkpt lat="44.89488322865833" lon="7.706957711604546"><ele>231.0</ele><time>2026-04-10T10:24:28.999Z</time></trkpt><trkpt lat="44.89494824290429" lon="7.706926256377078"><ele>231.0</ele><time>2026-04-10T10:24:29.999Z</time></trkpt><trkpt lat="44.895007175255095" lon="7.706890455333319"><ele>231.0</ele><time>2026-04-10T10:24:30.999Z</time></trkpt><trkpt lat="44.89511528431299" lon="7.706839727343129"><ele>231.0</ele><time>2026-04-10T10:24:32.999Z</time></trkpt><trkpt lat="44.895219760020936" lon="7.706794899641772"><ele>231.0</ele><time>2026-04-10T10:24:34.999Z</time></trkpt><trkpt lat="44.89530257801459" lon="7.706753315942598"><ele>231.0</ele><time>2026-04-10T10:24:36.999Z</time></trkpt><trkpt lat="44.89536083156998" lon="7.706714964648298"><ele>231.20000000000002</ele><time>2026-04-10T10:24:37.999Z</time></trkpt><trkpt lat="44.895475448026005" lon="7.706646297276762"><ele>231.40000000000003</ele><time>2026-04-10T10:24:39.999Z</time></trkpt><trkpt lat="44.895594911722135" lon="7.7065688354944095"><ele>231.6</ele><time>2026-04-10T10:24:41.999Z</time></trkpt><trkpt lat="44.89566155129357" lon="7.706532103259494"><ele>231.8</ele><time>2026-04-10T10:24:42.999Z</time></trkpt><trkpt lat="44.895721978095985" lon="7.706500460159375"><ele>232.0</ele><time>2026-04-10T10:24:43.999Z</time></trkpt><trkpt lat="44.89578634433636" lon="7.70646449245071"><ele>232.0</ele><time>2026-04-10T10:24:44.999Z</time></trkpt><trkpt lat="44.89590046600491" lon="7.706404159155872"><ele>232.0</ele><time>2026-04-10T10:24:46.999Z</time></trkpt><trkpt lat="44.896003959376685" lon="7.706349203484768"><ele>232.0</ele><time>2026-04-10T10:24:48.999Z</time></trkpt><trkpt lat="44.896119986501844" lon="7.706285791336018"><ele>232.0</ele><time>2026-04-10T10:24:50.999Z</time></trkpt><trkpt lat="44.896226525396095" lon="7.706234136013889"><ele>231.75</ele><time>2026-04-10T10:24:52.999Z</time></trkpt><trkpt lat="44.896336213140145" lon="7.706182035726392"><ele>231.5</ele><time>2026-04-10T10:24:54.999Z</time></trkpt><trkpt lat="44.8964570647975" lon="7.706137266864387"><ele>231.25</ele><time>2026-04-10T10:24:56.999Z</time></trkpt><trkpt lat="44.896570349326836" lon="7.706094049300274"><ele>231.0</ele><time>2026-04-10T10:24:58.999Z</time></trkpt><trkpt lat="44.89668582098758" lon="7.706043824391784"><ele>230.75</ele><time>2026-04-10T10:25:00.999Z</time></trkpt><trkpt lat="44.896791610495164" lon="7.705995507038037"><ele>230.5</ele><time>2026-04-10T10:25:02.999Z</time></trkpt><trkpt lat="44.896903934767245" lon="7.705937158726804"><ele>230.25</ele><time>2026-04-10T10:25:04.999Z</time></trkpt><trkpt lat="44.897009842051126" lon="7.705877280750779"><ele>230.0</ele><time>2026-04-10T10:25:06.999Z</time></trkpt><trkpt lat="44.89711345350176" lon="7.705823753240492"><ele>230.0</ele><time>2026-04-10T10:25:08.999Z</time></trkpt><trkpt lat="44.897204498322715" lon="7.705776316759036"><ele>230.0</ele><time>2026-04-10T10:25:10.999Z</time></trkpt><trkpt lat="44.897263393620634" lon="7.70574415143204"><ele>230.0</ele><time>2026-04-10T10:25:11.999Z</time></trkpt><trkpt lat="44.897362375057924" lon="7.705688862063628"><ele>230.0</ele><time>2026-04-10T10:25:13.999Z</time></trkpt><trkpt lat="44.8974595278932" lon="7.705641311731291"><ele>230.0</ele><time>2026-04-10T10:25:15.999Z</time></trkpt><trkpt lat="44.897567396158216" lon="7.705580769819391"><ele>229.83333333333334</ele><time>2026-04-10T10:25:17.999Z</time></trkpt><trkpt lat="44.8976651082463" lon="7.705539406014222"><ele>229.66666666666669</ele><time>2026-04-10T10:25:19.999Z</time></trkpt><trkpt lat="44.8977276318659" lon="7.705523834614511"><ele>229.5</ele><time>2026-04-10T10:25:20.999Z</time></trkpt><trkpt lat="44.89780028116969" lon="7.705513001365611"><ele>229.33333333333331</ele><time>2026-04-10T10:25:21.999Z</time></trkpt><trkpt lat="44.897917654209515" lon="7.7055260912529935"><ele>229.16666666666666</ele><time>2026-04-10T10:25:23.999Z</time></trkpt><trkpt lat="44.8979772571078" lon="7.705558354427646"><ele>229.0</ele><time>2026-04-10T10:25:24.999Z</time></trkpt><trkpt lat="44.89808079266729" lon="7.705602813815748"><ele>229.0</ele><time>2026-04-10T10:25:26.999Z</time></trkpt><trkpt lat="44.89819727787983" lon="7.705635358413163"><ele>229.0</ele><time>2026-04-10T10:25:28.999Z</time></trkpt><trkpt lat="44.898316737006304" lon="7.705677006807012"><ele>229.0</ele><time>2026-04-10T10:25:30.999Z</time></trkpt><trkpt lat="44.89842741413838" lon="7.705720857485803"><ele>229.0</ele><time>2026-04-10T10:25:32.999Z</time></trkpt><trkpt lat="44.89852690339428" lon="7.705762903797117"><ele>229.79999999999998</ele><time>2026-04-10T10:25:34.999Z</time></trkpt><trkpt lat="44.898627084709574" lon="7.705791699957311"><ele>230.59999999999997</ele><time>2026-04-10T10:25:36.999Z</time></trkpt><trkpt lat="44.89872947933312" lon="7.705823912697988"><ele>231.4</ele><time>2026-04-10T10:25:38.999Z</time></trkpt><trkpt lat="44.89884721211192" lon="7.705869646325719"><ele>232.2</ele><time>2026-04-10T10:25:40.999Z</time></trkpt><trkpt lat="44.898956229493855" lon="7.7059058136957255"><ele>233.0</ele><time>2026-04-10T10:25:42.999Z</time></trkpt><trkpt lat="44.89902278990584" lon="7.705919887065426"><ele>233.0</ele><time>2026-04-10T10:25:43.999Z</time></trkpt><trkpt lat="44.899142261296625" lon="7.705950411920101"><ele>233.0</ele><time>2026-04-10T10:25:45.999Z</time></trkpt><trkpt lat="44.89925144680217" lon="7.705983277883817"><ele>233.0</ele><time>2026-04-10T10:25:47.999Z</time></trkpt><trkpt lat="44.899341575618244" lon="7.7060162992639905"><ele>233.0</ele><time>2026-04-10T10:25:49.999Z</time></trkpt><trkpt lat="44.899450135357924" lon="7.706064319547425"><ele>233.0</ele><time>2026-04-10T10:25:51.999Z</time></trkpt><trkpt lat="44.89954288285587" lon="7.706124263164991"><ele>232.60000000000002</ele><time>2026-04-10T10:25:53.999Z</time></trkpt><trkpt lat="44.89963983399122" lon="7.706211302687011"><ele>232.20000000000002</ele><time>2026-04-10T10:25:55.999Z</time></trkpt><trkpt lat="44.899727848529714" lon="7.706288460172138"><ele>231.8</ele><time>2026-04-10T10:25:57.999Z</time></trkpt><trkpt lat="44.89983323707345" lon="7.706366851758456"><ele>231.4</ele><time>2026-04-10T10:25:59.999Z</time></trkpt><trkpt lat="44.899895496372494" lon="7.706409815161173"><ele>231.0</ele><time>2026-04-10T10:26:00.999Z</time></trkpt><trkpt lat="44.89999356639908" lon="7.706475118143281"><ele>231.25</ele><time>2026-04-10T10:26:02.999Z</time></trkpt><trkpt lat="44.900096443311085" lon="7.7065424928524235"><ele>231.5</ele><time>2026-04-10T10:26:04.999Z</time></trkpt><trkpt lat="44.90020972560725" lon="7.706612037868422"><ele>231.75</ele><time>2026-04-10T10:26:06.999Z</time></trkpt><trkpt lat="44.90031513530525" lon="7.70667719631403"><ele>232.0</ele><time>2026-04-10T10:26:08.999Z</time></trkpt><trkpt lat="44.900423766593704" lon="7.706738614486669"><ele>232.0</ele><time>2026-04-10T10:26:10.999Z</time></trkpt><trkpt lat="44.90053038843376" lon="7.706792095404501"><ele>232.0</ele><time>2026-04-10T10:26:12.999Z</time></trkpt><trkpt lat="44.90059001086609" lon="7.706827062483698"><ele>232.0</ele><time>2026-04-10T10:26:13.999Z</time></trkpt><trkpt lat="44.90064891596457" lon="7.706867442572689"><ele>232.0</ele><time>2026-04-10T10:26:14.999Z</time></trkpt><trkpt lat="44.900753916663305" lon="7.7069375882054345"><ele>232.0</ele><time>2026-04-10T10:26:16.999Z</time></trkpt><trkpt lat="44.90085785370229" lon="7.706996274902037"><ele>231.39999999999998</ele><time>2026-04-10T10:26:18.999Z</time></trkpt><trkpt lat="44.90095886640532" lon="7.707040913559978"><ele>230.79999999999998</ele><time>2026-04-10T10:26:20.999Z</time></trkpt><trkpt lat="44.90106769546439" lon="7.707064971918966"><ele>230.2</ele><time>2026-04-10T10:26:22.999Z</time></trkpt><trkpt lat="44.90118317412744" lon="7.707077814688535"><ele>229.6</ele><time>2026-04-10T10:26:24.999Z</time></trkpt><trkpt lat="44.90128801100561" lon="7.707091839608362"><ele>229.0</ele><time>2026-04-10T10:26:26.999Z</time></trkpt><trkpt lat="44.901396872277495" lon="7.707111681510696"><ele>229.0</ele><time>2026-04-10T10:26:28.999Z</time></trkpt><trkpt lat="44.901504816715345" lon="7.707152032566667"><ele>228.99999999999997</ele><time>2026-04-10T10:26:30.999Z</time></trkpt><trkpt lat="44.90160154303417" lon="7.7072130964903245"><ele>228.99999999999997</ele><time>2026-04-10T10:26:32.999Z</time></trkpt><trkpt lat="44.90170070672511" lon="7.707270350718913"><ele>229.0</ele><time>2026-04-10T10:26:34.999Z</time></trkpt><trkpt lat="44.90176488857072" lon="7.707297411689457"><ele>229.0</ele><time>2026-04-10T10:26:35.999Z</time></trkpt><trkpt lat="44.90182670027892" lon="7.707322330990587"><ele>229.16666666666666</ele><time>2026-04-10T10:26:36.999Z</time></trkpt><trkpt lat="44.90189031410026" lon="7.707343022738505"><ele>229.33333333333331</ele><time>2026-04-10T10:26:37.999Z</time></trkpt><trkpt lat="44.90195475652255" lon="7.707350898686943"><ele>229.5</ele><time>2026-04-10T10:26:38.999Z</time></trkpt><trkpt lat="44.90206705687126" lon="7.707369735434649"><ele>229.66666666666669</ele><time>2026-04-10T10:26:40.999Z</time></trkpt><trkpt lat="44.90216416318247" lon="7.707371060637593"><ele>229.83333333333334</ele><time>2026-04-10T10:26:42.999Z</time></trkpt><trkpt lat="44.90225795315787" lon="7.70738619713538"><ele>230.0</ele><time>2026-04-10T10:26:44.999Z</time></trkpt><trkpt lat="44.90234704598782" lon="7.707411505638902"><ele>230.0</ele><time>2026-04-10T10:26:46.999Z</time></trkpt><trkpt lat="44.90244591214733" lon="7.7074450255757885"><ele>230.0</ele><time>2026-04-10T10:26:48.999Z</time></trkpt><trkpt lat="44.902538747944014" lon="7.70749025541544"><ele>230.0</ele><time>2026-04-10T10:26:50.999Z</time></trkpt><trkpt lat="44.902647768969786" lon="7.7075439184174845"><ele>230.0</ele><time>2026-04-10T10:26:52.999Z</time></trkpt><trkpt lat="44.90276760516737" lon="7.707593746421116"><ele>230.0</ele><time>2026-04-10T10:26:54.999Z</time></trkpt><trkpt lat="44.90288097332984" lon="7.7076237892919055"><ele>230.6</ele><time>2026-04-10T10:26:56.999Z</time></trkpt><trkpt lat="44.902977733127834" lon="7.7076337114072775"><ele>231.2</ele><time>2026-04-10T10:26:58.999Z</time></trkpt><trkpt lat="44.90307308978118" lon="7.707631459373685"><ele>231.8</ele><time>2026-04-10T10:27:00.999Z</time></trkpt><trkpt lat="44.903181852715406" lon="7.707605412102669"><ele>232.4</ele><time>2026-04-10T10:27:02.999Z</time></trkpt><trkpt lat="44.90327661699604" lon="7.707574543874157"><ele>233.0</ele><time>2026-04-10T10:27:04.999Z</time></trkpt><trkpt lat="44.90337894379619" lon="7.707538403376763"><ele>232.60000000000002</ele><time>2026-04-10T10:27:06.999Z</time></trkpt><trkpt lat="44.90348885152831" lon="7.70749543133882"><ele>232.20000000000002</ele><time>2026-04-10T10:27:08.999Z</time></trkpt><trkpt lat="44.90360544713254" lon="7.707468546372755"><ele>231.8</ele><time>2026-04-10T10:27:10.999Z</time></trkpt><trkpt lat="44.90371786088471" lon="7.707443045527156"><ele>231.4</ele><time>2026-04-10T10:27:12.999Z</time></trkpt><trkpt lat="44.90381445375463" lon="7.707417927102407"><ele>231.0</ele><time>2026-04-10T10:27:14.999Z</time></trkpt><trkpt lat="44.903923884481344" lon="7.7074006427721065"><ele>231.0</ele><time>2026-04-10T10:27:16.999Z</time></trkpt><trkpt lat="44.904023022272845" lon="7.707383460062485"><ele>231.00000000000003</ele><time>2026-04-10T10:27:18.999Z</time></trkpt><trkpt lat="44.90412773588753" lon="7.707378390233895"><ele>231.00000000000003</ele><time>2026-04-10T10:27:20.999Z</time></trkpt><trkpt lat="44.90421712120383" lon="7.7073659601306845"><ele>231.0</ele><time>2026-04-10T10:27:22.999Z</time></trkpt><trkpt lat="44.90432307688399" lon="7.707313520332689"><ele>231.0</ele><time>2026-04-10T10:27:24.999Z</time></trkpt><trkpt lat="44.90439757042324" lon="7.707241780112568"><ele>230.8</ele><time>2026-04-10T10:27:26.999Z</time></trkpt><trkpt lat="44.904486198588806" lon="7.7071614496513625"><ele>230.60000000000002</ele><time>2026-04-10T10:27:28.999Z</time></trkpt><trkpt lat="44.90456796766607" lon="7.707081483585392"><ele>230.4</ele><time>2026-04-10T10:27:30.999Z</time></trkpt><trkpt lat="44.90465490479708" lon="7.707002193299039"><ele>230.2</ele><time>2026-04-10T10:27:32.999Z</time></trkpt><trkpt lat="44.904742796952085" lon="7.706935176668223"><ele>230.0</ele><time>2026-04-10T10:27:34.999Z</time></trkpt><trkpt lat="44.9048262119074" lon="7.706887018993304"><ele>230.4</ele><time>2026-04-10T10:27:36.999Z</time></trkpt><trkpt lat="44.904908551567544" lon="7.706846820192963"><ele>230.8</ele><time>2026-04-10T10:27:38.999Z</time></trkpt><trkpt lat="44.90502318369453" lon="7.706809702023329"><ele>231.2</ele><time>2026-04-10T10:27:40.999Z</time></trkpt><trkpt lat="44.90513323842995" lon="7.706793038641309"><ele>231.6</ele><time>2026-04-10T10:27:42.999Z</time></trkpt><trkpt lat="44.9052275687914" lon="7.706788797944133"><ele>232.0</ele><time>2026-04-10T10:27:44.999Z</time></trkpt><trkpt lat="44.90532939014432" lon="7.706756424852388"><ele>232.0</ele><time>2026-04-10T10:27:46.999Z</time></trkpt><trkpt lat="44.905427434841954" lon="7.706729683312376"><ele>232.0</ele><time>2026-04-10T10:27:48.999Z</time></trkpt><trkpt lat="44.905516302331456" lon="7.706703481587725"><ele>232.0</ele><time>2026-04-10T10:27:50.999Z</time></trkpt><trkpt lat="44.90561272125751" lon="7.706672165603669"><ele>232.0</ele><time>2026-04-10T10:27:52.999Z</time></trkpt><trkpt lat="44.90573127198178" lon="7.706640105129915"><ele>232.0</ele><time>2026-04-10T10:27:54.999Z</time></trkpt><trkpt lat="44.90584798416411" lon="7.706614603577675"><ele>231.6</ele><time>2026-04-10T10:27:56.999Z</time></trkpt><trkpt lat="44.90595799558363" lon="7.706586522347785"><ele>231.2</ele><time>2026-04-10T10:27:58.999Z</time></trkpt><trkpt lat="44.90606647891245" lon="7.706551628320764"><ele>230.8</ele><time>2026-04-10T10:28:00.999Z</time></trkpt><trkpt lat="44.90617941887993" lon="7.706518776767254"><ele>230.4</ele><time>2026-04-10T10:28:02.999Z</time></trkpt><trkpt lat="44.906286739374515" lon="7.706495576834728"><ele>230.0</ele><time>2026-04-10T10:28:04.999Z</time></trkpt><trkpt lat="44.906388891637" lon="7.70647180923351"><ele>230.0</ele><time>2026-04-10T10:28:06.999Z</time></trkpt><trkpt lat="44.90649463784041" lon="7.706423417536516"><ele>230.0</ele><time>2026-04-10T10:28:08.999Z</time></trkpt><trkpt lat="44.90659911835957" lon="7.706373213482399"><ele>230.0</ele><time>2026-04-10T10:28:10.999Z</time></trkpt><trkpt lat="44.90669792379321" lon="7.706320878834644"><ele>230.0</ele><time>2026-04-10T10:28:12.999Z</time></trkpt><trkpt lat="44.90680763595694" lon="7.706271635160645"><ele>230.0</ele><time>2026-04-10T10:28:14.999Z</time></trkpt><trkpt lat="44.906874987558986" lon="7.706241501571557"><ele>230.0</ele><time>2026-04-10T10:28:15.999Z</time></trkpt><trkpt lat="44.906987016" lon="7.706199216077033"><ele>230.0</ele><time>2026-04-10T10:28:17.999Z</time></trkpt><trkpt lat="44.90711446926698" lon="7.706163577539674"><ele>230.0</ele><time>2026-04-10T10:28:19.999Z</time></trkpt><trkpt lat="44.90721091970434" lon="7.706167311671859"><ele>230.0</ele><time>2026-04-10T10:28:21.999Z</time></trkpt><trkpt lat="44.907307099079404" lon="7.7061862007778545"><ele>230.0</ele><time>2026-04-10T10:28:23.999Z</time></trkpt><trkpt lat="44.90739876721948" lon="7.706200614539297"><ele>230.00000000000003</ele><time>2026-04-10T10:28:25.999Z</time></trkpt><trkpt lat="44.90746320275823" lon="7.70619076716084"><ele>230.0</ele><time>2026-04-10T10:28:26.999Z</time></trkpt><trkpt lat="44.90756468287342" lon="7.706178902320225"><ele>230.0</ele><time>2026-04-10T10:28:28.999Z</time></trkpt><trkpt lat="44.907658326122124" lon="7.7061492568173495"><ele>230.0</ele><time>2026-04-10T10:28:30.999Z</time></trkpt><trkpt lat="44.90773810670024" lon="7.706115919573399"><ele>230.00000000000003</ele><time>2026-04-10T10:28:32.999Z</time></trkpt><trkpt lat="44.90779961455194" lon="7.706066720447035"><ele>230.0</ele><time>2026-04-10T10:28:34.999Z</time></trkpt><trkpt lat="44.90787636741098" lon="7.705989449011602"><ele>229.66666666666669</ele><time>2026-04-10T10:28:36.999Z</time></trkpt><trkpt lat="44.90795075987508" lon="7.705916336270237"><ele>229.33333333333334</ele><time>2026-04-10T10:28:38.999Z</time></trkpt><trkpt lat="44.90801051931136" lon="7.705835035611294"><ele>229.0</ele><time>2026-04-10T10:28:40.999Z</time></trkpt><trkpt lat="44.908042863620324" lon="7.705750740004876"><ele>228.66666666666669</ele><time>2026-04-10T10:28:42.999Z</time></trkpt><trkpt lat="44.907985171974" lon="7.705652015223826"><ele>228.33333333333334</ele><time>2026-04-10T10:28:46.999Z</time></trkpt><trkpt lat="44.90790110892256" lon="7.705566802502369"><ele>228.0</ele><time>2026-04-10T10:28:48.999Z</time></trkpt><trkpt lat="44.907828252079604" lon="7.705536203689483"><ele>228.0</ele><time>2026-04-10T10:28:49.999Z</time></trkpt><trkpt lat="44.90775502930702" lon="7.705513926755037"><ele>228.0</ele><time>2026-04-10T10:28:50.999Z</time></trkpt><trkpt lat="44.90767498546496" lon="7.705490716801415"><ele>228.0</ele><time>2026-04-10T10:28:51.999Z</time></trkpt><trkpt lat="44.907610679566716" lon="7.705470395251519"><ele>228.0</ele><time>2026-04-10T10:28:52.999Z</time></trkpt><trkpt lat="44.907552487516014" lon="7.705421824817289"><ele>228.0</ele><time>2026-04-10T10:28:53.999Z</time></trkpt><trkpt lat="44.90747015763399" lon="7.7053166945499125"><ele>228.0</ele><time>2026-04-10T10:28:55.999Z</time></trkpt><trkpt lat="44.90741365627245" lon="7.705182898437887"><ele>227.8</ele><time>2026-04-10T10:28:57.999Z</time></trkpt><trkpt lat="44.90737726623999" lon="7.705029188568104"><ele>227.60000000000002</ele><time>2026-04-10T10:28:59.999Z</time></trkpt><trkpt lat="44.907348717309844" lon="7.70490646076249"><ele>227.39999999999998</ele><time>2026-04-10T10:29:01.999Z</time></trkpt><trkpt lat="44.90733350422096" lon="7.704766113188455"><ele>227.2</ele><time>2026-04-10T10:29:03.999Z</time></trkpt><trkpt lat="44.90737020221667" lon="7.70467102409141"><ele>227.0</ele><time>2026-04-10T10:29:06.999Z</time></trkpt><trkpt lat="44.9074433481788" lon="7.704630597494991"><ele>227.00000000000003</ele><time>2026-04-10T10:29:10.999Z</time></trkpt><trkpt lat="44.90751441115448" lon="7.704608822957192"><ele>227.0</ele><time>2026-04-10T10:29:13.999Z</time></trkpt><trkpt lat="44.90760484548662" lon="7.704578415808093"><ele>227.0</ele><time>2026-04-10T10:29:16.999Z</time></trkpt><trkpt lat="44.9076631521583" lon="7.704533469396212"><ele>227.0</ele><time>2026-04-10T10:29:18.999Z</time></trkpt><trkpt lat="44.907732616079805" lon="7.70446418135075"><ele>227.00000000000003</ele><time>2026-04-10T10:29:21.999Z</time></trkpt><trkpt lat="44.90779984141699" lon="7.704395774964541"><ele>227.0</ele><time>2026-04-10T10:29:24.999Z</time></trkpt><trkpt lat="44.90786705173335" lon="7.704326149619808"><ele>226.0</ele><time>2026-04-10T10:29:26.999Z</time></trkpt><trkpt lat="44.90793885221128" lon="7.704249023064357"><ele>225.0</ele><time>2026-04-10T10:29:28.999Z</time></trkpt><trkpt lat="44.908008307665575" lon="7.70421470258197"><ele>224.0</ele><time>2026-04-10T10:29:30.999Z</time></trkpt><trkpt lat="44.90809664530405" lon="7.704141899253749"><ele>223.0</ele><time>2026-04-10T10:29:32.999Z</time></trkpt><trkpt lat="44.908180401654185" lon="7.704069621187168"><ele>222.0</ele><time>2026-04-10T10:29:34.999Z</time></trkpt><trkpt lat="44.90824894074057" lon="7.703994131252473"><ele>222.0</ele><time>2026-04-10T10:29:36.999Z</time></trkpt><trkpt lat="44.90831212326879" lon="7.703894161827576"><ele>222.0</ele><time>2026-04-10T10:29:38.999Z</time></trkpt><trkpt lat="44.908363419045955" lon="7.703791183263623"><ele>222.0</ele><time>2026-04-10T10:29:40.999Z</time></trkpt><trkpt lat="44.90841040219406" lon="7.7037052804741055"><ele>222.0</ele><time>2026-04-10T10:29:42.999Z</time></trkpt><trkpt lat="44.90847094630835" lon="7.70361233277059"><ele>222.0</ele><time>2026-04-10T10:29:44.999Z</time></trkpt><trkpt lat="44.90853274649326" lon="7.703493829985558"><ele>223.0</ele><time>2026-04-10T10:29:46.999Z</time></trkpt><trkpt lat="44.90858929728911" lon="7.703397502316818"><ele>224.0</ele><time>2026-04-10T10:29:48.999Z</time></trkpt><trkpt lat="44.90864298364108" lon="7.703304381539636"><ele>225.0</ele><time>2026-04-10T10:29:50.999Z</time></trkpt><trkpt lat="44.90869532761047" lon="7.703229918057219"><ele>226.0</ele><time>2026-04-10T10:29:52.999Z</time></trkpt><trkpt lat="44.9087593276499" lon="7.703170167161674"><ele>227.0</ele><time>2026-04-10T10:29:54.999Z</time></trkpt><trkpt lat="44.9088183475398" lon="7.7030975623323625"><ele>228.0</ele><time>2026-04-10T10:29:56.999Z</time></trkpt><trkpt lat="44.90887423468971" lon="7.703030095755142"><ele>228.0</ele><time>2026-04-10T10:29:58.999Z</time></trkpt><trkpt lat="44.90894389987285" lon="7.702953478641982"><ele>228.0</ele><time>2026-04-10T10:30:00.999Z</time></trkpt><trkpt lat="44.90901256222402" lon="7.702877101837944"><ele>228.0</ele><time>2026-04-10T10:30:03Z</time></trkpt><trkpt lat="44.909080918709236" lon="7.70280377539644"><ele>228.0</ele><time>2026-04-10T10:30:05Z</time></trkpt><trkpt lat="44.909148379714665" lon="7.702727371716912"><ele>228.0</ele><time>2026-04-10T10:30:07Z</time></trkpt><trkpt lat="44.90919965619929" lon="7.702662608789126"><ele>228.0</ele><time>2026-04-10T10:30:09Z</time></trkpt><trkpt lat="44.90924629157994" lon="7.702591295326021"><ele>227.66666666666666</ele><time>2026-04-10T10:30:11Z</time></trkpt><trkpt lat="44.90930335936872" lon="7.7025142658438925"><ele>227.33333333333331</ele><time>2026-04-10T10:30:13Z</time></trkpt><trkpt lat="44.909363934789965" lon="7.70242288714648"><ele>227.0</ele><time>2026-04-10T10:30:15Z</time></trkpt><trkpt lat="44.90942222126103" lon="7.702317858209743"><ele>226.66666666666666</ele><time>2026-04-10T10:30:17Z</time></trkpt><trkpt lat="44.909475219569" lon="7.70221751720636"><ele>226.33333333333331</ele><time>2026-04-10T10:30:19Z</time></trkpt><trkpt lat="44.909520364118514" lon="7.7021336335539194"><ele>226.0</ele><time>2026-04-10T10:30:21Z</time></trkpt><trkpt lat="44.90957172983423" lon="7.702026186592151"><ele>225.99999999999997</ele><time>2026-04-10T10:30:23Z</time></trkpt><trkpt lat="44.90961336150277" lon="7.701938117697883"><ele>226.0</ele><time>2026-04-10T10:30:25Z</time></trkpt><trkpt lat="44.909651296790635" lon="7.701850340764613"><ele>226.0</ele><time>2026-04-10T10:30:27Z</time></trkpt><trkpt lat="44.909694601934085" lon="7.70176039034909"><ele>226.0</ele><time>2026-04-10T10:30:29Z</time></trkpt><trkpt lat="44.909741866032114" lon="7.70166435845737"><ele>225.99999999999997</ele><time>2026-04-10T10:30:31Z</time></trkpt><trkpt lat="44.909785955157226" lon="7.701571971533457"><ele>226.0</ele><time>2026-04-10T10:30:33Z</time></trkpt><trkpt lat="44.90981910324251" lon="7.701482786265295"><ele>226.0</ele><time>2026-04-10T10:30:35Z</time></trkpt><trkpt lat="44.90986177568989" lon="7.701382076018689"><ele>226.00000000000003</ele><time>2026-04-10T10:30:37Z</time></trkpt><trkpt lat="44.90990725155443" lon="7.701273349376968"><ele>226.00000000000003</ele><time>2026-04-10T10:30:39Z</time></trkpt><trkpt lat="44.909960137876624" lon="7.70111169677616"><ele>226.0</ele><time>2026-04-10T10:30:41Z</time></trkpt><trkpt lat="44.9099837116038" lon="7.701024407848951"><ele>226.0</ele><time>2026-04-10T10:30:42Z</time></trkpt><trkpt lat="44.910013905199875" lon="7.700889905217259"><ele>226.16666666666666</ele><time>2026-04-10T10:30:44Z</time></trkpt><trkpt lat="44.91004403643635" lon="7.700759722937613"><ele>226.33333333333331</ele><time>2026-04-10T10:30:46Z</time></trkpt><trkpt lat="44.910069379285254" lon="7.700668292343428"><ele>226.5</ele><time>2026-04-10T10:30:48Z</time></trkpt><trkpt lat="44.91009205933964" lon="7.700578263425319"><ele>226.66666666666669</ele><time>2026-04-10T10:30:50Z</time></trkpt><trkpt lat="44.91011339863307" lon="7.700473979083694"><ele>226.83333333333334</ele><time>2026-04-10T10:30:52Z</time></trkpt><trkpt lat="44.91012089336753" lon="7.700382836154734"><ele>227.0</ele><time>2026-04-10T10:30:54Z</time></trkpt><trkpt lat="44.910129909997686" lon="7.700254611372289"><ele>226.83333333333334</ele><time>2026-04-10T10:30:56Z</time></trkpt><trkpt lat="44.91012982137389" lon="7.700156697429596"><ele>226.66666666666669</ele><time>2026-04-10T10:30:58Z</time></trkpt><trkpt lat="44.91012979999654" lon="7.700017863594383"><ele>226.5</ele><time>2026-04-10T10:31:01Z</time></trkpt><trkpt lat="44.910113000637295" lon="7.699913468257871"><ele>226.33333333333331</ele><time>2026-04-10T10:31:03Z</time></trkpt><trkpt lat="44.91009357909347" lon="7.699782331712026"><ele>226.16666666666666</ele><time>2026-04-10T10:31:05Z</time></trkpt><trkpt lat="44.9100684279394" lon="7.699662242357222"><ele>226.0</ele><time>2026-04-10T10:31:07Z</time></trkpt><trkpt lat="44.9100445587131" lon="7.699561366707527"><ele>225.83333333333331</ele><time>2026-04-10T10:31:09Z</time></trkpt><trkpt lat="44.91001221694379" lon="7.699470074523293"><ele>225.66666666666666</ele><time>2026-04-10T10:31:11Z</time></trkpt><trkpt lat="44.909974650100004" lon="7.699385978723132"><ele>225.5</ele><time>2026-04-10T10:31:13Z</time></trkpt><trkpt lat="44.90995936554044" lon="7.699277616065994"><ele>225.33333333333331</ele><time>2026-04-10T10:31:15Z</time></trkpt><trkpt lat="44.90994102637313" lon="7.69914699410807"><ele>225.16666666666666</ele><time>2026-04-10T10:31:17Z</time></trkpt><trkpt lat="44.90992184579394" lon="7.699017394710759"><ele>225.0</ele><time>2026-04-10T10:31:19Z</time></trkpt><trkpt lat="44.90990961822921" lon="7.698929132194333"><ele>225.0</ele><time>2026-04-10T10:31:20Z</time></trkpt><trkpt lat="44.90988589132829" lon="7.698765541516945"><ele>225.0</ele><time>2026-04-10T10:31:22Z</time></trkpt><trkpt lat="44.90986173478341" lon="7.698625849566753"><ele>225.0</ele><time>2026-04-10T10:31:24Z</time></trkpt><trkpt lat="44.90984133607596" lon="7.698515327356139"><ele>225.0</ele><time>2026-04-10T10:31:26Z</time></trkpt><trkpt lat="44.90981672829146" lon="7.6984278704488585"><ele>225.0</ele><time>2026-04-10T10:31:28Z</time></trkpt><trkpt lat="44.909795340771076" lon="7.698330059859712"><ele>225.0</ele><time>2026-04-10T10:31:30Z</time></trkpt><trkpt lat="44.90978137593934" lon="7.698226907899564"><ele>225.0</ele><time>2026-04-10T10:31:32Z</time></trkpt><trkpt lat="44.90975254902589" lon="7.69810307590529"><ele>225.0</ele><time>2026-04-10T10:31:34Z</time></trkpt><trkpt lat="44.909703975110475" lon="7.698023103614652"><ele>225.0</ele><time>2026-04-10T10:31:36Z</time></trkpt><trkpt lat="44.90965758249561" lon="7.6979420364531705"><ele>225.0</ele><time>2026-04-10T10:31:38Z</time></trkpt><trkpt lat="44.90962295926184" lon="7.697843855777632"><ele>225.0</ele><time>2026-04-10T10:31:40Z</time></trkpt><trkpt lat="44.90958385866512" lon="7.697747239591578"><ele>225.0</ele><time>2026-04-10T10:31:42Z</time></trkpt><trkpt lat="44.90952873230464" lon="7.697648552811931"><ele>225.16666666666666</ele><time>2026-04-10T10:31:44Z</time></trkpt><trkpt lat="44.90949284839286" lon="7.697514696247097"><ele>225.33333333333331</ele><time>2026-04-10T10:31:46Z</time></trkpt><trkpt lat="44.90946147646671" lon="7.6973961443730206"><ele>225.5</ele><time>2026-04-10T10:31:48Z</time></trkpt><trkpt lat="44.9094641661949" lon="7.697300393949564"><ele>225.66666666666666</ele><time>2026-04-10T10:31:50Z</time></trkpt><trkpt lat="44.909476615329105" lon="7.6972053335464565"><ele>225.83333333333331</ele><time>2026-04-10T10:31:53Z</time></trkpt><trkpt lat="44.90951821081467" lon="7.697096259639385"><ele>226.0</ele><time>2026-04-10T10:31:56Z</time></trkpt><trkpt lat="44.90958932157499" lon="7.697037066062002"><ele>225.99999999999997</ele><time>2026-04-10T10:31:59Z</time></trkpt><trkpt lat="44.909632744967446" lon="7.696926588493459"><ele>226.0</ele><time>2026-04-10T10:32:01Z</time></trkpt><trkpt lat="44.90967667966493" lon="7.696850906077139"><ele>226.0</ele><time>2026-04-10T10:32:03Z</time></trkpt><trkpt lat="44.90971270128922" lon="7.696773476738045"><ele>226.0</ele><time>2026-04-10T10:32:06Z</time></trkpt><trkpt lat="44.90971099875049" lon="7.696656714475765"><ele>225.99999999999997</ele><time>2026-04-10T10:32:09Z</time></trkpt><trkpt lat="44.90970949112345" lon="7.69654479501199"><ele>226.0</ele><time>2026-04-10T10:32:11Z</time></trkpt><trkpt lat="44.909697084425964" lon="7.696436523660614"><ele>226.60000000000002</ele><time>2026-04-10T10:32:13Z</time></trkpt><trkpt lat="44.909692245768326" lon="7.696318381990969"><ele>227.20000000000002</ele><time>2026-04-10T10:32:15Z</time></trkpt><trkpt lat="44.909677346176885" lon="7.696178975189312"><ele>227.79999999999998</ele><time>2026-04-10T10:32:17Z</time></trkpt><trkpt lat="44.909659141201104" lon="7.696044267484902"><ele>228.39999999999998</ele><time>2026-04-10T10:32:19Z</time></trkpt><trkpt lat="44.9096424548128" lon="7.695921795834052"><ele>229.0</ele><time>2026-04-10T10:32:21Z</time></trkpt><trkpt lat="44.9096186534544" lon="7.695801424078377"><ele>229.2</ele><time>2026-04-10T10:32:23Z</time></trkpt><trkpt lat="44.90957863323299" lon="7.695686712444898"><ele>229.39999999999998</ele><time>2026-04-10T10:32:25Z</time></trkpt><trkpt lat="44.9095350613241" lon="7.695562512693111"><ele>229.6</ele><time>2026-04-10T10:32:27Z</time></trkpt><trkpt lat="44.909491714869795" lon="7.695448257119843"><ele>229.8</ele><time>2026-04-10T10:32:29Z</time></trkpt><trkpt lat="44.90944623812923" lon="7.695309126439317"><ele>230.0</ele><time>2026-04-10T10:32:31Z</time></trkpt><trkpt lat="44.90939975844391" lon="7.695185946356814"><ele>230.16666666666669</ele><time>2026-04-10T10:32:33Z</time></trkpt><trkpt lat="44.90935475724108" lon="7.695063212045692"><ele>230.33333333333334</ele><time>2026-04-10T10:32:35Z</time></trkpt><trkpt lat="44.90933131478514" lon="7.694959227362128"><ele>230.5</ele><time>2026-04-10T10:32:37Z</time></trkpt><trkpt lat="44.909321593546935" lon="7.694858808659757"><ele>230.66666666666669</ele><time>2026-04-10T10:32:39Z</time></trkpt><trkpt lat="44.90931411496064" lon="7.694729003535428"><ele>230.83333333333334</ele><time>2026-04-10T10:32:41Z</time></trkpt><trkpt lat="44.909334392713816" lon="7.694610840228122"><ele>231.0</ele><time>2026-04-10T10:32:43Z</time></trkpt><trkpt lat="44.90933987461866" lon="7.694480132063078"><ele>231.20000000000002</ele><time>2026-04-10T10:32:45Z</time></trkpt><trkpt lat="44.90934609182553" lon="7.69435731532269"><ele>231.40000000000003</ele><time>2026-04-10T10:32:47Z</time></trkpt><trkpt lat="44.90934130259202" lon="7.694198443610282"><ele>231.6</ele><time>2026-04-10T10:32:49Z</time></trkpt><trkpt lat="44.909354175500106" lon="7.694057116979026"><ele>231.8</ele><time>2026-04-10T10:32:50.999Z</time></trkpt><trkpt lat="44.9093788572883" lon="7.6939224592002935"><ele>232.0</ele><time>2026-04-10T10:32:52.999Z</time></trkpt><trkpt lat="44.90940219412943" lon="7.693802283960718"><ele>231.99999999999997</ele><time>2026-04-10T10:32:54.999Z</time></trkpt><trkpt lat="44.90941399538888" lon="7.693674903328418"><ele>232.0</ele><time>2026-04-10T10:32:56.999Z</time></trkpt><trkpt lat="44.90944921100346" lon="7.693563944033039"><ele>232.0</ele><time>2026-04-10T10:32:58.999Z</time></trkpt><trkpt lat="44.9095048313022" lon="7.693473604365145"><ele>232.0</ele><time>2026-04-10T10:33:00.999Z</time></trkpt><trkpt lat="44.90957161177551" lon="7.693406640860008"><ele>231.99999999999997</ele><time>2026-04-10T10:33:02.999Z</time></trkpt><trkpt lat="44.9096445255046" lon="7.693312354897328"><ele>232.0</ele><time>2026-04-10T10:33:04.999Z</time></trkpt><trkpt lat="44.909714577938196" lon="7.693206523517338"><ele>231.99999999999997</ele><time>2026-04-10T10:33:06.999Z</time></trkpt><trkpt lat="44.90977627874221" lon="7.693088118804489"><ele>232.0</ele><time>2026-04-10T10:33:08.999Z</time></trkpt><trkpt lat="44.90983469456213" lon="7.693029021712506"><ele>232.0</ele><time>2026-04-10T10:33:10.999Z</time></trkpt><trkpt lat="44.90986831071992" lon="7.692949464207032"><ele>232.0</ele><time>2026-04-10T10:33:12.999Z</time></trkpt><trkpt lat="44.909912249795454" lon="7.692862816556939"><ele>231.99999999999997</ele><time>2026-04-10T10:33:14.999Z</time></trkpt><trkpt lat="44.909981956217834" lon="7.6928268200464025"><ele>232.0</ele><time>2026-04-10T10:33:16.999Z</time></trkpt><trkpt lat="44.9100426995933" lon="7.692784474171529"><ele>231.49999999999997</ele><time>2026-04-10T10:33:18.999Z</time></trkpt><trkpt lat="44.91005916050977" lon="7.69266933699873"><ele>231.0</ele><time>2026-04-10T10:33:22.999Z</time></trkpt><trkpt lat="44.91000821276133" lon="7.692584209774987"><ele>230.5</ele><time>2026-04-10T10:33:24.999Z</time></trkpt><trkpt lat="44.909962989881016" lon="7.692508978454917"><ele>230.0</ele><time>2026-04-10T10:33:26.999Z</time></trkpt><trkpt lat="44.90991822686401" lon="7.692404040752965"><ele>229.49999999999997</ele><time>2026-04-10T10:33:28.999Z</time></trkpt><trkpt lat="44.90986914886744" lon="7.6922908274822985"><ele>229.0</ele><time>2026-04-10T10:33:30.999Z</time></trkpt><trkpt lat="44.90982726961428" lon="7.6921977860758"><ele>229.0</ele><time>2026-04-10T10:33:32.999Z</time></trkpt><trkpt lat="44.909772842928675" lon="7.6920992158062855"><ele>228.99999999999997</ele><time>2026-04-10T10:33:34.999Z</time></trkpt><trkpt lat="44.909718166423545" lon="7.692000600831705"><ele>228.99999999999997</ele><time>2026-04-10T10:33:36.999Z</time></trkpt><trkpt lat="44.909671154879305" lon="7.6919068402849735"><ele>229.0</ele><time>2026-04-10T10:33:38.999Z</time></trkpt><trkpt lat="44.909608296164826" lon="7.6917993805101545"><ele>229.0</ele><time>2026-04-10T10:33:40.999Z</time></trkpt><trkpt lat="44.909548899246815" lon="7.69168928803244"><ele>228.79999999999998</ele><time>2026-04-10T10:33:42.999Z</time></trkpt><trkpt lat="44.90948165175185" lon="7.691597873359261"><ele>228.59999999999997</ele><time>2026-04-10T10:33:44.999Z</time></trkpt><trkpt lat="44.9094035982112" lon="7.691524875682384"><ele>228.4</ele><time>2026-04-10T10:33:46.999Z</time></trkpt><trkpt lat="44.90931536567515" lon="7.6914353922125365"><ele>228.2</ele><time>2026-04-10T10:33:48.999Z</time></trkpt><trkpt lat="44.90923880505189" lon="7.691354128407193"><ele>228.0</ele><time>2026-04-10T10:33:50.999Z</time></trkpt><trkpt lat="44.90916076889849" lon="7.691275264784894"><ele>227.8</ele><time>2026-04-10T10:33:52.999Z</time></trkpt><trkpt lat="44.90909507269135" lon="7.691191605174406"><ele>227.60000000000002</ele><time>2026-04-10T10:33:54.999Z</time></trkpt><trkpt lat="44.909033945198296" lon="7.691098211435575"><ele>227.39999999999998</ele><time>2026-04-10T10:33:56.999Z</time></trkpt><trkpt lat="44.908955432382314" lon="7.6910054528740295"><ele>227.2</ele><time>2026-04-10T10:33:58.999Z</time></trkpt><trkpt lat="44.90888937011687" lon="7.6909018532342905"><ele>227.0</ele><time>2026-04-10T10:34:00.999Z</time></trkpt><trkpt lat="44.90881641251707" lon="7.690792587244592"><ele>226.8</ele><time>2026-04-10T10:34:02.999Z</time></trkpt><trkpt lat="44.908743567808706" lon="7.690684764017377"><ele>226.6</ele><time>2026-04-10T10:34:04.999Z</time></trkpt><trkpt lat="44.90865917298985" lon="7.690573258473453"><ele>226.40000000000003</ele><time>2026-04-10T10:34:06.999Z</time></trkpt><trkpt lat="44.90859631643177" lon="7.690467419835181"><ele>226.20000000000002</ele><time>2026-04-10T10:34:08.999Z</time></trkpt><trkpt lat="44.908530259643186" lon="7.690350424697271"><ele>226.0</ele><time>2026-04-10T10:34:10.999Z</time></trkpt><trkpt lat="44.90844780652109" lon="7.690222403699325"><ele>226.49999999999997</ele><time>2026-04-10T10:34:12.999Z</time></trkpt><trkpt lat="44.90840089011177" lon="7.690157433310097"><ele>227.0</ele><time>2026-04-10T10:34:13.999Z</time></trkpt><trkpt lat="44.908354869879695" lon="7.690095102623465"><ele>227.5</ele><time>2026-04-10T10:34:14.999Z</time></trkpt><trkpt lat="44.90828099038595" lon="7.689984409898868"><ele>228.0</ele><time>2026-04-10T10:34:16.999Z</time></trkpt><trkpt lat="44.90819341529108" lon="7.689869910814366"><ele>228.49999999999997</ele><time>2026-04-10T10:34:18.999Z</time></trkpt><trkpt lat="44.90814939765605" lon="7.689801380470445"><ele>229.0</ele><time>2026-04-10T10:34:19.999Z</time></trkpt><trkpt lat="44.908105724862736" lon="7.689736072078796"><ele>228.99999999999997</ele><time>2026-04-10T10:34:20.999Z</time></trkpt><trkpt lat="44.908054407650205" lon="7.689667660052961"><ele>229.0</ele><time>2026-04-10T10:34:21.999Z</time></trkpt><trkpt lat="44.90798670559681" lon="7.689596367375574"><ele>229.0</ele><time>2026-04-10T10:34:22.999Z</time></trkpt><trkpt lat="44.90792934581296" lon="7.689530040995563"><ele>229.0</ele><time>2026-04-10T10:34:23.999Z</time></trkpt><trkpt lat="44.90786554573032" lon="7.689441040218707"><ele>228.99999999999997</ele><time>2026-04-10T10:34:24.999Z</time></trkpt><trkpt lat="44.90780163644973" lon="7.689366011721055"><ele>229.0</ele><time>2026-04-10T10:34:25.999Z</time></trkpt><trkpt lat="44.90773743306074" lon="7.689281518351022"><ele>228.99999999999997</ele><time>2026-04-10T10:34:26.999Z</time></trkpt><trkpt lat="44.907664907918665" lon="7.689191822722715"><ele>229.0</ele><time>2026-04-10T10:34:27.999Z</time></trkpt><trkpt lat="44.90759643315368" lon="7.6891031333209625"><ele>229.0</ele><time>2026-04-10T10:34:28.999Z</time></trkpt><trkpt lat="44.907528370347656" lon="7.689019573756022"><ele>229.0</ele><time>2026-04-10T10:34:29.999Z</time></trkpt><trkpt lat="44.907460777428895" lon="7.688934538048936"><ele>228.99999999999997</ele><time>2026-04-10T10:34:30.999Z</time></trkpt><trkpt lat="44.90740089078936" lon="7.688864953321928"><ele>229.0</ele><time>2026-04-10T10:34:31.999Z</time></trkpt><trkpt lat="44.90734575806392" lon="7.688794236250316"><ele>229.14285714285714</ele><time>2026-04-10T10:34:32.999Z</time></trkpt><trkpt lat="44.90728756711813" lon="7.688722716317648"><ele>229.28571428571428</ele><time>2026-04-10T10:34:33.999Z</time></trkpt><trkpt lat="44.90723456329136" lon="7.688649976438313"><ele>229.42857142857142</ele><time>2026-04-10T10:34:34.999Z</time></trkpt><trkpt lat="44.90718200096027" lon="7.688574346449099"><ele>229.57142857142856</ele><time>2026-04-10T10:34:35.999Z</time></trkpt><trkpt lat="44.90712652171717" lon="7.68850119232398"><ele>229.71428571428572</ele><time>2026-04-10T10:34:36.999Z</time></trkpt><trkpt lat="44.90707293324487" lon="7.688434094663036"><ele>229.85714285714283</ele><time>2026-04-10T10:34:37.999Z</time></trkpt><trkpt lat="44.90701844171897" lon="7.6883599583414926"><ele>229.99999999999997</ele><time>2026-04-10T10:34:38.999Z</time></trkpt><trkpt lat="44.90697586381482" lon="7.688276232153226"><ele>229.99999999999997</ele><time>2026-04-10T10:34:39.999Z</time></trkpt><trkpt lat="44.90694745442928" lon="7.688190190656125"><ele>230.0</ele><time>2026-04-10T10:34:40.999Z</time></trkpt><trkpt lat="44.90692195248538" lon="7.688100795024674"><ele>229.99999999999997</ele><time>2026-04-10T10:34:41.999Z</time></trkpt><trkpt lat="44.90688987136771" lon="7.688014517526035"><ele>229.99999999999997</ele><time>2026-04-10T10:34:42.999Z</time></trkpt><trkpt lat="44.90684437714342" lon="7.687939152179873"><ele>230.0</ele><time>2026-04-10T10:34:43.999Z</time></trkpt><trkpt lat="44.90678778257113" lon="7.687879370702357"><ele>229.99999999999997</ele><time>2026-04-10T10:34:44.999Z</time></trkpt><trkpt lat="44.90672904787594" lon="7.687820530255046"><ele>229.99999999999997</ele><time>2026-04-10T10:34:45.999Z</time></trkpt><trkpt lat="44.90667492566836" lon="7.687765790650428"><ele>229.83333333333334</ele><time>2026-04-10T10:34:46.999Z</time></trkpt><trkpt lat="44.906621724651764" lon="7.687691539403482"><ele>229.66666666666669</ele><time>2026-04-10T10:34:47.999Z</time></trkpt><trkpt lat="44.90657569417719" lon="7.687600980846205"><ele>229.5</ele><time>2026-04-10T10:34:48.999Z</time></trkpt><trkpt lat="44.90654013405477" lon="7.687503042756525"><ele>229.33333333333331</ele><time>2026-04-10T10:34:49.999Z</time></trkpt><trkpt lat="44.90651150036645" lon="7.68740362916327"><ele>229.16666666666666</ele><time>2026-04-10T10:34:50.999Z</time></trkpt><trkpt lat="44.906482037074355" lon="7.687304764756744"><ele>229.0</ele><time>2026-04-10T10:34:51.999Z</time></trkpt><trkpt lat="44.906463455514704" lon="7.687201576141186"><ele>228.99999999999997</ele><time>2026-04-10T10:34:52.999Z</time></trkpt><trkpt lat="44.90644095321372" lon="7.687100010351859"><ele>229.0</ele><time>2026-04-10T10:34:53.999Z</time></trkpt><trkpt lat="44.90642235070724" lon="7.686995447503507"><ele>229.0</ele><time>2026-04-10T10:34:54.999Z</time></trkpt><trkpt lat="44.9064027901514" lon="7.686894983974947"><ele>229.0</ele><time>2026-04-10T10:34:55.999Z</time></trkpt><trkpt lat="44.906385813385874" lon="7.686802941051599"><ele>228.99999999999997</ele><time>2026-04-10T10:34:56.999Z</time></trkpt><trkpt lat="44.906353551257894" lon="7.686619214736922"><ele>229.0</ele><time>2026-04-10T10:34:58.999Z</time></trkpt><trkpt lat="44.90632672969892" lon="7.686451122982925"><ele>228.99999999999997</ele><time>2026-04-10T10:35:00.999Z</time></trkpt><trkpt lat="44.90631291937099" lon="7.686363156244446"><ele>229.0</ele><time>2026-04-10T10:35:01.999Z</time></trkpt><trkpt lat="44.90628166953736" lon="7.686195807290009"><ele>229.0</ele><time>2026-04-10T10:35:03.999Z</time></trkpt><trkpt lat="44.906270695847205" lon="7.686107036085338"><ele>229.0</ele><time>2026-04-10T10:35:04.999Z</time></trkpt><trkpt lat="44.906242551586374" lon="7.685930616079806"><ele>228.99999999999997</ele><time>2026-04-10T10:35:06.999Z</time></trkpt><trkpt lat="44.906226551316564" lon="7.685838538308969"><ele>229.0</ele><time>2026-04-10T10:35:07.999Z</time></trkpt><trkpt lat="44.906214223066705" lon="7.685745107060629"><ele>228.99999999999997</ele><time>2026-04-10T10:35:08.999Z</time></trkpt><trkpt lat="44.90618493889088" lon="7.685563096997826"><ele>229.0</ele><time>2026-04-10T10:35:10.999Z</time></trkpt><trkpt lat="44.90615244173683" lon="7.6853977155872295"><ele>229.0</ele><time>2026-04-10T10:35:12.999Z</time></trkpt><trkpt lat="44.90613249878777" lon="7.685310352927879"><ele>229.0</ele><time>2026-04-10T10:35:13.999Z</time></trkpt><trkpt lat="44.90611211152468" lon="7.6852251131621125"><ele>228.99999999999997</ele><time>2026-04-10T10:35:14.999Z</time></trkpt><trkpt lat="44.90609616502083" lon="7.6851383980660035"><ele>229.0</ele><time>2026-04-10T10:35:15.999Z</time></trkpt><trkpt lat="44.906077530035816" lon="7.685048742693894"><ele>229.0</ele><time>2026-04-10T10:35:16.999Z</time></trkpt><trkpt lat="44.9060331073537" lon="7.684902275519069"><ele>228.99999999999997</ele><time>2026-04-10T10:35:18.999Z</time></trkpt><trkpt lat="44.90599108751097" lon="7.68473517449244"><ele>228.99999999999997</ele><time>2026-04-10T10:35:20.999Z</time></trkpt><trkpt lat="44.905972950013506" lon="7.684647909087057"><ele>229.0</ele><time>2026-04-10T10:35:21.999Z</time></trkpt><trkpt lat="44.90594470404271" lon="7.6844773575876655"><ele>229.0</ele><time>2026-04-10T10:35:23.999Z</time></trkpt><trkpt lat="44.905925595950315" lon="7.684388298793323"><ele>229.14285714285714</ele><time>2026-04-10T10:35:24.999Z</time></trkpt><trkpt lat="44.905909427157" lon="7.684298589679452"><ele>229.28571428571428</ele><time>2026-04-10T10:35:25.999Z</time></trkpt><trkpt lat="44.90589428920968" lon="7.684206354681332"><ele>229.42857142857142</ele><time>2026-04-10T10:35:26.999Z</time></trkpt><trkpt lat="44.90587930786194" lon="7.684116928398686"><ele>229.57142857142856</ele><time>2026-04-10T10:35:27.999Z</time></trkpt><trkpt lat="44.90585857178299" lon="7.684022127148248"><ele>229.71428571428572</ele><time>2026-04-10T10:35:28.999Z</time></trkpt><trkpt lat="44.90583876566179" lon="7.683931317639295"><ele>229.85714285714283</ele><time>2026-04-10T10:35:29.999Z</time></trkpt><trkpt lat="44.90582116470274" lon="7.683833539076225"><ele>229.99999999999997</ele><time>2026-04-10T10:35:30.999Z</time></trkpt><trkpt lat="44.90580218040281" lon="7.683744548622049"><ele>229.99999999999997</ele><time>2026-04-10T10:35:31.999Z</time></trkpt><trkpt lat="44.905786756190984" lon="7.683651725972973"><ele>230.0</ele><time>2026-04-10T10:35:32.999Z</time></trkpt><trkpt lat="44.90576862864106" lon="7.683559955390927"><ele>229.99999999999997</ele><time>2026-04-10T10:35:33.999Z</time></trkpt><trkpt lat="44.905749902089326" lon="7.683466373782666"><ele>229.99999999999997</ele><time>2026-04-10T10:35:34.999Z</time></trkpt><trkpt lat="44.905732487936106" lon="7.683369384206532"><ele>230.0</ele><time>2026-04-10T10:35:35.999Z</time></trkpt><trkpt lat="44.905716539440625" lon="7.683273783650431"><ele>229.99999999999997</ele><time>2026-04-10T10:35:36.999Z</time></trkpt><trkpt lat="44.905702168586195" lon="7.683183786733926"><ele>229.99999999999997</ele><time>2026-04-10T10:35:37.999Z</time></trkpt><trkpt lat="44.905677933802245" lon="7.683010870695725"><ele>230.00000000000003</ele><time>2026-04-10T10:35:39.999Z</time></trkpt><trkpt lat="44.90566299171311" lon="7.682922283415305"><ele>230.0</ele><time>2026-04-10T10:35:40.999Z</time></trkpt><trkpt lat="44.90564703818874" lon="7.682828978124871"><ele>230.0</ele><time>2026-04-10T10:35:41.999Z</time></trkpt><trkpt lat="44.90563187007472" lon="7.682736148264133"><ele>230.0</ele><time>2026-04-10T10:35:42.998Z</time></trkpt><trkpt lat="44.90561615877275" lon="7.682648411228175"><ele>230.00000000000003</ele><time>2026-04-10T10:35:43.998Z</time></trkpt><trkpt lat="44.90559837886587" lon="7.6825630759789645"><ele>230.0</ele><time>2026-04-10T10:35:44.998Z</time></trkpt><trkpt lat="44.90556304384025" lon="7.682391624021925"><ele>230.0</ele><time>2026-04-10T10:35:46.998Z</time></trkpt><trkpt lat="44.90553317383393" lon="7.682225782783339"><ele>230.0</ele><time>2026-04-10T10:35:48.998Z</time></trkpt><trkpt lat="44.90549937149173" lon="7.682058362658006"><ele>230.0</ele><time>2026-04-10T10:35:50.998Z</time></trkpt><trkpt lat="44.90546681791492" lon="7.681887561102029"><ele>230.0</ele><time>2026-04-10T10:35:52.998Z</time></trkpt><trkpt lat="44.90544965068568" lon="7.681795285187215"><ele>230.0</ele><time>2026-04-10T10:35:53.998Z</time></trkpt><trkpt lat="44.90541379885405" lon="7.681627337902199"><ele>230.2</ele><time>2026-04-10T10:35:55.998Z</time></trkpt><trkpt lat="44.90538172859609" lon="7.681449829895491"><ele>230.4</ele><time>2026-04-10T10:35:57.998Z</time></trkpt><trkpt lat="44.90536739764381" lon="7.68136134530621"><ele>230.60000000000002</ele><time>2026-04-10T10:35:58.998Z</time></trkpt><trkpt lat="44.90534058365482" lon="7.681188341490465"><ele>230.8</ele><time>2026-04-10T10:36:00.998Z</time></trkpt><trkpt lat="44.90533239426274" lon="7.681074201395829"><ele>231.0</ele><time>2026-04-10T10:36:01.998Z</time></trkpt><trkpt lat="44.90533247342628" lon="7.680961894747648"><ele>231.0</ele><time>2026-04-10T10:36:02.998Z</time></trkpt><trkpt lat="44.90534638068498" lon="7.680865978506442"><ele>231.0</ele><time>2026-04-10T10:36:03.998Z</time></trkpt><trkpt lat="44.90538155417355" lon="7.680694652702696"><ele>231.0</ele><time>2026-04-10T10:36:05.998Z</time></trkpt><trkpt lat="44.905400505765044" lon="7.680609529995795"><ele>231.0</ele><time>2026-04-10T10:36:06.998Z</time></trkpt><trkpt lat="44.905417219473385" lon="7.680521412606905"><ele>231.0</ele><time>2026-04-10T10:36:07.998Z</time></trkpt><trkpt lat="44.90543389553224" lon="7.680431599004825"><ele>231.0</ele><time>2026-04-10T10:36:08.998Z</time></trkpt><trkpt lat="44.905453831437164" lon="7.680343723507696"><ele>231.16666666666666</ele><time>2026-04-10T10:36:09.998Z</time></trkpt><trkpt lat="44.905473877767136" lon="7.680259160887593"><ele>231.33333333333331</ele><time>2026-04-10T10:36:10.998Z</time></trkpt><trkpt lat="44.905492912630145" lon="7.6801732635054965"><ele>231.5</ele><time>2026-04-10T10:36:11.998Z</time></trkpt><trkpt lat="44.90551032225307" lon="7.6800873594627515"><ele>231.66666666666666</ele><time>2026-04-10T10:36:12.998Z</time></trkpt><trkpt lat="44.9055357612329" lon="7.679918389676925"><ele>231.83333333333331</ele><time>2026-04-10T10:36:14.998Z</time></trkpt><trkpt lat="44.905516176215" lon="7.679759845101821"><ele>232.0</ele><time>2026-04-10T10:36:16.998Z</time></trkpt><trkpt lat="44.90551868486804" lon="7.67966377393934"><ele>231.99999999999997</ele><time>2026-04-10T10:36:17.998Z</time></trkpt><trkpt lat="44.90554176882929" lon="7.679579745464347"><ele>232.0</ele><time>2026-04-10T10:36:18.998Z</time></trkpt><trkpt lat="44.905573622906104" lon="7.679499811142718"><ele>232.0</ele><time>2026-04-10T10:36:19.998Z</time></trkpt><trkpt lat="44.90565096577371" lon="7.679378145916166"><ele>232.0</ele><time>2026-04-10T10:36:21.998Z</time></trkpt><trkpt lat="44.905725176656155" lon="7.679231098736607"><ele>231.99999999999997</ele><time>2026-04-10T10:36:23.998Z</time></trkpt><trkpt lat="44.90575742841088" lon="7.6791541296831065"><ele>232.0</ele><time>2026-04-10T10:36:24.998Z</time></trkpt><trkpt lat="44.90578632402787" lon="7.679074436253313"><ele>232.0</ele><time>2026-04-10T10:36:25.998Z</time></trkpt><trkpt lat="44.905824651422336" lon="7.678916986792512"><ele>232.0</ele><time>2026-04-10T10:36:27.998Z</time></trkpt><trkpt lat="44.90584421324137" lon="7.67875300950177"><ele>232.0</ele><time>2026-04-10T10:36:29.998Z</time></trkpt><trkpt lat="44.90586261845406" lon="7.678580279694521"><ele>232.0</ele><time>2026-04-10T10:36:31.998Z</time></trkpt><trkpt lat="44.9058743532818" lon="7.678478652978226"><ele>232.0</ele><time>2026-04-10T10:36:32.998Z</time></trkpt><trkpt lat="44.905909260548604" lon="7.678322623853721"><ele>231.39999999999998</ele><time>2026-04-10T10:36:34.998Z</time></trkpt><trkpt lat="44.90594604829421" lon="7.6781982955352595"><ele>230.79999999999998</ele><time>2026-04-10T10:36:36.998Z</time></trkpt><trkpt lat="44.9059966609836" lon="7.678065176999552"><ele>230.2</ele><time>2026-04-10T10:36:38.998Z</time></trkpt><trkpt lat="44.90605858588138" lon="7.677928027612564"><ele>229.6</ele><time>2026-04-10T10:36:40.998Z</time></trkpt><trkpt lat="44.90608919435802" lon="7.677836210059585"><ele>229.0</ele><time>2026-04-10T10:36:41.998Z</time></trkpt><trkpt lat="44.90610889826789" lon="7.677749974458697"><ele>230.2</ele><time>2026-04-10T10:36:42.998Z</time></trkpt><trkpt lat="44.906097299756105" lon="7.677577131616719"><ele>231.39999999999998</ele><time>2026-04-10T10:36:44.998Z</time></trkpt><trkpt lat="44.90612769028875" lon="7.677451672242162"><ele>232.6</ele><time>2026-04-10T10:36:46.998Z</time></trkpt><trkpt lat="44.90616636566466" lon="7.677318914660213"><ele>233.8</ele><time>2026-04-10T10:36:48.998Z</time></trkpt><trkpt lat="44.906181576281966" lon="7.677221423665083"><ele>235.0</ele><time>2026-04-10T10:36:50.998Z</time></trkpt><trkpt lat="44.9061998060144" lon="7.677121725854953"><ele>234.99999999999997</ele><time>2026-04-10T10:36:52.998Z</time></trkpt><trkpt lat="44.90622423973194" lon="7.6770112823886585"><ele>235.0</ele><time>2026-04-10T10:36:54.998Z</time></trkpt><trkpt lat="44.90626810860821" lon="7.676917036009127"><ele>235.0</ele><time>2026-04-10T10:36:56.998Z</time></trkpt><trkpt lat="44.90630826410929" lon="7.67681585094335"><ele>235.0</ele><time>2026-04-10T10:36:59.998Z</time></trkpt><trkpt lat="44.906305303527986" lon="7.6767014492555194"><ele>234.99999999999997</ele><time>2026-04-10T10:37:01.998Z</time></trkpt><trkpt lat="44.906308352174484" lon="7.676590968750391"><ele>235.0</ele><time>2026-04-10T10:37:03.998Z</time></trkpt><trkpt lat="44.906309007412396" lon="7.676491589543805"><ele>236.33333333333331</ele><time>2026-04-10T10:37:05.998Z</time></trkpt><trkpt lat="44.90631249491261" lon="7.676386128446703"><ele>237.66666666666666</ele><time>2026-04-10T10:37:08Z</time></trkpt><trkpt lat="44.90633636084183" lon="7.676259483303763"><ele>239.0</ele><time>2026-04-10T10:37:11Z</time></trkpt><trkpt lat="44.90632901806533" lon="7.676125388157104"><ele>240.33333333333331</ele><time>2026-04-10T10:37:14Z</time></trkpt><trkpt lat="44.906323049254105" lon="7.676017453220047"><ele>241.66666666666666</ele><time>2026-04-10T10:37:16Z</time></trkpt><trkpt lat="44.9063297856425" lon="7.675894440302083"><ele>243.0</ele><time>2026-04-10T10:37:18Z</time></trkpt><trkpt lat="44.9063609590977" lon="7.675769048899288"><ele>243.16666666666666</ele><time>2026-04-10T10:37:20Z</time></trkpt><trkpt lat="44.90638652990432" lon="7.675659316691883"><ele>243.33333333333331</ele><time>2026-04-10T10:37:22Z</time></trkpt><trkpt lat="44.90641437619591" lon="7.675570152695061"><ele>243.5</ele><time>2026-04-10T10:37:24Z</time></trkpt><trkpt lat="44.90644239972681" lon="7.675463834398317"><ele>243.66666666666666</ele><time>2026-04-10T10:37:26Z</time></trkpt><trkpt lat="44.906464781439674" lon="7.675343118182261"><ele>243.83333333333331</ele><time>2026-04-10T10:37:29Z</time></trkpt><trkpt lat="44.90647535821909" lon="7.675234353527976"><ele>244.0</ele><time>2026-04-10T10:37:32Z</time></trkpt><trkpt lat="44.90649020943008" lon="7.675143465825474"><ele>243.99999999999997</ele><time>2026-04-10T10:37:34Z</time></trkpt><trkpt lat="44.90652232365172" lon="7.675046667184839"><ele>244.0</ele><time>2026-04-10T10:37:36Z</time></trkpt><trkpt lat="44.90656754280179" lon="7.674938060196257"><ele>244.0</ele><time>2026-04-10T10:37:38Z</time></trkpt><trkpt lat="44.90657795213905" lon="7.67484460662451"><ele>244.0</ele><time>2026-04-10T10:37:42Z</time></trkpt><trkpt lat="44.90657987688774" lon="7.674747410437899"><ele>243.99999999999997</ele><time>2026-04-10T10:37:46Z</time></trkpt><trkpt lat="44.90660659554455" lon="7.674631488460852"><ele>244.0</ele><time>2026-04-10T10:37:49Z</time></trkpt><trkpt lat="44.90663990776016" lon="7.674555433043002"><ele>244.0</ele><time>2026-04-10T10:37:51Z</time></trkpt><trkpt lat="44.906666552121585" lon="7.674444966678551"><ele>244.0</ele><time>2026-04-10T10:37:55Z</time></trkpt><trkpt lat="44.90661893748466" lon="7.67438120916537"><ele>240.0</ele><time>2026-04-10T10:38:00Z</time></trkpt><trkpt lat="44.90654345757725" lon="7.674331189117668"><ele>240.0</ele><time>2026-04-10T10:38:04Z</time></trkpt><trkpt lat="44.906467876512856" lon="7.674321526073542"><ele>240.0</ele><time>2026-04-10T10:38:07Z</time></trkpt><trkpt lat="44.90639706819719" lon="7.674317381770975"><ele>240.0</ele><time>2026-04-10T10:38:10Z</time></trkpt><trkpt lat="44.90633351568605" lon="7.67433357629975"><ele>240.0</ele><time>2026-04-10T10:38:15Z</time></trkpt></trkseg></trk></gpx>